<?xml version='1.0' encoding='UTF-8'?><gpx version="1.1" creator="JPX - https://github.com/jenetics/jpx" xmlns="http://www.topografix.com/GPX/1/1"><trk><trkseg><trkpt lat="43.43872219542537" lon="5.852635274491789"><ele>353.0</ele><time>2026-04-18T11:27:45.312Z</time></trkpt><trkpt lat="43.43870437101015" lon="5.852539606503177"><ele>353.0</ele><time>2026-04-18T11:28:15Z</time></trkpt><trkpt lat="43.438708330327174" lon="5.852628164463348"><ele>353.0</ele><time>2026-04-18T11:28:35.999Z</time></trkpt><trkpt lat="43.43878275343435" lon="5.852532522430254"><ele>353.0</ele><time>2026-04-18T11:29:32Z</time></trkpt><trkpt lat="43.43880924022155" lon="5.85243891387795"><ele>353.0</ele><time>2026-04-18T11:29:34Z</time></trkpt><trkpt lat="43.438835601500266" lon="5.852267169613704"><ele>353.0</ele><time>2026-04-18T11:29:36Z</time></trkpt><trkpt lat="43.43884786605387" lon="5.852154418457315"><ele>355.5</ele><time>2026-04-18T11:29:37Z</time></trkpt><trkpt lat="43.438862482182564" lon="5.852033554860439"><ele>358.0</ele><time>2026-04-18T11:29:38Z</time></trkpt><trkpt lat="43.43891288622461" lon="5.8519397700619935"><ele>360.5</ele><time>2026-04-18T11:29:40Z</time></trkpt><trkpt lat="43.43898591356704" lon="5.851964899513038"><ele>363.0</ele><time>2026-04-18T11:29:42Z</time></trkpt><trkpt lat="43.43904838024083" lon="5.852006524946069"><ele>365.5</ele><time>2026-04-18T11:29:43Z</time></trkpt><trkpt lat="43.43913736072478" lon="5.852067137945736"><ele>368.0</ele><time>2026-04-18T11:29:44Z</time></trkpt><trkpt lat="43.43923223800389" lon="5.852134796093431"><ele>368.0</ele><time>2026-04-18T11:29:45Z</time></trkpt><trkpt lat="43.43931464876422" lon="5.852198292540065"><ele>368.0</ele><time>2026-04-18T11:29:46Z</time></trkpt><trkpt lat="43.439403452602875" lon="5.852258655509445"><ele>368.0</ele><time>2026-04-18T11:29:47Z</time></trkpt><trkpt lat="43.43950794140829" lon="5.852329378910277"><ele>368.0</ele><time>2026-04-18T11:29:48Z</time></trkpt><trkpt lat="43.43959706793152" lon="5.852384567961846"><ele>368.0</ele><time>2026-04-18T11:29:49Z</time></trkpt><trkpt lat="43.43967673599011" lon="5.8524248990453325"><ele>367.33333333333337</ele><time>2026-04-18T11:29:50Z</time></trkpt><trkpt lat="43.43974769717311" lon="5.852458319868931"><ele>366.6666666666667</ele><time>2026-04-18T11:29:51Z</time></trkpt><trkpt lat="43.43981474511901" lon="5.852493389836176"><ele>366.0</ele><time>2026-04-18T11:29:52.001Z</time></trkpt><trkpt lat="43.43989657634823" lon="5.852513594964559"><ele>365.3333333333333</ele><time>2026-04-18T11:29:53.001Z</time></trkpt><trkpt lat="43.4399821567911" lon="5.852624851932337"><ele>364.66666666666663</ele><time>2026-04-18T11:29:55.001Z</time></trkpt><trkpt lat="43.44002768940558" lon="5.8527425150343335"><ele>364.0</ele><time>2026-04-18T11:29:57.001Z</time></trkpt><trkpt lat="43.44001866787757" lon="5.852914546117634"><ele>362.66666666666663</ele><time>2026-04-18T11:29:59.001Z</time></trkpt><trkpt lat="43.43999758498004" lon="5.8530076406515255"><ele>361.3333333333333</ele><time>2026-04-18T11:30:00.001Z</time></trkpt><trkpt lat="43.43998719770341" lon="5.853113162082376"><ele>360.0</ele><time>2026-04-18T11:30:01.001Z</time></trkpt><trkpt lat="43.43998773661488" lon="5.853233329736775"><ele>358.6666666666667</ele><time>2026-04-18T11:30:02.001Z</time></trkpt><trkpt lat="43.439990950219766" lon="5.853373301429516"><ele>357.33333333333337</ele><time>2026-04-18T11:30:03.001Z</time></trkpt><trkpt lat="43.440006858726896" lon="5.853472954945218"><ele>356.0</ele><time>2026-04-18T11:30:04.001Z</time></trkpt><trkpt lat="43.44002080331266" lon="5.853561524585962"><ele>355.0</ele><time>2026-04-18T11:30:05.001Z</time></trkpt><trkpt lat="43.44003593233879" lon="5.8536911061611745"><ele>354.0</ele><time>2026-04-18T11:30:07.001Z</time></trkpt><trkpt lat="43.44002312749518" lon="5.853784595267542"><ele>353.0</ele><time>2026-04-18T11:30:08.001Z</time></trkpt><trkpt lat="43.44000414831688" lon="5.853913950435533"><ele>352.0</ele><time>2026-04-18T11:30:09.001Z</time></trkpt><trkpt lat="43.439962446832304" lon="5.8540602231718735"><ele>351.0</ele><time>2026-04-18T11:30:10Z</time></trkpt><trkpt lat="43.43992313615655" lon="5.8542358657398275"><ele>350.5</ele><time>2026-04-18T11:30:11Z</time></trkpt><trkpt lat="43.43990279879633" lon="5.854406896833572"><ele>350.0</ele><time>2026-04-18T11:30:12Z</time></trkpt><trkpt lat="43.439907462123756" lon="5.85458856840987"><ele>349.5</ele><time>2026-04-18T11:30:13Z</time></trkpt><trkpt lat="43.4399147953321" lon="5.854750649853624"><ele>349.0</ele><time>2026-04-18T11:30:14Z</time></trkpt><trkpt lat="43.43990633078423" lon="5.8549008124138355"><ele>349.0</ele><time>2026-04-18T11:30:15Z</time></trkpt><trkpt lat="43.439880020977704" lon="5.85504023649532"><ele>349.0</ele><time>2026-04-18T11:30:16Z</time></trkpt><trkpt lat="43.43984879713407" lon="5.855172205510062"><ele>349.0</ele><time>2026-04-18T11:30:17Z</time></trkpt><trkpt lat="43.439820304988565" lon="5.855285942797169"><ele>349.0</ele><time>2026-04-18T11:30:18Z</time></trkpt><trkpt lat="43.439786846001496" lon="5.855385942793693"><ele>349.0</ele><time>2026-04-18T11:30:19Z</time></trkpt><trkpt lat="43.43976167950223" lon="5.855496074093545"><ele>347.79999999999995</ele><time>2026-04-18T11:30:20Z</time></trkpt><trkpt lat="43.43974243254607" lon="5.855612744055261"><ele>346.59999999999997</ele><time>2026-04-18T11:30:21Z</time></trkpt><trkpt lat="43.43971854141728" lon="5.85574442432133"><ele>345.4</ele><time>2026-04-18T11:30:22Z</time></trkpt><trkpt lat="43.439696818176785" lon="5.855883527215398"><ele>344.2</ele><time>2026-04-18T11:30:23Z</time></trkpt><trkpt lat="43.43967582686579" lon="5.856032191178592"><ele>343.0</ele><time>2026-04-18T11:30:24Z</time></trkpt><trkpt lat="43.43965272700889" lon="5.856217774487277"><ele>344.0</ele><time>2026-04-18T11:30:25Z</time></trkpt><trkpt lat="43.439633247041684" lon="5.856413688699335"><ele>345.0</ele><time>2026-04-18T11:30:26Z</time></trkpt><trkpt lat="43.43961662832345" lon="5.856598380014521"><ele>346.0</ele><time>2026-04-18T11:30:27Z</time></trkpt><trkpt lat="43.439615731651585" lon="5.856761833836378"><ele>347.0</ele><time>2026-04-18T11:30:28Z</time></trkpt><trkpt lat="43.4396074777962" lon="5.856903645356939"><ele>347.0</ele><time>2026-04-18T11:30:29Z</time></trkpt><trkpt lat="43.43958998162894" lon="5.857027077672808"><ele>347.0</ele><time>2026-04-18T11:30:30Z</time></trkpt><trkpt lat="43.43955716727419" lon="5.8571362043886"><ele>347.0</ele><time>2026-04-18T11:30:31Z</time></trkpt><trkpt lat="43.439507563854164" lon="5.857258135253186"><ele>347.0</ele><time>2026-04-18T11:30:32Z</time></trkpt><trkpt lat="43.439465954227984" lon="5.857392834852561"><ele>347.0</ele><time>2026-04-18T11:30:33Z</time></trkpt><trkpt lat="43.43944662908909" lon="5.857498426012048"><ele>347.0</ele><time>2026-04-18T11:30:34Z</time></trkpt><trkpt lat="43.439369980466594" lon="5.857597217628952"><ele>347.0</ele><time>2026-04-18T11:30:39Z</time></trkpt><trkpt lat="43.43930973212665" lon="5.8576963685175905"><ele>347.0</ele><time>2026-04-18T11:30:40Z</time></trkpt><trkpt lat="43.43927840431151" lon="5.85782403862611"><ele>347.0</ele><time>2026-04-18T11:30:41Z</time></trkpt><trkpt lat="43.439264901781065" lon="5.857941061594806"><ele>347.0</ele><time>2026-04-18T11:30:42Z</time></trkpt><trkpt lat="43.43922652373764" lon="5.858061680140945"><ele>347.20000000000005</ele><time>2026-04-18T11:30:43Z</time></trkpt><trkpt lat="43.43917163621939" lon="5.858196207233292"><ele>347.4</ele><time>2026-04-18T11:30:44Z</time></trkpt><trkpt lat="43.43911517010217" lon="5.858334668399487"><ele>347.6</ele><time>2026-04-18T11:30:45Z</time></trkpt><trkpt lat="43.43905582146097" lon="5.858460867764342"><ele>347.79999999999995</ele><time>2026-04-18T11:30:46Z</time></trkpt><trkpt lat="43.438995467667006" lon="5.858580925298039"><ele>348.0</ele><time>2026-04-18T11:30:47Z</time></trkpt><trkpt lat="43.438927682767904" lon="5.858701916115836"><ele>348.0</ele><time>2026-04-18T11:30:48Z</time></trkpt><trkpt lat="43.43884364163006" lon="5.858837053983165"><ele>348.0</ele><time>2026-04-18T11:30:49Z</time></trkpt><trkpt lat="43.43875928260272" lon="5.8589843936757555"><ele>348.0</ele><time>2026-04-18T11:30:50Z</time></trkpt><trkpt lat="43.438679855289024" lon="5.859101379272875"><ele>348.0</ele><time>2026-04-18T11:30:51Z</time></trkpt><trkpt lat="43.43861552214404" lon="5.859191899337046"><ele>348.0</ele><time>2026-04-18T11:30:52Z</time></trkpt><trkpt lat="43.43855792513341" lon="5.859251938069167"><ele>348.0</ele><time>2026-04-18T11:30:53Z</time></trkpt><trkpt lat="43.43849427927498" lon="5.8593453809469525"><ele>348.0</ele><time>2026-04-18T11:30:56Z</time></trkpt><trkpt lat="43.43845627643684" lon="5.859430130181659"><ele>348.0</ele><time>2026-04-18T11:30:57Z</time></trkpt><trkpt lat="43.438406752480674" lon="5.859541311631925"><ele>348.0</ele><time>2026-04-18T11:30:58Z</time></trkpt><trkpt lat="43.43834075520675" lon="5.859677810884872"><ele>347.25</ele><time>2026-04-18T11:30:59Z</time></trkpt><trkpt lat="43.438270035320784" lon="5.8598148383338255"><ele>346.5</ele><time>2026-04-18T11:31:00Z</time></trkpt><trkpt lat="43.43819907952691" lon="5.859947501240737"><ele>345.75</ele><time>2026-04-18T11:31:01Z</time></trkpt><trkpt lat="43.43811833242744" lon="5.860097199406607"><ele>345.0</ele><time>2026-04-18T11:31:02Z</time></trkpt><trkpt lat="43.43801759280969" lon="5.860266213256916"><ele>344.0</ele><time>2026-04-18T11:31:03Z</time></trkpt><trkpt lat="43.43792684260931" lon="5.860427137979378"><ele>343.0</ele><time>2026-04-18T11:31:04Z</time></trkpt><trkpt lat="43.43783623230579" lon="5.860601639014601"><ele>342.0</ele><time>2026-04-18T11:31:05Z</time></trkpt><trkpt lat="43.43774032271659" lon="5.860788909146737"><ele>342.0</ele><time>2026-04-18T11:31:06Z</time></trkpt><trkpt lat="43.43765567030884" lon="5.860966547125507"><ele>342.0</ele><time>2026-04-18T11:31:07Z</time></trkpt><trkpt lat="43.43757909453164" lon="5.8611319051011685"><ele>342.0</ele><time>2026-04-18T11:31:08Z</time></trkpt><trkpt lat="43.43750454332591" lon="5.861289916569688"><ele>342.0</ele><time>2026-04-18T11:31:09Z</time></trkpt><trkpt lat="43.43742301283759" lon="5.861452448608433"><ele>342.0</ele><time>2026-04-18T11:31:10Z</time></trkpt><trkpt lat="43.43732558251524" lon="5.861635493381747"><ele>342.0</ele><time>2026-04-18T11:31:11Z</time></trkpt><trkpt lat="43.437204628125215" lon="5.861801587762134"><ele>342.0</ele><time>2026-04-18T11:31:12Z</time></trkpt><trkpt lat="43.43710957677281" lon="5.86197317913067"><ele>340.25</ele><time>2026-04-18T11:31:13Z</time></trkpt><trkpt lat="43.43701407182423" lon="5.862125909543912"><ele>338.5</ele><time>2026-04-18T11:31:14Z</time></trkpt><trkpt lat="43.43691958972945" lon="5.862268679041835"><ele>336.75</ele><time>2026-04-18T11:31:15Z</time></trkpt><trkpt lat="43.43683192732489" lon="5.862399250091507"><ele>335.0</ele><time>2026-04-18T11:31:16Z</time></trkpt><trkpt lat="43.43676064406899" lon="5.862521756886236"><ele>334.4</ele><time>2026-04-18T11:31:17Z</time></trkpt><trkpt lat="43.43669564514686" lon="5.862635660731116"><ele>333.8</ele><time>2026-04-18T11:31:18Z</time></trkpt><trkpt lat="43.436631515479625" lon="5.862737503643865"><ele>333.20000000000005</ele><time>2026-04-18T11:31:19Z</time></trkpt><trkpt lat="43.43656801769251" lon="5.862832744615306"><ele>332.6</ele><time>2026-04-18T11:31:20Z</time></trkpt><trkpt lat="43.436514568660186" lon="5.86290911517498"><ele>332.0</ele><time>2026-04-18T11:31:21Z</time></trkpt><trkpt lat="43.43644574258476" lon="5.8630066892776584"><ele>332.0</ele><time>2026-04-18T11:31:23Z</time></trkpt><trkpt lat="43.43642145689614" lon="5.8630908468662115"><ele>332.0</ele><time>2026-04-18T11:32:52Z</time></trkpt><trkpt lat="43.436398614448336" lon="5.863176077433054"><ele>332.0</ele><time>2026-04-18T11:33:00Z</time></trkpt><trkpt lat="43.43651846524141" lon="5.863227996201304"><ele>332.0</ele><time>2026-04-18T11:33:02Z</time></trkpt><trkpt lat="43.43661148446844" lon="5.863219287012654"><ele>332.0</ele><time>2026-04-18T11:33:03Z</time></trkpt><trkpt lat="43.43670236911747" lon="5.863217373280743"><ele>332.0</ele><time>2026-04-18T11:33:04Z</time></trkpt><trkpt lat="43.43680691630988" lon="5.863223790423812"><ele>332.0</ele><time>2026-04-18T11:33:05Z</time></trkpt><trkpt lat="43.43691929475396" lon="5.863231486278383"><ele>332.0</ele><time>2026-04-18T11:33:06Z</time></trkpt><trkpt lat="43.43701999931928" lon="5.863238002195713"><ele>332.0</ele><time>2026-04-18T11:33:07Z</time></trkpt><trkpt lat="43.4371157693048" lon="5.863241104895643"><ele>332.0</ele><time>2026-04-18T11:33:08Z</time></trkpt><trkpt lat="43.43721980992874" lon="5.863245123819271"><ele>332.0</ele><time>2026-04-18T11:33:09Z</time></trkpt><trkpt lat="43.437334014744685" lon="5.863250544553552"><ele>332.5</ele><time>2026-04-18T11:33:10Z</time></trkpt><trkpt lat="43.4374533189396" lon="5.863254557690827"><ele>333.0</ele><time>2026-04-18T11:33:11Z</time></trkpt><trkpt lat="43.43757907296034" lon="5.8632572349180245"><ele>333.5</ele><time>2026-04-18T11:33:12Z</time></trkpt><trkpt lat="43.437713001222136" lon="5.863254887380153"><ele>334.0</ele><time>2026-04-18T11:33:13Z</time></trkpt><trkpt lat="43.43786378799271" lon="5.863242585140094"><ele>334.3333333333333</ele><time>2026-04-18T11:33:14Z</time></trkpt><trkpt lat="43.43802267526304" lon="5.863216401226918"><ele>334.6666666666667</ele><time>2026-04-18T11:33:15Z</time></trkpt><trkpt lat="43.43817586985344" lon="5.863187827770982"><ele>335.0</ele><time>2026-04-18T11:33:16Z</time></trkpt><trkpt lat="43.43833275705854" lon="5.863154286063543"><ele>335.0</ele><time>2026-04-18T11:33:17Z</time></trkpt><trkpt lat="43.43850050611625" lon="5.86311964011401"><ele>335.0</ele><time>2026-04-18T11:33:18Z</time></trkpt><trkpt lat="43.43867844534881" lon="5.863092399159402"><ele>335.0</ele><time>2026-04-18T11:33:19Z</time></trkpt><trkpt lat="43.43885269187272" lon="5.863063451981373"><ele>334.0</ele><time>2026-04-18T11:33:20Z</time></trkpt><trkpt lat="43.43901220625799" lon="5.863037923647629"><ele>333.0</ele><time>2026-04-18T11:33:21Z</time></trkpt><trkpt lat="43.439156504587274" lon="5.863012105592566"><ele>332.0</ele><time>2026-04-18T11:33:22Z</time></trkpt><trkpt lat="43.43930005189629" lon="5.862992377749305"><ele>332.0</ele><time>2026-04-18T11:33:23Z</time></trkpt><trkpt lat="43.439433375646246" lon="5.862982781809281"><ele>332.0</ele><time>2026-04-18T11:33:24Z</time></trkpt><trkpt lat="43.43955114241461" lon="5.862984995343375"><ele>332.0</ele><time>2026-04-18T11:33:25Z</time></trkpt><trkpt lat="43.43963629441581" lon="5.86300898645267"><ele>332.0</ele><time>2026-04-18T11:33:26Z</time></trkpt><trkpt lat="43.439701334352165" lon="5.863042480119772"><ele>332.0</ele><time>2026-04-18T11:33:27Z</time></trkpt><trkpt lat="43.43975567081358" lon="5.863089881185973"><ele>332.5</ele><time>2026-04-18T11:33:28Z</time></trkpt><trkpt lat="43.43980074297971" lon="5.86315740839092"><ele>333.0</ele><time>2026-04-18T11:33:29Z</time></trkpt><trkpt lat="43.439858416141625" lon="5.8632193517903834"><ele>333.5</ele><time>2026-04-18T11:33:30Z</time></trkpt><trkpt lat="43.43993647527004" lon="5.863237837105816"><ele>334.0</ele><time>2026-04-18T11:33:31Z</time></trkpt><trkpt lat="43.44001669081112" lon="5.863204811038589"><ele>334.5</ele><time>2026-04-18T11:33:32Z</time></trkpt><trkpt lat="43.440089632941955" lon="5.863131185383901"><ele>335.0</ele><time>2026-04-18T11:33:33Z</time></trkpt><trkpt lat="43.44017230872066" lon="5.863069443890866"><ele>335.0</ele><time>2026-04-18T11:33:34Z</time></trkpt><trkpt lat="43.44028679188579" lon="5.863030087429766"><ele>335.0</ele><time>2026-04-18T11:33:35Z</time></trkpt><trkpt lat="43.44042814248192" lon="5.862988411966617"><ele>335.0</ele><time>2026-04-18T11:33:36Z</time></trkpt><trkpt lat="43.44058425631856" lon="5.862927980241656"><ele>335.0</ele><time>2026-04-18T11:33:37Z</time></trkpt><trkpt lat="43.44073814685227" lon="5.862862435799856"><ele>334.6666666666667</ele><time>2026-04-18T11:33:38Z</time></trkpt><trkpt lat="43.44089595215973" lon="5.862795502000546"><ele>334.3333333333333</ele><time>2026-04-18T11:33:39Z</time></trkpt><trkpt lat="43.44107121052965" lon="5.8627319631201935"><ele>334.0</ele><time>2026-04-18T11:33:40Z</time></trkpt><trkpt lat="43.441250155712645" lon="5.862668384339708"><ele>332.66666666666663</ele><time>2026-04-18T11:33:41Z</time></trkpt><trkpt lat="43.44141752299223" lon="5.862613186052459"><ele>331.3333333333333</ele><time>2026-04-18T11:33:42Z</time></trkpt><trkpt lat="43.441574055462034" lon="5.8625574388694535"><ele>330.0</ele><time>2026-04-18T11:33:43Z</time></trkpt><trkpt lat="43.44172650670002" lon="5.8625018348789455"><ele>330.0</ele><time>2026-04-18T11:33:44Z</time></trkpt><trkpt lat="43.44188355684592" lon="5.862449191472716"><ele>330.0</ele><time>2026-04-18T11:33:45Z</time></trkpt><trkpt lat="43.4420431148392" lon="5.86239067826961"><ele>330.0</ele><time>2026-04-18T11:33:46Z</time></trkpt><trkpt lat="43.44220211265959" lon="5.862324578868043"><ele>329.6666666666667</ele><time>2026-04-18T11:33:47Z</time></trkpt><trkpt lat="43.44236311168778" lon="5.86226040739894"><ele>329.33333333333337</ele><time>2026-04-18T11:33:48Z</time></trkpt><trkpt lat="43.44252914810833" lon="5.862198746317211"><ele>329.0</ele><time>2026-04-18T11:33:49Z</time></trkpt><trkpt lat="43.44269442712425" lon="5.862137651037251"><ele>329.0</ele><time>2026-04-18T11:33:50Z</time></trkpt><trkpt lat="43.44284919415346" lon="5.862082456817257"><ele>329.0</ele><time>2026-04-18T11:33:51Z</time></trkpt><trkpt lat="43.44299292508301" lon="5.862029141017202"><ele>329.0</ele><time>2026-04-18T11:33:52Z</time></trkpt><trkpt lat="43.443120635939074" lon="5.861967786570056"><ele>329.0</ele><time>2026-04-18T11:33:53Z</time></trkpt><trkpt lat="43.44324231369788" lon="5.861884501601106"><ele>329.0</ele><time>2026-04-18T11:33:54Z</time></trkpt><trkpt lat="43.44335229240388" lon="5.8617870697688526"><ele>329.0</ele><time>2026-04-18T11:33:55Z</time></trkpt><trkpt lat="43.443454005692914" lon="5.861680990447017"><ele>329.0</ele><time>2026-04-18T11:33:56Z</time></trkpt><trkpt lat="43.44354588690612" lon="5.86156478215126"><ele>329.0</ele><time>2026-04-18T11:33:57Z</time></trkpt><trkpt lat="43.44363002383557" lon="5.8614442348963784"><ele>329.0</ele><time>2026-04-18T11:33:58Z</time></trkpt><trkpt lat="43.443706161388086" lon="5.861320787796054"><ele>329.0</ele><time>2026-04-18T11:33:59Z</time></trkpt><trkpt lat="43.44376870819275" lon="5.861187180121381"><ele>329.0</ele><time>2026-04-18T11:34:00Z</time></trkpt><trkpt lat="43.443819604103155" lon="5.86104277166872"><ele>329.0</ele><time>2026-04-18T11:34:01Z</time></trkpt><trkpt lat="43.44386591928768" lon="5.860879847920951"><ele>327.25</ele><time>2026-04-18T11:34:02Z</time></trkpt><trkpt lat="43.4439157571766" lon="5.860706922167928"><ele>325.5</ele><time>2026-04-18T11:34:03Z</time></trkpt><trkpt lat="43.44395605049369" lon="5.860541705894093"><ele>323.75</ele><time>2026-04-18T11:34:04Z</time></trkpt><trkpt lat="43.443990409866025" lon="5.8603816285477555"><ele>322.0</ele><time>2026-04-18T11:34:05Z</time></trkpt><trkpt lat="43.44404107445724" lon="5.860241779076138"><ele>322.0</ele><time>2026-04-18T11:34:06Z</time></trkpt><trkpt lat="43.44405918887452" lon="5.860113250482708"><ele>322.0</ele><time>2026-04-18T11:34:07Z</time></trkpt><trkpt lat="43.444086224272695" lon="5.860010878808734"><ele>322.0</ele><time>2026-04-18T11:34:08Z</time></trkpt><trkpt lat="43.444109546706066" lon="5.859920346342132"><ele>322.0</ele><time>2026-04-18T11:34:09Z</time></trkpt><trkpt lat="43.444151232044405" lon="5.859789169335028"><ele>322.0</ele><time>2026-04-18T11:34:11Z</time></trkpt><trkpt lat="43.444210327789364" lon="5.859679473667911"><ele>322.0</ele><time>2026-04-18T11:34:57Z</time></trkpt><trkpt lat="43.44424812725897" lon="5.859602312979249"><ele>322.0</ele><time>2026-04-18T11:34:58Z</time></trkpt><trkpt lat="43.44430472843453" lon="5.859518214195846"><ele>322.0</ele><time>2026-04-18T11:35:00Z</time></trkpt><trkpt lat="43.444453484287365" lon="5.859590078776016"><ele>322.0</ele><time>2026-04-18T11:35:01Z</time></trkpt><trkpt lat="43.444556493774535" lon="5.85962783514692"><ele>322.0</ele><time>2026-04-18T11:35:02Z</time></trkpt><trkpt lat="43.444661844983465" lon="5.859670936972137"><ele>322.0</ele><time>2026-04-18T11:35:03Z</time></trkpt><trkpt lat="43.44475964714307" lon="5.859707026205263"><ele>322.0</ele><time>2026-04-18T11:35:04Z</time></trkpt><trkpt lat="43.444859169428284" lon="5.859741842826879"><ele>322.0</ele><time>2026-04-18T11:35:05Z</time></trkpt><trkpt lat="43.44496258328979" lon="5.859780320611508"><ele>322.0</ele><time>2026-04-18T11:35:06Z</time></trkpt><trkpt lat="43.44506736704394" lon="5.8598255789001525"><ele>322.0</ele><time>2026-04-18T11:35:07Z</time></trkpt><trkpt lat="43.445178774607626" lon="5.859868985922244"><ele>322.0</ele><time>2026-04-18T11:35:08Z</time></trkpt><trkpt lat="43.445293837946316" lon="5.859909418768011"><ele>322.0</ele><time>2026-04-18T11:35:09Z</time></trkpt><trkpt lat="43.44540386004715" lon="5.859947638050735"><ele>322.0</ele><time>2026-04-18T11:35:10Z</time></trkpt><trkpt lat="43.44550827373474" lon="5.859985693714883"><ele>322.0</ele><time>2026-04-18T11:35:11Z</time></trkpt><trkpt lat="43.44560375238908" lon="5.860021876949957"><ele>322.0</ele><time>2026-04-18T11:35:12Z</time></trkpt><trkpt lat="43.44568984343084" lon="5.860054024357156"><ele>321.5</ele><time>2026-04-18T11:35:13Z</time></trkpt><trkpt lat="43.445772652941926" lon="5.860083366089601"><ele>321.0</ele><time>2026-04-18T11:35:14Z</time></trkpt><trkpt lat="43.44585081501731" lon="5.860110746891867"><ele>320.5</ele><time>2026-04-18T11:35:15Z</time></trkpt><trkpt lat="43.44592694096784" lon="5.860142001831498"><ele>320.0</ele><time>2026-04-18T11:35:16Z</time></trkpt><trkpt lat="43.44600895551883" lon="5.860174611365232"><ele>319.5</ele><time>2026-04-18T11:35:17Z</time></trkpt><trkpt lat="43.446106119919264" lon="5.860208529294521"><ele>319.0</ele><time>2026-04-18T11:35:18Z</time></trkpt><trkpt lat="43.44621575279575" lon="5.860244630496696"><ele>318.75</ele><time>2026-04-18T11:35:19Z</time></trkpt><trkpt lat="43.44632436998418" lon="5.860282196836744"><ele>318.5</ele><time>2026-04-18T11:35:20Z</time></trkpt><trkpt lat="43.446434098605785" lon="5.860323425113131"><ele>318.25</ele><time>2026-04-18T11:35:21Z</time></trkpt><trkpt lat="43.44654507741847" lon="5.860364029412941"><ele>318.0</ele><time>2026-04-18T11:35:22Z</time></trkpt><trkpt lat="43.44665066114797" lon="5.860403697657233"><ele>318.0</ele><time>2026-04-18T11:35:23Z</time></trkpt><trkpt lat="43.4467510429076" lon="5.860443140141453"><ele>318.0</ele><time>2026-04-18T11:35:24Z</time></trkpt><trkpt lat="43.446847725770006" lon="5.860481157304581"><ele>318.0</ele><time>2026-04-18T11:35:25Z</time></trkpt><trkpt lat="43.446949432079826" lon="5.860519744377584"><ele>318.0</ele><time>2026-04-18T11:35:26Z</time></trkpt><trkpt lat="43.44706402964193" lon="5.860560826247914"><ele>318.0</ele><time>2026-04-18T11:35:27Z</time></trkpt><trkpt lat="43.44718477467249" lon="5.860609398699307"><ele>317.4</ele><time>2026-04-18T11:35:28Z</time></trkpt><trkpt lat="43.44729659694048" lon="5.8606519492430476"><ele>316.8</ele><time>2026-04-18T11:35:29Z</time></trkpt><trkpt lat="43.447404219992634" lon="5.8606915533366575"><ele>316.2</ele><time>2026-04-18T11:35:30Z</time></trkpt><trkpt lat="43.44750728406114" lon="5.8607328595280075"><ele>315.6</ele><time>2026-04-18T11:35:31Z</time></trkpt><trkpt lat="43.44760725789393" lon="5.86076835315421"><ele>315.0</ele><time>2026-04-18T11:35:32Z</time></trkpt><trkpt lat="43.44770342093465" lon="5.860792968433175"><ele>315.0</ele><time>2026-04-18T11:35:33Z</time></trkpt><trkpt lat="43.44779588650083" lon="5.860808369573061"><ele>315.0</ele><time>2026-04-18T11:35:34Z</time></trkpt><trkpt lat="43.44787616151502" lon="5.860815946470803"><ele>315.0</ele><time>2026-04-18T11:35:35Z</time></trkpt><trkpt lat="43.44798069344364" lon="5.860812939066503"><ele>315.0</ele><time>2026-04-18T11:35:37Z</time></trkpt><trkpt lat="43.448044363343165" lon="5.860808347762511"><ele>315.0</ele><time>2026-04-18T11:35:39Z</time></trkpt><trkpt lat="43.44811038744721" lon="5.860812264723045"><ele>315.0</ele><time>2026-04-18T11:35:43Z</time></trkpt><trkpt lat="43.44818837926124" lon="5.860867128591377"><ele>314.0</ele><time>2026-04-18T11:35:48Z</time></trkpt><trkpt lat="43.44823581046339" lon="5.861002160742839"><ele>313.0</ele><time>2026-04-18T11:35:50Z</time></trkpt><trkpt lat="43.44826753479864" lon="5.861152721577516"><ele>312.0</ele><time>2026-04-18T11:35:52Z</time></trkpt><trkpt lat="43.44835676897268" lon="5.86132071445692"><ele>311.0</ele><time>2026-04-18T11:35:54Z</time></trkpt><trkpt lat="43.44836458953184" lon="5.8615172546993035"><ele>311.0</ele><time>2026-04-18T11:35:56Z</time></trkpt><trkpt lat="43.44831806177453" lon="5.861610006920692"><ele>311.0</ele><time>2026-04-18T11:35:57Z</time></trkpt><trkpt lat="43.44824277610105" lon="5.861726223100967"><ele>311.0</ele><time>2026-04-18T11:35:58Z</time></trkpt><trkpt lat="43.44816356308378" lon="5.861824565822308"><ele>311.0</ele><time>2026-04-18T11:35:58.999Z</time></trkpt><trkpt lat="43.4480953450728" lon="5.861906536232576"><ele>311.0</ele><time>2026-04-18T11:35:59.999Z</time></trkpt><trkpt lat="43.44805241945917" lon="5.861983047913816"><ele>311.2</ele><time>2026-04-18T11:36:00.999Z</time></trkpt><trkpt lat="43.44805985064744" lon="5.862152738957016"><ele>311.40000000000003</ele><time>2026-04-18T11:36:02.999Z</time></trkpt><trkpt lat="43.448119570728394" lon="5.8622245595468305"><ele>311.6</ele><time>2026-04-18T11:36:03.999Z</time></trkpt><trkpt lat="43.44819478990422" lon="5.862301921756652"><ele>311.8</ele><time>2026-04-18T11:36:04.999Z</time></trkpt><trkpt lat="43.448291210939836" lon="5.862397276263277"><ele>312.0</ele><time>2026-04-18T11:36:05.999Z</time></trkpt><trkpt lat="43.44836974762192" lon="5.862501274580644"><ele>312.0</ele><time>2026-04-18T11:36:06.999Z</time></trkpt><trkpt lat="43.448425049218194" lon="5.862604716249893"><ele>312.0</ele><time>2026-04-18T11:36:07.999Z</time></trkpt><trkpt lat="43.44846710886039" lon="5.862693217836619"><ele>312.0</ele><time>2026-04-18T11:36:09Z</time></trkpt><trkpt lat="43.44849382865504" lon="5.8627771012808045"><ele>312.0</ele><time>2026-04-18T11:36:10Z</time></trkpt><trkpt lat="43.4485123086337" lon="5.862870505643588"><ele>312.0</ele><time>2026-04-18T11:36:11Z</time></trkpt><trkpt lat="43.448551023855146" lon="5.8629692626817915"><ele>312.0</ele><time>2026-04-18T11:36:12Z</time></trkpt><trkpt lat="43.44862932778417" lon="5.863088923247148"><ele>311.25</ele><time>2026-04-18T11:36:13Z</time></trkpt><trkpt lat="43.44872253261168" lon="5.863207324021572"><ele>310.5</ele><time>2026-04-18T11:36:14Z</time></trkpt><trkpt lat="43.44884068781824" lon="5.863305298592445"><ele>309.75</ele><time>2026-04-18T11:36:15Z</time></trkpt><trkpt lat="43.44898958774546" lon="5.863393402943603"><ele>309.0</ele><time>2026-04-18T11:36:16Z</time></trkpt><trkpt lat="43.44912504398097" lon="5.863471487510934"><ele>308.5</ele><time>2026-04-18T11:36:17Z</time></trkpt><trkpt lat="43.44925094574826" lon="5.863542716364155"><ele>308.0</ele><time>2026-04-18T11:36:18Z</time></trkpt><trkpt lat="43.44936920437842" lon="5.863616242312297"><ele>307.5</ele><time>2026-04-18T11:36:19Z</time></trkpt><trkpt lat="43.44948528857813" lon="5.863686813657171"><ele>307.0</ele><time>2026-04-18T11:36:20Z</time></trkpt><trkpt lat="43.44959205763128" lon="5.863757571984887"><ele>306.8</ele><time>2026-04-18T11:36:21Z</time></trkpt><trkpt lat="43.44969338153746" lon="5.86382911234236"><ele>306.6</ele><time>2026-04-18T11:36:22Z</time></trkpt><trkpt lat="43.449787606568925" lon="5.863901828025756"><ele>306.40000000000003</ele><time>2026-04-18T11:36:23Z</time></trkpt><trkpt lat="43.4498692605641" lon="5.863995012348197"><ele>306.2</ele><time>2026-04-18T11:36:24Z</time></trkpt><trkpt lat="43.449923208912146" lon="5.864131867265765"><ele>306.0</ele><time>2026-04-18T11:36:25Z</time></trkpt><trkpt lat="43.4499718218766" lon="5.864306353786106"><ele>305.6666666666667</ele><time>2026-04-18T11:36:26Z</time></trkpt><trkpt lat="43.450059690331486" lon="5.864470961317226"><ele>305.33333333333337</ele><time>2026-04-18T11:36:27Z</time></trkpt><trkpt lat="43.45018006870464" lon="5.86462017823208"><ele>305.0</ele><time>2026-04-18T11:36:28Z</time></trkpt><trkpt lat="43.450279642549646" lon="5.864755439313029"><ele>305.0</ele><time>2026-04-18T11:36:29Z</time></trkpt><trkpt lat="43.45037106769924" lon="5.864883275204335"><ele>305.0</ele><time>2026-04-18T11:36:30Z</time></trkpt><trkpt lat="43.450459033999095" lon="5.865003905190629"><ele>305.0</ele><time>2026-04-18T11:36:31Z</time></trkpt><trkpt lat="43.45054652135506" lon="5.8651163970450355"><ele>305.0</ele><time>2026-04-18T11:36:32Z</time></trkpt><trkpt lat="43.450629592976895" lon="5.865226641237888"><ele>304.75</ele><time>2026-04-18T11:36:33Z</time></trkpt><trkpt lat="43.450718358977454" lon="5.865314896940758"><ele>304.5</ele><time>2026-04-18T11:36:34Z</time></trkpt><trkpt lat="43.450815943292234" lon="5.865387895403289"><ele>304.25</ele><time>2026-04-18T11:36:35Z</time></trkpt><trkpt lat="43.45091661718336" lon="5.86546355866053"><ele>304.0</ele><time>2026-04-18T11:36:36Z</time></trkpt><trkpt lat="43.451015390242326" lon="5.86554370651462"><ele>304.0</ele><time>2026-04-18T11:36:37Z</time></trkpt><trkpt lat="43.45110714107896" lon="5.865626352897331"><ele>304.0</ele><time>2026-04-18T11:36:38Z</time></trkpt><trkpt lat="43.451189724117285" lon="5.865714908809537"><ele>304.0</ele><time>2026-04-18T11:36:39Z</time></trkpt><trkpt lat="43.45124663099185" lon="5.865816237174356"><ele>304.0</ele><time>2026-04-18T11:36:40Z</time></trkpt><trkpt lat="43.45127268017638" lon="5.8659210816308605"><ele>304.0</ele><time>2026-04-18T11:36:41Z</time></trkpt><trkpt lat="43.45128945773161" lon="5.866009147415016"><ele>303.59999999999997</ele><time>2026-04-18T11:36:42Z</time></trkpt><trkpt lat="43.45141680217731" lon="5.866032274866913"><ele>303.2</ele><time>2026-04-18T11:36:44Z</time></trkpt><trkpt lat="43.451480486762215" lon="5.865959400374992"><ele>302.79999999999995</ele><time>2026-04-18T11:36:45Z</time></trkpt><trkpt lat="43.45155102244233" lon="5.865909232573399"><ele>302.4</ele><time>2026-04-18T11:36:46Z</time></trkpt><trkpt lat="43.45164214273284" lon="5.865927240877897"><ele>302.0</ele><time>2026-04-18T11:36:47Z</time></trkpt><trkpt lat="43.45174098777835" lon="5.866004085347541"><ele>301.5</ele><time>2026-04-18T11:36:48Z</time></trkpt><trkpt lat="43.4518577223595" lon="5.866111912631998"><ele>301.0</ele><time>2026-04-18T11:36:49Z</time></trkpt><trkpt lat="43.45197371236919" lon="5.866236058775378"><ele>300.5</ele><time>2026-04-18T11:36:50Z</time></trkpt><trkpt lat="43.452061467887305" lon="5.866354859827205"><ele>300.0</ele><time>2026-04-18T11:36:51Z</time></trkpt><trkpt lat="43.45215254277834" lon="5.866455658284623"><ele>299.25</ele><time>2026-04-18T11:36:52Z</time></trkpt><trkpt lat="43.45225989394637" lon="5.866558805903136"><ele>298.5</ele><time>2026-04-18T11:36:53Z</time></trkpt><trkpt lat="43.452381015442384" lon="5.866674019082074"><ele>297.75</ele><time>2026-04-18T11:36:54Z</time></trkpt><trkpt lat="43.452493852750784" lon="5.866772550546606"><ele>297.0</ele><time>2026-04-18T11:36:55Z</time></trkpt><trkpt lat="43.45259135743485" lon="5.866874287583037"><ele>296.6</ele><time>2026-04-18T11:36:56Z</time></trkpt><trkpt lat="43.45266816730951" lon="5.866996872708569"><ele>296.2</ele><time>2026-04-18T11:36:57Z</time></trkpt><trkpt lat="43.452736655955924" lon="5.867119489882686"><ele>295.8</ele><time>2026-04-18T11:36:58Z</time></trkpt><trkpt lat="43.452805176609964" lon="5.8672202548480366"><ele>295.4</ele><time>2026-04-18T11:36:59Z</time></trkpt><trkpt lat="43.4528607701338" lon="5.867295458662914"><ele>295.0</ele><time>2026-04-18T11:37:00Z</time></trkpt><trkpt lat="43.45293043169377" lon="5.867373572653087"><ele>295.0</ele><time>2026-04-18T11:37:02Z</time></trkpt><trkpt lat="43.45299032451915" lon="5.867431048070393"><ele>295.0</ele><time>2026-04-18T11:37:07Z</time></trkpt><trkpt lat="43.45304875112344" lon="5.867544691266298"><ele>295.0</ele><time>2026-04-18T11:37:09Z</time></trkpt><trkpt lat="43.45312107315431" lon="5.86759097015657"><ele>295.0</ele><time>2026-04-18T11:37:10Z</time></trkpt><trkpt lat="43.453207153995265" lon="5.867614689416537"><ele>295.0</ele><time>2026-04-18T11:37:11Z</time></trkpt><trkpt lat="43.45329114484932" lon="5.867676848560424"><ele>295.0</ele><time>2026-04-18T11:37:12Z</time></trkpt><trkpt lat="43.45339078542802" lon="5.867765157375521"><ele>294.75</ele><time>2026-04-18T11:37:13Z</time></trkpt><trkpt lat="43.453509960836726" lon="5.867861563502954"><ele>294.5</ele><time>2026-04-18T11:37:14Z</time></trkpt><trkpt lat="43.45361956277455" lon="5.867954214360068"><ele>294.25</ele><time>2026-04-18T11:37:15Z</time></trkpt><trkpt lat="43.45374723360791" lon="5.868063108851381"><ele>294.0</ele><time>2026-04-18T11:37:16Z</time></trkpt><trkpt lat="43.453891576972765" lon="5.868187735878192"><ele>293.3333333333333</ele><time>2026-04-18T11:37:17Z</time></trkpt><trkpt lat="43.45403638798217" lon="5.868317101666286"><ele>292.66666666666663</ele><time>2026-04-18T11:37:18Z</time></trkpt><trkpt lat="43.45416563575989" lon="5.868448118780202"><ele>292.0</ele><time>2026-04-18T11:37:19Z</time></trkpt><trkpt lat="43.45428359562878" lon="5.868591664779288"><ele>292.0</ele><time>2026-04-18T11:37:20Z</time></trkpt><trkpt lat="43.4544040612198" lon="5.868753964149615"><ele>292.0</ele><time>2026-04-18T11:37:21Z</time></trkpt><trkpt lat="43.454522849587335" lon="5.868909733183526"><ele>292.0</ele><time>2026-04-18T11:37:22Z</time></trkpt><trkpt lat="43.454634610968455" lon="5.869043175307267"><ele>291.75</ele><time>2026-04-18T11:37:23Z</time></trkpt><trkpt lat="43.45473419302114" lon="5.869159010390218"><ele>291.5</ele><time>2026-04-18T11:37:24Z</time></trkpt><trkpt lat="43.45483185494773" lon="5.8692689317893105"><ele>291.25</ele><time>2026-04-18T11:37:25Z</time></trkpt><trkpt lat="43.45492547256331" lon="5.869383373629946"><ele>291.0</ele><time>2026-04-18T11:37:26Z</time></trkpt><trkpt lat="43.45502167822962" lon="5.869510429459029"><ele>291.0</ele><time>2026-04-18T11:37:27Z</time></trkpt><trkpt lat="43.455131811029716" lon="5.869637604609091"><ele>291.0</ele><time>2026-04-18T11:37:28Z</time></trkpt><trkpt lat="43.45523114653665" lon="5.8697599321618465"><ele>291.0</ele><time>2026-04-18T11:37:29Z</time></trkpt><trkpt lat="43.455302308637" lon="5.869896067892544"><ele>291.0</ele><time>2026-04-18T11:37:30Z</time></trkpt><trkpt lat="43.455333930860306" lon="5.870049146039388"><ele>291.25</ele><time>2026-04-18T11:37:31Z</time></trkpt><trkpt lat="43.45534596528487" lon="5.8702156151882425"><ele>291.5</ele><time>2026-04-18T11:37:32Z</time></trkpt><trkpt lat="43.455374604229114" lon="5.870392329214162"><ele>291.75</ele><time>2026-04-18T11:37:33Z</time></trkpt><trkpt lat="43.45543480406319" lon="5.870570399436451"><ele>292.0</ele><time>2026-04-18T11:37:34Z</time></trkpt><trkpt lat="43.455504997259006" lon="5.8707485143870475"><ele>291.75</ele><time>2026-04-18T11:37:35Z</time></trkpt><trkpt lat="43.45556433667689" lon="5.870937959801544"><ele>291.5</ele><time>2026-04-18T11:37:36Z</time></trkpt><trkpt lat="43.45562517170164" lon="5.871118299925522"><ele>291.25</ele><time>2026-04-18T11:37:37Z</time></trkpt><trkpt lat="43.455688970793" lon="5.871277016751534"><ele>291.0</ele><time>2026-04-18T11:37:38Z</time></trkpt><trkpt lat="43.45574897725935" lon="5.871421057345755"><ele>291.0</ele><time>2026-04-18T11:37:39Z</time></trkpt><trkpt lat="43.45580172827006" lon="5.871565512013905"><ele>291.0</ele><time>2026-04-18T11:37:40Z</time></trkpt><trkpt lat="43.455850792211145" lon="5.871726849130783"><ele>291.0</ele><time>2026-04-18T11:37:41Z</time></trkpt><trkpt lat="43.45590427271478" lon="5.8719032049088415"><ele>291.0</ele><time>2026-04-18T11:37:42Z</time></trkpt><trkpt lat="43.45597856302619" lon="5.872083775121846"><ele>291.0</ele><time>2026-04-18T11:37:43Z</time></trkpt><trkpt lat="43.45607926172967" lon="5.872257434567391"><ele>291.0</ele><time>2026-04-18T11:37:44Z</time></trkpt><trkpt lat="43.456199358331965" lon="5.872411887829687"><ele>291.0</ele><time>2026-04-18T11:37:45Z</time></trkpt><trkpt lat="43.456327527952354" lon="5.872555591086687"><ele>291.0</ele><time>2026-04-18T11:37:46Z</time></trkpt><trkpt lat="43.45647074788412" lon="5.87267856718254"><ele>291.0</ele><time>2026-04-18T11:37:47Z</time></trkpt><trkpt lat="43.45661037156472" lon="5.87279366438993"><ele>291.0</ele><time>2026-04-18T11:37:48Z</time></trkpt><trkpt lat="43.45673354603624" lon="5.872897852182113"><ele>291.0</ele><time>2026-04-18T11:37:49Z</time></trkpt><trkpt lat="43.456847193528986" lon="5.872996608631964"><ele>291.0</ele><time>2026-04-18T11:37:50Z</time></trkpt><trkpt lat="43.45695389134616" lon="5.873093918410975"><ele>291.0</ele><time>2026-04-18T11:37:51Z</time></trkpt><trkpt lat="43.457062759038365" lon="5.87318860926249"><ele>291.0</ele><time>2026-04-18T11:37:51.999Z</time></trkpt><trkpt lat="43.45718446027945" lon="5.8732974609528945"><ele>290.3333333333333</ele><time>2026-04-18T11:37:52.999Z</time></trkpt><trkpt lat="43.457314537805296" lon="5.873414446134449"><ele>289.66666666666663</ele><time>2026-04-18T11:37:53.999Z</time></trkpt><trkpt lat="43.457445464312464" lon="5.873535606219147"><ele>289.0</ele><time>2026-04-18T11:37:54.999Z</time></trkpt><trkpt lat="43.45757176060945" lon="5.873658238799398"><ele>289.0</ele><time>2026-04-18T11:37:55.999Z</time></trkpt><trkpt lat="43.45768054704327" lon="5.8737896248299135"><ele>289.0</ele><time>2026-04-18T11:37:56.999Z</time></trkpt><trkpt lat="43.45777378284455" lon="5.873933681216233"><ele>289.0</ele><time>2026-04-18T11:37:57.999Z</time></trkpt><trkpt lat="43.45786701157067" lon="5.874094373191753"><ele>289.0</ele><time>2026-04-18T11:37:58.999Z</time></trkpt><trkpt lat="43.45796325940217" lon="5.87426443816748"><ele>290.0</ele><time>2026-04-18T11:37:59.999Z</time></trkpt><trkpt lat="43.45807469848146" lon="5.874429166373972"><ele>291.0</ele><time>2026-04-18T11:38:00.999Z</time></trkpt><trkpt lat="43.458209730463075" lon="5.874592905992067"><ele>292.0</ele><time>2026-04-18T11:38:01.999Z</time></trkpt><trkpt lat="43.458358279768" lon="5.874752038938713"><ele>292.0</ele><time>2026-04-18T11:38:02.999Z</time></trkpt><trkpt lat="43.458515845502305" lon="5.8749203336567435"><ele>292.0</ele><time>2026-04-18T11:38:03.999Z</time></trkpt><trkpt lat="43.45868110625985" lon="5.875100981537663"><ele>292.0</ele><time>2026-04-18T11:38:04.999Z</time></trkpt><trkpt lat="43.45884073670831" lon="5.8752703195610705"><ele>292.0</ele><time>2026-04-18T11:38:05.999Z</time></trkpt><trkpt lat="43.45897745629312" lon="5.875426997847072"><ele>292.0</ele><time>2026-04-18T11:38:06.999Z</time></trkpt><trkpt lat="43.459105818339616" lon="5.87557531548011"><ele>292.0</ele><time>2026-04-18T11:38:07.999Z</time></trkpt><trkpt lat="43.45922467753907" lon="5.87571669255366"><ele>292.0</ele><time>2026-04-18T11:38:08.999Z</time></trkpt><trkpt lat="43.45933911502674" lon="5.875845902577949"><ele>292.0</ele><time>2026-04-18T11:38:09.999Z</time></trkpt><trkpt lat="43.459451903889196" lon="5.875956992192786"><ele>292.0</ele><time>2026-04-18T11:38:10.999Z</time></trkpt><trkpt lat="43.45955852024809" lon="5.876052462091038"><ele>292.0</ele><time>2026-04-18T11:38:11.999Z</time></trkpt><trkpt lat="43.45965873233755" lon="5.876139313486611"><ele>292.8333333333333</ele><time>2026-04-18T11:38:12.999Z</time></trkpt><trkpt lat="43.459751245548546" lon="5.8762108606874675"><ele>293.66666666666663</ele><time>2026-04-18T11:38:13.999Z</time></trkpt><trkpt lat="43.45982558579346" lon="5.876266386531089"><ele>294.5</ele><time>2026-04-18T11:38:15Z</time></trkpt><trkpt lat="43.459878516602394" lon="5.876317279487259"><ele>295.3333333333333</ele><time>2026-04-18T11:38:16Z</time></trkpt><trkpt lat="43.459944081631825" lon="5.87633109281671"><ele>296.1666666666667</ele><time>2026-04-18T11:38:17Z</time></trkpt><trkpt lat="43.46000407655209" lon="5.8763631555898055"><ele>297.0</ele><time>2026-04-18T11:38:18Z</time></trkpt><trkpt lat="43.46010942646899" lon="5.876379235741335"><ele>297.0</ele><time>2026-04-18T11:38:19Z</time></trkpt><trkpt lat="43.46023017838681" lon="5.8764161764603475"><ele>297.0</ele><time>2026-04-18T11:38:20Z</time></trkpt><trkpt lat="43.460335635961265" lon="5.876450663886966"><ele>297.0</ele><time>2026-04-18T11:38:21Z</time></trkpt><trkpt lat="43.46039820107639" lon="5.876577290829333"><ele>297.0</ele><time>2026-04-18T11:38:22Z</time></trkpt><trkpt lat="43.46042707507839" lon="5.876718625601705"><ele>298.0</ele><time>2026-04-18T11:38:23Z</time></trkpt><trkpt lat="43.460480936860264" lon="5.8768548772775615"><ele>299.0</ele><time>2026-04-18T11:38:24Z</time></trkpt><trkpt lat="43.46053376375703" lon="5.876967207660425"><ele>300.0</ele><time>2026-04-18T11:38:25Z</time></trkpt><trkpt lat="43.46058288066887" lon="5.877121974413702"><ele>301.0</ele><time>2026-04-18T11:38:26Z</time></trkpt><trkpt lat="43.46063978577977" lon="5.877303066341934"><ele>301.0</ele><time>2026-04-18T11:38:27Z</time></trkpt><trkpt lat="43.460692461232306" lon="5.877463082210736"><ele>301.0</ele><time>2026-04-18T11:38:28Z</time></trkpt><trkpt lat="43.46075098795418" lon="5.877634647790198"><ele>301.0</ele><time>2026-04-18T11:38:29Z</time></trkpt><trkpt lat="43.460819201091724" lon="5.877826997782224"><ele>301.0</ele><time>2026-04-18T11:38:30Z</time></trkpt><trkpt lat="43.460895583776555" lon="5.878019092574694"><ele>301.25</ele><time>2026-04-18T11:38:31Z</time></trkpt><trkpt lat="43.460965801856716" lon="5.8781897831178815"><ele>301.5</ele><time>2026-04-18T11:38:32Z</time></trkpt><trkpt lat="43.461031744551825" lon="5.8783446341324215"><ele>301.75</ele><time>2026-04-18T11:38:33Z</time></trkpt><trkpt lat="43.46108248923836" lon="5.878497756956136"><ele>302.0</ele><time>2026-04-18T11:38:34Z</time></trkpt><trkpt lat="43.46111961627445" lon="5.87864959883105"><ele>303.0</ele><time>2026-04-18T11:38:35Z</time></trkpt><trkpt lat="43.46116366383653" lon="5.878823808684631"><ele>304.0</ele><time>2026-04-18T11:38:36Z</time></trkpt><trkpt lat="43.461219987249535" lon="5.879021546728589"><ele>305.0</ele><time>2026-04-18T11:38:37Z</time></trkpt><trkpt lat="43.46127462606115" lon="5.879223363143776"><ele>306.0</ele><time>2026-04-18T11:38:38Z</time></trkpt><trkpt lat="43.46131928180136" lon="5.879426884104589"><ele>306.3333333333333</ele><time>2026-04-18T11:38:39Z</time></trkpt><trkpt lat="43.46136253179656" lon="5.879638658906921"><ele>306.66666666666663</ele><time>2026-04-18T11:38:40Z</time></trkpt><trkpt lat="43.4614072974481" lon="5.879881364715485"><ele>307.0</ele><time>2026-04-18T11:38:41Z</time></trkpt><trkpt lat="43.46145272338371" lon="5.880104735539355"><ele>308.0</ele><time>2026-04-18T11:38:42Z</time></trkpt><trkpt lat="43.461499969623944" lon="5.88032138914124"><ele>309.0</ele><time>2026-04-18T11:38:43Z</time></trkpt><trkpt lat="43.461564198420234" lon="5.880541168387986"><ele>310.0</ele><time>2026-04-18T11:38:44Z</time></trkpt><trkpt lat="43.46162252966731" lon="5.880734083647865"><ele>310.0</ele><time>2026-04-18T11:38:45Z</time></trkpt><trkpt lat="43.46168634054841" lon="5.880889129462262"><ele>310.0</ele><time>2026-04-18T11:38:46Z</time></trkpt><trkpt lat="43.46175724667646" lon="5.881054342789032"><ele>310.0</ele><time>2026-04-18T11:38:47Z</time></trkpt><trkpt lat="43.46181972139187" lon="5.881183821964527"><ele>310.0</ele><time>2026-04-18T11:38:48Z</time></trkpt><trkpt lat="43.46188047803601" lon="5.881321187019795"><ele>310.0</ele><time>2026-04-18T11:38:49Z</time></trkpt><trkpt lat="43.46194438257051" lon="5.881466076617357"><ele>310.0</ele><time>2026-04-18T11:38:50Z</time></trkpt><trkpt lat="43.46203013692817" lon="5.881619273232146"><ele>310.0</ele><time>2026-04-18T11:38:51Z</time></trkpt><trkpt lat="43.462121278892894" lon="5.881765986132404"><ele>310.0</ele><time>2026-04-18T11:38:52Z</time></trkpt><trkpt lat="43.462207928727416" lon="5.881886982902123"><ele>310.75</ele><time>2026-04-18T11:38:53Z</time></trkpt><trkpt lat="43.46229520967105" lon="5.882011199732667"><ele>311.5</ele><time>2026-04-18T11:38:54Z</time></trkpt><trkpt lat="43.462383831739956" lon="5.882138583627391"><ele>312.25</ele><time>2026-04-18T11:38:55Z</time></trkpt><trkpt lat="43.46247176907009" lon="5.882258397684864"><ele>313.0</ele><time>2026-04-18T11:38:56Z</time></trkpt><trkpt lat="43.46254791106105" lon="5.882375350278437"><ele>313.0</ele><time>2026-04-18T11:38:57Z</time></trkpt><trkpt lat="43.46262401633024" lon="5.882486265233634"><ele>313.0</ele><time>2026-04-18T11:38:58Z</time></trkpt><trkpt lat="43.462723480305144" lon="5.8826046572344195"><ele>313.0</ele><time>2026-04-18T11:38:59Z</time></trkpt><trkpt lat="43.46283324790836" lon="5.882719244647384"><ele>313.0</ele><time>2026-04-18T11:39:00Z</time></trkpt><trkpt lat="43.46300444586543" lon="5.882731159101206"><ele>315.66666666666663</ele><time>2026-04-18T11:39:01Z</time></trkpt><trkpt lat="43.463148544317704" lon="5.8828278442468696"><ele>318.3333333333333</ele><time>2026-04-18T11:39:02Z</time></trkpt><trkpt lat="43.46331175397555" lon="5.882923324826644"><ele>321.0</ele><time>2026-04-18T11:39:03Z</time></trkpt><trkpt lat="43.463500547707106" lon="5.883038037812601"><ele>321.0</ele><time>2026-04-18T11:39:04Z</time></trkpt><trkpt lat="43.46367956845553" lon="5.883151158837689"><ele>321.0</ele><time>2026-04-18T11:39:05Z</time></trkpt><trkpt lat="43.46384239484644" lon="5.883260230620309"><ele>321.0</ele><time>2026-04-18T11:39:06Z</time></trkpt><trkpt lat="43.463996218350125" lon="5.8833655586886575"><ele>319.6666666666667</ele><time>2026-04-18T11:39:07Z</time></trkpt><trkpt lat="43.464139321349485" lon="5.883474701152949"><ele>318.33333333333337</ele><time>2026-04-18T11:39:08Z</time></trkpt><trkpt lat="43.46427256861014" lon="5.883586834270463"><ele>317.0</ele><time>2026-04-18T11:39:09Z</time></trkpt><trkpt lat="43.464392482105225" lon="5.8837054977958125"><ele>317.0</ele><time>2026-04-18T11:39:10Z</time></trkpt><trkpt lat="43.464492495023755" lon="5.883852316495161"><ele>317.0</ele><time>2026-04-18T11:39:11Z</time></trkpt><trkpt lat="43.464584262273036" lon="5.884037930784542"><ele>317.0</ele><time>2026-04-18T11:39:12Z</time></trkpt><trkpt lat="43.464682476083226" lon="5.884245418080142"><ele>319.33333333333337</ele><time>2026-04-18T11:39:13Z</time></trkpt><trkpt lat="43.464791190833495" lon="5.884453854270084"><ele>321.6666666666667</ele><time>2026-04-18T11:39:14Z</time></trkpt><trkpt lat="43.46491789735091" lon="5.884651053286034"><ele>324.0</ele><time>2026-04-18T11:39:15Z</time></trkpt><trkpt lat="43.46503664312644" lon="5.884805702332463"><ele>324.0</ele><time>2026-04-18T11:39:16Z</time></trkpt><trkpt lat="43.46514360256141" lon="5.884946851536416"><ele>324.0</ele><time>2026-04-18T11:39:17Z</time></trkpt><trkpt lat="43.465243842492825" lon="5.885076338873239"><ele>324.0</ele><time>2026-04-18T11:39:18Z</time></trkpt><trkpt lat="43.46533548688948" lon="5.885212403617334"><ele>324.0</ele><time>2026-04-18T11:39:19Z</time></trkpt><trkpt lat="43.46544184269843" lon="5.885369167601729"><ele>326.6666666666667</ele><time>2026-04-18T11:39:20Z</time></trkpt><trkpt lat="43.46555887890055" lon="5.885536998307612"><ele>329.33333333333337</ele><time>2026-04-18T11:39:21Z</time></trkpt><trkpt lat="43.46568107810585" lon="5.885714061642239"><ele>332.0</ele><time>2026-04-18T11:39:22Z</time></trkpt><trkpt lat="43.46579925727012" lon="5.885906872016687"><ele>332.6666666666667</ele><time>2026-04-18T11:39:23Z</time></trkpt><trkpt lat="43.46590686343761" lon="5.886115520970031"><ele>333.3333333333333</ele><time>2026-04-18T11:39:24Z</time></trkpt><trkpt lat="43.466009422205545" lon="5.886332990366011"><ele>334.0</ele><time>2026-04-18T11:39:25Z</time></trkpt><trkpt lat="43.46611406390305" lon="5.88654945222103"><ele>335.0</ele><time>2026-04-18T11:39:26Z</time></trkpt><trkpt lat="43.466228416352514" lon="5.886765225268896"><ele>336.0</ele><time>2026-04-18T11:39:27Z</time></trkpt><trkpt lat="43.466351784567536" lon="5.886978056930087"><ele>337.0</ele><time>2026-04-18T11:39:28Z</time></trkpt><trkpt lat="43.46645461957408" lon="5.887172687923174"><ele>338.66666666666663</ele><time>2026-04-18T11:39:29Z</time></trkpt><trkpt lat="43.466536780830616" lon="5.887352239135591"><ele>340.3333333333333</ele><time>2026-04-18T11:39:30Z</time></trkpt><trkpt lat="43.46661755958425" lon="5.887544550794939"><ele>342.0</ele><time>2026-04-18T11:39:31Z</time></trkpt><trkpt lat="43.46670914073666" lon="5.887743222541246"><ele>342.3333333333333</ele><time>2026-04-18T11:39:32Z</time></trkpt><trkpt lat="43.46680159184402" lon="5.887940952681077"><ele>342.66666666666663</ele><time>2026-04-18T11:39:33Z</time></trkpt><trkpt lat="43.4668993993613" lon="5.888135338105711"><ele>343.0</ele><time>2026-04-18T11:39:34Z</time></trkpt><trkpt lat="43.46699636533255" lon="5.888315020800896"><ele>344.25</ele><time>2026-04-18T11:39:35Z</time></trkpt><trkpt lat="43.46707908543089" lon="5.888482375082222"><ele>345.5</ele><time>2026-04-18T11:39:36Z</time></trkpt><trkpt lat="43.467152361201684" lon="5.888648008660572"><ele>346.75</ele><time>2026-04-18T11:39:37Z</time></trkpt><trkpt lat="43.467215644147245" lon="5.888837413970837"><ele>348.0</ele><time>2026-04-18T11:39:38Z</time></trkpt><trkpt lat="43.467266695389796" lon="5.889055626517154"><ele>349.6666666666667</ele><time>2026-04-18T11:39:39Z</time></trkpt><trkpt lat="43.4673178231486" lon="5.889285981301398"><ele>351.33333333333337</ele><time>2026-04-18T11:39:40Z</time></trkpt><trkpt lat="43.46739192710667" lon="5.88951041232144"><ele>353.0</ele><time>2026-04-18T11:39:41Z</time></trkpt><trkpt lat="43.46749719945159" lon="5.8897326909410825"><ele>353.0</ele><time>2026-04-18T11:39:42Z</time></trkpt><trkpt lat="43.46761434967626" lon="5.8899568506840385"><ele>353.0</ele><time>2026-04-18T11:39:43Z</time></trkpt><trkpt lat="43.467723358089486" lon="5.890175461132256"><ele>353.0</ele><time>2026-04-18T11:39:44Z</time></trkpt><trkpt lat="43.467810511411635" lon="5.8903799820430125"><ele>354.0</ele><time>2026-04-18T11:39:45Z</time></trkpt><trkpt lat="43.467892621273045" lon="5.890578304389056"><ele>355.0</ele><time>2026-04-18T11:39:45.999Z</time></trkpt><trkpt lat="43.467983065909095" lon="5.8907676652030885"><ele>356.0</ele><time>2026-04-18T11:39:46.999Z</time></trkpt><trkpt lat="43.46810194642058" lon="5.890962153176628"><ele>356.0</ele><time>2026-04-18T11:39:47.999Z</time></trkpt><trkpt lat="43.46820670832965" lon="5.891137079597763"><ele>356.0</ele><time>2026-04-18T11:39:48.999Z</time></trkpt><trkpt lat="43.46828666961003" lon="5.891299787475441"><ele>356.0</ele><time>2026-04-18T11:39:49.999Z</time></trkpt><trkpt lat="43.468344474825486" lon="5.891461658556478"><ele>356.0</ele><time>2026-04-18T11:39:50.999Z</time></trkpt><trkpt lat="43.46839157915596" lon="5.89161585346277"><ele>356.0</ele><time>2026-04-18T11:39:51.999Z</time></trkpt><trkpt lat="43.46844839791912" lon="5.891753933877671"><ele>356.0</ele><time>2026-04-18T11:39:52.999Z</time></trkpt><trkpt lat="43.46851797631146" lon="5.891905093998075"><ele>356.0</ele><time>2026-04-18T11:39:53.999Z</time></trkpt><trkpt lat="43.46859584136073" lon="5.892055700248993"><ele>356.0</ele><time>2026-04-18T11:39:54.999Z</time></trkpt><trkpt lat="43.468688307157485" lon="5.892210242991375"><ele>356.5</ele><time>2026-04-18T11:39:55.999Z</time></trkpt><trkpt lat="43.468800785934015" lon="5.892364529213486"><ele>357.0</ele><time>2026-04-18T11:39:56.999Z</time></trkpt><trkpt lat="43.46891287099776" lon="5.892495827288033"><ele>357.5</ele><time>2026-04-18T11:39:57.999Z</time></trkpt><trkpt lat="43.4690319515653" lon="5.89260193410611"><ele>358.0</ele><time>2026-04-18T11:39:58.999Z</time></trkpt><trkpt lat="43.46915277366182" lon="5.892721071591952"><ele>358.3333333333333</ele><time>2026-04-18T11:39:59.999Z</time></trkpt><trkpt lat="43.46926801119473" lon="5.892867800736936"><ele>358.6666666666667</ele><time>2026-04-18T11:40:00.999Z</time></trkpt><trkpt lat="43.46938206158227" lon="5.893031216635106"><ele>359.0</ele><time>2026-04-18T11:40:01.999Z</time></trkpt><trkpt lat="43.46948951924179" lon="5.89319071554774"><ele>359.0</ele><time>2026-04-18T11:40:02.999Z</time></trkpt><trkpt lat="43.469582320716135" lon="5.893337045035354"><ele>359.0</ele><time>2026-04-18T11:40:03.999Z</time></trkpt><trkpt lat="43.46967155462478" lon="5.893470627621265"><ele>359.0</ele><time>2026-04-18T11:40:04.999Z</time></trkpt><trkpt lat="43.46976812180362" lon="5.893599327181301"><ele>359.0</ele><time>2026-04-18T11:40:05.999Z</time></trkpt><trkpt lat="43.469864173584874" lon="5.8937233024947195"><ele>358.79999999999995</ele><time>2026-04-18T11:40:06.999Z</time></trkpt><trkpt lat="43.46994486965088" lon="5.893844629657856"><ele>358.59999999999997</ele><time>2026-04-18T11:40:07.999Z</time></trkpt><trkpt lat="43.470005310362225" lon="5.893979527395783"><ele>358.4</ele><time>2026-04-18T11:40:08.999Z</time></trkpt><trkpt lat="43.470059746298105" lon="5.894109192146323"><ele>358.2</ele><time>2026-04-18T11:40:09.999Z</time></trkpt><trkpt lat="43.470115784443685" lon="5.894226763622099"><ele>358.0</ele><time>2026-04-18T11:40:10.999Z</time></trkpt><trkpt lat="43.470174347679496" lon="5.894341312535819"><ele>357.79999999999995</ele><time>2026-04-18T11:40:11.999Z</time></trkpt><trkpt lat="43.470213190933606" lon="5.894423890632123"><ele>357.6</ele><time>2026-04-18T11:40:12.999Z</time></trkpt><trkpt lat="43.47026980069427" lon="5.894510418872756"><ele>357.4</ele><time>2026-04-18T11:40:14.999Z</time></trkpt><trkpt lat="43.47040438828411" lon="5.894436612593558"><ele>357.20000000000005</ele><time>2026-04-18T11:40:17.999Z</time></trkpt><trkpt lat="43.47047912268833" lon="5.894394313569268"><ele>357.0</ele><time>2026-04-18T11:40:18.999Z</time></trkpt><trkpt lat="43.47059058818544" lon="5.894348006414965"><ele>359.0</ele><time>2026-04-18T11:40:19.999Z</time></trkpt><trkpt lat="43.4707162874979" lon="5.894308147944963"><ele>361.0</ele><time>2026-04-18T11:40:21Z</time></trkpt><trkpt lat="43.47083984634726" lon="5.894227098876714"><ele>363.0</ele><time>2026-04-18T11:40:22Z</time></trkpt><trkpt lat="43.470937069900394" lon="5.894095426255204"><ele>365.0</ele><time>2026-04-18T11:40:23Z</time></trkpt><trkpt lat="43.47111606206687" lon="5.8941462122946255"><ele>365.25</ele><time>2026-04-18T11:40:24Z</time></trkpt><trkpt lat="43.47126075749775" lon="5.894097195601247"><ele>365.5</ele><time>2026-04-18T11:40:25Z</time></trkpt><trkpt lat="43.471399001221904" lon="5.894041991819394"><ele>365.75</ele><time>2026-04-18T11:40:26Z</time></trkpt><trkpt lat="43.4715455997172" lon="5.893992690669023"><ele>366.0</ele><time>2026-04-18T11:40:27Z</time></trkpt><trkpt lat="43.4716793311677" lon="5.893940163767291"><ele>368.0</ele><time>2026-04-18T11:40:28Z</time></trkpt><trkpt lat="43.47178521818916" lon="5.893892529227557"><ele>370.0</ele><time>2026-04-18T11:40:29Z</time></trkpt><trkpt lat="43.47188073856204" lon="5.89384972688542"><ele>372.0</ele><time>2026-04-18T11:40:30Z</time></trkpt><trkpt lat="43.47197303496814" lon="5.893828127582705"><ele>374.0</ele><time>2026-04-18T11:40:31Z</time></trkpt><trkpt lat="43.47203970798591" lon="5.893837222262888"><ele>376.0</ele><time>2026-04-18T11:40:32Z</time></trkpt><trkpt lat="43.4721017458018" lon="5.893898752515849"><ele>378.0</ele><time>2026-04-18T11:40:33Z</time></trkpt><trkpt lat="43.47217104530908" lon="5.893993407080961"><ele>378.1666666666667</ele><time>2026-04-18T11:40:34Z</time></trkpt><trkpt lat="43.47223501190203" lon="5.894037729681716"><ele>378.3333333333333</ele><time>2026-04-18T11:40:35Z</time></trkpt><trkpt lat="43.472293671606444" lon="5.893995392071637"><ele>378.5</ele><time>2026-04-18T11:40:36Z</time></trkpt><trkpt lat="43.47235243021683" lon="5.893906154169901"><ele>378.66666666666663</ele><time>2026-04-18T11:40:37Z</time></trkpt><trkpt lat="43.47238657944919" lon="5.893775391193257"><ele>378.8333333333333</ele><time>2026-04-18T11:40:38Z</time></trkpt><trkpt lat="43.47243600664234" lon="5.893662694098881"><ele>379.0</ele><time>2026-04-18T11:40:39Z</time></trkpt><trkpt lat="43.47252635212607" lon="5.893568998603811"><ele>379.0</ele><time>2026-04-18T11:40:40Z</time></trkpt><trkpt lat="43.47266380444274" lon="5.893501944283463"><ele>379.0</ele><time>2026-04-18T11:40:41Z</time></trkpt><trkpt lat="43.472834320007735" lon="5.89343516518248"><ele>379.0</ele><time>2026-04-18T11:40:42Z</time></trkpt><trkpt lat="43.47300239412768" lon="5.893370667148438"><ele>378.0</ele><time>2026-04-18T11:40:43Z</time></trkpt><trkpt lat="43.473156292263745" lon="5.893310650018978"><ele>377.0</ele><time>2026-04-18T11:40:44Z</time></trkpt><trkpt lat="43.47329759754985" lon="5.893246227240591"><ele>376.0</ele><time>2026-04-18T11:40:45Z</time></trkpt><trkpt lat="43.473426846557324" lon="5.893179052117085"><ele>375.0</ele><time>2026-04-18T11:40:46Z</time></trkpt><trkpt lat="43.473546840937736" lon="5.893120840166355"><ele>375.0</ele><time>2026-04-18T11:40:47Z</time></trkpt><trkpt lat="43.473666459377554" lon="5.893062956277861"><ele>375.0</ele><time>2026-04-18T11:40:48Z</time></trkpt><trkpt lat="43.473787574797754" lon="5.893008485747598"><ele>375.0</ele><time>2026-04-18T11:40:49Z</time></trkpt><trkpt lat="43.47390507477916" lon="5.892935232675994"><ele>375.0</ele><time>2026-04-18T11:40:50Z</time></trkpt><trkpt lat="43.47404417721814" lon="5.89285830258382"><ele>374.5</ele><time>2026-04-18T11:40:51Z</time></trkpt><trkpt lat="43.47417816786282" lon="5.8928086677933935"><ele>374.0</ele><time>2026-04-18T11:40:52Z</time></trkpt><trkpt lat="43.47430415487345" lon="5.8927537089947934"><ele>373.5</ele><time>2026-04-18T11:40:53Z</time></trkpt><trkpt lat="43.47441645504081" lon="5.892677507191677"><ele>373.0</ele><time>2026-04-18T11:40:54Z</time></trkpt><trkpt lat="43.47452855313056" lon="5.8926209732598664"><ele>371.4</ele><time>2026-04-18T11:40:55Z</time></trkpt><trkpt lat="43.47463185639244" lon="5.892578975284509"><ele>369.79999999999995</ele><time>2026-04-18T11:40:56Z</time></trkpt><trkpt lat="43.474731236171316" lon="5.8925377218035075"><ele>368.2</ele><time>2026-04-18T11:40:57Z</time></trkpt><trkpt lat="43.474826264687806" lon="5.892491923153505"><ele>366.6</ele><time>2026-04-18T11:40:58Z</time></trkpt><trkpt lat="43.474919463197566" lon="5.892442963259496"><ele>365.0</ele><time>2026-04-18T11:40:59Z</time></trkpt><trkpt lat="43.47501191725045" lon="5.8924012417830784"><ele>365.0</ele><time>2026-04-18T11:41:00Z</time></trkpt><trkpt lat="43.475099289667796" lon="5.892354385197455"><ele>365.0</ele><time>2026-04-18T11:41:01Z</time></trkpt><trkpt lat="43.475188173894274" lon="5.892289854175037"><ele>365.0</ele><time>2026-04-18T11:41:02Z</time></trkpt><trkpt lat="43.47527797145055" lon="5.892240488218489"><ele>365.0</ele><time>2026-04-18T11:41:03Z</time></trkpt><trkpt lat="43.47538982475493" lon="5.892193709726394"><ele>365.0</ele><time>2026-04-18T11:41:04Z</time></trkpt><trkpt lat="43.47549367946386" lon="5.892141999460213"><ele>364.0</ele><time>2026-04-18T11:41:05Z</time></trkpt><trkpt lat="43.47559353408416" lon="5.892096562697852"><ele>363.0</ele><time>2026-04-18T11:41:06Z</time></trkpt><trkpt lat="43.47568652548271" lon="5.892054747010344"><ele>362.0</ele><time>2026-04-18T11:41:07Z</time></trkpt><trkpt lat="43.47576582109108" lon="5.8920097613844105"><ele>361.0</ele><time>2026-04-18T11:41:08Z</time></trkpt><trkpt lat="43.47583257894979" lon="5.891971728660735"><ele>360.0</ele><time>2026-04-18T11:41:09Z</time></trkpt><trkpt lat="43.47592293566045" lon="5.89194176023743"><ele>360.0</ele><time>2026-04-18T11:41:11Z</time></trkpt><trkpt lat="43.47594606609881" lon="5.892022986310291"><ele>360.0</ele><time>2026-04-18T11:41:14Z</time></trkpt><trkpt lat="43.47589301199229" lon="5.89211423590325"><ele>360.0</ele><time>2026-04-18T11:41:16Z</time></trkpt><trkpt lat="43.4758352540818" lon="5.89223970515493"><ele>360.0</ele><time>2026-04-18T11:41:18Z</time></trkpt><trkpt lat="43.475802908110104" lon="5.892315392798938"><ele>360.0</ele><time>2026-04-18T11:41:19Z</time></trkpt><trkpt lat="43.47587848976418" lon="5.892445622338396"><ele>360.0</ele><time>2026-04-18T11:41:22Z</time></trkpt><trkpt lat="43.47589443509534" lon="5.892613707438165"><ele>360.3333333333333</ele><time>2026-04-18T11:41:24Z</time></trkpt><trkpt lat="43.47587568986236" lon="5.892747549733781"><ele>360.6666666666667</ele><time>2026-04-18T11:41:25Z</time></trkpt><trkpt lat="43.475889483487606" lon="5.892884698727976"><ele>361.0</ele><time>2026-04-18T11:41:26Z</time></trkpt><trkpt lat="43.47589550844989" lon="5.892976145308553"><ele>361.33333333333337</ele><time>2026-04-18T11:41:27Z</time></trkpt><trkpt lat="43.475877230869806" lon="5.89309574935213"><ele>361.6666666666667</ele><time>2026-04-18T11:41:28Z</time></trkpt><trkpt lat="43.47584687875623" lon="5.893197509287303"><ele>362.0</ele><time>2026-04-18T11:41:29Z</time></trkpt><trkpt lat="43.47581012575177" lon="5.893310436948338"><ele>363.0</ele><time>2026-04-18T11:41:30Z</time></trkpt><trkpt lat="43.4757444750282" lon="5.893466125641211"><ele>364.0</ele><time>2026-04-18T11:41:31Z</time></trkpt><trkpt lat="43.475677532894345" lon="5.893605972235936"><ele>365.0</ele><time>2026-04-18T11:41:32Z</time></trkpt><trkpt lat="43.47563147496135" lon="5.893705520919816"><ele>366.0</ele><time>2026-04-18T11:41:33Z</time></trkpt><trkpt lat="43.47560688242447" lon="5.893800601359331"><ele>367.0</ele><time>2026-04-18T11:41:34Z</time></trkpt><trkpt lat="43.47555081462858" lon="5.893928049414094"><ele>367.0</ele><time>2026-04-18T11:41:35Z</time></trkpt><trkpt lat="43.475491448352706" lon="5.89405395011239"><ele>367.0</ele><time>2026-04-18T11:41:36Z</time></trkpt><trkpt lat="43.47545205457458" lon="5.8941529729962445"><ele>367.0</ele><time>2026-04-18T11:41:37Z</time></trkpt><trkpt lat="43.475423302202294" lon="5.8943083293816505"><ele>367.0</ele><time>2026-04-18T11:41:39Z</time></trkpt><trkpt lat="43.47537565014534" lon="5.894371584289121"><ele>367.0</ele><time>2026-04-18T11:41:40Z</time></trkpt><trkpt lat="43.475305470178384" lon="5.894504225659385"><ele>367.5</ele><time>2026-04-18T11:41:42Z</time></trkpt><trkpt lat="43.475290152036514" lon="5.894626313268562"><ele>368.0</ele><time>2026-04-18T11:41:43Z</time></trkpt><trkpt lat="43.47525496408743" lon="5.894737163604629"><ele>368.5</ele><time>2026-04-18T11:41:43.999Z</time></trkpt><trkpt lat="43.47521573979905" lon="5.894831199918183"><ele>369.0</ele><time>2026-04-18T11:41:44.999Z</time></trkpt><trkpt lat="43.47516659855315" lon="5.8948978413668085"><ele>369.5</ele><time>2026-04-18T11:41:45.999Z</time></trkpt><trkpt lat="43.475092780644694" lon="5.894978435393714"><ele>370.0</ele><time>2026-04-18T11:41:46.999Z</time></trkpt><trkpt lat="43.47504472606507" lon="5.8950611649554014"><ele>370.4</ele><time>2026-04-18T11:41:47.999Z</time></trkpt><trkpt lat="43.47500784590633" lon="5.895136993041448"><ele>370.8</ele><time>2026-04-18T11:41:48.999Z</time></trkpt><trkpt lat="43.47499002277483" lon="5.8952703692442405"><ele>371.20000000000005</ele><time>2026-04-18T11:41:50.999Z</time></trkpt><trkpt lat="43.47498187303155" lon="5.895372803438789"><ele>371.6</ele><time>2026-04-18T11:41:51.999Z</time></trkpt><trkpt lat="43.47503964244403" lon="5.895493321071123"><ele>372.0</ele><time>2026-04-18T11:41:53.999Z</time></trkpt><trkpt lat="43.47514722698978" lon="5.895574797205758"><ele>372.0</ele><time>2026-04-18T11:41:55.999Z</time></trkpt><trkpt lat="43.47522289425487" lon="5.895688797500705"><ele>372.0</ele><time>2026-04-18T11:41:57.999Z</time></trkpt><trkpt lat="43.47527492496544" lon="5.895743913357727"><ele>372.0</ele><time>2026-04-18T11:41:59.999Z</time></trkpt><trkpt lat="43.475328233198965" lon="5.895676983236911"><ele>372.0</ele><time>2026-04-18T11:42:01.999Z</time></trkpt><trkpt lat="43.47537266293169" lon="5.895611722162804"><ele>372.0</ele><time>2026-04-18T11:42:02.999Z</time></trkpt><trkpt lat="43.475515635387595" lon="5.895591401579755"><ele>372.8</ele><time>2026-04-18T11:42:04.999Z</time></trkpt><trkpt lat="43.47559431110209" lon="5.895581179831451"><ele>373.6</ele><time>2026-04-18T11:42:05.999Z</time></trkpt><trkpt lat="43.47564579327146" lon="5.895500204017392"><ele>374.40000000000003</ele><time>2026-04-18T11:42:06.999Z</time></trkpt><trkpt lat="43.47569655692208" lon="5.895383881096609"><ele>375.20000000000005</ele><time>2026-04-18T11:42:07.999Z</time></trkpt><trkpt lat="43.47572518007771" lon="5.895286840927154"><ele>376.0</ele><time>2026-04-18T11:42:08.999Z</time></trkpt><trkpt lat="43.47576025936191" lon="5.895123882818092"><ele>375.0</ele><time>2026-04-18T11:42:10.999Z</time></trkpt><trkpt lat="43.475830514009736" lon="5.895051743748611"><ele>374.0</ele><time>2026-04-18T11:42:11.999Z</time></trkpt><trkpt lat="43.475917543032324" lon="5.894992046429344"><ele>373.0</ele><time>2026-04-18T11:42:12.999Z</time></trkpt><trkpt lat="43.476048019046004" lon="5.894912887724269"><ele>372.0</ele><time>2026-04-18T11:42:13.999Z</time></trkpt><trkpt lat="43.47614467519989" lon="5.894834051549536"><ele>371.0</ele><time>2026-04-18T11:42:14.999Z</time></trkpt><trkpt lat="43.476217485916365" lon="5.894745050364972"><ele>371.4</ele><time>2026-04-18T11:42:15.999Z</time></trkpt><trkpt lat="43.476282508104845" lon="5.894645533916133"><ele>371.8</ele><time>2026-04-18T11:42:16.999Z</time></trkpt><trkpt lat="43.47636174733475" lon="5.894573110317509"><ele>372.2</ele><time>2026-04-18T11:42:17.999Z</time></trkpt><trkpt lat="43.476402850415276" lon="5.894503416877491"><ele>372.59999999999997</ele><time>2026-04-18T11:42:18.999Z</time></trkpt><trkpt lat="43.476508602388996" lon="5.8944614506638695"><ele>373.0</ele><time>2026-04-18T11:42:20.999Z</time></trkpt><trkpt lat="43.476576053447" lon="5.894360373601549"><ele>373.0</ele><time>2026-04-18T11:42:23.999Z</time></trkpt><trkpt lat="43.47665951012662" lon="5.894337574796242"><ele>373.0</ele><time>2026-04-18T11:42:25.999Z</time></trkpt><trkpt lat="43.476734371441005" lon="5.894292141497513"><ele>373.0</ele><time>2026-04-18T11:42:28Z</time></trkpt><trkpt lat="43.476771922709595" lon="5.894150802854998"><ele>373.0</ele><time>2026-04-18T11:42:30Z</time></trkpt><trkpt lat="43.47681443711834" lon="5.894014057745327"><ele>373.0</ele><time>2026-04-18T11:42:32Z</time></trkpt><trkpt lat="43.47688884815822" lon="5.893913593704629"><ele>372.66666666666663</ele><time>2026-04-18T11:42:34Z</time></trkpt><trkpt lat="43.47693727009962" lon="5.89377419472157"><ele>372.3333333333333</ele><time>2026-04-18T11:42:36Z</time></trkpt><trkpt lat="43.47700516289888" lon="5.893745366642118"><ele>372.0</ele><time>2026-04-18T11:42:38Z</time></trkpt><trkpt lat="43.47705148382522" lon="5.893819399838446"><ele>371.6666666666667</ele><time>2026-04-18T11:42:43Z</time></trkpt><trkpt lat="43.47709421472163" lon="5.893936402155303"><ele>371.33333333333337</ele><time>2026-04-18T11:42:46Z</time></trkpt><trkpt lat="43.477163659866605" lon="5.893891279285575"><ele>371.0</ele><time>2026-04-18T11:42:49Z</time></trkpt><trkpt lat="43.47721212264644" lon="5.8939482344727745"><ele>371.0</ele><time>2026-04-18T11:42:52Z</time></trkpt><trkpt lat="43.477270536505856" lon="5.893993286259311"><ele>371.0</ele><time>2026-04-18T11:42:55Z</time></trkpt><trkpt lat="43.47729657692653" lon="5.894088013883686"><ele>371.0</ele><time>2026-04-18T11:42:59Z</time></trkpt><trkpt lat="43.4773636957974" lon="5.894205203042547"><ele>371.0</ele><time>2026-04-18T11:43:01Z</time></trkpt><trkpt lat="43.477402565609886" lon="5.89430459727588"><ele>371.0</ele><time>2026-04-18T11:43:03Z</time></trkpt><trkpt lat="43.47739416840967" lon="5.894419008738484"><ele>371.0</ele><time>2026-04-18T11:43:06Z</time></trkpt><trkpt lat="43.47742210051955" lon="5.8945080740709415"><ele>370.33333333333337</ele><time>2026-04-18T11:43:09Z</time></trkpt><trkpt lat="43.47747449160747" lon="5.894559311185739"><ele>369.6666666666667</ele><time>2026-04-18T11:43:11Z</time></trkpt><trkpt lat="43.47754725749891" lon="5.894560845743421"><ele>369.0</ele><time>2026-04-18T11:43:14Z</time></trkpt><trkpt lat="43.47763836175896" lon="5.894591242429925"><ele>368.3333333333333</ele><time>2026-04-18T11:43:17Z</time></trkpt><trkpt lat="43.47766014693274" lon="5.894700655785762"><ele>367.66666666666663</ele><time>2026-04-18T11:43:20Z</time></trkpt><trkpt lat="43.477664815991524" lon="5.894806481920317"><ele>367.0</ele><time>2026-04-18T11:43:22Z</time></trkpt><trkpt lat="43.47773811875753" lon="5.894880418819849"><ele>367.0</ele><time>2026-04-18T11:43:25Z</time></trkpt><trkpt lat="43.47779042158215" lon="5.894930620266151"><ele>367.0</ele><time>2026-04-18T11:43:28Z</time></trkpt><trkpt lat="43.477900828122934" lon="5.894948371633999"><ele>367.0</ele><time>2026-04-18T11:43:30Z</time></trkpt><trkpt lat="43.477973182558294" lon="5.894922665456609"><ele>367.0</ele><time>2026-04-18T11:43:32Z</time></trkpt><trkpt lat="43.47805956708342" lon="5.894950732933951"><ele>367.0</ele><time>2026-04-18T11:43:35Z</time></trkpt><trkpt lat="43.478125654363616" lon="5.89493189730366"><ele>367.0</ele><time>2026-04-18T11:43:37Z</time></trkpt><trkpt lat="43.47819248354828" lon="5.894883206431433"><ele>365.0</ele><time>2026-04-18T11:43:38.999Z</time></trkpt><trkpt lat="43.478255653949155" lon="5.8948492948958915"><ele>363.0</ele><time>2026-04-18T11:43:39.999Z</time></trkpt><trkpt lat="43.47837309643703" lon="5.8948392827037095"><ele>361.0</ele><time>2026-04-18T11:43:41.999Z</time></trkpt><trkpt lat="43.47847338024045" lon="5.894824658416418"><ele>359.0</ele><time>2026-04-18T11:43:43.999Z</time></trkpt><trkpt lat="43.47857830663382" lon="5.89480447802488"><ele>357.0</ele><time>2026-04-18T11:43:45.999Z</time></trkpt><trkpt lat="43.47882354742222" lon="5.894807835499006"><ele>355.5</ele><time>2026-04-18T11:43:47.999Z</time></trkpt><trkpt lat="43.478876650801986" lon="5.894752954081135"><ele>354.0</ele><time>2026-04-18T11:43:50.999Z</time></trkpt><trkpt lat="43.478941598921736" lon="5.894750403545145"><ele>352.5</ele><time>2026-04-18T11:43:53.999Z</time></trkpt><trkpt lat="43.479042398609145" lon="5.894721811470373"><ele>351.0</ele><time>2026-04-18T11:43:55.999Z</time></trkpt><trkpt lat="43.47915192022618" lon="5.89467550883758"><ele>349.5</ele><time>2026-04-18T11:43:57.999Z</time></trkpt><trkpt lat="43.47924191002258" lon="5.894656943760856"><ele>348.0</ele><time>2026-04-18T11:43:59.999Z</time></trkpt><trkpt lat="43.4793428479863" lon="5.894645051757645"><ele>348.0</ele><time>2026-04-18T11:44:01.999Z</time></trkpt><trkpt lat="43.479448172931455" lon="5.894651749721526"><ele>348.0</ele><time>2026-04-18T11:44:03.999Z</time></trkpt><trkpt lat="43.4795126754329" lon="5.8946480749929675"><ele>348.0</ele><time>2026-04-18T11:44:04.999Z</time></trkpt><trkpt lat="43.479585301167404" lon="5.89464003491456"><ele>348.0</ele><time>2026-04-18T11:44:05.999Z</time></trkpt><trkpt lat="43.47965179206872" lon="5.894674123926124"><ele>348.0</ele><time>2026-04-18T11:44:07.999Z</time></trkpt><trkpt lat="43.47973767865703" lon="5.8946626409187415"><ele>348.0</ele><time>2026-04-18T11:44:10.999Z</time></trkpt><trkpt lat="43.47982061746801" lon="5.89470082211304"><ele>345.4</ele><time>2026-04-18T11:44:12.999Z</time></trkpt><trkpt lat="43.47990539248403" lon="5.894677253549337"><ele>342.79999999999995</ele><time>2026-04-18T11:44:14.999Z</time></trkpt><trkpt lat="43.48001690663418" lon="5.894643024455735"><ele>340.2</ele><time>2026-04-18T11:44:16.999Z</time></trkpt><trkpt lat="43.48010413161066" lon="5.894670480093314"><ele>337.6</ele><time>2026-04-18T11:44:17.999Z</time></trkpt><trkpt lat="43.48022232792913" lon="5.894717916406439"><ele>335.0</ele><time>2026-04-18T11:44:19.999Z</time></trkpt><trkpt lat="43.4803464624371" lon="5.894778580288176"><ele>335.0</ele><time>2026-04-18T11:44:21.999Z</time></trkpt><trkpt lat="43.48042290234565" lon="5.89480066213881"><ele>335.0</ele><time>2026-04-18T11:44:22.999Z</time></trkpt><trkpt lat="43.48050426395773" lon="5.894873715433621"><ele>335.0</ele><time>2026-04-18T11:44:25.999Z</time></trkpt><trkpt lat="43.48057854323864" lon="5.894908862751656"><ele>335.0</ele><time>2026-04-18T11:44:28.999Z</time></trkpt><trkpt lat="43.48066729796882" lon="5.89490261689958"><ele>335.0</ele><time>2026-04-18T11:44:30.999Z</time></trkpt><trkpt lat="43.48074720273483" lon="5.894858436758643"><ele>335.0</ele><time>2026-04-18T11:44:34Z</time></trkpt><trkpt lat="43.480815035080155" lon="5.894802373754955"><ele>332.4</ele><time>2026-04-18T11:44:36Z</time></trkpt><trkpt lat="43.48088838753837" lon="5.894742466384652"><ele>329.8</ele><time>2026-04-18T11:44:37Z</time></trkpt><trkpt lat="43.48095465577512" lon="5.894695653886822"><ele>327.20000000000005</ele><time>2026-04-18T11:44:38Z</time></trkpt><trkpt lat="43.48104470580635" lon="5.894642873117315"><ele>324.6</ele><time>2026-04-18T11:44:40Z</time></trkpt><trkpt lat="43.481094731671696" lon="5.894571556527634"><ele>322.0</ele><time>2026-04-18T11:44:41Z</time></trkpt><trkpt lat="43.48120554352249" lon="5.8944920078842316"><ele>321.6</ele><time>2026-04-18T11:44:43Z</time></trkpt><trkpt lat="43.481317311112655" lon="5.894433157450734"><ele>321.20000000000005</ele><time>2026-04-18T11:44:45Z</time></trkpt><trkpt lat="43.48139991923005" lon="5.8943927416784465"><ele>320.8</ele><time>2026-04-18T11:44:47Z</time></trkpt><trkpt lat="43.48150403524057" lon="5.894355485396403"><ele>320.4</ele><time>2026-04-18T11:44:49Z</time></trkpt><trkpt lat="43.4815878409233" lon="5.894334836085805"><ele>320.0</ele><time>2026-04-18T11:44:50Z</time></trkpt><trkpt lat="43.48169904373405" lon="5.894299499505489"><ele>320.0</ele><time>2026-04-18T11:44:52Z</time></trkpt><trkpt lat="43.481790940286444" lon="5.894261829883271"><ele>320.0</ele><time>2026-04-18T11:44:54Z</time></trkpt><trkpt lat="43.48189241204879" lon="5.894217750795007"><ele>320.0</ele><time>2026-04-18T11:44:56Z</time></trkpt><trkpt lat="43.48194275713504" lon="5.894162156323178"><ele>320.0</ele><time>2026-04-18T11:44:57Z</time></trkpt><trkpt lat="43.48201115147859" lon="5.894142566657584"><ele>320.0</ele><time>2026-04-18T11:44:59Z</time></trkpt><trkpt lat="43.482107937338995" lon="5.894143485928024"><ele>320.0</ele><time>2026-04-18T11:45:01Z</time></trkpt><trkpt lat="43.48218989658586" lon="5.8941320888110385"><ele>318.0</ele><time>2026-04-18T11:45:03Z</time></trkpt><trkpt lat="43.48235601890383" lon="5.894139055957923"><ele>316.0</ele><time>2026-04-18T11:45:05Z</time></trkpt><trkpt lat="43.48244605449503" lon="5.894164343010177"><ele>314.0</ele><time>2026-04-18T11:45:07Z</time></trkpt><trkpt lat="43.48252607517424" lon="5.894272746306814"><ele>312.0</ele><time>2026-04-18T11:45:20Z</time></trkpt><trkpt lat="43.482573294218824" lon="5.894338683902195"><ele>310.0</ele><time>2026-04-18T11:45:21Z</time></trkpt><trkpt lat="43.48264219730201" lon="5.894437620496974"><ele>310.0</ele><time>2026-04-18T11:45:22Z</time></trkpt><trkpt lat="43.482718076668334" lon="5.894559807994675"><ele>310.0</ele><time>2026-04-18T11:45:23Z</time></trkpt><trkpt lat="43.482792077460296" lon="5.894669643253884"><ele>310.0</ele><time>2026-04-18T11:45:24Z</time></trkpt><trkpt lat="43.48287401896497" lon="5.894794698496865"><ele>310.0</ele><time>2026-04-18T11:45:25Z</time></trkpt><trkpt lat="43.4829604084103" lon="5.89491736652074"><ele>308.0</ele><time>2026-04-18T11:45:26Z</time></trkpt><trkpt lat="43.48305549430295" lon="5.8950600051086814"><ele>306.0</ele><time>2026-04-18T11:45:27Z</time></trkpt><trkpt lat="43.48313169223094" lon="5.895192059518893"><ele>304.0</ele><time>2026-04-18T11:45:28Z</time></trkpt><trkpt lat="43.48319836431184" lon="5.895324806009184"><ele>302.0</ele><time>2026-04-18T11:45:29Z</time></trkpt><trkpt lat="43.483270014864225" lon="5.895471426845889"><ele>302.0</ele><time>2026-04-18T11:45:30Z</time></trkpt><trkpt lat="43.483332649851455" lon="5.895615993822679"><ele>302.0</ele><time>2026-04-18T11:45:31Z</time></trkpt><trkpt lat="43.48339781406387" lon="5.895736260584137"><ele>302.0</ele><time>2026-04-18T11:45:32Z</time></trkpt><trkpt lat="43.483449629049545" lon="5.895847042320147"><ele>302.0</ele><time>2026-04-18T11:45:33Z</time></trkpt><trkpt lat="43.48350066158319" lon="5.895965212859908"><ele>302.0</ele><time>2026-04-18T11:45:34Z</time></trkpt><trkpt lat="43.48355863362708" lon="5.896074649017006"><ele>302.33333333333337</ele><time>2026-04-18T11:45:35Z</time></trkpt><trkpt lat="43.483608773841695" lon="5.896173578261103"><ele>302.6666666666667</ele><time>2026-04-18T11:45:36Z</time></trkpt><trkpt lat="43.4836511645219" lon="5.896278066913922"><ele>303.0</ele><time>2026-04-18T11:45:37Z</time></trkpt><trkpt lat="43.48369463852183" lon="5.896380853920856"><ele>303.3333333333333</ele><time>2026-04-18T11:45:37.999Z</time></trkpt><trkpt lat="43.48373455512" lon="5.89647666044088"><ele>303.66666666666663</ele><time>2026-04-18T11:45:38.999Z</time></trkpt><trkpt lat="43.483757891328494" lon="5.89656589319953"><ele>304.0</ele><time>2026-04-18T11:45:39.999Z</time></trkpt><trkpt lat="43.48378101307909" lon="5.896677029738819"><ele>301.8333333333333</ele><time>2026-04-18T11:45:40.999Z</time></trkpt><trkpt lat="43.48380546120797" lon="5.896781566030699"><ele>299.66666666666663</ele><time>2026-04-18T11:45:41.999Z</time></trkpt><trkpt lat="43.48382979083585" lon="5.89687471432368"><ele>297.5</ele><time>2026-04-18T11:45:42.999Z</time></trkpt><trkpt lat="43.48387647583287" lon="5.896968614795898"><ele>295.3333333333333</ele><time>2026-04-18T11:45:44.999Z</time></trkpt><trkpt lat="43.48393008492151" lon="5.896878607100365"><ele>293.1666666666667</ele><time>2026-04-18T11:45:46.999Z</time></trkpt><trkpt lat="43.48396537739289" lon="5.896768725346321"><ele>291.0</ele><time>2026-04-18T11:45:47.999Z</time></trkpt><trkpt lat="43.48402484317753" lon="5.896632240383338"><ele>290.3333333333333</ele><time>2026-04-18T11:45:48.999Z</time></trkpt><trkpt lat="43.484104548224266" lon="5.896507987988767"><ele>289.6666666666667</ele><time>2026-04-18T11:45:49.999Z</time></trkpt><trkpt lat="43.4841480932631" lon="5.896433085304029"><ele>289.0</ele><time>2026-04-18T11:45:50.999Z</time></trkpt><trkpt lat="43.48419545160305" lon="5.896331571806797"><ele>288.33333333333337</ele><time>2026-04-18T11:45:52.999Z</time></trkpt><trkpt lat="43.48425488657461" lon="5.89638511126285"><ele>287.6666666666667</ele><time>2026-04-18T11:45:55.999Z</time></trkpt><trkpt lat="43.484266518518965" lon="5.896499281736388"><ele>287.0</ele><time>2026-04-18T11:45:56.999Z</time></trkpt><trkpt lat="43.48429917682349" lon="5.896656869920294"><ele>288.0</ele><time>2026-04-18T11:45:57.999Z</time></trkpt><trkpt lat="43.484331149862875" lon="5.896834521792738"><ele>289.0</ele><time>2026-04-18T11:45:58.999Z</time></trkpt><trkpt lat="43.48437580489159" lon="5.8970034965097815"><ele>290.0</ele><time>2026-04-18T11:45:59.999Z</time></trkpt><trkpt lat="43.484449928428425" lon="5.8971537800676685"><ele>291.0</ele><time>2026-04-18T11:46:00.999Z</time></trkpt><trkpt lat="43.4845473327388" lon="5.897263023167152"><ele>288.25</ele><time>2026-04-18T11:46:01.999Z</time></trkpt><trkpt lat="43.48466431827769" lon="5.897318724007574"><ele>285.5</ele><time>2026-04-18T11:46:02.999Z</time></trkpt><trkpt lat="43.48479631225427" lon="5.897360343800602"><ele>282.75</ele><time>2026-04-18T11:46:03.999Z</time></trkpt><trkpt lat="43.48494450745854" lon="5.897423091865563"><ele>280.0</ele><time>2026-04-18T11:46:04.999Z</time></trkpt><trkpt lat="43.48508063565234" lon="5.897496653480818"><ele>280.0</ele><time>2026-04-18T11:46:05.999Z</time></trkpt><trkpt lat="43.48520502923948" lon="5.897571011959263"><ele>280.0</ele><time>2026-04-18T11:46:06.999Z</time></trkpt><trkpt lat="43.48532118354545" lon="5.89765733752775"><ele>280.0</ele><time>2026-04-18T11:46:07.999Z</time></trkpt><trkpt lat="43.48543384145536" lon="5.897765073222767"><ele>280.0</ele><time>2026-04-18T11:46:08.999Z</time></trkpt><trkpt lat="43.485562226319765" lon="5.8978847178836675"><ele>280.66666666666663</ele><time>2026-04-18T11:46:09.999Z</time></trkpt><trkpt lat="43.4857071790386" lon="5.8979790780387855"><ele>281.3333333333333</ele><time>2026-04-18T11:46:10.999Z</time></trkpt><trkpt lat="43.48586094253789" lon="5.898104226747477"><ele>282.0</ele><time>2026-04-18T11:46:11.999Z</time></trkpt><trkpt lat="43.4860019522709" lon="5.898255787441149"><ele>282.0</ele><time>2026-04-18T11:46:12.999Z</time></trkpt><trkpt lat="43.48613293101165" lon="5.898386523489686"><ele>282.0</ele><time>2026-04-18T11:46:13.999Z</time></trkpt><trkpt lat="43.486269722876195" lon="5.898525625526146"><ele>282.0</ele><time>2026-04-18T11:46:14.999Z</time></trkpt><trkpt lat="43.486397074195644" lon="5.898656379640025"><ele>281.75</ele><time>2026-04-18T11:46:15.999Z</time></trkpt><trkpt lat="43.486509073086914" lon="5.898772715094587"><ele>281.5</ele><time>2026-04-18T11:46:16.999Z</time></trkpt><trkpt lat="43.486598424755584" lon="5.898868046232728"><ele>281.25</ele><time>2026-04-18T11:46:17.999Z</time></trkpt><trkpt lat="43.486690944533976" lon="5.898963571502264"><ele>281.0</ele><time>2026-04-18T11:46:18.999Z</time></trkpt><trkpt lat="43.486784679999886" lon="5.899048802127508"><ele>281.0</ele><time>2026-04-18T11:46:19.999Z</time></trkpt><trkpt lat="43.48686106675576" lon="5.899116432537672"><ele>281.0</ele><time>2026-04-18T11:46:20.999Z</time></trkpt><trkpt lat="43.48691528348457" lon="5.899171085964761"><ele>281.0</ele><time>2026-04-18T11:46:22.999Z</time></trkpt><trkpt lat="43.487020436846" lon="5.898908917146379"><ele>281.0</ele><time>2026-04-18T11:46:25.999Z</time></trkpt><trkpt lat="43.48708745435929" lon="5.898839979921382"><ele>279.0</ele><time>2026-04-18T11:46:34.999Z</time></trkpt><trkpt lat="43.48715355199651" lon="5.898838623278231"><ele>277.0</ele><time>2026-04-18T11:46:35.999Z</time></trkpt><trkpt lat="43.48723040208119" lon="5.898880863247773"><ele>275.0</ele><time>2026-04-18T11:46:36.999Z</time></trkpt><trkpt lat="43.48734061030094" lon="5.898928314837949"><ele>273.0</ele><time>2026-04-18T11:46:37.999Z</time></trkpt><trkpt lat="43.48746285749627" lon="5.898959274551071"><ele>271.0</ele><time>2026-04-18T11:46:39Z</time></trkpt><trkpt lat="43.487567264215315" lon="5.898986930727961"><ele>271.0</ele><time>2026-04-18T11:46:40Z</time></trkpt><trkpt lat="43.48764069850441" lon="5.898986674412454"><ele>271.0</ele><time>2026-04-18T11:46:41Z</time></trkpt><trkpt lat="43.487754100341654" lon="5.898973929891982"><ele>271.0</ele><time>2026-04-18T11:46:43Z</time></trkpt><trkpt lat="43.487816428370024" lon="5.899083296606449"><ele>271.0</ele><time>2026-04-18T11:46:44Z</time></trkpt><trkpt lat="43.48791914668115" lon="5.899211066100268"><ele>271.0</ele><time>2026-04-18T11:46:45Z</time></trkpt><trkpt lat="43.48806275780895" lon="5.899361483080876"><ele>269.3333333333333</ele><time>2026-04-18T11:46:46Z</time></trkpt><trkpt lat="43.48822097245466" lon="5.89952907760921"><ele>267.6666666666667</ele><time>2026-04-18T11:46:47Z</time></trkpt><trkpt lat="43.48839479626374" lon="5.899712153880207"><ele>266.0</ele><time>2026-04-18T11:46:48Z</time></trkpt><trkpt lat="43.4885487228418" lon="5.89987854883972"><ele>266.0</ele><time>2026-04-18T11:46:49Z</time></trkpt><trkpt lat="43.48869656700637" lon="5.900046791958774"><ele>266.0</ele><time>2026-04-18T11:46:50Z</time></trkpt><trkpt lat="43.488840042864034" lon="5.900197207239268"><ele>266.0</ele><time>2026-04-18T11:46:51Z</time></trkpt><trkpt lat="43.48896951200364" lon="5.900333233269328"><ele>266.5</ele><time>2026-04-18T11:46:52Z</time></trkpt><trkpt lat="43.489085263099476" lon="5.900458637310442"><ele>267.0</ele><time>2026-04-18T11:46:53Z</time></trkpt><trkpt lat="43.48919207541378" lon="5.900570470568001"><ele>267.5</ele><time>2026-04-18T11:46:54Z</time></trkpt><trkpt lat="43.48927961962343" lon="5.900656210675621"><ele>268.0</ele><time>2026-04-18T11:46:55Z</time></trkpt><trkpt lat="43.48934320873661" lon="5.900710715990516"><ele>268.0</ele><time>2026-04-18T11:46:56Z</time></trkpt><trkpt lat="43.48946329118001" lon="5.900657900754543"><ele>268.0</ele><time>2026-04-18T11:46:58Z</time></trkpt><trkpt lat="43.48949777803667" lon="5.900564689096282"><ele>268.0</ele><time>2026-04-18T11:46:59Z</time></trkpt><trkpt lat="43.48953503597453" lon="5.900464699488283"><ele>268.0</ele><time>2026-04-18T11:47:00Z</time></trkpt><trkpt lat="43.48960972878799" lon="5.900404919953933"><ele>268.0</ele><time>2026-04-18T11:47:02Z</time></trkpt><trkpt lat="43.489640514186526" lon="5.9004921163295165"><ele>268.0</ele><time>2026-04-18T11:47:05Z</time></trkpt><trkpt lat="43.48975097840975" lon="5.900480389432026"><ele>268.5</ele><time>2026-04-18T11:47:08Z</time></trkpt><trkpt lat="43.489847344536145" lon="5.900617171665363"><ele>269.0</ele><time>2026-04-18T11:47:10Z</time></trkpt><trkpt lat="43.489945384133186" lon="5.900719833079948"><ele>269.5</ele><time>2026-04-18T11:47:11Z</time></trkpt><trkpt lat="43.49004754739591" lon="5.900818695816526"><ele>270.0</ele><time>2026-04-18T11:47:12Z</time></trkpt><trkpt lat="43.49010753239403" lon="5.900875915589113"><ele>270.0</ele><time>2026-04-18T11:47:13Z</time></trkpt><trkpt lat="43.4901701586598" lon="5.900850102399426"><ele>270.0</ele><time>2026-04-18T11:47:16Z</time></trkpt><trkpt lat="43.49021688816847" lon="5.900788782587205"><ele>270.0</ele><time>2026-04-18T11:47:37Z</time></trkpt><trkpt lat="43.49022250566702" lon="5.900675485676364"><ele>270.0</ele><time>2026-04-18T11:47:38.999Z</time></trkpt><trkpt lat="43.49013380750416" lon="5.900575942664669"><ele>270.0</ele><time>2026-04-18T11:47:40.999Z</time></trkpt><trkpt lat="43.49005205402041" lon="5.900501458962861"><ele>270.0</ele><time>2026-04-18T11:47:41.999Z</time></trkpt><trkpt lat="43.48998783133453" lon="5.900425215530583"><ele>270.0</ele><time>2026-04-18T11:47:42.999Z</time></trkpt><trkpt lat="43.49000170644712" lon="5.900326658093547"><ele>270.0</ele><time>2026-04-18T11:47:43.999Z</time></trkpt><trkpt lat="43.49005311867808" lon="5.90018434375489"><ele>270.0</ele><time>2026-04-18T11:47:45.999Z</time></trkpt><trkpt lat="43.49008569225361" lon="5.9000125954385245"><ele>270.0</ele><time>2026-04-18T11:47:46.999Z</time></trkpt><trkpt lat="43.490115485685926" lon="5.899828535607276"><ele>269.6666666666667</ele><time>2026-04-18T11:47:47.999Z</time></trkpt><trkpt lat="43.49015041601582" lon="5.899638259257252"><ele>269.33333333333337</ele><time>2026-04-18T11:47:48.999Z</time></trkpt><trkpt lat="43.49018884343748" lon="5.899434166741606"><ele>269.0</ele><time>2026-04-18T11:47:49.999Z</time></trkpt><trkpt lat="43.49022977297282" lon="5.899190089808796"><ele>270.0</ele><time>2026-04-18T11:47:50.999Z</time></trkpt><trkpt lat="43.49026585385684" lon="5.8989519323558675"><ele>271.0</ele><time>2026-04-18T11:47:51.999Z</time></trkpt><trkpt lat="43.490282397186114" lon="5.898738293343754"><ele>272.0</ele><time>2026-04-18T11:47:52.999Z</time></trkpt><trkpt lat="43.49030663879202" lon="5.898541657307982"><ele>271.5</ele><time>2026-04-18T11:47:53.999Z</time></trkpt><trkpt lat="43.49033676471506" lon="5.898364269786595"><ele>271.0</ele><time>2026-04-18T11:47:54.999Z</time></trkpt><trkpt lat="43.49037053001862" lon="5.898176407802451"><ele>270.5</ele><time>2026-04-18T11:47:55.999Z</time></trkpt><trkpt lat="43.49041468219346" lon="5.897969433857525"><ele>270.0</ele><time>2026-04-18T11:47:56.999Z</time></trkpt><trkpt lat="43.49046215185263" lon="5.897731389278254"><ele>269.0</ele><time>2026-04-18T11:47:57.999Z</time></trkpt><trkpt lat="43.49050566500523" lon="5.897470873096546"><ele>268.0</ele><time>2026-04-18T11:47:58.999Z</time></trkpt><trkpt lat="43.49054826112318" lon="5.897236314389623"><ele>267.0</ele><time>2026-04-18T11:47:59.999Z</time></trkpt><trkpt lat="43.49058581213268" lon="5.897027518582462"><ele>267.0</ele><time>2026-04-18T11:48:00.999Z</time></trkpt><trkpt lat="43.49061625591099" lon="5.896831361928021"><ele>267.0</ele><time>2026-04-18T11:48:01.999Z</time></trkpt><trkpt lat="43.49064641595638" lon="5.896646089561465"><ele>267.0</ele><time>2026-04-18T11:48:02.999Z</time></trkpt><trkpt lat="43.49067957198834" lon="5.896448307381594"><ele>267.0</ele><time>2026-04-18T11:48:03.999Z</time></trkpt><trkpt lat="43.49074726319958" lon="5.896221861448426"><ele>267.6666666666667</ele><time>2026-04-18T11:48:04.999Z</time></trkpt><trkpt lat="43.490813139413774" lon="5.895970663533961"><ele>268.33333333333337</ele><time>2026-04-18T11:48:05.999Z</time></trkpt><trkpt lat="43.490873876752964" lon="5.895760175881397"><ele>269.0</ele><time>2026-04-18T11:48:06.999Z</time></trkpt><trkpt lat="43.49094386463174" lon="5.8955801621555235"><ele>269.6666666666667</ele><time>2026-04-18T11:48:07.999Z</time></trkpt><trkpt lat="43.491023763342604" lon="5.895381439368148"><ele>270.3333333333333</ele><time>2026-04-18T11:48:08.999Z</time></trkpt><trkpt lat="43.49111318421669" lon="5.8951614386037905"><ele>271.0</ele><time>2026-04-18T11:48:09.999Z</time></trkpt><trkpt lat="43.4912083909139" lon="5.894928556979998"><ele>271.0</ele><time>2026-04-18T11:48:10.999Z</time></trkpt><trkpt lat="43.49128069809488" lon="5.894715980642591"><ele>271.0</ele><time>2026-04-18T11:48:11.999Z</time></trkpt><trkpt lat="43.4913511888317" lon="5.894542538913819"><ele>271.0</ele><time>2026-04-18T11:48:12.999Z</time></trkpt><trkpt lat="43.49143077439334" lon="5.894386337410735"><ele>271.3333333333333</ele><time>2026-04-18T11:48:13.999Z</time></trkpt><trkpt lat="43.49150570178217" lon="5.89420364810268"><ele>271.6666666666667</ele><time>2026-04-18T11:48:14.999Z</time></trkpt><trkpt lat="43.49159199771047" lon="5.893995559162071"><ele>272.0</ele><time>2026-04-18T11:48:15.999Z</time></trkpt><trkpt lat="43.491671802785355" lon="5.893806071371754"><ele>272.0</ele><time>2026-04-18T11:48:16.999Z</time></trkpt><trkpt lat="43.49174470656513" lon="5.8936239139486"><ele>272.0</ele><time>2026-04-18T11:48:17.999Z</time></trkpt><trkpt lat="43.491800195914244" lon="5.893441893459541"><ele>272.0</ele><time>2026-04-18T11:48:18.999Z</time></trkpt><trkpt lat="43.491883699029174" lon="5.893255018257317"><ele>273.5</ele><time>2026-04-18T11:48:19.999Z</time></trkpt><trkpt lat="43.49192764538174" lon="5.893068044271144"><ele>275.0</ele><time>2026-04-18T11:48:20.999Z</time></trkpt><trkpt lat="43.491982831546395" lon="5.892900219018914"><ele>276.5</ele><time>2026-04-18T11:48:21.999Z</time></trkpt><trkpt lat="43.4920607775469" lon="5.892742628298528"><ele>278.0</ele><time>2026-04-18T11:48:22.999Z</time></trkpt><trkpt lat="43.49214323381516" lon="5.892592945689853"><ele>279.33333333333337</ele><time>2026-04-18T11:48:23.999Z</time></trkpt><trkpt lat="43.492227419496935" lon="5.892434730034389"><ele>280.6666666666667</ele><time>2026-04-18T11:48:24.999Z</time></trkpt><trkpt lat="43.4923258854375" lon="5.892251514062405"><ele>282.0</ele><time>2026-04-18T11:48:25.999Z</time></trkpt><trkpt lat="43.49244151872476" lon="5.892038549599815"><ele>282.0</ele><time>2026-04-18T11:48:26.999Z</time></trkpt><trkpt lat="43.4925452980674" lon="5.8918516999296795"><ele>282.0</ele><time>2026-04-18T11:48:27.999Z</time></trkpt><trkpt lat="43.492632605436874" lon="5.891698924572178"><ele>282.0</ele><time>2026-04-18T11:48:28.999Z</time></trkpt><trkpt lat="43.49270139949412" lon="5.89158544142973"><ele>282.0</ele><time>2026-04-18T11:48:29.999Z</time></trkpt><trkpt lat="43.49275450537716" lon="5.891502807721898"><ele>282.1666666666667</ele><time>2026-04-18T11:48:30.999Z</time></trkpt><trkpt lat="43.49278778217703" lon="5.891418760775782"><ele>282.3333333333333</ele><time>2026-04-18T11:48:32.999Z</time></trkpt><trkpt lat="43.49284821107435" lon="5.891378451872324"><ele>282.5</ele><time>2026-04-18T11:48:34.999Z</time></trkpt><trkpt lat="43.49291465823831" lon="5.891314563572484"><ele>282.66666666666663</ele><time>2026-04-18T11:48:35.999Z</time></trkpt><trkpt lat="43.49299181546771" lon="5.891230336248479"><ele>282.8333333333333</ele><time>2026-04-18T11:48:36.999Z</time></trkpt><trkpt lat="43.49307994653165" lon="5.891120158007684"><ele>283.0</ele><time>2026-04-18T11:48:37.999Z</time></trkpt><trkpt lat="43.49318465257273" lon="5.890995708725925"><ele>285.4</ele><time>2026-04-18T11:48:38.999Z</time></trkpt><trkpt lat="43.49326909153351" lon="5.890906358444824"><ele>287.8</ele><time>2026-04-18T11:48:39.999Z</time></trkpt><trkpt lat="43.49334440966548" lon="5.89082764481415"><ele>290.2</ele><time>2026-04-18T11:48:40.999Z</time></trkpt><trkpt lat="43.49340793703463" lon="5.890749728294685"><ele>292.6</ele><time>2026-04-18T11:48:41.999Z</time></trkpt><trkpt lat="43.49345190747019" lon="5.890681391061085"><ele>295.0</ele><time>2026-04-18T11:48:42.999Z</time></trkpt><trkpt lat="43.49350478636169" lon="5.890544884909723"><ele>295.0</ele><time>2026-04-18T11:48:45Z</time></trkpt><trkpt lat="43.49352440965881" lon="5.89042428963279"><ele>295.0</ele><time>2026-04-18T11:48:47Z</time></trkpt><trkpt lat="43.49344947945299" lon="5.890351337630285"><ele>295.0</ele><time>2026-04-18T11:48:49Z</time></trkpt><trkpt lat="43.49345875032074" lon="5.890261671913121"><ele>295.0</ele><time>2026-04-18T11:48:51Z</time></trkpt><trkpt lat="43.493381123396354" lon="5.890128294885602"><ele>295.0</ele><time>2026-04-18T11:48:54Z</time></trkpt><trkpt lat="43.49328294377898" lon="5.890041067752943"><ele>296.8</ele><time>2026-04-18T11:48:55Z</time></trkpt><trkpt lat="43.49322593345299" lon="5.889958140017208"><ele>298.6</ele><time>2026-04-18T11:48:56Z</time></trkpt><trkpt lat="43.49314048755238" lon="5.8898484593278635"><ele>300.4</ele><time>2026-04-18T11:48:58Z</time></trkpt><trkpt lat="43.493068944573025" lon="5.889758771579222"><ele>302.2</ele><time>2026-04-18T11:48:59Z</time></trkpt><trkpt lat="43.49299632178787" lon="5.88965630959672"><ele>304.0</ele><time>2026-04-18T11:49:00Z</time></trkpt><trkpt lat="43.492951051298974" lon="5.88959106539193"><ele>304.0</ele><time>2026-04-18T11:49:01Z</time></trkpt><trkpt lat="43.49287909254174" lon="5.889470218801016"><ele>304.0</ele><time>2026-04-18T11:49:03Z</time></trkpt><trkpt lat="43.49280052877886" lon="5.8893972076033245"><ele>304.0</ele><time>2026-04-18T11:49:05Z</time></trkpt><trkpt lat="43.49285238436438" lon="5.889314385442998"><ele>304.0</ele><time>2026-04-18T11:49:08Z</time></trkpt><trkpt lat="43.492953462805595" lon="5.889299508996964"><ele>304.0</ele><time>2026-04-18T11:49:10Z</time></trkpt><trkpt lat="43.49305599332552" lon="5.889293668784339"><ele>305.4</ele><time>2026-04-18T11:49:12Z</time></trkpt><trkpt lat="43.4931554214043" lon="5.889254478085107"><ele>306.79999999999995</ele><time>2026-04-18T11:49:14Z</time></trkpt><trkpt lat="43.49326089377546" lon="5.889173724528164"><ele>308.20000000000005</ele><time>2026-04-18T11:49:16Z</time></trkpt><trkpt lat="43.493341636695476" lon="5.889130507954006"><ele>309.6</ele><time>2026-04-18T11:49:17Z</time></trkpt><trkpt lat="43.49343417508932" lon="5.889089635923424"><ele>311.0</ele><time>2026-04-18T11:49:18Z</time></trkpt><trkpt lat="43.493496463656655" lon="5.889056298818634"><ele>311.0</ele><time>2026-04-18T11:49:19Z</time></trkpt><trkpt lat="43.493559421501715" lon="5.888994190644091"><ele>311.0</ele><time>2026-04-18T11:49:21Z</time></trkpt><trkpt lat="43.49352210792154" lon="5.888855137413924"><ele>311.0</ele><time>2026-04-18T11:49:23Z</time></trkpt><trkpt lat="43.49349211878638" lon="5.888744350217882"><ele>311.0</ele><time>2026-04-18T11:49:24Z</time></trkpt><trkpt lat="43.493461939057" lon="5.888593231467615"><ele>311.0</ele><time>2026-04-18T11:49:25Z</time></trkpt><trkpt lat="43.493431701601" lon="5.888455633111506"><ele>311.6</ele><time>2026-04-18T11:49:26Z</time></trkpt><trkpt lat="43.49339961746186" lon="5.888311129616488"><ele>312.20000000000005</ele><time>2026-04-18T11:49:27Z</time></trkpt><trkpt lat="43.493372120753904" lon="5.888183628318956"><ele>312.79999999999995</ele><time>2026-04-18T11:49:28Z</time></trkpt><trkpt lat="43.49334769919824" lon="5.888067074360135"><ele>313.4</ele><time>2026-04-18T11:49:29Z</time></trkpt><trkpt lat="43.49332282798474" lon="5.887952827964595"><ele>314.0</ele><time>2026-04-18T11:49:30Z</time></trkpt><trkpt lat="43.493295300785675" lon="5.8878554795461095"><ele>313.99999999999994</ele><time>2026-04-18T11:49:31Z</time></trkpt><trkpt lat="43.493266144328956" lon="5.887775518350905"><ele>314.0</ele><time>2026-04-18T11:49:32Z</time></trkpt><trkpt lat="43.49320262388195" lon="5.887672769203504"><ele>314.0</ele><time>2026-04-18T11:49:34Z</time></trkpt><trkpt lat="43.493145800495554" lon="5.887604077841299"><ele>314.0</ele><time>2026-04-18T11:49:35.999Z</time></trkpt><trkpt lat="43.49320317652122" lon="5.887563424169402"><ele>314.0</ele><time>2026-04-18T11:49:39.999Z</time></trkpt><trkpt lat="43.49324871628187" lon="5.887625353419881"><ele>313.99999999999994</ele><time>2026-04-18T11:49:40.999Z</time></trkpt><trkpt lat="43.49328644040197" lon="5.88769647709953"><ele>314.0</ele><time>2026-04-18T11:49:41.999Z</time></trkpt><trkpt lat="43.493334148129875" lon="5.887778127981674"><ele>314.0</ele><time>2026-04-18T11:49:42.999Z</time></trkpt><trkpt lat="43.4933980133049" lon="5.887879326549435"><ele>314.0</ele><time>2026-04-18T11:49:43.999Z</time></trkpt><trkpt lat="43.49345063240132" lon="5.887967007228054"><ele>314.0</ele><time>2026-04-18T11:49:44.999Z</time></trkpt><trkpt lat="43.493499075265966" lon="5.888051589910319"><ele>314.0</ele><time>2026-04-18T11:49:45.999Z</time></trkpt><trkpt lat="43.49356209038261" lon="5.888157356003141"><ele>314.0</ele><time>2026-04-18T11:49:46.999Z</time></trkpt><trkpt lat="43.49364365443348" lon="5.88828582768277"><ele>314.0</ele><time>2026-04-18T11:49:47.999Z</time></trkpt><trkpt lat="43.49373208224065" lon="5.888424944335597"><ele>314.0</ele><time>2026-04-18T11:49:48.999Z</time></trkpt><trkpt lat="43.49380375420811" lon="5.888549174951625"><ele>314.0</ele><time>2026-04-18T11:49:49.999Z</time></trkpt><trkpt lat="43.49387367630278" lon="5.888660531955647"><ele>314.0</ele><time>2026-04-18T11:49:50.999Z</time></trkpt><trkpt lat="43.49396839634825" lon="5.888759761874237"><ele>314.75</ele><time>2026-04-18T11:49:51.999Z</time></trkpt><trkpt lat="43.494091914931964" lon="5.88884391346167"><ele>315.5</ele><time>2026-04-18T11:49:52.999Z</time></trkpt><trkpt lat="43.494227620464" lon="5.888909941500596"><ele>316.25</ele><time>2026-04-18T11:49:53.999Z</time></trkpt><trkpt lat="43.49434867641685" lon="5.8889693508976775"><ele>317.0</ele><time>2026-04-18T11:49:54.999Z</time></trkpt><trkpt lat="43.49444818017912" lon="5.889021854342702"><ele>317.0</ele><time>2026-04-18T11:49:55.999Z</time></trkpt><trkpt lat="43.4945334390492" lon="5.889045409978658"><ele>317.0</ele><time>2026-04-18T11:49:56.999Z</time></trkpt><trkpt lat="43.49460263784491" lon="5.889011060286318"><ele>317.0</ele><time>2026-04-18T11:49:57.999Z</time></trkpt><trkpt lat="43.49464911245542" lon="5.888922389980969"><ele>317.0</ele><time>2026-04-18T11:49:58.999Z</time></trkpt><trkpt lat="43.49463937029806" lon="5.88880479856737"><ele>317.0</ele><time>2026-04-18T11:49:59.999Z</time></trkpt><trkpt lat="43.49457169898245" lon="5.888713033422289"><ele>317.0</ele><time>2026-04-18T11:50:00.999Z</time></trkpt><trkpt lat="43.494474166740055" lon="5.888659407815357"><ele>317.0</ele><time>2026-04-18T11:50:01.999Z</time></trkpt><trkpt lat="43.49438468884954" lon="5.888582046598125"><ele>317.0</ele><time>2026-04-18T11:50:02.999Z</time></trkpt><trkpt lat="43.494314541003696" lon="5.888433429870971"><ele>317.0</ele><time>2026-04-18T11:50:03.999Z</time></trkpt><trkpt lat="43.49425948549932" lon="5.888235801418365"><ele>317.0</ele><time>2026-04-18T11:50:04.999Z</time></trkpt><trkpt lat="43.49420879222033" lon="5.888008957040874"><ele>319.6666666666667</ele><time>2026-04-18T11:50:05.999Z</time></trkpt><trkpt lat="43.49416446651324" lon="5.887776223423468"><ele>322.3333333333333</ele><time>2026-04-18T11:50:06.999Z</time></trkpt><trkpt lat="43.49412489642393" lon="5.88753422485809"><ele>325.0</ele><time>2026-04-18T11:50:07.999Z</time></trkpt><trkpt lat="43.494091049816234" lon="5.887276296359801"><ele>327.3333333333333</ele><time>2026-04-18T11:50:08.999Z</time></trkpt><trkpt lat="43.494051690178125" lon="5.887049955407364"><ele>329.6666666666667</ele><time>2026-04-18T11:50:09.999Z</time></trkpt><trkpt lat="43.49399012242983" lon="5.88685919412918"><ele>332.0</ele><time>2026-04-18T11:50:10.999Z</time></trkpt><trkpt lat="43.493922628480206" lon="5.886707218794197"><ele>333.75</ele><time>2026-04-18T11:50:11.999Z</time></trkpt><trkpt lat="43.49384945941134" lon="5.886574023744616"><ele>335.5</ele><time>2026-04-18T11:50:12.999Z</time></trkpt><trkpt lat="43.49383901537921" lon="5.886441761237368"><ele>337.25</ele><time>2026-04-18T11:50:13.999Z</time></trkpt><trkpt lat="43.49385255063408" lon="5.886251687585475"><ele>339.0</ele><time>2026-04-18T11:50:14.999Z</time></trkpt><trkpt lat="43.49386283262142" lon="5.8860658253834695"><ele>339.0</ele><time>2026-04-18T11:50:15.999Z</time></trkpt><trkpt lat="43.49387213522355" lon="5.885908859913786"><ele>339.0</ele><time>2026-04-18T11:50:16.999Z</time></trkpt><trkpt lat="43.4939085562602" lon="5.885771810410376"><ele>339.0</ele><time>2026-04-18T11:50:17.999Z</time></trkpt><trkpt lat="43.493981124027265" lon="5.885650939805772"><ele>339.0</ele><time>2026-04-18T11:50:18.999Z</time></trkpt><trkpt lat="43.49407897574694" lon="5.885565990198098"><ele>339.0</ele><time>2026-04-18T11:50:19.999Z</time></trkpt><trkpt lat="43.49420574448978" lon="5.885509742494011"><ele>339.0</ele><time>2026-04-18T11:50:20.999Z</time></trkpt><trkpt lat="43.49434597142961" lon="5.885478338679632"><ele>339.0</ele><time>2026-04-18T11:50:21.999Z</time></trkpt><trkpt lat="43.49446142736303" lon="5.885437882691174"><ele>339.0</ele><time>2026-04-18T11:50:22.999Z</time></trkpt><trkpt lat="43.494548949758155" lon="5.885337089184031"><ele>341.75</ele><time>2026-04-18T11:50:23.999Z</time></trkpt><trkpt lat="43.494603712497465" lon="5.885194682451577"><ele>344.5</ele><time>2026-04-18T11:50:24.999Z</time></trkpt><trkpt lat="43.49461894869139" lon="5.885024506659753"><ele>347.25</ele><time>2026-04-18T11:50:25.999Z</time></trkpt><trkpt lat="43.4946092538087" lon="5.884823457583206"><ele>350.0</ele><time>2026-04-18T11:50:26.999Z</time></trkpt><trkpt lat="43.49461769294386" lon="5.88462014606975"><ele>350.0</ele><time>2026-04-18T11:50:27.999Z</time></trkpt><trkpt lat="43.494652322254616" lon="5.884437461364347"><ele>350.0</ele><time>2026-04-18T11:50:28.999Z</time></trkpt><trkpt lat="43.494710127500554" lon="5.884254884921352"><ele>350.0</ele><time>2026-04-18T11:50:29.999Z</time></trkpt><trkpt lat="43.49480771574302" lon="5.884072489143426"><ele>350.0</ele><time>2026-04-18T11:50:30.999Z</time></trkpt><trkpt lat="43.49491663923653" lon="5.883920123184456"><ele>350.0</ele><time>2026-04-18T11:50:31.999Z</time></trkpt><trkpt lat="43.49501255285371" lon="5.883788825747905"><ele>350.0</ele><time>2026-04-18T11:50:32.999Z</time></trkpt><trkpt lat="43.495083455375756" lon="5.8836488150081205"><ele>350.0</ele><time>2026-04-18T11:50:33.999Z</time></trkpt><trkpt lat="43.495123543813264" lon="5.8834732543467885"><ele>350.0</ele><time>2026-04-18T11:50:34.999Z</time></trkpt><trkpt lat="43.495135450896775" lon="5.883253094521429"><ele>350.0</ele><time>2026-04-18T11:50:35.999Z</time></trkpt><trkpt lat="43.49511815658929" lon="5.883001040984126"><ele>350.0</ele><time>2026-04-18T11:50:36.999Z</time></trkpt><trkpt lat="43.495104719026784" lon="5.882749485742013"><ele>350.0</ele><time>2026-04-18T11:50:37.999Z</time></trkpt><trkpt lat="43.495101697670464" lon="5.882516847463228"><ele>351.0</ele><time>2026-04-18T11:50:38.999Z</time></trkpt><trkpt lat="43.49510100062446" lon="5.88230649258786"><ele>352.0</ele><time>2026-04-18T11:50:39.999Z</time></trkpt><trkpt lat="43.495097960818526" lon="5.882116509300946"><ele>353.0</ele><time>2026-04-18T11:50:40.999Z</time></trkpt><trkpt lat="43.49509266320241" lon="5.881940946176734"><ele>354.0</ele><time>2026-04-18T11:50:41.999Z</time></trkpt><trkpt lat="43.49506872963047" lon="5.8817819212295746"><ele>354.6</ele><time>2026-04-18T11:50:42.999Z</time></trkpt><trkpt lat="43.49501165015998" lon="5.881651450285948"><ele>355.2</ele><time>2026-04-18T11:50:43.999Z</time></trkpt><trkpt lat="43.49495248909574" lon="5.881558136628238"><ele>355.8</ele><time>2026-04-18T11:50:44.999Z</time></trkpt><trkpt lat="43.49491174435134" lon="5.881484529029108"><ele>356.40000000000003</ele><time>2026-04-18T11:50:45.999Z</time></trkpt><trkpt lat="43.49489054696563" lon="5.8813471735003"><ele>357.0</ele><time>2026-04-18T11:50:47.999Z</time></trkpt><trkpt lat="43.49498590805959" lon="5.8813073194375205"><ele>357.0</ele><time>2026-04-18T11:50:49.999Z</time></trkpt><trkpt lat="43.495024476529" lon="5.881376278038327"><ele>357.0</ele><time>2026-04-18T11:50:51Z</time></trkpt><trkpt lat="43.49505285089761" lon="5.881473337284583"><ele>357.0</ele><time>2026-04-18T11:50:52Z</time></trkpt><trkpt lat="43.495087438893385" lon="5.881595716580396"><ele>357.0</ele><time>2026-04-18T11:50:53Z</time></trkpt><trkpt lat="43.49514393792594" lon="5.881720200112872"><ele>357.0</ele><time>2026-04-18T11:50:54Z</time></trkpt><trkpt lat="43.49520762424157" lon="5.881814267787578"><ele>357.0</ele><time>2026-04-18T11:50:55Z</time></trkpt><trkpt lat="43.49527778069095" lon="5.8818511576877555"><ele>356.40000000000003</ele><time>2026-04-18T11:50:56Z</time></trkpt><trkpt lat="43.49534654064767" lon="5.8818407533446075"><ele>355.8</ele><time>2026-04-18T11:50:57Z</time></trkpt><trkpt lat="43.49540571391263" lon="5.88177213406406"><ele>355.2</ele><time>2026-04-18T11:50:58Z</time></trkpt><trkpt lat="43.49545664899369" lon="5.881649890551593"><ele>354.6</ele><time>2026-04-18T11:50:59Z</time></trkpt><trkpt lat="43.49552050581702" lon="5.881524402755779"><ele>354.0</ele><time>2026-04-18T11:51:00Z</time></trkpt><trkpt lat="43.49558880433222" lon="5.881388703154847"><ele>356.25</ele><time>2026-04-18T11:51:01Z</time></trkpt><trkpt lat="43.495652205977876" lon="5.881235933156357"><ele>358.5</ele><time>2026-04-18T11:51:02Z</time></trkpt><trkpt lat="43.4957130066757" lon="5.881053746746083"><ele>360.75</ele><time>2026-04-18T11:51:03Z</time></trkpt><trkpt lat="43.495777527648166" lon="5.880853870355348"><ele>363.0</ele><time>2026-04-18T11:51:04Z</time></trkpt><trkpt lat="43.495847205250236" lon="5.880674299055923"><ele>363.0</ele><time>2026-04-18T11:51:05Z</time></trkpt><trkpt lat="43.49592078336646" lon="5.880509299821912"><ele>363.0</ele><time>2026-04-18T11:51:06Z</time></trkpt><trkpt lat="43.495981570630924" lon="5.880355689464854"><ele>363.0</ele><time>2026-04-18T11:51:07Z</time></trkpt><trkpt lat="43.49601775242727" lon="5.880178285816584"><ele>363.0</ele><time>2026-04-18T11:51:08Z</time></trkpt><trkpt lat="43.49606817178601" lon="5.880007539496239"><ele>362.5</ele><time>2026-04-18T11:51:09Z</time></trkpt><trkpt lat="43.49609055490308" lon="5.879833752415914"><ele>362.0</ele><time>2026-04-18T11:51:10Z</time></trkpt><trkpt lat="43.49613398822882" lon="5.87966726531533"><ele>361.5</ele><time>2026-04-18T11:51:11Z</time></trkpt><trkpt lat="43.49620316917698" lon="5.879486604212075"><ele>361.0</ele><time>2026-04-18T11:51:12Z</time></trkpt><trkpt lat="43.496281374291094" lon="5.879283982143818"><ele>361.66666666666663</ele><time>2026-04-18T11:51:13Z</time></trkpt><trkpt lat="43.49636061313209" lon="5.879058802411961"><ele>362.3333333333333</ele><time>2026-04-18T11:51:14Z</time></trkpt><trkpt lat="43.49642698618289" lon="5.878838720549537"><ele>363.0</ele><time>2026-04-18T11:51:15Z</time></trkpt><trkpt lat="43.49647413591556" lon="5.878620917501528"><ele>360.0</ele><time>2026-04-18T11:51:16Z</time></trkpt><trkpt lat="43.496530300938666" lon="5.878389917181694"><ele>357.0</ele><time>2026-04-18T11:51:17Z</time></trkpt><trkpt lat="43.49659654375177" lon="5.878156292347023"><ele>354.0</ele><time>2026-04-18T11:51:18Z</time></trkpt><trkpt lat="43.496650644655006" lon="5.877938721178507"><ele>354.0</ele><time>2026-04-18T11:51:19Z</time></trkpt><trkpt lat="43.496699101229254" lon="5.877748360597966"><ele>354.0</ele><time>2026-04-18T11:51:20Z</time></trkpt><trkpt lat="43.496758781651955" lon="5.87757387735426"><ele>354.0</ele><time>2026-04-18T11:51:21Z</time></trkpt><trkpt lat="43.49683863073373" lon="5.8774173737778295"><ele>354.0</ele><time>2026-04-18T11:51:22Z</time></trkpt><trkpt lat="43.49693689332413" lon="5.877286911982822"><ele>354.25</ele><time>2026-04-18T11:51:23Z</time></trkpt><trkpt lat="43.49704924331117" lon="5.877191215016774"><ele>354.5</ele><time>2026-04-18T11:51:24Z</time></trkpt><trkpt lat="43.49718246599573" lon="5.877118791997606"><ele>354.75</ele><time>2026-04-18T11:51:25Z</time></trkpt><trkpt lat="43.49732648358511" lon="5.8770909498796575"><ele>355.0</ele><time>2026-04-18T11:51:26Z</time></trkpt><trkpt lat="43.49746383622275" lon="5.877111517788918"><ele>355.0</ele><time>2026-04-18T11:51:27Z</time></trkpt><trkpt lat="43.49760940477356" lon="5.87716386153009"><ele>355.0</ele><time>2026-04-18T11:51:28Z</time></trkpt><trkpt lat="43.49777559258459" lon="5.877243414933583"><ele>355.0</ele><time>2026-04-18T11:51:29Z</time></trkpt><trkpt lat="43.497952408829576" lon="5.877338754259102"><ele>356.3333333333333</ele><time>2026-04-18T11:51:30Z</time></trkpt><trkpt lat="43.498131395525206" lon="5.877463058359825"><ele>357.6666666666667</ele><time>2026-04-18T11:51:31Z</time></trkpt><trkpt lat="43.498318184007935" lon="5.8776023622675995"><ele>359.0</ele><time>2026-04-18T11:51:32Z</time></trkpt><trkpt lat="43.498501412847546" lon="5.8777487344190895"><ele>359.0</ele><time>2026-04-18T11:51:33Z</time></trkpt><trkpt lat="43.498666693118096" lon="5.877879115919297"><ele>359.0</ele><time>2026-04-18T11:51:33.999Z</time></trkpt><trkpt lat="43.498826815486666" lon="5.878004148890393"><ele>359.0</ele><time>2026-04-18T11:51:34.999Z</time></trkpt><trkpt lat="43.49897010063133" lon="5.878110991097752"><ele>355.75</ele><time>2026-04-18T11:51:35.999Z</time></trkpt><trkpt lat="43.4991027114143" lon="5.878189479321045"><ele>352.5</ele><time>2026-04-18T11:51:36.999Z</time></trkpt><trkpt lat="43.499248475589" lon="5.878211660417726"><ele>349.25</ele><time>2026-04-18T11:51:37.999Z</time></trkpt><trkpt lat="43.499390200123344" lon="5.878197295018838"><ele>346.0</ele><time>2026-04-18T11:51:38.999Z</time></trkpt><trkpt lat="43.49953826069343" lon="5.878219457809764"><ele>347.66666666666663</ele><time>2026-04-18T11:51:39.999Z</time></trkpt><trkpt lat="43.49969523859856" lon="5.878279343898496"><ele>349.3333333333333</ele><time>2026-04-18T11:51:40.999Z</time></trkpt><trkpt lat="43.499863233635416" lon="5.878363992408832"><ele>351.0</ele><time>2026-04-18T11:51:41.999Z</time></trkpt><trkpt lat="43.50002746764209" lon="5.8784601554690585"><ele>351.0</ele><time>2026-04-18T11:51:42.999Z</time></trkpt><trkpt lat="43.50018458549332" lon="5.878557210746129"><ele>351.0</ele><time>2026-04-18T11:51:43.999Z</time></trkpt><trkpt lat="43.50033536902369" lon="5.878638568486503"><ele>351.0</ele><time>2026-04-18T11:51:44.999Z</time></trkpt><trkpt lat="43.50048558268009" lon="5.8787093680307"><ele>346.3333333333333</ele><time>2026-04-18T11:51:45.999Z</time></trkpt><trkpt lat="43.500632320804044" lon="5.878760971013"><ele>341.66666666666663</ele><time>2026-04-18T11:51:46.999Z</time></trkpt><trkpt lat="43.50078801411545" lon="5.878749188559669"><ele>337.0</ele><time>2026-04-18T11:51:47.999Z</time></trkpt><trkpt lat="43.50092375484019" lon="5.87863459371684"><ele>337.0</ele><time>2026-04-18T11:51:48.999Z</time></trkpt><trkpt lat="43.50101471923599" lon="5.878482839498225"><ele>337.0</ele><time>2026-04-18T11:51:49.999Z</time></trkpt><trkpt lat="43.501113402280914" lon="5.878364742009318"><ele>337.0</ele><time>2026-04-18T11:51:50.999Z</time></trkpt><trkpt lat="43.50121719809799" lon="5.878266462665909"><ele>337.0</ele><time>2026-04-18T11:51:51.999Z</time></trkpt><trkpt lat="43.50133208889021" lon="5.878219992276029"><ele>336.40000000000003</ele><time>2026-04-18T11:51:52.999Z</time></trkpt><trkpt lat="43.501444038338875" lon="5.8781874025692025"><ele>335.8</ele><time>2026-04-18T11:51:53.999Z</time></trkpt><trkpt lat="43.50154036702197" lon="5.878151012286087"><ele>335.2</ele><time>2026-04-18T11:51:54.999Z</time></trkpt><trkpt lat="43.501616485375465" lon="5.878106872144112"><ele>334.6</ele><time>2026-04-18T11:51:55.999Z</time></trkpt><trkpt lat="43.50171614426518" lon="5.878095444941578"><ele>334.0</ele><time>2026-04-18T11:51:57.999Z</time></trkpt><trkpt lat="43.50177107458315" lon="5.878240096539252"><ele>334.0</ele><time>2026-04-18T11:51:59.999Z</time></trkpt><trkpt lat="43.501780253139636" lon="5.878350567467719"><ele>334.0</ele><time>2026-04-18T11:52:00.999Z</time></trkpt><trkpt lat="43.50179931595764" lon="5.878485531100849"><ele>334.0</ele><time>2026-04-18T11:52:01.999Z</time></trkpt><trkpt lat="43.50182191761626" lon="5.878643713108745"><ele>334.0</ele><time>2026-04-18T11:52:02.999Z</time></trkpt><trkpt lat="43.5018446909297" lon="5.878809870099144"><ele>334.0</ele><time>2026-04-18T11:52:03.999Z</time></trkpt><trkpt lat="43.50186769229402" lon="5.878959503108992"><ele>333.4</ele><time>2026-04-18T11:52:04.999Z</time></trkpt><trkpt lat="43.501893026389055" lon="5.879101011467608"><ele>332.79999999999995</ele><time>2026-04-18T11:52:05.999Z</time></trkpt><trkpt lat="43.501938761015474" lon="5.879226387730199"><ele>332.20000000000005</ele><time>2026-04-18T11:52:06.999Z</time></trkpt><trkpt lat="43.50201562454162" lon="5.8793211247791906"><ele>331.6</ele><time>2026-04-18T11:52:07.999Z</time></trkpt><trkpt lat="43.50210947712333" lon="5.8793750779219875"><ele>331.0</ele><time>2026-04-18T11:52:08.999Z</time></trkpt><trkpt lat="43.50219783879479" lon="5.879417331014571"><ele>330.25</ele><time>2026-04-18T11:52:09.999Z</time></trkpt><trkpt lat="43.50229386723289" lon="5.879483395726576"><ele>329.5</ele><time>2026-04-18T11:52:10.999Z</time></trkpt><trkpt lat="43.50240486407371" lon="5.879573646590217"><ele>328.75</ele><time>2026-04-18T11:52:11.999Z</time></trkpt><trkpt lat="43.50252329989037" lon="5.879669089599587"><ele>328.0</ele><time>2026-04-18T11:52:12.999Z</time></trkpt><trkpt lat="43.50263484879278" lon="5.879750691634682"><ele>328.0</ele><time>2026-04-18T11:52:13.999Z</time></trkpt><trkpt lat="43.50273954939367" lon="5.879824937085949"><ele>328.0</ele><time>2026-04-18T11:52:14.999Z</time></trkpt><trkpt lat="43.50282817803556" lon="5.879911236966081"><ele>328.0</ele><time>2026-04-18T11:52:15.999Z</time></trkpt><trkpt lat="43.50290141587194" lon="5.880016927202196"><ele>328.0</ele><time>2026-04-18T11:52:16.999Z</time></trkpt><trkpt lat="43.50296027646457" lon="5.880135449848777"><ele>328.0</ele><time>2026-04-18T11:52:17.999Z</time></trkpt><trkpt lat="43.50299979846481" lon="5.880277609661815"><ele>327.25</ele><time>2026-04-18T11:52:18.999Z</time></trkpt><trkpt lat="43.503032529787745" lon="5.8804543498256745"><ele>326.5</ele><time>2026-04-18T11:52:19.999Z</time></trkpt><trkpt lat="43.50306986339102" lon="5.880640968859122"><ele>325.75</ele><time>2026-04-18T11:52:20.999Z</time></trkpt><trkpt lat="43.50310564609138" lon="5.8807999285907675"><ele>325.0</ele><time>2026-04-18T11:52:21.999Z</time></trkpt><trkpt lat="43.50313812549892" lon="5.880946334419593"><ele>324.8</ele><time>2026-04-18T11:52:22.999Z</time></trkpt><trkpt lat="43.50316322951097" lon="5.881082395891048"><ele>324.6</ele><time>2026-04-18T11:52:23.999Z</time></trkpt><trkpt lat="43.503184737235834" lon="5.881211952436816"><ele>324.4</ele><time>2026-04-18T11:52:24.999Z</time></trkpt><trkpt lat="43.503218648210876" lon="5.881370916054045"><ele>324.2</ele><time>2026-04-18T11:52:25.999Z</time></trkpt><trkpt lat="43.503255182110536" lon="5.881528180095698"><ele>324.0</ele><time>2026-04-18T11:52:26.999Z</time></trkpt><trkpt lat="43.503286035962056" lon="5.881673063425203"><ele>324.0</ele><time>2026-04-18T11:52:27.999Z</time></trkpt><trkpt lat="43.503313634443494" lon="5.88180535307769"><ele>324.0</ele><time>2026-04-18T11:52:28.999Z</time></trkpt><trkpt lat="43.503331701036984" lon="5.881906432835426"><ele>324.0</ele><time>2026-04-18T11:52:29.999Z</time></trkpt><trkpt lat="43.50332810701753" lon="5.882082727808437"><ele>324.0</ele><time>2026-04-18T11:52:31.999Z</time></trkpt><trkpt lat="43.50331496392349" lon="5.882184779256635"><ele>324.0</ele><time>2026-04-18T11:52:32.999Z</time></trkpt><trkpt lat="43.503298083021136" lon="5.882294820279125"><ele>324.0</ele><time>2026-04-18T11:52:33.999Z</time></trkpt><trkpt lat="43.503280328885324" lon="5.882416076812451"><ele>324.0</ele><time>2026-04-18T11:52:34.999Z</time></trkpt><trkpt lat="43.50326893065572" lon="5.8825439749955395"><ele>324.0</ele><time>2026-04-18T11:52:35.999Z</time></trkpt><trkpt lat="43.50325875085727" lon="5.882667882215163"><ele>324.0</ele><time>2026-04-18T11:52:36.999Z</time></trkpt><trkpt lat="43.5032547000891" lon="5.8828345910949755"><ele>324.0</ele><time>2026-04-18T11:52:37.999Z</time></trkpt><trkpt lat="43.5032458476178" lon="5.883045002715986"><ele>323.0</ele><time>2026-04-18T11:52:38.999Z</time></trkpt><trkpt lat="43.50323475101945" lon="5.883269638089785"><ele>322.0</ele><time>2026-04-18T11:52:39.999Z</time></trkpt><trkpt lat="43.50322406111099" lon="5.883474554058481"><ele>321.0</ele><time>2026-04-18T11:52:40.999Z</time></trkpt><trkpt lat="43.503223996580196" lon="5.883679293495909"><ele>321.0</ele><time>2026-04-18T11:52:41.999Z</time></trkpt><trkpt lat="43.50322700280856" lon="5.883880680194743"><ele>321.0</ele><time>2026-04-18T11:52:42.999Z</time></trkpt><trkpt lat="43.50321615564908" lon="5.884083562664187"><ele>321.0</ele><time>2026-04-18T11:52:43.999Z</time></trkpt><trkpt lat="43.503216811315525" lon="5.884288391671729"><ele>321.0</ele><time>2026-04-18T11:52:44.999Z</time></trkpt><trkpt lat="43.50322733909056" lon="5.884501112253989"><ele>320.5</ele><time>2026-04-18T11:52:45.999Z</time></trkpt><trkpt lat="43.50324881879003" lon="5.8847023101096285"><ele>320.0</ele><time>2026-04-18T11:52:46.999Z</time></trkpt><trkpt lat="43.503265613091656" lon="5.8848998812168105"><ele>319.5</ele><time>2026-04-18T11:52:47.999Z</time></trkpt><trkpt lat="43.503265266240795" lon="5.885095389009567"><ele>319.0</ele><time>2026-04-18T11:52:48.999Z</time></trkpt><trkpt lat="43.50325976966328" lon="5.885286843413432"><ele>317.25</ele><time>2026-04-18T11:52:49.999Z</time></trkpt><trkpt lat="43.50325304595461" lon="5.885477783442846"><ele>315.5</ele><time>2026-04-18T11:52:50.999Z</time></trkpt><trkpt lat="43.50323925635816" lon="5.8856547486578075"><ele>313.75</ele><time>2026-04-18T11:52:51.999Z</time></trkpt><trkpt lat="43.50323385383285" lon="5.88584418881361"><ele>312.0</ele><time>2026-04-18T11:52:52.999Z</time></trkpt><trkpt lat="43.50323014509867" lon="5.886021603956834"><ele>310.8</ele><time>2026-04-18T11:52:53.999Z</time></trkpt><trkpt lat="43.503252737947214" lon="5.886188968659319"><ele>309.6</ele><time>2026-04-18T11:52:54.999Z</time></trkpt><trkpt lat="43.503297685064155" lon="5.886346312542038"><ele>308.40000000000003</ele><time>2026-04-18T11:52:55.999Z</time></trkpt><trkpt lat="43.5033511326754" lon="5.886481565242136"><ele>307.2</ele><time>2026-04-18T11:52:57Z</time></trkpt><trkpt lat="43.503393753594565" lon="5.8865777931285965"><ele>306.0</ele><time>2026-04-18T11:52:58Z</time></trkpt><trkpt lat="43.503472958068876" lon="5.886680095751903"><ele>306.0</ele><time>2026-04-18T11:53:00Z</time></trkpt><trkpt lat="43.50356976414609" lon="5.886666954402051"><ele>306.0</ele><time>2026-04-18T11:53:02Z</time></trkpt><trkpt lat="43.50366704579404" lon="5.886583986091474"><ele>306.0</ele><time>2026-04-18T11:53:04Z</time></trkpt><trkpt lat="43.50373277585437" lon="5.886522947984203"><ele>306.0</ele><time>2026-04-18T11:53:05Z</time></trkpt><trkpt lat="43.50382348021632" lon="5.886433671013857"><ele>306.0</ele><time>2026-04-18T11:53:06Z</time></trkpt><trkpt lat="43.503942394493414" lon="5.886339633114389"><ele>308.3333333333333</ele><time>2026-04-18T11:53:07Z</time></trkpt><trkpt lat="43.50405959287932" lon="5.886260338253191"><ele>310.66666666666663</ele><time>2026-04-18T11:53:08Z</time></trkpt><trkpt lat="43.50421146387467" lon="5.886189077248093"><ele>313.0</ele><time>2026-04-18T11:53:09Z</time></trkpt><trkpt lat="43.50436892346902" lon="5.88609930561466"><ele>313.0</ele><time>2026-04-18T11:53:10Z</time></trkpt><trkpt lat="43.50452086791211" lon="5.886003866249578"><ele>313.0</ele><time>2026-04-18T11:53:11Z</time></trkpt><trkpt lat="43.50465402669086" lon="5.8859175097000005"><ele>313.0</ele><time>2026-04-18T11:53:12Z</time></trkpt><trkpt lat="43.5047753950192" lon="5.885839520380272"><ele>313.0</ele><time>2026-04-18T11:53:13Z</time></trkpt><trkpt lat="43.50488368353594" lon="5.885764620917301"><ele>313.4</ele><time>2026-04-18T11:53:14Z</time></trkpt><trkpt lat="43.50498269024538" lon="5.885692506000097"><ele>313.8</ele><time>2026-04-18T11:53:15Z</time></trkpt><trkpt lat="43.50506585041922" lon="5.885605806069511"><ele>314.2</ele><time>2026-04-18T11:53:16Z</time></trkpt><trkpt lat="43.505142214672325" lon="5.885502682431259"><ele>314.6</ele><time>2026-04-18T11:53:17Z</time></trkpt><trkpt lat="43.505234051611055" lon="5.885384827974966"><ele>315.0</ele><time>2026-04-18T11:53:18Z</time></trkpt><trkpt lat="43.505331712718394" lon="5.88525060838244"><ele>316.0</ele><time>2026-04-18T11:53:19Z</time></trkpt><trkpt lat="43.50542344123482" lon="5.88511045984027"><ele>317.0</ele><time>2026-04-18T11:53:20Z</time></trkpt><trkpt lat="43.5055282054051" lon="5.8849794676778675"><ele>318.0</ele><time>2026-04-18T11:53:21Z</time></trkpt><trkpt lat="43.505622830887276" lon="5.884874294608143"><ele>319.0</ele><time>2026-04-18T11:53:22Z</time></trkpt><trkpt lat="43.50570860345014" lon="5.884781036156129"><ele>319.0</ele><time>2026-04-18T11:53:23Z</time></trkpt><trkpt lat="43.5058040534425" lon="5.884686208649979"><ele>319.0</ele><time>2026-04-18T11:53:24Z</time></trkpt><trkpt lat="43.505928352851726" lon="5.884590256880503"><ele>319.0</ele><time>2026-04-18T11:53:25Z</time></trkpt><trkpt lat="43.50604131655638" lon="5.884524620872745"><ele>319.0</ele><time>2026-04-18T11:53:26Z</time></trkpt><trkpt lat="43.50615668448573" lon="5.8844841854166"><ele>320.5</ele><time>2026-04-18T11:53:27Z</time></trkpt><trkpt lat="43.50628424207394" lon="5.8844687413345955"><ele>322.0</ele><time>2026-04-18T11:53:28Z</time></trkpt><trkpt lat="43.50639844939869" lon="5.884444856587698"><ele>323.5</ele><time>2026-04-18T11:53:29Z</time></trkpt><trkpt lat="43.50651194714177" lon="5.884415427710123"><ele>325.0</ele><time>2026-04-18T11:53:30Z</time></trkpt><trkpt lat="43.506635684935745" lon="5.884381263314681"><ele>325.0</ele><time>2026-04-18T11:53:31Z</time></trkpt><trkpt lat="43.506740958929434" lon="5.8843252622023945"><ele>325.0</ele><time>2026-04-18T11:53:31.999Z</time></trkpt><trkpt lat="43.50679841061546" lon="5.884271882769999"><ele>325.0</ele><time>2026-04-18T11:53:32.999Z</time></trkpt><trkpt lat="43.50684419564112" lon="5.884210670542775"><ele>325.0</ele><time>2026-04-18T11:53:33.999Z</time></trkpt><trkpt lat="43.50690371491252" lon="5.884030719282948"><ele>325.0</ele><time>2026-04-18T11:53:35.999Z</time></trkpt><trkpt lat="43.50696327952799" lon="5.883911716595748"><ele>324.0</ele><time>2026-04-18T11:53:36.999Z</time></trkpt><trkpt lat="43.507052829329844" lon="5.883791251114432"><ele>323.0</ele><time>2026-04-18T11:53:37.999Z</time></trkpt><trkpt lat="43.50715057778245" lon="5.88368002259711"><ele>322.0</ele><time>2026-04-18T11:53:38.999Z</time></trkpt><trkpt lat="43.50722227868394" lon="5.883566550874137"><ele>321.0</ele><time>2026-04-18T11:53:39.999Z</time></trkpt><trkpt lat="43.507275522851614" lon="5.883430638909929"><ele>321.6666666666667</ele><time>2026-04-18T11:53:40.999Z</time></trkpt><trkpt lat="43.507313912309115" lon="5.883305958366866"><ele>322.3333333333333</ele><time>2026-04-18T11:53:41.999Z</time></trkpt><trkpt lat="43.507343522118404" lon="5.883202200430124"><ele>323.0</ele><time>2026-04-18T11:53:42.999Z</time></trkpt><trkpt lat="43.507386820453355" lon="5.88312036583487"><ele>323.66666666666663</ele><time>2026-04-18T11:53:43.999Z</time></trkpt><trkpt lat="43.50745109309096" lon="5.883058109022857"><ele>324.3333333333333</ele><time>2026-04-18T11:53:44.999Z</time></trkpt><trkpt lat="43.50753565501404" lon="5.882991787983085"><ele>325.0</ele><time>2026-04-18T11:53:45.999Z</time></trkpt><trkpt lat="43.50761030901687" lon="5.882943663511361"><ele>325.0</ele><time>2026-04-18T11:53:46.999Z</time></trkpt><trkpt lat="43.50769879384958" lon="5.882909281833674"><ele>325.0</ele><time>2026-04-18T11:53:47.999Z</time></trkpt><trkpt lat="43.50779632145488" lon="5.8828924571803825"><ele>325.0</ele><time>2026-04-18T11:53:48.999Z</time></trkpt><trkpt lat="43.50788690471012" lon="5.882892575819877"><ele>325.0</ele><time>2026-04-18T11:53:49.999Z</time></trkpt><trkpt lat="43.5079632404157" lon="5.882934710105321"><ele>325.0</ele><time>2026-04-18T11:53:50.999Z</time></trkpt><trkpt lat="43.50805133935285" lon="5.883004160789528"><ele>325.8</ele><time>2026-04-18T11:53:51.999Z</time></trkpt><trkpt lat="43.50812470067025" lon="5.883094219426595"><ele>326.6</ele><time>2026-04-18T11:53:52.999Z</time></trkpt><trkpt lat="43.50818022818284" lon="5.883178972373801"><ele>327.4</ele><time>2026-04-18T11:53:53.999Z</time></trkpt><trkpt lat="43.50820633855988" lon="5.883282307526159"><ele>328.2</ele><time>2026-04-18T11:53:54.999Z</time></trkpt><trkpt lat="43.508205466315324" lon="5.8834122031173255"><ele>329.0</ele><time>2026-04-18T11:53:55.999Z</time></trkpt><trkpt lat="43.50819334421708" lon="5.883560329666242"><ele>329.0</ele><time>2026-04-18T11:53:56.999Z</time></trkpt><trkpt lat="43.50818072681244" lon="5.883733223512763"><ele>329.0</ele><time>2026-04-18T11:53:57.999Z</time></trkpt><trkpt lat="43.50816813823555" lon="5.88388063160034"><ele>329.0</ele><time>2026-04-18T11:53:58.999Z</time></trkpt><trkpt lat="43.508171144007825" lon="5.883980258103018"><ele>329.0</ele><time>2026-04-18T11:53:59.999Z</time></trkpt><trkpt lat="43.50822743551721" lon="5.884059327389467"><ele>329.0</ele><time>2026-04-18T11:54:00.999Z</time></trkpt><trkpt lat="43.50831202118572" lon="5.884103402524706"><ele>329.0</ele><time>2026-04-18T11:54:01.999Z</time></trkpt><trkpt lat="43.50840418587213" lon="5.884127588084719"><ele>329.0</ele><time>2026-04-18T11:54:02.999Z</time></trkpt><trkpt lat="43.5084799071211" lon="5.884145791286296"><ele>329.0</ele><time>2026-04-18T11:54:03.999Z</time></trkpt><trkpt lat="43.50854223455583" lon="5.884211796007563"><ele>329.0</ele><time>2026-04-18T11:54:04.999Z</time></trkpt><trkpt lat="43.50861056146756" lon="5.88427942021628"><ele>329.0</ele><time>2026-04-18T11:54:05.999Z</time></trkpt><trkpt lat="43.50869076581269" lon="5.884360783671182"><ele>329.0</ele><time>2026-04-18T11:54:06.999Z</time></trkpt><trkpt lat="43.508789992745875" lon="5.884447765731216"><ele>331.79999999999995</ele><time>2026-04-18T11:54:07.999Z</time></trkpt><trkpt lat="43.50890192722052" lon="5.884536990157413"><ele>334.59999999999997</ele><time>2026-04-18T11:54:08.999Z</time></trkpt><trkpt lat="43.50899656905276" lon="5.884611308787726"><ele>337.4</ele><time>2026-04-18T11:54:09.999Z</time></trkpt><trkpt lat="43.509071863068414" lon="5.884674539043885"><ele>340.2</ele><time>2026-04-18T11:54:10.999Z</time></trkpt><trkpt lat="43.50911664959912" lon="5.884764156768791"><ele>343.0</ele><time>2026-04-18T11:54:11.999Z</time></trkpt><trkpt lat="43.509158667507585" lon="5.88485158148005"><ele>343.0</ele><time>2026-04-18T11:54:12.999Z</time></trkpt><trkpt lat="43.50923294662798" lon="5.884933133918881"><ele>343.0</ele><time>2026-04-18T11:54:13.999Z</time></trkpt><trkpt lat="43.50932593481851" lon="5.884969261630822"><ele>343.0</ele><time>2026-04-18T11:54:14.999Z</time></trkpt><trkpt lat="43.50940540318419" lon="5.885008288677131"><ele>343.0</ele><time>2026-04-18T11:54:15.999Z</time></trkpt><trkpt lat="43.50950790021523" lon="5.885002268569524"><ele>343.0</ele><time>2026-04-18T11:54:16.999Z</time></trkpt><trkpt lat="43.50963399975459" lon="5.88497593952426"><ele>342.5</ele><time>2026-04-18T11:54:17.999Z</time></trkpt><trkpt lat="43.50977456319468" lon="5.884959266577255"><ele>342.0</ele><time>2026-04-18T11:54:18.999Z</time></trkpt><trkpt lat="43.50991094063702" lon="5.88494352440117"><ele>341.5</ele><time>2026-04-18T11:54:19.999Z</time></trkpt><trkpt lat="43.510016640627335" lon="5.884969540998767"><ele>341.0</ele><time>2026-04-18T11:54:20.999Z</time></trkpt><trkpt lat="43.51008845769153" lon="5.8849741472551855"><ele>341.0</ele><time>2026-04-18T11:54:21.999Z</time></trkpt><trkpt lat="43.51018048783175" lon="5.88499306778052"><ele>341.0</ele><time>2026-04-18T11:54:22.999Z</time></trkpt><trkpt lat="43.510281237505374" lon="5.885042471365871"><ele>341.0</ele><time>2026-04-18T11:54:23.999Z</time></trkpt><trkpt lat="43.51038763357422" lon="5.8851136774080155"><ele>341.0</ele><time>2026-04-18T11:54:24.999Z</time></trkpt><trkpt lat="43.51049655895523" lon="5.8852016988013816"><ele>341.0</ele><time>2026-04-18T11:54:25.999Z</time></trkpt><trkpt lat="43.51060085925932" lon="5.885294650462062"><ele>343.20000000000005</ele><time>2026-04-18T11:54:26.999Z</time></trkpt><trkpt lat="43.51068056255891" lon="5.885357117583042"><ele>345.40000000000003</ele><time>2026-04-18T11:54:27.999Z</time></trkpt><trkpt lat="43.51075901676322" lon="5.885427229489463"><ele>347.6</ele><time>2026-04-18T11:54:28.999Z</time></trkpt><trkpt lat="43.510819790782456" lon="5.885522118773685"><ele>349.8</ele><time>2026-04-18T11:54:29.999Z</time></trkpt><trkpt lat="43.51088454279873" lon="5.885635404146512"><ele>352.0</ele><time>2026-04-18T11:54:30.999Z</time></trkpt><trkpt lat="43.51094117258876" lon="5.885745202187669"><ele>352.0</ele><time>2026-04-18T11:54:31.999Z</time></trkpt><trkpt lat="43.51098517647235" lon="5.88587008254517"><ele>352.0</ele><time>2026-04-18T11:54:32.999Z</time></trkpt><trkpt lat="43.51100392470138" lon="5.886015610775249"><ele>352.0</ele><time>2026-04-18T11:54:33.999Z</time></trkpt><trkpt lat="43.511010596280954" lon="5.886190018619369"><ele>352.0</ele><time>2026-04-18T11:54:34.999Z</time></trkpt><trkpt lat="43.51099976043137" lon="5.886349051840276"><ele>353.16666666666663</ele><time>2026-04-18T11:54:35.999Z</time></trkpt><trkpt lat="43.5109861152376" lon="5.886497528228085"><ele>354.3333333333333</ele><time>2026-04-18T11:54:36.999Z</time></trkpt><trkpt lat="43.510981791614704" lon="5.886626724484797"><ele>355.5</ele><time>2026-04-18T11:54:37.999Z</time></trkpt><trkpt lat="43.510990679472116" lon="5.886723885984334"><ele>356.6666666666667</ele><time>2026-04-18T11:54:38.999Z</time></trkpt><trkpt lat="43.511035233627915" lon="5.886793827904921"><ele>357.83333333333337</ele><time>2026-04-18T11:54:39.999Z</time></trkpt><trkpt lat="43.51111993063189" lon="5.886814232219126"><ele>359.0</ele><time>2026-04-18T11:54:40.999Z</time></trkpt><trkpt lat="43.511213112390045" lon="5.88679409324169"><ele>359.33333333333337</ele><time>2026-04-18T11:54:41.999Z</time></trkpt><trkpt lat="43.51130486419629" lon="5.886777297465099"><ele>359.6666666666667</ele><time>2026-04-18T11:54:42.999Z</time></trkpt><trkpt lat="43.51142490978394" lon="5.886829036176259"><ele>360.0</ele><time>2026-04-18T11:54:44.999Z</time></trkpt><trkpt lat="43.511470005447045" lon="5.886901525420571"><ele>360.3333333333333</ele><time>2026-04-18T11:54:45.999Z</time></trkpt><trkpt lat="43.511503365454026" lon="5.886979277213809"><ele>360.66666666666663</ele><time>2026-04-18T11:54:46.999Z</time></trkpt><trkpt lat="43.51153613213926" lon="5.887075880902043"><ele>361.0</ele><time>2026-04-18T11:54:47.999Z</time></trkpt><trkpt lat="43.51162700029702" lon="5.887129944742137"><ele>361.0</ele><time>2026-04-18T11:54:49.999Z</time></trkpt><trkpt lat="43.511692935090686" lon="5.887085386638007"><ele>361.0</ele><time>2026-04-18T11:54:50.999Z</time></trkpt><trkpt lat="43.51180289159124" lon="5.887064739737164"><ele>361.0</ele><time>2026-04-18T11:54:51.999Z</time></trkpt><trkpt lat="43.51192659395378" lon="5.887081677125532"><ele>361.0</ele><time>2026-04-18T11:54:52.999Z</time></trkpt><trkpt lat="43.512039895831876" lon="5.8871028805905254"><ele>361.0</ele><time>2026-04-18T11:54:53.999Z</time></trkpt><trkpt lat="43.512136087843324" lon="5.8871101402517905"><ele>360.4</ele><time>2026-04-18T11:54:54.999Z</time></trkpt><trkpt lat="43.512205293893444" lon="5.887110583607681"><ele>359.8</ele><time>2026-04-18T11:54:55.999Z</time></trkpt><trkpt lat="43.512305785768184" lon="5.887131777129128"><ele>359.2</ele><time>2026-04-18T11:54:57.999Z</time></trkpt><trkpt lat="43.51237346341683" lon="5.887108422588177"><ele>358.59999999999997</ele><time>2026-04-18T11:55:46.999Z</time></trkpt><trkpt lat="43.51247533827979" lon="5.88699469843364"><ele>358.0</ele><time>2026-04-18T11:55:48.999Z</time></trkpt><trkpt lat="43.512540374984546" lon="5.886934905081777"><ele>358.0</ele><time>2026-04-18T11:55:49.999Z</time></trkpt><trkpt lat="43.512623918217535" lon="5.886894303121708"><ele>358.0</ele><time>2026-04-18T11:55:50.999Z</time></trkpt><trkpt lat="43.51271765406839" lon="5.886840006689174"><ele>358.0</ele><time>2026-04-18T11:55:51.999Z</time></trkpt><trkpt lat="43.51278558158551" lon="5.886791987273793"><ele>358.0</ele><time>2026-04-18T11:55:52.999Z</time></trkpt><trkpt lat="43.512869450562604" lon="5.886757442218051"><ele>358.0</ele><time>2026-04-18T11:55:53.999Z</time></trkpt><trkpt lat="43.51298650041359" lon="5.886737461999566"><ele>359.59999999999997</ele><time>2026-04-18T11:55:54.999Z</time></trkpt><trkpt lat="43.51307604876136" lon="5.886736694970014"><ele>361.2</ele><time>2026-04-18T11:55:55.999Z</time></trkpt><trkpt lat="43.51315591472911" lon="5.886759554052328"><ele>362.8</ele><time>2026-04-18T11:55:56.999Z</time></trkpt><trkpt lat="43.51324682543631" lon="5.88681091761511"><ele>364.4</ele><time>2026-04-18T11:55:57.999Z</time></trkpt><trkpt lat="43.513341684040356" lon="5.886881320041008"><ele>366.0</ele><time>2026-04-18T11:55:58.999Z</time></trkpt><trkpt lat="43.5134239029434" lon="5.8869352062645195"><ele>366.0</ele><time>2026-04-18T11:55:59.999Z</time></trkpt><trkpt lat="43.513504148633245" lon="5.886946169696672"><ele>366.0</ele><time>2026-04-18T11:56:00.999Z</time></trkpt><trkpt lat="43.51360082142905" lon="5.8869243492186465"><ele>366.0</ele><time>2026-04-18T11:56:01.999Z</time></trkpt><trkpt lat="43.513695383144025" lon="5.886855714500893"><ele>366.0</ele><time>2026-04-18T11:56:02.999Z</time></trkpt><trkpt lat="43.513786206089534" lon="5.886759478749295"><ele>366.0</ele><time>2026-04-18T11:56:03.999Z</time></trkpt><trkpt lat="43.51387080157973" lon="5.886697168060936"><ele>368.25</ele><time>2026-04-18T11:56:04.999Z</time></trkpt><trkpt lat="43.51397952333022" lon="5.88664499433971"><ele>370.5</ele><time>2026-04-18T11:56:05.999Z</time></trkpt><trkpt lat="43.51410359492525" lon="5.886589987454102"><ele>372.75</ele><time>2026-04-18T11:56:06.999Z</time></trkpt><trkpt lat="43.514216402784605" lon="5.886543199094911"><ele>375.0</ele><time>2026-04-18T11:56:07.999Z</time></trkpt><trkpt lat="43.514327940617775" lon="5.886479191574169"><ele>375.0</ele><time>2026-04-18T11:56:08.999Z</time></trkpt><trkpt lat="43.51444254508103" lon="5.886409950514195"><ele>375.0</ele><time>2026-04-18T11:56:09.999Z</time></trkpt><trkpt lat="43.514552461602" lon="5.88634181867331"><ele>375.0</ele><time>2026-04-18T11:56:10.999Z</time></trkpt><trkpt lat="43.51465535173512" lon="5.886289049088242"><ele>375.0</ele><time>2026-04-18T11:56:11.999Z</time></trkpt><trkpt lat="43.51477218710809" lon="5.88625095509138"><ele>377.0</ele><time>2026-04-18T11:56:12.999Z</time></trkpt><trkpt lat="43.514895459759686" lon="5.886212149205385"><ele>379.0</ele><time>2026-04-18T11:56:13.999Z</time></trkpt><trkpt lat="43.51500231519144" lon="5.886190615996534"><ele>381.0</ele><time>2026-04-18T11:56:14.999Z</time></trkpt><trkpt lat="43.515122198383835" lon="5.886134463130967"><ele>383.0</ele><time>2026-04-18T11:56:15.999Z</time></trkpt><trkpt lat="43.51525679384588" lon="5.886057085486311"><ele>383.0</ele><time>2026-04-18T11:56:16.999Z</time></trkpt><trkpt lat="43.51538671840259" lon="5.885995375776213"><ele>383.0</ele><time>2026-04-18T11:56:17.999Z</time></trkpt><trkpt lat="43.515496566573866" lon="5.885959873839964"><ele>383.0</ele><time>2026-04-18T11:56:18.999Z</time></trkpt><trkpt lat="43.51559019804648" lon="5.885924203000229"><ele>383.0</ele><time>2026-04-18T11:56:19.999Z</time></trkpt><trkpt lat="43.51568982887619" lon="5.885883291936487"><ele>383.79999999999995</ele><time>2026-04-18T11:56:20.999Z</time></trkpt><trkpt lat="43.51577704275323" lon="5.88581647599847"><ele>384.6</ele><time>2026-04-18T11:56:21.999Z</time></trkpt><trkpt lat="43.5158616793283" lon="5.885712472655771"><ele>385.4</ele><time>2026-04-18T11:56:22.999Z</time></trkpt><trkpt lat="43.51592590087126" lon="5.885629574148802"><ele>386.20000000000005</ele><time>2026-04-18T11:56:23.999Z</time></trkpt><trkpt lat="43.51599018478911" lon="5.885572500371577"><ele>387.0</ele><time>2026-04-18T11:56:24.999Z</time></trkpt><trkpt lat="43.51608082005406" lon="5.8855377861647655"><ele>387.0</ele><time>2026-04-18T11:56:25.999Z</time></trkpt><trkpt lat="43.51618703472068" lon="5.88551372660815"><ele>387.0</ele><time>2026-04-18T11:56:26.999Z</time></trkpt><trkpt lat="43.516296651302724" lon="5.885478176814571"><ele>387.0</ele><time>2026-04-18T11:56:27.999Z</time></trkpt><trkpt lat="43.51639204247466" lon="5.885454287418901"><ele>387.0</ele><time>2026-04-18T11:56:28.999Z</time></trkpt><trkpt lat="43.51649276604756" lon="5.885442663750368"><ele>387.0</ele><time>2026-04-18T11:56:29.999Z</time></trkpt><trkpt lat="43.51659451598346" lon="5.885439195333951"><ele>388.25</ele><time>2026-04-18T11:56:30.999Z</time></trkpt><trkpt lat="43.51670233501339" lon="5.885453324675334"><ele>389.5</ele><time>2026-04-18T11:56:31.999Z</time></trkpt><trkpt lat="43.51679285467228" lon="5.8854839051806005"><ele>390.75</ele><time>2026-04-18T11:56:32.999Z</time></trkpt><trkpt lat="43.516913286897086" lon="5.885516864564579"><ele>392.0</ele><time>2026-04-18T11:56:33.999Z</time></trkpt><trkpt lat="43.517039579300466" lon="5.885535110807098"><ele>393.5</ele><time>2026-04-18T11:56:34.999Z</time></trkpt><trkpt lat="43.517165742224556" lon="5.885559644657754"><ele>395.0</ele><time>2026-04-18T11:56:35.999Z</time></trkpt><trkpt lat="43.51729823904734" lon="5.88558874991258"><ele>396.5</ele><time>2026-04-18T11:56:36.999Z</time></trkpt><trkpt lat="43.51740493531806" lon="5.885608350953202"><ele>398.0</ele><time>2026-04-18T11:56:37.999Z</time></trkpt><trkpt lat="43.51750345294952" lon="5.885628956987441"><ele>397.99999999999994</ele><time>2026-04-18T11:56:38.999Z</time></trkpt><trkpt lat="43.517590726705684" lon="5.885650897193609"><ele>398.0</ele><time>2026-04-18T11:56:39.999Z</time></trkpt><trkpt lat="43.517667315056634" lon="5.8856582154248045"><ele>398.0</ele><time>2026-04-18T11:56:40.999Z</time></trkpt><trkpt lat="43.51775051823353" lon="5.885619699239424"><ele>398.0</ele><time>2026-04-18T11:56:41.999Z</time></trkpt><trkpt lat="43.51783386293457" lon="5.88555874388938"><ele>397.99999999999994</ele><time>2026-04-18T11:56:42.999Z</time></trkpt><trkpt lat="43.517909836193496" lon="5.885503714523487"><ele>398.0</ele><time>2026-04-18T11:56:43.999Z</time></trkpt><trkpt lat="43.51797888534999" lon="5.885485232097072"><ele>399.0</ele><time>2026-04-18T11:56:44.999Z</time></trkpt><trkpt lat="43.51805327677896" lon="5.885500641463035"><ele>400.0</ele><time>2026-04-18T11:56:45.999Z</time></trkpt><trkpt lat="43.518149030559435" lon="5.885554310628207"><ele>401.0</ele><time>2026-04-18T11:56:46.999Z</time></trkpt><trkpt lat="43.51824511506317" lon="5.885625489250743"><ele>402.0</ele><time>2026-04-18T11:56:47.999Z</time></trkpt><trkpt lat="43.5183366949119" lon="5.885712262752201"><ele>403.0</ele><time>2026-04-18T11:56:48.999Z</time></trkpt><trkpt lat="43.51842089082468" lon="5.885774330841667"><ele>403.0</ele><time>2026-04-18T11:56:49.999Z</time></trkpt><trkpt lat="43.51851004664442" lon="5.885816984074"><ele>403.0</ele><time>2026-04-18T11:56:50.999Z</time></trkpt><trkpt lat="43.5186183396164" lon="5.885838223711031"><ele>403.0</ele><time>2026-04-18T11:56:51.999Z</time></trkpt><trkpt lat="43.51872228282289" lon="5.885860058153016"><ele>403.0</ele><time>2026-04-18T11:56:52.999Z</time></trkpt><trkpt lat="43.51882259179463" lon="5.885891915194389"><ele>403.0</ele><time>2026-04-18T11:56:53.999Z</time></trkpt><trkpt lat="43.5189362886483" lon="5.885957714083041"><ele>405.0</ele><time>2026-04-18T11:56:54.999Z</time></trkpt><trkpt lat="43.519055744974466" lon="5.886051349879767"><ele>407.0</ele><time>2026-04-18T11:56:55.999Z</time></trkpt><trkpt lat="43.5191697345709" lon="5.8861176460073805"><ele>409.0</ele><time>2026-04-18T11:56:56.999Z</time></trkpt><trkpt lat="43.51927867510005" lon="5.886178182014417"><ele>411.0</ele><time>2026-04-18T11:56:57.999Z</time></trkpt><trkpt lat="43.51937218936211" lon="5.886249182416981"><ele>411.0</ele><time>2026-04-18T11:56:58.999Z</time></trkpt><trkpt lat="43.51945542474163" lon="5.886302430884773"><ele>411.0</ele><time>2026-04-18T11:56:59.999Z</time></trkpt><trkpt lat="43.519557523696946" lon="5.886348611118253"><ele>411.0</ele><time>2026-04-18T11:57:00.999Z</time></trkpt><trkpt lat="43.51965127195411" lon="5.886398085248358"><ele>411.0</ele><time>2026-04-18T11:57:01.999Z</time></trkpt><trkpt lat="43.519725187072204" lon="5.886419822015457"><ele>411.0</ele><time>2026-04-18T11:57:02.999Z</time></trkpt><trkpt lat="43.519855925992786" lon="5.886325170599734"><ele>412.3333333333333</ele><time>2026-04-18T11:57:04.999Z</time></trkpt><trkpt lat="43.519946425337416" lon="5.886261952330199"><ele>413.66666666666663</ele><time>2026-04-18T11:57:05.999Z</time></trkpt><trkpt lat="43.52003204554469" lon="5.886222519421253"><ele>415.0</ele><time>2026-04-18T11:57:06.999Z</time></trkpt><trkpt lat="43.52011396656381" lon="5.886199915053052"><ele>416.3333333333333</ele><time>2026-04-18T11:57:07.999Z</time></trkpt><trkpt lat="43.52019371813559" lon="5.886186223535735"><ele>417.66666666666663</ele><time>2026-04-18T11:57:08.999Z</time></trkpt><trkpt lat="43.520264808638686" lon="5.8861872976649146"><ele>419.0</ele><time>2026-04-18T11:57:09.999Z</time></trkpt><trkpt lat="43.52034993596051" lon="5.886201381560985"><ele>420.49999999999994</ele><time>2026-04-18T11:57:10.999Z</time></trkpt><trkpt lat="43.52043461828544" lon="5.886221204527959"><ele>422.0</ele><time>2026-04-18T11:57:11.999Z</time></trkpt><trkpt lat="43.52050528314431" lon="5.8862448483837335"><ele>423.5</ele><time>2026-04-18T11:57:12.999Z</time></trkpt><trkpt lat="43.52059400474041" lon="5.886286703892109"><ele>425.0</ele><time>2026-04-18T11:57:13.999Z</time></trkpt><trkpt lat="43.5206782089231" lon="5.886318713807572"><ele>426.49999999999994</ele><time>2026-04-18T11:57:14.999Z</time></trkpt><trkpt lat="43.520755592141704" lon="5.886331102025351"><ele>428.0</ele><time>2026-04-18T11:57:15.999Z</time></trkpt><trkpt lat="43.52082809377717" lon="5.886321460694962"><ele>428.0</ele><time>2026-04-18T11:57:16.999Z</time></trkpt><trkpt lat="43.520934526441884" lon="5.886269240598186"><ele>427.99999999999994</ele><time>2026-04-18T11:57:18.999Z</time></trkpt><trkpt lat="43.52101844832366" lon="5.886257896900509"><ele>427.99999999999994</ele><time>2026-04-18T11:57:19.999Z</time></trkpt><trkpt lat="43.52110319787657" lon="5.886277789754893"><ele>428.0</ele><time>2026-04-18T11:57:20.999Z</time></trkpt><trkpt lat="43.52120420153573" lon="5.886299378892304"><ele>428.0</ele><time>2026-04-18T11:57:21.999Z</time></trkpt><trkpt lat="43.52129287045792" lon="5.886302283559196"><ele>430.2</ele><time>2026-04-18T11:57:22.999Z</time></trkpt><trkpt lat="43.52137355833821" lon="5.886297455701061"><ele>432.4</ele><time>2026-04-18T11:57:23.999Z</time></trkpt><trkpt lat="43.52144713482154" lon="5.886287367870666"><ele>434.59999999999997</ele><time>2026-04-18T11:57:24.999Z</time></trkpt><trkpt lat="43.52156015021023" lon="5.886289029037371"><ele>436.79999999999995</ele><time>2026-04-18T11:57:25.999Z</time></trkpt><trkpt lat="43.521673162487865" lon="5.886288759112427"><ele>439.0</ele><time>2026-04-18T11:57:26.999Z</time></trkpt><trkpt lat="43.521758201218525" lon="5.886272981800847"><ele>439.0</ele><time>2026-04-18T11:57:27.999Z</time></trkpt><trkpt lat="43.52185088131478" lon="5.8862750202867"><ele>439.0</ele><time>2026-04-18T11:57:28.999Z</time></trkpt><trkpt lat="43.521963676896256" lon="5.886313219876912"><ele>439.0</ele><time>2026-04-18T11:57:29.999Z</time></trkpt><trkpt lat="43.52209065519028" lon="5.886356463535818"><ele>439.0</ele><time>2026-04-18T11:57:30.999Z</time></trkpt><trkpt lat="43.52222141030391" lon="5.886375945708985"><ele>441.25</ele><time>2026-04-18T11:57:31.999Z</time></trkpt><trkpt lat="43.52236539856132" lon="5.886386131027496"><ele>443.5</ele><time>2026-04-18T11:57:32.999Z</time></trkpt><trkpt lat="43.522481133646146" lon="5.886398735440133"><ele>445.75</ele><time>2026-04-18T11:57:33.999Z</time></trkpt><trkpt lat="43.52258623850505" lon="5.88640718255591"><ele>448.0</ele><time>2026-04-18T11:57:34.999Z</time></trkpt><trkpt lat="43.522691176380505" lon="5.886404531150221"><ele>448.00000000000006</ele><time>2026-04-18T11:57:35.999Z</time></trkpt><trkpt lat="43.52277542398102" lon="5.8863900579518775"><ele>448.0</ele><time>2026-04-18T11:57:36.999Z</time></trkpt><trkpt lat="43.522844871997215" lon="5.886374661287404"><ele>448.0</ele><time>2026-04-18T11:57:37.999Z</time></trkpt><trkpt lat="43.52292665793402" lon="5.886297675189748"><ele>448.0</ele><time>2026-04-18T11:57:39.999Z</time></trkpt><trkpt lat="43.52296041540351" lon="5.886207338596081"><ele>448.00000000000006</ele><time>2026-04-18T11:57:40.999Z</time></trkpt><trkpt lat="43.52301401081477" lon="5.886142957797298"><ele>448.0</ele><time>2026-04-18T11:57:41.999Z</time></trkpt><trkpt lat="43.52308886148454" lon="5.8860656884808025"><ele>449.0</ele><time>2026-04-18T11:57:42.999Z</time></trkpt><trkpt lat="43.52317776824957" lon="5.885992262821315"><ele>449.99999999999994</ele><time>2026-04-18T11:57:43.999Z</time></trkpt><trkpt lat="43.52324817845872" lon="5.885959859912018"><ele>450.99999999999994</ele><time>2026-04-18T11:57:44.999Z</time></trkpt><trkpt lat="43.52332958276562" lon="5.885877485093154"><ele>452.0</ele><time>2026-04-18T11:57:46.999Z</time></trkpt><trkpt lat="43.523354534394734" lon="5.885763875667738"><ele>453.0</ele><time>2026-04-18T11:57:47.999Z</time></trkpt><trkpt lat="43.523395139713735" lon="5.885653259460377"><ele>453.59999999999997</ele><time>2026-04-18T11:57:48.999Z</time></trkpt><trkpt lat="43.52345844167861" lon="5.885582146690248"><ele>454.19999999999993</ele><time>2026-04-18T11:57:49.999Z</time></trkpt><trkpt lat="43.52354176248021" lon="5.885520792656403"><ele>454.8</ele><time>2026-04-18T11:57:50.999Z</time></trkpt><trkpt lat="43.52361455556124" lon="5.885426428682419"><ele>455.4</ele><time>2026-04-18T11:57:51.999Z</time></trkpt><trkpt lat="43.52367490961957" lon="5.8852854730308355"><ele>456.0</ele><time>2026-04-18T11:57:52.999Z</time></trkpt><trkpt lat="43.523726938538736" lon="5.8851448276692775"><ele>457.6</ele><time>2026-04-18T11:57:53.999Z</time></trkpt><trkpt lat="43.523777570790294" lon="5.88504986450161"><ele>459.20000000000005</ele><time>2026-04-18T11:57:54.999Z</time></trkpt><trkpt lat="43.52384472646003" lon="5.885016314950816"><ele>460.79999999999995</ele><time>2026-04-18T11:57:55.999Z</time></trkpt><trkpt lat="43.52393182870065" lon="5.885019748441061"><ele>462.4</ele><time>2026-04-18T11:57:56.999Z</time></trkpt><trkpt lat="43.5240556492703" lon="5.885026328612158"><ele>464.0</ele><time>2026-04-18T11:57:57.999Z</time></trkpt><trkpt lat="43.52421124140187" lon="5.8850133933467195"><ele>464.0</ele><time>2026-04-18T11:57:58.999Z</time></trkpt><trkpt lat="43.524345057999625" lon="5.884992374477174"><ele>464.0</ele><time>2026-04-18T11:57:59.999Z</time></trkpt><trkpt lat="43.524451966184344" lon="5.884959332489626"><ele>464.0</ele><time>2026-04-18T11:58:00.999Z</time></trkpt><trkpt lat="43.52454843503475" lon="5.884933675458514"><ele>464.0</ele><time>2026-04-18T11:58:01.999Z</time></trkpt><trkpt lat="43.524643738721636" lon="5.884912901944331"><ele>464.0</ele><time>2026-04-18T11:58:02.999Z</time></trkpt><trkpt lat="43.52472805415155" lon="5.88490012156443"><ele>463.99999999999994</ele><time>2026-04-18T11:58:03.999Z</time></trkpt><trkpt lat="43.52480020009164" lon="5.884877112013594"><ele>464.0</ele><time>2026-04-18T11:58:05.999Z</time></trkpt><trkpt lat="43.524793914720945" lon="5.8849709783010855"><ele>464.0</ele><time>2026-04-18T11:59:13.999Z</time></trkpt><trkpt lat="43.52475480339069" lon="5.8850590707911365"><ele>464.0</ele><time>2026-04-18T11:59:15.999Z</time></trkpt><trkpt lat="43.524722778490194" lon="5.8851340158992755"><ele>463.99999999999994</ele><time>2026-04-18T11:59:17.999Z</time></trkpt><trkpt lat="43.52464184880381" lon="5.885124141377062"><ele>464.0</ele><time>2026-04-18T11:59:22.999Z</time></trkpt><trkpt lat="43.5246044671532" lon="5.88525680231826"><ele>463.8333333333333</ele><time>2026-04-18T11:59:25.999Z</time></trkpt><trkpt lat="43.52454457381507" lon="5.885318035233828"><ele>463.66666666666663</ele><time>2026-04-18T11:59:27.999Z</time></trkpt><trkpt lat="43.52450968000462" lon="5.88542992228583"><ele>463.5</ele><time>2026-04-18T11:59:29.999Z</time></trkpt><trkpt lat="43.52450336155474" lon="5.885580006564953"><ele>463.33333333333337</ele><time>2026-04-18T11:59:31.999Z</time></trkpt><trkpt lat="43.524488300424714" lon="5.885716716818381"><ele>463.1666666666667</ele><time>2026-04-18T11:59:33.999Z</time></trkpt><trkpt lat="43.52450699689675" lon="5.885811817248032"><ele>463.0</ele><time>2026-04-18T11:59:36.999Z</time></trkpt><trkpt lat="43.52452893553164" lon="5.885981430548481"><ele>462.50000000000006</ele><time>2026-04-18T11:59:41Z</time></trkpt><trkpt lat="43.52454791504258" lon="5.8860835410994286"><ele>462.0</ele><time>2026-04-18T11:59:49Z</time></trkpt><trkpt lat="43.5245512043205" lon="5.886197997241966"><ele>461.5</ele><time>2026-04-18T11:59:53Z</time></trkpt><trkpt lat="43.52455664925349" lon="5.886314148158279"><ele>461.0</ele><time>2026-04-18T11:59:56Z</time></trkpt><trkpt lat="43.524571446900076" lon="5.88641751045732"><ele>460.50000000000006</ele><time>2026-04-18T11:59:57Z</time></trkpt><trkpt lat="43.52459498898214" lon="5.886519060840696"><ele>460.0</ele><time>2026-04-18T11:59:58Z</time></trkpt><trkpt lat="43.52460894333389" lon="5.886646362434914"><ele>459.99999999999994</ele><time>2026-04-18T12:00:00Z</time></trkpt><trkpt lat="43.52463098356657" lon="5.886744274927481"><ele>460.0</ele><time>2026-04-18T12:00:02Z</time></trkpt><trkpt lat="43.52467535040882" lon="5.886831297709179"><ele>459.99999999999994</ele><time>2026-04-18T12:00:06Z</time></trkpt><trkpt lat="43.52468867753952" lon="5.886927364887841"><ele>459.99999999999994</ele><time>2026-04-18T12:00:10Z</time></trkpt><trkpt lat="43.524639539881434" lon="5.887004351936925"><ele>460.0</ele><time>2026-04-18T12:00:12Z</time></trkpt><trkpt lat="43.524608586352365" lon="5.887094000049965"><ele>459.99999999999994</ele><time>2026-04-18T12:00:14Z</time></trkpt><trkpt lat="43.52453595668175" lon="5.887142364477845"><ele>459.99999999999994</ele><time>2026-04-18T12:00:16Z</time></trkpt><trkpt lat="43.52450072427738" lon="5.887222230114382"><ele>458.50000000000006</ele><time>2026-04-18T12:00:20Z</time></trkpt><trkpt lat="43.5244612894812" lon="5.88734052404698"><ele>457.0</ele><time>2026-04-18T12:00:22Z</time></trkpt><trkpt lat="43.52438481380046" lon="5.887422831412166"><ele>455.5</ele><time>2026-04-18T12:00:25Z</time></trkpt><trkpt lat="43.52433549825164" lon="5.887492459210991"><ele>454.0</ele><time>2026-04-18T12:00:27Z</time></trkpt><trkpt lat="43.52426524186691" lon="5.887552838142249"><ele>452.50000000000006</ele><time>2026-04-18T12:00:29Z</time></trkpt><trkpt lat="43.5241863897352" lon="5.887563788707233"><ele>451.0</ele><time>2026-04-18T12:00:31Z</time></trkpt><trkpt lat="43.52409731503985" lon="5.887558366630532"><ele>450.00000000000006</ele><time>2026-04-18T12:00:34Z</time></trkpt><trkpt lat="43.5240182973154" lon="5.887631944659778"><ele>449.0</ele><time>2026-04-18T12:00:39Z</time></trkpt><trkpt lat="43.52393475365046" lon="5.887694241861216"><ele>448.0</ele><time>2026-04-18T12:00:42Z</time></trkpt><trkpt lat="43.52392376772591" lon="5.8878217475404515"><ele>447.0</ele><time>2026-04-18T12:00:45Z</time></trkpt><trkpt lat="43.52387633854763" lon="5.887908921640724"><ele>446.00000000000006</ele><time>2026-04-18T12:00:48Z</time></trkpt><trkpt lat="43.5238680936591" lon="5.887996826471032"><ele>445.0</ele><time>2026-04-18T12:00:55Z</time></trkpt><trkpt lat="43.52385707793159" lon="5.888087215052663"><ele>445.00000000000006</ele><time>2026-04-18T12:00:59Z</time></trkpt><trkpt lat="43.52383309500641" lon="5.888175056744069"><ele>445.0</ele><time>2026-04-18T12:01:02Z</time></trkpt><trkpt lat="43.523766863861894" lon="5.888221100778761"><ele>445.0</ele><time>2026-04-18T12:01:05Z</time></trkpt><trkpt lat="43.52372548073282" lon="5.888320973258482"><ele>445.0</ele><time>2026-04-18T12:01:08Z</time></trkpt><trkpt lat="43.523672100645925" lon="5.888425342635665"><ele>445.00000000000006</ele><time>2026-04-18T12:01:12Z</time></trkpt><trkpt lat="43.52358994264633" lon="5.888414290452013"><ele>445.0</ele><time>2026-04-18T12:01:14Z</time></trkpt><trkpt lat="43.52350977985684" lon="5.888481983930383"><ele>442.50000000000006</ele><time>2026-04-18T12:01:15Z</time></trkpt><trkpt lat="43.52344322845288" lon="5.88855354020633"><ele>440.0</ele><time>2026-04-18T12:01:18Z</time></trkpt><trkpt lat="43.52338652731243" lon="5.888653061879943"><ele>437.5</ele><time>2026-04-18T12:01:22Z</time></trkpt><trkpt lat="43.523361005330614" lon="5.888743106319095"><ele>435.0</ele><time>2026-04-18T12:01:23Z</time></trkpt><trkpt lat="43.52332974512997" lon="5.888819073657881"><ele>432.50000000000006</ele><time>2026-04-18T12:01:24Z</time></trkpt><trkpt lat="43.52327889690588" lon="5.888919950804552"><ele>430.0</ele><time>2026-04-18T12:01:27Z</time></trkpt><trkpt lat="43.523231405114416" lon="5.8890269535249455"><ele>430.00000000000006</ele><time>2026-04-18T12:01:28Z</time></trkpt><trkpt lat="43.523163795948854" lon="5.8891144938433015"><ele>430.0</ele><time>2026-04-18T12:01:29Z</time></trkpt><trkpt lat="43.52311242423512" lon="5.889238115742824"><ele>430.0</ele><time>2026-04-18T12:01:30Z</time></trkpt><trkpt lat="43.523069336959026" lon="5.889319150315355"><ele>430.0</ele><time>2026-04-18T12:01:31Z</time></trkpt><trkpt lat="43.523020996847634" lon="5.889395185002624"><ele>430.00000000000006</ele><time>2026-04-18T12:01:32Z</time></trkpt><trkpt lat="43.52297303817426" lon="5.889460431986393"><ele>430.0</ele><time>2026-04-18T12:01:33Z</time></trkpt><trkpt lat="43.52285692964332" lon="5.889566214212697"><ele>429.4</ele><time>2026-04-18T12:01:35Z</time></trkpt><trkpt lat="43.52281353011257" lon="5.8896396047659545"><ele>428.8</ele><time>2026-04-18T12:01:36Z</time></trkpt><trkpt lat="43.52275034009316" lon="5.8897929269956855"><ele>428.20000000000005</ele><time>2026-04-18T12:01:38Z</time></trkpt><trkpt lat="43.52267325875756" lon="5.889921359520907"><ele>427.6</ele><time>2026-04-18T12:01:40Z</time></trkpt><trkpt lat="43.52258219414858" lon="5.890019713522372"><ele>427.0</ele><time>2026-04-18T12:01:42Z</time></trkpt><trkpt lat="43.52254988768214" lon="5.890100593805803"><ele>427.0</ele><time>2026-04-18T12:01:44Z</time></trkpt><trkpt lat="43.52249431549184" lon="5.890180106485246"><ele>427.00000000000006</ele><time>2026-04-18T12:04:11Z</time></trkpt><trkpt lat="43.52258382257357" lon="5.890191755948282"><ele>427.00000000000006</ele><time>2026-04-18T12:04:13Z</time></trkpt><trkpt lat="43.52266865994155" lon="5.890197103147215"><ele>427.0</ele><time>2026-04-18T12:04:14Z</time></trkpt><trkpt lat="43.52278499063947" lon="5.890217391781258"><ele>427.0</ele><time>2026-04-18T12:04:15Z</time></trkpt><trkpt lat="43.52291797882228" lon="5.89025939286317"><ele>427.5</ele><time>2026-04-18T12:04:16Z</time></trkpt><trkpt lat="43.52305147744737" lon="5.890306238500056"><ele>428.0</ele><time>2026-04-18T12:04:17Z</time></trkpt><trkpt lat="43.52316697141064" lon="5.89035071885173"><ele>428.5</ele><time>2026-04-18T12:04:18Z</time></trkpt><trkpt lat="43.52326683050074" lon="5.890398467811337"><ele>429.0</ele><time>2026-04-18T12:04:19Z</time></trkpt><trkpt lat="43.52335988565504" lon="5.890425247703364"><ele>429.0</ele><time>2026-04-18T12:04:20Z</time></trkpt><trkpt lat="43.52344346595337" lon="5.890444103676857"><ele>429.0</ele><time>2026-04-18T12:04:21Z</time></trkpt><trkpt lat="43.52351490286056" lon="5.890451477323912"><ele>429.0</ele><time>2026-04-18T12:04:22Z</time></trkpt><trkpt lat="43.523589046060756" lon="5.8904371048953506"><ele>429.0</ele><time>2026-04-18T12:04:23Z</time></trkpt><trkpt lat="43.523680705409014" lon="5.890378990282845"><ele>429.0</ele><time>2026-04-18T12:04:24Z</time></trkpt><trkpt lat="43.52378865609942" lon="5.890311154860803"><ele>429.25</ele><time>2026-04-18T12:04:25Z</time></trkpt><trkpt lat="43.5239174656825" lon="5.890232767329489"><ele>429.5</ele><time>2026-04-18T12:04:26Z</time></trkpt><trkpt lat="43.52406694261087" lon="5.890150116825105"><ele>429.75</ele><time>2026-04-18T12:04:27Z</time></trkpt><trkpt lat="43.52420565390544" lon="5.890090801150194"><ele>430.0</ele><time>2026-04-18T12:04:28Z</time></trkpt><trkpt lat="43.524329660340264" lon="5.890030190005919"><ele>430.0</ele><time>2026-04-18T12:04:29Z</time></trkpt><trkpt lat="43.5244514806324" lon="5.889962126346421"><ele>430.0</ele><time>2026-04-18T12:04:30Z</time></trkpt><trkpt lat="43.524561008354745" lon="5.889912490520757"><ele>430.0</ele><time>2026-04-18T12:04:31Z</time></trkpt><trkpt lat="43.52468513951137" lon="5.889870219924459"><ele>430.0</ele><time>2026-04-18T12:04:32Z</time></trkpt><trkpt lat="43.524799888740894" lon="5.889831529880854"><ele>430.6</ele><time>2026-04-18T12:04:33Z</time></trkpt><trkpt lat="43.52489564535982" lon="5.889776850064607"><ele>431.2</ele><time>2026-04-18T12:04:34Z</time></trkpt><trkpt lat="43.525003093650774" lon="5.889718231836132"><ele>431.79999999999995</ele><time>2026-04-18T12:04:35Z</time></trkpt><trkpt lat="43.52509153982812" lon="5.889672056475512"><ele>432.4</ele><time>2026-04-18T12:04:36Z</time></trkpt><trkpt lat="43.525176570424996" lon="5.889602704928041"><ele>433.0</ele><time>2026-04-18T12:04:37Z</time></trkpt><trkpt lat="43.5252671286684" lon="5.889525904535318"><ele>433.0</ele><time>2026-04-18T12:04:38Z</time></trkpt><trkpt lat="43.525327918204205" lon="5.8894536546359735"><ele>432.99999999999994</ele><time>2026-04-18T12:04:39Z</time></trkpt><trkpt lat="43.525378363020906" lon="5.889371863984676"><ele>432.99999999999994</ele><time>2026-04-18T12:04:40Z</time></trkpt><trkpt lat="43.525453451945985" lon="5.889305675080039"><ele>433.0</ele><time>2026-04-18T12:04:41Z</time></trkpt><trkpt lat="43.52556018388014" lon="5.889235450402886"><ele>433.0</ele><time>2026-04-18T12:04:42Z</time></trkpt><trkpt lat="43.52569635601688" lon="5.8891534827221586"><ele>434.25</ele><time>2026-04-18T12:04:43Z</time></trkpt><trkpt lat="43.52582465660813" lon="5.889065483473596"><ele>435.5</ele><time>2026-04-18T12:04:44Z</time></trkpt><trkpt lat="43.525920599233004" lon="5.888981108212818"><ele>436.75</ele><time>2026-04-18T12:04:45Z</time></trkpt><trkpt lat="43.52601690582901" lon="5.888897743157209"><ele>438.0</ele><time>2026-04-18T12:04:46Z</time></trkpt><trkpt lat="43.52611493496651" lon="5.888808485268581"><ele>438.0</ele><time>2026-04-18T12:04:47Z</time></trkpt><trkpt lat="43.526206605005214" lon="5.888718625325785"><ele>437.99999999999994</ele><time>2026-04-18T12:04:48Z</time></trkpt><trkpt lat="43.526287916867865" lon="5.888652858366122"><ele>437.99999999999994</ele><time>2026-04-18T12:04:49Z</time></trkpt><trkpt lat="43.52634332181395" lon="5.888579317072679"><ele>438.0</ele><time>2026-04-18T12:04:50Z</time></trkpt><trkpt lat="43.526394358556104" lon="5.888460110256279"><ele>438.0</ele><time>2026-04-18T12:04:51Z</time></trkpt><trkpt lat="43.52646238059821" lon="5.888340130174091"><ele>439.0</ele><time>2026-04-18T12:04:52Z</time></trkpt><trkpt lat="43.52652716003724" lon="5.888258251826278"><ele>440.0</ele><time>2026-04-18T12:04:53Z</time></trkpt><trkpt lat="43.52659689553396" lon="5.888220619692159"><ele>441.0</ele><time>2026-04-18T12:04:54Z</time></trkpt><trkpt lat="43.52668128239281" lon="5.888197830862773"><ele>442.0</ele><time>2026-04-18T12:04:55Z</time></trkpt><trkpt lat="43.52676868238845" lon="5.888167335466877"><ele>443.0</ele><time>2026-04-18T12:04:56Z</time></trkpt><trkpt lat="43.52685230309624" lon="5.888140476096303"><ele>444.0</ele><time>2026-04-18T12:04:57Z</time></trkpt><trkpt lat="43.52693875678254" lon="5.8881030522407904"><ele>444.0</ele><time>2026-04-18T12:04:58Z</time></trkpt><trkpt lat="43.52701279703216" lon="5.888048810442531"><ele>444.0</ele><time>2026-04-18T12:04:59Z</time></trkpt><trkpt lat="43.527082053034476" lon="5.888001369221068"><ele>444.0</ele><time>2026-04-18T12:05:00Z</time></trkpt><trkpt lat="43.527185159616266" lon="5.887978927494406"><ele>444.0</ele><time>2026-04-18T12:05:02Z</time></trkpt><trkpt lat="43.52731517931182" lon="5.888053504708109"><ele>444.0</ele><time>2026-04-18T12:05:04Z</time></trkpt><trkpt lat="43.527414905268216" lon="5.888090254995736"><ele>445.4</ele><time>2026-04-18T12:05:05Z</time></trkpt><trkpt lat="43.52751981612759" lon="5.888124712639208"><ele>446.79999999999995</ele><time>2026-04-18T12:05:06Z</time></trkpt><trkpt lat="43.527604044080164" lon="5.8881695398065945"><ele>448.20000000000005</ele><time>2026-04-18T12:05:07Z</time></trkpt><trkpt lat="43.52767375694417" lon="5.888213177254318"><ele>449.6</ele><time>2026-04-18T12:05:08Z</time></trkpt><trkpt lat="43.52776764419692" lon="5.8882241443024474"><ele>451.0</ele><time>2026-04-18T12:05:09Z</time></trkpt><trkpt lat="43.52787675160782" lon="5.888212129776576"><ele>450.6666666666667</ele><time>2026-04-18T12:05:10Z</time></trkpt><trkpt lat="43.527967280480155" lon="5.888197296002486"><ele>450.33333333333337</ele><time>2026-04-18T12:05:11Z</time></trkpt><trkpt lat="43.52804853972544" lon="5.888181468958925"><ele>450.0</ele><time>2026-04-18T12:05:13Z</time></trkpt><trkpt lat="43.528048849708156" lon="5.888298534393071"><ele>449.66666666666663</ele><time>2026-04-18T12:05:20.999Z</time></trkpt><trkpt lat="43.52802381752513" lon="5.8883958565945305"><ele>449.3333333333333</ele><time>2026-04-18T12:05:21.999Z</time></trkpt><trkpt lat="43.528024594795426" lon="5.888488075350356"><ele>449.0</ele><time>2026-04-18T12:05:22.999Z</time></trkpt><trkpt lat="43.52804156604085" lon="5.888587033505069"><ele>450.0</ele><time>2026-04-18T12:05:23.999Z</time></trkpt><trkpt lat="43.52802420127012" lon="5.888672260734603"><ele>451.0</ele><time>2026-04-18T12:05:24.999Z</time></trkpt><trkpt lat="43.527967876512065" lon="5.888795438341923"><ele>452.0</ele><time>2026-04-18T12:05:25.999Z</time></trkpt><trkpt lat="43.52791839064757" lon="5.888945234872033"><ele>453.0</ele><time>2026-04-18T12:05:26.999Z</time></trkpt><trkpt lat="43.5278982455011" lon="5.889060995828458"><ele>454.0</ele><time>2026-04-18T12:05:27.999Z</time></trkpt><trkpt lat="43.52788688757049" lon="5.889170457533292"><ele>454.0</ele><time>2026-04-18T12:05:29.999Z</time></trkpt><trkpt lat="43.527923485225" lon="5.88900164497282"><ele>454.0</ele><time>2026-04-18T12:05:59Z</time></trkpt><trkpt lat="43.52795365566477" lon="5.888862921437637"><ele>454.0</ele><time>2026-04-18T12:06:00Z</time></trkpt><trkpt lat="43.52798185395159" lon="5.888751321866313"><ele>454.0</ele><time>2026-04-18T12:06:01Z</time></trkpt><trkpt lat="43.528017618485165" lon="5.888655082549209"><ele>454.0</ele><time>2026-04-18T12:06:02Z</time></trkpt><trkpt lat="43.52804970052878" lon="5.888568661767146"><ele>454.00000000000006</ele><time>2026-04-18T12:06:03Z</time></trkpt><trkpt lat="43.52806293040949" lon="5.888477507664137"><ele>454.0</ele><time>2026-04-18T12:06:04Z</time></trkpt><trkpt lat="43.52804457741144" lon="5.888382835179255"><ele>454.0</ele><time>2026-04-18T12:06:05Z</time></trkpt><trkpt lat="43.52802960033595" lon="5.888295394270293"><ele>454.0</ele><time>2026-04-18T12:06:06Z</time></trkpt><trkpt lat="43.52806514704247" lon="5.888137378809881"><ele>454.00000000000006</ele><time>2026-04-18T12:06:08Z</time></trkpt><trkpt lat="43.52810538244007" lon="5.888066333122995"><ele>454.0</ele><time>2026-04-18T12:06:09Z</time></trkpt><trkpt lat="43.52818344838748" lon="5.8879249180109765"><ele>453.0</ele><time>2026-04-18T12:06:11Z</time></trkpt><trkpt lat="43.52828238760736" lon="5.8878717603894595"><ele>452.0</ele><time>2026-04-18T12:06:13Z</time></trkpt><trkpt lat="43.52838582679261" lon="5.887915718109557"><ele>451.0</ele><time>2026-04-18T12:06:15Z</time></trkpt><trkpt lat="43.52849170555844" lon="5.887869611636771"><ele>450.0</ele><time>2026-04-18T12:06:17Z</time></trkpt><trkpt lat="43.52856794631875" lon="5.887804084576296"><ele>449.0</ele><time>2026-04-18T12:06:18Z</time></trkpt><trkpt lat="43.52864852163603" lon="5.887749643860544"><ele>448.6</ele><time>2026-04-18T12:06:19Z</time></trkpt><trkpt lat="43.52872813710061" lon="5.887723161908379"><ele>448.2</ele><time>2026-04-18T12:06:20Z</time></trkpt><trkpt lat="43.528831327452416" lon="5.887705988386931"><ele>447.80000000000007</ele><time>2026-04-18T12:06:21Z</time></trkpt><trkpt lat="43.52896134856129" lon="5.887688371486001"><ele>447.40000000000003</ele><time>2026-04-18T12:06:22Z</time></trkpt><trkpt lat="43.52908028721847" lon="5.887685995374382"><ele>447.0</ele><time>2026-04-18T12:06:23Z</time></trkpt><trkpt lat="43.52918562471721" lon="5.8876860085998235"><ele>447.0</ele><time>2026-04-18T12:06:24Z</time></trkpt><trkpt lat="43.52928294780775" lon="5.887666749285077"><ele>447.0</ele><time>2026-04-18T12:06:25Z</time></trkpt><trkpt lat="43.52937880188334" lon="5.887629317748663"><ele>447.0</ele><time>2026-04-18T12:06:26Z</time></trkpt><trkpt lat="43.52946068962507" lon="5.887609954773529"><ele>447.0</ele><time>2026-04-18T12:06:27Z</time></trkpt><trkpt lat="43.52953507840835" lon="5.887616366083788"><ele>447.0</ele><time>2026-04-18T12:06:28Z</time></trkpt><trkpt lat="43.529592097666324" lon="5.887656008283221"><ele>447.0</ele><time>2026-04-18T12:06:29Z</time></trkpt><trkpt lat="43.52964975634154" lon="5.887713664909241"><ele>445.8</ele><time>2026-04-18T12:06:30Z</time></trkpt><trkpt lat="43.52973802417027" lon="5.887747855147942"><ele>444.6</ele><time>2026-04-18T12:06:31Z</time></trkpt><trkpt lat="43.52985014614623" lon="5.887771137966131"><ele>443.40000000000003</ele><time>2026-04-18T12:06:32Z</time></trkpt><trkpt lat="43.52994928821063" lon="5.887773193523491"><ele>442.20000000000005</ele><time>2026-04-18T12:06:33Z</time></trkpt><trkpt lat="43.53003862823491" lon="5.887775597053817"><ele>441.0</ele><time>2026-04-18T12:06:34Z</time></trkpt><trkpt lat="43.5301317017879" lon="5.887774703973228"><ele>441.0</ele><time>2026-04-18T12:06:35Z</time></trkpt><trkpt lat="43.53021843601997" lon="5.887761275187188"><ele>441.0</ele><time>2026-04-18T12:06:36Z</time></trkpt><trkpt lat="43.53030694479747" lon="5.887734199990455"><ele>441.0</ele><time>2026-04-18T12:06:37Z</time></trkpt><trkpt lat="43.53038545102933" lon="5.887696102396938"><ele>441.0</ele><time>2026-04-18T12:06:38Z</time></trkpt><trkpt lat="43.530468826880345" lon="5.887672155412262"><ele>441.0</ele><time>2026-04-18T12:06:39Z</time></trkpt><trkpt lat="43.53054543869186" lon="5.887687234223999"><ele>441.0</ele><time>2026-04-18T12:06:40Z</time></trkpt><trkpt lat="43.53061531439361" lon="5.887733599232584"><ele>439.6</ele><time>2026-04-18T12:06:41Z</time></trkpt><trkpt lat="43.53070144504674" lon="5.887776113971283"><ele>438.20000000000005</ele><time>2026-04-18T12:06:42Z</time></trkpt><trkpt lat="43.5308003202907" lon="5.887795536103143"><ele>436.79999999999995</ele><time>2026-04-18T12:06:43Z</time></trkpt><trkpt lat="43.53089455402906" lon="5.887763462613134"><ele>435.4</ele><time>2026-04-18T12:06:44Z</time></trkpt><trkpt lat="43.53098186356874" lon="5.887720329068321"><ele>434.0</ele><time>2026-04-18T12:06:45Z</time></trkpt><trkpt lat="43.531066683595895" lon="5.887675338557411"><ele>433.99999999999994</ele><time>2026-04-18T12:06:46Z</time></trkpt><trkpt lat="43.5311506311673" lon="5.887638706268397"><ele>434.0</ele><time>2026-04-18T12:06:47Z</time></trkpt><trkpt lat="43.53123330988849" lon="5.887620279630771"><ele>434.0</ele><time>2026-04-18T12:06:48Z</time></trkpt><trkpt lat="43.531310966694775" lon="5.887596565007278"><ele>434.0</ele><time>2026-04-18T12:06:49Z</time></trkpt><trkpt lat="43.53138831442149" lon="5.887590773242584"><ele>433.99999999999994</ele><time>2026-04-18T12:06:50Z</time></trkpt><trkpt lat="43.53146599556254" lon="5.887601548501109"><ele>434.0</ele><time>2026-04-18T12:06:51Z</time></trkpt><trkpt lat="43.531560173464484" lon="5.887631792937701"><ele>433.4</ele><time>2026-04-18T12:06:52Z</time></trkpt><trkpt lat="43.53165342383068" lon="5.887670896857961"><ele>432.79999999999995</ele><time>2026-04-18T12:06:53Z</time></trkpt><trkpt lat="43.53175077020265" lon="5.887694407403859"><ele>432.20000000000005</ele><time>2026-04-18T12:06:54Z</time></trkpt><trkpt lat="43.53184716173173" lon="5.887692648953585"><ele>431.6</ele><time>2026-04-18T12:06:55Z</time></trkpt><trkpt lat="43.531943602685885" lon="5.887693685690433"><ele>431.0</ele><time>2026-04-18T12:06:56Z</time></trkpt><trkpt lat="43.5320357601273" lon="5.8877186310524605"><ele>428.99999999999994</ele><time>2026-04-18T12:06:57Z</time></trkpt><trkpt lat="43.53212061065597" lon="5.887718978133763"><ele>427.0</ele><time>2026-04-18T12:06:58Z</time></trkpt><trkpt lat="43.532199852609736" lon="5.887711384833436"><ele>425.0</ele><time>2026-04-18T12:06:59Z</time></trkpt><trkpt lat="43.53230289791205" lon="5.887670243424922"><ele>423.0</ele><time>2026-04-18T12:07:01Z</time></trkpt><trkpt lat="43.532378863999924" lon="5.887581192275525"><ele>420.99999999999994</ele><time>2026-04-18T12:07:03Z</time></trkpt><trkpt lat="43.532432194251506" lon="5.887524789718279"><ele>419.0</ele><time>2026-04-18T12:07:04Z</time></trkpt><trkpt lat="43.53252618189164" lon="5.887483163127325"><ele>417.66666666666663</ele><time>2026-04-18T12:07:05Z</time></trkpt><trkpt lat="43.532607341908346" lon="5.887453595960601"><ele>416.3333333333333</ele><time>2026-04-18T12:07:06Z</time></trkpt><trkpt lat="43.53267124938353" lon="5.887405142333894"><ele>415.0</ele><time>2026-04-18T12:07:07Z</time></trkpt><trkpt lat="43.53271446832346" lon="5.887329387077165"><ele>413.66666666666663</ele><time>2026-04-18T12:07:08Z</time></trkpt><trkpt lat="43.532734063011524" lon="5.887240346703261"><ele>412.3333333333333</ele><time>2026-04-18T12:07:09Z</time></trkpt><trkpt lat="43.532733947219846" lon="5.887142256805869"><ele>411.0</ele><time>2026-04-18T12:07:10Z</time></trkpt><trkpt lat="43.53273334427157" lon="5.887004626915799"><ele>411.0</ele><time>2026-04-18T12:07:11Z</time></trkpt><trkpt lat="43.532740048045184" lon="5.886856206634682"><ele>411.0</ele><time>2026-04-18T12:07:12Z</time></trkpt><trkpt lat="43.532766809362585" lon="5.88674646864921"><ele>411.0</ele><time>2026-04-18T12:07:13Z</time></trkpt><trkpt lat="43.53283364881055" lon="5.886680798240344"><ele>411.0</ele><time>2026-04-18T12:07:14Z</time></trkpt><trkpt lat="43.53290486014563" lon="5.88665840979121"><ele>411.0</ele><time>2026-04-18T12:07:15Z</time></trkpt><trkpt lat="43.53297956999431" lon="5.886662560506705"><ele>411.0</ele><time>2026-04-18T12:07:16Z</time></trkpt><trkpt lat="43.533056359458016" lon="5.886715911531256"><ele>409.5</ele><time>2026-04-18T12:07:17Z</time></trkpt><trkpt lat="43.53316364938514" lon="5.886811026853131"><ele>408.0</ele><time>2026-04-18T12:07:18Z</time></trkpt><trkpt lat="43.533265605187026" lon="5.886915473163023"><ele>406.5</ele><time>2026-04-18T12:07:18.999Z</time></trkpt><trkpt lat="43.533369224467144" lon="5.886978094380498"><ele>405.0</ele><time>2026-04-18T12:07:19.999Z</time></trkpt><trkpt lat="43.53349014040635" lon="5.887024480427405"><ele>405.0</ele><time>2026-04-18T12:07:20.999Z</time></trkpt><trkpt lat="43.533635875362" lon="5.887070281455294"><ele>405.0</ele><time>2026-04-18T12:07:21.999Z</time></trkpt><trkpt lat="43.53378403770191" lon="5.887121790791086"><ele>405.0</ele><time>2026-04-18T12:07:22.999Z</time></trkpt><trkpt lat="43.533900531148745" lon="5.88718398569911"><ele>405.0</ele><time>2026-04-18T12:07:23.999Z</time></trkpt><trkpt lat="43.533995965618466" lon="5.887246787412885"><ele>406.1666666666667</ele><time>2026-04-18T12:07:24.999Z</time></trkpt><trkpt lat="43.534094332716606" lon="5.887301764575751"><ele>407.33333333333337</ele><time>2026-04-18T12:07:25.999Z</time></trkpt><trkpt lat="43.534196001738955" lon="5.8873467867213956"><ele>408.5</ele><time>2026-04-18T12:07:26.999Z</time></trkpt><trkpt lat="43.53428398639301" lon="5.88736533064021"><ele>409.6666666666667</ele><time>2026-04-18T12:07:27.999Z</time></trkpt><trkpt lat="43.53435798456496" lon="5.887374663489124"><ele>410.83333333333337</ele><time>2026-04-18T12:07:28.999Z</time></trkpt><trkpt lat="43.534426694083" lon="5.887377675090943"><ele>412.0</ele><time>2026-04-18T12:07:29.999Z</time></trkpt><trkpt lat="43.5344099616301" lon="5.887492902987553"><ele>412.00000000000006</ele><time>2026-04-18T12:07:38Z</time></trkpt><trkpt lat="43.53433924401174" lon="5.887560567785959"><ele>412.0</ele><time>2026-04-18T12:07:40Z</time></trkpt><trkpt lat="43.53425564513531" lon="5.887530091013393"><ele>412.0</ele><time>2026-04-18T12:07:42Z</time></trkpt><trkpt lat="43.53416824535138" lon="5.8875159229781655"><ele>412.0</ele><time>2026-04-18T12:07:43Z</time></trkpt><trkpt lat="43.534093908978114" lon="5.887496764619957"><ele>412.00000000000006</ele><time>2026-04-18T12:07:44Z</time></trkpt><trkpt lat="43.534014680326486" lon="5.887423542221916"><ele>412.0</ele><time>2026-04-18T12:07:46Z</time></trkpt><trkpt lat="43.53393501932896" lon="5.887498149848016"><ele>412.00000000000006</ele><time>2026-04-18T12:07:48Z</time></trkpt><trkpt lat="43.53384480167039" lon="5.887550005943927"><ele>412.0</ele><time>2026-04-18T12:07:50Z</time></trkpt><trkpt lat="43.53376567698136" lon="5.887539474343359"><ele>412.0</ele><time>2026-04-18T12:07:52Z</time></trkpt><trkpt lat="43.53369278858441" lon="5.8875700152930195"><ele>412.0</ele><time>2026-04-18T12:07:56Z</time></trkpt><trkpt lat="43.53361755933465" lon="5.8876105202636495"><ele>412.00000000000006</ele><time>2026-04-18T12:08:01Z</time></trkpt><trkpt lat="43.53357380739081" lon="5.887679406676489"><ele>412.0</ele><time>2026-04-18T12:08:03Z</time></trkpt><trkpt lat="43.53353141032624" lon="5.887745753681059"><ele>411.6</ele><time>2026-04-18T12:08:06Z</time></trkpt><trkpt lat="43.53347366452054" lon="5.887873907893214"><ele>411.20000000000005</ele><time>2026-04-18T12:08:09Z</time></trkpt><trkpt lat="43.533445862934194" lon="5.8879822946795155"><ele>410.8</ele><time>2026-04-18T12:08:11Z</time></trkpt><trkpt lat="43.5333875409019" lon="5.8882206036152"><ele>410.4</ele><time>2026-04-18T12:08:13Z</time></trkpt><trkpt lat="43.53338491121139" lon="5.88831144619714"><ele>410.0</ele><time>2026-04-18T12:08:14Z</time></trkpt><trkpt lat="43.53336462811042" lon="5.888468576770318"><ele>409.99999999999994</ele><time>2026-04-18T12:08:16Z</time></trkpt><trkpt lat="43.53335971751499" lon="5.888576404346347"><ele>410.0</ele><time>2026-04-18T12:08:17Z</time></trkpt><trkpt lat="43.53335532820403" lon="5.888689301113272"><ele>410.0</ele><time>2026-04-18T12:08:18Z</time></trkpt><trkpt lat="43.53335566982951" lon="5.888788009974646"><ele>410.0</ele><time>2026-04-18T12:08:19Z</time></trkpt><trkpt lat="43.533333342020285" lon="5.888945734192454"><ele>409.99999999999994</ele><time>2026-04-18T12:08:21Z</time></trkpt><trkpt lat="43.533331711101674" lon="5.889035354903358"><ele>410.0</ele><time>2026-04-18T12:08:22Z</time></trkpt><trkpt lat="43.533357917068294" lon="5.8892191575936295"><ele>410.8</ele><time>2026-04-18T12:08:23Z</time></trkpt><trkpt lat="43.533365915993855" lon="5.8893551328056155"><ele>411.6</ele><time>2026-04-18T12:08:24Z</time></trkpt><trkpt lat="43.53335846630694" lon="5.889500526293246"><ele>412.4</ele><time>2026-04-18T12:08:25Z</time></trkpt><trkpt lat="43.53334757829936" lon="5.889636024194935"><ele>413.2</ele><time>2026-04-18T12:08:26Z</time></trkpt><trkpt lat="43.53332836961183" lon="5.88974825052534"><ele>414.0</ele><time>2026-04-18T12:08:27Z</time></trkpt><trkpt lat="43.53329607708933" lon="5.889850314628063"><ele>414.0</ele><time>2026-04-18T12:08:28Z</time></trkpt><trkpt lat="43.5332609264189" lon="5.889972578034145"><ele>414.0</ele><time>2026-04-18T12:08:29Z</time></trkpt><trkpt lat="43.533219019429644" lon="5.890069876933576"><ele>414.0</ele><time>2026-04-18T12:08:30Z</time></trkpt><trkpt lat="43.53316128192566" lon="5.890126262387873"><ele>414.0</ele><time>2026-04-18T12:08:31Z</time></trkpt><trkpt lat="43.53307820433444" lon="5.890176638891014"><ele>414.0</ele><time>2026-04-18T12:08:32Z</time></trkpt><trkpt lat="43.53300103037503" lon="5.890242810973943"><ele>414.0</ele><time>2026-04-18T12:08:33Z</time></trkpt><trkpt lat="43.53293123401853" lon="5.890271368714723"><ele>414.0</ele><time>2026-04-18T12:08:34Z</time></trkpt><trkpt lat="43.53286659254524" lon="5.890237770725815"><ele>414.0</ele><time>2026-04-18T12:08:35Z</time></trkpt><trkpt lat="43.53283888386127" lon="5.890147575148254"><ele>414.0</ele><time>2026-04-18T12:08:36Z</time></trkpt><trkpt lat="43.53278798645156" lon="5.8900472708062335"><ele>414.0</ele><time>2026-04-18T12:08:37Z</time></trkpt><trkpt lat="43.532696039157145" lon="5.890017616894364"><ele>414.0</ele><time>2026-04-18T12:08:39Z</time></trkpt><trkpt lat="43.5326555935043" lon="5.8900871158484485"><ele>414.0</ele><time>2026-04-18T12:08:40Z</time></trkpt><trkpt lat="43.53259581319914" lon="5.890153767757298"><ele>414.0</ele><time>2026-04-18T12:08:41Z</time></trkpt><trkpt lat="43.53250926697766" lon="5.890182381193199"><ele>414.0</ele><time>2026-04-18T12:08:42Z</time></trkpt><trkpt lat="43.53245145410176" lon="5.890223531467527"><ele>414.0</ele><time>2026-04-18T12:08:43Z</time></trkpt><trkpt lat="43.53234443058992" lon="5.890235198959381"><ele>414.0</ele><time>2026-04-18T12:08:45Z</time></trkpt><trkpt lat="43.532268014822215" lon="5.890315873616681"><ele>414.0</ele><time>2026-04-18T12:08:47Z</time></trkpt><trkpt lat="43.53220945805303" lon="5.890384726311898"><ele>414.0</ele><time>2026-04-18T12:08:48Z</time></trkpt><trkpt lat="43.53215241586587" lon="5.890430639352139"><ele>414.0</ele><time>2026-04-18T12:08:49Z</time></trkpt><trkpt lat="43.532082727066836" lon="5.890587934266146"><ele>414.0</ele><time>2026-04-18T12:08:51Z</time></trkpt><trkpt lat="43.532024726081865" lon="5.890699251027196"><ele>414.0</ele><time>2026-04-18T12:08:53Z</time></trkpt><trkpt lat="43.532014609592565" lon="5.890811797545052"><ele>414.0</ele><time>2026-04-18T12:08:54Z</time></trkpt><trkpt lat="43.53191574375061" lon="5.89090214823091"><ele>414.0</ele><time>2026-04-18T12:08:56Z</time></trkpt><trkpt lat="43.53185828012716" lon="5.890940966368372"><ele>414.1666666666667</ele><time>2026-04-18T12:08:57Z</time></trkpt><trkpt lat="43.531802828454495" lon="5.891065534053768"><ele>414.33333333333337</ele><time>2026-04-18T12:08:58Z</time></trkpt><trkpt lat="43.53174976855026" lon="5.8911727889330265"><ele>414.5</ele><time>2026-04-18T12:08:59Z</time></trkpt><trkpt lat="43.53169146880463" lon="5.891246488448874"><ele>414.6666666666667</ele><time>2026-04-18T12:09:00Z</time></trkpt><trkpt lat="43.53161583297263" lon="5.891271180904731"><ele>414.83333333333337</ele><time>2026-04-18T12:09:01Z</time></trkpt><trkpt lat="43.53153098685291" lon="5.891305134372362"><ele>415.0</ele><time>2026-04-18T12:09:02Z</time></trkpt><trkpt lat="43.531462958374426" lon="5.891351092886556"><ele>415.00000000000006</ele><time>2026-04-18T12:09:03Z</time></trkpt><trkpt lat="43.531390875874365" lon="5.891366815855303"><ele>415.0</ele><time>2026-04-18T12:09:04Z</time></trkpt><trkpt lat="43.53131316660035" lon="5.891483404895757"><ele>415.0</ele><time>2026-04-18T12:09:06Z</time></trkpt><trkpt lat="43.53123973463547" lon="5.891490485091113"><ele>415.0</ele><time>2026-04-18T12:09:07Z</time></trkpt><trkpt lat="43.53118097308535" lon="5.891545209870104"><ele>415.00000000000006</ele><time>2026-04-18T12:09:08Z</time></trkpt><trkpt lat="43.53111991082581" lon="5.891662635325565"><ele>415.0</ele><time>2026-04-18T12:09:11Z</time></trkpt><trkpt lat="43.53109225856346" lon="5.891778332130286"><ele>414.33333333333337</ele><time>2026-04-18T12:09:14Z</time></trkpt><trkpt lat="43.53102104296221" lon="5.891821448049112"><ele>413.6666666666667</ele><time>2026-04-18T12:09:14.999Z</time></trkpt><trkpt lat="43.53091710379943" lon="5.891893638811835"><ele>413.0</ele><time>2026-04-18T12:09:15.999Z</time></trkpt><trkpt lat="43.53083368055629" lon="5.891935783018438"><ele>412.33333333333337</ele><time>2026-04-18T12:09:16.999Z</time></trkpt><trkpt lat="43.53075759554903" lon="5.891979965015045"><ele>411.6666666666667</ele><time>2026-04-18T12:09:17.999Z</time></trkpt><trkpt lat="43.53068110167009" lon="5.892002615914932"><ele>411.0</ele><time>2026-04-18T12:09:19.999Z</time></trkpt><trkpt lat="43.53059841191284" lon="5.89206738369023"><ele>411.0</ele><time>2026-04-18T12:09:21.999Z</time></trkpt><trkpt lat="43.53052654567307" lon="5.892059432791528"><ele>411.0</ele><time>2026-04-18T12:09:22.999Z</time></trkpt><trkpt lat="43.5304527491722" lon="5.892089173259233"><ele>411.0</ele><time>2026-04-18T12:09:23.999Z</time></trkpt><trkpt lat="43.53037902884267" lon="5.892130155133319"><ele>411.0</ele><time>2026-04-18T12:09:24.999Z</time></trkpt><trkpt lat="43.53032246873924" lon="5.89219242529662"><ele>411.0</ele><time>2026-04-18T12:09:25.999Z</time></trkpt><trkpt lat="43.53024704757254" lon="5.892267971029537"><ele>411.0</ele><time>2026-04-18T12:09:26.999Z</time></trkpt><trkpt lat="43.530153938709255" lon="5.892322198131669"><ele>411.6666666666667</ele><time>2026-04-18T12:09:27.999Z</time></trkpt><trkpt lat="43.53007948643785" lon="5.892359186608603"><ele>412.33333333333337</ele><time>2026-04-18T12:09:28.999Z</time></trkpt><trkpt lat="43.53001514364563" lon="5.892422608976135"><ele>413.0</ele><time>2026-04-18T12:09:29.999Z</time></trkpt><trkpt lat="43.529955635312675" lon="5.89249559879035"><ele>413.6666666666667</ele><time>2026-04-18T12:09:30.999Z</time></trkpt><trkpt lat="43.52989571180176" lon="5.892554217835149"><ele>414.33333333333337</ele><time>2026-04-18T12:09:31.999Z</time></trkpt><trkpt lat="43.529857020814845" lon="5.892625557414255"><ele>415.0</ele><time>2026-04-18T12:09:32.999Z</time></trkpt><trkpt lat="43.52983733217662" lon="5.892754959683818"><ele>414.4</ele><time>2026-04-18T12:09:34.999Z</time></trkpt><trkpt lat="43.52973772715993" lon="5.892860228305017"><ele>413.8</ele><time>2026-04-18T12:09:36.999Z</time></trkpt><trkpt lat="43.52968143190528" lon="5.892929076204906"><ele>413.20000000000005</ele><time>2026-04-18T12:09:37.999Z</time></trkpt><trkpt lat="43.5296017696089" lon="5.892986985501243"><ele>412.6</ele><time>2026-04-18T12:09:38.999Z</time></trkpt><trkpt lat="43.52950013898705" lon="5.893041129237209"><ele>412.0</ele><time>2026-04-18T12:09:39.999Z</time></trkpt><trkpt lat="43.52941809699658" lon="5.893084797200086"><ele>412.00000000000006</ele><time>2026-04-18T12:09:40.999Z</time></trkpt><trkpt lat="43.52934425488097" lon="5.8931315713539885"><ele>412.0</ele><time>2026-04-18T12:09:41.999Z</time></trkpt><trkpt lat="43.52928291228042" lon="5.89317380072183"><ele>412.0</ele><time>2026-04-18T12:09:43Z</time></trkpt><trkpt lat="43.52920620363573" lon="5.8933003582493475"><ele>412.0</ele><time>2026-04-18T12:09:45Z</time></trkpt><trkpt lat="43.52915812596308" lon="5.893359476141684"><ele>412.00000000000006</ele><time>2026-04-18T12:09:46Z</time></trkpt><trkpt lat="43.52907724415319" lon="5.893415665021592"><ele>412.0</ele><time>2026-04-18T12:09:47Z</time></trkpt><trkpt lat="43.52899446959369" lon="5.893478768255806"><ele>409.40000000000003</ele><time>2026-04-18T12:09:48Z</time></trkpt><trkpt lat="43.52893044375105" lon="5.893515435485849"><ele>406.8</ele><time>2026-04-18T12:09:49Z</time></trkpt><trkpt lat="43.5288218933037" lon="5.89359096284163"><ele>404.2</ele><time>2026-04-18T12:09:51Z</time></trkpt><trkpt lat="43.52875456287359" lon="5.893623879215292"><ele>401.6</ele><time>2026-04-18T12:09:52Z</time></trkpt><trkpt lat="43.52868361701358" lon="5.893655425172457"><ele>399.0</ele><time>2026-04-18T12:09:53Z</time></trkpt><trkpt lat="43.52857104227443" lon="5.8937007332221105"><ele>399.0</ele><time>2026-04-18T12:09:54Z</time></trkpt><trkpt lat="43.52845796020349" lon="5.893751622772377"><ele>399.0</ele><time>2026-04-18T12:09:55Z</time></trkpt><trkpt lat="43.52836896458507" lon="5.893794879323813"><ele>399.0</ele><time>2026-04-18T12:09:56Z</time></trkpt><trkpt lat="43.528278393499825" lon="5.8938578249071645"><ele>399.0</ele><time>2026-04-18T12:09:57Z</time></trkpt><trkpt lat="43.528207443921886" lon="5.893898093287667"><ele>399.0</ele><time>2026-04-18T12:09:58Z</time></trkpt><trkpt lat="43.52817239356475" lon="5.8939940286151336"><ele>399.0</ele><time>2026-04-18T12:10:01Z</time></trkpt><trkpt lat="43.52813123916177" lon="5.894064930874482"><ele>399.0</ele><time>2026-04-18T12:10:03Z</time></trkpt><trkpt lat="43.52810861703453" lon="5.89418059759419"><ele>399.0</ele><time>2026-04-18T12:10:05Z</time></trkpt><trkpt lat="43.528170487533366" lon="5.894271747708378"><ele>399.0</ele><time>2026-04-18T12:10:11Z</time></trkpt><trkpt lat="43.52816620609522" lon="5.894379066841731"><ele>399.0</ele><time>2026-04-18T12:10:13Z</time></trkpt><trkpt lat="43.52818553007469" lon="5.894476821669067"><ele>399.0</ele><time>2026-04-18T12:10:15Z</time></trkpt><trkpt lat="43.528213761064066" lon="5.8945568593293425"><ele>396.5</ele><time>2026-04-18T12:10:17Z</time></trkpt><trkpt lat="43.52823951624292" lon="5.894662258023676"><ele>394.0</ele><time>2026-04-18T12:10:19Z</time></trkpt><trkpt lat="43.528258174211466" lon="5.89475455857703"><ele>391.5</ele><time>2026-04-18T12:10:23Z</time></trkpt><trkpt lat="43.52835156089023" lon="5.894846004778582"><ele>389.0</ele><time>2026-04-18T12:10:25Z</time></trkpt><trkpt lat="43.528358313394925" lon="5.894937157237569"><ele>386.5</ele><time>2026-04-18T12:10:27Z</time></trkpt><trkpt lat="43.528363704193126" lon="5.895038216410035"><ele>384.0</ele><time>2026-04-18T12:10:29Z</time></trkpt><trkpt lat="43.52832359324031" lon="5.895137214305397"><ele>381.79999999999995</ele><time>2026-04-18T12:10:32Z</time></trkpt><trkpt lat="43.52831583380801" lon="5.895280675078667"><ele>379.59999999999997</ele><time>2026-04-18T12:10:34Z</time></trkpt><trkpt lat="43.52831932393955" lon="5.895382457527649"><ele>377.4</ele><time>2026-04-18T12:10:35Z</time></trkpt><trkpt lat="43.52830088574578" lon="5.895511866558491"><ele>375.2</ele><time>2026-04-18T12:10:37Z</time></trkpt><trkpt lat="43.52824300673127" lon="5.895575700373024"><ele>373.0</ele><time>2026-04-18T12:10:39Z</time></trkpt><trkpt lat="43.528166101099124" lon="5.895703611518589"><ele>373.0</ele><time>2026-04-18T12:10:41Z</time></trkpt><trkpt lat="43.528078788557096" lon="5.895814033345854"><ele>373.0</ele><time>2026-04-18T12:10:42Z</time></trkpt><trkpt lat="43.52799334836619" lon="5.895908908631909"><ele>373.0</ele><time>2026-04-18T12:10:43Z</time></trkpt><trkpt lat="43.52793038864637" lon="5.895956465856747"><ele>373.0</ele><time>2026-04-18T12:10:44Z</time></trkpt><trkpt lat="43.52785712594596" lon="5.896111014180742"><ele>373.0</ele><time>2026-04-18T12:10:46Z</time></trkpt><trkpt lat="43.527819248045255" lon="5.896262955543992"><ele>372.0</ele><time>2026-04-18T12:10:47Z</time></trkpt><trkpt lat="43.52777108908888" lon="5.896438347980279"><ele>371.0</ele><time>2026-04-18T12:10:48Z</time></trkpt><trkpt lat="43.527703934896216" lon="5.896572171007659"><ele>370.0</ele><time>2026-04-18T12:10:49Z</time></trkpt><trkpt lat="43.527649684021625" lon="5.896698014392807"><ele>369.0</ele><time>2026-04-18T12:10:50Z</time></trkpt><trkpt lat="43.52758386888218" lon="5.896824708351899"><ele>367.4</ele><time>2026-04-18T12:10:51Z</time></trkpt><trkpt lat="43.52751128619893" lon="5.89694027990196"><ele>365.79999999999995</ele><time>2026-04-18T12:10:52Z</time></trkpt><trkpt lat="43.527445660649285" lon="5.897057801494255"><ele>364.20000000000005</ele><time>2026-04-18T12:10:53Z</time></trkpt><trkpt lat="43.52739395999301" lon="5.897151216049241"><ele>362.6</ele><time>2026-04-18T12:10:54Z</time></trkpt><trkpt lat="43.52736028688732" lon="5.89724298337469"><ele>361.0</ele><time>2026-04-18T12:10:55Z</time></trkpt><trkpt lat="43.52733646902166" lon="5.897416978559913"><ele>361.0</ele><time>2026-04-18T12:10:57Z</time></trkpt><trkpt lat="43.52733598875048" lon="5.897548185835119"><ele>361.0</ele><time>2026-04-18T12:10:58Z</time></trkpt><trkpt lat="43.52734324888153" lon="5.897700322247955"><ele>361.0</ele><time>2026-04-18T12:10:59Z</time></trkpt><trkpt lat="43.52733942163122" lon="5.897805504344045"><ele>361.0</ele><time>2026-04-18T12:11:00Z</time></trkpt><trkpt lat="43.52729724076338" lon="5.897917776935032"><ele>361.0</ele><time>2026-04-18T12:11:02Z</time></trkpt><trkpt lat="43.52721400363214" lon="5.897988959827447"><ele>359.4</ele><time>2026-04-18T12:11:04Z</time></trkpt><trkpt lat="43.52718603618973" lon="5.898081168828491"><ele>357.8</ele><time>2026-04-18T12:11:05Z</time></trkpt><trkpt lat="43.52717426947503" lon="5.898170708733814"><ele>356.2</ele><time>2026-04-18T12:11:06Z</time></trkpt><trkpt lat="43.52711915780949" lon="5.89832198643075"><ele>354.59999999999997</ele><time>2026-04-18T12:11:07.999Z</time></trkpt><trkpt lat="43.52710137844412" lon="5.898483979839138"><ele>353.0</ele><time>2026-04-18T12:11:09.999Z</time></trkpt><trkpt lat="43.52709312698695" lon="5.898586744442955"><ele>352.83333333333337</ele><time>2026-04-18T12:11:11.999Z</time></trkpt><trkpt lat="43.52701143208565" lon="5.898606405096574"><ele>352.6666666666667</ele><time>2026-04-18T12:11:13.999Z</time></trkpt><trkpt lat="43.526939171083136" lon="5.898613630795804"><ele>352.5</ele><time>2026-04-18T12:11:14.999Z</time></trkpt><trkpt lat="43.52686077084653" lon="5.898624475806215"><ele>352.3333333333333</ele><time>2026-04-18T12:11:15.999Z</time></trkpt><trkpt lat="43.526755987775914" lon="5.898685071271205"><ele>352.16666666666663</ele><time>2026-04-18T12:11:16.999Z</time></trkpt><trkpt lat="43.52669349795398" lon="5.898784774506062"><ele>352.0</ele><time>2026-04-18T12:11:17.999Z</time></trkpt><trkpt lat="43.52665291300681" lon="5.898854510733156"><ele>352.0</ele><time>2026-04-18T12:11:18.999Z</time></trkpt><trkpt lat="43.52651546784346" lon="5.8989359829063925"><ele>352.0</ele><time>2026-04-18T12:11:20.999Z</time></trkpt><trkpt lat="43.52645373512515" lon="5.899007163279198"><ele>352.0</ele><time>2026-04-18T12:11:21.999Z</time></trkpt><trkpt lat="43.52638679415731" lon="5.898993661847126"><ele>352.0</ele><time>2026-04-18T12:11:23.999Z</time></trkpt><trkpt lat="43.526297345760085" lon="5.898919458901171"><ele>352.0</ele><time>2026-04-18T12:11:30.999Z</time></trkpt><trkpt lat="43.52618634121511" lon="5.898883543746543"><ele>352.3333333333333</ele><time>2026-04-18T12:11:32.999Z</time></trkpt><trkpt lat="43.52611940861777" lon="5.898885239415076"><ele>352.66666666666663</ele><time>2026-04-18T12:11:33.999Z</time></trkpt><trkpt lat="43.52603455432403" lon="5.898883477197238"><ele>353.0</ele><time>2026-04-18T12:11:35.999Z</time></trkpt><trkpt lat="43.525945927789024" lon="5.898879909252257"><ele>353.3333333333333</ele><time>2026-04-18T12:11:38.999Z</time></trkpt><trkpt lat="43.525872062087046" lon="5.898918783804576"><ele>353.6666666666667</ele><time>2026-04-18T12:11:39.999Z</time></trkpt><trkpt lat="43.52578194751154" lon="5.898967866530892"><ele>354.0</ele><time>2026-04-18T12:11:41.999Z</time></trkpt><trkpt lat="43.5256864055464" lon="5.898964371717818"><ele>354.0</ele><time>2026-04-18T12:11:44.999Z</time></trkpt><trkpt lat="43.525625574884224" lon="5.8989920047659385"><ele>354.0</ele><time>2026-04-18T12:11:45.999Z</time></trkpt><trkpt lat="43.52558856596398" lon="5.899084534279918"><ele>354.0</ele><time>2026-04-18T12:11:47.999Z</time></trkpt><trkpt lat="43.52548901864435" lon="5.899105188732636"><ele>354.0</ele><time>2026-04-18T12:11:50Z</time></trkpt><trkpt lat="43.52540116316992" lon="5.899109953625604"><ele>354.0</ele><time>2026-04-18T12:11:51Z</time></trkpt><trkpt lat="43.52531312076224" lon="5.899126816411984"><ele>354.0</ele><time>2026-04-18T12:11:53Z</time></trkpt><trkpt lat="43.52524689174989" lon="5.89913451067904"><ele>355.2</ele><time>2026-04-18T12:11:56Z</time></trkpt><trkpt lat="43.52518101309282" lon="5.899150399938051"><ele>356.4</ele><time>2026-04-18T12:11:58Z</time></trkpt><trkpt lat="43.52508937640018" lon="5.8991655490425865"><ele>357.6</ele><time>2026-04-18T12:12:00Z</time></trkpt><trkpt lat="43.52495786806069" lon="5.899155719096302"><ele>358.8</ele><time>2026-04-18T12:12:03Z</time></trkpt><trkpt lat="43.52481563271504" lon="5.899206802247762"><ele>360.0</ele><time>2026-04-18T12:12:05Z</time></trkpt><trkpt lat="43.52474375176141" lon="5.899213272108548"><ele>360.0</ele><time>2026-04-18T12:12:06Z</time></trkpt><trkpt lat="43.524667675018954" lon="5.899245364124682"><ele>360.0</ele><time>2026-04-18T12:12:07Z</time></trkpt><trkpt lat="43.52456676539849" lon="5.899316940002097"><ele>360.0</ele><time>2026-04-18T12:12:09Z</time></trkpt><trkpt lat="43.52447992331697" lon="5.899409664439892"><ele>360.0</ele><time>2026-04-18T12:12:11Z</time></trkpt><trkpt lat="43.52441370583816" lon="5.899462468551976"><ele>360.0</ele><time>2026-04-18T12:12:12Z</time></trkpt><trkpt lat="43.5243358073531" lon="5.899543548563809"><ele>362.1666666666667</ele><time>2026-04-18T12:12:13Z</time></trkpt><trkpt lat="43.52426674014224" lon="5.899592249151669"><ele>364.3333333333333</ele><time>2026-04-18T12:12:14Z</time></trkpt><trkpt lat="43.52417686113034" lon="5.8996800632049835"><ele>366.5</ele><time>2026-04-18T12:12:16Z</time></trkpt><trkpt lat="43.524122840863065" lon="5.899737471526314"><ele>368.66666666666663</ele><time>2026-04-18T12:12:17Z</time></trkpt><trkpt lat="43.52404050170579" lon="5.899785506104841"><ele>370.8333333333333</ele><time>2026-04-18T12:12:18Z</time></trkpt><trkpt lat="43.52395142573892" lon="5.899829312978567"><ele>373.0</ele><time>2026-04-18T12:12:19Z</time></trkpt><trkpt lat="43.523876702596056" lon="5.899858145850838"><ele>373.0</ele><time>2026-04-18T12:12:20Z</time></trkpt><trkpt lat="43.52379076252866" lon="5.899901303815824"><ele>373.0</ele><time>2026-04-18T12:12:21Z</time></trkpt><trkpt lat="43.52371506760377" lon="5.899930808032974"><ele>373.0</ele><time>2026-04-18T12:12:22Z</time></trkpt><trkpt lat="43.523611205204894" lon="5.899994520598314"><ele>373.0</ele><time>2026-04-18T12:12:24Z</time></trkpt><trkpt lat="43.52354918746952" lon="5.900056642130975"><ele>373.0</ele><time>2026-04-18T12:12:25Z</time></trkpt><trkpt lat="43.52346300734025" lon="5.900145761795148"><ele>374.59999999999997</ele><time>2026-04-18T12:12:26Z</time></trkpt><trkpt lat="43.523370556064336" lon="5.9002578899734015"><ele>376.2</ele><time>2026-04-18T12:12:27Z</time></trkpt><trkpt lat="43.52330022511614" lon="5.90034022965518"><ele>377.8</ele><time>2026-04-18T12:12:28Z</time></trkpt><trkpt lat="43.52321590682715" lon="5.900411730332205"><ele>379.4</ele><time>2026-04-18T12:12:30Z</time></trkpt><trkpt lat="43.52313215908393" lon="5.900496236673751"><ele>381.0</ele><time>2026-04-18T12:12:32Z</time></trkpt><trkpt lat="43.523067834063944" lon="5.9005246588447005"><ele>381.0</ele><time>2026-04-18T12:12:33Z</time></trkpt><trkpt lat="43.523009116583125" lon="5.9005765976231"><ele>381.0</ele><time>2026-04-18T12:12:34Z</time></trkpt><trkpt lat="43.52295841101339" lon="5.900655611255997"><ele>381.0</ele><time>2026-04-18T12:12:35Z</time></trkpt><trkpt lat="43.52290605593511" lon="5.900734878875859"><ele>381.0</ele><time>2026-04-18T12:12:36Z</time></trkpt><trkpt lat="43.522836733045374" lon="5.900811638125201"><ele>381.0</ele><time>2026-04-18T12:12:37Z</time></trkpt><trkpt lat="43.52277052499406" lon="5.900885937890508"><ele>381.0</ele><time>2026-04-18T12:12:38Z</time></trkpt><trkpt lat="43.52270076328739" lon="5.900954748763919"><ele>381.8333333333333</ele><time>2026-04-18T12:12:39Z</time></trkpt><trkpt lat="43.522633652758195" lon="5.9010189305403165"><ele>382.66666666666663</ele><time>2026-04-18T12:12:40Z</time></trkpt><trkpt lat="43.522580843594426" lon="5.901097449165872"><ele>383.5</ele><time>2026-04-18T12:12:41Z</time></trkpt><trkpt lat="43.5225373812654" lon="5.901173903831366"><ele>384.3333333333333</ele><time>2026-04-18T12:12:42Z</time></trkpt><trkpt lat="43.52244062947746" lon="5.901258731743561"><ele>385.16666666666663</ele><time>2026-04-18T12:12:44Z</time></trkpt><trkpt lat="43.52238879593675" lon="5.901312681641106"><ele>386.0</ele><time>2026-04-18T12:12:45Z</time></trkpt><trkpt lat="43.5223332260494" lon="5.9013907078121735"><ele>385.99999999999994</ele><time>2026-04-18T12:12:46Z</time></trkpt><trkpt lat="43.52226030711327" lon="5.901444934951574"><ele>386.0</ele><time>2026-04-18T12:12:47Z</time></trkpt><trkpt lat="43.522190328685994" lon="5.901472166404562"><ele>386.0</ele><time>2026-04-18T12:12:48Z</time></trkpt><trkpt lat="43.52210908769171" lon="5.901488154856879"><ele>386.0</ele><time>2026-04-18T12:12:49Z</time></trkpt><trkpt lat="43.52203210597229" lon="5.901531546084937"><ele>385.99999999999994</ele><time>2026-04-18T12:12:50Z</time></trkpt><trkpt lat="43.52195452651531" lon="5.901561111332687"><ele>386.0</ele><time>2026-04-18T12:12:51Z</time></trkpt><trkpt lat="43.521858136598965" lon="5.90158139923132"><ele>386.8</ele><time>2026-04-18T12:12:52Z</time></trkpt><trkpt lat="43.52177605194213" lon="5.901674399989778"><ele>387.6</ele><time>2026-04-18T12:12:54Z</time></trkpt><trkpt lat="43.521738635668946" lon="5.901750448047963"><ele>388.4</ele><time>2026-04-18T12:12:55Z</time></trkpt><trkpt lat="43.52167096186099" lon="5.901806227024658"><ele>389.2</ele><time>2026-04-18T12:12:56Z</time></trkpt><trkpt lat="43.52157294754133" lon="5.901870330800836"><ele>390.0</ele><time>2026-04-18T12:12:57Z</time></trkpt><trkpt lat="43.52149261968382" lon="5.901936081996064"><ele>390.0</ele><time>2026-04-18T12:12:58Z</time></trkpt><trkpt lat="43.52141231314095" lon="5.90197246874725"><ele>390.0</ele><time>2026-04-18T12:12:59Z</time></trkpt><trkpt lat="43.52130240402062" lon="5.902011424279929"><ele>390.0</ele><time>2026-04-18T12:13:00Z</time></trkpt><trkpt lat="43.521176490051424" lon="5.902080700056408"><ele>390.0</ele><time>2026-04-18T12:13:01Z</time></trkpt><trkpt lat="43.521080152443886" lon="5.902133141424424"><ele>390.0</ele><time>2026-04-18T12:13:02Z</time></trkpt><trkpt lat="43.520962884459216" lon="5.902187149915922"><ele>390.6</ele><time>2026-04-18T12:13:03Z</time></trkpt><trkpt lat="43.52084069437189" lon="5.9022360844760176"><ele>391.2</ele><time>2026-04-18T12:13:04Z</time></trkpt><trkpt lat="43.52073158290717" lon="5.902273982830418"><ele>391.79999999999995</ele><time>2026-04-18T12:13:05Z</time></trkpt><trkpt lat="43.52063748343031" lon="5.902306685975118"><ele>392.4</ele><time>2026-04-18T12:13:06Z</time></trkpt><trkpt lat="43.52055670333689" lon="5.902346872815978"><ele>393.0</ele><time>2026-04-18T12:13:07Z</time></trkpt><trkpt lat="43.52048018393855" lon="5.902393512306055"><ele>393.2</ele><time>2026-04-18T12:13:08Z</time></trkpt><trkpt lat="43.5203802676802" lon="5.9024137789362205"><ele>393.4</ele><time>2026-04-18T12:13:09Z</time></trkpt><trkpt lat="43.520255348872915" lon="5.902468813500726"><ele>393.59999999999997</ele><time>2026-04-18T12:13:09.999Z</time></trkpt><trkpt lat="43.52014813530048" lon="5.9025167504952485"><ele>393.79999999999995</ele><time>2026-04-18T12:13:10.999Z</time></trkpt><trkpt lat="43.52006277735982" lon="5.9025616490598125"><ele>394.0</ele><time>2026-04-18T12:13:11.999Z</time></trkpt><trkpt lat="43.51997183405909" lon="5.90262328558982"><ele>394.6</ele><time>2026-04-18T12:13:12.999Z</time></trkpt><trkpt lat="43.51989558979772" lon="5.902663235474355"><ele>395.2</ele><time>2026-04-18T12:13:13.999Z</time></trkpt><trkpt lat="43.519819327367735" lon="5.902663303655193"><ele>395.8</ele><time>2026-04-18T12:13:14.999Z</time></trkpt><trkpt lat="43.51970639427203" lon="5.9026507475451755"><ele>396.40000000000003</ele><time>2026-04-18T12:13:15.999Z</time></trkpt><trkpt lat="43.51958118395147" lon="5.902646443575758"><ele>397.0</ele><time>2026-04-18T12:13:16.999Z</time></trkpt><trkpt lat="43.51948323326084" lon="5.902654962868314"><ele>397.0</ele><time>2026-04-18T12:13:17.999Z</time></trkpt><trkpt lat="43.519402689366366" lon="5.902672480192727"><ele>397.0</ele><time>2026-04-18T12:13:18.999Z</time></trkpt><trkpt lat="43.51931381561705" lon="5.902719840005648"><ele>397.0</ele><time>2026-04-18T12:13:19.999Z</time></trkpt><trkpt lat="43.51922314877987" lon="5.902786459341872"><ele>397.0</ele><time>2026-04-18T12:13:20.999Z</time></trkpt><trkpt lat="43.519139982360926" lon="5.902859642277033"><ele>397.0</ele><time>2026-04-18T12:13:21.999Z</time></trkpt><trkpt lat="43.51905284346415" lon="5.90292210451093"><ele>397.00000000000006</ele><time>2026-04-18T12:13:22.999Z</time></trkpt><trkpt lat="43.518955151834156" lon="5.902955758969848"><ele>397.0</ele><time>2026-04-18T12:13:23.999Z</time></trkpt><trkpt lat="43.51886287653088" lon="5.9029831050029555"><ele>397.0</ele><time>2026-04-18T12:13:24.999Z</time></trkpt><trkpt lat="43.518775522152644" lon="5.903002425184886"><ele>397.0</ele><time>2026-04-18T12:13:25.999Z</time></trkpt><trkpt lat="43.518699801546376" lon="5.903021229974372"><ele>397.00000000000006</ele><time>2026-04-18T12:13:26.999Z</time></trkpt><trkpt lat="43.518628500087374" lon="5.903041484929921"><ele>397.0</ele><time>2026-04-18T12:13:27.999Z</time></trkpt><trkpt lat="43.51856443363038" lon="5.90304746793691"><ele>396.8</ele><time>2026-04-18T12:13:28.999Z</time></trkpt><trkpt lat="43.5184795852696" lon="5.903060059345555"><ele>396.6</ele><time>2026-04-18T12:13:30.999Z</time></trkpt><trkpt lat="43.51833344857056" lon="5.903112731150884"><ele>396.40000000000003</ele><time>2026-04-18T12:13:32.999Z</time></trkpt><trkpt lat="43.51824649592741" lon="5.903131197620579"><ele>396.20000000000005</ele><time>2026-04-18T12:13:33.999Z</time></trkpt><trkpt lat="43.51815583683153" lon="5.903156533278064"><ele>396.0</ele><time>2026-04-18T12:13:34.999Z</time></trkpt><trkpt lat="43.518067563079754" lon="5.903197042043061"><ele>396.0</ele><time>2026-04-18T12:13:35.999Z</time></trkpt><trkpt lat="43.51799966994181" lon="5.903225673237811"><ele>396.0</ele><time>2026-04-18T12:13:36.999Z</time></trkpt><trkpt lat="43.51793343716231" lon="5.9032499362595905"><ele>396.0</ele><time>2026-04-18T12:13:37.999Z</time></trkpt><trkpt lat="43.51780711232136" lon="5.903222543697741"><ele>396.0</ele><time>2026-04-18T12:13:39.999Z</time></trkpt><trkpt lat="43.51773633135306" lon="5.903231482053205"><ele>396.0</ele><time>2026-04-18T12:13:40.999Z</time></trkpt><trkpt lat="43.517650779189225" lon="5.9032535101826245"><ele>396.0</ele><time>2026-04-18T12:13:41.999Z</time></trkpt><trkpt lat="43.517551221821414" lon="5.903284370124641"><ele>396.4</ele><time>2026-04-18T12:13:42.999Z</time></trkpt><trkpt lat="43.5174556643763" lon="5.903315727073475"><ele>396.8</ele><time>2026-04-18T12:13:43.999Z</time></trkpt><trkpt lat="43.51736281434023" lon="5.903334227469786"><ele>397.2</ele><time>2026-04-18T12:13:44.999Z</time></trkpt><trkpt lat="43.517275409463366" lon="5.903365204992942"><ele>397.59999999999997</ele><time>2026-04-18T12:13:45.999Z</time></trkpt><trkpt lat="43.51718473220684" lon="5.903406838085038"><ele>398.0</ele><time>2026-04-18T12:13:46.999Z</time></trkpt><trkpt lat="43.51711223352904" lon="5.9034396276816965"><ele>397.66666666666663</ele><time>2026-04-18T12:13:47.999Z</time></trkpt><trkpt lat="43.5170329646041" lon="5.903491737863089"><ele>397.3333333333333</ele><time>2026-04-18T12:13:48.999Z</time></trkpt><trkpt lat="43.51695929686498" lon="5.903543891183157"><ele>397.0</ele><time>2026-04-18T12:13:49.999Z</time></trkpt><trkpt lat="43.51689761608111" lon="5.903607714326414"><ele>396.66666666666663</ele><time>2026-04-18T12:13:50.999Z</time></trkpt><trkpt lat="43.51684290870713" lon="5.903695706552961"><ele>396.3333333333333</ele><time>2026-04-18T12:13:52.999Z</time></trkpt><trkpt lat="43.51689576805047" lon="5.90361461511541"><ele>396.0</ele><time>2026-04-18T12:14:23Z</time></trkpt><trkpt lat="43.516968094666254" lon="5.903521791737992"><ele>396.0</ele><time>2026-04-18T12:14:25Z</time></trkpt><trkpt lat="43.517038303970594" lon="5.903470095605417"><ele>396.0</ele><time>2026-04-18T12:14:27Z</time></trkpt><trkpt lat="43.51713776024992" lon="5.903413235786479"><ele>396.0</ele><time>2026-04-18T12:14:29Z</time></trkpt><trkpt lat="43.5172674594083" lon="5.9033521518350724"><ele>396.0</ele><time>2026-04-18T12:14:31Z</time></trkpt><trkpt lat="43.517367737044104" lon="5.903301972088726"><ele>396.0</ele><time>2026-04-18T12:14:32Z</time></trkpt><trkpt lat="43.51744414767794" lon="5.903285188227507"><ele>396.0</ele><time>2026-04-18T12:14:33Z</time></trkpt><trkpt lat="43.51750782817132" lon="5.903277062075809"><ele>396.0</ele><time>2026-04-18T12:14:34Z</time></trkpt><trkpt lat="43.51758057986205" lon="5.903260605722991"><ele>396.0</ele><time>2026-04-18T12:14:35Z</time></trkpt><trkpt lat="43.517661373687346" lon="5.903228968112122"><ele>396.0</ele><time>2026-04-18T12:14:36Z</time></trkpt><trkpt lat="43.51774482724945" lon="5.903220585044957"><ele>396.0</ele><time>2026-04-18T12:14:37Z</time></trkpt><trkpt lat="43.51785300046124" lon="5.903217340164305"><ele>396.0</ele><time>2026-04-18T12:14:39Z</time></trkpt><trkpt lat="43.517952789294284" lon="5.9032322907507995"><ele>396.0</ele><time>2026-04-18T12:14:41Z</time></trkpt><trkpt lat="43.518024687755144" lon="5.903205897908187"><ele>396.0</ele><time>2026-04-18T12:14:43Z</time></trkpt><trkpt lat="43.517921328642835" lon="5.9032346253601515"><ele>396.0</ele><time>2026-04-18T12:15:15.999Z</time></trkpt><trkpt lat="43.51784634565352" lon="5.903226631241017"><ele>396.0</ele><time>2026-04-18T12:15:16.999Z</time></trkpt><trkpt lat="43.517763495051256" lon="5.903237392764655"><ele>396.0</ele><time>2026-04-18T12:15:18.999Z</time></trkpt><trkpt lat="43.51765764877497" lon="5.903268956652318"><ele>396.0</ele><time>2026-04-18T12:15:20.999Z</time></trkpt><trkpt lat="43.51755302207795" lon="5.9032879795332285"><ele>396.4</ele><time>2026-04-18T12:15:21.999Z</time></trkpt><trkpt lat="43.517463977031234" lon="5.90331461794774"><ele>396.8</ele><time>2026-04-18T12:15:22.999Z</time></trkpt><trkpt lat="43.517380292008326" lon="5.903336684202446"><ele>397.2</ele><time>2026-04-18T12:15:23.999Z</time></trkpt><trkpt lat="43.51730181790437" lon="5.90336366179493"><ele>397.59999999999997</ele><time>2026-04-18T12:15:24.999Z</time></trkpt><trkpt lat="43.517235266320455" lon="5.903398172250886"><ele>398.0</ele><time>2026-04-18T12:15:25.999Z</time></trkpt><trkpt lat="43.5171122151855" lon="5.903452369714647"><ele>397.66666666666663</ele><time>2026-04-18T12:15:27.999Z</time></trkpt><trkpt lat="43.51703112783029" lon="5.903513042656167"><ele>397.3333333333333</ele><time>2026-04-18T12:15:28.999Z</time></trkpt><trkpt lat="43.51695700250418" lon="5.903561784276261"><ele>397.0</ele><time>2026-04-18T12:15:29.999Z</time></trkpt><trkpt lat="43.51690337427216" lon="5.903622406035141"><ele>396.66666666666663</ele><time>2026-04-18T12:15:30.999Z</time></trkpt><trkpt lat="43.51685540732759" lon="5.903707788189103"><ele>396.3333333333333</ele><time>2026-04-18T12:15:32.999Z</time></trkpt><trkpt lat="43.51677131671626" lon="5.903684966915934"><ele>396.0</ele><time>2026-04-18T12:15:56.999Z</time></trkpt><trkpt lat="43.51670388417785" lon="5.903712932181399"><ele>396.0</ele><time>2026-04-18T12:15:57.999Z</time></trkpt><trkpt lat="43.516618827395355" lon="5.9037765250580385"><ele>396.0</ele><time>2026-04-18T12:15:58.999Z</time></trkpt><trkpt lat="43.51653640285068" lon="5.9038386273873265"><ele>396.0</ele><time>2026-04-18T12:15:59.999Z</time></trkpt><trkpt lat="43.51645472648745" lon="5.903870682554218"><ele>396.0</ele><time>2026-04-18T12:16:01Z</time></trkpt><trkpt lat="43.51638019943003" lon="5.903885151468262"><ele>396.0</ele><time>2026-04-18T12:16:02Z</time></trkpt><trkpt lat="43.51628877508933" lon="5.903891166964683"><ele>396.0</ele><time>2026-04-18T12:16:03Z</time></trkpt><trkpt lat="43.51619643022088" lon="5.903908204162945"><ele>395.1666666666667</ele><time>2026-04-18T12:16:04Z</time></trkpt><trkpt lat="43.51611461396913" lon="5.903923704442917"><ele>394.33333333333337</ele><time>2026-04-18T12:16:05Z</time></trkpt><trkpt lat="43.51603561553502" lon="5.903959068885001"><ele>393.5</ele><time>2026-04-18T12:16:06Z</time></trkpt><trkpt lat="43.51596191366623" lon="5.903995464273726"><ele>392.6666666666667</ele><time>2026-04-18T12:16:07Z</time></trkpt><trkpt lat="43.51588557715819" lon="5.904025716643828"><ele>391.83333333333337</ele><time>2026-04-18T12:16:08Z</time></trkpt><trkpt lat="43.5158094919364" lon="5.904036083730186"><ele>391.0</ele><time>2026-04-18T12:16:09Z</time></trkpt><trkpt lat="43.51573607934636" lon="5.904033000937095"><ele>391.00000000000006</ele><time>2026-04-18T12:16:10Z</time></trkpt><trkpt lat="43.515669116784636" lon="5.904054343236729"><ele>391.0</ele><time>2026-04-18T12:16:11Z</time></trkpt><trkpt lat="43.515599105175596" lon="5.904111870153077"><ele>391.0</ele><time>2026-04-18T12:16:12Z</time></trkpt><trkpt lat="43.51551376434324" lon="5.904148893308204"><ele>391.0</ele><time>2026-04-18T12:16:13Z</time></trkpt><trkpt lat="43.51542018125324" lon="5.904143527324098"><ele>391.00000000000006</ele><time>2026-04-18T12:16:14Z</time></trkpt><trkpt lat="43.51532632048549" lon="5.904153042349277"><ele>391.0</ele><time>2026-04-18T12:16:15Z</time></trkpt><trkpt lat="43.51523354005918" lon="5.90419041948377"><ele>391.1666666666667</ele><time>2026-04-18T12:16:16Z</time></trkpt><trkpt lat="43.51515044530497" lon="5.904212808086505"><ele>391.33333333333337</ele><time>2026-04-18T12:16:17Z</time></trkpt><trkpt lat="43.515067308524394" lon="5.904208589607282"><ele>391.5</ele><time>2026-04-18T12:16:18Z</time></trkpt><trkpt lat="43.51499267487461" lon="5.904209304796766"><ele>391.66666666666663</ele><time>2026-04-18T12:16:19Z</time></trkpt><trkpt lat="43.514917901821704" lon="5.904235807297106"><ele>391.8333333333333</ele><time>2026-04-18T12:16:20Z</time></trkpt><trkpt lat="43.514824182088425" lon="5.90429497756775"><ele>392.0</ele><time>2026-04-18T12:16:21Z</time></trkpt><trkpt lat="43.51472017529146" lon="5.904347043224243"><ele>391.20000000000005</ele><time>2026-04-18T12:16:22Z</time></trkpt><trkpt lat="43.51462824102779" lon="5.9043757832852934"><ele>390.4</ele><time>2026-04-18T12:16:23Z</time></trkpt><trkpt lat="43.514540899323414" lon="5.904409664597555"><ele>389.6</ele><time>2026-04-18T12:16:24Z</time></trkpt><trkpt lat="43.51445351897771" lon="5.9044459062779415"><ele>388.79999999999995</ele><time>2026-04-18T12:16:25Z</time></trkpt><trkpt lat="43.51436662330166" lon="5.904494369941773"><ele>388.0</ele><time>2026-04-18T12:16:26Z</time></trkpt><trkpt lat="43.51429084581146" lon="5.904549925838499"><ele>388.00000000000006</ele><time>2026-04-18T12:16:27Z</time></trkpt><trkpt lat="43.514223766674284" lon="5.904616882780337"><ele>388.0</ele><time>2026-04-18T12:16:28Z</time></trkpt><trkpt lat="43.514164210000914" lon="5.904682751641903"><ele>388.0</ele><time>2026-04-18T12:16:29Z</time></trkpt><trkpt lat="43.51409125167875" lon="5.904732172546339"><ele>388.0</ele><time>2026-04-18T12:16:30Z</time></trkpt><trkpt lat="43.514008545162724" lon="5.904774664719192"><ele>388.00000000000006</ele><time>2026-04-18T12:16:31Z</time></trkpt><trkpt lat="43.513947226912315" lon="5.904825467846702"><ele>388.0</ele><time>2026-04-18T12:16:32Z</time></trkpt><trkpt lat="43.513906674088226" lon="5.904908852678704"><ele>388.0</ele><time>2026-04-18T12:16:33Z</time></trkpt><trkpt lat="43.513856382524665" lon="5.905028483291352"><ele>388.0</ele><time>2026-04-18T12:16:34Z</time></trkpt><trkpt lat="43.51379771225921" lon="5.905167876235893"><ele>388.0</ele><time>2026-04-18T12:16:35Z</time></trkpt><trkpt lat="43.51373868884316" lon="5.9052652523128115"><ele>388.0</ele><time>2026-04-18T12:16:36Z</time></trkpt><trkpt lat="43.51369424709061" lon="5.905349332224933"><ele>388.0</ele><time>2026-04-18T12:16:37Z</time></trkpt><trkpt lat="43.51367946468252" lon="5.905438389838571"><ele>388.33333333333337</ele><time>2026-04-18T12:16:38Z</time></trkpt><trkpt lat="43.513659220557265" lon="5.9055316214870235"><ele>388.6666666666667</ele><time>2026-04-18T12:16:39Z</time></trkpt><trkpt lat="43.51361582259753" lon="5.905643730551511"><ele>389.0</ele><time>2026-04-18T12:16:40Z</time></trkpt><trkpt lat="43.513562982799236" lon="5.905754982003507"><ele>389.33333333333337</ele><time>2026-04-18T12:16:41Z</time></trkpt><trkpt lat="43.513518261538486" lon="5.905839905274372"><ele>389.6666666666667</ele><time>2026-04-18T12:16:42Z</time></trkpt><trkpt lat="43.51349694505296" lon="5.905927442944818"><ele>390.0</ele><time>2026-04-18T12:16:43Z</time></trkpt><trkpt lat="43.51349399602021" lon="5.906031298406141"><ele>390.0</ele><time>2026-04-18T12:16:44Z</time></trkpt><trkpt lat="43.51349193058873" lon="5.906150538491266"><ele>390.0</ele><time>2026-04-18T12:16:45Z</time></trkpt><trkpt lat="43.51348048040511" lon="5.906256115710967"><ele>390.0</ele><time>2026-04-18T12:16:46Z</time></trkpt><trkpt lat="43.513452853807294" lon="5.906342357484548"><ele>390.0</ele><time>2026-04-18T12:16:47Z</time></trkpt><trkpt lat="43.513376887170416" lon="5.906442061195104"><ele>390.0</ele><time>2026-04-18T12:16:49Z</time></trkpt><trkpt lat="43.51338341927174" lon="5.906587668331834"><ele>390.0</ele><time>2026-04-18T12:16:52Z</time></trkpt><trkpt lat="43.51338875872213" lon="5.906676889077451"><ele>388.25</ele><time>2026-04-18T12:16:53Z</time></trkpt><trkpt lat="43.51337658723866" lon="5.90678278087023"><ele>386.5</ele><time>2026-04-18T12:16:54Z</time></trkpt><trkpt lat="43.51330248459341" lon="5.906964944582619"><ele>384.75</ele><time>2026-04-18T12:16:56Z</time></trkpt><trkpt lat="43.51321948119508" lon="5.907093719036655"><ele>383.0</ele><time>2026-04-18T12:16:57Z</time></trkpt><trkpt lat="43.51313149302659" lon="5.907234825239584"><ele>383.0</ele><time>2026-04-18T12:16:58Z</time></trkpt><trkpt lat="43.51305450478701" lon="5.907365723546292"><ele>383.0</ele><time>2026-04-18T12:16:59Z</time></trkpt><trkpt lat="43.51298269707392" lon="5.90747336413501"><ele>383.0</ele><time>2026-04-18T12:17:00Z</time></trkpt><trkpt lat="43.51291062605829" lon="5.907567654301133"><ele>383.0</ele><time>2026-04-18T12:17:01Z</time></trkpt><trkpt lat="43.5128342185372" lon="5.907660480086385"><ele>383.0</ele><time>2026-04-18T12:17:02Z</time></trkpt><trkpt lat="43.51275501292355" lon="5.907768349874086"><ele>382.79999999999995</ele><time>2026-04-18T12:17:03Z</time></trkpt><trkpt lat="43.51269043192342" lon="5.907873956397549"><ele>382.6</ele><time>2026-04-18T12:17:04Z</time></trkpt><trkpt lat="43.512654749689595" lon="5.907983036346559"><ele>382.4</ele><time>2026-04-18T12:17:05Z</time></trkpt><trkpt lat="43.51263444144162" lon="5.908101122600947"><ele>382.20000000000005</ele><time>2026-04-18T12:17:06Z</time></trkpt><trkpt lat="43.51260943377994" lon="5.908221303594194"><ele>382.0</ele><time>2026-04-18T12:17:07Z</time></trkpt><trkpt lat="43.51255766625937" lon="5.908319375609422"><ele>382.0</ele><time>2026-04-18T12:17:07.999Z</time></trkpt><trkpt lat="43.51248812843103" lon="5.908394165154212"><ele>382.0</ele><time>2026-04-18T12:17:08.999Z</time></trkpt><trkpt lat="43.51242782301125" lon="5.908464806188698"><ele>382.0</ele><time>2026-04-18T12:17:09.999Z</time></trkpt><trkpt lat="43.51238620027325" lon="5.908543744123485"><ele>382.0</ele><time>2026-04-18T12:17:10.999Z</time></trkpt><trkpt lat="43.512360914307365" lon="5.908641244267377"><ele>382.0</ele><time>2026-04-18T12:17:11.999Z</time></trkpt><trkpt lat="43.512353440675874" lon="5.908743273208296"><ele>382.0</ele><time>2026-04-18T12:17:12.999Z</time></trkpt><trkpt lat="43.512352972481104" lon="5.908839686058084"><ele>380.7142857142857</ele><time>2026-04-18T12:17:13.999Z</time></trkpt><trkpt lat="43.512356649225545" lon="5.908928896192235"><ele>379.4285714285714</ele><time>2026-04-18T12:17:14.999Z</time></trkpt><trkpt lat="43.51236870538355" lon="5.909018669107117"><ele>378.1428571428571</ele><time>2026-04-18T12:17:15.999Z</time></trkpt><trkpt lat="43.512391899612666" lon="5.90911114954167"><ele>376.8571428571429</ele><time>2026-04-18T12:17:16.999Z</time></trkpt><trkpt lat="43.512422151212476" lon="5.909206302638586"><ele>375.57142857142856</ele><time>2026-04-18T12:17:17.999Z</time></trkpt><trkpt lat="43.51245835155362" lon="5.909301033965486"><ele>374.2857142857143</ele><time>2026-04-18T12:17:18.999Z</time></trkpt><trkpt lat="43.512511873936226" lon="5.909387129724984"><ele>373.0</ele><time>2026-04-18T12:17:19.999Z</time></trkpt><trkpt lat="43.51256879387771" lon="5.909473951870512"><ele>371.2</ele><time>2026-04-18T12:17:20.999Z</time></trkpt><trkpt lat="43.5126177708392" lon="5.909566694862164"><ele>369.4</ele><time>2026-04-18T12:17:21.999Z</time></trkpt><trkpt lat="43.51265608531797" lon="5.9096512960974765"><ele>367.59999999999997</ele><time>2026-04-18T12:17:22.999Z</time></trkpt><trkpt lat="43.51265493540653" lon="5.909794615128062"><ele>365.79999999999995</ele><time>2026-04-18T12:17:24.999Z</time></trkpt><trkpt lat="43.51263180264815" lon="5.909882523691166"><ele>364.0</ele><time>2026-04-18T12:17:26.999Z</time></trkpt><trkpt lat="43.512756930153834" lon="5.909866550843166"><ele>364.0</ele><time>2026-04-18T12:17:31.999Z</time></trkpt><trkpt lat="43.512824507127156" lon="5.909832515212889"><ele>364.0</ele><time>2026-04-18T12:17:32.999Z</time></trkpt><trkpt lat="43.51290608262563" lon="5.909791753566996"><ele>364.0</ele><time>2026-04-18T12:17:35.999Z</time></trkpt><trkpt lat="43.512969819776295" lon="5.909631206000546"><ele>364.0</ele><time>2026-04-18T12:17:37.999Z</time></trkpt><trkpt lat="43.51300980169824" lon="5.909528446169744"><ele>364.0</ele><time>2026-04-18T12:17:38.999Z</time></trkpt><trkpt lat="43.51303960224518" lon="5.909435754563448"><ele>362.66666666666663</ele><time>2026-04-18T12:17:39.999Z</time></trkpt><trkpt lat="43.513070318959585" lon="5.90934157032888"><ele>361.3333333333333</ele><time>2026-04-18T12:17:40.999Z</time></trkpt><trkpt lat="43.513110607885295" lon="5.9092421255222485"><ele>360.0</ele><time>2026-04-18T12:17:41.999Z</time></trkpt><trkpt lat="43.51313792261012" lon="5.909157075107578"><ele>358.6666666666667</ele><time>2026-04-18T12:17:42.999Z</time></trkpt><trkpt lat="43.51316726226572" lon="5.908987827641976"><ele>357.33333333333337</ele><time>2026-04-18T12:17:44.999Z</time></trkpt><trkpt lat="43.5131775952216" lon="5.908891391895513"><ele>356.0</ele><time>2026-04-18T12:17:45.999Z</time></trkpt><trkpt lat="43.513197390227695" lon="5.908807529766532"><ele>356.0</ele><time>2026-04-18T12:17:46.999Z</time></trkpt><trkpt lat="43.513267619995325" lon="5.908683232900798"><ele>356.0</ele><time>2026-04-18T12:17:48.999Z</time></trkpt><trkpt lat="43.51336227168697" lon="5.908585342176383"><ele>356.0</ele><time>2026-04-18T12:17:50.999Z</time></trkpt><trkpt lat="43.51344971675074" lon="5.908504346804334"><ele>356.0</ele><time>2026-04-18T12:17:52.999Z</time></trkpt><trkpt lat="43.51350552324895" lon="5.9084491865509"><ele>356.0</ele><time>2026-04-18T12:17:53.999Z</time></trkpt><trkpt lat="43.513582263756085" lon="5.908374534946715"><ele>357.6</ele><time>2026-04-18T12:17:54.999Z</time></trkpt><trkpt lat="43.513643022736474" lon="5.908299594199036"><ele>359.20000000000005</ele><time>2026-04-18T12:17:55.999Z</time></trkpt><trkpt lat="43.51373270961472" lon="5.908203674199511"><ele>360.79999999999995</ele><time>2026-04-18T12:17:57.999Z</time></trkpt><trkpt lat="43.51382073747969" lon="5.908153671014589"><ele>362.4</ele><time>2026-04-18T12:17:59.999Z</time></trkpt><trkpt lat="43.51393391001941" lon="5.90813806000115"><ele>364.0</ele><time>2026-04-18T12:18:01.999Z</time></trkpt><trkpt lat="43.514012903922264" lon="5.9081298222728345"><ele>360.4</ele><time>2026-04-18T12:18:02.999Z</time></trkpt><trkpt lat="43.51414646424413" lon="5.90814157606756"><ele>356.79999999999995</ele><time>2026-04-18T12:18:04.999Z</time></trkpt><trkpt lat="43.51422022398915" lon="5.908144780497933"><ele>353.20000000000005</ele><time>2026-04-18T12:18:05.999Z</time></trkpt><trkpt lat="43.51428702531402" lon="5.908140665333694"><ele>349.6</ele><time>2026-04-18T12:18:07Z</time></trkpt><trkpt lat="43.51440285682993" lon="5.9081541424826005"><ele>346.0</ele><time>2026-04-18T12:18:09Z</time></trkpt><trkpt lat="43.5144991807201" lon="5.90818844572118"><ele>346.0</ele><time>2026-04-18T12:18:11Z</time></trkpt><trkpt lat="43.514570858437445" lon="5.908235469890851"><ele>346.0</ele><time>2026-04-18T12:18:13Z</time></trkpt><trkpt lat="43.51467762790087" lon="5.908251901008515"><ele>346.0</ele><time>2026-04-18T12:18:15Z</time></trkpt><trkpt lat="43.51478228453736" lon="5.908332720548893"><ele>346.0</ele><time>2026-04-18T12:18:17Z</time></trkpt><trkpt lat="43.51486661491251" lon="5.90843880993717"><ele>346.0</ele><time>2026-04-18T12:18:19Z</time></trkpt><trkpt lat="43.514908456931494" lon="5.908552563224963"><ele>342.8</ele><time>2026-04-18T12:18:21Z</time></trkpt><trkpt lat="43.51494237749694" lon="5.908690828139041"><ele>339.6</ele><time>2026-04-18T12:18:23Z</time></trkpt><trkpt lat="43.51496765005465" lon="5.908805301074975"><ele>336.4</ele><time>2026-04-18T12:18:25Z</time></trkpt><trkpt lat="43.51510908804645" lon="5.908830497950772"><ele>333.2</ele><time>2026-04-18T12:19:06Z</time></trkpt><trkpt lat="43.51517100706925" lon="5.908812470137266"><ele>330.0</ele><time>2026-04-18T12:19:09Z</time></trkpt><trkpt lat="43.51523605678379" lon="5.908825598522834"><ele>330.0</ele><time>2026-04-18T12:19:10.999Z</time></trkpt><trkpt lat="43.51529427550084" lon="5.908871053568602"><ele>330.0</ele><time>2026-04-18T12:19:21.999Z</time></trkpt><trkpt lat="43.51532081524595" lon="5.908951833537004"><ele>330.0</ele><time>2026-04-18T12:19:25.999Z</time></trkpt><trkpt lat="43.51538685985781" lon="5.909042571561712"><ele>330.0</ele><time>2026-04-18T12:19:31.999Z</time></trkpt><trkpt lat="43.51547192366737" lon="5.909072361213877"><ele>330.0</ele><time>2026-04-18T12:19:34.999Z</time></trkpt><trkpt lat="43.51553581795168" lon="5.90909433681086"><ele>330.0</ele><time>2026-04-18T12:19:36.999Z</time></trkpt><trkpt lat="43.515612878031504" lon="5.909131971840325"><ele>329.14285714285717</ele><time>2026-04-18T12:19:40.999Z</time></trkpt><trkpt lat="43.51567287464077" lon="5.909182036285139"><ele>328.2857142857143</ele><time>2026-04-18T12:19:46.999Z</time></trkpt><trkpt lat="43.5157413855445" lon="5.909195334455251"><ele>327.42857142857144</ele><time>2026-04-18T12:19:58.999Z</time></trkpt><trkpt lat="43.515816651759486" lon="5.909217539813762"><ele>326.57142857142856</ele><time>2026-04-18T12:20:15Z</time></trkpt><trkpt lat="43.51587487763553" lon="5.909171464068985"><ele>325.7142857142857</ele><time>2026-04-18T12:20:28Z</time></trkpt><trkpt lat="43.51594223114807" lon="5.90916445353212"><ele>324.8571428571429</ele><time>2026-04-18T12:20:30Z</time></trkpt><trkpt lat="43.51599129841231" lon="5.9092239023591375"><ele>324.0</ele><time>2026-04-18T12:20:34Z</time></trkpt><trkpt lat="43.51605173718708" lon="5.909286084002691"><ele>324.0</ele><time>2026-04-18T12:20:40Z</time></trkpt><trkpt lat="43.516162854631" lon="5.909340443296603"><ele>324.0</ele><time>2026-04-18T12:20:42Z</time></trkpt><trkpt lat="43.51618707220411" lon="5.90944744382703"><ele>324.0</ele><time>2026-04-18T12:20:43Z</time></trkpt><trkpt lat="43.51622248913791" lon="5.909587189797513"><ele>324.0</ele><time>2026-04-18T12:20:44Z</time></trkpt><trkpt lat="43.5162330756124" lon="5.909723643195359"><ele>324.0</ele><time>2026-04-18T12:20:45Z</time></trkpt><trkpt lat="43.516211686232076" lon="5.909849321675755"><ele>324.0</ele><time>2026-04-18T12:20:46Z</time></trkpt><trkpt lat="43.51621154840702" lon="5.909981202460471"><ele>324.0</ele><time>2026-04-18T12:20:47Z</time></trkpt><trkpt lat="43.51621376520031" lon="5.910076710442943"><ele>324.0</ele><time>2026-04-18T12:20:48Z</time></trkpt><trkpt lat="43.516244952200374" lon="5.910154598850035"><ele>324.0</ele><time>2026-04-18T12:20:49Z</time></trkpt><trkpt lat="43.51623707128599" lon="5.9103146729081075"><ele>324.0</ele><time>2026-04-18T12:20:51Z</time></trkpt><trkpt lat="43.51619388147814" lon="5.910382355527519"><ele>324.0</ele><time>2026-04-18T12:20:52Z</time></trkpt><trkpt lat="43.51615948230079" lon="5.910457050585815"><ele>322.8</ele><time>2026-04-18T12:20:53Z</time></trkpt><trkpt lat="43.51608019506796" lon="5.910597417111246"><ele>321.59999999999997</ele><time>2026-04-18T12:20:55Z</time></trkpt><trkpt lat="43.515991957156636" lon="5.910638795785168"><ele>320.4</ele><time>2026-04-18T12:20:56Z</time></trkpt><trkpt lat="43.5159018978964" lon="5.910709800421592"><ele>319.2</ele><time>2026-04-18T12:20:57Z</time></trkpt><trkpt lat="43.515835743823125" lon="5.91075533440975"><ele>318.0</ele><time>2026-04-18T12:20:58Z</time></trkpt><trkpt lat="43.515712292983785" lon="5.9108055213650035"><ele>318.0</ele><time>2026-04-18T12:21:00Z</time></trkpt><trkpt lat="43.51559096776127" lon="5.91083332026885"><ele>318.0</ele><time>2026-04-18T12:21:01Z</time></trkpt><trkpt lat="43.51549653494489" lon="5.910821667227642"><ele>318.0</ele><time>2026-04-18T12:21:03Z</time></trkpt><trkpt lat="43.515373897607574" lon="5.9106991253647605"><ele>318.0</ele><time>2026-04-18T12:21:04.999Z</time></trkpt><trkpt lat="43.51523779560275" lon="5.910647703819893"><ele>317.2</ele><time>2026-04-18T12:21:06.999Z</time></trkpt><trkpt lat="43.51511146360937" lon="5.910632519138528"><ele>316.4</ele><time>2026-04-18T12:21:07.999Z</time></trkpt><trkpt lat="43.51502316720645" lon="5.91060224303392"><ele>315.59999999999997</ele><time>2026-04-18T12:21:08.999Z</time></trkpt><trkpt lat="43.51494245016398" lon="5.91057067401215"><ele>314.8</ele><time>2026-04-18T12:21:09.999Z</time></trkpt><trkpt lat="43.51487173836659" lon="5.9105635128783875"><ele>314.0</ele><time>2026-04-18T12:21:10.999Z</time></trkpt><trkpt lat="43.5147756097648" lon="5.9106055970447535"><ele>314.0</ele><time>2026-04-18T12:21:12.999Z</time></trkpt><trkpt lat="43.51469584730997" lon="5.910625178290154"><ele>314.0</ele><time>2026-04-18T12:21:13.999Z</time></trkpt><trkpt lat="43.51462893065721" lon="5.910654061105452"><ele>314.0</ele><time>2026-04-18T12:21:15.999Z</time></trkpt><trkpt lat="43.51457463764498" lon="5.910711954360043"><ele>314.0</ele><time>2026-04-18T12:21:17.999Z</time></trkpt><trkpt lat="43.5145119214765" lon="5.910788240778711"><ele>314.0</ele><time>2026-04-18T12:21:19.999Z</time></trkpt><trkpt lat="43.51449362297561" lon="5.910886308441159"><ele>314.0</ele><time>2026-04-18T12:21:21.999Z</time></trkpt><trkpt lat="43.514490451278945" lon="5.9110293623089"><ele>313.99999999999994</ele><time>2026-04-18T12:21:23.999Z</time></trkpt><trkpt lat="43.514490391675885" lon="5.911119802871776"><ele>314.0</ele><time>2026-04-18T12:21:24.999Z</time></trkpt><trkpt lat="43.51449857599422" lon="5.911208132956583"><ele>314.0</ele><time>2026-04-18T12:21:25.999Z</time></trkpt><trkpt lat="43.51449332757557" lon="5.911304492413321"><ele>314.0</ele><time>2026-04-18T12:21:27.999Z</time></trkpt><trkpt lat="43.51456662765552" lon="5.9112884228626035"><ele>314.0</ele><time>2026-04-18T12:21:31.999Z</time></trkpt><trkpt lat="43.51458078124881" lon="5.911380909658937"><ele>313.99999999999994</ele><time>2026-04-18T12:21:36.999Z</time></trkpt><trkpt lat="43.514614090184075" lon="5.911508516060546"><ele>314.0</ele><time>2026-04-18T12:21:39.999Z</time></trkpt><trkpt lat="43.51467966677061" lon="5.911593523844921"><ele>314.0</ele><time>2026-04-18T12:21:41.999Z</time></trkpt><trkpt lat="43.51476628087764" lon="5.9115843415145015"><ele>314.0</ele><time>2026-04-18T12:21:44.999Z</time></trkpt><trkpt lat="43.514861425852565" lon="5.91156899822626"><ele>314.0</ele><time>2026-04-18T12:21:46.999Z</time></trkpt><trkpt lat="43.51495257617518" lon="5.91160570104411"><ele>314.0</ele><time>2026-04-18T12:21:48.999Z</time></trkpt><trkpt lat="43.51504340043361" lon="5.911666793494369"><ele>314.0</ele><time>2026-04-18T12:21:50.999Z</time></trkpt><trkpt lat="43.51510698855929" lon="5.911706205376724"><ele>314.0</ele><time>2026-04-18T12:21:51.999Z</time></trkpt><trkpt lat="43.51517792915923" lon="5.911722441376998"><ele>313.6666666666667</ele><time>2026-04-18T12:21:53.999Z</time></trkpt><trkpt lat="43.5152643782579" lon="5.91176048812931"><ele>313.33333333333337</ele><time>2026-04-18T12:21:55.999Z</time></trkpt><trkpt lat="43.51532345595063" lon="5.911811445633437"><ele>313.0</ele><time>2026-04-18T12:21:58.999Z</time></trkpt><trkpt lat="43.5153454317047" lon="5.9119005043122845"><ele>312.6666666666667</ele><time>2026-04-18T12:22:00.999Z</time></trkpt><trkpt lat="43.51535521055715" lon="5.911996964693813"><ele>312.3333333333333</ele><time>2026-04-18T12:22:03.999Z</time></trkpt><trkpt lat="43.51536263498654" lon="5.912128387605383"><ele>312.0</ele><time>2026-04-18T12:22:05.999Z</time></trkpt><trkpt lat="43.51535488995793" lon="5.912274247211023"><ele>312.0</ele><time>2026-04-18T12:22:07.999Z</time></trkpt><trkpt lat="43.51537459912484" lon="5.912387164641619"><ele>312.0</ele><time>2026-04-18T12:22:09.999Z</time></trkpt><trkpt lat="43.5153568967423" lon="5.912485598931081"><ele>312.0</ele><time>2026-04-18T12:22:11.999Z</time></trkpt><trkpt lat="43.51527108953443" lon="5.912549693355187"><ele>312.0</ele><time>2026-04-18T12:22:13.999Z</time></trkpt><trkpt lat="43.51519760076253" lon="5.912515730611622"><ele>312.0</ele><time>2026-04-18T12:22:15.999Z</time></trkpt><trkpt lat="43.51510539173544" lon="5.912602055237874"><ele>312.0</ele><time>2026-04-18T12:22:17.999Z</time></trkpt><trkpt lat="43.51501154451963" lon="5.91267661740105"><ele>314.4</ele><time>2026-04-18T12:22:20Z</time></trkpt><trkpt lat="43.51490437012024" lon="5.912759014844903"><ele>316.79999999999995</ele><time>2026-04-18T12:22:22Z</time></trkpt><trkpt lat="43.51483171826789" lon="5.912758262986691"><ele>319.2</ele><time>2026-04-18T12:22:23Z</time></trkpt><trkpt lat="43.51474106435505" lon="5.91276065197943"><ele>321.59999999999997</ele><time>2026-04-18T12:22:25Z</time></trkpt><trkpt lat="43.51467324051207" lon="5.912860490459293"><ele>324.0</ele><time>2026-04-18T12:22:28Z</time></trkpt><trkpt lat="43.51459503707361" lon="5.912921413861071"><ele>321.8</ele><time>2026-04-18T12:22:30Z</time></trkpt><trkpt lat="43.51454242267132" lon="5.912984683121495"><ele>319.59999999999997</ele><time>2026-04-18T12:22:31Z</time></trkpt><trkpt lat="43.51447311637827" lon="5.913088196449465"><ele>317.4</ele><time>2026-04-18T12:22:33Z</time></trkpt><trkpt lat="43.51439853839726" lon="5.9130822133302825"><ele>315.2</ele><time>2026-04-18T12:22:35Z</time></trkpt><trkpt lat="43.514305020849775" lon="5.913117524688584"><ele>313.0</ele><time>2026-04-18T12:22:41Z</time></trkpt><trkpt lat="43.5141932134199" lon="5.91315920473563"><ele>313.0</ele><time>2026-04-18T12:22:44Z</time></trkpt><trkpt lat="43.5141114511364" lon="5.913166324018555"><ele>313.0</ele><time>2026-04-18T12:22:46Z</time></trkpt><trkpt lat="43.513993131206114" lon="5.91322215071437"><ele>313.0</ele><time>2026-04-18T12:22:48Z</time></trkpt><trkpt lat="43.513923298765256" lon="5.913219245576551"><ele>313.0</ele><time>2026-04-18T12:22:50Z</time></trkpt><trkpt lat="43.513837803488066" lon="5.913235761082392"><ele>313.0</ele><time>2026-04-18T12:22:53Z</time></trkpt><trkpt lat="43.51373331256996" lon="5.913294020452532"><ele>313.0</ele><time>2026-04-18T12:22:55Z</time></trkpt><trkpt lat="43.5136721236599" lon="5.913404939503163"><ele>313.0</ele><time>2026-04-18T12:22:57Z</time></trkpt><trkpt lat="43.51365429834676" lon="5.913547970835448"><ele>313.0</ele><time>2026-04-18T12:22:59Z</time></trkpt><trkpt lat="43.51364849816871" lon="5.913644782008284"><ele>313.0</ele><time>2026-04-18T12:23:00.999Z</time></trkpt><trkpt lat="43.51363040330857" lon="5.913752240264549"><ele>313.0</ele><time>2026-04-18T12:23:02.999Z</time></trkpt><trkpt lat="43.51360147051683" lon="5.913880401051613"><ele>313.0</ele><time>2026-04-18T12:23:05.999Z</time></trkpt><trkpt lat="43.51358445410174" lon="5.913974057400314"><ele>313.0</ele><time>2026-04-18T12:23:06.999Z</time></trkpt><trkpt lat="43.513614552701526" lon="5.914076430941379"><ele>313.0</ele><time>2026-04-18T12:23:08.999Z</time></trkpt><trkpt lat="43.5136878046653" lon="5.9142421096951185"><ele>313.0</ele><time>2026-04-18T12:23:10.999Z</time></trkpt><trkpt lat="43.513732445249616" lon="5.914323826983697"><ele>313.0</ele><time>2026-04-18T12:23:11.999Z</time></trkpt><trkpt lat="43.51373941130179" lon="5.914427448876062"><ele>313.0</ele><time>2026-04-18T12:23:13.999Z</time></trkpt><trkpt lat="43.51369996034577" lon="5.91454128347372"><ele>313.8</ele><time>2026-04-18T12:23:14.999Z</time></trkpt><trkpt lat="43.513696914026426" lon="5.914701976005921"><ele>314.6</ele><time>2026-04-18T12:23:16.999Z</time></trkpt><trkpt lat="43.51373254940807" lon="5.9148076859703655"><ele>315.4</ele><time>2026-04-18T12:23:17.999Z</time></trkpt><trkpt lat="43.513757119716395" lon="5.914918062831331"><ele>316.2</ele><time>2026-04-18T12:23:18.999Z</time></trkpt><trkpt lat="43.51376953731573" lon="5.915006987515776"><ele>317.0</ele><time>2026-04-18T12:23:19.999Z</time></trkpt><trkpt lat="43.5137782751299" lon="5.91516893880446"><ele>315.6666666666667</ele><time>2026-04-18T12:23:21.999Z</time></trkpt><trkpt lat="43.51379207189697" lon="5.915254915491404"><ele>314.33333333333337</ele><time>2026-04-18T12:23:22.999Z</time></trkpt><trkpt lat="43.51382476613473" lon="5.915394309368558"><ele>313.0</ele><time>2026-04-18T12:23:24.999Z</time></trkpt><trkpt lat="43.513877420610136" lon="5.915453878760256"><ele>311.6666666666667</ele><time>2026-04-18T12:23:26.999Z</time></trkpt><trkpt lat="43.513906174063585" lon="5.915592556776772"><ele>310.3333333333333</ele><time>2026-04-18T12:23:28.999Z</time></trkpt><trkpt lat="43.51395696732217" lon="5.915662439459427"><ele>309.0</ele><time>2026-04-18T12:23:29.999Z</time></trkpt><trkpt lat="43.513972164492415" lon="5.915792586669627"><ele>309.0</ele><time>2026-04-18T12:23:32.999Z</time></trkpt><trkpt lat="43.51398246455925" lon="5.915894189308652"><ele>309.0</ele><time>2026-04-18T12:23:34.999Z</time></trkpt><trkpt lat="43.514038961666316" lon="5.915957811572699"><ele>309.0</ele><time>2026-04-18T12:23:36.999Z</time></trkpt><trkpt lat="43.514032631513025" lon="5.9160527886537935"><ele>309.0</ele><time>2026-04-18T12:23:38.999Z</time></trkpt><trkpt lat="43.51405022738019" lon="5.916160297651275"><ele>309.0</ele><time>2026-04-18T12:23:46.999Z</time></trkpt><trkpt lat="43.51409465559704" lon="5.9163501139375025"><ele>309.0</ele><time>2026-04-18T12:23:51.999Z</time></trkpt><trkpt lat="43.51411863955516" lon="5.916444377658965"><ele>309.0</ele><time>2026-04-18T12:23:53.999Z</time></trkpt><trkpt lat="43.5141426628751" lon="5.916532412017986"><ele>309.0</ele><time>2026-04-18T12:23:56.999Z</time></trkpt><trkpt lat="43.51421372327689" lon="5.916676374833478"><ele>309.0</ele><time>2026-04-18T12:24:03.999Z</time></trkpt><trkpt lat="43.51425267554458" lon="5.916810232732099"><ele>309.0</ele><time>2026-04-18T12:24:04.999Z</time></trkpt><trkpt lat="43.514294489126094" lon="5.916987800702368"><ele>309.0</ele><time>2026-04-18T12:24:05.999Z</time></trkpt><trkpt lat="43.51435811316833" lon="5.917190130729645"><ele>310.0</ele><time>2026-04-18T12:24:06.999Z</time></trkpt><trkpt lat="43.51441694134521" lon="5.91736530711967"><ele>311.0</ele><time>2026-04-18T12:24:07.999Z</time></trkpt><trkpt lat="43.514464251287166" lon="5.917510556361409"><ele>312.0</ele><time>2026-04-18T12:24:08.999Z</time></trkpt><trkpt lat="43.514513270294735" lon="5.917628635248841"><ele>313.0</ele><time>2026-04-18T12:24:09.999Z</time></trkpt><trkpt lat="43.514542809428924" lon="5.91773469297514"><ele>314.0</ele><time>2026-04-18T12:24:10.999Z</time></trkpt><trkpt lat="43.51458287116718" lon="5.9178763695156675"><ele>312.5</ele><time>2026-04-18T12:24:12.999Z</time></trkpt><trkpt lat="43.51461887943251" lon="5.9179537998648275"><ele>311.0</ele><time>2026-04-18T12:24:27Z</time></trkpt><trkpt lat="43.51466181084743" lon="5.9180206324788305"><ele>309.5</ele><time>2026-04-18T12:24:35Z</time></trkpt><trkpt lat="43.5146664942036" lon="5.918156128171302"><ele>308.0</ele><time>2026-04-18T12:24:40Z</time></trkpt><trkpt lat="43.51472461043063" lon="5.9182679108086935"><ele>306.5</ele><time>2026-04-18T12:24:47Z</time></trkpt><trkpt lat="43.51478235675532" lon="5.91839218787791"><ele>305.0</ele><time>2026-04-18T12:24:49Z</time></trkpt><trkpt lat="43.514830946078746" lon="5.918451684360642"><ele>305.0</ele><time>2026-04-18T12:24:51Z</time></trkpt><trkpt lat="43.514885645508734" lon="5.918519456425997"><ele>305.0</ele><time>2026-04-18T12:24:54Z</time></trkpt><trkpt lat="43.51497698904052" lon="5.918586446629065"><ele>305.0</ele><time>2026-04-18T12:24:57Z</time></trkpt><trkpt lat="43.51505462193906" lon="5.918631600834166"><ele>305.0</ele><time>2026-04-18T12:24:59Z</time></trkpt><trkpt lat="43.51508198950549" lon="5.918739631308237"><ele>305.0</ele><time>2026-04-18T12:25:03.999Z</time></trkpt><trkpt lat="43.515086084056286" lon="5.918834583764892"><ele>305.0</ele><time>2026-04-18T12:25:05.999Z</time></trkpt><trkpt lat="43.51506235387857" lon="5.918931142630777"><ele>305.0</ele><time>2026-04-18T12:25:08.999Z</time></trkpt><trkpt lat="43.515037368775296" lon="5.919033002789466"><ele>305.0</ele><time>2026-04-18T12:25:11.999Z</time></trkpt><trkpt lat="43.515057013095934" lon="5.919149615620299"><ele>305.0</ele><time>2026-04-18T12:25:13.999Z</time></trkpt><trkpt lat="43.515003654028064" lon="5.919256487858793"><ele>305.0</ele><time>2026-04-18T12:25:16.999Z</time></trkpt><trkpt lat="43.514977626803834" lon="5.919365765621917"><ele>305.0</ele><time>2026-04-18T12:25:21.999Z</time></trkpt><trkpt lat="43.51494762543951" lon="5.9194428724060755"><ele>305.0</ele><time>2026-04-18T12:25:23.999Z</time></trkpt><trkpt lat="43.51489149191881" lon="5.9194856569778125"><ele>304.83333333333337</ele><time>2026-04-18T12:25:24.999Z</time></trkpt><trkpt lat="43.51484235479618" lon="5.91954137594062"><ele>304.6666666666667</ele><time>2026-04-18T12:25:26.999Z</time></trkpt><trkpt lat="43.51483217492774" lon="5.919667085538251"><ele>304.5</ele><time>2026-04-18T12:25:29.999Z</time></trkpt><trkpt lat="43.51489314571717" lon="5.919705091405095"><ele>304.3333333333333</ele><time>2026-04-18T12:25:35.999Z</time></trkpt><trkpt lat="43.514917611287416" lon="5.9198310293955485"><ele>304.16666666666663</ele><time>2026-04-18T12:25:43.999Z</time></trkpt><trkpt lat="43.514939793495785" lon="5.91996591479576"><ele>304.0</ele><time>2026-04-18T12:25:45.999Z</time></trkpt><trkpt lat="43.51497415450455" lon="5.92007874115311"><ele>304.0</ele><time>2026-04-18T12:25:47.999Z</time></trkpt><trkpt lat="43.51495253622989" lon="5.920193869348569"><ele>304.0</ele><time>2026-04-18T12:25:50.999Z</time></trkpt><trkpt lat="43.514929079520115" lon="5.920331171110566"><ele>304.0</ele><time>2026-04-18T12:25:52.999Z</time></trkpt><trkpt lat="43.51493994856127" lon="5.920424238691516"><ele>304.0</ele><time>2026-04-18T12:25:54.999Z</time></trkpt><trkpt lat="43.51494598992612" lon="5.920526186032521"><ele>304.0</ele><time>2026-04-18T12:25:58.999Z</time></trkpt><trkpt lat="43.51494313991407" lon="5.92074164283159"><ele>304.0</ele><time>2026-04-18T12:26:00.999Z</time></trkpt><trkpt lat="43.51494974446336" lon="5.920847203617827"><ele>304.0</ele><time>2026-04-18T12:26:03.999Z</time></trkpt><trkpt lat="43.514918319162824" lon="5.920943852823421"><ele>304.0</ele><time>2026-04-18T12:26:06.999Z</time></trkpt><trkpt lat="43.51491228739036" lon="5.9210542487584465"><ele>304.0</ele><time>2026-04-18T12:26:09.999Z</time></trkpt><trkpt lat="43.514930945687865" lon="5.921140220332957"><ele>304.0</ele><time>2026-04-18T12:26:13.999Z</time></trkpt><trkpt lat="43.51494114483167" lon="5.9212413826420365"><ele>304.0</ele><time>2026-04-18T12:26:15.999Z</time></trkpt><trkpt lat="43.51497378978455" lon="5.921327859325367"><ele>304.0</ele><time>2026-04-18T12:26:16.999Z</time></trkpt><trkpt lat="43.51501643663291" lon="5.9214353733832334"><ele>304.16666666666663</ele><time>2026-04-18T12:26:18.999Z</time></trkpt><trkpt lat="43.515052258839255" lon="5.921556543982086"><ele>304.3333333333333</ele><time>2026-04-18T12:26:20.999Z</time></trkpt><trkpt lat="43.51509444378862" lon="5.921623366999834"><ele>304.5</ele><time>2026-04-18T12:26:21.999Z</time></trkpt><trkpt lat="43.51514505957372" lon="5.921706337395935"><ele>304.6666666666667</ele><time>2026-04-18T12:26:23.999Z</time></trkpt><trkpt lat="43.515184671195364" lon="5.9217858801849586"><ele>304.83333333333337</ele><time>2026-04-18T12:26:25.999Z</time></trkpt><trkpt lat="43.515245324950826" lon="5.921871861330428"><ele>305.0</ele><time>2026-04-18T12:26:26.999Z</time></trkpt><trkpt lat="43.515288092481306" lon="5.92196302184782"><ele>304.6666666666667</ele><time>2026-04-18T12:26:29Z</time></trkpt><trkpt lat="43.51531204739751" lon="5.922075953344554"><ele>304.33333333333337</ele><time>2026-04-18T12:26:31Z</time></trkpt><trkpt lat="43.5153322580312" lon="5.922168579827606"><ele>304.0</ele><time>2026-04-18T12:26:32Z</time></trkpt><trkpt lat="43.515348249557796" lon="5.922284848562696"><ele>303.6666666666667</ele><time>2026-04-18T12:26:33Z</time></trkpt><trkpt lat="43.515343968561645" lon="5.922407588717842"><ele>303.3333333333333</ele><time>2026-04-18T12:26:34Z</time></trkpt><trkpt lat="43.515298364916525" lon="5.922477109251208"><ele>303.0</ele><time>2026-04-18T12:26:38Z</time></trkpt><trkpt lat="43.51518604489885" lon="5.922440060275503"><ele>303.0</ele><time>2026-04-18T12:26:41Z</time></trkpt><trkpt lat="43.515093487101154" lon="5.9224276291668385"><ele>303.0</ele><time>2026-04-18T12:26:42Z</time></trkpt><trkpt lat="43.51500354136336" lon="5.922398713110518"><ele>303.0</ele><time>2026-04-18T12:26:43Z</time></trkpt><trkpt lat="43.514884948017006" lon="5.922348829708283"><ele>303.0</ele><time>2026-04-18T12:26:44Z</time></trkpt><trkpt lat="43.514788353179334" lon="5.922293137093632"><ele>303.0</ele><time>2026-04-18T12:26:45Z</time></trkpt><trkpt lat="43.514697562753625" lon="5.922256208065423"><ele>303.0</ele><time>2026-04-18T12:26:46Z</time></trkpt><trkpt lat="43.5145940357853" lon="5.922211558329493"><ele>303.0</ele><time>2026-04-18T12:26:47Z</time></trkpt><trkpt lat="43.51450275937005" lon="5.9221533819254475"><ele>303.0</ele><time>2026-04-18T12:26:48Z</time></trkpt><trkpt lat="43.51443421403331" lon="5.922100603850346"><ele>303.0</ele><time>2026-04-18T12:26:49Z</time></trkpt><trkpt lat="43.51436438620067" lon="5.922122129865273"><ele>303.0</ele><time>2026-04-18T12:26:51Z</time></trkpt><trkpt lat="43.51433546830772" lon="5.922222721060329"><ele>303.0</ele><time>2026-04-18T12:26:53Z</time></trkpt><trkpt lat="43.51435793041708" lon="5.922352039191567"><ele>303.0</ele><time>2026-04-18T12:26:55Z</time></trkpt><trkpt lat="43.514358488027405" lon="5.92247469440585"><ele>303.0</ele><time>2026-04-18T12:26:57Z</time></trkpt><trkpt lat="43.51434418848959" lon="5.922586944621279"><ele>303.0</ele><time>2026-04-18T12:26:58.999Z</time></trkpt><trkpt lat="43.51433430129237" lon="5.922692927291626"><ele>303.0</ele><time>2026-04-18T12:27:00.999Z</time></trkpt><trkpt lat="43.51432965435823" lon="5.92277962225686"><ele>303.0</ele><time>2026-04-18T12:27:02.999Z</time></trkpt><trkpt lat="43.514338826786535" lon="5.922875001559585"><ele>303.0</ele><time>2026-04-18T12:27:05.999Z</time></trkpt><trkpt lat="43.51433944030133" lon="5.922722330379189"><ele>303.0</ele><time>2026-04-18T12:27:13.999Z</time></trkpt><trkpt lat="43.51433687953965" lon="5.922605347510134"><ele>303.0</ele><time>2026-04-18T12:27:14.999Z</time></trkpt><trkpt lat="43.514342342624246" lon="5.922475460871824"><ele>303.0</ele><time>2026-04-18T12:27:15.999Z</time></trkpt><trkpt lat="43.51435934721688" lon="5.922383551812483"><ele>303.0</ele><time>2026-04-18T12:27:16.999Z</time></trkpt><trkpt lat="43.51436722201822" lon="5.9222311241901044"><ele>303.0</ele><time>2026-04-18T12:27:18.999Z</time></trkpt><trkpt lat="43.51435511368297" lon="5.922136797310979"><ele>303.0</ele><time>2026-04-18T12:27:20.999Z</time></trkpt><trkpt lat="43.51441790389237" lon="5.922121823376382"><ele>303.0</ele><time>2026-04-18T12:27:24.999Z</time></trkpt><trkpt lat="43.514477784300674" lon="5.922154122193918"><ele>303.0</ele><time>2026-04-18T12:27:26.999Z</time></trkpt><trkpt lat="43.514537859112416" lon="5.922181869853695"><ele>303.0</ele><time>2026-04-18T12:27:27.999Z</time></trkpt><trkpt lat="43.51462628694318" lon="5.922226108645396"><ele>303.0</ele><time>2026-04-18T12:27:28.999Z</time></trkpt><trkpt lat="43.51471243833162" lon="5.922262839500252"><ele>303.0</ele><time>2026-04-18T12:27:29.999Z</time></trkpt><trkpt lat="43.51479762841297" lon="5.922300600782471"><ele>303.0</ele><time>2026-04-18T12:27:30.999Z</time></trkpt><trkpt lat="43.51487290918334" lon="5.922339157065909"><ele>303.0</ele><time>2026-04-18T12:27:31.999Z</time></trkpt><trkpt lat="43.51495768624512" lon="5.92237129010545"><ele>303.0</ele><time>2026-04-18T12:27:32.999Z</time></trkpt><trkpt lat="43.51504317136159" lon="5.9224018789956165"><ele>303.0</ele><time>2026-04-18T12:27:33.999Z</time></trkpt><trkpt lat="43.5151271328165" lon="5.922450237148208"><ele>303.0</ele><time>2026-04-18T12:27:34.999Z</time></trkpt><trkpt lat="43.51519954430857" lon="5.922480053609067"><ele>303.0</ele><time>2026-04-18T12:27:35.999Z</time></trkpt><trkpt lat="43.515261650007076" lon="5.922501225847367"><ele>303.0</ele><time>2026-04-18T12:27:37.999Z</time></trkpt><trkpt lat="43.515186565218585" lon="5.922455000706152"><ele>303.0</ele><time>2026-04-18T12:35:37Z</time></trkpt><trkpt lat="43.515125308284404" lon="5.922433232704583"><ele>303.0</ele><time>2026-04-18T12:35:38Z</time></trkpt><trkpt lat="43.515053152934165" lon="5.922402348544633"><ele>303.0</ele><time>2026-04-18T12:35:39Z</time></trkpt><trkpt lat="43.51495869045482" lon="5.92235966702247"><ele>303.0</ele><time>2026-04-18T12:35:40Z</time></trkpt><trkpt lat="43.514864282637056" lon="5.922324774502041"><ele>303.0</ele><time>2026-04-18T12:35:41Z</time></trkpt><trkpt lat="43.51477014085914" lon="5.922288935714116"><ele>303.0</ele><time>2026-04-18T12:35:42Z</time></trkpt><trkpt lat="43.51467558566951" lon="5.922246430936967"><ele>303.0</ele><time>2026-04-18T12:35:43Z</time></trkpt><trkpt lat="43.514596006502074" lon="5.922206709556489"><ele>303.0</ele><time>2026-04-18T12:35:44Z</time></trkpt><trkpt lat="43.514523218566666" lon="5.922156028630808"><ele>303.0</ele><time>2026-04-18T12:35:45Z</time></trkpt><trkpt lat="43.514468158950436" lon="5.9221121141179"><ele>303.0</ele><time>2026-04-18T12:35:46Z</time></trkpt><trkpt lat="43.51439186207624" lon="5.922120710530371"><ele>303.0</ele><time>2026-04-18T12:35:48Z</time></trkpt><trkpt lat="43.51435564957554" lon="5.922213525643465"><ele>303.0</ele><time>2026-04-18T12:35:50Z</time></trkpt><trkpt lat="43.51437673536018" lon="5.922351962818388"><ele>303.0</ele><time>2026-04-18T12:35:52Z</time></trkpt><trkpt lat="43.5143761721506" lon="5.922460326927174"><ele>303.0</ele><time>2026-04-18T12:35:53Z</time></trkpt><trkpt lat="43.51437007042522" lon="5.922596511450382"><ele>303.0</ele><time>2026-04-18T12:35:54Z</time></trkpt><trkpt lat="43.51435026785087" lon="5.922754311675127"><ele>303.0</ele><time>2026-04-18T12:35:55Z</time></trkpt><trkpt lat="43.514338333993" lon="5.922924065768557"><ele>303.0</ele><time>2026-04-18T12:35:56Z</time></trkpt><trkpt lat="43.5143350692711" lon="5.923104066373552"><ele>303.0</ele><time>2026-04-18T12:35:57Z</time></trkpt><trkpt lat="43.51433073778087" lon="5.923287148222139"><ele>303.0</ele><time>2026-04-18T12:35:58Z</time></trkpt><trkpt lat="43.51432148954491" lon="5.923433581718533"><ele>303.0</ele><time>2026-04-18T12:35:59Z</time></trkpt><trkpt lat="43.51430658954931" lon="5.92356930761917"><ele>303.0</ele><time>2026-04-18T12:36:00Z</time></trkpt><trkpt lat="43.514318079498395" lon="5.923745082510969"><ele>302.5</ele><time>2026-04-18T12:36:01Z</time></trkpt><trkpt lat="43.5143556732863" lon="5.923903754032684"><ele>302.0</ele><time>2026-04-18T12:36:02Z</time></trkpt><trkpt lat="43.51441730890169" lon="5.924052414786966"><ele>301.5</ele><time>2026-04-18T12:36:03Z</time></trkpt><trkpt lat="43.5145016442382" lon="5.92423133324293"><ele>301.0</ele><time>2026-04-18T12:36:04Z</time></trkpt><trkpt lat="43.514581016308355" lon="5.924432505505757"><ele>300.0</ele><time>2026-04-18T12:36:05Z</time></trkpt><trkpt lat="43.51467705772608" lon="5.92464033773292"><ele>299.0</ele><time>2026-04-18T12:36:06Z</time></trkpt><trkpt lat="43.514758093358736" lon="5.924818428140704"><ele>298.0</ele><time>2026-04-18T12:36:07Z</time></trkpt><trkpt lat="43.51485780828956" lon="5.92496145059105"><ele>298.25</ele><time>2026-04-18T12:36:08Z</time></trkpt><trkpt lat="43.514969429773764" lon="5.9251222726635175"><ele>298.5</ele><time>2026-04-18T12:36:09Z</time></trkpt><trkpt lat="43.51506644151471" lon="5.925281612467518"><ele>298.75</ele><time>2026-04-18T12:36:10Z</time></trkpt><trkpt lat="43.515146088662945" lon="5.9254197571782"><ele>299.0</ele><time>2026-04-18T12:36:11Z</time></trkpt><trkpt lat="43.51523825079606" lon="5.925547472292175"><ele>299.0</ele><time>2026-04-18T12:36:12Z</time></trkpt><trkpt lat="43.51534638183262" lon="5.9256729399981065"><ele>299.0</ele><time>2026-04-18T12:36:13Z</time></trkpt><trkpt lat="43.515461224880085" lon="5.925791379438489"><ele>299.0</ele><time>2026-04-18T12:36:14Z</time></trkpt><trkpt lat="43.515563133822404" lon="5.925895180719846"><ele>299.0</ele><time>2026-04-18T12:36:15Z</time></trkpt><trkpt lat="43.515658244821026" lon="5.925985944061943"><ele>299.25</ele><time>2026-04-18T12:36:16Z</time></trkpt><trkpt lat="43.515750527853854" lon="5.926093360348276"><ele>299.5</ele><time>2026-04-18T12:36:17Z</time></trkpt><trkpt lat="43.51584852545818" lon="5.926219949583017"><ele>299.75</ele><time>2026-04-18T12:36:18Z</time></trkpt><trkpt lat="43.51593822206495" lon="5.926331927751987"><ele>300.0</ele><time>2026-04-18T12:36:19Z</time></trkpt><trkpt lat="43.51601935490837" lon="5.926424850552357"><ele>300.0</ele><time>2026-04-18T12:36:20Z</time></trkpt><trkpt lat="43.516094508708335" lon="5.926514078134335"><ele>300.0</ele><time>2026-04-18T12:36:21Z</time></trkpt><trkpt lat="43.51616540323957" lon="5.926595557648247"><ele>300.0</ele><time>2026-04-18T12:36:22Z</time></trkpt><trkpt lat="43.51623214793135" lon="5.926664022695497"><ele>300.0</ele><time>2026-04-18T12:36:23Z</time></trkpt><trkpt lat="43.51630939030305" lon="5.926720134914975"><ele>300.0</ele><time>2026-04-18T12:36:24Z</time></trkpt><trkpt lat="43.51640040948084" lon="5.926753062721454"><ele>299.4</ele><time>2026-04-18T12:36:25Z</time></trkpt><trkpt lat="43.516491465951894" lon="5.926767859070064"><ele>298.8</ele><time>2026-04-18T12:36:26Z</time></trkpt><trkpt lat="43.516576758416356" lon="5.926774174297234"><ele>298.2</ele><time>2026-04-18T12:36:27Z</time></trkpt><trkpt lat="43.51666172452851" lon="5.9267831444499715"><ele>297.6</ele><time>2026-04-18T12:36:28Z</time></trkpt><trkpt lat="43.516743987223606" lon="5.926812471534558"><ele>297.0</ele><time>2026-04-18T12:36:29Z</time></trkpt><trkpt lat="43.51684886882989" lon="5.926844177970603"><ele>297.0</ele><time>2026-04-18T12:36:30Z</time></trkpt><trkpt lat="43.51696637458574" lon="5.926885071507922"><ele>297.0</ele><time>2026-04-18T12:36:31Z</time></trkpt><trkpt lat="43.517089422845245" lon="5.926918607198547"><ele>297.0</ele><time>2026-04-18T12:36:32Z</time></trkpt><trkpt lat="43.517220730092035" lon="5.926960687189241"><ele>297.0</ele><time>2026-04-18T12:36:33Z</time></trkpt><trkpt lat="43.51735379381165" lon="5.9269995850889226"><ele>296.2</ele><time>2026-04-18T12:36:34Z</time></trkpt><trkpt lat="43.51747284502564" lon="5.927021406139083"><ele>295.4</ele><time>2026-04-18T12:36:35Z</time></trkpt><trkpt lat="43.51757737014254" lon="5.927044776544623"><ele>294.6</ele><time>2026-04-18T12:36:36Z</time></trkpt><trkpt lat="43.517682383863935" lon="5.927082474739079"><ele>293.8</ele><time>2026-04-18T12:36:37Z</time></trkpt><trkpt lat="43.51778105574223" lon="5.927129431395825"><ele>293.0</ele><time>2026-04-18T12:36:38Z</time></trkpt><trkpt lat="43.51789265327513" lon="5.927216693795959"><ele>291.5</ele><time>2026-04-18T12:36:39Z</time></trkpt><trkpt lat="43.518029264056906" lon="5.927310942584951"><ele>290.0</ele><time>2026-04-18T12:36:40Z</time></trkpt><trkpt lat="43.51815827769968" lon="5.9274021223906335"><ele>288.5</ele><time>2026-04-18T12:36:41Z</time></trkpt><trkpt lat="43.518273909286734" lon="5.927469859115039"><ele>287.0</ele><time>2026-04-18T12:36:42Z</time></trkpt><trkpt lat="43.51838210878447" lon="5.927539169870045"><ele>287.25</ele><time>2026-04-18T12:36:43Z</time></trkpt><trkpt lat="43.518496089829206" lon="5.92761216215953"><ele>287.5</ele><time>2026-04-18T12:36:44Z</time></trkpt><trkpt lat="43.51860059463044" lon="5.927702743495435"><ele>287.75</ele><time>2026-04-18T12:36:45Z</time></trkpt><trkpt lat="43.518689066910106" lon="5.927796508338743"><ele>288.0</ele><time>2026-04-18T12:36:46Z</time></trkpt><trkpt lat="43.51876102076847" lon="5.927882992145854"><ele>287.0</ele><time>2026-04-18T12:36:47Z</time></trkpt><trkpt lat="43.518817451493966" lon="5.9279518829533115"><ele>286.0</ele><time>2026-04-18T12:36:48Z</time></trkpt><trkpt lat="43.51889360513973" lon="5.928020801045235"><ele>285.0</ele><time>2026-04-18T12:36:50Z</time></trkpt><trkpt lat="43.518965784719" lon="5.927944617110265"><ele>284.0</ele><time>2026-04-18T12:36:53.999Z</time></trkpt><trkpt lat="43.51902492194808" lon="5.9277858701251125"><ele>283.0</ele><time>2026-04-18T12:36:55.999Z</time></trkpt><trkpt lat="43.519054390225286" lon="5.92768020428905"><ele>283.0</ele><time>2026-04-18T12:36:56.999Z</time></trkpt><trkpt lat="43.519146839954516" lon="5.927571122429206"><ele>283.0</ele><time>2026-04-18T12:36:59Z</time></trkpt><trkpt lat="43.51922501085365" lon="5.927505120039766"><ele>283.0</ele><time>2026-04-18T12:37:01Z</time></trkpt><trkpt lat="43.519302668370266" lon="5.927469745335577"><ele>283.0</ele><time>2026-04-18T12:37:02Z</time></trkpt><trkpt lat="43.51939387211596" lon="5.9274616899057175"><ele>283.0</ele><time>2026-04-18T12:37:03Z</time></trkpt><trkpt lat="43.51952739619148" lon="5.92746088558188"><ele>282.25</ele><time>2026-04-18T12:37:04Z</time></trkpt><trkpt lat="43.51964962908092" lon="5.927455000999498"><ele>281.5</ele><time>2026-04-18T12:37:05Z</time></trkpt><trkpt lat="43.519795310865106" lon="5.92743955332327"><ele>280.75</ele><time>2026-04-18T12:37:06Z</time></trkpt><trkpt lat="43.51994278393658" lon="5.927429666852685"><ele>280.0</ele><time>2026-04-18T12:37:07Z</time></trkpt><trkpt lat="43.52010829023863" lon="5.927423761019248"><ele>280.0</ele><time>2026-04-18T12:37:08Z</time></trkpt><trkpt lat="43.52028319279813" lon="5.927407079644253"><ele>280.0</ele><time>2026-04-18T12:37:09Z</time></trkpt><trkpt lat="43.52044370365538" lon="5.927388778491205"><ele>280.0</ele><time>2026-04-18T12:37:10Z</time></trkpt><trkpt lat="43.52059476818548" lon="5.927373359556032"><ele>281.0</ele><time>2026-04-18T12:37:11Z</time></trkpt><trkpt lat="43.520727600634366" lon="5.927358303452049"><ele>282.0</ele><time>2026-04-18T12:37:12Z</time></trkpt><trkpt lat="43.52084622140798" lon="5.927342282317381"><ele>283.0</ele><time>2026-04-18T12:37:13Z</time></trkpt><trkpt lat="43.52095367883761" lon="5.927327014026073"><ele>284.0</ele><time>2026-04-18T12:37:14Z</time></trkpt><trkpt lat="43.521059235840006" lon="5.927311354528918"><ele>284.0</ele><time>2026-04-18T12:37:15Z</time></trkpt><trkpt lat="43.52115662140594" lon="5.92729635488672"><ele>284.0</ele><time>2026-04-18T12:37:16Z</time></trkpt><trkpt lat="43.521247758133384" lon="5.927250264575325"><ele>284.0</ele><time>2026-04-18T12:37:17Z</time></trkpt><trkpt lat="43.5213300724361" lon="5.927178218508667"><ele>284.0</ele><time>2026-04-18T12:37:18Z</time></trkpt><trkpt lat="43.52140077614765" lon="5.927130529801645"><ele>284.0</ele><time>2026-04-18T12:37:19Z</time></trkpt><trkpt lat="43.5214763399357" lon="5.927075382949436"><ele>285.0</ele><time>2026-04-18T12:37:20Z</time></trkpt><trkpt lat="43.521568891376305" lon="5.927041395820529"><ele>286.0</ele><time>2026-04-18T12:37:21Z</time></trkpt><trkpt lat="43.52168324352838" lon="5.927041429613153"><ele>287.0</ele><time>2026-04-18T12:37:22Z</time></trkpt><trkpt lat="43.521804476222314" lon="5.9270667349964175"><ele>288.0</ele><time>2026-04-18T12:37:23Z</time></trkpt><trkpt lat="43.52191389102338" lon="5.927096979020954"><ele>289.0</ele><time>2026-04-18T12:37:24Z</time></trkpt><trkpt lat="43.52200524346932" lon="5.927100837398816"><ele>290.0</ele><time>2026-04-18T12:37:25Z</time></trkpt><trkpt lat="43.52208458108032" lon="5.927101947103164"><ele>291.0</ele><time>2026-04-18T12:37:26Z</time></trkpt><trkpt lat="43.52217558229552" lon="5.927105828971859"><ele>292.0</ele><time>2026-04-18T12:37:27Z</time></trkpt><trkpt lat="43.52227885574532" lon="5.9270824682531185"><ele>293.0</ele><time>2026-04-18T12:37:28Z</time></trkpt><trkpt lat="43.522378835935044" lon="5.927066181584337"><ele>294.0</ele><time>2026-04-18T12:37:29Z</time></trkpt><trkpt lat="43.52246278084804" lon="5.927058346737512"><ele>294.0</ele><time>2026-04-18T12:37:30Z</time></trkpt><trkpt lat="43.52256069264515" lon="5.927058192940993"><ele>294.0</ele><time>2026-04-18T12:37:31Z</time></trkpt><trkpt lat="43.52266848101241" lon="5.927061807624635"><ele>294.0</ele><time>2026-04-18T12:37:32Z</time></trkpt><trkpt lat="43.52275953768753" lon="5.927064259843828"><ele>294.0</ele><time>2026-04-18T12:37:33Z</time></trkpt><trkpt lat="43.522828053972795" lon="5.927060422143846"><ele>294.0</ele><time>2026-04-18T12:37:34Z</time></trkpt><trkpt lat="43.52289225799608" lon="5.927054236943846"><ele>294.0</ele><time>2026-04-18T12:37:35Z</time></trkpt><trkpt lat="43.52298829578367" lon="5.927077670592201"><ele>294.8</ele><time>2026-04-18T12:37:37Z</time></trkpt><trkpt lat="43.52301895262864" lon="5.9271549793230305"><ele>295.59999999999997</ele><time>2026-04-18T12:37:40Z</time></trkpt><trkpt lat="43.523124301936136" lon="5.927152638662726"><ele>296.4</ele><time>2026-04-18T12:37:42Z</time></trkpt><trkpt lat="43.52321311981655" lon="5.927128127670733"><ele>297.2</ele><time>2026-04-18T12:37:43Z</time></trkpt><trkpt lat="43.523316263512875" lon="5.9271038948452155"><ele>298.0</ele><time>2026-04-18T12:37:44Z</time></trkpt><trkpt lat="43.523412435386625" lon="5.927078342715717"><ele>298.0</ele><time>2026-04-18T12:37:45Z</time></trkpt><trkpt lat="43.52352372921397" lon="5.927094270075445"><ele>298.0</ele><time>2026-04-18T12:37:46Z</time></trkpt><trkpt lat="43.523614403557644" lon="5.92710056611667"><ele>298.0</ele><time>2026-04-18T12:37:47Z</time></trkpt><trkpt lat="43.52369010507325" lon="5.927093838398116"><ele>298.0</ele><time>2026-04-18T12:37:48Z</time></trkpt><trkpt lat="43.52376170719573" lon="5.927063151115153"><ele>298.0</ele><time>2026-04-18T12:37:49Z</time></trkpt><trkpt lat="43.52383519934564" lon="5.927014295444352"><ele>298.0</ele><time>2026-04-18T12:37:50Z</time></trkpt><trkpt lat="43.523897528857965" lon="5.926927534404613"><ele>298.6</ele><time>2026-04-18T12:37:51Z</time></trkpt><trkpt lat="43.52394744403794" lon="5.926828157377455"><ele>299.20000000000005</ele><time>2026-04-18T12:37:52Z</time></trkpt><trkpt lat="43.523992388988844" lon="5.9267187532027625"><ele>299.8</ele><time>2026-04-18T12:37:53Z</time></trkpt><trkpt lat="43.5240466218226" lon="5.926592330840075"><ele>300.40000000000003</ele><time>2026-04-18T12:37:54Z</time></trkpt><trkpt lat="43.524117161153924" lon="5.926440250929607"><ele>301.0</ele><time>2026-04-18T12:37:55Z</time></trkpt><trkpt lat="43.524187221481355" lon="5.926281721297196"><ele>301.0</ele><time>2026-04-18T12:37:56Z</time></trkpt><trkpt lat="43.52424496682202" lon="5.9261478451809335"><ele>301.0</ele><time>2026-04-18T12:37:57Z</time></trkpt><trkpt lat="43.5242872612349" lon="5.926047919467077"><ele>301.0</ele><time>2026-04-18T12:37:58Z</time></trkpt><trkpt lat="43.52432706504808" lon="5.925958418310912"><ele>301.0</ele><time>2026-04-18T12:37:59Z</time></trkpt><trkpt lat="43.52437920073301" lon="5.925895575374823"><ele>301.0</ele><time>2026-04-18T12:38:00Z</time></trkpt><trkpt lat="43.52445849827119" lon="5.9258755933975555"><ele>301.0</ele><time>2026-04-18T12:38:01Z</time></trkpt><trkpt lat="43.52454687055258" lon="5.925906542715554"><ele>301.25</ele><time>2026-04-18T12:38:02Z</time></trkpt><trkpt lat="43.52463742157913" lon="5.925970988320139"><ele>301.5</ele><time>2026-04-18T12:38:03Z</time></trkpt><trkpt lat="43.52473565746539" lon="5.926044569336665"><ele>301.75</ele><time>2026-04-18T12:38:04Z</time></trkpt><trkpt lat="43.52484019081505" lon="5.926125288657371"><ele>302.0</ele><time>2026-04-18T12:38:05Z</time></trkpt><trkpt lat="43.52494733919552" lon="5.926203839244278"><ele>302.0</ele><time>2026-04-18T12:38:06Z</time></trkpt><trkpt lat="43.52504506295258" lon="5.92627127378613"><ele>302.0</ele><time>2026-04-18T12:38:07Z</time></trkpt><trkpt lat="43.52512863615717" lon="5.926328513227579"><ele>302.0</ele><time>2026-04-18T12:38:08Z</time></trkpt><trkpt lat="43.52522404273358" lon="5.92639306950679"><ele>302.0</ele><time>2026-04-18T12:38:09Z</time></trkpt><trkpt lat="43.525331386575374" lon="5.926468263927723"><ele>302.0</ele><time>2026-04-18T12:38:10Z</time></trkpt><trkpt lat="43.525453893254415" lon="5.9265537568128375"><ele>302.0</ele><time>2026-04-18T12:38:11Z</time></trkpt><trkpt lat="43.525565176221946" lon="5.926640756905281"><ele>302.0</ele><time>2026-04-18T12:38:12Z</time></trkpt><trkpt lat="43.5256762405816" lon="5.926719838144801"><ele>302.0</ele><time>2026-04-18T12:38:13Z</time></trkpt><trkpt lat="43.52579403936733" lon="5.9268017770402"><ele>302.0</ele><time>2026-04-18T12:38:14Z</time></trkpt><trkpt lat="43.52590222926092" lon="5.926874201412276"><ele>302.0</ele><time>2026-04-18T12:38:15Z</time></trkpt><trkpt lat="43.52600236097918" lon="5.926931596371185"><ele>302.0</ele><time>2026-04-18T12:38:16Z</time></trkpt><trkpt lat="43.52610906350472" lon="5.926992765320383"><ele>302.0</ele><time>2026-04-18T12:38:17Z</time></trkpt><trkpt lat="43.5262175100717" lon="5.927051159969048"><ele>302.0</ele><time>2026-04-18T12:38:18Z</time></trkpt><trkpt lat="43.52631794824235" lon="5.9270947311611755"><ele>302.0</ele><time>2026-04-18T12:38:19Z</time></trkpt><trkpt lat="43.52641536927987" lon="5.927130444912602"><ele>302.4</ele><time>2026-04-18T12:38:20Z</time></trkpt><trkpt lat="43.52650950528505" lon="5.927175395586213"><ele>302.79999999999995</ele><time>2026-04-18T12:38:21Z</time></trkpt><trkpt lat="43.526603780157735" lon="5.927224731687697"><ele>303.2</ele><time>2026-04-18T12:38:22Z</time></trkpt><trkpt lat="43.52670786883373" lon="5.927278273608672"><ele>303.59999999999997</ele><time>2026-04-18T12:38:23Z</time></trkpt><trkpt lat="43.526820776796924" lon="5.9273210178563165"><ele>304.0</ele><time>2026-04-18T12:38:24Z</time></trkpt><trkpt lat="43.52693912648816" lon="5.927372202826671"><ele>304.25</ele><time>2026-04-18T12:38:25Z</time></trkpt><trkpt lat="43.527066821489385" lon="5.927449968215705"><ele>304.5</ele><time>2026-04-18T12:38:26Z</time></trkpt><trkpt lat="43.527204047879486" lon="5.927530615322124"><ele>304.75</ele><time>2026-04-18T12:38:27Z</time></trkpt><trkpt lat="43.52734827051784" lon="5.927609556860557"><ele>305.0</ele><time>2026-04-18T12:38:28Z</time></trkpt><trkpt lat="43.527498149198294" lon="5.927689513269479"><ele>304.0</ele><time>2026-04-18T12:38:29Z</time></trkpt><trkpt lat="43.527640592289536" lon="5.927761558813019"><ele>303.0</ele><time>2026-04-18T12:38:30Z</time></trkpt><trkpt lat="43.52776731461044" lon="5.927820703149374"><ele>302.0</ele><time>2026-04-18T12:38:31Z</time></trkpt><trkpt lat="43.527887521289585" lon="5.92788163815458"><ele>301.0</ele><time>2026-04-18T12:38:32Z</time></trkpt><trkpt lat="43.528000848239465" lon="5.927940350258769"><ele>300.5</ele><time>2026-04-18T12:38:33Z</time></trkpt><trkpt lat="43.528113082407266" lon="5.927995809307123"><ele>300.0</ele><time>2026-04-18T12:38:34Z</time></trkpt><trkpt lat="43.5282385700491" lon="5.928038253798184"><ele>299.5</ele><time>2026-04-18T12:38:35Z</time></trkpt><trkpt lat="43.5283388810757" lon="5.928111936606441"><ele>299.0</ele><time>2026-04-18T12:38:36Z</time></trkpt><trkpt lat="43.528446226607436" lon="5.928162747306506"><ele>299.0</ele><time>2026-04-18T12:38:37Z</time></trkpt><trkpt lat="43.52851731242492" lon="5.928202925187667"><ele>299.0</ele><time>2026-04-18T12:38:38Z</time></trkpt><trkpt lat="43.528592659674864" lon="5.928244440767192"><ele>299.0</ele><time>2026-04-18T12:38:39Z</time></trkpt><trkpt lat="43.528672015440556" lon="5.928289588890607"><ele>299.0</ele><time>2026-04-18T12:38:40Z</time></trkpt><trkpt lat="43.528773858476214" lon="5.928341524771902"><ele>299.0</ele><time>2026-04-18T12:38:41Z</time></trkpt><trkpt lat="43.52889103648092" lon="5.928388631909391"><ele>299.5</ele><time>2026-04-18T12:38:42Z</time></trkpt><trkpt lat="43.529003823158746" lon="5.928463474816564"><ele>300.0</ele><time>2026-04-18T12:38:43Z</time></trkpt><trkpt lat="43.52915144780288" lon="5.9285342558478185"><ele>300.5</ele><time>2026-04-18T12:38:44Z</time></trkpt><trkpt lat="43.5292985615024" lon="5.928621364899868"><ele>301.0</ele><time>2026-04-18T12:38:44.999Z</time></trkpt><trkpt lat="43.52945236674324" lon="5.928708956671863"><ele>301.75</ele><time>2026-04-18T12:38:45.999Z</time></trkpt><trkpt lat="43.52960555828986" lon="5.928788684927082"><ele>302.5</ele><time>2026-04-18T12:38:46.999Z</time></trkpt><trkpt lat="43.529735598180544" lon="5.928856150775772"><ele>303.25</ele><time>2026-04-18T12:38:47.999Z</time></trkpt><trkpt lat="43.52984617320298" lon="5.928922171093643"><ele>304.0</ele><time>2026-04-18T12:38:48.999Z</time></trkpt><trkpt lat="43.52994085419904" lon="5.928973684598832"><ele>304.0</ele><time>2026-04-18T12:38:49.999Z</time></trkpt><trkpt lat="43.53001551137137" lon="5.929014067743819"><ele>304.0</ele><time>2026-04-18T12:38:50.999Z</time></trkpt><trkpt lat="43.530131439352274" lon="5.928986697840672"><ele>304.0</ele><time>2026-04-18T12:38:52.999Z</time></trkpt><trkpt lat="43.5301838011268" lon="5.92883471816973"><ele>304.0</ele><time>2026-04-18T12:38:54.999Z</time></trkpt><trkpt lat="43.53018902727841" lon="5.928713772045279"><ele>304.0</ele><time>2026-04-18T12:38:55.999Z</time></trkpt><trkpt lat="43.530201419725636" lon="5.928589843088448"><ele>304.0</ele><time>2026-04-18T12:38:56.999Z</time></trkpt><trkpt lat="43.53022738809917" lon="5.928480445030508"><ele>304.0</ele><time>2026-04-18T12:38:57.999Z</time></trkpt><trkpt lat="43.53025414162584" lon="5.928400900802775"><ele>304.0</ele><time>2026-04-18T12:38:58.999Z</time></trkpt><trkpt lat="43.53027888203512" lon="5.928318412746473"><ele>304.0</ele><time>2026-04-18T12:38:59.999Z</time></trkpt><trkpt lat="43.53033641579917" lon="5.928170289158279"><ele>304.0</ele><time>2026-04-18T12:39:01.999Z</time></trkpt><trkpt lat="43.53043315318161" lon="5.9281053813409335"><ele>304.0</ele><time>2026-04-18T12:39:04Z</time></trkpt><trkpt lat="43.53050572924772" lon="5.928117025651724"><ele>306.0</ele><time>2026-04-18T12:39:05Z</time></trkpt><trkpt lat="43.53058626494828" lon="5.9281592671775325"><ele>308.0</ele><time>2026-04-18T12:39:06Z</time></trkpt><trkpt lat="43.53068235127254" lon="5.92820063514944"><ele>310.0</ele><time>2026-04-18T12:39:07Z</time></trkpt><trkpt lat="43.53078179292005" lon="5.928206584194674"><ele>312.0</ele><time>2026-04-18T12:39:08Z</time></trkpt><trkpt lat="43.53087300050678" lon="5.928216156092728"><ele>314.0</ele><time>2026-04-18T12:39:09Z</time></trkpt><trkpt lat="43.53094604549595" lon="5.928217507855369"><ele>313.99999999999994</ele><time>2026-04-18T12:39:10Z</time></trkpt><trkpt lat="43.53102029624696" lon="5.928222526612304"><ele>314.0</ele><time>2026-04-18T12:39:11Z</time></trkpt><trkpt lat="43.531082496866745" lon="5.928255455546708"><ele>314.0</ele><time>2026-04-18T12:39:12Z</time></trkpt><trkpt lat="43.53113880000755" lon="5.928317310177878"><ele>314.0</ele><time>2026-04-18T12:39:13Z</time></trkpt><trkpt lat="43.5311994288862" lon="5.928382182641043"><ele>314.0</ele><time>2026-04-18T12:39:14Z</time></trkpt><trkpt lat="43.53127104234619" lon="5.928436420114114"><ele>313.99999999999994</ele><time>2026-04-18T12:39:15Z</time></trkpt><trkpt lat="43.531330006255224" lon="5.928481901694128"><ele>314.0</ele><time>2026-04-18T12:39:16Z</time></trkpt><trkpt lat="43.53137903351405" lon="5.928555131884255"><ele>315.6</ele><time>2026-04-18T12:39:17Z</time></trkpt><trkpt lat="43.53143290313844" lon="5.928648972520619"><ele>317.2</ele><time>2026-04-18T12:39:18Z</time></trkpt><trkpt lat="43.53147344971698" lon="5.9287373924555755"><ele>318.8</ele><time>2026-04-18T12:39:19Z</time></trkpt><trkpt lat="43.531512430811574" lon="5.928845505862383"><ele>320.40000000000003</ele><time>2026-04-18T12:39:20Z</time></trkpt><trkpt lat="43.53155834864337" lon="5.928973538054271"><ele>322.0</ele><time>2026-04-18T12:39:21Z</time></trkpt><trkpt lat="43.53162644735076" lon="5.929153455117494"><ele>321.0</ele><time>2026-04-18T12:39:22Z</time></trkpt><trkpt lat="43.53171519573847" lon="5.929360329798585"><ele>320.0</ele><time>2026-04-18T12:39:23Z</time></trkpt><trkpt lat="43.53177590066431" lon="5.9295197500761425"><ele>319.0</ele><time>2026-04-18T12:39:24Z</time></trkpt><trkpt lat="43.531799634748545" lon="5.929620169137449"><ele>318.0</ele><time>2026-04-18T12:39:25Z</time></trkpt><trkpt lat="43.5317895510761" lon="5.929722130453215"><ele>318.0</ele><time>2026-04-18T12:39:26Z</time></trkpt><trkpt lat="43.531773973656634" lon="5.929812062124975"><ele>318.0</ele><time>2026-04-18T12:39:27Z</time></trkpt><trkpt lat="43.531788397486494" lon="5.929939714093765"><ele>318.0</ele><time>2026-04-18T12:39:29Z</time></trkpt><trkpt lat="43.53180876314091" lon="5.930055999969763"><ele>318.0</ele><time>2026-04-18T12:39:31Z</time></trkpt><trkpt lat="43.5318063817767" lon="5.93016258659817"><ele>318.0</ele><time>2026-04-18T12:39:32Z</time></trkpt><trkpt lat="43.53179190851178" lon="5.930256424786075"><ele>318.0</ele><time>2026-04-18T12:39:33Z</time></trkpt><trkpt lat="43.53178776325539" lon="5.9304193341673646"><ele>318.0</ele><time>2026-04-18T12:39:35Z</time></trkpt><trkpt lat="43.531830753410766" lon="5.930564554733297"><ele>318.0</ele><time>2026-04-18T12:39:37Z</time></trkpt><trkpt lat="43.53190810708658" lon="5.930690821534834"><ele>318.0</ele><time>2026-04-18T12:39:39Z</time></trkpt><trkpt lat="43.53196869029905" lon="5.930765953647692"><ele>318.0</ele><time>2026-04-18T12:39:40Z</time></trkpt><trkpt lat="43.532044446318125" lon="5.930835429741595"><ele>318.0</ele><time>2026-04-18T12:39:41Z</time></trkpt><trkpt lat="43.532116578402146" lon="5.930882075493461"><ele>318.0</ele><time>2026-04-18T12:39:42Z</time></trkpt><trkpt lat="43.532176228690076" lon="5.930913458871317"><ele>318.0</ele><time>2026-04-18T12:39:43Z</time></trkpt><trkpt lat="43.532262167254785" lon="5.930948023736446"><ele>318.0</ele><time>2026-04-18T12:39:45Z</time></trkpt><trkpt lat="43.532316140052274" lon="5.930896932561929"><ele>318.0</ele><time>2026-04-18T12:39:47Z</time></trkpt><trkpt lat="43.53236679708572" lon="5.930817710321186"><ele>318.0</ele><time>2026-04-18T12:42:30Z</time></trkpt><trkpt lat="43.532408089032124" lon="5.930710715225473"><ele>318.0</ele><time>2026-04-18T12:42:33Z</time></trkpt><trkpt lat="43.532415799424086" lon="5.93061012275088"><ele>318.0</ele><time>2026-04-18T12:42:34Z</time></trkpt><trkpt lat="43.532426386207945" lon="5.930502711981041"><ele>318.0</ele><time>2026-04-18T12:42:35Z</time></trkpt><trkpt lat="43.532440770311375" lon="5.930390245578624"><ele>318.0</ele><time>2026-04-18T12:42:36Z</time></trkpt><trkpt lat="43.53244954407678" lon="5.9303012771869055"><ele>318.0</ele><time>2026-04-18T12:42:37Z</time></trkpt><trkpt lat="43.53246012986574" lon="5.930186362829"><ele>318.0</ele><time>2026-04-18T12:42:38Z</time></trkpt><trkpt lat="43.53250677362838" lon="5.929999940483803"><ele>319.4</ele><time>2026-04-18T12:42:40Z</time></trkpt><trkpt lat="43.532525184176805" lon="5.929898892771102"><ele>320.8</ele><time>2026-04-18T12:42:40.999Z</time></trkpt><trkpt lat="43.53258382492312" lon="5.929714845344968"><ele>322.2</ele><time>2026-04-18T12:42:42.999Z</time></trkpt><trkpt lat="43.53262180492592" lon="5.929627868302536"><ele>323.6</ele><time>2026-04-18T12:42:43.999Z</time></trkpt><trkpt lat="43.532658522327445" lon="5.929471638701524"><ele>325.0</ele><time>2026-04-18T12:42:45.999Z</time></trkpt><trkpt lat="43.532706012092035" lon="5.929409806927483"><ele>325.0</ele><time>2026-04-18T12:42:47.999Z</time></trkpt><trkpt lat="43.53278439287881" lon="5.929359429920464"><ele>325.0</ele><time>2026-04-18T12:42:49.999Z</time></trkpt><trkpt lat="43.53284967835978" lon="5.929333509061178"><ele>325.0</ele><time>2026-04-18T12:42:50.999Z</time></trkpt><trkpt lat="43.53291515243946" lon="5.929288485063463"><ele>325.0</ele><time>2026-04-18T12:42:51.999Z</time></trkpt><trkpt lat="43.53296652903403" lon="5.92923559285213"><ele>325.0</ele><time>2026-04-18T12:42:52.999Z</time></trkpt><trkpt lat="43.53306678812038" lon="5.9291738960312665"><ele>325.0</ele><time>2026-04-18T12:42:54.999Z</time></trkpt><trkpt lat="43.53312722326976" lon="5.929138397586867"><ele>326.8</ele><time>2026-04-18T12:42:58.999Z</time></trkpt><trkpt lat="43.53316845388032" lon="5.929054488342213"><ele>328.6</ele><time>2026-04-18T12:43:01.999Z</time></trkpt><trkpt lat="43.53316629064349" lon="5.928945872254829"><ele>330.4</ele><time>2026-04-18T12:43:03.999Z</time></trkpt><trkpt lat="43.53315731931996" lon="5.928785199354385"><ele>332.2</ele><time>2026-04-18T12:43:05.999Z</time></trkpt><trkpt lat="43.533166217217605" lon="5.928689731532932"><ele>334.0</ele><time>2026-04-18T12:43:06.999Z</time></trkpt><trkpt lat="43.53317740369571" lon="5.9285316602797575"><ele>334.6</ele><time>2026-04-18T12:43:08.999Z</time></trkpt><trkpt lat="43.533179608759205" lon="5.928359612376657"><ele>335.2</ele><time>2026-04-18T12:43:10.999Z</time></trkpt><trkpt lat="43.533202568746994" lon="5.928233012085883"><ele>335.8</ele><time>2026-04-18T12:43:11.999Z</time></trkpt><trkpt lat="43.53321879965159" lon="5.928105875659322"><ele>336.40000000000003</ele><time>2026-04-18T12:43:12.999Z</time></trkpt><trkpt lat="43.53323797615264" lon="5.928008546831806"><ele>337.0</ele><time>2026-04-18T12:43:13.999Z</time></trkpt><trkpt lat="43.533268075387895" lon="5.92791319288409"><ele>337.0</ele><time>2026-04-18T12:43:14.999Z</time></trkpt><trkpt lat="43.53329976049345" lon="5.927817526301725"><ele>337.0</ele><time>2026-04-18T12:43:16Z</time></trkpt><trkpt lat="43.53332058313139" lon="5.927733403993019"><ele>337.0</ele><time>2026-04-18T12:43:17Z</time></trkpt><trkpt lat="43.533380246939636" lon="5.92761091813105"><ele>337.0</ele><time>2026-04-18T12:43:19Z</time></trkpt><trkpt lat="43.53343542663071" lon="5.92754357778001"><ele>337.0</ele><time>2026-04-18T12:43:20Z</time></trkpt><trkpt lat="43.53349223925901" lon="5.927471003387073"><ele>337.0</ele><time>2026-04-18T12:43:21Z</time></trkpt><trkpt lat="43.53355059605802" lon="5.927414320543394"><ele>338.5</ele><time>2026-04-18T12:43:22Z</time></trkpt><trkpt lat="43.5336082499627" lon="5.927354491612756"><ele>340.0</ele><time>2026-04-18T12:43:23Z</time></trkpt><trkpt lat="43.53367715586416" lon="5.927234318010838"><ele>341.5</ele><time>2026-04-18T12:43:25Z</time></trkpt><trkpt lat="43.533749157534075" lon="5.9271140883111615"><ele>343.0</ele><time>2026-04-18T12:43:27Z</time></trkpt><trkpt lat="43.533777301462905" lon="5.927015173901105"><ele>344.5</ele><time>2026-04-18T12:43:28Z</time></trkpt><trkpt lat="43.533806112420415" lon="5.926933707088622"><ele>346.0</ele><time>2026-04-18T12:43:29Z</time></trkpt><trkpt lat="43.53382115268274" lon="5.926811403460621"><ele>347.20000000000005</ele><time>2026-04-18T12:43:31Z</time></trkpt><trkpt lat="43.53383933864775" lon="5.926728257388773"><ele>348.40000000000003</ele><time>2026-04-18T12:43:32Z</time></trkpt><trkpt lat="43.533913810285846" lon="5.926658091721463"><ele>349.6</ele><time>2026-04-18T12:43:40Z</time></trkpt><trkpt lat="43.5339679007426" lon="5.926582685011052"><ele>350.8</ele><time>2026-04-18T12:43:42Z</time></trkpt><trkpt lat="43.53409949657002" lon="5.926514766890867"><ele>352.0</ele><time>2026-04-18T12:43:43Z</time></trkpt><trkpt lat="43.53422091906661" lon="5.926450354365892"><ele>352.0</ele><time>2026-04-18T12:43:44Z</time></trkpt><trkpt lat="43.53431189581745" lon="5.926388337592942"><ele>352.0</ele><time>2026-04-18T12:43:45Z</time></trkpt><trkpt lat="43.53438591027879" lon="5.9263146398423565"><ele>352.0</ele><time>2026-04-18T12:43:46Z</time></trkpt><trkpt lat="43.53444027682966" lon="5.926256350646701"><ele>352.0</ele><time>2026-04-18T12:43:47Z</time></trkpt><trkpt lat="43.53449260243305" lon="5.926195970282452"><ele>352.0</ele><time>2026-04-18T12:43:49Z</time></trkpt><trkpt lat="43.53454528768061" lon="5.926074882304405"><ele>352.0</ele><time>2026-04-18T12:43:52Z</time></trkpt><trkpt lat="43.53455673369495" lon="5.925911594658092"><ele>353.0</ele><time>2026-04-18T12:43:54Z</time></trkpt><trkpt lat="43.53458373646335" lon="5.925762878288213"><ele>354.0</ele><time>2026-04-18T12:43:56Z</time></trkpt><trkpt lat="43.534612193919735" lon="5.925643703459013"><ele>355.0</ele><time>2026-04-18T12:43:57Z</time></trkpt><trkpt lat="43.53466559735584" lon="5.925576130809698"><ele>356.0</ele><time>2026-04-18T12:43:59Z</time></trkpt><trkpt lat="43.53483116785063" lon="5.9255562460047475"><ele>357.0</ele><time>2026-04-18T12:44:02Z</time></trkpt><trkpt lat="43.53489074656556" lon="5.925592651443053"><ele>357.0</ele><time>2026-04-18T12:44:03Z</time></trkpt><trkpt lat="43.534963038292695" lon="5.925598254140123"><ele>357.0</ele><time>2026-04-18T12:44:05Z</time></trkpt><trkpt lat="43.535031982212104" lon="5.925593356715757"><ele>357.0</ele><time>2026-04-18T12:44:07Z</time></trkpt><trkpt lat="43.53513287710402" lon="5.9255189453626205"><ele>357.0</ele><time>2026-04-18T12:44:10Z</time></trkpt><trkpt lat="43.53519216323985" lon="5.925479171933292"><ele>357.0</ele><time>2026-04-18T12:44:11Z</time></trkpt><trkpt lat="43.53527070017597" lon="5.925397374554256"><ele>357.0</ele><time>2026-04-18T12:44:13Z</time></trkpt><trkpt lat="43.53534397358179" lon="5.925265750045712"><ele>357.0</ele><time>2026-04-18T12:44:15Z</time></trkpt><trkpt lat="43.535377406717764" lon="5.9251769685599065"><ele>357.0</ele><time>2026-04-18T12:44:16Z</time></trkpt><trkpt lat="43.53541594969721" lon="5.925057902452758"><ele>357.0</ele><time>2026-04-18T12:44:17Z</time></trkpt><trkpt lat="43.53545121535607" lon="5.924940397332262"><ele>357.0</ele><time>2026-04-18T12:44:18Z</time></trkpt><trkpt lat="43.5354662347272" lon="5.924851148460147"><ele>357.0</ele><time>2026-04-18T12:44:19Z</time></trkpt><trkpt lat="43.53549034058918" lon="5.924761104921829"><ele>357.0</ele><time>2026-04-18T12:44:20Z</time></trkpt><trkpt lat="43.53551407933716" lon="5.92464210416078"><ele>358.8333333333333</ele><time>2026-04-18T12:44:22Z</time></trkpt><trkpt lat="43.535579670953645" lon="5.92460728576255"><ele>360.6666666666667</ele><time>2026-04-18T12:44:24Z</time></trkpt><trkpt lat="43.5357012121984" lon="5.924585785724135"><ele>362.5</ele><time>2026-04-18T12:44:26Z</time></trkpt><trkpt lat="43.535778280850245" lon="5.924560526461432"><ele>364.33333333333337</ele><time>2026-04-18T12:44:27Z</time></trkpt><trkpt lat="43.5358431136886" lon="5.9245453312706156"><ele>366.1666666666667</ele><time>2026-04-18T12:44:28Z</time></trkpt><trkpt lat="43.53592847962934" lon="5.92450103805577"><ele>368.0</ele><time>2026-04-18T12:44:30Z</time></trkpt><trkpt lat="43.53601105868177" lon="5.924486679599463"><ele>368.0</ele><time>2026-04-18T12:44:32Z</time></trkpt><trkpt lat="43.53608580391853" lon="5.924461881657651"><ele>368.0</ele><time>2026-04-18T12:44:35Z</time></trkpt><trkpt lat="43.53614946419133" lon="5.924387772831109"><ele>368.0</ele><time>2026-04-18T12:44:49.999Z</time></trkpt><trkpt lat="43.53619980942841" lon="5.924334441094082"><ele>368.0</ele><time>2026-04-18T12:46:56.999Z</time></trkpt><trkpt lat="43.53624920195647" lon="5.924272100012693"><ele>368.0</ele><time>2026-04-18T12:46:58.999Z</time></trkpt><trkpt lat="43.5362907473141" lon="5.924175251707927"><ele>368.0</ele><time>2026-04-18T12:46:59.999Z</time></trkpt><trkpt lat="43.536365451860746" lon="5.924006528990684"><ele>370.2</ele><time>2026-04-18T12:47:01.999Z</time></trkpt><trkpt lat="43.53640493419798" lon="5.923911835007301"><ele>372.4</ele><time>2026-04-18T12:47:02.999Z</time></trkpt><trkpt lat="43.536457552320165" lon="5.923790036369851"><ele>374.59999999999997</ele><time>2026-04-18T12:47:04.999Z</time></trkpt><trkpt lat="43.53652459632709" lon="5.923627709720744"><ele>376.79999999999995</ele><time>2026-04-18T12:47:06.999Z</time></trkpt><trkpt lat="43.53656591744149" lon="5.923544855969532"><ele>379.0</ele><time>2026-04-18T12:47:07.999Z</time></trkpt><trkpt lat="43.536631344854875" lon="5.9234229555941855"><ele>378.8333333333333</ele><time>2026-04-18T12:47:09.999Z</time></trkpt><trkpt lat="43.53672085577069" lon="5.92333875375349"><ele>378.66666666666663</ele><time>2026-04-18T12:47:11.999Z</time></trkpt><trkpt lat="43.53677771391581" lon="5.923282555618996"><ele>378.5</ele><time>2026-04-18T12:47:12.999Z</time></trkpt><trkpt lat="43.53683351911667" lon="5.923233843461553"><ele>378.3333333333333</ele><time>2026-04-18T12:47:13.999Z</time></trkpt><trkpt lat="43.536884641165265" lon="5.923165583670839"><ele>378.1666666666667</ele><time>2026-04-18T12:47:14.999Z</time></trkpt><trkpt lat="43.53693351957888" lon="5.923102952201965"><ele>378.0</ele><time>2026-04-18T12:47:16.999Z</time></trkpt><trkpt lat="43.536977487491576" lon="5.923025684981903"><ele>378.0</ele><time>2026-04-18T12:47:19.999Z</time></trkpt><trkpt lat="43.53693884004754" lon="5.922865068361174"><ele>378.0</ele><time>2026-04-18T12:47:21.999Z</time></trkpt><trkpt lat="43.53696984790664" lon="5.922751309868373"><ele>378.0</ele><time>2026-04-18T12:47:22.999Z</time></trkpt><trkpt lat="43.537012630847606" lon="5.92264487314488"><ele>378.0</ele><time>2026-04-18T12:47:24.999Z</time></trkpt><trkpt lat="43.537065968692076" lon="5.9225717321947"><ele>378.0</ele><time>2026-04-18T12:47:25.999Z</time></trkpt><trkpt lat="43.53713712384651" lon="5.922448262070995"><ele>379.0</ele><time>2026-04-18T12:47:28Z</time></trkpt><trkpt lat="43.537263280482016" lon="5.922287780598998"><ele>380.0</ele><time>2026-04-18T12:47:30Z</time></trkpt><trkpt lat="43.537321761532596" lon="5.922222377966231"><ele>381.0</ele><time>2026-04-18T12:47:31Z</time></trkpt><trkpt lat="43.53741284892227" lon="5.922196378264633"><ele>382.0</ele><time>2026-04-18T12:47:32Z</time></trkpt><trkpt lat="43.537479886685254" lon="5.922088204477806"><ele>383.0</ele><time>2026-04-18T12:47:34Z</time></trkpt><trkpt lat="43.53757428424507" lon="5.921955797031642"><ele>383.0</ele><time>2026-04-18T12:47:36Z</time></trkpt><trkpt lat="43.53763160764702" lon="5.921861652123166"><ele>383.0</ele><time>2026-04-18T12:47:37Z</time></trkpt><trkpt lat="43.537705464584555" lon="5.921789343181993"><ele>383.0</ele><time>2026-04-18T12:47:39Z</time></trkpt><trkpt lat="43.537803815984326" lon="5.92174878568533"><ele>383.0</ele><time>2026-04-18T12:47:41Z</time></trkpt><trkpt lat="43.53787372299263" lon="5.921732850544597"><ele>383.0</ele><time>2026-04-18T12:47:42Z</time></trkpt><trkpt lat="43.53798266887814" lon="5.921697129589812"><ele>383.6666666666667</ele><time>2026-04-18T12:47:44Z</time></trkpt><trkpt lat="43.538052782448744" lon="5.9217002049041945"><ele>384.33333333333337</ele><time>2026-04-18T12:47:45Z</time></trkpt><trkpt lat="43.53811727236528" lon="5.92169558511956"><ele>385.0</ele><time>2026-04-18T12:47:46Z</time></trkpt><trkpt lat="43.5381902573892" lon="5.9216610457250125"><ele>385.6666666666667</ele><time>2026-04-18T12:47:48Z</time></trkpt><trkpt lat="43.53827702741575" lon="5.921647561487371"><ele>386.3333333333333</ele><time>2026-04-18T12:47:50Z</time></trkpt><trkpt lat="43.53836510276148" lon="5.9216152272049944"><ele>387.0</ele><time>2026-04-18T12:47:52Z</time></trkpt><trkpt lat="43.538429437642776" lon="5.921514620224175"><ele>387.0</ele><time>2026-04-18T12:47:54Z</time></trkpt><trkpt lat="43.538496680186846" lon="5.92148706906651"><ele>387.0</ele><time>2026-04-18T12:47:55Z</time></trkpt><trkpt lat="43.53855446481788" lon="5.921449979394818"><ele>387.0</ele><time>2026-04-18T12:47:56Z</time></trkpt><trkpt lat="43.538619898978965" lon="5.921355772091841"><ele>387.0</ele><time>2026-04-18T12:47:58Z</time></trkpt><trkpt lat="43.53868699574634" lon="5.921258960401423"><ele>387.0</ele><time>2026-04-18T12:48:00Z</time></trkpt><trkpt lat="43.53872914410648" lon="5.9211453105200755"><ele>387.0</ele><time>2026-04-18T12:48:04Z</time></trkpt><trkpt lat="43.53873777403597" lon="5.92104696760748"><ele>388.20000000000005</ele><time>2026-04-18T12:48:06Z</time></trkpt><trkpt lat="43.538695198786016" lon="5.9208979924347895"><ele>389.4</ele><time>2026-04-18T12:48:08Z</time></trkpt><trkpt lat="43.538666718599984" lon="5.920807058937885"><ele>390.6</ele><time>2026-04-18T12:48:09Z</time></trkpt><trkpt lat="43.5386527828807" lon="5.9206960302743985"><ele>391.79999999999995</ele><time>2026-04-18T12:48:11Z</time></trkpt><trkpt lat="43.53867630905592" lon="5.920593599823497"><ele>393.0</ele><time>2026-04-18T12:48:13Z</time></trkpt><trkpt lat="43.538734299897655" lon="5.920471050311777"><ele>393.4</ele><time>2026-04-18T12:48:15Z</time></trkpt><trkpt lat="43.53881370524732" lon="5.920342651113245"><ele>393.79999999999995</ele><time>2026-04-18T12:48:17Z</time></trkpt><trkpt lat="43.538857411922265" lon="5.9202530284315715"><ele>394.2</ele><time>2026-04-18T12:48:19Z</time></trkpt><trkpt lat="43.53890632045908" lon="5.920150776254737"><ele>394.6</ele><time>2026-04-18T12:48:21Z</time></trkpt><trkpt lat="43.53894343524723" lon="5.9200573221215995"><ele>395.0</ele><time>2026-04-18T12:48:23Z</time></trkpt><trkpt lat="43.538992043877954" lon="5.9199602607852375"><ele>395.49999999999994</ele><time>2026-04-18T12:48:25Z</time></trkpt><trkpt lat="43.539021527566085" lon="5.9198514265423645"><ele>396.0</ele><time>2026-04-18T12:48:27Z</time></trkpt><trkpt lat="43.53903766773854" lon="5.91976144720813"><ele>396.5</ele><time>2026-04-18T12:48:28Z</time></trkpt><trkpt lat="43.539048471599884" lon="5.919600480861456"><ele>397.0</ele><time>2026-04-18T12:48:30Z</time></trkpt><trkpt lat="43.53906670382306" lon="5.919499506985035"><ele>397.49999999999994</ele><time>2026-04-18T12:48:31Z</time></trkpt><trkpt lat="43.53908674498943" lon="5.919415926131402"><ele>398.0</ele><time>2026-04-18T12:48:32Z</time></trkpt><trkpt lat="43.53910822460433" lon="5.919309785365213"><ele>398.59999999999997</ele><time>2026-04-18T12:48:34Z</time></trkpt><trkpt lat="43.539178334232574" lon="5.919213696517898"><ele>399.2</ele><time>2026-04-18T12:48:35.999Z</time></trkpt><trkpt lat="43.539242100305316" lon="5.919122634219155"><ele>399.8</ele><time>2026-04-18T12:48:37.999Z</time></trkpt><trkpt lat="43.539298485155" lon="5.919046061585636"><ele>400.4</ele><time>2026-04-18T12:48:39.999Z</time></trkpt><trkpt lat="43.539341266029076" lon="5.91892583353024"><ele>401.0</ele><time>2026-04-18T12:48:41.999Z</time></trkpt><trkpt lat="43.53938059151366" lon="5.91880759875147"><ele>401.0</ele><time>2026-04-18T12:48:43.999Z</time></trkpt><trkpt lat="43.53938545224091" lon="5.918719583298535"><ele>401.0</ele><time>2026-04-18T12:48:45.999Z</time></trkpt><trkpt lat="43.53938534306878" lon="5.918592797310597"><ele>401.0</ele><time>2026-04-18T12:48:47.999Z</time></trkpt><trkpt lat="43.5394070368004" lon="5.918442707023798"><ele>401.0</ele><time>2026-04-18T12:48:49.999Z</time></trkpt><trkpt lat="43.539417921766955" lon="5.918329432979961"><ele>401.0</ele><time>2026-04-18T12:48:51.999Z</time></trkpt><trkpt lat="43.53942443372769" lon="5.918145191326197"><ele>401.8333333333333</ele><time>2026-04-18T12:48:53.999Z</time></trkpt><trkpt lat="43.53942004777259" lon="5.9180496398128914"><ele>402.66666666666663</ele><time>2026-04-18T12:48:54.999Z</time></trkpt><trkpt lat="43.539360305681605" lon="5.91796275067093"><ele>403.5</ele><time>2026-04-18T12:48:57.999Z</time></trkpt><trkpt lat="43.53933441567919" lon="5.917848638218539"><ele>404.33333333333337</ele><time>2026-04-18T12:48:59.999Z</time></trkpt><trkpt lat="43.5392659478017" lon="5.917758589773031"><ele>405.1666666666667</ele><time>2026-04-18T12:49:01.999Z</time></trkpt><trkpt lat="43.53923502579625" lon="5.917661497356821"><ele>406.0</ele><time>2026-04-18T12:49:03.999Z</time></trkpt><trkpt lat="43.53920883517139" lon="5.917548017509364"><ele>406.1666666666667</ele><time>2026-04-18T12:49:05.999Z</time></trkpt><trkpt lat="43.53917453993063" lon="5.917474058247346"><ele>406.33333333333337</ele><time>2026-04-18T12:49:07.999Z</time></trkpt><trkpt lat="43.53910420255652" lon="5.917411745561681"><ele>406.5</ele><time>2026-04-18T12:49:09.999Z</time></trkpt><trkpt lat="43.5390334067617" lon="5.917373527116324"><ele>406.66666666666663</ele><time>2026-04-18T12:49:12.999Z</time></trkpt><trkpt lat="43.538932175246764" lon="5.917329241540485"><ele>406.8333333333333</ele><time>2026-04-18T12:49:14.999Z</time></trkpt><trkpt lat="43.538852190183555" lon="5.917264102929594"><ele>407.0</ele><time>2026-04-18T12:49:16.999Z</time></trkpt><trkpt lat="43.538800553232306" lon="5.91720433952569"><ele>407.0</ele><time>2026-04-18T12:49:18.999Z</time></trkpt><trkpt lat="43.53874366821591" lon="5.917060917526448"><ele>407.0</ele><time>2026-04-18T12:49:20.999Z</time></trkpt><trkpt lat="43.53870727205232" lon="5.916951526559169"><ele>407.0</ele><time>2026-04-18T12:49:22.999Z</time></trkpt><trkpt lat="43.53863856624045" lon="5.916757200328881"><ele>407.0</ele><time>2026-04-18T12:49:24.999Z</time></trkpt><trkpt lat="43.53859530164636" lon="5.916673102987964"><ele>407.0</ele><time>2026-04-18T12:49:25.999Z</time></trkpt><trkpt lat="43.538564577595366" lon="5.916538406439129"><ele>409.40000000000003</ele><time>2026-04-18T12:49:27.999Z</time></trkpt><trkpt lat="43.538544645339236" lon="5.916346173212836"><ele>411.8</ele><time>2026-04-18T12:49:29.999Z</time></trkpt><trkpt lat="43.538547247350124" lon="5.916220052593502"><ele>414.2</ele><time>2026-04-18T12:49:31.999Z</time></trkpt><trkpt lat="43.5385732285068" lon="5.916133283473635"><ele>416.6</ele><time>2026-04-18T12:49:33Z</time></trkpt><trkpt lat="43.53862132227779" lon="5.916063888108262"><ele>419.0</ele><time>2026-04-18T12:49:35Z</time></trkpt><trkpt lat="43.53868884408981" lon="5.915998481954032"><ele>418.99999999999994</ele><time>2026-04-18T12:49:37Z</time></trkpt><trkpt lat="43.53875806368556" lon="5.915951988216199"><ele>419.0</ele><time>2026-04-18T12:49:38Z</time></trkpt><trkpt lat="43.53883604772669" lon="5.9159155329383095"><ele>419.0</ele><time>2026-04-18T12:49:40Z</time></trkpt><trkpt lat="43.538895217914515" lon="5.9158344004321055"><ele>419.0</ele><time>2026-04-18T12:49:42Z</time></trkpt><trkpt lat="43.53898390123479" lon="5.915782346456781"><ele>418.99999999999994</ele><time>2026-04-18T12:49:44Z</time></trkpt><trkpt lat="43.53905047060626" lon="5.915731718431593"><ele>419.0</ele><time>2026-04-18T12:49:46Z</time></trkpt><trkpt lat="43.53909305525582" lon="5.915651854617581"><ele>419.0</ele><time>2026-04-18T12:49:48Z</time></trkpt><trkpt lat="43.53913506429604" lon="5.91551725154014"><ele>419.0</ele><time>2026-04-18T12:49:50Z</time></trkpt><trkpt lat="43.53917011093276" lon="5.915444765702756"><ele>419.0</ele><time>2026-04-18T12:49:51Z</time></trkpt><trkpt lat="43.53923771675883" lon="5.9153146454089764"><ele>419.0</ele><time>2026-04-18T12:49:53Z</time></trkpt><trkpt lat="43.53926221198541" lon="5.915144100679515"><ele>419.0</ele><time>2026-04-18T12:49:55Z</time></trkpt><trkpt lat="43.539286997865915" lon="5.915055842261193"><ele>419.2857142857143</ele><time>2026-04-18T12:49:56Z</time></trkpt><trkpt lat="43.539326586746704" lon="5.914979544742799"><ele>419.57142857142856</ele><time>2026-04-18T12:49:58Z</time></trkpt><trkpt lat="43.539337636143564" lon="5.914885846603739"><ele>419.8571428571429</ele><time>2026-04-18T12:50:00Z</time></trkpt><trkpt lat="43.53935461621254" lon="5.914798134340124"><ele>420.1428571428571</ele><time>2026-04-18T12:50:02Z</time></trkpt><trkpt lat="43.539394959066826" lon="5.914728411559192"><ele>420.42857142857144</ele><time>2026-04-18T12:50:04Z</time></trkpt><trkpt lat="43.53944545223047" lon="5.914672423756528"><ele>420.7142857142857</ele><time>2026-04-18T12:50:06Z</time></trkpt><trkpt lat="43.53949623540209" lon="5.914606471590988"><ele>421.0</ele><time>2026-04-18T12:50:07Z</time></trkpt><trkpt lat="43.53955100315634" lon="5.914538930301497"><ele>421.50000000000006</ele><time>2026-04-18T12:50:08Z</time></trkpt><trkpt lat="43.53965942526744" lon="5.914437534288984"><ele>422.0</ele><time>2026-04-18T12:50:10Z</time></trkpt><trkpt lat="43.539722413566466" lon="5.9143619514264705"><ele>422.5</ele><time>2026-04-18T12:50:12Z</time></trkpt><trkpt lat="43.53978672076994" lon="5.9143190303477935"><ele>423.0</ele><time>2026-04-18T12:50:13Z</time></trkpt><trkpt lat="43.539854084664036" lon="5.914268218848043"><ele>423.50000000000006</ele><time>2026-04-18T12:50:14Z</time></trkpt><trkpt lat="43.53990933959186" lon="5.914200400315932"><ele>424.0</ele><time>2026-04-18T12:50:15Z</time></trkpt><trkpt lat="43.539969087623426" lon="5.9141584084647345"><ele>424.00000000000006</ele><time>2026-04-18T12:50:16Z</time></trkpt><trkpt lat="43.54004599286487" lon="5.914105670434737"><ele>424.0</ele><time>2026-04-18T12:50:18Z</time></trkpt><trkpt lat="43.54015425215254" lon="5.9140441083707245"><ele>424.0</ele><time>2026-04-18T12:50:20Z</time></trkpt><trkpt lat="43.540202409099514" lon="5.913980826015676"><ele>424.0</ele><time>2026-04-18T12:50:21Z</time></trkpt><trkpt lat="43.540297478463636" lon="5.913905038279491"><ele>424.00000000000006</ele><time>2026-04-18T12:50:23Z</time></trkpt><trkpt lat="43.54036278072175" lon="5.913890385720421"><ele>424.0</ele><time>2026-04-18T12:50:25Z</time></trkpt><trkpt lat="43.54040355283657" lon="5.91382283808454"><ele>424.50000000000006</ele><time>2026-04-18T12:50:27Z</time></trkpt><trkpt lat="43.54048594346413" lon="5.913796270067867"><ele>425.0</ele><time>2026-04-18T12:50:28.999Z</time></trkpt><trkpt lat="43.54056492278353" lon="5.9137373847813555"><ele>425.5</ele><time>2026-04-18T12:50:30.999Z</time></trkpt><trkpt lat="43.54062215305196" lon="5.9136789983861044"><ele>426.0</ele><time>2026-04-18T12:50:31.999Z</time></trkpt><trkpt lat="43.54067852633547" lon="5.9136295211631875"><ele>426.50000000000006</ele><time>2026-04-18T12:50:32.999Z</time></trkpt><trkpt lat="43.54074016143484" lon="5.91356150776755"><ele>427.0</ele><time>2026-04-18T12:50:34.999Z</time></trkpt><trkpt lat="43.540815926997446" lon="5.913505374583487"><ele>427.0</ele><time>2026-04-18T12:50:35.999Z</time></trkpt><trkpt lat="43.54088610938836" lon="5.913458383095799"><ele>427.00000000000006</ele><time>2026-04-18T12:50:36.999Z</time></trkpt><trkpt lat="43.54099506316339" lon="5.913396574671475"><ele>427.00000000000006</ele><time>2026-04-18T12:50:38.999Z</time></trkpt><trkpt lat="43.5410992392938" lon="5.9133563743806"><ele>427.0</ele><time>2026-04-18T12:50:40.999Z</time></trkpt><trkpt lat="43.54117266652461" lon="5.913302089406744"><ele>427.0</ele><time>2026-04-18T12:50:42.999Z</time></trkpt><trkpt lat="43.54125034185044" lon="5.913223707644122"><ele>427.50000000000006</ele><time>2026-04-18T12:50:44.999Z</time></trkpt><trkpt lat="43.541316120847824" lon="5.913196969588366"><ele>428.0</ele><time>2026-04-18T12:50:45.999Z</time></trkpt><trkpt lat="43.54141579627894" lon="5.913136383992212"><ele>428.5</ele><time>2026-04-18T12:50:47.999Z</time></trkpt><trkpt lat="43.54147113868025" lon="5.91309467189503"><ele>429.0</ele><time>2026-04-18T12:50:48.999Z</time></trkpt><trkpt lat="43.541556015351006" lon="5.913069782648868"><ele>429.50000000000006</ele><time>2026-04-18T12:50:50.999Z</time></trkpt><trkpt lat="43.54161606178648" lon="5.913018262311069"><ele>430.0</ele><time>2026-04-18T12:50:52.999Z</time></trkpt><trkpt lat="43.54167696322307" lon="5.912963157186093"><ele>430.0</ele><time>2026-04-18T12:50:55.999Z</time></trkpt><trkpt lat="43.541742045685425" lon="5.912907352367506"><ele>430.0</ele><time>2026-04-18T12:53:14.999Z</time></trkpt><trkpt lat="43.54177170687421" lon="5.912819808206211"><ele>430.0</ele><time>2026-04-18T12:58:13.999Z</time></trkpt><trkpt lat="43.54180499051331" lon="5.912728646833813"><ele>430.0</ele><time>2026-04-18T12:58:14.999Z</time></trkpt><trkpt lat="43.54188309138761" lon="5.912607116807978"><ele>430.0</ele><time>2026-04-18T12:58:15.999Z</time></trkpt><trkpt lat="43.54197100599274" lon="5.912477102503399"><ele>430.2</ele><time>2026-04-18T12:58:16.999Z</time></trkpt><trkpt lat="43.542029621318235" lon="5.91237900949295"><ele>430.4</ele><time>2026-04-18T12:58:17.999Z</time></trkpt><trkpt lat="43.542077407802566" lon="5.912274990267432"><ele>430.6</ele><time>2026-04-18T12:58:18.999Z</time></trkpt><trkpt lat="43.542115965163205" lon="5.91214933466265"><ele>430.8</ele><time>2026-04-18T12:58:19.999Z</time></trkpt><trkpt lat="43.54218659214345" lon="5.91204943042999"><ele>431.0</ele><time>2026-04-18T12:58:20.999Z</time></trkpt><trkpt lat="43.54222516804112" lon="5.911954974182594"><ele>432.20000000000005</ele><time>2026-04-18T12:58:21.999Z</time></trkpt><trkpt lat="43.54227181585871" lon="5.911865559972954"><ele>433.40000000000003</ele><time>2026-04-18T12:58:22.999Z</time></trkpt><trkpt lat="43.54230171158075" lon="5.9117485022609095"><ele>434.6</ele><time>2026-04-18T12:58:23.999Z</time></trkpt><trkpt lat="43.54235890151082" lon="5.911650915409617"><ele>435.8</ele><time>2026-04-18T12:58:24.999Z</time></trkpt><trkpt lat="43.542407384835876" lon="5.911560305815705"><ele>437.0</ele><time>2026-04-18T12:58:25.999Z</time></trkpt><trkpt lat="43.54248734644172" lon="5.911405136773233"><ele>437.0</ele><time>2026-04-18T12:58:27.999Z</time></trkpt><trkpt lat="43.54252758168177" lon="5.9113239940254445"><ele>437.00000000000006</ele><time>2026-04-18T12:58:28.999Z</time></trkpt><trkpt lat="43.54257009329799" lon="5.911227008413028"><ele>437.00000000000006</ele><time>2026-04-18T12:58:29.999Z</time></trkpt><trkpt lat="43.54262933349399" lon="5.911040194007747"><ele>437.0</ele><time>2026-04-18T12:58:30.999Z</time></trkpt><trkpt lat="43.54266975151823" lon="5.910877586550862"><ele>437.0</ele><time>2026-04-18T12:58:31.999Z</time></trkpt><trkpt lat="43.54269726168749" lon="5.9107805185388465"><ele>438.5</ele><time>2026-04-18T12:58:32.999Z</time></trkpt><trkpt lat="43.54272417989857" lon="5.9106532565513925"><ele>440.0</ele><time>2026-04-18T12:58:33.999Z</time></trkpt><trkpt lat="43.54310713099053" lon="5.910694184613331"><ele>440.25</ele><time>2026-04-18T12:58:34.999Z</time></trkpt><trkpt lat="43.54315795098871" lon="5.910551645973651"><ele>440.5</ele><time>2026-04-18T12:58:35.999Z</time></trkpt><trkpt lat="43.543209317264605" lon="5.9104197415896484"><ele>440.75</ele><time>2026-04-18T12:58:36.999Z</time></trkpt><trkpt lat="43.54328418926217" lon="5.910290209850855"><ele>441.0</ele><time>2026-04-18T12:58:37.999Z</time></trkpt><trkpt lat="43.54282595334223" lon="5.909861223933691"><ele>442.0</ele><time>2026-04-18T12:58:38.999Z</time></trkpt><trkpt lat="43.543456315612325" lon="5.910019457462061"><ele>442.0</ele><time>2026-04-18T12:58:39.999Z</time></trkpt><trkpt lat="43.54357078600904" lon="5.909839767418265"><ele>442.0</ele><time>2026-04-18T12:58:40.999Z</time></trkpt><trkpt lat="43.54364733241545" lon="5.909656660558188"><ele>442.0</ele><time>2026-04-18T12:58:41.999Z</time></trkpt><trkpt lat="43.54372489391762" lon="5.909432776074262"><ele>442.25</ele><time>2026-04-18T12:58:42.999Z</time></trkpt><trkpt lat="43.54379334248948" lon="5.909226504514979"><ele>442.5</ele><time>2026-04-18T12:58:43.999Z</time></trkpt><trkpt lat="43.54385676872664" lon="5.909048581579436"><ele>442.75</ele><time>2026-04-18T12:58:44.999Z</time></trkpt><trkpt lat="43.54391801747414" lon="5.908930128704805"><ele>443.0</ele><time>2026-04-18T12:58:45.999Z</time></trkpt><trkpt lat="43.543973554961326" lon="5.908854618006709"><ele>443.0</ele><time>2026-04-18T12:58:46.999Z</time></trkpt><trkpt lat="43.544036816123935" lon="5.9087455375381985"><ele>442.99999999999994</ele><time>2026-04-18T12:58:47.999Z</time></trkpt><trkpt lat="43.54409298373009" lon="5.908637063358806"><ele>442.99999999999994</ele><time>2026-04-18T12:58:48.999Z</time></trkpt><trkpt lat="43.54410715649169" lon="5.908519649681799"><ele>443.0</ele><time>2026-04-18T12:58:49.999Z</time></trkpt><trkpt lat="43.544165169837235" lon="5.908392409601239"><ele>443.0</ele><time>2026-04-18T12:58:51.999Z</time></trkpt><trkpt lat="43.544269107744995" lon="5.908327741172596"><ele>443.25</ele><time>2026-04-18T12:58:53.999Z</time></trkpt><trkpt lat="43.544362059261" lon="5.908305974069055"><ele>443.5</ele><time>2026-04-18T12:58:54.999Z</time></trkpt><trkpt lat="43.54447936258789" lon="5.908255646070811"><ele>443.75</ele><time>2026-04-18T12:58:55.999Z</time></trkpt><trkpt lat="43.54466394237066" lon="5.908197087800191"><ele>444.0</ele><time>2026-04-18T12:58:56.999Z</time></trkpt><trkpt lat="43.54479832670703" lon="5.908146920236237"><ele>443.5</ele><time>2026-04-18T12:58:57.999Z</time></trkpt><trkpt lat="43.54492843357498" lon="5.908109563049344"><ele>443.0</ele><time>2026-04-18T12:58:58.999Z</time></trkpt><trkpt lat="43.545033837125445" lon="5.908075361529492"><ele>442.5</ele><time>2026-04-18T12:58:59.999Z</time></trkpt><trkpt lat="43.545159235920096" lon="5.908033812104476"><ele>442.0</ele><time>2026-04-18T12:59:00.999Z</time></trkpt><trkpt lat="43.54528818550452" lon="5.908000264391795"><ele>441.0</ele><time>2026-04-18T12:59:01.999Z</time></trkpt><trkpt lat="43.54540357076707" lon="5.907969579015334"><ele>440.0</ele><time>2026-04-18T12:59:02.999Z</time></trkpt><trkpt lat="43.545506811299376" lon="5.907941018631943"><ele>439.0</ele><time>2026-04-18T12:59:03.999Z</time></trkpt><trkpt lat="43.54562610482778" lon="5.907900266377849"><ele>438.0</ele><time>2026-04-18T12:59:04.999Z</time></trkpt><trkpt lat="43.54574717060583" lon="5.907844456488593"><ele>438.0</ele><time>2026-04-18T12:59:05.999Z</time></trkpt><trkpt lat="43.54586197388587" lon="5.907778879549448"><ele>438.0</ele><time>2026-04-18T12:59:06.999Z</time></trkpt><trkpt lat="43.545980435567195" lon="5.907695498285835"><ele>438.0</ele><time>2026-04-18T12:59:07.999Z</time></trkpt><trkpt lat="43.54608756029195" lon="5.907627878804235"><ele>438.0</ele><time>2026-04-18T12:59:08.999Z</time></trkpt><trkpt lat="43.54621958107191" lon="5.907564395488903"><ele>438.5</ele><time>2026-04-18T12:59:09.999Z</time></trkpt><trkpt lat="43.54635183331148" lon="5.907494136798002"><ele>439.0</ele><time>2026-04-18T12:59:10.999Z</time></trkpt><trkpt lat="43.54646770101319" lon="5.907431541862098"><ele>439.5</ele><time>2026-04-18T12:59:11.999Z</time></trkpt><trkpt lat="43.546582105499404" lon="5.907367960918005"><ele>440.0</ele><time>2026-04-18T12:59:12.999Z</time></trkpt><trkpt lat="43.54670233686384" lon="5.907321333405428"><ele>440.0</ele><time>2026-04-18T12:59:13.999Z</time></trkpt><trkpt lat="43.54681236765837" lon="5.907280016822903"><ele>440.0</ele><time>2026-04-18T12:59:14.999Z</time></trkpt><trkpt lat="43.54691068818654" lon="5.9072182319216795"><ele>440.0</ele><time>2026-04-18T12:59:15.999Z</time></trkpt><trkpt lat="43.54702575979205" lon="5.907173210109615"><ele>440.0</ele><time>2026-04-18T12:59:16.999Z</time></trkpt><trkpt lat="43.547137033367164" lon="5.907123479360945"><ele>439.0</ele><time>2026-04-18T12:59:17.999Z</time></trkpt><trkpt lat="43.547243255894905" lon="5.9070879733842645"><ele>438.0</ele><time>2026-04-18T12:59:18.999Z</time></trkpt><trkpt lat="43.54735269270732" lon="5.9070693140339"><ele>437.0</ele><time>2026-04-18T12:59:19.999Z</time></trkpt><trkpt lat="43.54742239616511" lon="5.907047988152642"><ele>436.0</ele><time>2026-04-18T12:59:20.999Z</time></trkpt><trkpt lat="43.54750954033643" lon="5.90701498380371"><ele>435.0</ele><time>2026-04-18T12:59:21.999Z</time></trkpt><trkpt lat="43.54758584102564" lon="5.906964359223705"><ele>435.0</ele><time>2026-04-18T12:59:22.999Z</time></trkpt><trkpt lat="43.54768567559007" lon="5.906948986442367"><ele>435.0</ele><time>2026-04-18T12:59:24.999Z</time></trkpt><trkpt lat="43.54776179496388" lon="5.907029449544258"><ele>435.0</ele><time>2026-04-18T12:59:26.999Z</time></trkpt><trkpt lat="43.54780753004876" lon="5.907108544128535"><ele>435.0</ele><time>2026-04-18T12:59:27.999Z</time></trkpt><trkpt lat="43.547881896768295" lon="5.907204894802326"><ele>435.0</ele><time>2026-04-18T12:59:28.999Z</time></trkpt><trkpt lat="43.54798460606542" lon="5.907324327442933"><ele>434.33333333333337</ele><time>2026-04-18T12:59:29.999Z</time></trkpt><trkpt lat="43.54811165326305" lon="5.9074774514461765"><ele>433.6666666666667</ele><time>2026-04-18T12:59:30.999Z</time></trkpt><trkpt lat="43.548238110208054" lon="5.907638419270107"><ele>433.0</ele><time>2026-04-18T12:59:31.999Z</time></trkpt><trkpt lat="43.548374510028005" lon="5.907834692037333"><ele>434.25</ele><time>2026-04-18T12:59:32.999Z</time></trkpt><trkpt lat="43.54849526756312" lon="5.908027909961678"><ele>435.5</ele><time>2026-04-18T12:59:33.999Z</time></trkpt><trkpt lat="43.548581274283826" lon="5.908161833335242"><ele>436.75</ele><time>2026-04-18T12:59:34.999Z</time></trkpt><trkpt lat="43.54863370872772" lon="5.9082693106607955"><ele>438.0</ele><time>2026-04-18T12:59:35.999Z</time></trkpt><trkpt lat="43.548682065208986" lon="5.908364144506491"><ele>437.25</ele><time>2026-04-18T12:59:36.999Z</time></trkpt><trkpt lat="43.54875998196108" lon="5.908440140632339"><ele>436.5</ele><time>2026-04-18T12:59:37.999Z</time></trkpt><trkpt lat="43.548876366117916" lon="5.908480782627949"><ele>435.75</ele><time>2026-04-18T12:59:38.999Z</time></trkpt><trkpt lat="43.54901458072729" lon="5.908536250191185"><ele>435.0</ele><time>2026-04-18T12:59:39.999Z</time></trkpt><trkpt lat="43.5491291857728" lon="5.908599744586825"><ele>435.0</ele><time>2026-04-18T12:59:40.999Z</time></trkpt><trkpt lat="43.54922107573374" lon="5.90866327246063"><ele>435.0</ele><time>2026-04-18T12:59:41.999Z</time></trkpt><trkpt lat="43.54930137829659" lon="5.908723915041598"><ele>435.0</ele><time>2026-04-18T12:59:42.999Z</time></trkpt><trkpt lat="43.54936672759969" lon="5.908800736547121"><ele>435.0</ele><time>2026-04-18T12:59:43.999Z</time></trkpt><trkpt lat="43.549432237737804" lon="5.908877820007735"><ele>435.0</ele><time>2026-04-18T12:59:44.999Z</time></trkpt><trkpt lat="43.5494962909849" lon="5.909010588878544"><ele>434.8</ele><time>2026-04-18T12:59:45.999Z</time></trkpt><trkpt lat="43.54958312415281" lon="5.9089557325319175"><ele>434.6</ele><time>2026-04-18T12:59:47.999Z</time></trkpt><trkpt lat="43.549679759167745" lon="5.9089772295313026"><ele>434.4</ele><time>2026-04-18T12:59:49.999Z</time></trkpt><trkpt lat="43.54972927528278" lon="5.909055542964399"><ele>434.2</ele><time>2026-04-18T12:59:50.999Z</time></trkpt><trkpt lat="43.549816973781134" lon="5.909205030980701"><ele>434.0</ele><time>2026-04-18T12:59:51.999Z</time></trkpt><trkpt lat="43.549903983261366" lon="5.909322710043279"><ele>434.79999999999995</ele><time>2026-04-18T12:59:52.999Z</time></trkpt><trkpt lat="43.54997210202876" lon="5.90939504017933"><ele>435.59999999999997</ele><time>2026-04-18T12:59:53.999Z</time></trkpt><trkpt lat="43.550060279360245" lon="5.909432407212311"><ele>436.4</ele><time>2026-04-18T12:59:54.999Z</time></trkpt><trkpt lat="43.5501727213743" lon="5.909449080104705"><ele>437.2</ele><time>2026-04-18T12:59:55.999Z</time></trkpt><trkpt lat="43.550318659754616" lon="5.909519441555547"><ele>438.0</ele><time>2026-04-18T12:59:56.999Z</time></trkpt><trkpt lat="43.550442731227825" lon="5.909604741979322"><ele>438.75</ele><time>2026-04-18T12:59:57.999Z</time></trkpt><trkpt lat="43.55054712051968" lon="5.909652958044804"><ele>439.5</ele><time>2026-04-18T12:59:58.999Z</time></trkpt><trkpt lat="43.55066876021633" lon="5.909658626134569"><ele>440.25</ele><time>2026-04-18T12:59:59.999Z</time></trkpt><trkpt lat="43.550794535377776" lon="5.909657671463306"><ele>441.0</ele><time>2026-04-18T13:00:00.999Z</time></trkpt><trkpt lat="43.55093806432154" lon="5.909627552914601"><ele>441.0</ele><time>2026-04-18T13:00:02Z</time></trkpt><trkpt lat="43.55108587769305" lon="5.909603271797333"><ele>441.0</ele><time>2026-04-18T13:00:03Z</time></trkpt><trkpt lat="43.55120135783531" lon="5.909599785389876"><ele>441.0</ele><time>2026-04-18T13:00:04Z</time></trkpt><trkpt lat="43.5512919904478" lon="5.909617695252401"><ele>441.0</ele><time>2026-04-18T13:00:05Z</time></trkpt><trkpt lat="43.551407623510954" lon="5.909626614085099"><ele>441.3333333333333</ele><time>2026-04-18T13:00:06Z</time></trkpt><trkpt lat="43.55150702533601" lon="5.909616204492157"><ele>441.66666666666663</ele><time>2026-04-18T13:00:07Z</time></trkpt><trkpt lat="43.5515867962293" lon="5.9096333075735386"><ele>442.0</ele><time>2026-04-18T13:00:08Z</time></trkpt><trkpt lat="43.55163508948257" lon="5.909705953637724"><ele>442.3333333333333</ele><time>2026-04-18T13:00:09Z</time></trkpt><trkpt lat="43.55168686073076" lon="5.909812233786839"><ele>442.66666666666663</ele><time>2026-04-18T13:00:10Z</time></trkpt><trkpt lat="43.55178099134899" lon="5.909870312244304"><ele>443.0</ele><time>2026-04-18T13:00:11Z</time></trkpt><trkpt lat="43.5518922101486" lon="5.909903638123536"><ele>443.0</ele><time>2026-04-18T13:00:12Z</time></trkpt><trkpt lat="43.55200007733035" lon="5.909933901513969"><ele>443.0</ele><time>2026-04-18T13:00:13Z</time></trkpt><trkpt lat="43.55208795233464" lon="5.909986461654281"><ele>443.0</ele><time>2026-04-18T13:00:14Z</time></trkpt><trkpt lat="43.552226476046826" lon="5.910156332422465"><ele>443.0</ele><time>2026-04-18T13:00:16Z</time></trkpt><trkpt lat="43.55231007274506" lon="5.910244714330788"><ele>442.5</ele><time>2026-04-18T13:00:17Z</time></trkpt><trkpt lat="43.55239164003294" lon="5.910325127100488"><ele>442.0</ele><time>2026-04-18T13:00:18Z</time></trkpt><trkpt lat="43.552504997102524" lon="5.910549995903966"><ele>441.5</ele><time>2026-04-18T13:00:19Z</time></trkpt><trkpt lat="43.55258992100469" lon="5.9106087111094014"><ele>441.0</ele><time>2026-04-18T13:00:20Z</time></trkpt><trkpt lat="43.5526629870602" lon="5.910685779763548"><ele>441.0</ele><time>2026-04-18T13:00:21Z</time></trkpt><trkpt lat="43.55272106868231" lon="5.910799627191632"><ele>441.0</ele><time>2026-04-18T13:00:22Z</time></trkpt><trkpt lat="43.55279499913403" lon="5.910907965173436"><ele>441.0</ele><time>2026-04-18T13:00:23Z</time></trkpt><trkpt lat="43.55289338850462" lon="5.910989539797565"><ele>441.0</ele><time>2026-04-18T13:00:24Z</time></trkpt><trkpt lat="43.55297691280633" lon="5.911067606722349"><ele>441.0</ele><time>2026-04-18T13:00:25Z</time></trkpt><trkpt lat="43.5530566733351" lon="5.911163169396444"><ele>440.20000000000005</ele><time>2026-04-18T13:00:26Z</time></trkpt><trkpt lat="43.55313727836195" lon="5.911242770140864"><ele>439.40000000000003</ele><time>2026-04-18T13:00:27Z</time></trkpt><trkpt lat="43.553233268741394" lon="5.911308637989435"><ele>438.6</ele><time>2026-04-18T13:00:28Z</time></trkpt><trkpt lat="43.55332891543509" lon="5.911384525933767"><ele>437.8</ele><time>2026-04-18T13:00:29Z</time></trkpt><trkpt lat="43.55343011918056" lon="5.911491321840306"><ele>437.0</ele><time>2026-04-18T13:00:30Z</time></trkpt><trkpt lat="43.553510924374415" lon="5.911591675609379"><ele>437.0</ele><time>2026-04-18T13:00:31Z</time></trkpt><trkpt lat="43.55357548400834" lon="5.9116896516801205"><ele>437.00000000000006</ele><time>2026-04-18T13:00:32Z</time></trkpt><trkpt lat="43.55364292574546" lon="5.911809967153091"><ele>437.00000000000006</ele><time>2026-04-18T13:00:33Z</time></trkpt><trkpt lat="43.55371031530113" lon="5.91193037227314"><ele>437.0</ele><time>2026-04-18T13:00:34Z</time></trkpt><trkpt lat="43.553797621178" lon="5.91204576373533"><ele>437.0</ele><time>2026-04-18T13:00:35Z</time></trkpt><trkpt lat="43.553894974158915" lon="5.912133488246294"><ele>436.40000000000003</ele><time>2026-04-18T13:00:35.999Z</time></trkpt><trkpt lat="43.55399870360676" lon="5.912206079097489"><ele>435.80000000000007</ele><time>2026-04-18T13:00:36.999Z</time></trkpt><trkpt lat="43.554093286993165" lon="5.912275840844827"><ele>435.2</ele><time>2026-04-18T13:00:37.999Z</time></trkpt><trkpt lat="43.55416804984159" lon="5.912358810686485"><ele>434.6</ele><time>2026-04-18T13:00:39.999Z</time></trkpt><trkpt lat="43.55417015126238" lon="5.912453465089875"><ele>434.0</ele><time>2026-04-18T13:00:40.999Z</time></trkpt><trkpt lat="43.55412699843618" lon="5.912606823990541"><ele>435.5</ele><time>2026-04-18T13:00:42.999Z</time></trkpt><trkpt lat="43.55407228092799" lon="5.912660520938518"><ele>437.0</ele><time>2026-04-18T13:00:43.999Z</time></trkpt><trkpt lat="43.553992582219564" lon="5.9127241016194585"><ele>438.5</ele><time>2026-04-18T13:00:44.999Z</time></trkpt><trkpt lat="43.55386450996047" lon="5.9128163288997495"><ele>440.0</ele><time>2026-04-18T13:00:45.999Z</time></trkpt><trkpt lat="43.553722882366834" lon="5.912893118281976"><ele>439.5</ele><time>2026-04-18T13:00:46.999Z</time></trkpt><trkpt lat="43.55360479284386" lon="5.912966381111018"><ele>439.0</ele><time>2026-04-18T13:00:47.999Z</time></trkpt><trkpt lat="43.55350597316241" lon="5.913076733519195"><ele>438.5</ele><time>2026-04-18T13:00:48.999Z</time></trkpt><trkpt lat="43.55338558603908" lon="5.913234691950422"><ele>438.0</ele><time>2026-04-18T13:00:49.999Z</time></trkpt><trkpt lat="43.553261104491696" lon="5.913400575262165"><ele>439.33333333333337</ele><time>2026-04-18T13:00:50.999Z</time></trkpt><trkpt lat="43.55316515957327" lon="5.913554147650914"><ele>440.6666666666667</ele><time>2026-04-18T13:00:51.999Z</time></trkpt><trkpt lat="43.553074307624186" lon="5.91373325215212"><ele>442.0</ele><time>2026-04-18T13:00:52.999Z</time></trkpt><trkpt lat="43.55298749861019" lon="5.9139239835455415"><ele>442.0</ele><time>2026-04-18T13:00:53.999Z</time></trkpt><trkpt lat="43.55292449354589" lon="5.914086986243307"><ele>442.0</ele><time>2026-04-18T13:00:54.999Z</time></trkpt><trkpt lat="43.55286753166339" lon="5.9142281407156165"><ele>442.0</ele><time>2026-04-18T13:00:55.999Z</time></trkpt><trkpt lat="43.55280815705805" lon="5.9143659433939755"><ele>442.0</ele><time>2026-04-18T13:00:56.999Z</time></trkpt><trkpt lat="43.552756541389144" lon="5.91448625383646"><ele>441.8</ele><time>2026-04-18T13:00:57.999Z</time></trkpt><trkpt lat="43.552710429577296" lon="5.914595544388085"><ele>441.6</ele><time>2026-04-18T13:00:58.999Z</time></trkpt><trkpt lat="43.55266596574325" lon="5.914710076020518"><ele>441.40000000000003</ele><time>2026-04-18T13:00:59.999Z</time></trkpt><trkpt lat="43.552623070131" lon="5.9148489749427835"><ele>441.20000000000005</ele><time>2026-04-18T13:01:00.999Z</time></trkpt><trkpt lat="43.552581460080106" lon="5.915018161880698"><ele>441.0</ele><time>2026-04-18T13:01:01.999Z</time></trkpt><trkpt lat="43.55253223688386" lon="5.915172995129981"><ele>441.0</ele><time>2026-04-18T13:01:02.999Z</time></trkpt><trkpt lat="43.55248627719446" lon="5.915301503698063"><ele>441.0</ele><time>2026-04-18T13:01:03.999Z</time></trkpt><trkpt lat="43.55245337694973" lon="5.915417413339808"><ele>441.0</ele><time>2026-04-18T13:01:04.999Z</time></trkpt><trkpt lat="43.552420560667954" lon="5.915533979769788"><ele>441.0</ele><time>2026-04-18T13:01:05.999Z</time></trkpt><trkpt lat="43.552368389896884" lon="5.915670422445389"><ele>441.0</ele><time>2026-04-18T13:01:06.999Z</time></trkpt><trkpt lat="43.55230230070243" lon="5.915815491236662"><ele>441.0</ele><time>2026-04-18T13:01:07.999Z</time></trkpt><trkpt lat="43.55223513825855" lon="5.915971391890757"><ele>441.0</ele><time>2026-04-18T13:01:08.999Z</time></trkpt><trkpt lat="43.55219622468093" lon="5.916105870161007"><ele>441.0</ele><time>2026-04-18T13:01:09.999Z</time></trkpt><trkpt lat="43.55216458975" lon="5.916226051429313"><ele>441.0</ele><time>2026-04-18T13:01:10.999Z</time></trkpt><trkpt lat="43.55211265505417" lon="5.916340635989466"><ele>441.0</ele><time>2026-04-18T13:01:11.999Z</time></trkpt><trkpt lat="43.55205387656874" lon="5.916474902275656"><ele>440.0</ele><time>2026-04-18T13:01:12.999Z</time></trkpt><trkpt lat="43.55200789208405" lon="5.916637225324162"><ele>439.0</ele><time>2026-04-18T13:01:13.999Z</time></trkpt><trkpt lat="43.55196520663296" lon="5.916802985248596"><ele>438.0</ele><time>2026-04-18T13:01:14.999Z</time></trkpt><trkpt lat="43.55192725419669" lon="5.9169208068920165"><ele>437.0</ele><time>2026-04-18T13:01:15.999Z</time></trkpt><trkpt lat="43.55189867777556" lon="5.917010283532606"><ele>436.0</ele><time>2026-04-18T13:01:16.999Z</time></trkpt><trkpt lat="43.55181145589732" lon="5.917122697549584"><ele>435.20000000000005</ele><time>2026-04-18T13:01:18.999Z</time></trkpt><trkpt lat="43.55178059338434" lon="5.917293988263952"><ele>434.40000000000003</ele><time>2026-04-18T13:01:20.999Z</time></trkpt><trkpt lat="43.55173645590972" lon="5.91741523795585"><ele>433.6</ele><time>2026-04-18T13:01:21.999Z</time></trkpt><trkpt lat="43.55171677712313" lon="5.917543829538748"><ele>432.8</ele><time>2026-04-18T13:01:22.999Z</time></trkpt><trkpt lat="43.5517319085809" lon="5.917663011153209"><ele>432.0</ele><time>2026-04-18T13:01:23.999Z</time></trkpt><trkpt lat="43.55172903444045" lon="5.917844191367794"><ele>432.0</ele><time>2026-04-18T13:01:24.999Z</time></trkpt><trkpt lat="43.5517189283815" lon="5.9179790895345485"><ele>432.00000000000006</ele><time>2026-04-18T13:01:25.999Z</time></trkpt><trkpt lat="43.55171189293586" lon="5.918081484473626"><ele>432.00000000000006</ele><time>2026-04-18T13:01:26.999Z</time></trkpt><trkpt lat="43.551688666968694" lon="5.91822873927608"><ele>432.0</ele><time>2026-04-18T13:01:27.999Z</time></trkpt><trkpt lat="43.55163160932784" lon="5.918376373146464"><ele>432.0</ele><time>2026-04-18T13:01:28.999Z</time></trkpt><trkpt lat="43.551579082908056" lon="5.918538826950848"><ele>432.8</ele><time>2026-04-18T13:01:29.999Z</time></trkpt><trkpt lat="43.551534801599" lon="5.918694027530351"><ele>433.6</ele><time>2026-04-18T13:01:30.999Z</time></trkpt><trkpt lat="43.55151107772263" lon="5.918822968009407"><ele>434.40000000000003</ele><time>2026-04-18T13:01:31.999Z</time></trkpt><trkpt lat="43.55147472214081" lon="5.918946543263049"><ele>435.20000000000005</ele><time>2026-04-18T13:01:32.999Z</time></trkpt><trkpt lat="43.551417126836654" lon="5.919048205988271"><ele>436.0</ele><time>2026-04-18T13:01:33.999Z</time></trkpt><trkpt lat="43.551342585762455" lon="5.919116836546778"><ele>436.0</ele><time>2026-04-18T13:01:34.999Z</time></trkpt><trkpt lat="43.551242716737356" lon="5.919194969670644"><ele>436.0</ele><time>2026-04-18T13:01:35.999Z</time></trkpt><trkpt lat="43.55116314845697" lon="5.91928303669643"><ele>436.0</ele><time>2026-04-18T13:01:36.999Z</time></trkpt><trkpt lat="43.551099689845515" lon="5.919404107510048"><ele>436.0</ele><time>2026-04-18T13:01:37.999Z</time></trkpt><trkpt lat="43.55103919190523" lon="5.91949321738573"><ele>436.0</ele><time>2026-04-18T13:01:38.999Z</time></trkpt><trkpt lat="43.55098860453944" lon="5.919564483422658"><ele>436.33333333333337</ele><time>2026-04-18T13:01:39.999Z</time></trkpt><trkpt lat="43.55096326899076" lon="5.919648521680386"><ele>436.6666666666667</ele><time>2026-04-18T13:01:40.999Z</time></trkpt><trkpt lat="43.55095786220163" lon="5.9197394679590785"><ele>437.0</ele><time>2026-04-18T13:01:41.999Z</time></trkpt><trkpt lat="43.550979442000674" lon="5.9198361291355805"><ele>437.33333333333337</ele><time>2026-04-18T13:01:42.999Z</time></trkpt><trkpt lat="43.550984922123114" lon="5.919941785761528"><ele>437.6666666666667</ele><time>2026-04-18T13:01:43.999Z</time></trkpt><trkpt lat="43.550951861279216" lon="5.920060815587206"><ele>438.0</ele><time>2026-04-18T13:01:44.999Z</time></trkpt><trkpt lat="43.55090157374196" lon="5.920208864649916"><ele>438.0</ele><time>2026-04-18T13:01:45.999Z</time></trkpt><trkpt lat="43.55085158717514" lon="5.920353781812222"><ele>438.0</ele><time>2026-04-18T13:01:46.999Z</time></trkpt><trkpt lat="43.550818008708355" lon="5.920463169699374"><ele>438.0</ele><time>2026-04-18T13:01:47.999Z</time></trkpt><trkpt lat="43.550787172556774" lon="5.920560491159556"><ele>438.0</ele><time>2026-04-18T13:01:48.999Z</time></trkpt><trkpt lat="43.55075716896609" lon="5.920675167774112"><ele>438.0</ele><time>2026-04-18T13:01:50.999Z</time></trkpt><trkpt lat="43.55081995075411" lon="5.920737657818573"><ele>438.0</ele><time>2026-04-18T13:01:52.999Z</time></trkpt><trkpt lat="43.55088625486666" lon="5.920823185950647"><ele>438.4</ele><time>2026-04-18T13:01:54.999Z</time></trkpt><trkpt lat="43.550854865049594" lon="5.920923170835671"><ele>438.79999999999995</ele><time>2026-04-18T13:01:56.999Z</time></trkpt><trkpt lat="43.55096428830897" lon="5.92098883548032"><ele>439.2</ele><time>2026-04-18T13:01:59.999Z</time></trkpt><trkpt lat="43.55103713734874" lon="5.921012911326425"><ele>439.6</ele><time>2026-04-18T13:02:00.999Z</time></trkpt><trkpt lat="43.55113191883883" lon="5.921081246848871"><ele>440.0</ele><time>2026-04-18T13:02:01.999Z</time></trkpt><trkpt lat="43.55120184173637" lon="5.921148915310097"><ele>440.2</ele><time>2026-04-18T13:02:02.999Z</time></trkpt><trkpt lat="43.55124623187672" lon="5.921218424579318"><ele>440.4</ele><time>2026-04-18T13:02:03.999Z</time></trkpt><trkpt lat="43.55128645721592" lon="5.921319722402436"><ele>440.6</ele><time>2026-04-18T13:02:04.999Z</time></trkpt><trkpt lat="43.551298690467476" lon="5.921431118635932"><ele>440.8</ele><time>2026-04-18T13:02:05.999Z</time></trkpt><trkpt lat="43.55128665479602" lon="5.921554001976342"><ele>441.0</ele><time>2026-04-18T13:02:06.999Z</time></trkpt><trkpt lat="43.5512549138063" lon="5.921733745800904"><ele>440.75</ele><time>2026-04-18T13:02:07.999Z</time></trkpt><trkpt lat="43.55120323872008" lon="5.921898856862405"><ele>440.5</ele><time>2026-04-18T13:02:08.999Z</time></trkpt><trkpt lat="43.55117041711535" lon="5.922065938954868"><ele>440.25</ele><time>2026-04-18T13:02:09.999Z</time></trkpt><trkpt lat="43.5511156856063" lon="5.92219759613816"><ele>440.0</ele><time>2026-04-18T13:02:10.999Z</time></trkpt><trkpt lat="43.551067728261366" lon="5.92232790257752"><ele>439.99999999999994</ele><time>2026-04-18T13:02:11.999Z</time></trkpt><trkpt lat="43.551019311622625" lon="5.922428769252774"><ele>440.0</ele><time>2026-04-18T13:02:12.999Z</time></trkpt><trkpt lat="43.5509694756101" lon="5.9225663784365405"><ele>440.0</ele><time>2026-04-18T13:02:13.999Z</time></trkpt><trkpt lat="43.55093831087191" lon="5.922663397057481"><ele>440.0</ele><time>2026-04-18T13:02:14.999Z</time></trkpt><trkpt lat="43.55091245826608" lon="5.922763387743772"><ele>439.99999999999994</ele><time>2026-04-18T13:02:15.999Z</time></trkpt><trkpt lat="43.55088935141142" lon="5.922866576081"><ele>440.0</ele><time>2026-04-18T13:02:16.999Z</time></trkpt><trkpt lat="43.55085323389679" lon="5.922977593485646"><ele>439.6</ele><time>2026-04-18T13:02:17.999Z</time></trkpt><trkpt lat="43.55079955811888" lon="5.92309391284413"><ele>439.2</ele><time>2026-04-18T13:02:18.999Z</time></trkpt><trkpt lat="43.55076405683556" lon="5.923202229352813"><ele>438.79999999999995</ele><time>2026-04-18T13:02:19.999Z</time></trkpt><trkpt lat="43.550739586761026" lon="5.923306899336174"><ele>438.4</ele><time>2026-04-18T13:02:20.999Z</time></trkpt><trkpt lat="43.55075099556076" lon="5.923439791751698"><ele>438.0</ele><time>2026-04-18T13:02:21.999Z</time></trkpt><trkpt lat="43.550752132978864" lon="5.923572956582444"><ele>437.8333333333333</ele><time>2026-04-18T13:02:22.999Z</time></trkpt><trkpt lat="43.550767495716876" lon="5.923690274442771"><ele>437.66666666666663</ele><time>2026-04-18T13:02:23.999Z</time></trkpt><trkpt lat="43.55078971219411" lon="5.9237749473666765"><ele>437.5</ele><time>2026-04-18T13:02:24.999Z</time></trkpt><trkpt lat="43.5507462541732" lon="5.923896248714676"><ele>437.3333333333333</ele><time>2026-04-18T13:02:26.999Z</time></trkpt><trkpt lat="43.550683820006384" lon="5.924014336125018"><ele>437.16666666666663</ele><time>2026-04-18T13:02:28.999Z</time></trkpt><trkpt lat="43.55068971636346" lon="5.924109633043062"><ele>437.0</ele><time>2026-04-18T13:02:29.999Z</time></trkpt><trkpt lat="43.55069367715333" lon="5.924238218348603"><ele>436.75</ele><time>2026-04-18T13:02:30.999Z</time></trkpt><trkpt lat="43.55065863126733" lon="5.924412231259109"><ele>436.5</ele><time>2026-04-18T13:02:31.999Z</time></trkpt><trkpt lat="43.550601518685454" lon="5.924580831458003"><ele>436.25</ele><time>2026-04-18T13:02:32.999Z</time></trkpt><trkpt lat="43.55056541969551" lon="5.924704727087648"><ele>436.0</ele><time>2026-04-18T13:02:33.999Z</time></trkpt><trkpt lat="43.55051061316237" lon="5.924806299956994"><ele>436.00000000000006</ele><time>2026-04-18T13:02:34.999Z</time></trkpt><trkpt lat="43.5504606477641" lon="5.924882594838864"><ele>436.0</ele><time>2026-04-18T13:02:35.999Z</time></trkpt><trkpt lat="43.55035815963917" lon="5.924921239135683"><ele>436.0</ele><time>2026-04-18T13:02:37Z</time></trkpt><trkpt lat="43.550316785332036" lon="5.925033221570082"><ele>436.0</ele><time>2026-04-18T13:02:38Z</time></trkpt><trkpt lat="43.55029040710223" lon="5.925138956347023"><ele>436.00000000000006</ele><time>2026-04-18T13:02:39Z</time></trkpt><trkpt lat="43.550245222279145" lon="5.925221452840287"><ele>436.0</ele><time>2026-04-18T13:02:40Z</time></trkpt><trkpt lat="43.55018153808626" lon="5.925257702685544"><ele>435.4</ele><time>2026-04-18T13:02:41Z</time></trkpt><trkpt lat="43.5500807651492" lon="5.9252611339594"><ele>434.8</ele><time>2026-04-18T13:02:42Z</time></trkpt><trkpt lat="43.549991250155095" lon="5.925283903269233"><ele>434.19999999999993</ele><time>2026-04-18T13:02:43Z</time></trkpt><trkpt lat="43.54992048227004" lon="5.925344432530124"><ele>433.59999999999997</ele><time>2026-04-18T13:02:44Z</time></trkpt><trkpt lat="43.54985302149448" lon="5.925437391683136"><ele>433.0</ele><time>2026-04-18T13:02:45Z</time></trkpt><trkpt lat="43.549777554101446" lon="5.925568564597513"><ele>433.0</ele><time>2026-04-18T13:02:46Z</time></trkpt><trkpt lat="43.54969740133032" lon="5.925701903323666"><ele>433.0</ele><time>2026-04-18T13:02:47Z</time></trkpt><trkpt lat="43.54961290823278" lon="5.9257896340496305"><ele>433.0</ele><time>2026-04-18T13:02:48Z</time></trkpt><trkpt lat="43.549505605852495" lon="5.925847889050085"><ele>433.0</ele><time>2026-04-18T13:02:49Z</time></trkpt><trkpt lat="43.54940070623394" lon="5.925891808385685"><ele>432.6666666666667</ele><time>2026-04-18T13:02:50Z</time></trkpt><trkpt lat="43.54930993166198" lon="5.925925711517611"><ele>432.33333333333337</ele><time>2026-04-18T13:02:51Z</time></trkpt><trkpt lat="43.549237997551096" lon="5.92595699209354"><ele>432.0</ele><time>2026-04-18T13:02:52Z</time></trkpt><trkpt lat="43.54918501413932" lon="5.926004389537828"><ele>431.66666666666663</ele><time>2026-04-18T13:02:53Z</time></trkpt><trkpt lat="43.54911716900302" lon="5.926075812081139"><ele>431.3333333333333</ele><time>2026-04-18T13:02:55Z</time></trkpt><trkpt lat="43.54911533290158" lon="5.92619917692765"><ele>431.0</ele><time>2026-04-18T13:02:58Z</time></trkpt><trkpt lat="43.54907134993866" lon="5.926273176333158"><ele>431.0</ele><time>2026-04-18T13:04:22.001Z</time></trkpt><trkpt lat="43.54904101675701" lon="5.926360935732163"><ele>431.0</ele><time>2026-04-18T13:04:24.001Z</time></trkpt><trkpt lat="43.548993004477765" lon="5.926430488916112"><ele>431.0</ele><time>2026-04-18T13:04:26.001Z</time></trkpt><trkpt lat="43.548924753540504" lon="5.9263717313493744"><ele>431.0</ele><time>2026-04-18T13:04:29Z</time></trkpt><trkpt lat="43.54885743051519" lon="5.9263652263080155"><ele>431.0</ele><time>2026-04-18T13:04:31Z</time></trkpt><trkpt lat="43.54880563705249" lon="5.92631312029278"><ele>431.0</ele><time>2026-04-18T13:04:34Z</time></trkpt><trkpt lat="43.5487284872188" lon="5.926256986354722"><ele>431.0</ele><time>2026-04-18T13:04:37Z</time></trkpt><trkpt lat="43.54867076645358" lon="5.926214078965203"><ele>429.99999999999994</ele><time>2026-04-18T13:04:41Z</time></trkpt><trkpt lat="43.54861787875206" lon="5.926272759438653"><ele>429.0</ele><time>2026-04-18T13:04:46Z</time></trkpt><trkpt lat="43.548587894897885" lon="5.926363425012304"><ele>428.0</ele><time>2026-04-18T13:04:49Z</time></trkpt><trkpt lat="43.54858420431868" lon="5.926458568445157"><ele>427.0</ele><time>2026-04-18T13:04:51Z</time></trkpt><trkpt lat="43.54851385039281" lon="5.926526935721117"><ele>425.99999999999994</ele><time>2026-04-18T13:04:53Z</time></trkpt><trkpt lat="43.54843856060957" lon="5.9265867004459825"><ele>425.0</ele><time>2026-04-18T13:04:54Z</time></trkpt><trkpt lat="43.54835153474689" lon="5.92666246484824"><ele>425.0</ele><time>2026-04-18T13:04:56Z</time></trkpt><trkpt lat="43.54828903301843" lon="5.9267276753182845"><ele>425.0</ele><time>2026-04-18T13:04:58Z</time></trkpt><trkpt lat="43.548219332693456" lon="5.926811952345664"><ele>425.0</ele><time>2026-04-18T13:05:00Z</time></trkpt><trkpt lat="43.54816550910783" lon="5.926883469290189"><ele>425.0</ele><time>2026-04-18T13:05:03Z</time></trkpt><trkpt lat="43.54808770114249" lon="5.926991410666823"><ele>425.0</ele><time>2026-04-18T13:05:05Z</time></trkpt><trkpt lat="43.548013951716115" lon="5.927097923847647"><ele>424.8333333333333</ele><time>2026-04-18T13:05:07Z</time></trkpt><trkpt lat="43.547972350806845" lon="5.927176229274406"><ele>424.66666666666663</ele><time>2026-04-18T13:05:09Z</time></trkpt><trkpt lat="43.54791494935845" lon="5.927284303811516"><ele>424.5</ele><time>2026-04-18T13:05:11Z</time></trkpt><trkpt lat="43.54789249735695" lon="5.927369113264615"><ele>424.33333333333337</ele><time>2026-04-18T13:05:13Z</time></trkpt><trkpt lat="43.54787068532789" lon="5.927490432138455"><ele>424.1666666666667</ele><time>2026-04-18T13:05:15Z</time></trkpt><trkpt lat="43.547823585831054" lon="5.927609260299049"><ele>424.0</ele><time>2026-04-18T13:05:18Z</time></trkpt><trkpt lat="43.54776097682315" lon="5.927681894233761"><ele>423.33333333333337</ele><time>2026-04-18T13:05:20Z</time></trkpt><trkpt lat="43.5477258098892" lon="5.927767292944131"><ele>422.6666666666667</ele><time>2026-04-18T13:05:22Z</time></trkpt><trkpt lat="43.54765884616409" lon="5.927880459538686"><ele>422.0</ele><time>2026-04-18T13:05:24Z</time></trkpt><trkpt lat="43.547593478364156" lon="5.92794644913275"><ele>421.33333333333337</ele><time>2026-04-18T13:05:26Z</time></trkpt><trkpt lat="43.54753362877112" lon="5.9280656683118105"><ele>420.6666666666667</ele><time>2026-04-18T13:05:28Z</time></trkpt><trkpt lat="43.547503704791595" lon="5.928156185270109"><ele>420.0</ele><time>2026-04-18T13:05:29Z</time></trkpt><trkpt lat="43.547450031937686" lon="5.928252068653494"><ele>420.0</ele><time>2026-04-18T13:05:31Z</time></trkpt><trkpt lat="43.547412623470166" lon="5.928330686863217"><ele>420.0</ele><time>2026-04-18T13:05:33Z</time></trkpt><trkpt lat="43.54734509894719" lon="5.928375184663922"><ele>420.0</ele><time>2026-04-18T13:05:35Z</time></trkpt><trkpt lat="43.54724605331627" lon="5.92845856418356"><ele>420.0</ele><time>2026-04-18T13:05:37Z</time></trkpt><trkpt lat="43.547193247080884" lon="5.928512308197444"><ele>420.0</ele><time>2026-04-18T13:05:39Z</time></trkpt><trkpt lat="43.547149508862006" lon="5.928595056808319"><ele>420.0</ele><time>2026-04-18T13:05:44Z</time></trkpt><trkpt lat="43.547114142209125" lon="5.928722499473087"><ele>419.8</ele><time>2026-04-18T13:05:47Z</time></trkpt><trkpt lat="43.54710733825809" lon="5.92884769263536"><ele>419.6</ele><time>2026-04-18T13:05:49Z</time></trkpt><trkpt lat="43.54699961334385" lon="5.929024682569083"><ele>419.4</ele><time>2026-04-18T13:05:51Z</time></trkpt><trkpt lat="43.546974439056676" lon="5.929111855111581"><ele>419.2</ele><time>2026-04-18T13:05:53Z</time></trkpt><trkpt lat="43.54694097458954" lon="5.929264100112849"><ele>419.0</ele><time>2026-04-18T13:05:55Z</time></trkpt><trkpt lat="43.546916286479664" lon="5.929346272346144"><ele>416.2</ele><time>2026-04-18T13:05:56Z</time></trkpt><trkpt lat="43.54689282016631" lon="5.929438471470727"><ele>413.4</ele><time>2026-04-18T13:05:57Z</time></trkpt><trkpt lat="43.546867517733254" lon="5.929528186356313"><ele>410.6</ele><time>2026-04-18T13:05:58Z</time></trkpt><trkpt lat="43.546801998546265" lon="5.929654067546908"><ele>407.8</ele><time>2026-04-18T13:06:00Z</time></trkpt><trkpt lat="43.54675059289547" lon="5.929762790517937"><ele>405.0</ele><time>2026-04-18T13:06:02Z</time></trkpt><trkpt lat="43.54671284625229" lon="5.9299229055972855"><ele>405.0</ele><time>2026-04-18T13:06:04Z</time></trkpt><trkpt lat="43.54667713725971" lon="5.930050297592306"><ele>405.0</ele><time>2026-04-18T13:06:05Z</time></trkpt><trkpt lat="43.546652635750256" lon="5.930131542647865"><ele>405.0</ele><time>2026-04-18T13:06:06Z</time></trkpt><trkpt lat="43.546619601973575" lon="5.930228931689563"><ele>405.0</ele><time>2026-04-18T13:06:07Z</time></trkpt><trkpt lat="43.54659776892182" lon="5.930344136485452"><ele>405.0</ele><time>2026-04-18T13:06:08Z</time></trkpt><trkpt lat="43.54657506941492" lon="5.930433304432685"><ele>405.0</ele><time>2026-04-18T13:06:09Z</time></trkpt><trkpt lat="43.546553965625" lon="5.9305236756052055"><ele>403.8</ele><time>2026-04-18T13:06:10Z</time></trkpt><trkpt lat="43.54652060072565" lon="5.930661234277841"><ele>402.6</ele><time>2026-04-18T13:06:12Z</time></trkpt><trkpt lat="43.546529444508515" lon="5.930798887374802"><ele>401.4</ele><time>2026-04-18T13:06:14Z</time></trkpt><trkpt lat="43.54655084165761" lon="5.930933925671667"><ele>400.2</ele><time>2026-04-18T13:06:16Z</time></trkpt><trkpt lat="43.54655886188293" lon="5.931080539068721"><ele>399.0</ele><time>2026-04-18T13:06:18Z</time></trkpt><trkpt lat="43.546567370714" lon="5.931230642092366"><ele>398.6</ele><time>2026-04-18T13:06:20Z</time></trkpt><trkpt lat="43.546523729485905" lon="5.931347820842913"><ele>398.2</ele><time>2026-04-18T13:06:22Z</time></trkpt><trkpt lat="43.54642281716301" lon="5.931474592138072"><ele>397.8</ele><time>2026-04-18T13:06:24Z</time></trkpt><trkpt lat="43.5463383482778" lon="5.931564452623078"><ele>397.40000000000003</ele><time>2026-04-18T13:06:26Z</time></trkpt><trkpt lat="43.546250370755715" lon="5.93165195645925"><ele>397.0</ele><time>2026-04-18T13:06:28Z</time></trkpt><trkpt lat="43.54619245637506" lon="5.931703602178646"><ele>393.6666666666667</ele><time>2026-04-18T13:06:29Z</time></trkpt><trkpt lat="43.54612591851864" lon="5.931757159800958"><ele>390.33333333333337</ele><time>2026-04-18T13:06:30Z</time></trkpt><trkpt lat="43.54605721316955" lon="5.931807242411145"><ele>387.0</ele><time>2026-04-18T13:06:31Z</time></trkpt><trkpt lat="43.546004500017354" lon="5.93185530995689"><ele>383.6666666666667</ele><time>2026-04-18T13:06:32Z</time></trkpt><trkpt lat="43.545916007713366" lon="5.931877026920907"><ele>380.33333333333337</ele><time>2026-04-18T13:06:34Z</time></trkpt><trkpt lat="43.545865995151004" lon="5.931973156759516"><ele>377.0</ele><time>2026-04-18T13:06:36Z</time></trkpt><trkpt lat="43.54584058269216" lon="5.9320983747323375"><ele>377.0</ele><time>2026-04-18T13:06:38Z</time></trkpt><trkpt lat="43.5458381976533" lon="5.932189667254157"><ele>377.0</ele><time>2026-04-18T13:06:39Z</time></trkpt><trkpt lat="43.54581677471067" lon="5.932307600862698"><ele>377.0</ele><time>2026-04-18T13:06:40Z</time></trkpt><trkpt lat="43.54579247674301" lon="5.932434430081091"><ele>377.0</ele><time>2026-04-18T13:06:42Z</time></trkpt><trkpt lat="43.545731431686605" lon="5.932508205713473"><ele>377.0</ele><time>2026-04-18T13:06:45Z</time></trkpt><trkpt lat="43.5456277813837" lon="5.932574934556283"><ele>377.0</ele><time>2026-04-18T13:06:47Z</time></trkpt><trkpt lat="43.5455527967707" lon="5.932603360072045"><ele>378.6</ele><time>2026-04-18T13:06:48Z</time></trkpt><trkpt lat="43.545452110359015" lon="5.932624363154344"><ele>380.20000000000005</ele><time>2026-04-18T13:06:50Z</time></trkpt><trkpt lat="43.54536693539312" lon="5.932668104570225"><ele>381.8</ele><time>2026-04-18T13:06:53Z</time></trkpt><trkpt lat="43.5453414016432" lon="5.932776877840263"><ele>383.4</ele><time>2026-04-18T13:06:55Z</time></trkpt><trkpt lat="43.545285549022545" lon="5.932843405790103"><ele>385.0</ele><time>2026-04-18T13:06:56Z</time></trkpt><trkpt lat="43.54519805277919" lon="5.9329346570662995"><ele>382.14285714285717</ele><time>2026-04-18T13:06:58Z</time></trkpt><trkpt lat="43.5451026808377" lon="5.932961204793873"><ele>379.2857142857143</ele><time>2026-04-18T13:07:00Z</time></trkpt><trkpt lat="43.54503725436424" lon="5.932985719840197"><ele>376.42857142857144</ele><time>2026-04-18T13:07:02Z</time></trkpt><trkpt lat="43.54499593224813" lon="5.933067596693501"><ele>373.57142857142856</ele><time>2026-04-18T13:07:04Z</time></trkpt><trkpt lat="43.54494033758748" lon="5.933117608602727"><ele>370.7142857142857</ele><time>2026-04-18T13:07:12Z</time></trkpt><trkpt lat="43.54488738119399" lon="5.933172218279919"><ele>367.8571428571429</ele><time>2026-04-18T13:07:14Z</time></trkpt><trkpt lat="43.544812254784716" lon="5.933200676767153"><ele>365.0</ele><time>2026-04-18T13:07:17Z</time></trkpt><trkpt lat="43.544755301413744" lon="5.933241945641802"><ele>365.0</ele><time>2026-04-18T13:07:19Z</time></trkpt><trkpt lat="43.5446908371362" lon="5.933275570436106"><ele>365.0</ele><time>2026-04-18T13:07:21Z</time></trkpt><trkpt lat="43.54462348065368" lon="5.9332999583994495"><ele>365.0</ele><time>2026-04-18T13:07:22Z</time></trkpt><trkpt lat="43.54454566381626" lon="5.9333642826821436"><ele>365.0</ele><time>2026-04-18T13:07:23Z</time></trkpt><trkpt lat="43.54447897749373" lon="5.933418400343091"><ele>365.0</ele><time>2026-04-18T13:07:24Z</time></trkpt><trkpt lat="43.54440910028742" lon="5.93345131707731"><ele>365.0</ele><time>2026-04-18T13:07:26Z</time></trkpt><trkpt lat="43.54434894362318" lon="5.933504484598244"><ele>362.0</ele><time>2026-04-18T13:07:28Z</time></trkpt><trkpt lat="43.54430097985971" lon="5.933574375501772"><ele>359.0</ele><time>2026-04-18T13:07:30Z</time></trkpt><trkpt lat="43.54425903888398" lon="5.933679706040589"><ele>356.0</ele><time>2026-04-18T13:07:32Z</time></trkpt><trkpt lat="43.544249153963456" lon="5.933801571149514"><ele>353.0</ele><time>2026-04-18T13:07:35Z</time></trkpt><trkpt lat="43.544244260533155" lon="5.933916499845082"><ele>350.0</ele><time>2026-04-18T13:07:37Z</time></trkpt><trkpt lat="43.54427620141396" lon="5.934042019279414"><ele>347.0</ele><time>2026-04-18T13:07:40Z</time></trkpt><trkpt lat="43.544286403530315" lon="5.934143838620565"><ele>346.40000000000003</ele><time>2026-04-18T13:07:42Z</time></trkpt><trkpt lat="43.54432088769068" lon="5.934266261192128"><ele>345.8</ele><time>2026-04-18T13:07:45Z</time></trkpt><trkpt lat="43.54433491762867" lon="5.934428916752745"><ele>345.2</ele><time>2026-04-18T13:07:47Z</time></trkpt><trkpt lat="43.54439906667544" lon="5.934585814182157"><ele>344.6</ele><time>2026-04-18T13:07:49Z</time></trkpt><trkpt lat="43.54430290746157" lon="5.93459658493991"><ele>344.0</ele><time>2026-04-18T13:07:51Z</time></trkpt><trkpt lat="43.54430820999025" lon="5.9346896943364404"><ele>344.0</ele><time>2026-04-18T13:07:53Z</time></trkpt><trkpt lat="43.544439859081464" lon="5.934828985903518"><ele>344.0</ele><time>2026-04-18T13:07:54Z</time></trkpt><trkpt lat="43.544432614132766" lon="5.934951599264129"><ele>344.0</ele><time>2026-04-18T13:07:57Z</time></trkpt><trkpt lat="43.54439249811414" lon="5.935049887304277"><ele>344.0</ele><time>2026-04-18T13:08:14Z</time></trkpt><trkpt lat="43.544465254155014" lon="5.935369680011295"><ele>343.33333333333337</ele><time>2026-04-18T13:09:03Z</time></trkpt><trkpt lat="43.54449489606496" lon="5.93545909224989"><ele>342.6666666666667</ele><time>2026-04-18T13:09:04Z</time></trkpt><trkpt lat="43.544517214007755" lon="5.935544343071527"><ele>342.0</ele><time>2026-04-18T13:09:06Z</time></trkpt><trkpt lat="43.54452085823453" lon="5.93566247242582"><ele>341.3333333333333</ele><time>2026-04-18T13:09:09Z</time></trkpt><trkpt lat="43.54454373983583" lon="5.935803146116949"><ele>340.66666666666663</ele><time>2026-04-18T13:09:11Z</time></trkpt><trkpt lat="43.544572535637236" lon="5.935924456719431"><ele>340.0</ele><time>2026-04-18T13:09:13Z</time></trkpt><trkpt lat="43.54461091109182" lon="5.9360105587785155"><ele>342.66666666666663</ele><time>2026-04-18T13:09:15Z</time></trkpt><trkpt lat="43.54464417708297" lon="5.936084595421191"><ele>345.3333333333333</ele><time>2026-04-18T13:09:17Z</time></trkpt><trkpt lat="43.544687309631065" lon="5.936152303648546"><ele>348.0</ele><time>2026-04-18T13:09:20Z</time></trkpt><trkpt lat="43.5447246145419" lon="5.936265269373771"><ele>350.6666666666667</ele><time>2026-04-18T13:09:22Z</time></trkpt><trkpt lat="43.54465111449894" lon="5.936209978322833"><ele>353.33333333333337</ele><time>2026-04-18T13:09:23Z</time></trkpt><trkpt lat="43.544666502424356" lon="5.93635451871164"><ele>356.0</ele><time>2026-04-18T13:09:25Z</time></trkpt><trkpt lat="43.54468637636057" lon="5.936483826977172"><ele>356.0</ele><time>2026-04-18T13:09:28Z</time></trkpt><trkpt lat="43.54469793635089" lon="5.936603416286582"><ele>356.0</ele><time>2026-04-18T13:09:32Z</time></trkpt><trkpt lat="43.544688654588846" lon="5.936699476343673"><ele>356.0</ele><time>2026-04-18T13:09:35Z</time></trkpt><trkpt lat="43.544709748891414" lon="5.936804684911538"><ele>356.0</ele><time>2026-04-18T13:09:38Z</time></trkpt><trkpt lat="43.54472467074809" lon="5.936905513937946"><ele>356.0</ele><time>2026-04-18T13:09:41Z</time></trkpt><trkpt lat="43.544745589475" lon="5.937011092510483"><ele>356.0</ele><time>2026-04-18T13:09:45Z</time></trkpt><trkpt lat="43.5447518984093" lon="5.937106058634872"><ele>354.0</ele><time>2026-04-18T13:09:48Z</time></trkpt><trkpt lat="43.544776354273004" lon="5.9372117428540045"><ele>352.0</ele><time>2026-04-18T13:09:51Z</time></trkpt><trkpt lat="43.544745882894915" lon="5.9373275235899685"><ele>350.0</ele><time>2026-04-18T13:09:54Z</time></trkpt><trkpt lat="43.54472999233709" lon="5.937414679046296"><ele>348.0</ele><time>2026-04-18T13:09:56Z</time></trkpt><trkpt lat="43.54478402086551" lon="5.9378535508955945"><ele>347.2</ele><time>2026-04-18T13:09:57Z</time></trkpt><trkpt lat="43.54476603885358" lon="5.937961165427655"><ele>346.4</ele><time>2026-04-18T13:09:58Z</time></trkpt><trkpt lat="43.54477319861873" lon="5.938072574659208"><ele>345.59999999999997</ele><time>2026-04-18T13:09:59Z</time></trkpt><trkpt lat="43.544789637637116" lon="5.938209746529537"><ele>344.79999999999995</ele><time>2026-04-18T13:10:01Z</time></trkpt><trkpt lat="43.54480045358508" lon="5.938299843013868"><ele>344.0</ele><time>2026-04-18T13:10:03Z</time></trkpt><trkpt lat="43.54458150709691" lon="5.93845484675735"><ele>340.79999999999995</ele><time>2026-04-18T13:10:11Z</time></trkpt><trkpt lat="43.54452380180232" lon="5.938522728939425"><ele>337.59999999999997</ele><time>2026-04-18T13:10:12Z</time></trkpt><trkpt lat="43.5444889562546" lon="5.938596918486285"><ele>334.4</ele><time>2026-04-18T13:10:13Z</time></trkpt><trkpt lat="43.544432896082874" lon="5.938715159788614"><ele>331.2</ele><time>2026-04-18T13:10:14Z</time></trkpt><trkpt lat="43.544355067763576" lon="5.938872108991641"><ele>328.0</ele><time>2026-04-18T13:10:15Z</time></trkpt><trkpt lat="43.54420656110363" lon="5.939108180793257"><ele>327.5</ele><time>2026-04-18T13:10:16Z</time></trkpt><trkpt lat="43.54409701577687" lon="5.939293555941701"><ele>327.0</ele><time>2026-04-18T13:10:17Z</time></trkpt><trkpt lat="43.543998919607134" lon="5.939450370983543"><ele>326.5</ele><time>2026-04-18T13:10:18Z</time></trkpt><trkpt lat="43.543932132792364" lon="5.939583801303364"><ele>326.0</ele><time>2026-04-18T13:10:19Z</time></trkpt><trkpt lat="43.543886320433316" lon="5.93970917544373"><ele>326.0</ele><time>2026-04-18T13:10:20Z</time></trkpt><trkpt lat="43.543867088555" lon="5.939815467384051"><ele>326.0</ele><time>2026-04-18T13:10:21Z</time></trkpt><trkpt lat="43.54387099846821" lon="5.939952750569993"><ele>326.0</ele><time>2026-04-18T13:10:22Z</time></trkpt><trkpt lat="43.543841152681054" lon="5.940074151026829"><ele>326.0</ele><time>2026-04-18T13:10:23Z</time></trkpt><trkpt lat="43.543836058547456" lon="5.940217079510587"><ele>326.0</ele><time>2026-04-18T13:10:24Z</time></trkpt><trkpt lat="43.54383219376453" lon="5.940394148132613"><ele>324.8</ele><time>2026-04-18T13:10:25Z</time></trkpt><trkpt lat="43.54383017416735" lon="5.940574969465102"><ele>323.6</ele><time>2026-04-18T13:10:26Z</time></trkpt><trkpt lat="43.54383196588239" lon="5.940733341764079"><ele>322.4</ele><time>2026-04-18T13:10:27Z</time></trkpt><trkpt lat="43.543838135934045" lon="5.940861304847037"><ele>321.2</ele><time>2026-04-18T13:10:28Z</time></trkpt><trkpt lat="43.5438677725166" lon="5.94097757233858"><ele>320.0</ele><time>2026-04-18T13:10:29Z</time></trkpt><trkpt lat="43.54388735788312" lon="5.941075659341489"><ele>319.4</ele><time>2026-04-18T13:10:30Z</time></trkpt><trkpt lat="43.54389283370847" lon="5.94119504412292"><ele>318.8</ele><time>2026-04-18T13:10:31Z</time></trkpt><trkpt lat="43.54389834402961" lon="5.941327397131048"><ele>318.2</ele><time>2026-04-18T13:10:32Z</time></trkpt><trkpt lat="43.543917165442785" lon="5.941463052358615"><ele>317.6</ele><time>2026-04-18T13:10:33Z</time></trkpt><trkpt lat="43.54392222340354" lon="5.9415904260917936"><ele>317.0</ele><time>2026-04-18T13:10:34Z</time></trkpt><trkpt lat="43.543894595747254" lon="5.9417088339811155"><ele>316.6666666666667</ele><time>2026-04-18T13:10:35Z</time></trkpt><trkpt lat="43.543842554016635" lon="5.941790188569048"><ele>316.33333333333337</ele><time>2026-04-18T13:10:36Z</time></trkpt><trkpt lat="43.543782951841756" lon="5.941875005909997"><ele>316.0</ele><time>2026-04-18T13:10:37Z</time></trkpt><trkpt lat="43.54372741538416" lon="5.941963847860383"><ele>315.6666666666667</ele><time>2026-04-18T13:10:38Z</time></trkpt><trkpt lat="43.543681910214" lon="5.942048816960198"><ele>315.3333333333333</ele><time>2026-04-18T13:10:39Z</time></trkpt><trkpt lat="43.54363625846213" lon="5.942137652741813"><ele>315.0</ele><time>2026-04-18T13:10:40Z</time></trkpt><trkpt lat="43.54353308018134" lon="5.94216713769116"><ele>313.75</ele><time>2026-04-18T13:10:43Z</time></trkpt><trkpt lat="43.54346200206613" lon="5.942160791187321"><ele>312.5</ele><time>2026-04-18T13:10:44Z</time></trkpt><trkpt lat="43.54332959342972" lon="5.9421719354932065"><ele>311.25</ele><time>2026-04-18T13:10:45Z</time></trkpt><trkpt lat="43.54320059111036" lon="5.942209044573164"><ele>310.0</ele><time>2026-04-18T13:10:46Z</time></trkpt><trkpt lat="43.5430735848211" lon="5.9422471312902045"><ele>310.0</ele><time>2026-04-18T13:10:47Z</time></trkpt><trkpt lat="43.54292589794346" lon="5.942287597545883"><ele>310.0</ele><time>2026-04-18T13:10:48Z</time></trkpt><trkpt lat="43.542797195154066" lon="5.942311978338573"><ele>310.0</ele><time>2026-04-18T13:10:49Z</time></trkpt><trkpt lat="43.54268499745701" lon="5.942339754458072"><ele>310.0</ele><time>2026-04-18T13:10:50Z</time></trkpt><trkpt lat="43.54256329414592" lon="5.9423746277463145"><ele>310.25</ele><time>2026-04-18T13:10:51Z</time></trkpt><trkpt lat="43.54243151097877" lon="5.94241638802069"><ele>310.5</ele><time>2026-04-18T13:10:52Z</time></trkpt><trkpt lat="43.542291002784644" lon="5.942450573972178"><ele>310.75</ele><time>2026-04-18T13:10:53Z</time></trkpt><trkpt lat="43.54214568196468" lon="5.9424721225947135"><ele>311.0</ele><time>2026-04-18T13:10:54Z</time></trkpt><trkpt lat="43.54203311240506" lon="5.9424956938810904"><ele>311.0</ele><time>2026-04-18T13:10:55Z</time></trkpt><trkpt lat="43.54192665818014" lon="5.942520286579745"><ele>311.0</ele><time>2026-04-18T13:10:56Z</time></trkpt><trkpt lat="43.541842489880665" lon="5.942543236030526"><ele>311.0</ele><time>2026-04-18T13:10:57Z</time></trkpt><trkpt lat="43.54174415489738" lon="5.942565217167024"><ele>311.0</ele><time>2026-04-18T13:10:59Z</time></trkpt><trkpt lat="43.5417187475008" lon="5.9426660722054025"><ele>311.0</ele><time>2026-04-18T13:11:10Z</time></trkpt><trkpt lat="43.541643753904935" lon="5.9427940771293155"><ele>313.5</ele><time>2026-04-18T13:11:12Z</time></trkpt><trkpt lat="43.541571236720614" lon="5.942829079311379"><ele>316.0</ele><time>2026-04-18T13:11:13Z</time></trkpt><trkpt lat="43.54147044594761" lon="5.942879761156932"><ele>318.5</ele><time>2026-04-18T13:11:14Z</time></trkpt><trkpt lat="43.541360079336684" lon="5.942968667208228"><ele>321.0</ele><time>2026-04-18T13:11:15Z</time></trkpt><trkpt lat="43.54121878392557" lon="5.9431127151029655"><ele>322.0</ele><time>2026-04-18T13:11:16Z</time></trkpt><trkpt lat="43.541068374510694" lon="5.943256773128401"><ele>323.0</ele><time>2026-04-18T13:11:17Z</time></trkpt><trkpt lat="43.540921675296644" lon="5.943394412269924"><ele>324.0</ele><time>2026-04-18T13:11:18Z</time></trkpt><trkpt lat="43.540814646089125" lon="5.943518021680986"><ele>324.0</ele><time>2026-04-18T13:11:19Z</time></trkpt><trkpt lat="43.540741964067315" lon="5.943635475250958"><ele>324.0</ele><time>2026-04-18T13:11:20Z</time></trkpt><trkpt lat="43.540687723852976" lon="5.943753292302931"><ele>324.0</ele><time>2026-04-18T13:11:21Z</time></trkpt><trkpt lat="43.5406321626418" lon="5.943874646505535"><ele>324.0</ele><time>2026-04-18T13:11:22Z</time></trkpt><trkpt lat="43.54058947417771" lon="5.943991450572017"><ele>324.0</ele><time>2026-04-18T13:11:23Z</time></trkpt><trkpt lat="43.5405556487612" lon="5.94410765497895"><ele>324.1666666666667</ele><time>2026-04-18T13:11:24Z</time></trkpt><trkpt lat="43.54051915466471" lon="5.944231739337139"><ele>324.3333333333333</ele><time>2026-04-18T13:11:25Z</time></trkpt><trkpt lat="43.54048507162591" lon="5.944346130437801"><ele>324.5</ele><time>2026-04-18T13:11:26Z</time></trkpt><trkpt lat="43.54045074698246" lon="5.944465200475348"><ele>324.66666666666663</ele><time>2026-04-18T13:11:27Z</time></trkpt><trkpt lat="43.54041164454724" lon="5.944578266536355"><ele>324.8333333333333</ele><time>2026-04-18T13:11:28Z</time></trkpt><trkpt lat="43.54036657564582" lon="5.94466523064559"><ele>325.0</ele><time>2026-04-18T13:11:29Z</time></trkpt><trkpt lat="43.540327106894956" lon="5.944736238505932"><ele>323.0</ele><time>2026-04-18T13:11:30Z</time></trkpt><trkpt lat="43.54025369432982" lon="5.944809104843379"><ele>321.0</ele><time>2026-04-18T13:11:32Z</time></trkpt><trkpt lat="43.54011341865395" lon="5.944873393725241"><ele>319.0</ele><time>2026-04-18T13:11:46Z</time></trkpt><trkpt lat="43.54000757862314" lon="5.944911334525334"><ele>317.0</ele><time>2026-04-18T13:11:47Z</time></trkpt><trkpt lat="43.539912914304686" lon="5.94493839787695"><ele>315.0</ele><time>2026-04-18T13:11:48Z</time></trkpt><trkpt lat="43.53981706089756" lon="5.944963870490457"><ele>315.0</ele><time>2026-04-18T13:11:49Z</time></trkpt><trkpt lat="43.53972910940057" lon="5.944994598643241"><ele>315.0</ele><time>2026-04-18T13:11:50Z</time></trkpt><trkpt lat="43.53964976171842" lon="5.945019490243597"><ele>315.0</ele><time>2026-04-18T13:11:51Z</time></trkpt><trkpt lat="43.53956758728241" lon="5.945049757630926"><ele>315.0</ele><time>2026-04-18T13:11:52Z</time></trkpt><trkpt lat="43.53948434905861" lon="5.945075512709008"><ele>315.0</ele><time>2026-04-18T13:11:53Z</time></trkpt><trkpt lat="43.53940180369033" lon="5.9451049194582435"><ele>315.0</ele><time>2026-04-18T13:11:54Z</time></trkpt><trkpt lat="43.539323663449" lon="5.945130717978577"><ele>314.8</ele><time>2026-04-18T13:11:55Z</time></trkpt><trkpt lat="43.53925511583266" lon="5.945157591908269"><ele>314.6</ele><time>2026-04-18T13:11:56Z</time></trkpt><trkpt lat="43.53914180479747" lon="5.94519502519154"><ele>314.4</ele><time>2026-04-18T13:11:58Z</time></trkpt><trkpt lat="43.53905825874684" lon="5.945205683570092"><ele>314.2</ele><time>2026-04-18T13:12:00Z</time></trkpt><trkpt lat="43.5390002194873" lon="5.94531887827971"><ele>314.0</ele><time>2026-04-18T13:12:04Z</time></trkpt><trkpt lat="43.53898139631004" lon="5.945436403585119"><ele>314.0</ele><time>2026-04-18T13:12:05Z</time></trkpt><trkpt lat="43.53894833177881" lon="5.945569622431952"><ele>314.0</ele><time>2026-04-18T13:12:06Z</time></trkpt><trkpt lat="43.53890461045598" lon="5.945652225372284"><ele>314.0</ele><time>2026-04-18T13:12:07Z</time></trkpt><trkpt lat="43.53885251472918" lon="5.945710049831444"><ele>314.0</ele><time>2026-04-18T13:12:08Z</time></trkpt><trkpt lat="43.53880992989498" lon="5.945775396146218"><ele>314.0</ele><time>2026-04-18T13:12:09Z</time></trkpt><trkpt lat="43.53875722011763" lon="5.945902599181356"><ele>314.0</ele><time>2026-04-18T13:12:11Z</time></trkpt><trkpt lat="43.538717943739215" lon="5.946050019735405"><ele>314.4</ele><time>2026-04-18T13:12:13Z</time></trkpt><trkpt lat="43.53867834263722" lon="5.94614110467459"><ele>314.79999999999995</ele><time>2026-04-18T13:12:15Z</time></trkpt><trkpt lat="43.5385650900011" lon="5.946195460503044"><ele>315.20000000000005</ele><time>2026-04-18T13:12:17Z</time></trkpt><trkpt lat="43.538474607403145" lon="5.946214102409714"><ele>315.6</ele><time>2026-04-18T13:12:18Z</time></trkpt><trkpt lat="43.53838895738825" lon="5.946217684760598"><ele>316.0</ele><time>2026-04-18T13:12:19Z</time></trkpt><trkpt lat="43.53830882716307" lon="5.946205688176077"><ele>316.0</ele><time>2026-04-18T13:12:20Z</time></trkpt><trkpt lat="43.53823272910728" lon="5.9461886405036894"><ele>316.0</ele><time>2026-04-18T13:12:21Z</time></trkpt><trkpt lat="43.538169843712375" lon="5.946159433396433"><ele>316.0</ele><time>2026-04-18T13:12:22Z</time></trkpt><trkpt lat="43.53812990205779" lon="5.946087624906265"><ele>316.0</ele><time>2026-04-18T13:12:23Z</time></trkpt><trkpt lat="43.538061855844525" lon="5.945923461723361"><ele>316.0</ele><time>2026-04-18T13:12:25Z</time></trkpt><trkpt lat="43.53800303412999" lon="5.945792343872198"><ele>315.25</ele><time>2026-04-18T13:12:26Z</time></trkpt><trkpt lat="43.53796312789431" lon="5.945647971974424"><ele>314.5</ele><time>2026-04-18T13:12:27Z</time></trkpt><trkpt lat="43.53790382976955" lon="5.945499863679235"><ele>313.75</ele><time>2026-04-18T13:12:28Z</time></trkpt><trkpt lat="43.537845019552314" lon="5.945364599196308"><ele>313.0</ele><time>2026-04-18T13:12:29Z</time></trkpt><trkpt lat="43.537772049302795" lon="5.945242378517738"><ele>311.4</ele><time>2026-04-18T13:12:30Z</time></trkpt><trkpt lat="43.53772087092151" lon="5.9451077313908645"><ele>309.8</ele><time>2026-04-18T13:12:31Z</time></trkpt><trkpt lat="43.537664717140245" lon="5.944984838322886"><ele>308.2</ele><time>2026-04-18T13:12:32Z</time></trkpt><trkpt lat="43.537612528615696" lon="5.944859222294777"><ele>306.6</ele><time>2026-04-18T13:12:33Z</time></trkpt><trkpt lat="43.53756111446416" lon="5.944727197560904"><ele>305.0</ele><time>2026-04-18T13:12:34Z</time></trkpt><trkpt lat="43.537509290268765" lon="5.944606209419238"><ele>304.14285714285717</ele><time>2026-04-18T13:12:35Z</time></trkpt><trkpt lat="43.537461830356605" lon="5.944500286413412"><ele>303.2857142857143</ele><time>2026-04-18T13:12:36Z</time></trkpt><trkpt lat="43.53743090681607" lon="5.9444246011468564"><ele>302.42857142857144</ele><time>2026-04-18T13:12:37Z</time></trkpt><trkpt lat="43.5374053102506" lon="5.9443432847972515"><ele>301.57142857142856</ele><time>2026-04-18T13:12:38Z</time></trkpt><trkpt lat="43.537371295058485" lon="5.944255263645651"><ele>300.7142857142857</ele><time>2026-04-18T13:12:39Z</time></trkpt><trkpt lat="43.53733236067673" lon="5.94415704563178"><ele>299.85714285714283</ele><time>2026-04-18T13:12:40Z</time></trkpt><trkpt lat="43.53729274146648" lon="5.944068255901403"><ele>299.0</ele><time>2026-04-18T13:12:41Z</time></trkpt><trkpt lat="43.53724723503313" lon="5.943979608964533"><ele>298.2</ele><time>2026-04-18T13:12:42Z</time></trkpt><trkpt lat="43.537195569028846" lon="5.943920989198686"><ele>297.4</ele><time>2026-04-18T13:12:44Z</time></trkpt><trkpt lat="43.5371604840767" lon="5.943838694859983"><ele>296.6</ele><time>2026-04-18T13:12:46Z</time></trkpt><trkpt lat="43.53710126910511" lon="5.943792773561086"><ele>295.8</ele><time>2026-04-18T13:12:51Z</time></trkpt><trkpt lat="43.53697122388503" lon="5.943746748579042"><ele>295.0</ele><time>2026-04-18T13:12:53Z</time></trkpt><trkpt lat="43.5368552162997" lon="5.943771965166488"><ele>293.0</ele><time>2026-04-18T13:12:54Z</time></trkpt><trkpt lat="43.53674388844657" lon="5.943789738625613"><ele>291.0</ele><time>2026-04-18T13:12:55Z</time></trkpt><trkpt lat="43.536630320278086" lon="5.943805019648196"><ele>289.0</ele><time>2026-04-18T13:12:56Z</time></trkpt><trkpt lat="43.53649351386435" lon="5.943829704064716"><ele>287.0</ele><time>2026-04-18T13:12:57Z</time></trkpt><trkpt lat="43.536339919619444" lon="5.943860607717627"><ele>285.33333333333337</ele><time>2026-04-18T13:12:58Z</time></trkpt><trkpt lat="43.53617906288745" lon="5.9438882956506465"><ele>283.6666666666667</ele><time>2026-04-18T13:12:59Z</time></trkpt><trkpt lat="43.53603085291489" lon="5.943911208009398"><ele>282.0</ele><time>2026-04-18T13:13:00Z</time></trkpt><trkpt lat="43.53587108214687" lon="5.943934381804106"><ele>282.0</ele><time>2026-04-18T13:13:01Z</time></trkpt><trkpt lat="43.53569333911293" lon="5.943971414197454"><ele>282.0</ele><time>2026-04-18T13:13:02Z</time></trkpt><trkpt lat="43.535540308554765" lon="5.9440302569397305"><ele>282.0</ele><time>2026-04-18T13:13:03Z</time></trkpt><trkpt lat="43.53541361032595" lon="5.944114074041072"><ele>281.0</ele><time>2026-04-18T13:13:04Z</time></trkpt><trkpt lat="43.53528287438798" lon="5.944209341160562"><ele>280.0</ele><time>2026-04-18T13:13:05Z</time></trkpt><trkpt lat="43.53515660873934" lon="5.944318259454977"><ele>279.0</ele><time>2026-04-18T13:13:06Z</time></trkpt><trkpt lat="43.53502865368392" lon="5.944424542751114"><ele>278.0</ele><time>2026-04-18T13:13:07Z</time></trkpt><trkpt lat="43.534908570270176" lon="5.944532336648294"><ele>278.0</ele><time>2026-04-18T13:13:08Z</time></trkpt><trkpt lat="43.53480171271904" lon="5.944628039275673"><ele>278.0</ele><time>2026-04-18T13:13:09Z</time></trkpt><trkpt lat="43.534689041368416" lon="5.9447229624408"><ele>278.0</ele><time>2026-04-18T13:13:10Z</time></trkpt><trkpt lat="43.53458752129441" lon="5.944810103166663"><ele>278.0</ele><time>2026-04-18T13:13:11Z</time></trkpt><trkpt lat="43.53448111145896" lon="5.9448975734787215"><ele>278.0</ele><time>2026-04-18T13:13:12Z</time></trkpt><trkpt lat="43.534366307261095" lon="5.944990912404141"><ele>278.0</ele><time>2026-04-18T13:13:13Z</time></trkpt><trkpt lat="43.53421222284869" lon="5.945104271230286"><ele>278.0</ele><time>2026-04-18T13:13:14Z</time></trkpt><trkpt lat="43.53410213349147" lon="5.945209650825153"><ele>278.0</ele><time>2026-04-18T13:13:15Z</time></trkpt><trkpt lat="43.53398905458604" lon="5.945306820680211"><ele>278.0</ele><time>2026-04-18T13:13:16Z</time></trkpt><trkpt lat="43.533877360218185" lon="5.945393391604328"><ele>278.0</ele><time>2026-04-18T13:13:17Z</time></trkpt><trkpt lat="43.53377441842735" lon="5.945483710488403"><ele>278.0</ele><time>2026-04-18T13:13:18Z</time></trkpt><trkpt lat="43.5336731824984" lon="5.945568045211668"><ele>278.0</ele><time>2026-04-18T13:13:19Z</time></trkpt><trkpt lat="43.53356093686706" lon="5.945667494548052"><ele>277.75</ele><time>2026-04-18T13:13:20Z</time></trkpt><trkpt lat="43.533431473202825" lon="5.94577732370651"><ele>277.5</ele><time>2026-04-18T13:13:21Z</time></trkpt><trkpt lat="43.53330905288085" lon="5.945879286961976"><ele>277.25</ele><time>2026-04-18T13:13:22Z</time></trkpt><trkpt lat="43.53319885919595" lon="5.945968521126094"><ele>277.0</ele><time>2026-04-18T13:13:23Z</time></trkpt><trkpt lat="43.53308857154067" lon="5.946040726974867"><ele>277.0</ele><time>2026-04-18T13:13:24Z</time></trkpt><trkpt lat="43.53297648180573" lon="5.9461073739329"><ele>277.0</ele><time>2026-04-18T13:13:25Z</time></trkpt><trkpt lat="43.53284799235303" lon="5.946180448468841"><ele>277.0</ele><time>2026-04-18T13:13:26Z</time></trkpt><trkpt lat="43.53271370608919" lon="5.946264353120763"><ele>277.0</ele><time>2026-04-18T13:13:27Z</time></trkpt><trkpt lat="43.532586474522006" lon="5.946346327692371"><ele>276.5</ele><time>2026-04-18T13:13:28Z</time></trkpt><trkpt lat="43.532459111140035" lon="5.9464260436464516"><ele>276.0</ele><time>2026-04-18T13:13:29Z</time></trkpt><trkpt lat="43.53234396431952" lon="5.94650565266044"><ele>275.5</ele><time>2026-04-18T13:13:30Z</time></trkpt><trkpt lat="43.53222984127464" lon="5.946579535800862"><ele>275.0</ele><time>2026-04-18T13:13:31Z</time></trkpt><trkpt lat="43.532114579073735" lon="5.946646222828245"><ele>276.25</ele><time>2026-04-18T13:13:32Z</time></trkpt><trkpt lat="43.53198797967954" lon="5.946714731197949"><ele>277.5</ele><time>2026-04-18T13:13:33Z</time></trkpt><trkpt lat="43.531868776045464" lon="5.946753584994645"><ele>278.75</ele><time>2026-04-18T13:13:34Z</time></trkpt><trkpt lat="43.53175596668461" lon="5.946776396058267"><ele>280.0</ele><time>2026-04-18T13:13:35Z</time></trkpt><trkpt lat="43.53162320229322" lon="5.946786517103572"><ele>280.0</ele><time>2026-04-18T13:13:36Z</time></trkpt><trkpt lat="43.531483553150316" lon="5.946747747653792"><ele>280.0</ele><time>2026-04-18T13:13:37Z</time></trkpt><trkpt lat="43.53134625039328" lon="5.946735947818552"><ele>280.0</ele><time>2026-04-18T13:13:38Z</time></trkpt><trkpt lat="43.53120782451577" lon="5.9466979178895265"><ele>280.0</ele><time>2026-04-18T13:13:39Z</time></trkpt><trkpt lat="43.53107729301093" lon="5.946659335598661"><ele>277.25</ele><time>2026-04-18T13:13:40Z</time></trkpt><trkpt lat="43.53094603481605" lon="5.94662882600069"><ele>274.5</ele><time>2026-04-18T13:13:41Z</time></trkpt><trkpt lat="43.530821633730554" lon="5.946603122706481"><ele>271.75</ele><time>2026-04-18T13:13:42Z</time></trkpt><trkpt lat="43.53070177200278" lon="5.946579163851086"><ele>269.0</ele><time>2026-04-18T13:13:43Z</time></trkpt><trkpt lat="43.530587736151006" lon="5.946546971528352"><ele>269.0</ele><time>2026-04-18T13:13:44Z</time></trkpt><trkpt lat="43.53047771170527" lon="5.94652890630077"><ele>269.0</ele><time>2026-04-18T13:13:45Z</time></trkpt><trkpt lat="43.530368223411976" lon="5.9465018874679405"><ele>269.0</ele><time>2026-04-18T13:13:46Z</time></trkpt><trkpt lat="43.53025837149773" lon="5.946477292769197"><ele>269.0</ele><time>2026-04-18T13:13:47Z</time></trkpt><trkpt lat="43.530127892239875" lon="5.946440209037494"><ele>268.25</ele><time>2026-04-18T13:13:48Z</time></trkpt><trkpt lat="43.529976103116525" lon="5.946408307707747"><ele>267.5</ele><time>2026-04-18T13:13:49Z</time></trkpt><trkpt lat="43.5298255602805" lon="5.946382308900174"><ele>266.75</ele><time>2026-04-18T13:13:50Z</time></trkpt><trkpt lat="43.52969293389681" lon="5.946357561748958"><ele>266.0</ele><time>2026-04-18T13:13:51Z</time></trkpt><trkpt lat="43.52956397150402" lon="5.946337457376155"><ele>265.0</ele><time>2026-04-18T13:13:52Z</time></trkpt><trkpt lat="43.52943493112613" lon="5.946310210912123"><ele>264.0</ele><time>2026-04-18T13:13:53Z</time></trkpt><trkpt lat="43.52930066114924" lon="5.94627942638532"><ele>263.0</ele><time>2026-04-18T13:13:54Z</time></trkpt><trkpt lat="43.52916651562482" lon="5.946249706111475"><ele>262.0</ele><time>2026-04-18T13:13:55Z</time></trkpt><trkpt lat="43.529032340198455" lon="5.9462190677589115"><ele>262.0</ele><time>2026-04-18T13:13:56Z</time></trkpt><trkpt lat="43.528909581657416" lon="5.946193537058064"><ele>262.0</ele><time>2026-04-18T13:13:57Z</time></trkpt><trkpt lat="43.52879301542325" lon="5.946166415215002"><ele>262.0</ele><time>2026-04-18T13:13:58Z</time></trkpt><trkpt lat="43.528680535568135" lon="5.94613439878851"><ele>262.0</ele><time>2026-04-18T13:13:59Z</time></trkpt><trkpt lat="43.52857523654906" lon="5.9461073785673335"><ele>262.5</ele><time>2026-04-18T13:14:00Z</time></trkpt><trkpt lat="43.52845314338604" lon="5.9460846680435875"><ele>263.0</ele><time>2026-04-18T13:14:01Z</time></trkpt><trkpt lat="43.52832637119469" lon="5.946054871674619"><ele>263.5</ele><time>2026-04-18T13:14:02Z</time></trkpt><trkpt lat="43.52821164998321" lon="5.946027920193221"><ele>264.0</ele><time>2026-04-18T13:14:03Z</time></trkpt><trkpt lat="43.52811086343917" lon="5.94600619620447"><ele>264.0</ele><time>2026-04-18T13:14:04Z</time></trkpt><trkpt lat="43.528012809242014" lon="5.945971545117537"><ele>264.0</ele><time>2026-04-18T13:14:05Z</time></trkpt><trkpt lat="43.52792836501482" lon="5.945952963570028"><ele>264.0</ele><time>2026-04-18T13:14:06Z</time></trkpt><trkpt lat="43.52782940824123" lon="5.945944266851181"><ele>264.0</ele><time>2026-04-18T13:14:08Z</time></trkpt><trkpt lat="43.52780470464331" lon="5.945818821986012"><ele>264.0</ele><time>2026-04-18T13:14:11Z</time></trkpt><trkpt lat="43.52777139600102" lon="5.9457432907477035"><ele>264.0</ele><time>2026-04-18T13:14:12Z</time></trkpt><trkpt lat="43.52772166143436" lon="5.945630896936752"><ele>264.59999999999997</ele><time>2026-04-18T13:14:13Z</time></trkpt><trkpt lat="43.527661204209686" lon="5.945496141612641"><ele>265.2</ele><time>2026-04-18T13:14:14Z</time></trkpt><trkpt lat="43.527597709021414" lon="5.945354614673299"><ele>265.79999999999995</ele><time>2026-04-18T13:14:15Z</time></trkpt><trkpt lat="43.527540166309265" lon="5.945226353743375"><ele>266.4</ele><time>2026-04-18T13:14:16Z</time></trkpt><trkpt lat="43.5274870984417" lon="5.945108724710784"><ele>267.0</ele><time>2026-04-18T13:14:17Z</time></trkpt><trkpt lat="43.52743047612242" lon="5.945021105236703"><ele>267.0</ele><time>2026-04-18T13:14:18Z</time></trkpt><trkpt lat="43.527392059449916" lon="5.944919272607841"><ele>267.0</ele><time>2026-04-18T13:14:19Z</time></trkpt><trkpt lat="43.52734917521817" lon="5.944811460955055"><ele>267.0</ele><time>2026-04-18T13:14:20Z</time></trkpt><trkpt lat="43.52728958979802" lon="5.9446642978719915"><ele>267.0</ele><time>2026-04-18T13:14:21Z</time></trkpt><trkpt lat="43.52723147654924" lon="5.944537915784288"><ele>267.0</ele><time>2026-04-18T13:14:22Z</time></trkpt><trkpt lat="43.52716713964995" lon="5.944411679019246"><ele>267.0</ele><time>2026-04-18T13:14:23Z</time></trkpt><trkpt lat="43.527112885486" lon="5.9442813665752885"><ele>267.0</ele><time>2026-04-18T13:14:24Z</time></trkpt><trkpt lat="43.5270487927702" lon="5.944149092664981"><ele>267.0</ele><time>2026-04-18T13:14:25Z</time></trkpt><trkpt lat="43.5269851152047" lon="5.944004345277577"><ele>267.0</ele><time>2026-04-18T13:14:26Z</time></trkpt><trkpt lat="43.526920918146374" lon="5.943872838809132"><ele>266.5</ele><time>2026-04-18T13:14:27Z</time></trkpt><trkpt lat="43.5268689656175" lon="5.943713989022604"><ele>266.0</ele><time>2026-04-18T13:14:28Z</time></trkpt><trkpt lat="43.52681804738034" lon="5.943588553105021"><ele>265.5</ele><time>2026-04-18T13:14:29Z</time></trkpt><trkpt lat="43.52676023670978" lon="5.943456278816839"><ele>265.0</ele><time>2026-04-18T13:14:30Z</time></trkpt><trkpt lat="43.52669749767439" lon="5.943322098628982"><ele>265.0</ele><time>2026-04-18T13:14:31Z</time></trkpt><trkpt lat="43.52661805395115" lon="5.943148589499106"><ele>265.0</ele><time>2026-04-18T13:14:32Z</time></trkpt><trkpt lat="43.52651801696264" lon="5.942988230784805"><ele>265.0</ele><time>2026-04-18T13:14:33Z</time></trkpt><trkpt lat="43.526449662197926" lon="5.942832249611827"><ele>265.0</ele><time>2026-04-18T13:14:34Z</time></trkpt><trkpt lat="43.526390820103664" lon="5.942689585252848"><ele>265.0</ele><time>2026-04-18T13:14:35Z</time></trkpt><trkpt lat="43.52633095611049" lon="5.942565976839886"><ele>265.0</ele><time>2026-04-18T13:14:36Z</time></trkpt><trkpt lat="43.52626816013645" lon="5.942429799754883"><ele>265.0</ele><time>2026-04-18T13:14:37Z</time></trkpt><trkpt lat="43.52620812914087" lon="5.942292266650657"><ele>265.0</ele><time>2026-04-18T13:14:38Z</time></trkpt><trkpt lat="43.52614289708392" lon="5.942137367937091"><ele>265.0</ele><time>2026-04-18T13:14:39Z</time></trkpt><trkpt lat="43.52607108757408" lon="5.941984239536417"><ele>265.0</ele><time>2026-04-18T13:14:40Z</time></trkpt><trkpt lat="43.525997125051155" lon="5.941837132516212"><ele>265.0</ele><time>2026-04-18T13:14:41Z</time></trkpt><trkpt lat="43.52591017805427" lon="5.941703543146023"><ele>265.0</ele><time>2026-04-18T13:14:42Z</time></trkpt><trkpt lat="43.52580719732604" lon="5.941574151756221"><ele>265.0</ele><time>2026-04-18T13:14:43Z</time></trkpt><trkpt lat="43.52569141821674" lon="5.941442132354178"><ele>265.0</ele><time>2026-04-18T13:14:44Z</time></trkpt><trkpt lat="43.525578632125516" lon="5.9413194105414"><ele>265.0</ele><time>2026-04-18T13:14:45Z</time></trkpt><trkpt lat="43.52547188357881" lon="5.941206962092375"><ele>265.0</ele><time>2026-04-18T13:14:46Z</time></trkpt><trkpt lat="43.52537257011488" lon="5.9410950410951635"><ele>264.5</ele><time>2026-04-18T13:14:47Z</time></trkpt><trkpt lat="43.525267946269" lon="5.940984768104104"><ele>264.0</ele><time>2026-04-18T13:14:48Z</time></trkpt><trkpt lat="43.525163184573145" lon="5.940871353070274"><ele>263.5</ele><time>2026-04-18T13:14:49Z</time></trkpt><trkpt lat="43.525068079319276" lon="5.940767506731714"><ele>263.0</ele><time>2026-04-18T13:14:50Z</time></trkpt><trkpt lat="43.52497617813649" lon="5.940672721199371"><ele>263.0</ele><time>2026-04-18T13:14:51Z</time></trkpt><trkpt lat="43.52488104802682" lon="5.940570352974178"><ele>263.0</ele><time>2026-04-18T13:14:52Z</time></trkpt><trkpt lat="43.52478951271217" lon="5.940460699072423"><ele>263.0</ele><time>2026-04-18T13:14:53Z</time></trkpt><trkpt lat="43.524712600552384" lon="5.940343618319838"><ele>263.0</ele><time>2026-04-18T13:14:54Z</time></trkpt><trkpt lat="43.5246504407" lon="5.940231632321423"><ele>263.0</ele><time>2026-04-18T13:14:55Z</time></trkpt><trkpt lat="43.524586235611594" lon="5.940133009403998"><ele>263.0</ele><time>2026-04-18T13:14:56Z</time></trkpt><trkpt lat="43.524514146595486" lon="5.940057576702624"><ele>263.0</ele><time>2026-04-18T13:14:57Z</time></trkpt><trkpt lat="43.52443474573258" lon="5.940004592421281"><ele>263.0</ele><time>2026-04-18T13:14:58Z</time></trkpt><trkpt lat="43.52436040463182" lon="5.939957180402468"><ele>263.0</ele><time>2026-04-18T13:14:59Z</time></trkpt><trkpt lat="43.52429824876279" lon="5.939896638534002"><ele>263.0</ele><time>2026-04-18T13:15:00Z</time></trkpt><trkpt lat="43.524242246080476" lon="5.9398363109976025"><ele>263.4</ele><time>2026-04-18T13:15:01Z</time></trkpt><trkpt lat="43.524186595438664" lon="5.939784984462339"><ele>263.8</ele><time>2026-04-18T13:15:02Z</time></trkpt><trkpt lat="43.52406761450665" lon="5.939767246836095"><ele>264.2</ele><time>2026-04-18T13:15:04Z</time></trkpt><trkpt lat="43.52400618272478" lon="5.939807855244424"><ele>264.6</ele><time>2026-04-18T13:15:05Z</time></trkpt><trkpt lat="43.52392366689098" lon="5.939844639160912"><ele>265.0</ele><time>2026-04-18T13:15:06Z</time></trkpt><trkpt lat="43.52381036135628" lon="5.939882500347649"><ele>266.0</ele><time>2026-04-18T13:15:07Z</time></trkpt><trkpt lat="43.523670821160536" lon="5.939923715584376"><ele>267.0</ele><time>2026-04-18T13:15:08Z</time></trkpt><trkpt lat="43.5235130783491" lon="5.939974564001771"><ele>268.0</ele><time>2026-04-18T13:15:09Z</time></trkpt><trkpt lat="43.52335646026663" lon="5.940031385423788"><ele>267.66666666666663</ele><time>2026-04-18T13:15:10Z</time></trkpt><trkpt lat="43.52317923885995" lon="5.94009400411674"><ele>267.3333333333333</ele><time>2026-04-18T13:15:11Z</time></trkpt><trkpt lat="43.522999315074806" lon="5.940156435831969"><ele>267.0</ele><time>2026-04-18T13:15:12Z</time></trkpt><trkpt lat="43.52281786581709" lon="5.9402172158828455"><ele>268.3333333333333</ele><time>2026-04-18T13:15:13Z</time></trkpt><trkpt lat="43.522624398146455" lon="5.9402862224792505"><ele>269.66666666666663</ele><time>2026-04-18T13:15:14Z</time></trkpt><trkpt lat="43.522415676403654" lon="5.940361862465584"><ele>271.0</ele><time>2026-04-18T13:15:15Z</time></trkpt><trkpt lat="43.52220359327283" lon="5.940443419233176"><ele>273.3333333333333</ele><time>2026-04-18T13:15:16Z</time></trkpt><trkpt lat="43.52201903968846" lon="5.940510599814032"><ele>275.6666666666667</ele><time>2026-04-18T13:15:17Z</time></trkpt><trkpt lat="43.52184609175107" lon="5.940569799924581"><ele>278.0</ele><time>2026-04-18T13:15:18Z</time></trkpt><trkpt lat="43.521668281192916" lon="5.940633961227588"><ele>278.0</ele><time>2026-04-18T13:15:19Z</time></trkpt><trkpt lat="43.52149751883437" lon="5.940695094843117"><ele>278.0</ele><time>2026-04-18T13:15:20Z</time></trkpt><trkpt lat="43.52132349450905" lon="5.940752911533708"><ele>278.0</ele><time>2026-04-18T13:15:21Z</time></trkpt><trkpt lat="43.52113857142364" lon="5.9408145369246546"><ele>279.6666666666667</ele><time>2026-04-18T13:15:22Z</time></trkpt><trkpt lat="43.52097103511208" lon="5.940873019115856"><ele>281.3333333333333</ele><time>2026-04-18T13:15:23Z</time></trkpt><trkpt lat="43.520824375024574" lon="5.940924739821478"><ele>283.0</ele><time>2026-04-18T13:15:24Z</time></trkpt><trkpt lat="43.5206840005" lon="5.940943231486527"><ele>283.4</ele><time>2026-04-18T13:15:25Z</time></trkpt><trkpt lat="43.52056126734326" lon="5.940990130661536"><ele>283.8</ele><time>2026-04-18T13:15:26Z</time></trkpt><trkpt lat="43.52044945624683" lon="5.941032183865475"><ele>284.2</ele><time>2026-04-18T13:15:27Z</time></trkpt><trkpt lat="43.52035041112168" lon="5.941055488797484"><ele>284.6</ele><time>2026-04-18T13:15:28Z</time></trkpt><trkpt lat="43.52026030882446" lon="5.941073442896946"><ele>285.0</ele><time>2026-04-18T13:15:29Z</time></trkpt><trkpt lat="43.520189439057276" lon="5.941043328276244"><ele>287.0</ele><time>2026-04-18T13:15:30Z</time></trkpt><trkpt lat="43.5201119181065" lon="5.940989911326022"><ele>289.0</ele><time>2026-04-18T13:15:31Z</time></trkpt><trkpt lat="43.5199872642656" lon="5.940924259501604"><ele>291.0</ele><time>2026-04-18T13:15:32Z</time></trkpt><trkpt lat="43.51984590480695" lon="5.9408498076900385"><ele>293.0</ele><time>2026-04-18T13:15:33Z</time></trkpt><trkpt lat="43.519694900116285" lon="5.940793974010683"><ele>293.0</ele><time>2026-04-18T13:15:34Z</time></trkpt><trkpt lat="43.51959303509006" lon="5.940716622978632"><ele>293.0</ele><time>2026-04-18T13:15:35Z</time></trkpt><trkpt lat="43.51946988843873" lon="5.940739131617239"><ele>293.0</ele><time>2026-04-18T13:15:36Z</time></trkpt><trkpt lat="43.51932913317926" lon="5.9407542120601455"><ele>293.0</ele><time>2026-04-18T13:15:37Z</time></trkpt><trkpt lat="43.51917356115737" lon="5.940765047302792"><ele>295.0</ele><time>2026-04-18T13:15:38Z</time></trkpt><trkpt lat="43.5190426615" lon="5.940764830377767"><ele>297.0</ele><time>2026-04-18T13:15:39Z</time></trkpt><trkpt lat="43.518925395798576" lon="5.940744676195468"><ele>299.0</ele><time>2026-04-18T13:15:40Z</time></trkpt><trkpt lat="43.51880956613425" lon="5.940700084259074"><ele>301.0</ele><time>2026-04-18T13:15:41Z</time></trkpt><trkpt lat="43.51867251954173" lon="5.940642249840762"><ele>303.0</ele><time>2026-04-18T13:15:42Z</time></trkpt><trkpt lat="43.518536316143994" lon="5.940607728922257"><ele>305.0</ele><time>2026-04-18T13:15:43Z</time></trkpt><trkpt lat="43.51842241061634" lon="5.94062231958792"><ele>307.0</ele><time>2026-04-18T13:15:44Z</time></trkpt><trkpt lat="43.518317939387984" lon="5.940674419633709"><ele>309.0</ele><time>2026-04-18T13:15:45Z</time></trkpt><trkpt lat="43.51819940410157" lon="5.9407523934324"><ele>309.0</ele><time>2026-04-18T13:15:46Z</time></trkpt><trkpt lat="43.51808451507258" lon="5.940836027235412"><ele>309.0</ele><time>2026-04-18T13:15:47Z</time></trkpt><trkpt lat="43.517967821107185" lon="5.940910975962105"><ele>309.0</ele><time>2026-04-18T13:15:48Z</time></trkpt><trkpt lat="43.51785792831275" lon="5.94098621205995"><ele>309.0</ele><time>2026-04-18T13:15:49Z</time></trkpt><trkpt lat="43.517740403419566" lon="5.9410774411480824"><ele>311.0</ele><time>2026-04-18T13:15:50Z</time></trkpt><trkpt lat="43.51763364420262" lon="5.941156689983582"><ele>313.0</ele><time>2026-04-18T13:15:51Z</time></trkpt><trkpt lat="43.51755386627342" lon="5.941225420085291"><ele>315.0</ele><time>2026-04-18T13:15:52Z</time></trkpt><trkpt lat="43.517464557269136" lon="5.941305505753902"><ele>317.0</ele><time>2026-04-18T13:15:53Z</time></trkpt><trkpt lat="43.51736297270357" lon="5.94137603511273"><ele>319.0</ele><time>2026-04-18T13:15:54Z</time></trkpt><trkpt lat="43.51726970301761" lon="5.941416404668597"><ele>319.0</ele><time>2026-04-18T13:15:55Z</time></trkpt><trkpt lat="43.51718068609928" lon="5.941442346298922"><ele>319.0</ele><time>2026-04-18T13:15:56Z</time></trkpt><trkpt lat="43.51708730792904" lon="5.941453629100534"><ele>319.0</ele><time>2026-04-18T13:15:57Z</time></trkpt><trkpt lat="43.51697679633418" lon="5.941461917611436"><ele>319.0</ele><time>2026-04-18T13:15:58Z</time></trkpt><trkpt lat="43.5168426426033" lon="5.941463862261853"><ele>319.0</ele><time>2026-04-18T13:15:59Z</time></trkpt><trkpt lat="43.51668590857026" lon="5.941452556900574"><ele>320.5</ele><time>2026-04-18T13:16:00Z</time></trkpt><trkpt lat="43.516539571834926" lon="5.941457125707403"><ele>322.0</ele><time>2026-04-18T13:16:01Z</time></trkpt><trkpt lat="43.51642048827467" lon="5.94146547735615"><ele>323.5</ele><time>2026-04-18T13:16:02Z</time></trkpt><trkpt lat="43.51631264999676" lon="5.941468619382019"><ele>325.0</ele><time>2026-04-18T13:16:03Z</time></trkpt><trkpt lat="43.51621963247367" lon="5.94146267488304"><ele>326.0</ele><time>2026-04-18T13:16:04Z</time></trkpt><trkpt lat="43.516127911860664" lon="5.941453695424607"><ele>327.0</ele><time>2026-04-18T13:16:05Z</time></trkpt><trkpt lat="43.51601795015217" lon="5.941440109535709"><ele>328.0</ele><time>2026-04-18T13:16:06Z</time></trkpt><trkpt lat="43.51592308809636" lon="5.941403693683681"><ele>329.0</ele><time>2026-04-18T13:16:07Z</time></trkpt><trkpt lat="43.515845342447854" lon="5.941356786111528"><ele>330.0</ele><time>2026-04-18T13:16:08Z</time></trkpt><trkpt lat="43.51576827093228" lon="5.941330944384285"><ele>330.0</ele><time>2026-04-18T13:16:09Z</time></trkpt><trkpt lat="43.51566843208618" lon="5.941345382019518"><ele>330.0</ele><time>2026-04-18T13:16:10Z</time></trkpt><trkpt lat="43.51556935611712" lon="5.941392373696357"><ele>330.0</ele><time>2026-04-18T13:16:11Z</time></trkpt><trkpt lat="43.515476441929955" lon="5.941460450034168"><ele>330.0</ele><time>2026-04-18T13:16:12Z</time></trkpt><trkpt lat="43.51535654514721" lon="5.9415269691151265"><ele>330.0</ele><time>2026-04-18T13:16:13Z</time></trkpt><trkpt lat="43.51524646114381" lon="5.94158671578335"><ele>330.4</ele><time>2026-04-18T13:16:14Z</time></trkpt><trkpt lat="43.515154371418056" lon="5.941650800868637"><ele>330.8</ele><time>2026-04-18T13:16:15Z</time></trkpt><trkpt lat="43.515068789603376" lon="5.941678105066543"><ele>331.20000000000005</ele><time>2026-04-18T13:16:16Z</time></trkpt><trkpt lat="43.51498743689475" lon="5.9416626156078705"><ele>331.6</ele><time>2026-04-18T13:16:17Z</time></trkpt><trkpt lat="43.51491815614802" lon="5.941643504612954"><ele>332.0</ele><time>2026-04-18T13:16:18Z</time></trkpt><trkpt lat="43.51483370081479" lon="5.941751254570195"><ele>332.0</ele><time>2026-04-18T13:16:20Z</time></trkpt><trkpt lat="43.51484680420871" lon="5.941847302325748"><ele>332.0</ele><time>2026-04-18T13:16:21Z</time></trkpt><trkpt lat="43.51486372096109" lon="5.9419716752187774"><ele>332.0</ele><time>2026-04-18T13:16:22Z</time></trkpt><trkpt lat="43.51486388896667" lon="5.942135686612655"><ele>332.0</ele><time>2026-04-18T13:16:23Z</time></trkpt><trkpt lat="43.514852187935546" lon="5.942352072437992"><ele>332.0</ele><time>2026-04-18T13:16:24Z</time></trkpt><trkpt lat="43.514844050265296" lon="5.9425709606637165"><ele>332.40000000000003</ele><time>2026-04-18T13:16:25Z</time></trkpt><trkpt lat="43.51483440042816" lon="5.942738409206475"><ele>332.8</ele><time>2026-04-18T13:16:26Z</time></trkpt><trkpt lat="43.51483540236591" lon="5.942854296457464"><ele>333.2</ele><time>2026-04-18T13:16:27Z</time></trkpt><trkpt lat="43.514822128294824" lon="5.942991138889012"><ele>333.6</ele><time>2026-04-18T13:16:29Z</time></trkpt><trkpt lat="43.514723209271374" lon="5.943022322061628"><ele>334.0</ele><time>2026-04-18T13:16:31Z</time></trkpt><trkpt lat="43.514660884248606" lon="5.9430062694479595"><ele>334.0</ele><time>2026-04-18T13:16:32Z</time></trkpt><trkpt lat="43.51458476107973" lon="5.942968146856784"><ele>334.0</ele><time>2026-04-18T13:16:33Z</time></trkpt><trkpt lat="43.514479925353115" lon="5.942904919530395"><ele>334.0</ele><time>2026-04-18T13:16:34Z</time></trkpt><trkpt lat="43.51435612521537" lon="5.942832556794051"><ele>334.0</ele><time>2026-04-18T13:16:35Z</time></trkpt><trkpt lat="43.514235057608296" lon="5.942779857527719"><ele>334.2</ele><time>2026-04-18T13:16:36Z</time></trkpt><trkpt lat="43.514124351787736" lon="5.942769119742017"><ele>334.4</ele><time>2026-04-18T13:16:36.999Z</time></trkpt><trkpt lat="43.514020486946585" lon="5.94280500640635"><ele>334.6</ele><time>2026-04-18T13:16:37.999Z</time></trkpt><trkpt lat="43.51391644451699" lon="5.94286941584704"><ele>334.8</ele><time>2026-04-18T13:16:38.999Z</time></trkpt><trkpt lat="43.51380359926822" lon="5.9429099536633485"><ele>335.0</ele><time>2026-04-18T13:16:39.999Z</time></trkpt><trkpt lat="43.51368412194149" lon="5.942906627166189"><ele>333.25</ele><time>2026-04-18T13:16:40.999Z</time></trkpt><trkpt lat="43.51354045193977" lon="5.942889060172858"><ele>331.5</ele><time>2026-04-18T13:16:41.999Z</time></trkpt><trkpt lat="43.51338249218351" lon="5.9428602342985135"><ele>329.75</ele><time>2026-04-18T13:16:42.999Z</time></trkpt><trkpt lat="43.51324837483588" lon="5.942812128245664"><ele>328.0</ele><time>2026-04-18T13:16:43.999Z</time></trkpt><trkpt lat="43.51313242440489" lon="5.94275570494942"><ele>328.0</ele><time>2026-04-18T13:16:44.999Z</time></trkpt><trkpt lat="43.51303014573532" lon="5.942693276255435"><ele>328.0</ele><time>2026-04-18T13:16:45.999Z</time></trkpt><trkpt lat="43.5129395233401" lon="5.942632535159834"><ele>328.0</ele><time>2026-04-18T13:16:46.999Z</time></trkpt><trkpt lat="43.51284545771151" lon="5.942600521102908"><ele>328.0</ele><time>2026-04-18T13:16:47.999Z</time></trkpt><trkpt lat="43.51272322057422" lon="5.942603483544078"><ele>328.0</ele><time>2026-04-18T13:16:49Z</time></trkpt><trkpt lat="43.512601819144166" lon="5.942614174759406"><ele>328.16666666666663</ele><time>2026-04-18T13:16:50Z</time></trkpt><trkpt lat="43.51250536407522" lon="5.942625662072593"><ele>328.3333333333333</ele><time>2026-04-18T13:16:51Z</time></trkpt><trkpt lat="43.51243982302482" lon="5.942661341322893"><ele>328.5</ele><time>2026-04-18T13:16:52Z</time></trkpt><trkpt lat="43.51239540549016" lon="5.942732038657982"><ele>328.6666666666667</ele><time>2026-04-18T13:16:53Z</time></trkpt><trkpt lat="43.512350178321" lon="5.942825448933045"><ele>328.83333333333337</ele><time>2026-04-18T13:16:54Z</time></trkpt><trkpt lat="43.5122995123058" lon="5.942902634029505"><ele>329.0</ele><time>2026-04-18T13:16:55Z</time></trkpt><trkpt lat="43.51219708578734" lon="5.942904032619105"><ele>329.0</ele><time>2026-04-18T13:16:57Z</time></trkpt><trkpt lat="43.51214145586317" lon="5.942839598065816"><ele>329.0</ele><time>2026-04-18T13:16:58Z</time></trkpt><trkpt lat="43.512083472039436" lon="5.942710578701558"><ele>329.0</ele><time>2026-04-18T13:16:59Z</time></trkpt><trkpt lat="43.51201643647967" lon="5.942545396738357"><ele>329.0</ele><time>2026-04-18T13:17:00Z</time></trkpt><trkpt lat="43.51191932907175" lon="5.942380420501174"><ele>330.5</ele><time>2026-04-18T13:17:01Z</time></trkpt><trkpt lat="43.51178768103858" lon="5.942234189474278"><ele>332.0</ele><time>2026-04-18T13:17:02Z</time></trkpt><trkpt lat="43.51167766432994" lon="5.942115192545374"><ele>333.5</ele><time>2026-04-18T13:17:03Z</time></trkpt><trkpt lat="43.5115861466692" lon="5.942024790158109"><ele>335.0</ele><time>2026-04-18T13:17:04Z</time></trkpt><trkpt lat="43.51147916720503" lon="5.941951290259284"><ele>335.0</ele><time>2026-04-18T13:17:05Z</time></trkpt><trkpt lat="43.51136053630435" lon="5.941913596541339"><ele>335.0</ele><time>2026-04-18T13:17:06Z</time></trkpt><trkpt lat="43.51125313607652" lon="5.941883568851544"><ele>335.0</ele><time>2026-04-18T13:17:07Z</time></trkpt><trkpt lat="43.511083469264435" lon="5.941825149497162"><ele>335.0</ele><time>2026-04-18T13:17:08Z</time></trkpt><trkpt lat="43.51091905885136" lon="5.941758936281248"><ele>334.0</ele><time>2026-04-18T13:17:09Z</time></trkpt><trkpt lat="43.51077920557666" lon="5.941699429229857"><ele>333.0</ele><time>2026-04-18T13:17:10Z</time></trkpt><trkpt lat="43.51065671982543" lon="5.941647872484279"><ele>332.0</ele><time>2026-04-18T13:17:11Z</time></trkpt><trkpt lat="43.51055453622044" lon="5.941599895042759"><ele>331.0</ele><time>2026-04-18T13:17:12Z</time></trkpt><trkpt lat="43.51046741539257" lon="5.941581435329506"><ele>332.0</ele><time>2026-04-18T13:17:13Z</time></trkpt><trkpt lat="43.51035678742331" lon="5.941554261620789"><ele>333.0</ele><time>2026-04-18T13:17:14Z</time></trkpt><trkpt lat="43.510245361165765" lon="5.9414983828388115"><ele>334.0</ele><time>2026-04-18T13:17:15Z</time></trkpt><trkpt lat="43.510146653077314" lon="5.941423065901017"><ele>335.0</ele><time>2026-04-18T13:17:16Z</time></trkpt><trkpt lat="43.51005196693205" lon="5.941323744365574"><ele>335.0</ele><time>2026-04-18T13:17:17Z</time></trkpt><trkpt lat="43.509954212958284" lon="5.941214920092595"><ele>335.0</ele><time>2026-04-18T13:17:18Z</time></trkpt><trkpt lat="43.50987423416291" lon="5.9410963038880595"><ele>335.0</ele><time>2026-04-18T13:17:19Z</time></trkpt><trkpt lat="43.50980749210444" lon="5.9409769799429535"><ele>335.0</ele><time>2026-04-18T13:17:20Z</time></trkpt><trkpt lat="43.50973653108626" lon="5.940839387918215"><ele>334.25</ele><time>2026-04-18T13:17:21Z</time></trkpt><trkpt lat="43.50964455393276" lon="5.940677642991424"><ele>333.5</ele><time>2026-04-18T13:17:22Z</time></trkpt><trkpt lat="43.50954285587918" lon="5.940511745990798"><ele>332.75</ele><time>2026-04-18T13:17:23Z</time></trkpt><trkpt lat="43.509452780082015" lon="5.940370780162066"><ele>332.0</ele><time>2026-04-18T13:17:24Z</time></trkpt><trkpt lat="43.50936453290327" lon="5.94024484252964"><ele>332.0</ele><time>2026-04-18T13:17:25Z</time></trkpt><trkpt lat="43.509281347975275" lon="5.940122372890798"><ele>332.0</ele><time>2026-04-18T13:17:26Z</time></trkpt><trkpt lat="43.509208826573506" lon="5.940000735781728"><ele>332.0</ele><time>2026-04-18T13:17:27Z</time></trkpt><trkpt lat="43.50914999594232" lon="5.939887901219614"><ele>332.0</ele><time>2026-04-18T13:17:28Z</time></trkpt><trkpt lat="43.50910003809323" lon="5.9397550994173045"><ele>332.0</ele><time>2026-04-18T13:17:29Z</time></trkpt><trkpt lat="43.50905259520265" lon="5.939618457589016"><ele>331.25</ele><time>2026-04-18T13:17:30Z</time></trkpt><trkpt lat="43.509004752761726" lon="5.939478094690306"><ele>330.5</ele><time>2026-04-18T13:17:31Z</time></trkpt><trkpt lat="43.50895685097096" lon="5.9393295397311086"><ele>329.75</ele><time>2026-04-18T13:17:32Z</time></trkpt><trkpt lat="43.508889626438254" lon="5.939188937207108"><ele>329.0</ele><time>2026-04-18T13:17:33Z</time></trkpt><trkpt lat="43.50880647244971" lon="5.939076252815357"><ele>330.0</ele><time>2026-04-18T13:17:34Z</time></trkpt><trkpt lat="43.508710163282565" lon="5.938956918138127"><ele>331.0</ele><time>2026-04-18T13:17:35Z</time></trkpt><trkpt lat="43.5085861442316" lon="5.938811045659053"><ele>332.0</ele><time>2026-04-18T13:17:36Z</time></trkpt><trkpt lat="43.50842665282996" lon="5.938652985090759"><ele>332.0</ele><time>2026-04-18T13:17:37Z</time></trkpt><trkpt lat="43.50833078411822" lon="5.9385463417589985"><ele>332.0</ele><time>2026-04-18T13:17:38Z</time></trkpt><trkpt lat="43.50825194443841" lon="5.938433380994417"><ele>332.0</ele><time>2026-04-18T13:17:39Z</time></trkpt><trkpt lat="43.508169233811" lon="5.938291315305897"><ele>332.0</ele><time>2026-04-18T13:17:40Z</time></trkpt><trkpt lat="43.508066252042205" lon="5.938140039326619"><ele>332.33333333333337</ele><time>2026-04-18T13:17:41Z</time></trkpt><trkpt lat="43.50795213697864" lon="5.937991100121794"><ele>332.6666666666667</ele><time>2026-04-18T13:17:42Z</time></trkpt><trkpt lat="43.507835321955206" lon="5.937846989210846"><ele>333.0</ele><time>2026-04-18T13:17:43Z</time></trkpt><trkpt lat="43.50773535423446" lon="5.937710084698644"><ele>333.4</ele><time>2026-04-18T13:17:44Z</time></trkpt><trkpt lat="43.50765181229172" lon="5.937584039096171"><ele>333.79999999999995</ele><time>2026-04-18T13:17:45Z</time></trkpt><trkpt lat="43.507574864780125" lon="5.937472453300111"><ele>334.2</ele><time>2026-04-18T13:17:46Z</time></trkpt><trkpt lat="43.507510137366246" lon="5.937362868800389"><ele>334.6</ele><time>2026-04-18T13:17:47Z</time></trkpt><trkpt lat="43.50745524626864" lon="5.93727248924005"><ele>335.0</ele><time>2026-04-18T13:17:48Z</time></trkpt><trkpt lat="43.5074156526905" lon="5.937181701522877"><ele>335.0</ele><time>2026-04-18T13:17:49Z</time></trkpt><trkpt lat="43.50735564447452" lon="5.937085934743289"><ele>335.0</ele><time>2026-04-18T13:17:51Z</time></trkpt><trkpt lat="43.50725401017571" lon="5.937101591296214"><ele>335.0</ele><time>2026-04-18T13:17:54Z</time></trkpt><trkpt lat="43.50718459313438" lon="5.937093776146678"><ele>335.0</ele><time>2026-04-18T13:17:55Z</time></trkpt><trkpt lat="43.50709192128695" lon="5.937014771627659"><ele>335.0</ele><time>2026-04-18T13:17:57Z</time></trkpt><trkpt lat="43.50700162944274" lon="5.936971471415853"><ele>336.0</ele><time>2026-04-18T13:17:58Z</time></trkpt><trkpt lat="43.506915622117056" lon="5.93697054616046"><ele>337.0</ele><time>2026-04-18T13:17:59Z</time></trkpt><trkpt lat="43.50681788622389" lon="5.936986965887743"><ele>338.0</ele><time>2026-04-18T13:18:00Z</time></trkpt><trkpt lat="43.506722028895226" lon="5.936995983815761"><ele>339.0</ele><time>2026-04-18T13:18:01Z</time></trkpt><trkpt lat="43.50665777258535" lon="5.937019093656523"><ele>340.0</ele><time>2026-04-18T13:18:02Z</time></trkpt><trkpt lat="43.506596368002114" lon="5.937147692535278"><ele>340.0</ele><time>2026-04-18T13:18:04Z</time></trkpt><trkpt lat="43.50648867729158" lon="5.937215343917352"><ele>340.0</ele><time>2026-04-18T13:18:06Z</time></trkpt><trkpt lat="43.50641612853242" lon="5.937206279420454"><ele>340.0</ele><time>2026-04-18T13:18:07Z</time></trkpt><trkpt lat="43.506314150166574" lon="5.937196244248811"><ele>340.0</ele><time>2026-04-18T13:18:08Z</time></trkpt><trkpt lat="43.50616903978044" lon="5.9371812990718835"><ele>340.0</ele><time>2026-04-18T13:18:09Z</time></trkpt><trkpt lat="43.50604947491618" lon="5.9371738468916595"><ele>340.8</ele><time>2026-04-18T13:18:10Z</time></trkpt><trkpt lat="43.505943607124955" lon="5.937179361771652"><ele>341.6</ele><time>2026-04-18T13:18:11Z</time></trkpt><trkpt lat="43.50586426891047" lon="5.937187511025544"><ele>342.4</ele><time>2026-04-18T13:18:12Z</time></trkpt><trkpt lat="43.50580555255662" lon="5.937225631737468"><ele>343.2</ele><time>2026-04-18T13:18:13Z</time></trkpt><trkpt lat="43.50571986008253" lon="5.937289268792854"><ele>344.0</ele><time>2026-04-18T13:18:14Z</time></trkpt><trkpt lat="43.505628231145124" lon="5.937354628635458"><ele>344.0</ele><time>2026-04-18T13:18:15Z</time></trkpt><trkpt lat="43.5055385504341" lon="5.937419428639042"><ele>344.0</ele><time>2026-04-18T13:18:16Z</time></trkpt><trkpt lat="43.50545043929469" lon="5.937472989058706"><ele>344.0</ele><time>2026-04-18T13:18:17Z</time></trkpt><trkpt lat="43.50537572062468" lon="5.937511561548842"><ele>344.0</ele><time>2026-04-18T13:18:19Z</time></trkpt><trkpt lat="43.50534882961395" lon="5.937408157644773"><ele>344.0</ele><time>2026-04-18T13:18:43.999Z</time></trkpt><trkpt lat="43.50528109696878" lon="5.937377895132691"><ele>344.0</ele><time>2026-04-18T13:18:45.999Z</time></trkpt><trkpt lat="43.50516471068752" lon="5.937392329884457"><ele>344.2</ele><time>2026-04-18T13:18:47.999Z</time></trkpt><trkpt lat="43.50504837518427" lon="5.937394864742311"><ele>344.4</ele><time>2026-04-18T13:18:48.999Z</time></trkpt><trkpt lat="43.504922679444014" lon="5.937380955482011"><ele>344.6</ele><time>2026-04-18T13:18:49.999Z</time></trkpt><trkpt lat="43.50483027847977" lon="5.937378850711904"><ele>344.8</ele><time>2026-04-18T13:18:50.999Z</time></trkpt><trkpt lat="43.504751542018425" lon="5.937398205032754"><ele>345.0</ele><time>2026-04-18T13:18:51.999Z</time></trkpt><trkpt lat="43.504677912024086" lon="5.937431559970673"><ele>345.0</ele><time>2026-04-18T13:18:52.999Z</time></trkpt><trkpt lat="43.504616088233455" lon="5.937473760913802"><ele>345.0</ele><time>2026-04-18T13:18:53.999Z</time></trkpt><trkpt lat="43.50454696976888" lon="5.93751392967402"><ele>345.0</ele><time>2026-04-18T13:18:55Z</time></trkpt><trkpt lat="43.504470233543806" lon="5.937576822312858"><ele>345.0</ele><time>2026-04-18T13:18:56Z</time></trkpt><trkpt lat="43.50438683095107" lon="5.937641923958825"><ele>345.0</ele><time>2026-04-18T13:18:57Z</time></trkpt><trkpt lat="43.50432745801865" lon="5.937698513225683"><ele>345.0</ele><time>2026-04-18T13:18:58Z</time></trkpt><trkpt lat="43.504278044255095" lon="5.9377554646716675"><ele>345.2</ele><time>2026-04-18T13:18:59Z</time></trkpt><trkpt lat="43.504224543162934" lon="5.937836384896184"><ele>345.4</ele><time>2026-04-18T13:19:00Z</time></trkpt><trkpt lat="43.5041612301161" lon="5.937950150051995"><ele>345.6</ele><time>2026-04-18T13:19:01Z</time></trkpt><trkpt lat="43.5041165010351" lon="5.938054986211268"><ele>345.8</ele><time>2026-04-18T13:19:02Z</time></trkpt><trkpt lat="43.50408180902981" lon="5.938139114844705"><ele>346.0</ele><time>2026-04-18T13:19:03Z</time></trkpt><trkpt lat="43.503997576136406" lon="5.938251781326331"><ele>346.0</ele><time>2026-04-18T13:19:05Z</time></trkpt><trkpt lat="43.50391263758181" lon="5.9383189463878985"><ele>346.0</ele><time>2026-04-18T13:19:06Z</time></trkpt><trkpt lat="43.50384778219165" lon="5.938394521414759"><ele>346.0</ele><time>2026-04-18T13:19:07Z</time></trkpt><trkpt lat="43.50377698505859" lon="5.9384530227443655"><ele>346.0</ele><time>2026-04-18T13:19:08Z</time></trkpt><trkpt lat="43.5037117154864" lon="5.938532227927006"><ele>346.0</ele><time>2026-04-18T13:19:09Z</time></trkpt><trkpt lat="43.50367854638682" lon="5.938624485678096"><ele>346.0</ele><time>2026-04-18T13:19:10Z</time></trkpt><trkpt lat="43.50366290804993" lon="5.938737126470303"><ele>346.4</ele><time>2026-04-18T13:19:11Z</time></trkpt><trkpt lat="43.50365196166297" lon="5.938860499327664"><ele>346.8</ele><time>2026-04-18T13:19:12Z</time></trkpt><trkpt lat="43.503635812124294" lon="5.938964840354156"><ele>347.2</ele><time>2026-04-18T13:19:13Z</time></trkpt><trkpt lat="43.50354054432436" lon="5.939073564426238"><ele>347.59999999999997</ele><time>2026-04-18T13:19:15Z</time></trkpt><trkpt lat="43.50345911157732" lon="5.93919638015949"><ele>348.0</ele><time>2026-04-18T13:19:16Z</time></trkpt><trkpt lat="43.503375389589195" lon="5.939338869311328"><ele>349.25</ele><time>2026-04-18T13:19:17Z</time></trkpt><trkpt lat="43.503296120866096" lon="5.9394925646653105"><ele>350.5</ele><time>2026-04-18T13:19:18Z</time></trkpt><trkpt lat="43.50321740711674" lon="5.939635232568513"><ele>351.75</ele><time>2026-04-18T13:19:19Z</time></trkpt><trkpt lat="43.50313771386101" lon="5.939766316093932"><ele>353.0</ele><time>2026-04-18T13:19:20Z</time></trkpt><trkpt lat="43.50306257500234" lon="5.939877057598776"><ele>353.0</ele><time>2026-04-18T13:19:21Z</time></trkpt><trkpt lat="43.502994031845574" lon="5.939972082024526"><ele>353.0</ele><time>2026-04-18T13:19:22Z</time></trkpt><trkpt lat="43.502932860080904" lon="5.940014243194507"><ele>353.0</ele><time>2026-04-18T13:19:23Z</time></trkpt><trkpt lat="43.502854272604786" lon="5.940064497858794"><ele>353.0</ele><time>2026-04-18T13:19:24Z</time></trkpt><trkpt lat="43.502762022850376" lon="5.9401550657342455"><ele>353.0</ele><time>2026-04-18T13:19:25Z</time></trkpt><trkpt lat="43.50266091620006" lon="5.94023398061364"><ele>353.25</ele><time>2026-04-18T13:19:26Z</time></trkpt><trkpt lat="43.50255591277637" lon="5.940290056341667"><ele>353.5</ele><time>2026-04-18T13:19:27Z</time></trkpt><trkpt lat="43.502449565670545" lon="5.940338075634349"><ele>353.75</ele><time>2026-04-18T13:19:28Z</time></trkpt><trkpt lat="43.50233650191736" lon="5.940418425080327"><ele>354.0</ele><time>2026-04-18T13:19:29Z</time></trkpt><trkpt lat="43.50223946866464" lon="5.940499572126605"><ele>354.0</ele><time>2026-04-18T13:19:30Z</time></trkpt><trkpt lat="43.5021157593177" lon="5.940529548225908"><ele>354.0</ele><time>2026-04-18T13:19:32Z</time></trkpt><trkpt lat="43.50198537096074" lon="5.940507458369172"><ele>354.0</ele><time>2026-04-18T13:19:34Z</time></trkpt><trkpt lat="43.501881691875994" lon="5.940525582996193"><ele>354.0</ele><time>2026-04-18T13:19:35Z</time></trkpt><trkpt lat="43.50171042544926" lon="5.940557274092971"><ele>354.2</ele><time>2026-04-18T13:19:36Z</time></trkpt><trkpt lat="43.501590686725784" lon="5.940592862558554"><ele>354.4</ele><time>2026-04-18T13:19:37Z</time></trkpt><trkpt lat="43.50149963033603" lon="5.940616420719793"><ele>354.6</ele><time>2026-04-18T13:19:38Z</time></trkpt><trkpt lat="43.501437451780866" lon="5.940657881552466"><ele>354.8</ele><time>2026-04-18T13:19:39Z</time></trkpt><trkpt lat="43.501368240178756" lon="5.9406958130424"><ele>355.0</ele><time>2026-04-18T13:19:40Z</time></trkpt><trkpt lat="43.50126079611795" lon="5.940735909136954"><ele>355.6</ele><time>2026-04-18T13:19:41Z</time></trkpt><trkpt lat="43.501160708027" lon="5.940729467955022"><ele>356.2</ele><time>2026-04-18T13:19:42Z</time></trkpt><trkpt lat="43.50106144228425" lon="5.940754093709467"><ele>356.79999999999995</ele><time>2026-04-18T13:19:43Z</time></trkpt><trkpt lat="43.500958172522715" lon="5.940787714561923"><ele>357.4</ele><time>2026-04-18T13:19:44Z</time></trkpt><trkpt lat="43.50085306824183" lon="5.9407901353524455"><ele>358.0</ele><time>2026-04-18T13:19:45Z</time></trkpt><trkpt lat="43.50075937095912" lon="5.940780988071623"><ele>358.0</ele><time>2026-04-18T13:19:46Z</time></trkpt><trkpt lat="43.50066794500088" lon="5.940804072056921"><ele>358.0</ele><time>2026-04-18T13:19:47Z</time></trkpt><trkpt lat="43.5005927129718" lon="5.940844451448175"><ele>358.0</ele><time>2026-04-18T13:19:48Z</time></trkpt><trkpt lat="43.500501026866445" lon="5.940882281020146"><ele>358.0</ele><time>2026-04-18T13:19:49Z</time></trkpt><trkpt lat="43.50041584176822" lon="5.940902863346249"><ele>358.0</ele><time>2026-04-18T13:19:50Z</time></trkpt><trkpt lat="43.50025938428166" lon="5.940909900138908"><ele>356.0</ele><time>2026-04-18T13:19:51Z</time></trkpt><trkpt lat="43.500135851756575" lon="5.940904152579635"><ele>354.0</ele><time>2026-04-18T13:19:52Z</time></trkpt><trkpt lat="43.500048417036936" lon="5.940899012289011"><ele>352.0</ele><time>2026-04-18T13:19:53Z</time></trkpt><trkpt lat="43.4999485123718" lon="5.9409964264148085"><ele>350.0</ele><time>2026-04-18T13:19:55Z</time></trkpt><trkpt lat="43.49985648418821" lon="5.941050123681948"><ele>348.0</ele><time>2026-04-18T13:19:56Z</time></trkpt><trkpt lat="43.4997676082449" lon="5.941066808442369"><ele>348.0</ele><time>2026-04-18T13:19:57Z</time></trkpt><trkpt lat="43.49968566815467" lon="5.941074430049062"><ele>348.0</ele><time>2026-04-18T13:19:58Z</time></trkpt><trkpt lat="43.49960673758067" lon="5.941128645195876"><ele>348.0</ele><time>2026-04-18T13:20:00Z</time></trkpt><trkpt lat="43.49953343468218" lon="5.941266412633936"><ele>348.0</ele><time>2026-04-18T13:20:02Z</time></trkpt><trkpt lat="43.49944062903959" lon="5.941341635509297"><ele>348.0</ele><time>2026-04-18T13:20:04Z</time></trkpt><trkpt lat="43.499379147579646" lon="5.941364455251981"><ele>348.0</ele><time>2026-04-18T13:20:05Z</time></trkpt><trkpt lat="43.49926653235705" lon="5.941478173599227"><ele>348.0</ele><time>2026-04-18T13:20:07Z</time></trkpt><trkpt lat="43.49919057831587" lon="5.941584557276641"><ele>348.0</ele><time>2026-04-18T13:20:09Z</time></trkpt><trkpt lat="43.49907181749776" lon="5.941607858005054"><ele>348.0</ele><time>2026-04-18T13:20:11Z</time></trkpt><trkpt lat="43.49899122964546" lon="5.941643154387839"><ele>348.0</ele><time>2026-04-18T13:20:12Z</time></trkpt><trkpt lat="43.49887004534886" lon="5.941654795187878"><ele>348.0</ele><time>2026-04-18T13:20:14Z</time></trkpt><trkpt lat="43.498761237073765" lon="5.941707175870762"><ele>348.0</ele><time>2026-04-18T13:20:16Z</time></trkpt><trkpt lat="43.498681387870114" lon="5.941761837711499"><ele>348.0</ele><time>2026-04-18T13:20:18Z</time></trkpt><trkpt lat="43.4985803154344" lon="5.941804278456799"><ele>348.0</ele><time>2026-04-18T13:20:19Z</time></trkpt><trkpt lat="43.498470515656116" lon="5.941857308943913"><ele>345.79999999999995</ele><time>2026-04-18T13:20:21Z</time></trkpt><trkpt lat="43.49836574999525" lon="5.941899249359144"><ele>343.6</ele><time>2026-04-18T13:20:23Z</time></trkpt><trkpt lat="43.49826237766909" lon="5.94189655659101"><ele>341.4</ele><time>2026-04-18T13:20:25Z</time></trkpt><trkpt lat="43.49818001739998" lon="5.941870628189949"><ele>339.20000000000005</ele><time>2026-04-18T13:20:25.999Z</time></trkpt><trkpt lat="43.498099632186104" lon="5.941885654005365"><ele>337.0</ele><time>2026-04-18T13:20:26.999Z</time></trkpt><trkpt lat="43.497987407967656" lon="5.941913228701789"><ele>337.40000000000003</ele><time>2026-04-18T13:20:27.999Z</time></trkpt><trkpt lat="43.497899424158554" lon="5.941951031986225"><ele>337.8</ele><time>2026-04-18T13:20:28.999Z</time></trkpt><trkpt lat="43.497792979091926" lon="5.941995703220661"><ele>338.2</ele><time>2026-04-18T13:20:30.999Z</time></trkpt><trkpt lat="43.497705821759396" lon="5.942081847228523"><ele>338.6</ele><time>2026-04-18T13:20:31.999Z</time></trkpt><trkpt lat="43.497643710184164" lon="5.942179968287913"><ele>339.0</ele><time>2026-04-18T13:20:32.999Z</time></trkpt><trkpt lat="43.49760694457399" lon="5.942253191680959"><ele>339.0</ele><time>2026-04-18T13:20:33.999Z</time></trkpt><trkpt lat="43.497488053683064" lon="5.942346630322467"><ele>339.0</ele><time>2026-04-18T13:20:35.999Z</time></trkpt><trkpt lat="43.49743949262515" lon="5.942403028263894"><ele>339.0</ele><time>2026-04-18T13:20:36.999Z</time></trkpt><trkpt lat="43.49741896236243" lon="5.942488487025739"><ele>339.0</ele><time>2026-04-18T13:20:37.999Z</time></trkpt><trkpt lat="43.49737609736779" lon="5.942564416817314"><ele>339.0</ele><time>2026-04-18T13:20:40.999Z</time></trkpt><trkpt lat="43.49731252601048" lon="5.942590955101685"><ele>339.0</ele><time>2026-04-18T13:20:41.999Z</time></trkpt><trkpt lat="43.497264879286575" lon="5.9426971523568355"><ele>336.8333333333333</ele><time>2026-04-18T13:20:43.999Z</time></trkpt><trkpt lat="43.49723199853217" lon="5.942779095883979"><ele>334.6666666666667</ele><time>2026-04-18T13:20:44.999Z</time></trkpt><trkpt lat="43.49719941632768" lon="5.942855162300035"><ele>332.5</ele><time>2026-04-18T13:20:45.999Z</time></trkpt><trkpt lat="43.497172523479094" lon="5.942978013029177"><ele>330.33333333333337</ele><time>2026-04-18T13:20:47.999Z</time></trkpt><trkpt lat="43.49715610637787" lon="5.9430973254711255"><ele>328.1666666666667</ele><time>2026-04-18T13:20:49.999Z</time></trkpt><trkpt lat="43.497132644621985" lon="5.943209817509376"><ele>326.0</ele><time>2026-04-18T13:20:51.999Z</time></trkpt><trkpt lat="43.49709976092872" lon="5.943339008431592"><ele>324.6666666666667</ele><time>2026-04-18T13:20:53.999Z</time></trkpt><trkpt lat="43.49708562961353" lon="5.943442650247812"><ele>323.33333333333337</ele><time>2026-04-18T13:20:54.999Z</time></trkpt><trkpt lat="43.497078927861814" lon="5.943560415899393"><ele>322.0</ele><time>2026-04-18T13:20:55.999Z</time></trkpt><trkpt lat="43.497099452052325" lon="5.943669928306189"><ele>320.6666666666667</ele><time>2026-04-18T13:20:57.999Z</time></trkpt><trkpt lat="43.49707180744855" lon="5.94375151138851"><ele>319.3333333333333</ele><time>2026-04-18T13:21:01Z</time></trkpt><trkpt lat="43.49704918281383" lon="5.943907445263743"><ele>318.0</ele><time>2026-04-18T13:21:03Z</time></trkpt><trkpt lat="43.49703436932114" lon="5.944028179535935"><ele>317.4285714285714</ele><time>2026-04-18T13:21:05Z</time></trkpt><trkpt lat="43.49698514436079" lon="5.944091694265273"><ele>316.8571428571429</ele><time>2026-04-18T13:22:05Z</time></trkpt><trkpt lat="43.49692318337975" lon="5.944158057784522"><ele>316.2857142857143</ele><time>2026-04-18T13:22:07Z</time></trkpt><trkpt lat="43.496868639466086" lon="5.944215847199556"><ele>315.71428571428567</ele><time>2026-04-18T13:22:10Z</time></trkpt><trkpt lat="43.49679533007122" lon="5.944185311826212"><ele>315.1428571428571</ele><time>2026-04-18T13:22:13Z</time></trkpt><trkpt lat="43.49672590556984" lon="5.944167796879689"><ele>314.57142857142856</ele><time>2026-04-18T13:22:17Z</time></trkpt><trkpt lat="43.49668091612425" lon="5.944096226575914"><ele>314.0</ele><time>2026-04-18T13:22:21.999Z</time></trkpt><trkpt lat="43.49661421991265" lon="5.944132215457599"><ele>313.99999999999994</ele><time>2026-04-18T13:22:25.999Z</time></trkpt><trkpt lat="43.496542719204314" lon="5.944167388792455"><ele>314.0</ele><time>2026-04-18T13:22:27.999Z</time></trkpt><trkpt lat="43.49648823848239" lon="5.944227074000262"><ele>314.0</ele><time>2026-04-18T13:22:32.999Z</time></trkpt><trkpt lat="43.496422381477224" lon="5.944265865029974"><ele>314.0</ele><time>2026-04-18T13:22:35.999Z</time></trkpt><trkpt lat="43.496356572741234" lon="5.9443054016089985"><ele>314.0</ele><time>2026-04-18T13:22:38.999Z</time></trkpt><trkpt lat="43.49629172125314" lon="5.944305959763224"><ele>313.99999999999994</ele><time>2026-04-18T13:22:41.999Z</time></trkpt><trkpt lat="43.496220478633944" lon="5.944381858132981"><ele>314.0</ele><time>2026-04-18T13:22:44.999Z</time></trkpt><trkpt lat="43.49616521737919" lon="5.944452972723355"><ele>310.71428571428567</ele><time>2026-04-18T13:22:47.999Z</time></trkpt><trkpt lat="43.49609977201811" lon="5.94447076932967"><ele>307.42857142857144</ele><time>2026-04-18T13:22:51.999Z</time></trkpt><trkpt lat="43.4960323765764" lon="5.9445083737631546"><ele>304.1428571428571</ele><time>2026-04-18T13:22:54.999Z</time></trkpt><trkpt lat="43.49598400308352" lon="5.944578906403652"><ele>300.85714285714283</ele><time>2026-04-18T13:22:58.999Z</time></trkpt><trkpt lat="43.49593539733934" lon="5.944635186985886"><ele>297.57142857142856</ele><time>2026-04-18T13:23:02.999Z</time></trkpt><trkpt lat="43.49589487214882" lon="5.944714273828078"><ele>294.2857142857143</ele><time>2026-04-18T13:23:07Z</time></trkpt><trkpt lat="43.49583785169661" lon="5.944807097751487"><ele>291.0</ele><time>2026-04-18T13:23:12Z</time></trkpt><trkpt lat="43.495805836670655" lon="5.944900614030622"><ele>291.0</ele><time>2026-04-18T13:23:16Z</time></trkpt><trkpt lat="43.49575959772842" lon="5.944967022320444"><ele>291.0</ele><time>2026-04-18T13:23:24Z</time></trkpt><trkpt lat="43.495714504182835" lon="5.945046729085356"><ele>291.0</ele><time>2026-04-18T13:23:28Z</time></trkpt><trkpt lat="43.4956753717341" lon="5.945140033173279"><ele>291.0</ele><time>2026-04-18T13:23:32Z</time></trkpt><trkpt lat="43.49566162394531" lon="5.945241255637164"><ele>291.0</ele><time>2026-04-18T13:23:35Z</time></trkpt><trkpt lat="43.49565510812604" lon="5.945355073957713"><ele>291.0</ele><time>2026-04-18T13:23:38Z</time></trkpt><trkpt lat="43.495641564751715" lon="5.945465377483428"><ele>288.5</ele><time>2026-04-18T13:23:40Z</time></trkpt><trkpt lat="43.495605692403785" lon="5.945564709215311"><ele>286.0</ele><time>2026-04-18T13:23:42Z</time></trkpt><trkpt lat="43.49556855155199" lon="5.945643462389309"><ele>283.5</ele><time>2026-04-18T13:23:45Z</time></trkpt><trkpt lat="43.4955025559166" lon="5.945587913552679"><ele>281.0</ele><time>2026-04-18T13:23:48Z</time></trkpt><trkpt lat="43.49546403274448" lon="5.945669187759886"><ele>278.5</ele><time>2026-04-18T13:30:06.999Z</time></trkpt><trkpt lat="43.49549100080083" lon="5.945769259448206"><ele>276.0</ele><time>2026-04-18T13:30:10.999Z</time></trkpt><trkpt lat="43.49545379338365" lon="5.945898851271952"><ele>275.2</ele><time>2026-04-18T13:30:12.999Z</time></trkpt><trkpt lat="43.4954201979732" lon="5.945990248099981"><ele>274.40000000000003</ele><time>2026-04-18T13:30:13.999Z</time></trkpt><trkpt lat="43.49536580154032" lon="5.9461144285864185"><ele>273.6</ele><time>2026-04-18T13:30:15.999Z</time></trkpt><trkpt lat="43.49531691174412" lon="5.946184580841743"><ele>272.8</ele><time>2026-04-18T13:30:17.999Z</time></trkpt><trkpt lat="43.49523385464112" lon="5.946209351380444"><ele>272.0</ele><time>2026-04-18T13:30:41.999Z</time></trkpt><trkpt lat="43.49514749849375" lon="5.946089966915755"><ele>272.0</ele><time>2026-04-18T13:30:43.999Z</time></trkpt><trkpt lat="43.495111118860464" lon="5.9459393261344236"><ele>272.0</ele><time>2026-04-18T13:30:45.999Z</time></trkpt><trkpt lat="43.495035687891836" lon="5.945817255301224"><ele>272.0</ele><time>2026-04-18T13:30:47.999Z</time></trkpt><trkpt lat="43.494976808680406" lon="5.9457356028915855"><ele>272.0</ele><time>2026-04-18T13:30:48.999Z</time></trkpt><trkpt lat="43.49489660738956" lon="5.945658803584706"><ele>272.0</ele><time>2026-04-18T13:30:49.999Z</time></trkpt><trkpt lat="43.49482024019186" lon="5.945601654381387"><ele>272.0</ele><time>2026-04-18T13:30:50.999Z</time></trkpt><trkpt lat="43.4947584477811" lon="5.945555146853753"><ele>272.0</ele><time>2026-04-18T13:30:51.999Z</time></trkpt><trkpt lat="43.49469904345041" lon="5.9455079521093"><ele>272.0</ele><time>2026-04-18T13:30:52.999Z</time></trkpt><trkpt lat="43.4946374776409" lon="5.9454583929221565"><ele>272.0</ele><time>2026-04-18T13:30:53.999Z</time></trkpt><trkpt lat="43.49454251255089" lon="5.945375961083741"><ele>272.0</ele><time>2026-04-18T13:30:55.999Z</time></trkpt><trkpt lat="43.49443944302972" lon="5.945276360536746"><ele>272.0</ele><time>2026-04-18T13:30:57.999Z</time></trkpt><trkpt lat="43.49439957027644" lon="5.945174788227008"><ele>271.2</ele><time>2026-04-18T13:30:58.999Z</time></trkpt><trkpt lat="43.494362259022765" lon="5.945039806915238"><ele>270.4</ele><time>2026-04-18T13:30:59.999Z</time></trkpt><trkpt lat="43.494300304928025" lon="5.944929574460615"><ele>269.6</ele><time>2026-04-18T13:31:00.999Z</time></trkpt><trkpt lat="43.4942240055463" lon="5.944844525631932"><ele>268.8</ele><time>2026-04-18T13:31:01.999Z</time></trkpt><trkpt lat="43.49412286147906" lon="5.944776770307684"><ele>268.0</ele><time>2026-04-18T13:31:02.999Z</time></trkpt><trkpt lat="43.49402785947796" lon="5.944697419672105"><ele>268.0</ele><time>2026-04-18T13:31:03.999Z</time></trkpt><trkpt lat="43.4939392197153" lon="5.944634749876526"><ele>268.0</ele><time>2026-04-18T13:31:04.999Z</time></trkpt><trkpt lat="43.49386219967985" lon="5.944574093005919"><ele>268.0</ele><time>2026-04-18T13:31:05.999Z</time></trkpt><trkpt lat="43.493787377401524" lon="5.944501900528614"><ele>268.0</ele><time>2026-04-18T13:31:06.999Z</time></trkpt><trkpt lat="43.49370727192122" lon="5.944432984367331"><ele>268.0</ele><time>2026-04-18T13:31:07.999Z</time></trkpt><trkpt lat="43.4936240948808" lon="5.944381655670049"><ele>267.8</ele><time>2026-04-18T13:31:08.999Z</time></trkpt><trkpt lat="43.49353799204668" lon="5.944344796107131"><ele>267.6</ele><time>2026-04-18T13:31:09.999Z</time></trkpt><trkpt lat="43.49344702294923" lon="5.9443197899237274"><ele>267.4</ele><time>2026-04-18T13:31:10.999Z</time></trkpt><trkpt lat="43.493341234753835" lon="5.944308353334865"><ele>267.2</ele><time>2026-04-18T13:31:11.999Z</time></trkpt><trkpt lat="43.493229768178765" lon="5.944317869835532"><ele>267.0</ele><time>2026-04-18T13:31:12.999Z</time></trkpt><trkpt lat="43.49311467944485" lon="5.944343458241886"><ele>267.0</ele><time>2026-04-18T13:31:13.999Z</time></trkpt><trkpt lat="43.4930103036485" lon="5.9443637758091175"><ele>267.0</ele><time>2026-04-18T13:31:14.999Z</time></trkpt><trkpt lat="43.492921262504076" lon="5.944375044437196"><ele>267.0</ele><time>2026-04-18T13:31:15.999Z</time></trkpt><trkpt lat="43.49284305757756" lon="5.944373603741391"><ele>267.0</ele><time>2026-04-18T13:31:16.999Z</time></trkpt><trkpt lat="43.49276902727184" lon="5.944370861857995"><ele>267.0</ele><time>2026-04-18T13:31:17.999Z</time></trkpt><trkpt lat="43.492694139803966" lon="5.94435247881053"><ele>267.0</ele><time>2026-04-18T13:31:18.999Z</time></trkpt><trkpt lat="43.492613648195274" lon="5.944327531344826"><ele>267.6666666666667</ele><time>2026-04-18T13:31:19.999Z</time></trkpt><trkpt lat="43.49252167095854" lon="5.944298214148158"><ele>268.3333333333333</ele><time>2026-04-18T13:31:20.999Z</time></trkpt><trkpt lat="43.49242974329486" lon="5.944269961321546"><ele>269.0</ele><time>2026-04-18T13:31:21.999Z</time></trkpt><trkpt lat="43.492343423288524" lon="5.944247506970012"><ele>269.66666666666663</ele><time>2026-04-18T13:31:22.999Z</time></trkpt><trkpt lat="43.492272061131175" lon="5.944237796218684"><ele>270.3333333333333</ele><time>2026-04-18T13:31:23.999Z</time></trkpt><trkpt lat="43.49220998431859" lon="5.944182428700578"><ele>271.0</ele><time>2026-04-18T13:31:24.999Z</time></trkpt><trkpt lat="43.49214560538219" lon="5.944116774377774"><ele>271.2</ele><time>2026-04-18T13:31:25.999Z</time></trkpt><trkpt lat="43.492067776026126" lon="5.944036001867167"><ele>271.40000000000003</ele><time>2026-04-18T13:31:26.999Z</time></trkpt><trkpt lat="43.49198967442353" lon="5.9439368234430985"><ele>271.6</ele><time>2026-04-18T13:31:27.999Z</time></trkpt><trkpt lat="43.49189206610345" lon="5.94387064158347"><ele>271.8</ele><time>2026-04-18T13:31:28.999Z</time></trkpt><trkpt lat="43.49179639001198" lon="5.943755132327782"><ele>272.0</ele><time>2026-04-18T13:31:29.999Z</time></trkpt><trkpt lat="43.491671558725734" lon="5.9436592209060395"><ele>272.0</ele><time>2026-04-18T13:31:30.999Z</time></trkpt><trkpt lat="43.49156835479715" lon="5.943563873735892"><ele>272.0</ele><time>2026-04-18T13:31:31.999Z</time></trkpt><trkpt lat="43.49147420381956" lon="5.943474952548517"><ele>272.0</ele><time>2026-04-18T13:31:32.999Z</time></trkpt><trkpt lat="43.491385225598435" lon="5.94339232482588"><ele>272.0</ele><time>2026-04-18T13:31:33.999Z</time></trkpt><trkpt lat="43.49129824906623" lon="5.943319480263378"><ele>272.0</ele><time>2026-04-18T13:31:34.999Z</time></trkpt><trkpt lat="43.49121683365762" lon="5.943241114184887"><ele>272.8</ele><time>2026-04-18T13:31:35.999Z</time></trkpt><trkpt lat="43.49112453823909" lon="5.943208998613737"><ele>273.6</ele><time>2026-04-18T13:31:36.999Z</time></trkpt><trkpt lat="43.49103158970258" lon="5.943184705462811"><ele>274.40000000000003</ele><time>2026-04-18T13:31:37.999Z</time></trkpt><trkpt lat="43.4909393092781" lon="5.943158773683444"><ele>275.2</ele><time>2026-04-18T13:31:38.999Z</time></trkpt><trkpt lat="43.49085791616862" lon="5.9431289156646345"><ele>276.0</ele><time>2026-04-18T13:31:39.999Z</time></trkpt><trkpt lat="43.49076759889114" lon="5.943095310072033"><ele>276.0</ele><time>2026-04-18T13:31:40.999Z</time></trkpt><trkpt lat="43.49066669703585" lon="5.9430670745366"><ele>276.0</ele><time>2026-04-18T13:31:41.999Z</time></trkpt><trkpt lat="43.490574394655475" lon="5.942976725803477"><ele>276.0</ele><time>2026-04-18T13:31:42.999Z</time></trkpt><trkpt lat="43.490484112513705" lon="5.942895186584027"><ele>276.0</ele><time>2026-04-18T13:31:43.999Z</time></trkpt><trkpt lat="43.49039195253811" lon="5.942815724496972"><ele>276.0</ele><time>2026-04-18T13:31:44.999Z</time></trkpt><trkpt lat="43.49029971365772" lon="5.942749647767003"><ele>276.25</ele><time>2026-04-18T13:31:45.999Z</time></trkpt><trkpt lat="43.49019162638484" lon="5.942757191297361"><ele>276.5</ele><time>2026-04-18T13:31:46.999Z</time></trkpt><trkpt lat="43.49008975091491" lon="5.942727173209315"><ele>276.75</ele><time>2026-04-18T13:31:47.999Z</time></trkpt><trkpt lat="43.48997200894946" lon="5.942697086920962"><ele>277.0</ele><time>2026-04-18T13:31:48.999Z</time></trkpt><trkpt lat="43.48984417537726" lon="5.942672785887697"><ele>277.0</ele><time>2026-04-18T13:31:49.999Z</time></trkpt><trkpt lat="43.48971475493647" lon="5.942644948805415"><ele>277.0</ele><time>2026-04-18T13:31:50.999Z</time></trkpt><trkpt lat="43.48958198239947" lon="5.942613462885035"><ele>277.0</ele><time>2026-04-18T13:31:51.999Z</time></trkpt><trkpt lat="43.48945426060767" lon="5.94257987071664"><ele>277.0</ele><time>2026-04-18T13:31:52.999Z</time></trkpt><trkpt lat="43.489335622019304" lon="5.942550830732674"><ele>279.0</ele><time>2026-04-18T13:31:53.999Z</time></trkpt><trkpt lat="43.489214418739365" lon="5.942530099988844"><ele>281.0</ele><time>2026-04-18T13:31:54.999Z</time></trkpt><trkpt lat="43.48911015406616" lon="5.942513566901065"><ele>283.0</ele><time>2026-04-18T13:31:55.999Z</time></trkpt><trkpt lat="43.48901764270508" lon="5.942508269830564"><ele>285.0</ele><time>2026-04-18T13:31:56.999Z</time></trkpt><trkpt lat="43.488922593519696" lon="5.942495869307402"><ele>287.0</ele><time>2026-04-18T13:31:57.999Z</time></trkpt><trkpt lat="43.488824530667905" lon="5.942466598953138"><ele>286.8</ele><time>2026-04-18T13:31:58.999Z</time></trkpt><trkpt lat="43.488719717962184" lon="5.942434645001954"><ele>286.6</ele><time>2026-04-18T13:31:59.999Z</time></trkpt><trkpt lat="43.48861974323783" lon="5.942401522179074"><ele>286.40000000000003</ele><time>2026-04-18T13:32:00.999Z</time></trkpt><trkpt lat="43.488527780265734" lon="5.942356256163326"><ele>286.2</ele><time>2026-04-18T13:32:01.999Z</time></trkpt><trkpt lat="43.48844161914552" lon="5.942300980495726"><ele>286.0</ele><time>2026-04-18T13:32:02.999Z</time></trkpt><trkpt lat="43.48834497680903" lon="5.9422438026476945"><ele>286.0</ele><time>2026-04-18T13:32:03.999Z</time></trkpt><trkpt lat="43.48823634584334" lon="5.942173083207464"><ele>286.0</ele><time>2026-04-18T13:32:04.999Z</time></trkpt><trkpt lat="43.488120142506" lon="5.942113689039496"><ele>286.0</ele><time>2026-04-18T13:32:05.999Z</time></trkpt><trkpt lat="43.48799494072463" lon="5.942068337817409"><ele>286.0</ele><time>2026-04-18T13:32:06.999Z</time></trkpt><trkpt lat="43.48786564754016" lon="5.942013091687561"><ele>286.75</ele><time>2026-04-18T13:32:07.999Z</time></trkpt><trkpt lat="43.487735535534306" lon="5.941967467643344"><ele>287.5</ele><time>2026-04-18T13:32:08.999Z</time></trkpt><trkpt lat="43.48760718225705" lon="5.9419240509303775"><ele>288.25</ele><time>2026-04-18T13:32:09.999Z</time></trkpt><trkpt lat="43.48749622890298" lon="5.941891851646171"><ele>289.0</ele><time>2026-04-18T13:32:10.999Z</time></trkpt><trkpt lat="43.487396984517446" lon="5.941858239015425"><ele>289.0</ele><time>2026-04-18T13:32:11.999Z</time></trkpt><trkpt lat="43.487290405359914" lon="5.941823549436504"><ele>289.0</ele><time>2026-04-18T13:32:12.999Z</time></trkpt><trkpt lat="43.48717365945819" lon="5.94178428350531"><ele>289.0</ele><time>2026-04-18T13:32:13.999Z</time></trkpt><trkpt lat="43.48705033084724" lon="5.9417403183553645"><ele>289.0</ele><time>2026-04-18T13:32:14.999Z</time></trkpt><trkpt lat="43.48692502086426" lon="5.94170289835265"><ele>291.0</ele><time>2026-04-18T13:32:15.999Z</time></trkpt><trkpt lat="43.48682046213757" lon="5.9416768284733035"><ele>293.0</ele><time>2026-04-18T13:32:16.999Z</time></trkpt><trkpt lat="43.48672686821589" lon="5.941652001985321"><ele>295.0</ele><time>2026-04-18T13:32:17.999Z</time></trkpt><trkpt lat="43.48663236606118" lon="5.94162970620324"><ele>297.0</ele><time>2026-04-18T13:32:18.999Z</time></trkpt><trkpt lat="43.486542296077964" lon="5.941598747101503"><ele>299.0</ele><time>2026-04-18T13:32:19.999Z</time></trkpt><trkpt lat="43.486444896701514" lon="5.941562611875524"><ele>299.0</ele><time>2026-04-18T13:32:20.999Z</time></trkpt><trkpt lat="43.48634763116925" lon="5.941538222335988"><ele>299.0</ele><time>2026-04-18T13:32:21.999Z</time></trkpt><trkpt lat="43.486239261138664" lon="5.941497291122217"><ele>299.0</ele><time>2026-04-18T13:32:22.999Z</time></trkpt><trkpt lat="43.48613208331608" lon="5.941450832368526"><ele>299.0</ele><time>2026-04-18T13:32:23.999Z</time></trkpt><trkpt lat="43.4860271009096" lon="5.941395077711028"><ele>299.0</ele><time>2026-04-18T13:32:24.999Z</time></trkpt><trkpt lat="43.48591575064998" lon="5.941337677921846"><ele>298.2</ele><time>2026-04-18T13:32:25.999Z</time></trkpt><trkpt lat="43.48581092096074" lon="5.941268244022743"><ele>297.4</ele><time>2026-04-18T13:32:26.999Z</time></trkpt><trkpt lat="43.485718164771725" lon="5.941198710679808"><ele>296.6</ele><time>2026-04-18T13:32:27.999Z</time></trkpt><trkpt lat="43.485636679769776" lon="5.941131917137542"><ele>295.8</ele><time>2026-04-18T13:32:28.999Z</time></trkpt><trkpt lat="43.48555275124982" lon="5.941052305905379"><ele>295.0</ele><time>2026-04-18T13:32:29.999Z</time></trkpt><trkpt lat="43.4854718653098" lon="5.940964516025627"><ele>295.0</ele><time>2026-04-18T13:32:30.999Z</time></trkpt><trkpt lat="43.485389012615194" lon="5.940854753115638"><ele>295.0</ele><time>2026-04-18T13:32:31.999Z</time></trkpt><trkpt lat="43.485298693290936" lon="5.940733893084383"><ele>295.0</ele><time>2026-04-18T13:32:32.999Z</time></trkpt><trkpt lat="43.485191702841206" lon="5.940599852644944"><ele>295.0</ele><time>2026-04-18T13:32:33.999Z</time></trkpt><trkpt lat="43.48510068828879" lon="5.9404801708104875"><ele>295.0</ele><time>2026-04-18T13:32:34.999Z</time></trkpt><trkpt lat="43.48501629146336" lon="5.940382901353645"><ele>295.0</ele><time>2026-04-18T13:32:35.999Z</time></trkpt><trkpt lat="43.48493653804445" lon="5.940286942903726"><ele>295.0</ele><time>2026-04-18T13:32:36.999Z</time></trkpt><trkpt lat="43.48485100157444" lon="5.940198501134876"><ele>295.0</ele><time>2026-04-18T13:32:37.999Z</time></trkpt><trkpt lat="43.48474979644" lon="5.940101762903235"><ele>295.0</ele><time>2026-04-18T13:32:38.999Z</time></trkpt><trkpt lat="43.48464233991483" lon="5.940021733352675"><ele>294.2</ele><time>2026-04-18T13:32:39.999Z</time></trkpt><trkpt lat="43.48453776082901" lon="5.939960592965594"><ele>293.4</ele><time>2026-04-18T13:32:40.999Z</time></trkpt><trkpt lat="43.48443957822784" lon="5.939890721997884"><ele>292.6</ele><time>2026-04-18T13:32:41.999Z</time></trkpt><trkpt lat="43.48434408686009" lon="5.939826483074383"><ele>291.8</ele><time>2026-04-18T13:32:42.999Z</time></trkpt><trkpt lat="43.4842509664809" lon="5.939767718059337"><ele>291.0</ele><time>2026-04-18T13:32:43.999Z</time></trkpt><trkpt lat="43.48415262074164" lon="5.939731538660845"><ele>291.0</ele><time>2026-04-18T13:32:44.999Z</time></trkpt><trkpt lat="43.48405289230509" lon="5.93972922237205"><ele>291.0</ele><time>2026-04-18T13:32:45.999Z</time></trkpt><trkpt lat="43.48395557258367" lon="5.939745904086888"><ele>291.0</ele><time>2026-04-18T13:32:46.999Z</time></trkpt><trkpt lat="43.48385038674267" lon="5.939776338293811"><ele>291.0</ele><time>2026-04-18T13:32:47.999Z</time></trkpt><trkpt lat="43.483751348175886" lon="5.939816285733382"><ele>291.0</ele><time>2026-04-18T13:32:48.999Z</time></trkpt><trkpt lat="43.483660264371764" lon="5.939841018694986"><ele>289.8333333333333</ele><time>2026-04-18T13:32:49.999Z</time></trkpt><trkpt lat="43.4835842821848" lon="5.939851052243841"><ele>288.6666666666667</ele><time>2026-04-18T13:32:50.999Z</time></trkpt><trkpt lat="43.48352127715705" lon="5.939838120245279"><ele>287.5</ele><time>2026-04-18T13:32:51.999Z</time></trkpt><trkpt lat="43.48346373201944" lon="5.939793537499727"><ele>286.33333333333337</ele><time>2026-04-18T13:32:52.999Z</time></trkpt><trkpt lat="43.48340016311625" lon="5.939727062108454"><ele>285.1666666666667</ele><time>2026-04-18T13:32:53.999Z</time></trkpt><trkpt lat="43.48330908616763" lon="5.939638956080726"><ele>284.0</ele><time>2026-04-18T13:32:54.999Z</time></trkpt><trkpt lat="43.483190979357616" lon="5.939527534141934"><ele>284.0</ele><time>2026-04-18T13:32:55.999Z</time></trkpt><trkpt lat="43.48307019291703" lon="5.939428876604235"><ele>284.0</ele><time>2026-04-18T13:32:56.999Z</time></trkpt><trkpt lat="43.48296051357079" lon="5.9393558281633565"><ele>284.0</ele><time>2026-04-18T13:32:57.999Z</time></trkpt><trkpt lat="43.482854770102904" lon="5.939298770146298"><ele>284.0</ele><time>2026-04-18T13:32:58.999Z</time></trkpt><trkpt lat="43.48273697545246" lon="5.93923394763001"><ele>284.8</ele><time>2026-04-18T13:32:59.999Z</time></trkpt><trkpt lat="43.48262734076581" lon="5.939160105051309"><ele>285.59999999999997</ele><time>2026-04-18T13:33:00.999Z</time></trkpt><trkpt lat="43.482532767779155" lon="5.939093763685428"><ele>286.4</ele><time>2026-04-18T13:33:01.999Z</time></trkpt><trkpt lat="43.48246394028103" lon="5.939038643099019"><ele>287.2</ele><time>2026-04-18T13:33:02.999Z</time></trkpt><trkpt lat="43.48235794053435" lon="5.9389919611201325"><ele>288.0</ele><time>2026-04-18T13:33:04.999Z</time></trkpt><trkpt lat="43.4822506532346" lon="5.939071026485768"><ele>288.0</ele><time>2026-04-18T13:33:06.999Z</time></trkpt><trkpt lat="43.48218750276178" lon="5.9391375251099525"><ele>288.0</ele><time>2026-04-18T13:33:07.999Z</time></trkpt><trkpt lat="43.48211438510934" lon="5.939222173298311"><ele>288.0</ele><time>2026-04-18T13:33:08.999Z</time></trkpt><trkpt lat="43.482044885125234" lon="5.939306965859097"><ele>288.0</ele><time>2026-04-18T13:33:09.999Z</time></trkpt><trkpt lat="43.481993919994046" lon="5.939389856199783"><ele>288.0</ele><time>2026-04-18T13:33:10.999Z</time></trkpt><trkpt lat="43.481951454671304" lon="5.939467737741897"><ele>288.0</ele><time>2026-04-18T13:33:11.999Z</time></trkpt><trkpt lat="43.48185453836357" lon="5.939535187725402"><ele>288.6666666666667</ele><time>2026-04-18T13:33:13.999Z</time></trkpt><trkpt lat="43.48179251956237" lon="5.939487220567394"><ele>289.3333333333333</ele><time>2026-04-18T13:33:15.999Z</time></trkpt><trkpt lat="43.481793337313626" lon="5.939351142575167"><ele>290.0</ele><time>2026-04-18T13:33:17.999Z</time></trkpt><trkpt lat="43.48180945562347" lon="5.9392566375242755"><ele>290.66666666666663</ele><time>2026-04-18T13:33:18.999Z</time></trkpt><trkpt lat="43.48181894677907" lon="5.939169338092051"><ele>291.3333333333333</ele><time>2026-04-18T13:33:19.999Z</time></trkpt><trkpt lat="43.481809005991984" lon="5.939080570740344"><ele>292.0</ele><time>2026-04-18T13:33:20.999Z</time></trkpt><trkpt lat="43.48177657130094" lon="5.938897820508854"><ele>292.0</ele><time>2026-04-18T13:33:21.999Z</time></trkpt><trkpt lat="43.48174133765421" lon="5.938757648782381"><ele>292.0</ele><time>2026-04-18T13:33:22.999Z</time></trkpt><trkpt lat="43.481716895609395" lon="5.938607104499636"><ele>292.0</ele><time>2026-04-18T13:33:23.999Z</time></trkpt><trkpt lat="43.481706645678464" lon="5.938434682977961"><ele>292.0</ele><time>2026-04-18T13:33:24.999Z</time></trkpt><trkpt lat="43.48170113930094" lon="5.938280384545702"><ele>292.0</ele><time>2026-04-18T13:33:25.999Z</time></trkpt><trkpt lat="43.48169501968613" lon="5.938183152251292"><ele>292.0</ele><time>2026-04-18T13:33:26.999Z</time></trkpt><trkpt lat="43.48171231478004" lon="5.938025996016067"><ele>292.0</ele><time>2026-04-18T13:33:28.999Z</time></trkpt><trkpt lat="43.481743212617026" lon="5.9379416462688575"><ele>292.0</ele><time>2026-04-18T13:33:31.999Z</time></trkpt><trkpt lat="43.4817130548584" lon="5.938018271028941"><ele>292.0</ele><time>2026-04-18T13:33:33.999Z</time></trkpt><trkpt lat="43.48168554331523" lon="5.9381012690780155"><ele>292.0</ele><time>2026-04-18T13:33:34.999Z</time></trkpt><trkpt lat="43.48169407521548" lon="5.938211830633166"><ele>292.0</ele><time>2026-04-18T13:33:35.999Z</time></trkpt><trkpt lat="43.48170401097911" lon="5.93831385654685"><ele>292.0</ele><time>2026-04-18T13:33:37Z</time></trkpt><trkpt lat="43.48171514275275" lon="5.938408751167591"><ele>292.0</ele><time>2026-04-18T13:33:39Z</time></trkpt><trkpt lat="43.481644947015184" lon="5.938347795507832"><ele>292.0</ele><time>2026-04-18T13:33:43Z</time></trkpt><trkpt lat="43.481624598685514" lon="5.93817265154532"><ele>292.0</ele><time>2026-04-18T13:33:45Z</time></trkpt><trkpt lat="43.481587903664185" lon="5.938055741796728"><ele>292.0</ele><time>2026-04-18T13:33:46Z</time></trkpt><trkpt lat="43.48154599892849" lon="5.9379346018015395"><ele>292.0</ele><time>2026-04-18T13:33:47Z</time></trkpt><trkpt lat="43.48149837031486" lon="5.937844873832949"><ele>292.0</ele><time>2026-04-18T13:33:48Z</time></trkpt><trkpt lat="43.48144471004235" lon="5.937780974141793"><ele>292.0</ele><time>2026-04-18T13:33:49Z</time></trkpt><trkpt lat="43.481363289858905" lon="5.9377098189567645"><ele>292.0</ele><time>2026-04-18T13:33:50Z</time></trkpt><trkpt lat="43.48129777114716" lon="5.937617380762597"><ele>292.0</ele><time>2026-04-18T13:33:51Z</time></trkpt><trkpt lat="43.481252852799955" lon="5.937540087105895"><ele>292.0</ele><time>2026-04-18T13:33:52Z</time></trkpt><trkpt lat="43.481204319641996" lon="5.937464155409723"><ele>294.6</ele><time>2026-04-18T13:33:53Z</time></trkpt><trkpt lat="43.48116603173541" lon="5.937393038781997"><ele>297.2</ele><time>2026-04-18T13:33:54Z</time></trkpt><trkpt lat="43.48111292740843" lon="5.937244642122283"><ele>299.8</ele><time>2026-04-18T13:33:56Z</time></trkpt><trkpt lat="43.481051149670456" lon="5.937122107152883"><ele>302.4</ele><time>2026-04-18T13:33:58Z</time></trkpt><trkpt lat="43.4809762999947" lon="5.937064943722112"><ele>305.0</ele><time>2026-04-18T13:34:00Z</time></trkpt><trkpt lat="43.48083535586756" lon="5.937009005803012"><ele>305.0</ele><time>2026-04-18T13:34:01Z</time></trkpt><trkpt lat="43.48075331667891" lon="5.937003887589714"><ele>305.0</ele><time>2026-04-18T13:34:02Z</time></trkpt><trkpt lat="43.48064219156374" lon="5.936975371111281"><ele>305.0</ele><time>2026-04-18T13:34:02.999Z</time></trkpt><trkpt lat="43.480555330711745" lon="5.936939405053443"><ele>305.0</ele><time>2026-04-18T13:34:03.999Z</time></trkpt><trkpt lat="43.480472388186975" lon="5.936921987886316"><ele>305.0</ele><time>2026-04-18T13:34:04.999Z</time></trkpt><trkpt lat="43.48036641352997" lon="5.936893387951628"><ele>304.6666666666667</ele><time>2026-04-18T13:34:05.999Z</time></trkpt><trkpt lat="43.48028404493471" lon="5.936847062197905"><ele>304.33333333333337</ele><time>2026-04-18T13:34:06.999Z</time></trkpt><trkpt lat="43.480212113987804" lon="5.936784832056154"><ele>304.0</ele><time>2026-04-18T13:34:07.999Z</time></trkpt><trkpt lat="43.48014386574467" lon="5.936716019985174"><ele>303.6666666666667</ele><time>2026-04-18T13:34:08.999Z</time></trkpt><trkpt lat="43.48008169198569" lon="5.936642292695818"><ele>303.3333333333333</ele><time>2026-04-18T13:34:09.999Z</time></trkpt><trkpt lat="43.480042469439766" lon="5.936568927570963"><ele>303.0</ele><time>2026-04-18T13:34:10.999Z</time></trkpt><trkpt lat="43.48000311386539" lon="5.93643535511023"><ele>303.0</ele><time>2026-04-18T13:34:12.999Z</time></trkpt><trkpt lat="43.48001188950752" lon="5.936304304097595"><ele>303.0</ele><time>2026-04-18T13:34:13.999Z</time></trkpt><trkpt lat="43.480007505285315" lon="5.936148350793117"><ele>303.0</ele><time>2026-04-18T13:34:14.999Z</time></trkpt><trkpt lat="43.48000248067832" lon="5.9360373419847745"><ele>303.0</ele><time>2026-04-18T13:34:15.999Z</time></trkpt><trkpt lat="43.479942194422506" lon="5.93593930448229"><ele>303.0</ele><time>2026-04-18T13:34:17.999Z</time></trkpt><trkpt lat="43.479894662588116" lon="5.935795193384883"><ele>303.0</ele><time>2026-04-18T13:34:20.999Z</time></trkpt><trkpt lat="43.479792368977506" lon="5.935693055391994"><ele>303.0</ele><time>2026-04-18T13:34:22.999Z</time></trkpt><trkpt lat="43.47970667678074" lon="5.935635395332224"><ele>303.0</ele><time>2026-04-18T13:34:23.999Z</time></trkpt><trkpt lat="43.479625119847945" lon="5.935580156922195"><ele>303.0</ele><time>2026-04-18T13:34:24.999Z</time></trkpt><trkpt lat="43.47954832986074" lon="5.935547827041604"><ele>303.0</ele><time>2026-04-18T13:34:25.999Z</time></trkpt><trkpt lat="43.479476452121105" lon="5.935527138376423"><ele>303.8</ele><time>2026-04-18T13:34:26.999Z</time></trkpt><trkpt lat="43.47940457938388" lon="5.935517627355467"><ele>304.6</ele><time>2026-04-18T13:34:27.999Z</time></trkpt><trkpt lat="43.47929109562617" lon="5.93558300847039"><ele>305.4</ele><time>2026-04-18T13:34:29.999Z</time></trkpt><trkpt lat="43.47922717761691" lon="5.93562155508363"><ele>306.2</ele><time>2026-04-18T13:34:30.999Z</time></trkpt><trkpt lat="43.479134451731916" lon="5.93564516935625"><ele>307.0</ele><time>2026-04-18T13:34:31.999Z</time></trkpt><trkpt lat="43.47902316179392" lon="5.935634669206913"><ele>307.0</ele><time>2026-04-18T13:34:33.999Z</time></trkpt><trkpt lat="43.47893792974394" lon="5.935583285544979"><ele>307.0</ele><time>2026-04-18T13:34:35.999Z</time></trkpt><trkpt lat="43.47881073213436" lon="5.9355858841697495"><ele>307.0</ele><time>2026-04-18T13:34:37.999Z</time></trkpt><trkpt lat="43.47874494827042" lon="5.935601046485462"><ele>307.0</ele><time>2026-04-18T13:34:38.999Z</time></trkpt><trkpt lat="43.47866459342276" lon="5.935610140911781"><ele>307.0</ele><time>2026-04-18T13:34:39.999Z</time></trkpt><trkpt lat="43.47861878409386" lon="5.935733776682632"><ele>306.66666666666663</ele><time>2026-04-18T13:34:43.999Z</time></trkpt><trkpt lat="43.47858097063737" lon="5.935846644786703"><ele>306.3333333333333</ele><time>2026-04-18T13:34:44.999Z</time></trkpt><trkpt lat="43.478553137305845" lon="5.935948608776792"><ele>306.0</ele><time>2026-04-18T13:34:45.999Z</time></trkpt><trkpt lat="43.478533029353635" lon="5.936034642648816"><ele>305.6666666666667</ele><time>2026-04-18T13:34:46.999Z</time></trkpt><trkpt lat="43.47844586984463" lon="5.9361593867351425"><ele>305.33333333333337</ele><time>2026-04-18T13:34:48.999Z</time></trkpt><trkpt lat="43.47841379038865" lon="5.936239634369057"><ele>305.0</ele><time>2026-04-18T13:34:49.999Z</time></trkpt><trkpt lat="43.47836379327273" lon="5.936324476096722"><ele>306.4</ele><time>2026-04-18T13:34:50.999Z</time></trkpt><trkpt lat="43.47833316480915" lon="5.936401426748032"><ele>307.8</ele><time>2026-04-18T13:34:51.999Z</time></trkpt><trkpt lat="43.478306762638454" lon="5.936537620710605"><ele>309.2</ele><time>2026-04-18T13:34:53.999Z</time></trkpt><trkpt lat="43.47822966051992" lon="5.936579341416419"><ele>310.6</ele><time>2026-04-18T13:34:55.999Z</time></trkpt><trkpt lat="43.47816105212509" lon="5.936610647860659"><ele>312.0</ele><time>2026-04-18T13:34:56.999Z</time></trkpt><trkpt lat="43.478075854903565" lon="5.936757287020449"><ele>312.6666666666667</ele><time>2026-04-18T13:34:58.999Z</time></trkpt><trkpt lat="43.478019060805536" lon="5.936849734457172"><ele>313.3333333333333</ele><time>2026-04-18T13:34:59.999Z</time></trkpt><trkpt lat="43.47797203830655" lon="5.936957830556234"><ele>314.0</ele><time>2026-04-18T13:35:00.999Z</time></trkpt><trkpt lat="43.477914988663905" lon="5.937038297351806"><ele>314.66666666666663</ele><time>2026-04-18T13:35:01.999Z</time></trkpt><trkpt lat="43.4778332508763" lon="5.937114074942036"><ele>315.3333333333333</ele><time>2026-04-18T13:35:02.999Z</time></trkpt><trkpt lat="43.4777967073362" lon="5.93722426360869"><ele>316.0</ele><time>2026-04-18T13:35:03.999Z</time></trkpt><trkpt lat="43.47776115448254" lon="5.937337060376499"><ele>316.0</ele><time>2026-04-18T13:35:04.999Z</time></trkpt><trkpt lat="43.47771413184247" lon="5.937460604807653"><ele>316.0</ele><time>2026-04-18T13:35:05.999Z</time></trkpt><trkpt lat="43.4776899845628" lon="5.937561718963671"><ele>316.0</ele><time>2026-04-18T13:35:06.999Z</time></trkpt><trkpt lat="43.477658396237054" lon="5.937675116213908"><ele>316.0</ele><time>2026-04-18T13:35:07.999Z</time></trkpt><trkpt lat="43.477711932162066" lon="5.937853257374822"><ele>316.0</ele><time>2026-04-18T13:35:10Z</time></trkpt><trkpt lat="43.47777533008806" lon="5.937965358379728"><ele>318.0</ele><time>2026-04-18T13:35:11Z</time></trkpt><trkpt lat="43.477844281317346" lon="5.938103096068748"><ele>320.0</ele><time>2026-04-18T13:35:12Z</time></trkpt><trkpt lat="43.477898927651175" lon="5.938231570305534"><ele>322.0</ele><time>2026-04-18T13:35:13Z</time></trkpt><trkpt lat="43.47792679690302" lon="5.9383266128694885"><ele>324.0</ele><time>2026-04-18T13:35:14Z</time></trkpt><trkpt lat="43.47791493825469" lon="5.938462950735613"><ele>326.0</ele><time>2026-04-18T13:35:16Z</time></trkpt><trkpt lat="43.477873606400884" lon="5.938614175690136"><ele>326.5</ele><time>2026-04-18T13:35:18Z</time></trkpt><trkpt lat="43.47785283404717" lon="5.938744964302374"><ele>327.0</ele><time>2026-04-18T13:35:19Z</time></trkpt><trkpt lat="43.47783809314946" lon="5.938878972796779"><ele>327.5</ele><time>2026-04-18T13:35:20Z</time></trkpt><trkpt lat="43.47780563394815" lon="5.938975998898945"><ele>328.0</ele><time>2026-04-18T13:35:21Z</time></trkpt><trkpt lat="43.47776515882567" lon="5.939048042079397"><ele>328.5</ele><time>2026-04-18T13:35:22Z</time></trkpt><trkpt lat="43.47769636715295" lon="5.9391073101655705"><ele>329.0</ele><time>2026-04-18T13:35:23Z</time></trkpt><trkpt lat="43.477627293345364" lon="5.93916942733939"><ele>328.75</ele><time>2026-04-18T13:35:24Z</time></trkpt><trkpt lat="43.477552313514884" lon="5.939266556181964"><ele>328.5</ele><time>2026-04-18T13:35:25Z</time></trkpt><trkpt lat="43.477480699893164" lon="5.939401991887843"><ele>328.25</ele><time>2026-04-18T13:35:26Z</time></trkpt><trkpt lat="43.47739376566987" lon="5.939582732661511"><ele>328.0</ele><time>2026-04-18T13:35:27Z</time></trkpt><trkpt lat="43.47732130487724" lon="5.939747554869762"><ele>328.0</ele><time>2026-04-18T13:35:28Z</time></trkpt><trkpt lat="43.4772461389627" lon="5.939861374893797"><ele>328.0</ele><time>2026-04-18T13:35:29Z</time></trkpt><trkpt lat="43.477173076002465" lon="5.939968352897742"><ele>328.0</ele><time>2026-04-18T13:35:30Z</time></trkpt><trkpt lat="43.477105754669914" lon="5.940065916751303"><ele>328.0</ele><time>2026-04-18T13:35:31Z</time></trkpt><trkpt lat="43.47702825236655" lon="5.940146048678487"><ele>328.0</ele><time>2026-04-18T13:35:32Z</time></trkpt><trkpt lat="43.47692892749937" lon="5.940218617350856"><ele>328.4</ele><time>2026-04-18T13:35:33Z</time></trkpt><trkpt lat="43.476836668379065" lon="5.940307250770959"><ele>328.79999999999995</ele><time>2026-04-18T13:35:34Z</time></trkpt><trkpt lat="43.47676554869618" lon="5.940404560046531"><ele>329.2</ele><time>2026-04-18T13:35:35Z</time></trkpt><trkpt lat="43.47669358518822" lon="5.940505769026619"><ele>329.6</ele><time>2026-04-18T13:35:36Z</time></trkpt><trkpt lat="43.47660975574265" lon="5.940625578034285"><ele>330.0</ele><time>2026-04-18T13:35:37Z</time></trkpt><trkpt lat="43.47651105904007" lon="5.9407676710207555"><ele>329.75</ele><time>2026-04-18T13:35:38Z</time></trkpt><trkpt lat="43.476396557179605" lon="5.9408899555334855"><ele>329.5</ele><time>2026-04-18T13:35:39Z</time></trkpt><trkpt lat="43.47631675574628" lon="5.941030885037928"><ele>329.25</ele><time>2026-04-18T13:35:40Z</time></trkpt><trkpt lat="43.476233344844665" lon="5.9411422593253596"><ele>329.0</ele><time>2026-04-18T13:35:41Z</time></trkpt><trkpt lat="43.476160477744166" lon="5.94125454324587"><ele>328.4</ele><time>2026-04-18T13:35:42.001Z</time></trkpt><trkpt lat="43.47607983981848" lon="5.9413429486277405"><ele>327.79999999999995</ele><time>2026-04-18T13:35:43.001Z</time></trkpt><trkpt lat="43.47600708577372" lon="5.941426601432549"><ele>327.20000000000005</ele><time>2026-04-18T13:35:44.001Z</time></trkpt><trkpt lat="43.475956429011084" lon="5.941515670798752"><ele>326.6</ele><time>2026-04-18T13:35:45.001Z</time></trkpt><trkpt lat="43.4759081831973" lon="5.9415740646037465"><ele>326.0</ele><time>2026-04-18T13:35:46.001Z</time></trkpt><trkpt lat="43.47583674642108" lon="5.941683539087983"><ele>325.1666666666667</ele><time>2026-04-18T13:35:48.001Z</time></trkpt><trkpt lat="43.47579788449528" lon="5.94176906518627"><ele>324.33333333333337</ele><time>2026-04-18T13:35:50.001Z</time></trkpt><trkpt lat="43.47578887470857" lon="5.941878211728047"><ele>323.5</ele><time>2026-04-18T13:35:51.001Z</time></trkpt><trkpt lat="43.475743783717114" lon="5.9419857259516045"><ele>322.6666666666667</ele><time>2026-04-18T13:35:52.001Z</time></trkpt><trkpt lat="43.47568523625623" lon="5.9421014688544735"><ele>321.8333333333333</ele><time>2026-04-18T13:35:53.001Z</time></trkpt><trkpt lat="43.47561412349783" lon="5.942204091520219"><ele>321.0</ele><time>2026-04-18T13:35:54.001Z</time></trkpt><trkpt lat="43.475562848495365" lon="5.942320594178265"><ele>321.0</ele><time>2026-04-18T13:35:55.001Z</time></trkpt><trkpt lat="43.47549276476862" lon="5.942411555108437"><ele>321.0</ele><time>2026-04-18T13:35:56.001Z</time></trkpt><trkpt lat="43.47544555990861" lon="5.942487290131265"><ele>321.0</ele><time>2026-04-18T13:35:57.001Z</time></trkpt><trkpt lat="43.47541453148876" lon="5.942586488554133"><ele>321.0</ele><time>2026-04-18T13:35:58.001Z</time></trkpt><trkpt lat="43.475417321349646" lon="5.942703435543039"><ele>321.0</ele><time>2026-04-18T13:35:59Z</time></trkpt><trkpt lat="43.47542140920504" lon="5.942808827539668"><ele>321.0</ele><time>2026-04-18T13:36:00Z</time></trkpt><trkpt lat="43.47539836172203" lon="5.9428976827399"><ele>321.1666666666667</ele><time>2026-04-18T13:36:01Z</time></trkpt><trkpt lat="43.47535895723136" lon="5.942972837638771"><ele>321.3333333333333</ele><time>2026-04-18T13:36:02Z</time></trkpt><trkpt lat="43.47537689888047" lon="5.943125712939055"><ele>321.5</ele><time>2026-04-18T13:36:04Z</time></trkpt><trkpt lat="43.47543471228438" lon="5.943197827810797"><ele>321.66666666666663</ele><time>2026-04-18T13:36:05Z</time></trkpt><trkpt lat="43.47545925806923" lon="5.943278671596599"><ele>321.8333333333333</ele><time>2026-04-18T13:36:06Z</time></trkpt><trkpt lat="43.47544616784457" lon="5.943368297445689"><ele>322.0</ele><time>2026-04-18T13:36:07Z</time></trkpt><trkpt lat="43.47543034015157" lon="5.943476213875315"><ele>318.40000000000003</ele><time>2026-04-18T13:36:08Z</time></trkpt><trkpt lat="43.47539603592295" lon="5.943574030508199"><ele>314.8</ele><time>2026-04-18T13:36:09Z</time></trkpt><trkpt lat="43.47532850287659" lon="5.943674903439947"><ele>311.2</ele><time>2026-04-18T13:36:10Z</time></trkpt><trkpt lat="43.47523843076269" lon="5.9437923411011"><ele>307.6</ele><time>2026-04-18T13:36:11Z</time></trkpt><trkpt lat="43.47515246221343" lon="5.94394519268523"><ele>304.0</ele><time>2026-04-18T13:36:12Z</time></trkpt><trkpt lat="43.47505478298111" lon="5.944132860971974"><ele>303.66666666666663</ele><time>2026-04-18T13:36:13Z</time></trkpt><trkpt lat="43.47496696920656" lon="5.944325099996187"><ele>303.3333333333333</ele><time>2026-04-18T13:36:14Z</time></trkpt><trkpt lat="43.47488114481896" lon="5.9444977648247"><ele>303.0</ele><time>2026-04-18T13:36:15Z</time></trkpt><trkpt lat="43.47480654512787" lon="5.944667695310869"><ele>303.0</ele><time>2026-04-18T13:36:16Z</time></trkpt><trkpt lat="43.47474105209197" lon="5.944809004560198"><ele>303.0</ele><time>2026-04-18T13:36:17Z</time></trkpt><trkpt lat="43.47467342518856" lon="5.944930720304402"><ele>303.0</ele><time>2026-04-18T13:36:18Z</time></trkpt><trkpt lat="43.474604687761925" lon="5.945059704173177"><ele>303.0</ele><time>2026-04-18T13:36:19Z</time></trkpt><trkpt lat="43.47453610989904" lon="5.945184983328019"><ele>298.75</ele><time>2026-04-18T13:36:20Z</time></trkpt><trkpt lat="43.474466144586174" lon="5.945309418948525"><ele>294.5</ele><time>2026-04-18T13:36:21Z</time></trkpt><trkpt lat="43.47438746296681" lon="5.945429687257028"><ele>290.25</ele><time>2026-04-18T13:36:22Z</time></trkpt><trkpt lat="43.47429103437209" lon="5.945549865187959"><ele>286.0</ele><time>2026-04-18T13:36:23Z</time></trkpt><trkpt lat="43.474185431566866" lon="5.945694024139904"><ele>286.0</ele><time>2026-04-18T13:36:24Z</time></trkpt><trkpt lat="43.4740927025804" lon="5.945835782296378"><ele>286.0</ele><time>2026-04-18T13:36:25Z</time></trkpt><trkpt lat="43.47399220500128" lon="5.945957250306985"><ele>286.0</ele><time>2026-04-18T13:36:26Z</time></trkpt><trkpt lat="43.47389974855546" lon="5.946092587808576"><ele>286.0</ele><time>2026-04-18T13:36:27Z</time></trkpt><trkpt lat="43.473818382777246" lon="5.946223109799583"><ele>283.5</ele><time>2026-04-18T13:36:28Z</time></trkpt><trkpt lat="43.47373040677477" lon="5.94636160961553"><ele>281.0</ele><time>2026-04-18T13:36:29Z</time></trkpt><trkpt lat="43.473654578860895" lon="5.946482343497451"><ele>278.5</ele><time>2026-04-18T13:36:30Z</time></trkpt><trkpt lat="43.4735595958714" lon="5.946591738915993"><ele>276.0</ele><time>2026-04-18T13:36:31Z</time></trkpt><trkpt lat="43.473470961047795" lon="5.946719888962315"><ele>276.0</ele><time>2026-04-18T13:36:32Z</time></trkpt><trkpt lat="43.473401066299935" lon="5.946855331334226"><ele>276.0</ele><time>2026-04-18T13:36:33Z</time></trkpt><trkpt lat="43.47332677555675" lon="5.946991983689901"><ele>276.0</ele><time>2026-04-18T13:36:34Z</time></trkpt><trkpt lat="43.473244386144636" lon="5.947112969051046"><ele>276.0</ele><time>2026-04-18T13:36:35Z</time></trkpt><trkpt lat="43.47316890092046" lon="5.9471861625386815"><ele>276.0</ele><time>2026-04-18T13:36:36Z</time></trkpt><trkpt lat="43.47312631534894" lon="5.947273714753485"><ele>276.0</ele><time>2026-04-18T13:36:37Z</time></trkpt><trkpt lat="43.47309803617467" lon="5.947351463986315"><ele>276.0</ele><time>2026-04-18T13:36:38Z</time></trkpt><trkpt lat="43.473079430449765" lon="5.9474396080334255"><ele>276.0</ele><time>2026-04-18T13:36:39Z</time></trkpt><trkpt lat="43.47304650934643" lon="5.947531272892835"><ele>276.0</ele><time>2026-04-18T13:36:40Z</time></trkpt><trkpt lat="43.47303051548796" lon="5.9476555702386245"><ele>276.0</ele><time>2026-04-18T13:36:41Z</time></trkpt><trkpt lat="43.47303075814692" lon="5.947791885332839"><ele>275.6</ele><time>2026-04-18T13:36:42Z</time></trkpt><trkpt lat="43.4730176889975" lon="5.947923782305567"><ele>275.20000000000005</ele><time>2026-04-18T13:36:43Z</time></trkpt><trkpt lat="43.47300632571086" lon="5.948065968597794"><ele>274.79999999999995</ele><time>2026-04-18T13:36:44Z</time></trkpt><trkpt lat="43.47298960403775" lon="5.948212272376704"><ele>274.4</ele><time>2026-04-18T13:36:45Z</time></trkpt><trkpt lat="43.47296735428737" lon="5.94836890235573"><ele>274.0</ele><time>2026-04-18T13:36:46Z</time></trkpt><trkpt lat="43.47295497647633" lon="5.948518837706148"><ele>272.2</ele><time>2026-04-18T13:36:47Z</time></trkpt><trkpt lat="43.47290366109158" lon="5.948645808143827"><ele>270.4</ele><time>2026-04-18T13:36:48Z</time></trkpt><trkpt lat="43.47285579056099" lon="5.9487673083179065"><ele>268.6</ele><time>2026-04-18T13:36:49Z</time></trkpt><trkpt lat="43.472816269389526" lon="5.948902666011255"><ele>266.8</ele><time>2026-04-18T13:36:50Z</time></trkpt><trkpt lat="43.47276785096145" lon="5.949039330541313"><ele>265.0</ele><time>2026-04-18T13:36:51Z</time></trkpt><trkpt lat="43.4727362139775" lon="5.949165749404628"><ele>264.6</ele><time>2026-04-18T13:36:52Z</time></trkpt><trkpt lat="43.47271597772379" lon="5.949300330210249"><ele>264.2</ele><time>2026-04-18T13:36:53Z</time></trkpt><trkpt lat="43.4726796374834" lon="5.949444285449933"><ele>263.8</ele><time>2026-04-18T13:36:54Z</time></trkpt><trkpt lat="43.47264054154205" lon="5.94959410985958"><ele>263.4</ele><time>2026-04-18T13:36:55Z</time></trkpt><trkpt lat="43.47259590851267" lon="5.9497281510149955"><ele>263.0</ele><time>2026-04-18T13:36:56Z</time></trkpt><trkpt lat="43.472556560696546" lon="5.949856654329666"><ele>263.0</ele><time>2026-04-18T13:36:57Z</time></trkpt><trkpt lat="43.47251442294018" lon="5.949965163525846"><ele>263.0</ele><time>2026-04-18T13:36:58Z</time></trkpt><trkpt lat="43.472484124285806" lon="5.950080313775906"><ele>263.0</ele><time>2026-04-18T13:36:59Z</time></trkpt><trkpt lat="43.47248504620604" lon="5.950195532923897"><ele>263.0</ele><time>2026-04-18T13:37:00Z</time></trkpt><trkpt lat="43.47252439535707" lon="5.950288650006767"><ele>263.0</ele><time>2026-04-18T13:37:01Z</time></trkpt><trkpt lat="43.47254436711098" lon="5.950425281355495"><ele>263.0</ele><time>2026-04-18T13:37:03Z</time></trkpt><trkpt lat="43.47245201578192" lon="5.950569604243827"><ele>263.2</ele><time>2026-04-18T13:37:06Z</time></trkpt><trkpt lat="43.47239140686337" lon="5.95069219680426"><ele>263.4</ele><time>2026-04-18T13:37:07Z</time></trkpt><trkpt lat="43.47234185837813" lon="5.950795122753979"><ele>263.59999999999997</ele><time>2026-04-18T13:37:08Z</time></trkpt><trkpt lat="43.472278636505415" lon="5.9508964413488545"><ele>263.8</ele><time>2026-04-18T13:37:09Z</time></trkpt><trkpt lat="43.47221339370954" lon="5.951007079698182"><ele>264.0</ele><time>2026-04-18T13:37:10Z</time></trkpt><trkpt lat="43.47216477841755" lon="5.951143889249647"><ele>263.25</ele><time>2026-04-18T13:37:11Z</time></trkpt><trkpt lat="43.47212435488425" lon="5.951311980694926"><ele>262.5</ele><time>2026-04-18T13:37:12Z</time></trkpt><trkpt lat="43.4720909132611" lon="5.951487283896825"><ele>261.75</ele><time>2026-04-18T13:37:13Z</time></trkpt><trkpt lat="43.47205726039868" lon="5.95164216467072"><ele>261.0</ele><time>2026-04-18T13:37:14Z</time></trkpt><trkpt lat="43.47200671256341" lon="5.951774457539624"><ele>262.2</ele><time>2026-04-18T13:37:15Z</time></trkpt><trkpt lat="43.47197870600359" lon="5.951901339351434"><ele>263.40000000000003</ele><time>2026-04-18T13:37:16Z</time></trkpt><trkpt lat="43.47196297238224" lon="5.95202180317235"><ele>264.6</ele><time>2026-04-18T13:37:17Z</time></trkpt><trkpt lat="43.47193130199705" lon="5.952152756188468"><ele>265.8</ele><time>2026-04-18T13:37:18Z</time></trkpt><trkpt lat="43.47190318396637" lon="5.952288391420341"><ele>267.0</ele><time>2026-04-18T13:37:19Z</time></trkpt><trkpt lat="43.47188080396225" lon="5.952403212049837"><ele>269.2</ele><time>2026-04-18T13:37:20Z</time></trkpt><trkpt lat="43.47186915443071" lon="5.9525515394623865"><ele>271.4</ele><time>2026-04-18T13:37:22Z</time></trkpt><trkpt lat="43.47189540869021" lon="5.952639618800896"><ele>273.6</ele><time>2026-04-18T13:37:26Z</time></trkpt><trkpt lat="43.47198705775563" lon="5.95272614137197"><ele>275.8</ele><time>2026-04-18T13:37:28Z</time></trkpt><trkpt lat="43.47210136481186" lon="5.952785939586516"><ele>278.0</ele><time>2026-04-18T13:37:29Z</time></trkpt><trkpt lat="43.472178028460114" lon="5.952834799830234"><ele>278.0</ele><time>2026-04-18T13:37:30Z</time></trkpt><trkpt lat="43.472242162085315" lon="5.952909997175075"><ele>278.0</ele><time>2026-04-18T13:37:31Z</time></trkpt><trkpt lat="43.47228815808978" lon="5.9529702120234615"><ele>278.0</ele><time>2026-04-18T13:37:32Z</time></trkpt><trkpt lat="43.472333948592976" lon="5.953119207289278"><ele>278.0</ele><time>2026-04-18T13:37:34Z</time></trkpt><trkpt lat="43.47233232382785" lon="5.95322016935619"><ele>278.0</ele><time>2026-04-18T13:37:35Z</time></trkpt><trkpt lat="43.47233264376102" lon="5.953325429881712"><ele>278.0</ele><time>2026-04-18T13:37:36Z</time></trkpt><trkpt lat="43.47231621958995" lon="5.9534306011862865"><ele>278.6</ele><time>2026-04-18T13:37:37Z</time></trkpt><trkpt lat="43.47225694114629" lon="5.953509942683689"><ele>279.20000000000005</ele><time>2026-04-18T13:37:38Z</time></trkpt><trkpt lat="43.472166390671" lon="5.953609981857741"><ele>279.8</ele><time>2026-04-18T13:37:40Z</time></trkpt><trkpt lat="43.4721037621516" lon="5.953747084796072"><ele>280.40000000000003</ele><time>2026-04-18T13:37:42Z</time></trkpt><trkpt lat="43.47203553409856" lon="5.953887442716432"><ele>281.0</ele><time>2026-04-18T13:37:44Z</time></trkpt><trkpt lat="43.47199605645102" lon="5.953968896778688"><ele>281.00000000000006</ele><time>2026-04-18T13:37:45Z</time></trkpt><trkpt lat="43.4719553420607" lon="5.95405504997795"><ele>281.0</ele><time>2026-04-18T13:37:46Z</time></trkpt><trkpt lat="43.4719191313807" lon="5.9541488260117355"><ele>281.0</ele><time>2026-04-18T13:37:47Z</time></trkpt><trkpt lat="43.47188711122682" lon="5.954233290691689"><ele>281.0</ele><time>2026-04-18T13:37:48.001Z</time></trkpt><trkpt lat="43.47185633308959" lon="5.954327060771191"><ele>281.0</ele><time>2026-04-18T13:37:49.001Z</time></trkpt><trkpt lat="43.47182313402357" lon="5.95441582465063"><ele>281.00000000000006</ele><time>2026-04-18T13:37:50.001Z</time></trkpt><trkpt lat="43.47179334466903" lon="5.95449726205437"><ele>281.0</ele><time>2026-04-18T13:37:51.001Z</time></trkpt><trkpt lat="43.47175545791592" lon="5.954600723762451"><ele>280.5</ele><time>2026-04-18T13:37:53.001Z</time></trkpt><trkpt lat="43.47171258257095" lon="5.954722563225401"><ele>280.0</ele><time>2026-04-18T13:37:57.001Z</time></trkpt><trkpt lat="43.471683322720324" lon="5.954809472626712"><ele>279.5</ele><time>2026-04-18T13:37:59Z</time></trkpt><trkpt lat="43.47164227161538" lon="5.954921985259345"><ele>279.0</ele><time>2026-04-18T13:38:01Z</time></trkpt><trkpt lat="43.471597332574916" lon="5.954993277678346"><ele>278.5</ele><time>2026-04-18T13:38:03Z</time></trkpt><trkpt lat="43.47156759962164" lon="5.955129823379323"><ele>278.0</ele><time>2026-04-18T13:38:05Z</time></trkpt><trkpt lat="43.4715070398484" lon="5.955277067188282"><ele>277.6666666666667</ele><time>2026-04-18T13:38:07Z</time></trkpt><trkpt lat="43.471461083492535" lon="5.955363749519671"><ele>277.33333333333337</ele><time>2026-04-18T13:38:08Z</time></trkpt><trkpt lat="43.47143035576703" lon="5.955454207898806"><ele>277.0</ele><time>2026-04-18T13:38:09Z</time></trkpt><trkpt lat="43.47140542115036" lon="5.955540421109146"><ele>276.6666666666667</ele><time>2026-04-18T13:38:10Z</time></trkpt><trkpt lat="43.471372689559644" lon="5.955646401112183"><ele>276.3333333333333</ele><time>2026-04-18T13:38:11Z</time></trkpt><trkpt lat="43.471334141406196" lon="5.955755911164429"><ele>276.0</ele><time>2026-04-18T13:38:12Z</time></trkpt><trkpt lat="43.471295148891585" lon="5.9558580342418335"><ele>277.3333333333333</ele><time>2026-04-18T13:38:13Z</time></trkpt><trkpt lat="43.47125713329369" lon="5.9559554589092425"><ele>278.6666666666667</ele><time>2026-04-18T13:38:14Z</time></trkpt><trkpt lat="43.471214768583536" lon="5.956057696493025"><ele>280.0</ele><time>2026-04-18T13:38:15Z</time></trkpt><trkpt lat="43.471169686694125" lon="5.956163578132946"><ele>281.33333333333337</ele><time>2026-04-18T13:38:16Z</time></trkpt><trkpt lat="43.47113018050742" lon="5.956262738056912"><ele>282.6666666666667</ele><time>2026-04-18T13:38:17Z</time></trkpt><trkpt lat="43.471084855536155" lon="5.956368329065556"><ele>284.0</ele><time>2026-04-18T13:38:18Z</time></trkpt><trkpt lat="43.47103195045397" lon="5.956484781266454"><ele>284.0</ele><time>2026-04-18T13:38:19Z</time></trkpt><trkpt lat="43.47097444201141" lon="5.956607553361873"><ele>284.0</ele><time>2026-04-18T13:38:20Z</time></trkpt><trkpt lat="43.470914915659904" lon="5.956724266117279"><ele>284.0</ele><time>2026-04-18T13:38:21Z</time></trkpt><trkpt lat="43.470847790718" lon="5.95683449462549"><ele>284.0</ele><time>2026-04-18T13:38:22Z</time></trkpt><trkpt lat="43.4707759931248" lon="5.956943679226829"><ele>284.0</ele><time>2026-04-18T13:38:23Z</time></trkpt><trkpt lat="43.47070234859267" lon="5.957037417825421"><ele>283.2</ele><time>2026-04-18T13:38:24Z</time></trkpt><trkpt lat="43.47063544710385" lon="5.957118706313207"><ele>282.4</ele><time>2026-04-18T13:38:25Z</time></trkpt><trkpt lat="43.47056997057174" lon="5.957207265162495"><ele>281.6</ele><time>2026-04-18T13:38:26Z</time></trkpt><trkpt lat="43.47049689451662" lon="5.957305896620111"><ele>280.8</ele><time>2026-04-18T13:38:27Z</time></trkpt><trkpt lat="43.470436542122144" lon="5.957397834556659"><ele>280.0</ele><time>2026-04-18T13:38:28Z</time></trkpt><trkpt lat="43.47037725518243" lon="5.957468070784978"><ele>281.5</ele><time>2026-04-18T13:38:29Z</time></trkpt><trkpt lat="43.470311091126284" lon="5.957494054837078"><ele>283.0</ele><time>2026-04-18T13:38:30Z</time></trkpt><trkpt lat="43.47015781791573" lon="5.957459755123348"><ele>284.5</ele><time>2026-04-18T13:38:32Z</time></trkpt><trkpt lat="43.47005763885777" lon="5.957534826708826"><ele>286.0</ele><time>2026-04-18T13:38:33Z</time></trkpt><trkpt lat="43.46994041724875" lon="5.957610391120742"><ele>286.0</ele><time>2026-04-18T13:38:34Z</time></trkpt><trkpt lat="43.46983887329875" lon="5.957686764734394"><ele>286.0</ele><time>2026-04-18T13:38:35Z</time></trkpt><trkpt lat="43.4697648797115" lon="5.957763598816977"><ele>286.0</ele><time>2026-04-18T13:38:36Z</time></trkpt><trkpt lat="43.46969657266471" lon="5.957834753543461"><ele>286.0</ele><time>2026-04-18T13:38:37Z</time></trkpt><trkpt lat="43.46961942761087" lon="5.957889121172527"><ele>286.0</ele><time>2026-04-18T13:38:38Z</time></trkpt><trkpt lat="43.46951706862792" lon="5.957929219737375"><ele>286.40000000000003</ele><time>2026-04-18T13:38:39Z</time></trkpt><trkpt lat="43.469423500203405" lon="5.957938318423889"><ele>286.8</ele><time>2026-04-18T13:38:40Z</time></trkpt><trkpt lat="43.46930709266575" lon="5.957970184264454"><ele>287.20000000000005</ele><time>2026-04-18T13:38:42Z</time></trkpt><trkpt lat="43.46923328145549" lon="5.95794479341695"><ele>287.6</ele><time>2026-04-18T13:38:43Z</time></trkpt><trkpt lat="43.46912520960279" lon="5.957920890628364"><ele>288.0</ele><time>2026-04-18T13:38:44Z</time></trkpt><trkpt lat="43.46902494216302" lon="5.957893951567166"><ele>288.0</ele><time>2026-04-18T13:38:45Z</time></trkpt><trkpt lat="43.468915074374344" lon="5.957873874722397"><ele>288.0</ele><time>2026-04-18T13:38:46Z</time></trkpt><trkpt lat="43.46878099126129" lon="5.957871989632615"><ele>288.0</ele><time>2026-04-18T13:38:47Z</time></trkpt><trkpt lat="43.468638289351276" lon="5.957888646292174"><ele>288.0</ele><time>2026-04-18T13:38:48Z</time></trkpt><trkpt lat="43.46851420961679" lon="5.95789585291194"><ele>287.8</ele><time>2026-04-18T13:38:49Z</time></trkpt><trkpt lat="43.46840420252063" lon="5.957909170473573"><ele>287.6</ele><time>2026-04-18T13:38:50Z</time></trkpt><trkpt lat="43.46829946391999" lon="5.957933939800106"><ele>287.4</ele><time>2026-04-18T13:38:51Z</time></trkpt><trkpt lat="43.46819836543049" lon="5.957984359174077"><ele>287.2</ele><time>2026-04-18T13:38:52Z</time></trkpt><trkpt lat="43.46808561831378" lon="5.958047183614865"><ele>287.0</ele><time>2026-04-18T13:38:53Z</time></trkpt><trkpt lat="43.4679810794158" lon="5.958149767822598"><ele>288.5</ele><time>2026-04-18T13:38:54Z</time></trkpt><trkpt lat="43.46790480927639" lon="5.958262093056604"><ele>290.0</ele><time>2026-04-18T13:38:55Z</time></trkpt><trkpt lat="43.46781090791335" lon="5.958372812366734"><ele>291.5</ele><time>2026-04-18T13:38:56Z</time></trkpt><trkpt lat="43.46771967230845" lon="5.958492401886081"><ele>293.0</ele><time>2026-04-18T13:38:57Z</time></trkpt><trkpt lat="43.46763266892481" lon="5.958600417721172"><ele>293.0</ele><time>2026-04-18T13:38:58Z</time></trkpt><trkpt lat="43.46755152105651" lon="5.958695698502009"><ele>293.0</ele><time>2026-04-18T13:38:59Z</time></trkpt><trkpt lat="43.467478119840465" lon="5.958779196753135"><ele>293.0</ele><time>2026-04-18T13:39:00Z</time></trkpt><trkpt lat="43.46740549921322" lon="5.9588699731043295"><ele>293.0</ele><time>2026-04-18T13:39:01Z</time></trkpt><trkpt lat="43.46732818907003" lon="5.958939233320896"><ele>293.0</ele><time>2026-04-18T13:39:02Z</time></trkpt><trkpt lat="43.46723937596345" lon="5.958959904367579"><ele>293.0</ele><time>2026-04-18T13:39:03Z</time></trkpt><trkpt lat="43.46713609351019" lon="5.959018655409526"><ele>293.0</ele><time>2026-04-18T13:39:04Z</time></trkpt><trkpt lat="43.46700384256853" lon="5.959062212660346"><ele>293.0</ele><time>2026-04-18T13:39:05Z</time></trkpt><trkpt lat="43.46687560523828" lon="5.959097527814159"><ele>293.0</ele><time>2026-04-18T13:39:06Z</time></trkpt><trkpt lat="43.466758682660185" lon="5.959121576355137"><ele>292.6</ele><time>2026-04-18T13:39:07Z</time></trkpt><trkpt lat="43.466645468768505" lon="5.959127843831263"><ele>292.20000000000005</ele><time>2026-04-18T13:39:08Z</time></trkpt><trkpt lat="43.46654785386031" lon="5.959114942326554"><ele>291.8</ele><time>2026-04-18T13:39:09Z</time></trkpt><trkpt lat="43.46648065540943" lon="5.959105569001538"><ele>291.40000000000003</ele><time>2026-04-18T13:39:10Z</time></trkpt><trkpt lat="43.46639695426956" lon="5.959040789661132"><ele>291.0</ele><time>2026-04-18T13:39:12Z</time></trkpt><trkpt lat="43.46631692902456" lon="5.958916100219058"><ele>291.0</ele><time>2026-04-18T13:39:14Z</time></trkpt><trkpt lat="43.46628202924179" lon="5.958833442129974"><ele>291.0</ele><time>2026-04-18T13:39:15Z</time></trkpt><trkpt lat="43.466252058060945" lon="5.9587308880055865"><ele>291.0</ele><time>2026-04-18T13:39:16Z</time></trkpt><trkpt lat="43.46623158731971" lon="5.958628582119058"><ele>291.0</ele><time>2026-04-18T13:39:17Z</time></trkpt><trkpt lat="43.46622510343674" lon="5.958473197124146"><ele>291.0</ele><time>2026-04-18T13:39:19Z</time></trkpt><trkpt lat="43.46623492935882" lon="5.958368459271669"><ele>291.0</ele><time>2026-04-18T13:39:20Z</time></trkpt><trkpt lat="43.46625195827889" lon="5.958238823741489"><ele>290.0</ele><time>2026-04-18T13:39:21Z</time></trkpt><trkpt lat="43.4662667109185" lon="5.958086844671926"><ele>289.0</ele><time>2026-04-18T13:39:22Z</time></trkpt><trkpt lat="43.46627119684341" lon="5.957937617708741"><ele>288.0</ele><time>2026-04-18T13:39:23Z</time></trkpt><trkpt lat="43.46626063434806" lon="5.957806348222801"><ele>287.0</ele><time>2026-04-18T13:39:24Z</time></trkpt><trkpt lat="43.46622969358736" lon="5.957701420370382"><ele>286.0</ele><time>2026-04-18T13:39:25Z</time></trkpt><trkpt lat="43.466173104918695" lon="5.957629274331904"><ele>286.0</ele><time>2026-04-18T13:39:26Z</time></trkpt><trkpt lat="43.466111845068795" lon="5.9575641261175"><ele>286.0</ele><time>2026-04-18T13:39:27Z</time></trkpt><trkpt lat="43.466039795880256" lon="5.957542841248679"><ele>286.0</ele><time>2026-04-18T13:39:28Z</time></trkpt><trkpt lat="43.46596565843782" lon="5.95757423640456"><ele>286.0</ele><time>2026-04-18T13:39:30Z</time></trkpt><trkpt lat="43.465899719276266" lon="5.9576267472735"><ele>286.0</ele><time>2026-04-18T13:39:33Z</time></trkpt><trkpt lat="43.46585116669759" lon="5.957703632343513"><ele>286.0</ele><time>2026-04-18T13:39:34Z</time></trkpt><trkpt lat="43.465644011604454" lon="5.957813190224615"><ele>286.0</ele><time>2026-04-18T13:39:35Z</time></trkpt><trkpt lat="43.46556543467458" lon="5.957833893068469"><ele>286.0</ele><time>2026-04-18T13:39:36Z</time></trkpt><trkpt lat="43.46549909176591" lon="5.957850245384141"><ele>286.0</ele><time>2026-04-18T13:39:37Z</time></trkpt><trkpt lat="43.46537162930407" lon="5.957855653713107"><ele>286.0</ele><time>2026-04-18T13:39:39Z</time></trkpt><trkpt lat="43.465298498251" lon="5.957851398163079"><ele>286.0</ele><time>2026-04-18T13:39:40Z</time></trkpt><trkpt lat="43.46523427234562" lon="5.957812720306696"><ele>286.0</ele><time>2026-04-18T13:39:41Z</time></trkpt><trkpt lat="43.46519125375278" lon="5.9577392630578165"><ele>286.16666666666663</ele><time>2026-04-18T13:39:42Z</time></trkpt><trkpt lat="43.46514112812187" lon="5.95767830104323"><ele>286.3333333333333</ele><time>2026-04-18T13:39:43Z</time></trkpt><trkpt lat="43.46508388698009" lon="5.957626988973932"><ele>286.5</ele><time>2026-04-18T13:39:44Z</time></trkpt><trkpt lat="43.46502276742307" lon="5.957595311265408"><ele>286.6666666666667</ele><time>2026-04-18T13:39:45Z</time></trkpt><trkpt lat="43.46494482509958" lon="5.957625663169861"><ele>286.83333333333337</ele><time>2026-04-18T13:39:47Z</time></trkpt><trkpt lat="43.464798459583854" lon="5.957617627962512"><ele>287.0</ele><time>2026-04-18T13:39:49Z</time></trkpt><trkpt lat="43.464704416659366" lon="5.957616814897154"><ele>287.0</ele><time>2026-04-18T13:39:50Z</time></trkpt><trkpt lat="43.46462825196164" lon="5.957619941320664"><ele>287.0</ele><time>2026-04-18T13:39:51Z</time></trkpt><trkpt lat="43.464564198829436" lon="5.957569233180039"><ele>287.0</ele><time>2026-04-18T13:39:52Z</time></trkpt><trkpt lat="43.464517720448846" lon="5.9575095399306415"><ele>287.0</ele><time>2026-04-18T13:39:53Z</time></trkpt><trkpt lat="43.464439934431475" lon="5.957378567579458"><ele>287.0</ele><time>2026-04-18T13:39:54Z</time></trkpt><trkpt lat="43.46435533358837" lon="5.957285467691395"><ele>287.0</ele><time>2026-04-18T13:39:55Z</time></trkpt><trkpt lat="43.46429060189872" lon="5.95721221922922"><ele>286.6666666666667</ele><time>2026-04-18T13:39:56Z</time></trkpt><trkpt lat="43.46421124562009" lon="5.957127653546714"><ele>286.33333333333337</ele><time>2026-04-18T13:39:58Z</time></trkpt><trkpt lat="43.464151658928145" lon="5.957168642784598"><ele>286.0</ele><time>2026-04-18T13:39:59Z</time></trkpt><trkpt lat="43.464088747397994" lon="5.9572376954435535"><ele>285.6666666666667</ele><time>2026-04-18T13:40:00Z</time></trkpt><trkpt lat="43.46403064948932" lon="5.957283253564045"><ele>285.3333333333333</ele><time>2026-04-18T13:40:01Z</time></trkpt><trkpt lat="43.46393010788137" lon="5.9572541452267025"><ele>285.0</ele><time>2026-04-18T13:40:03Z</time></trkpt><trkpt lat="43.463870811320575" lon="5.95716425494356"><ele>285.0</ele><time>2026-04-18T13:40:04Z</time></trkpt><trkpt lat="43.46380059962448" lon="5.957048789559319"><ele>285.0</ele><time>2026-04-18T13:40:05Z</time></trkpt><trkpt lat="43.46373088681011" lon="5.956945645960304"><ele>285.0</ele><time>2026-04-18T13:40:06Z</time></trkpt><trkpt lat="43.463651590249604" lon="5.956869229251551"><ele>285.0</ele><time>2026-04-18T13:40:07Z</time></trkpt><trkpt lat="43.463551475468044" lon="5.956814857696579"><ele>285.0</ele><time>2026-04-18T13:40:08Z</time></trkpt><trkpt lat="43.463418881881125" lon="5.95675940078269"><ele>280.0</ele><time>2026-04-18T13:40:09Z</time></trkpt><trkpt lat="43.46327773906394" lon="5.956692339857629"><ele>275.0</ele><time>2026-04-18T13:40:10Z</time></trkpt><trkpt lat="43.463126853603654" lon="5.956596604830655"><ele>270.0</ele><time>2026-04-18T13:40:11Z</time></trkpt><trkpt lat="43.46296287956537" lon="5.956498017443138"><ele>269.3333333333333</ele><time>2026-04-18T13:40:12Z</time></trkpt><trkpt lat="43.4628196876177" lon="5.956390694986866"><ele>268.66666666666663</ele><time>2026-04-18T13:40:13Z</time></trkpt><trkpt lat="43.46268113895417" lon="5.956317793661933"><ele>268.0</ele><time>2026-04-18T13:40:14Z</time></trkpt><trkpt lat="43.46253352279609" lon="5.9562830983329516"><ele>268.0</ele><time>2026-04-18T13:40:15Z</time></trkpt><trkpt lat="43.46235976084955" lon="5.95625204337402"><ele>268.0</ele><time>2026-04-18T13:40:16Z</time></trkpt><trkpt lat="43.46218668266937" lon="5.956205740021577"><ele>268.0</ele><time>2026-04-18T13:40:17Z</time></trkpt><trkpt lat="43.46204237732841" lon="5.956143092598732"><ele>268.5</ele><time>2026-04-18T13:40:18Z</time></trkpt><trkpt lat="43.46191515697522" lon="5.956076258563359"><ele>269.0</ele><time>2026-04-18T13:40:19Z</time></trkpt><trkpt lat="43.46179927144473" lon="5.9560160366859725"><ele>269.5</ele><time>2026-04-18T13:40:20Z</time></trkpt><trkpt lat="43.46169146322223" lon="5.9559577634771586"><ele>270.0</ele><time>2026-04-18T13:40:21Z</time></trkpt><trkpt lat="43.461596360176756" lon="5.955899256738763"><ele>269.8</ele><time>2026-04-18T13:40:22Z</time></trkpt><trkpt lat="43.461515724219744" lon="5.955846846419241"><ele>269.6</ele><time>2026-04-18T13:40:23Z</time></trkpt><trkpt lat="43.461421070939046" lon="5.955805937073245"><ele>269.4</ele><time>2026-04-18T13:40:25Z</time></trkpt><trkpt lat="43.461331924049105" lon="5.955813217087757"><ele>269.2</ele><time>2026-04-18T13:40:27Z</time></trkpt><trkpt lat="43.46126359933293" lon="5.955766793257489"><ele>269.0</ele><time>2026-04-18T13:40:28Z</time></trkpt><trkpt lat="43.46117310051754" lon="5.9557200085337305"><ele>271.8</ele><time>2026-04-18T13:40:29Z</time></trkpt><trkpt lat="43.461050532278854" lon="5.955651960070525"><ele>274.59999999999997</ele><time>2026-04-18T13:40:30Z</time></trkpt><trkpt lat="43.460931699253436" lon="5.95558151376906"><ele>277.4</ele><time>2026-04-18T13:40:31Z</time></trkpt><trkpt lat="43.460829565361834" lon="5.955563574341127"><ele>280.2</ele><time>2026-04-18T13:40:32Z</time></trkpt><trkpt lat="43.460757409225515" lon="5.955520597789441"><ele>283.0</ele><time>2026-04-18T13:40:33Z</time></trkpt><trkpt lat="43.460687547776374" lon="5.955463463641767"><ele>283.0</ele><time>2026-04-18T13:40:34Z</time></trkpt><trkpt lat="43.460620692052295" lon="5.955389831256562"><ele>283.0</ele><time>2026-04-18T13:40:35Z</time></trkpt><trkpt lat="43.46055246439247" lon="5.95531168041406"><ele>283.0</ele><time>2026-04-18T13:40:36Z</time></trkpt><trkpt lat="43.46046523989276" lon="5.955215766370562"><ele>283.0</ele><time>2026-04-18T13:40:37Z</time></trkpt><trkpt lat="43.460402711915556" lon="5.955138804509696"><ele>283.0</ele><time>2026-04-18T13:40:38Z</time></trkpt><trkpt lat="43.46033031177639" lon="5.955106145422412"><ele>283.0</ele><time>2026-04-18T13:40:39Z</time></trkpt><trkpt lat="43.46024791162696" lon="5.95508975241329"><ele>287.2</ele><time>2026-04-18T13:40:40Z</time></trkpt><trkpt lat="43.46013725285657" lon="5.955067112713857"><ele>291.4</ele><time>2026-04-18T13:40:41Z</time></trkpt><trkpt lat="43.46005998274728" lon="5.955059604543327"><ele>295.59999999999997</ele><time>2026-04-18T13:40:42Z</time></trkpt><trkpt lat="43.45994296759849" lon="5.955104272094726"><ele>299.8</ele><time>2026-04-18T13:40:44Z</time></trkpt><trkpt lat="43.45987745885052" lon="5.955145976189566"><ele>304.0</ele><time>2026-04-18T13:40:45Z</time></trkpt><trkpt lat="43.45981159133138" lon="5.9552057056330625"><ele>304.0</ele><time>2026-04-18T13:40:46Z</time></trkpt><trkpt lat="43.45974850863714" lon="5.955261208945927"><ele>304.0</ele><time>2026-04-18T13:40:47Z</time></trkpt><trkpt lat="43.45966962742399" lon="5.955330804932425"><ele>304.0</ele><time>2026-04-18T13:40:49Z</time></trkpt><trkpt lat="43.45963067282287" lon="5.955399234082809"><ele>304.0</ele><time>2026-04-18T13:40:50Z</time></trkpt><trkpt lat="43.45956574023658" lon="5.955491854352246"><ele>304.0</ele><time>2026-04-18T13:40:51Z</time></trkpt><trkpt lat="43.459490652351576" lon="5.955548198926577"><ele>304.0</ele><time>2026-04-18T13:40:52Z</time></trkpt><trkpt lat="43.459402659040975" lon="5.955572133202323"><ele>304.4</ele><time>2026-04-18T13:40:53Z</time></trkpt><trkpt lat="43.459303577974495" lon="5.955599291089985"><ele>304.79999999999995</ele><time>2026-04-18T13:40:54Z</time></trkpt><trkpt lat="43.45922072234313" lon="5.955605246735962"><ele>305.20000000000005</ele><time>2026-04-18T13:40:55Z</time></trkpt><trkpt lat="43.45913797907424" lon="5.955597540195259"><ele>305.6</ele><time>2026-04-18T13:40:56Z</time></trkpt><trkpt lat="43.45904355879463" lon="5.955592133596013"><ele>306.0</ele><time>2026-04-18T13:40:57Z</time></trkpt><trkpt lat="43.45894077374147" lon="5.955596163086619"><ele>306.0</ele><time>2026-04-18T13:40:58Z</time></trkpt><trkpt lat="43.45882674027447" lon="5.955628188174438"><ele>306.0</ele><time>2026-04-18T13:40:59Z</time></trkpt><trkpt lat="43.45869367369577" lon="5.955696794201041"><ele>306.0</ele><time>2026-04-18T13:41:00Z</time></trkpt><trkpt lat="43.45856198124694" lon="5.955786582383325"><ele>306.0</ele><time>2026-04-18T13:41:01Z</time></trkpt><trkpt lat="43.45844823528725" lon="5.9558552920941565"><ele>306.2</ele><time>2026-04-18T13:41:02Z</time></trkpt><trkpt lat="43.4583483450557" lon="5.955906260031433"><ele>306.40000000000003</ele><time>2026-04-18T13:41:03Z</time></trkpt><trkpt lat="43.45824289678827" lon="5.955966531851121"><ele>306.6</ele><time>2026-04-18T13:41:04Z</time></trkpt><trkpt lat="43.45813914508879" lon="5.9560186870480525"><ele>306.8</ele><time>2026-04-18T13:41:05Z</time></trkpt><trkpt lat="43.458031051218526" lon="5.9560748730595945"><ele>307.0</ele><time>2026-04-18T13:41:06Z</time></trkpt><trkpt lat="43.45790885550059" lon="5.956135706013711"><ele>307.0</ele><time>2026-04-18T13:41:07Z</time></trkpt><trkpt lat="43.457792244669065" lon="5.9561870847293"><ele>307.0</ele><time>2026-04-18T13:41:08Z</time></trkpt><trkpt lat="43.45765980209255" lon="5.956230499066447"><ele>307.0</ele><time>2026-04-18T13:41:09Z</time></trkpt><trkpt lat="43.45751374061366" lon="5.956269411746921"><ele>307.0</ele><time>2026-04-18T13:41:10Z</time></trkpt><trkpt lat="43.45738506835518" lon="5.956295094396501"><ele>307.0</ele><time>2026-04-18T13:41:11Z</time></trkpt><trkpt lat="43.45728406272197" lon="5.956308320349709"><ele>307.0</ele><time>2026-04-18T13:41:12Z</time></trkpt><trkpt lat="43.45719207104663" lon="5.956327330488875"><ele>307.0</ele><time>2026-04-18T13:41:13Z</time></trkpt><trkpt lat="43.45708251472588" lon="5.956360401941034"><ele>307.0</ele><time>2026-04-18T13:41:14Z</time></trkpt><trkpt lat="43.456954377882184" lon="5.956395913879346"><ele>307.0</ele><time>2026-04-18T13:41:15Z</time></trkpt><trkpt lat="43.45684056642131" lon="5.956438926082661"><ele>306.8</ele><time>2026-04-18T13:41:16Z</time></trkpt><trkpt lat="43.45675294815805" lon="5.956484813132324"><ele>306.6</ele><time>2026-04-18T13:41:17Z</time></trkpt><trkpt lat="43.45667709866796" lon="5.956542173969167"><ele>306.40000000000003</ele><time>2026-04-18T13:41:18Z</time></trkpt><trkpt lat="43.45660909460204" lon="5.9566401904155715"><ele>306.2</ele><time>2026-04-18T13:41:19Z</time></trkpt><trkpt lat="43.45653605224903" lon="5.956756114041151"><ele>306.0</ele><time>2026-04-18T13:41:20Z</time></trkpt><trkpt lat="43.456456071051676" lon="5.956847625736774"><ele>308.6</ele><time>2026-04-18T13:41:21Z</time></trkpt><trkpt lat="43.45637052749604" lon="5.95689319929646"><ele>311.20000000000005</ele><time>2026-04-18T13:41:22Z</time></trkpt><trkpt lat="43.45627592574396" lon="5.9569170132037526"><ele>313.79999999999995</ele><time>2026-04-18T13:41:23Z</time></trkpt><trkpt lat="43.456161838935095" lon="5.95694211089573"><ele>316.4</ele><time>2026-04-18T13:41:24Z</time></trkpt><trkpt lat="43.45606650155612" lon="5.956971285426902"><ele>319.0</ele><time>2026-04-18T13:41:25Z</time></trkpt><trkpt lat="43.45599848610535" lon="5.957001138261831"><ele>319.79999999999995</ele><time>2026-04-18T13:41:26Z</time></trkpt><trkpt lat="43.4558905491144" lon="5.95709155624573"><ele>320.59999999999997</ele><time>2026-04-18T13:41:28Z</time></trkpt><trkpt lat="43.45582093328904" lon="5.957183564157494"><ele>321.4</ele><time>2026-04-18T13:41:29Z</time></trkpt><trkpt lat="43.45575329318824" lon="5.957299279553151"><ele>322.2</ele><time>2026-04-18T13:41:30Z</time></trkpt><trkpt lat="43.45571042391567" lon="5.957391203640439"><ele>323.0</ele><time>2026-04-18T13:41:31Z</time></trkpt><trkpt lat="43.45568816852936" lon="5.9574753837939625"><ele>323.0</ele><time>2026-04-18T13:41:32Z</time></trkpt><trkpt lat="43.45561544349632" lon="5.957510460106883"><ele>323.0</ele><time>2026-04-18T13:41:34Z</time></trkpt><trkpt lat="43.455543917190354" lon="5.957486693125636"><ele>323.0</ele><time>2026-04-18T13:41:35Z</time></trkpt><trkpt lat="43.455437327525736" lon="5.957479695820872"><ele>323.0</ele><time>2026-04-18T13:41:36Z</time></trkpt><trkpt lat="43.455310832767765" lon="5.957490061569742"><ele>323.0</ele><time>2026-04-18T13:41:37Z</time></trkpt><trkpt lat="43.455205524144674" lon="5.957493668448226"><ele>321.83333333333337</ele><time>2026-04-18T13:41:38Z</time></trkpt><trkpt lat="43.45511763437306" lon="5.957504860047233"><ele>320.6666666666667</ele><time>2026-04-18T13:41:39Z</time></trkpt><trkpt lat="43.45503260112496" lon="5.957514464613335"><ele>319.5</ele><time>2026-04-18T13:41:40Z</time></trkpt><trkpt lat="43.45495407795369" lon="5.957516596490627"><ele>318.3333333333333</ele><time>2026-04-18T13:41:41Z</time></trkpt><trkpt lat="43.45488021836907" lon="5.957518209134485"><ele>317.16666666666663</ele><time>2026-04-18T13:41:42Z</time></trkpt><trkpt lat="43.45481010043976" lon="5.957540212336409"><ele>316.0</ele><time>2026-04-18T13:41:43Z</time></trkpt><trkpt lat="43.454751352424424" lon="5.9575814514581635"><ele>316.16666666666663</ele><time>2026-04-18T13:41:44Z</time></trkpt><trkpt lat="43.45469198066996" lon="5.957636330398664"><ele>316.3333333333333</ele><time>2026-04-18T13:41:45Z</time></trkpt><trkpt lat="43.45462096295069" lon="5.957700214186005"><ele>316.5</ele><time>2026-04-18T13:41:46Z</time></trkpt><trkpt lat="43.45454954232152" lon="5.957770203223094"><ele>316.6666666666667</ele><time>2026-04-18T13:41:47Z</time></trkpt><trkpt lat="43.45448870503984" lon="5.957828779247571"><ele>316.83333333333337</ele><time>2026-04-18T13:41:48Z</time></trkpt><trkpt lat="43.45443669155311" lon="5.957905037867289"><ele>317.0</ele><time>2026-04-18T13:41:49Z</time></trkpt><trkpt lat="43.45437813389206" lon="5.957986598469952"><ele>317.0</ele><time>2026-04-18T13:41:50Z</time></trkpt><trkpt lat="43.454323848552164" lon="5.958057757182058"><ele>317.0</ele><time>2026-04-18T13:41:51Z</time></trkpt><trkpt lat="43.454267944771786" lon="5.958113044371084"><ele>317.0</ele><time>2026-04-18T13:41:52Z</time></trkpt><trkpt lat="43.4541978677766" lon="5.958137475402994"><ele>317.0</ele><time>2026-04-18T13:41:53Z</time></trkpt><trkpt lat="43.45413044775867" lon="5.9581439208563785"><ele>317.0</ele><time>2026-04-18T13:41:54Z</time></trkpt><trkpt lat="43.454061492264145" lon="5.9581258539279105"><ele>317.0</ele><time>2026-04-18T13:41:55Z</time></trkpt><trkpt lat="43.45393599162264" lon="5.9580838826410565"><ele>317.0</ele><time>2026-04-18T13:41:57Z</time></trkpt><trkpt lat="43.45385514436735" lon="5.958063849035013"><ele>317.0</ele><time>2026-04-18T13:41:58Z</time></trkpt><trkpt lat="43.45376818683198" lon="5.9580585103342445"><ele>317.0</ele><time>2026-04-18T13:41:59Z</time></trkpt><trkpt lat="43.45367641298651" lon="5.9580747026688865"><ele>317.0</ele><time>2026-04-18T13:42:00Z</time></trkpt><trkpt lat="43.45357546316511" lon="5.958100201460379"><ele>317.0</ele><time>2026-04-18T13:42:01Z</time></trkpt><trkpt lat="43.4534579109444" lon="5.9581108190149985"><ele>318.6</ele><time>2026-04-18T13:42:02Z</time></trkpt><trkpt lat="43.45334680461598" lon="5.958093629430212"><ele>320.2</ele><time>2026-04-18T13:42:03Z</time></trkpt><trkpt lat="43.45325781227369" lon="5.958047783593104"><ele>321.8</ele><time>2026-04-18T13:42:04Z</time></trkpt><trkpt lat="43.45315433647975" lon="5.9579853114239505"><ele>323.4</ele><time>2026-04-18T13:42:05Z</time></trkpt><trkpt lat="43.453039511826965" lon="5.9579196344474585"><ele>325.0</ele><time>2026-04-18T13:42:06Z</time></trkpt><trkpt lat="43.45293457491707" lon="5.957842229148254"><ele>324.8</ele><time>2026-04-18T13:42:07Z</time></trkpt><trkpt lat="43.45282010579773" lon="5.957755829871218"><ele>324.6</ele><time>2026-04-18T13:42:08Z</time></trkpt><trkpt lat="43.452716279168556" lon="5.957682783134925"><ele>324.4</ele><time>2026-04-18T13:42:09Z</time></trkpt><trkpt lat="43.452634328592126" lon="5.957612932994519"><ele>324.2</ele><time>2026-04-18T13:42:10Z</time></trkpt><trkpt lat="43.45257221993793" lon="5.9575571186634395"><ele>324.0</ele><time>2026-04-18T13:42:11Z</time></trkpt><trkpt lat="43.45247021860816" lon="5.95747855150426"><ele>324.0</ele><time>2026-04-18T13:42:13Z</time></trkpt><trkpt lat="43.452406486073556" lon="5.957484545508551"><ele>324.0</ele><time>2026-04-18T13:42:14Z</time></trkpt><trkpt lat="43.45227630304736" lon="5.957559697758979"><ele>324.0</ele><time>2026-04-18T13:42:16Z</time></trkpt><trkpt lat="43.45220817360118" lon="5.957559588036943"><ele>324.0</ele><time>2026-04-18T13:42:17Z</time></trkpt><trkpt lat="43.452139733323975" lon="5.957531636472257"><ele>324.0</ele><time>2026-04-18T13:42:18Z</time></trkpt><trkpt lat="43.452041608938295" lon="5.9575683897840594"><ele>324.0</ele><time>2026-04-18T13:42:20Z</time></trkpt><trkpt lat="43.45200898730695" lon="5.957700080683086"><ele>324.0</ele><time>2026-04-18T13:42:22Z</time></trkpt><trkpt lat="43.45202435526774" lon="5.957854743845058"><ele>324.0</ele><time>2026-04-18T13:42:24Z</time></trkpt><trkpt lat="43.451963527342556" lon="5.958001783355149"><ele>324.0</ele><time>2026-04-18T13:42:26Z</time></trkpt><trkpt lat="43.45193500360211" lon="5.958096065066951"><ele>324.0</ele><time>2026-04-18T13:42:27Z</time></trkpt><trkpt lat="43.45190000544043" lon="5.958251296639731"><ele>324.0</ele><time>2026-04-18T13:42:29Z</time></trkpt><trkpt lat="43.45187246074852" lon="5.958384079572277"><ele>324.0</ele><time>2026-04-18T13:42:30Z</time></trkpt><trkpt lat="43.451848737176064" lon="5.958530560978144"><ele>324.0</ele><time>2026-04-18T13:42:31Z</time></trkpt><trkpt lat="43.45182363599778" lon="5.958664176953179"><ele>324.0</ele><time>2026-04-18T13:42:32Z</time></trkpt><trkpt lat="43.45180766614882" lon="5.958789420730722"><ele>324.0</ele><time>2026-04-18T13:42:33Z</time></trkpt><trkpt lat="43.451791596220836" lon="5.958908305113012"><ele>324.0</ele><time>2026-04-18T13:42:34Z</time></trkpt><trkpt lat="43.45177792750397" lon="5.959025197589355"><ele>324.0</ele><time>2026-04-18T13:42:35Z</time></trkpt><trkpt lat="43.45176865654746" lon="5.959144980181794"><ele>324.0</ele><time>2026-04-18T13:42:36Z</time></trkpt><trkpt lat="43.45175397738291" lon="5.959261995038892"><ele>324.0</ele><time>2026-04-18T13:42:37Z</time></trkpt><trkpt lat="43.451747172918374" lon="5.959390138836537"><ele>324.0</ele><time>2026-04-18T13:42:38Z</time></trkpt><trkpt lat="43.451737869309696" lon="5.959533678057964"><ele>324.0</ele><time>2026-04-18T13:42:39Z</time></trkpt><trkpt lat="43.451721499196736" lon="5.959670555165005"><ele>323.6666666666667</ele><time>2026-04-18T13:42:40Z</time></trkpt><trkpt lat="43.45170536453729" lon="5.959794714469778"><ele>323.3333333333333</ele><time>2026-04-18T13:42:41Z</time></trkpt><trkpt lat="43.451695953671326" lon="5.959916343276254"><ele>323.0</ele><time>2026-04-18T13:42:42Z</time></trkpt><trkpt lat="43.451687050277904" lon="5.960031386912858"><ele>322.66666666666663</ele><time>2026-04-18T13:42:43Z</time></trkpt><trkpt lat="43.451676483781036" lon="5.960141824331721"><ele>322.3333333333333</ele><time>2026-04-18T13:42:44Z</time></trkpt><trkpt lat="43.4516705463696" lon="5.96026098484873"><ele>322.0</ele><time>2026-04-18T13:42:45Z</time></trkpt><trkpt lat="43.45166257326826" lon="5.960403576592449"><ele>321.8333333333333</ele><time>2026-04-18T13:42:46Z</time></trkpt><trkpt lat="43.45164893776642" lon="5.960553347476106"><ele>321.66666666666663</ele><time>2026-04-18T13:42:47Z</time></trkpt><trkpt lat="43.45162452384789" lon="5.9606798023975385"><ele>321.5</ele><time>2026-04-18T13:42:48Z</time></trkpt><trkpt lat="43.45159452222944" lon="5.960790277404158"><ele>321.3333333333333</ele><time>2026-04-18T13:42:49Z</time></trkpt><trkpt lat="43.45156036847841" lon="5.960885676877074"><ele>321.1666666666667</ele><time>2026-04-18T13:42:50Z</time></trkpt><trkpt lat="43.45151446467892" lon="5.960967851588985"><ele>321.0</ele><time>2026-04-18T13:42:51Z</time></trkpt><trkpt lat="43.45146081393852" lon="5.961058393472975"><ele>322.0</ele><time>2026-04-18T13:42:52Z</time></trkpt><trkpt lat="43.45141356639471" lon="5.961171748255739"><ele>323.0</ele><time>2026-04-18T13:42:53Z</time></trkpt><trkpt lat="43.45135883613758" lon="5.961267505807238"><ele>324.0</ele><time>2026-04-18T13:42:54Z</time></trkpt><trkpt lat="43.45129411038659" lon="5.9613648972027775"><ele>325.0</ele><time>2026-04-18T13:42:55Z</time></trkpt><trkpt lat="43.45123668587021" lon="5.961447356722149"><ele>326.0</ele><time>2026-04-18T13:42:56Z</time></trkpt><trkpt lat="43.45118087314021" lon="5.961562509323229"><ele>327.4</ele><time>2026-04-18T13:42:58Z</time></trkpt><trkpt lat="43.45112015937782" lon="5.9615936184398794"><ele>328.8</ele><time>2026-04-18T13:42:59Z</time></trkpt><trkpt lat="43.451004892600125" lon="5.961649097713089"><ele>330.2</ele><time>2026-04-18T13:43:01Z</time></trkpt><trkpt lat="43.45093784953043" lon="5.961665191332362"><ele>331.59999999999997</ele><time>2026-04-18T13:43:03Z</time></trkpt><trkpt lat="43.450899648485745" lon="5.961766931080815"><ele>333.0</ele><time>2026-04-18T13:43:06Z</time></trkpt><trkpt lat="43.45082367510341" lon="5.96188862043707"><ele>334.6666666666667</ele><time>2026-04-18T13:43:09Z</time></trkpt><trkpt lat="43.45077516839764" lon="5.9619675909957355"><ele>336.3333333333333</ele><time>2026-04-18T13:43:12Z</time></trkpt><trkpt lat="43.450769875194254" lon="5.9620835121454725"><ele>338.0</ele><time>2026-04-18T13:43:15Z</time></trkpt><trkpt lat="43.450753046437335" lon="5.962169033359589"><ele>339.66666666666663</ele><time>2026-04-18T13:43:17Z</time></trkpt><trkpt lat="43.45069056994884" lon="5.962226981394041"><ele>341.3333333333333</ele><time>2026-04-18T13:43:20Z</time></trkpt><trkpt lat="43.45067864024048" lon="5.962314592837383"><ele>343.0</ele><time>2026-04-18T13:43:22Z</time></trkpt><trkpt lat="43.45057285141742" lon="5.962547573364472"><ele>344.16666666666663</ele><time>2026-04-18T13:43:24Z</time></trkpt><trkpt lat="43.45052279647044" lon="5.96265391739833"><ele>345.3333333333333</ele><time>2026-04-18T13:43:25Z</time></trkpt><trkpt lat="43.450478153094075" lon="5.962736731623889"><ele>346.5</ele><time>2026-04-18T13:43:26Z</time></trkpt><trkpt lat="43.450433938698325" lon="5.962829766715821"><ele>347.6666666666667</ele><time>2026-04-18T13:43:27Z</time></trkpt><trkpt lat="43.4503901656122" lon="5.962918702192082"><ele>348.83333333333337</ele><time>2026-04-18T13:43:28Z</time></trkpt><trkpt lat="43.45038867672553" lon="5.963020656935096"><ele>350.0</ele><time>2026-04-18T13:43:29Z</time></trkpt><trkpt lat="43.450429527720765" lon="5.963153753810219"><ele>350.2</ele><time>2026-04-18T13:43:31Z</time></trkpt><trkpt lat="43.4504246089165" lon="5.963259102040213"><ele>350.4</ele><time>2026-04-18T13:43:32Z</time></trkpt><trkpt lat="43.45039529467061" lon="5.9633918477430115"><ele>350.6</ele><time>2026-04-18T13:43:34Z</time></trkpt><trkpt lat="43.45024502783947" lon="5.963352374733968"><ele>350.8</ele><time>2026-04-18T13:44:05Z</time></trkpt><trkpt lat="43.45019897314331" lon="5.9634660117967515"><ele>351.0</ele><time>2026-04-18T13:45:01Z</time></trkpt><trkpt lat="43.45015366339327" lon="5.963555269777192"><ele>351.0</ele><time>2026-04-18T13:45:02Z</time></trkpt><trkpt lat="43.450076397935185" lon="5.963594225603038"><ele>351.0</ele><time>2026-04-18T13:45:04Z</time></trkpt><trkpt lat="43.44999518967678" lon="5.963515312029112"><ele>351.0</ele><time>2026-04-18T13:45:06Z</time></trkpt><trkpt lat="43.44994201109357" lon="5.963428534802665"><ele>351.0</ele><time>2026-04-18T13:45:07Z</time></trkpt><trkpt lat="43.449887519916224" lon="5.963351392410409"><ele>351.0</ele><time>2026-04-18T13:45:08Z</time></trkpt><trkpt lat="43.44981231368106" lon="5.96328550018294"><ele>351.0</ele><time>2026-04-18T13:45:09Z</time></trkpt><trkpt lat="43.44973638776894" lon="5.963228898558859"><ele>351.3333333333333</ele><time>2026-04-18T13:45:10Z</time></trkpt><trkpt lat="43.449656836267174" lon="5.963172180567959"><ele>351.6666666666667</ele><time>2026-04-18T13:45:11Z</time></trkpt><trkpt lat="43.44959037660131" lon="5.963108668672439"><ele>352.0</ele><time>2026-04-18T13:45:12Z</time></trkpt><trkpt lat="43.44953003894831" lon="5.963031562290492"><ele>352.33333333333337</ele><time>2026-04-18T13:45:13Z</time></trkpt><trkpt lat="43.44947587081001" lon="5.962979942045865"><ele>352.6666666666667</ele><time>2026-04-18T13:45:14Z</time></trkpt><trkpt lat="43.449376635665104" lon="5.962905283331185"><ele>353.0</ele><time>2026-04-18T13:45:16Z</time></trkpt><trkpt lat="43.44925588249568" lon="5.962802308124804"><ele>353.5</ele><time>2026-04-18T13:45:18Z</time></trkpt><trkpt lat="43.44919543206113" lon="5.962740835566405"><ele>354.0</ele><time>2026-04-18T13:45:19Z</time></trkpt><trkpt lat="43.44912910006622" lon="5.962682761254723"><ele>354.5</ele><time>2026-04-18T13:45:20Z</time></trkpt><trkpt lat="43.44906268119356" lon="5.962639890489411"><ele>355.0</ele><time>2026-04-18T13:45:21Z</time></trkpt><trkpt lat="43.44899315670627" lon="5.962623691063268"><ele>355.5</ele><time>2026-04-18T13:45:22Z</time></trkpt><trkpt lat="43.44890331830402" lon="5.962590205954161"><ele>356.0</ele><time>2026-04-18T13:45:23Z</time></trkpt><trkpt lat="43.44881298715311" lon="5.962575211800376"><ele>355.5</ele><time>2026-04-18T13:45:24Z</time></trkpt><trkpt lat="43.448713904312676" lon="5.962561650250537"><ele>355.0</ele><time>2026-04-18T13:45:25Z</time></trkpt><trkpt lat="43.448638318828344" lon="5.9625656258016635"><ele>354.5</ele><time>2026-04-18T13:45:26Z</time></trkpt><trkpt lat="43.44854675310816" lon="5.962551288149236"><ele>354.0</ele><time>2026-04-18T13:45:27Z</time></trkpt><trkpt lat="43.44845903514385" lon="5.962547065395254"><ele>353.5</ele><time>2026-04-18T13:45:28Z</time></trkpt><trkpt lat="43.44839276988316" lon="5.962564598175066"><ele>353.0</ele><time>2026-04-18T13:45:29Z</time></trkpt><trkpt lat="43.448330081406944" lon="5.962603069194348"><ele>353.0</ele><time>2026-04-18T13:45:30Z</time></trkpt><trkpt lat="43.448268465099176" lon="5.962650165363018"><ele>353.0</ele><time>2026-04-18T13:45:31Z</time></trkpt><trkpt lat="43.4482077774501" lon="5.962680532975763"><ele>353.0</ele><time>2026-04-18T13:45:32Z</time></trkpt><trkpt lat="43.44812767783892" lon="5.962700052058303"><ele>353.0</ele><time>2026-04-18T13:45:33Z</time></trkpt><trkpt lat="43.44803292898098" lon="5.9627364217268815"><ele>353.0</ele><time>2026-04-18T13:45:34Z</time></trkpt><trkpt lat="43.44795133963512" lon="5.9627564454019275"><ele>353.0</ele><time>2026-04-18T13:45:35Z</time></trkpt><trkpt lat="43.447872964968205" lon="5.9627682209571296"><ele>351.33333333333337</ele><time>2026-04-18T13:45:36Z</time></trkpt><trkpt lat="43.44780218758616" lon="5.962787392500392"><ele>349.6666666666667</ele><time>2026-04-18T13:45:37Z</time></trkpt><trkpt lat="43.4477415068994" lon="5.962818158784444"><ele>348.0</ele><time>2026-04-18T13:45:38Z</time></trkpt><trkpt lat="43.44767547922373" lon="5.962826504077584"><ele>346.3333333333333</ele><time>2026-04-18T13:45:39Z</time></trkpt><trkpt lat="43.44756535475545" lon="5.962836348317828"><ele>344.66666666666663</ele><time>2026-04-18T13:45:41Z</time></trkpt><trkpt lat="43.447468084709854" lon="5.962838029972391"><ele>343.0</ele><time>2026-04-18T13:45:44Z</time></trkpt><trkpt lat="43.447387439909754" lon="5.962857408842519"><ele>343.0</ele><time>2026-04-18T13:45:46Z</time></trkpt><trkpt lat="43.44730883143307" lon="5.962881011916545"><ele>343.0</ele><time>2026-04-18T13:45:48Z</time></trkpt><trkpt lat="43.447247721677776" lon="5.962913411682487"><ele>343.0</ele><time>2026-04-18T13:45:50Z</time></trkpt><trkpt lat="43.44715223068544" lon="5.96294392343229"><ele>343.0</ele><time>2026-04-18T13:45:52Z</time></trkpt><trkpt lat="43.44709351863114" lon="5.962987788699714"><ele>343.0</ele><time>2026-04-18T13:45:54Z</time></trkpt><trkpt lat="43.4470223711091" lon="5.963003065225101"><ele>343.0</ele><time>2026-04-18T13:45:57Z</time></trkpt><trkpt lat="43.44692884866308" lon="5.963065652187733"><ele>342.4</ele><time>2026-04-18T13:45:59Z</time></trkpt><trkpt lat="43.44682127761688" lon="5.963144663148084"><ele>341.79999999999995</ele><time>2026-04-18T13:46:01Z</time></trkpt><trkpt lat="43.44672381349775" lon="5.9631799590388015"><ele>341.2</ele><time>2026-04-18T13:46:03Z</time></trkpt><trkpt lat="43.44661226832396" lon="5.963230615494328"><ele>340.6</ele><time>2026-04-18T13:46:05Z</time></trkpt><trkpt lat="43.44651399122139" lon="5.963262483045571"><ele>340.0</ele><time>2026-04-18T13:46:08Z</time></trkpt><trkpt lat="43.44643950893846" lon="5.963298094138357"><ele>340.0</ele><time>2026-04-18T13:46:09Z</time></trkpt><trkpt lat="43.44637143954181" lon="5.963323374554057"><ele>340.0</ele><time>2026-04-18T13:46:10Z</time></trkpt><trkpt lat="43.44626612180477" lon="5.963351987452083"><ele>340.0</ele><time>2026-04-18T13:46:12Z</time></trkpt><trkpt lat="43.4461694286624" lon="5.963402586276229"><ele>340.0</ele><time>2026-04-18T13:46:14Z</time></trkpt><trkpt lat="43.446071710031845" lon="5.96343531456434"><ele>340.0</ele><time>2026-04-18T13:46:16Z</time></trkpt><trkpt lat="43.44597510470891" lon="5.963475337962986"><ele>342.2</ele><time>2026-04-18T13:46:18Z</time></trkpt><trkpt lat="43.44583521281263" lon="5.9634764313837945"><ele>344.4</ele><time>2026-04-18T13:46:20Z</time></trkpt><trkpt lat="43.445762739014285" lon="5.963498340667046"><ele>346.6</ele><time>2026-04-18T13:46:21Z</time></trkpt><trkpt lat="43.44568696814982" lon="5.963532485433405"><ele>348.8</ele><time>2026-04-18T13:46:22Z</time></trkpt><trkpt lat="43.44559806491857" lon="5.963568541696991"><ele>351.0</ele><time>2026-04-18T13:46:23Z</time></trkpt><trkpt lat="43.44552491035069" lon="5.96357839202041"><ele>353.0</ele><time>2026-04-18T13:46:24Z</time></trkpt><trkpt lat="43.445392662805425" lon="5.9635741123339985"><ele>355.0</ele><time>2026-04-18T13:46:26Z</time></trkpt><trkpt lat="43.44530255417068" lon="5.963585777857011"><ele>357.0</ele><time>2026-04-18T13:46:27Z</time></trkpt><trkpt lat="43.44522381557889" lon="5.963579367966636"><ele>359.0</ele><time>2026-04-18T13:46:28Z</time></trkpt><trkpt lat="43.44515681543192" lon="5.963579972168934"><ele>361.0</ele><time>2026-04-18T13:46:29Z</time></trkpt><trkpt lat="43.44506957007581" lon="5.963613760076273"><ele>361.0</ele><time>2026-04-18T13:46:30Z</time></trkpt><trkpt lat="43.44497349709438" lon="5.96365334433727"><ele>361.0</ele><time>2026-04-18T13:46:31Z</time></trkpt><trkpt lat="43.44489834392146" lon="5.963696279435421"><ele>361.0</ele><time>2026-04-18T13:46:32Z</time></trkpt><trkpt lat="43.44481514010825" lon="5.9637569291715655"><ele>361.0</ele><time>2026-04-18T13:46:33Z</time></trkpt><trkpt lat="43.44473137809674" lon="5.963822228177922"><ele>361.0</ele><time>2026-04-18T13:46:34Z</time></trkpt><trkpt lat="43.44467053226803" lon="5.963880323319646"><ele>361.0</ele><time>2026-04-18T13:46:35Z</time></trkpt><trkpt lat="43.44461229944452" lon="5.963923382432687"><ele>361.7142857142857</ele><time>2026-04-18T13:46:36Z</time></trkpt><trkpt lat="43.44455227427195" lon="5.963952987513718"><ele>362.4285714285714</ele><time>2026-04-18T13:46:37Z</time></trkpt><trkpt lat="43.4444842437997" lon="5.963975162966837"><ele>363.1428571428571</ele><time>2026-04-18T13:46:38Z</time></trkpt><trkpt lat="43.444406822426714" lon="5.964001462570619"><ele>363.8571428571429</ele><time>2026-04-18T13:46:39Z</time></trkpt><trkpt lat="43.44433366207829" lon="5.964034624674675"><ele>364.57142857142856</ele><time>2026-04-18T13:46:40Z</time></trkpt><trkpt lat="43.44426811964832" lon="5.964078359192292"><ele>365.2857142857143</ele><time>2026-04-18T13:46:41Z</time></trkpt><trkpt lat="43.44420514154064" lon="5.964115030874187"><ele>366.0</ele><time>2026-04-18T13:46:42Z</time></trkpt><trkpt lat="43.44414250909265" lon="5.964146972497204"><ele>366.0</ele><time>2026-04-18T13:46:43Z</time></trkpt><trkpt lat="43.444061242168715" lon="5.964175185720112"><ele>366.0</ele><time>2026-04-18T13:46:44Z</time></trkpt><trkpt lat="43.44399153538226" lon="5.964211514757433"><ele>366.0</ele><time>2026-04-18T13:46:45Z</time></trkpt><trkpt lat="43.443882164906015" lon="5.964256777509344"><ele>366.0</ele><time>2026-04-18T13:46:47Z</time></trkpt><trkpt lat="43.443820923689884" lon="5.964283112141709"><ele>366.0</ele><time>2026-04-18T13:46:48Z</time></trkpt><trkpt lat="43.44369778664548" lon="5.9642974557652835"><ele>366.5</ele><time>2026-04-18T13:46:50Z</time></trkpt><trkpt lat="43.44361810641938" lon="5.964309717408467"><ele>367.0</ele><time>2026-04-18T13:46:51Z</time></trkpt><trkpt lat="43.44353928973298" lon="5.964334804251039"><ele>367.5</ele><time>2026-04-18T13:46:52Z</time></trkpt><trkpt lat="43.44347895212554" lon="5.964364786387902"><ele>368.0</ele><time>2026-04-18T13:46:53Z</time></trkpt><trkpt lat="43.443371135666716" lon="5.964465644008599"><ele>368.5</ele><time>2026-04-18T13:46:55Z</time></trkpt><trkpt lat="43.44329123346479" lon="5.964527313437321"><ele>369.0</ele><time>2026-04-18T13:46:56Z</time></trkpt><trkpt lat="43.44321655023995" lon="5.964578567934476"><ele>369.0</ele><time>2026-04-18T13:46:57Z</time></trkpt><trkpt lat="43.443159683592825" lon="5.964619768777109"><ele>369.0</ele><time>2026-04-18T13:46:58Z</time></trkpt><trkpt lat="43.443069719139885" lon="5.964681830931449"><ele>369.0</ele><time>2026-04-18T13:47:00Z</time></trkpt><trkpt lat="43.44299210464831" lon="5.9647576898490495"><ele>369.0</ele><time>2026-04-18T13:47:02Z</time></trkpt><trkpt lat="43.4429279467095" lon="5.964793125624944"><ele>369.0</ele><time>2026-04-18T13:47:03Z</time></trkpt><trkpt lat="43.442860332911856" lon="5.9648276952072665"><ele>369.0</ele><time>2026-04-18T13:47:04Z</time></trkpt><trkpt lat="43.44278803244079" lon="5.9648668182977165"><ele>370.0</ele><time>2026-04-18T13:47:05Z</time></trkpt><trkpt lat="43.44272235534135" lon="5.964907631790689"><ele>371.0</ele><time>2026-04-18T13:47:06Z</time></trkpt><trkpt lat="43.442628280901864" lon="5.964999158724631"><ele>372.0</ele><time>2026-04-18T13:47:08Z</time></trkpt><trkpt lat="43.44251891569399" lon="5.9650651491335305"><ele>373.0</ele><time>2026-04-18T13:47:10Z</time></trkpt><trkpt lat="43.44246087911553" lon="5.965105638728489"><ele>374.0</ele><time>2026-04-18T13:47:11Z</time></trkpt><trkpt lat="43.442363775240494" lon="5.965242265616739"><ele>374.0</ele><time>2026-04-18T13:47:13Z</time></trkpt><trkpt lat="43.442251973920996" lon="5.965332076467792"><ele>374.0</ele><time>2026-04-18T13:47:15Z</time></trkpt><trkpt lat="43.4421700507099" lon="5.965371681958887"><ele>374.0</ele><time>2026-04-18T13:47:16Z</time></trkpt><trkpt lat="43.44207393907747" lon="5.965440337601163"><ele>374.0</ele><time>2026-04-18T13:47:18Z</time></trkpt><trkpt lat="43.44197416886993" lon="5.965516042203623"><ele>374.0</ele><time>2026-04-18T13:47:20Z</time></trkpt><trkpt lat="43.44187322788189" lon="5.965596081608686"><ele>374.0</ele><time>2026-04-18T13:47:22Z</time></trkpt><trkpt lat="43.441826246202595" lon="5.965654117294724"><ele>374.0</ele><time>2026-04-18T13:47:23Z</time></trkpt><trkpt lat="43.441734279466914" lon="5.965727424922267"><ele>374.0</ele><time>2026-04-18T13:47:25Z</time></trkpt><trkpt lat="43.441658316026384" lon="5.96581561386356"><ele>374.0</ele><time>2026-04-18T13:47:27Z</time></trkpt><trkpt lat="43.44159803134806" lon="5.965928394189488"><ele>374.0</ele><time>2026-04-18T13:47:29Z</time></trkpt><trkpt lat="43.44150708157898" lon="5.965990256642522"><ele>372.79999999999995</ele><time>2026-04-18T13:47:31Z</time></trkpt><trkpt lat="43.4414397840239" lon="5.966015260776"><ele>371.59999999999997</ele><time>2026-04-18T13:47:32Z</time></trkpt><trkpt lat="43.44132538153678" lon="5.966069793126292"><ele>370.4</ele><time>2026-04-18T13:47:34Z</time></trkpt><trkpt lat="43.4412637573798" lon="5.966132180153507"><ele>369.2</ele><time>2026-04-18T13:47:35Z</time></trkpt><trkpt lat="43.441179678688414" lon="5.966227596725004"><ele>368.0</ele><time>2026-04-18T13:47:36Z</time></trkpt><trkpt lat="43.441110940734205" lon="5.966314280198731"><ele>368.0</ele><time>2026-04-18T13:47:37Z</time></trkpt><trkpt lat="43.4410426791682" lon="5.966369110787883"><ele>368.0</ele><time>2026-04-18T13:47:38Z</time></trkpt><trkpt lat="43.44098812601829" lon="5.966423057616157"><ele>368.0</ele><time>2026-04-18T13:47:39Z</time></trkpt><trkpt lat="43.44092632247915" lon="5.9664877091830215"><ele>368.0</ele><time>2026-04-18T13:47:40Z</time></trkpt><trkpt lat="43.44082822251251" lon="5.96657307042231"><ele>368.0</ele><time>2026-04-18T13:47:41Z</time></trkpt><trkpt lat="43.44073748620884" lon="5.966657569702464"><ele>368.0</ele><time>2026-04-18T13:47:42Z</time></trkpt><trkpt lat="43.4406712751801" lon="5.96671140667198"><ele>367.8571428571429</ele><time>2026-04-18T13:47:43Z</time></trkpt><trkpt lat="43.440614611388106" lon="5.966761261740739"><ele>367.71428571428567</ele><time>2026-04-18T13:47:44Z</time></trkpt><trkpt lat="43.44056853579484" lon="5.966828686793502"><ele>367.57142857142856</ele><time>2026-04-18T13:47:45Z</time></trkpt><trkpt lat="43.440526374790394" lon="5.966905571331018"><ele>367.42857142857144</ele><time>2026-04-18T13:47:46Z</time></trkpt><trkpt lat="43.44047571499674" lon="5.966971726108398"><ele>367.28571428571433</ele><time>2026-04-18T13:47:47Z</time></trkpt><trkpt lat="43.440429120935576" lon="5.9670484957032315"><ele>367.1428571428571</ele><time>2026-04-18T13:47:48Z</time></trkpt><trkpt lat="43.44039404304355" lon="5.967150797114666"><ele>367.0</ele><time>2026-04-18T13:47:49Z</time></trkpt><trkpt lat="43.440373142560674" lon="5.967293301645466"><ele>366.40000000000003</ele><time>2026-04-18T13:47:50Z</time></trkpt><trkpt lat="43.44034730503284" lon="5.967449724269584"><ele>365.8</ele><time>2026-04-18T13:47:51Z</time></trkpt><trkpt lat="43.4403308238744" lon="5.967576069555492"><ele>365.2</ele><time>2026-04-18T13:47:52Z</time></trkpt><trkpt lat="43.44031387353154" lon="5.967690732515106"><ele>364.6</ele><time>2026-04-18T13:47:53Z</time></trkpt><trkpt lat="43.44028511061113" lon="5.9677893503146215"><ele>364.0</ele><time>2026-04-18T13:47:54Z</time></trkpt><trkpt lat="43.44027175126339" lon="5.96790167706527"><ele>363.8333333333333</ele><time>2026-04-18T13:47:55Z</time></trkpt><trkpt lat="43.44025657560135" lon="5.96800580425715"><ele>363.66666666666663</ele><time>2026-04-18T13:47:56Z</time></trkpt><trkpt lat="43.44024538120976" lon="5.968102562279067"><ele>363.5</ele><time>2026-04-18T13:47:57Z</time></trkpt><trkpt lat="43.440218653871135" lon="5.968280624087576"><ele>363.3333333333333</ele><time>2026-04-18T13:47:59Z</time></trkpt><trkpt lat="43.44019833490129" lon="5.968387271060523"><ele>363.1666666666667</ele><time>2026-04-18T13:48:00Z</time></trkpt><trkpt lat="43.4401763124963" lon="5.968499965774198"><ele>363.0</ele><time>2026-04-18T13:48:01Z</time></trkpt><trkpt lat="43.44015159056528" lon="5.968601128904529"><ele>362.0</ele><time>2026-04-18T13:48:02Z</time></trkpt><trkpt lat="43.44013835839545" lon="5.968735935473071"><ele>361.0</ele><time>2026-04-18T13:48:03Z</time></trkpt><trkpt lat="43.440125553349624" lon="5.968852046602972"><ele>360.0</ele><time>2026-04-18T13:48:04Z</time></trkpt><trkpt lat="43.44010986486753" lon="5.968953699677586"><ele>359.0</ele><time>2026-04-18T13:48:05Z</time></trkpt><trkpt lat="43.44005525928097" lon="5.969045997201709"><ele>358.0</ele><time>2026-04-18T13:48:08Z</time></trkpt><trkpt lat="43.43999932918737" lon="5.969137096710619"><ele>357.0</ele><time>2026-04-18T13:48:10Z</time></trkpt><trkpt lat="43.43994582672061" lon="5.969198371885809"><ele>356.6</ele><time>2026-04-18T13:48:11Z</time></trkpt><trkpt lat="43.43985862573696" lon="5.969375893778195"><ele>356.20000000000005</ele><time>2026-04-18T13:48:13Z</time></trkpt><trkpt lat="43.4397723605487" lon="5.969484991573929"><ele>355.8</ele><time>2026-04-18T13:48:15Z</time></trkpt><trkpt lat="43.439720088179044" lon="5.969539834928824"><ele>355.4</ele><time>2026-04-18T13:48:16Z</time></trkpt><trkpt lat="43.439667434288616" lon="5.96963705661201"><ele>355.0</ele><time>2026-04-18T13:48:18Z</time></trkpt><trkpt lat="43.43960648103246" lon="5.969670244957077"><ele>356.4</ele><time>2026-04-18T13:48:21Z</time></trkpt><trkpt lat="43.43951222753564" lon="5.9696894559187275"><ele>357.8</ele><time>2026-04-18T13:48:23Z</time></trkpt><trkpt lat="43.4394441827649" lon="5.969680496799082"><ele>359.20000000000005</ele><time>2026-04-18T13:48:26Z</time></trkpt><trkpt lat="43.439311210922966" lon="5.969685666407347"><ele>360.6</ele><time>2026-04-18T13:48:38Z</time></trkpt><trkpt lat="43.439200607979664" lon="5.969731374273594"><ele>362.0</ele><time>2026-04-18T13:48:39Z</time></trkpt><trkpt lat="43.43908044379771" lon="5.969741393537898"><ele>362.0</ele><time>2026-04-18T13:48:40Z</time></trkpt><trkpt lat="43.43897448334288" lon="5.969749269980749"><ele>362.0</ele><time>2026-04-18T13:48:41Z</time></trkpt><trkpt lat="43.438822990577535" lon="5.969758329554301"><ele>362.0</ele><time>2026-04-18T13:48:42Z</time></trkpt><trkpt lat="43.438701782977574" lon="5.969752273912131"><ele>362.0</ele><time>2026-04-18T13:48:43Z</time></trkpt><trkpt lat="43.43860919668112" lon="5.96974859123251"><ele>362.33333333333337</ele><time>2026-04-18T13:48:44Z</time></trkpt><trkpt lat="43.438535277835754" lon="5.969726286524617"><ele>362.6666666666667</ele><time>2026-04-18T13:48:45Z</time></trkpt><trkpt lat="43.43847627387109" lon="5.969673296699522"><ele>363.0</ele><time>2026-04-18T13:48:46Z</time></trkpt><trkpt lat="43.4401763124963" lon="5.968499965774198"><ele>362.0</ele><time>2026-04-18T13:48:01Z</time></trkpt><trkpt lat="43.44015159056528" lon="5.968601128904529"><ele>361.0</ele><time>2026-04-18T13:48:02Z</time></trkpt><trkpt lat="43.44013835839545" lon="5.968735935473071"><ele>360.0</ele><time>2026-04-18T13:48:03Z</time></trkpt><trkpt lat="43.440125553349624" lon="5.968852046602972"><ele>359.0</ele><time>2026-04-18T13:48:04Z</time></trkpt><trkpt lat="43.44010986486753" lon="5.968953699677586"><ele>358.0</ele><time>2026-04-18T13:48:05Z</time></trkpt><trkpt lat="43.44005525928097" lon="5.969045997201709"><ele>357.0</ele><time>2026-04-18T13:48:08Z</time></trkpt><trkpt lat="43.43999932918737" lon="5.969137096710619"><ele>356.6</ele><time>2026-04-18T13:48:10Z</time></trkpt><trkpt lat="43.43994582672061" lon="5.969198371885809"><ele>356.20000000000005</ele><time>2026-04-18T13:48:11Z</time></trkpt><trkpt lat="43.43985862573696" lon="5.969375893778195"><ele>355.8</ele><time>2026-04-18T13:48:13Z</time></trkpt><trkpt lat="43.4397723605487" lon="5.969484991573929"><ele>355.4</ele><time>2026-04-18T13:48:15Z</time></trkpt><trkpt lat="43.439720088179044" lon="5.969539834928824"><ele>355.0</ele><time>2026-04-18T13:48:16Z</time></trkpt><trkpt lat="43.439667434288616" lon="5.96963705661201"><ele>356.4</ele><time>2026-04-18T13:48:18Z</time></trkpt><trkpt lat="43.43960648103246" lon="5.969670244957077"><ele>357.8</ele><time>2026-04-18T13:48:21Z</time></trkpt><trkpt lat="43.43951222753564" lon="5.9696894559187275"><ele>359.20000000000005</ele><time>2026-04-18T13:48:23Z</time></trkpt><trkpt lat="43.4394441827649" lon="5.969680496799082"><ele>360.6</ele><time>2026-04-18T13:48:26Z</time></trkpt><trkpt lat="43.439311210922966" lon="5.969685666407347"><ele>362.0</ele><time>2026-04-18T13:48:38Z</time></trkpt><trkpt lat="43.439200607979664" lon="5.969731374273594"><ele>362.0</ele><time>2026-04-18T13:48:39Z</time></trkpt><trkpt lat="43.43908044379771" lon="5.969741393537898"><ele>362.0</ele><time>2026-04-18T13:48:40Z</time></trkpt><trkpt lat="43.43897448334288" lon="5.969749269980749"><ele>362.0</ele><time>2026-04-18T13:48:41Z</time></trkpt><trkpt lat="43.438822990577535" lon="5.969758329554301"><ele>362.0</ele><time>2026-04-18T13:48:42Z</time></trkpt><trkpt lat="43.438701782977574" lon="5.969752273912131"><ele>362.1666666666667</ele><time>2026-04-18T13:48:43Z</time></trkpt><trkpt lat="43.43860919668112" lon="5.96974859123251"><ele>362.33333333333337</ele><time>2026-04-18T13:48:44Z</time></trkpt><trkpt lat="43.438535277835754" lon="5.969726286524617"><ele>362.5</ele><time>2026-04-18T13:48:45Z</time></trkpt><trkpt lat="43.43847627387109" lon="5.969673296699522"><ele>362.6666666666667</ele><time>2026-04-18T13:48:46Z</time></trkpt><trkpt lat="43.438422105113126" lon="5.969615967122016"><ele>362.8333333333333</ele><time>2026-04-18T13:48:47Z</time></trkpt><trkpt lat="43.438334113245624" lon="5.969554501900774"><ele>363.0</ele><time>2026-04-18T13:48:48Z</time></trkpt><trkpt lat="43.438247143538206" lon="5.96953733518273"><ele>363.0</ele><time>2026-04-18T13:48:49Z</time></trkpt><trkpt lat="43.438137983821214" lon="5.969541767252813"><ele>363.0</ele><time>2026-04-18T13:48:50Z</time></trkpt><trkpt lat="43.43800561035214" lon="5.969521384067616"><ele>363.0</ele><time>2026-04-18T13:48:51Z</time></trkpt><trkpt lat="43.43789081429349" lon="5.9695175378914564"><ele>363.0</ele><time>2026-04-18T13:48:52Z</time></trkpt><trkpt lat="43.43780358101744" lon="5.969502664229596"><ele>363.0</ele><time>2026-04-18T13:48:53Z</time></trkpt><trkpt lat="43.43772952413896" lon="5.969473366062227"><ele>361.79999999999995</ele><time>2026-04-18T13:48:54Z</time></trkpt><trkpt lat="43.43761209938197" lon="5.969440049358108"><ele>360.6</ele><time>2026-04-18T13:48:56Z</time></trkpt><trkpt lat="43.43752350137482" lon="5.969411025111051"><ele>359.4</ele><time>2026-04-18T13:49:10Z</time></trkpt><trkpt lat="43.437437510551966" lon="5.969397826114687"><ele>358.20000000000005</ele><time>2026-04-18T13:49:11Z</time></trkpt><trkpt lat="43.437315801585825" lon="5.969350521827981"><ele>357.0</ele><time>2026-04-18T13:49:12Z</time></trkpt><trkpt lat="43.43720725119801" lon="5.9693268786210325"><ele>357.0</ele><time>2026-04-18T13:49:13Z</time></trkpt><trkpt lat="43.43714255350277" lon="5.969320384672967"><ele>357.0</ele><time>2026-04-18T13:49:14Z</time></trkpt><trkpt lat="43.437031315504974" lon="5.9693604913883895"><ele>357.0</ele><time>2026-04-18T13:49:16Z</time></trkpt><trkpt lat="43.43691678504557" lon="5.9693976483851054"><ele>357.0</ele><time>2026-04-18T13:49:17Z</time></trkpt><trkpt lat="43.43680651682166" lon="5.9694487878428735"><ele>357.0</ele><time>2026-04-18T13:49:18Z</time></trkpt><trkpt lat="43.43669573052088" lon="5.9694832819600405"><ele>356.6</ele><time>2026-04-18T13:49:19Z</time></trkpt><trkpt lat="43.43659993789594" lon="5.969491753905378"><ele>356.20000000000005</ele><time>2026-04-18T13:49:20Z</time></trkpt><trkpt lat="43.4365285613329" lon="5.969467936319336"><ele>355.8</ele><time>2026-04-18T13:49:21Z</time></trkpt><trkpt lat="43.43642837306645" lon="5.969384621086611"><ele>355.4</ele><time>2026-04-18T13:49:23Z</time></trkpt><trkpt lat="43.43632503711742" lon="5.96926521458097"><ele>355.0</ele><time>2026-04-18T13:49:25Z</time></trkpt><trkpt lat="43.436242094429176" lon="5.969176842792695"><ele>356.0</ele><time>2026-04-18T13:49:26Z</time></trkpt><trkpt lat="43.43614200201524" lon="5.969105253808623"><ele>357.0</ele><time>2026-04-18T13:49:27Z</time></trkpt><trkpt lat="43.436067514301584" lon="5.9690129604818285"><ele>358.0</ele><time>2026-04-18T13:49:28Z</time></trkpt><trkpt lat="43.436012924543455" lon="5.968931282332442"><ele>359.0</ele><time>2026-04-18T13:49:29Z</time></trkpt><trkpt lat="43.43594025579154" lon="5.968856581719417"><ele>360.0</ele><time>2026-04-18T13:49:30Z</time></trkpt><trkpt lat="43.43585597571365" lon="5.96878974880118"><ele>360.0</ele><time>2026-04-18T13:49:31Z</time></trkpt><trkpt lat="43.435801825947465" lon="5.968729438506998"><ele>360.0</ele><time>2026-04-18T13:49:32Z</time></trkpt><trkpt lat="43.43575157239411" lon="5.968648990669366"><ele>360.0</ele><time>2026-04-18T13:49:33Z</time></trkpt><trkpt lat="43.435689648289205" lon="5.968567762040373"><ele>360.0</ele><time>2026-04-18T13:49:34Z</time></trkpt><trkpt lat="43.43560668048498" lon="5.968487408940066"><ele>360.0</ele><time>2026-04-18T13:49:35Z</time></trkpt><trkpt lat="43.43553503530502" lon="5.968398908314639"><ele>360.0</ele><time>2026-04-18T13:49:36Z</time></trkpt><trkpt lat="43.43547609964274" lon="5.96834114863787"><ele>360.6</ele><time>2026-04-18T13:49:37Z</time></trkpt><trkpt lat="43.435358345110515" lon="5.968232536344044"><ele>361.2</ele><time>2026-04-18T13:49:39Z</time></trkpt><trkpt lat="43.43527754205663" lon="5.9681524216734765"><ele>361.79999999999995</ele><time>2026-04-18T13:49:40Z</time></trkpt><trkpt lat="43.43520951082347" lon="5.96808120854129"><ele>362.4</ele><time>2026-04-18T13:49:41Z</time></trkpt><trkpt lat="43.43511545666961" lon="5.968000571876083"><ele>363.0</ele><time>2026-04-18T13:49:43Z</time></trkpt><trkpt lat="43.43507029910962" lon="5.967916066378597"><ele>363.0</ele><time>2026-04-18T13:49:44Z</time></trkpt><trkpt lat="43.43501403537408" lon="5.967836210542625"><ele>363.0</ele><time>2026-04-18T13:49:45Z</time></trkpt><trkpt lat="43.43495538036671" lon="5.96778781742864"><ele>363.0</ele><time>2026-04-18T13:49:46Z</time></trkpt><trkpt lat="43.43488520791673" lon="5.967680257634032"><ele>363.0</ele><time>2026-04-18T13:49:48Z</time></trkpt><trkpt lat="43.434841837391645" lon="5.9676158557486865"><ele>363.0</ele><time>2026-04-18T13:49:49Z</time></trkpt><trkpt lat="43.43476204189469" lon="5.96751455333583"><ele>363.0</ele><time>2026-04-18T13:49:51Z</time></trkpt><trkpt lat="43.43469365824053" lon="5.967390946445635"><ele>362.2</ele><time>2026-04-18T13:49:53Z</time></trkpt><trkpt lat="43.43465993910948" lon="5.9673097678298035"><ele>361.4</ele><time>2026-04-18T13:49:54Z</time></trkpt><trkpt lat="43.43461147014832" lon="5.967245997471529"><ele>360.59999999999997</ele><time>2026-04-18T13:49:55Z</time></trkpt><trkpt lat="43.43451094938633" lon="5.967201973952914"><ele>359.79999999999995</ele><time>2026-04-18T13:49:57Z</time></trkpt><trkpt lat="43.434383879278855" lon="5.967183196206575"><ele>359.0</ele><time>2026-04-18T13:49:59Z</time></trkpt><trkpt lat="43.434303488277756" lon="5.9671345969333345"><ele>359.0</ele><time>2026-04-18T13:50:00Z</time></trkpt><trkpt lat="43.43421589691835" lon="5.967089682725125"><ele>359.0</ele><time>2026-04-18T13:50:01Z</time></trkpt><trkpt lat="43.43409346719901" lon="5.967039613369267"><ele>359.0</ele><time>2026-04-18T13:50:03Z</time></trkpt><trkpt lat="43.43396806182458" lon="5.966992800289742"><ele>359.0</ele><time>2026-04-18T13:50:05Z</time></trkpt><trkpt lat="43.43386236819364" lon="5.966957449145984"><ele>358.75</ele><time>2026-04-18T13:50:07Z</time></trkpt><trkpt lat="43.4337401782346" lon="5.9668824942065575"><ele>358.5</ele><time>2026-04-18T13:50:09Z</time></trkpt><trkpt lat="43.43361512881859" lon="5.966835477845213"><ele>358.25</ele><time>2026-04-18T13:50:11Z</time></trkpt><trkpt lat="43.433495820204655" lon="5.966769399884681"><ele>358.0</ele><time>2026-04-18T13:50:13Z</time></trkpt><trkpt lat="43.433405992164005" lon="5.966707113505935"><ele>358.0</ele><time>2026-04-18T13:50:15Z</time></trkpt><trkpt lat="43.4333019464964" lon="5.966712962538222"><ele>358.0</ele><time>2026-04-18T13:50:16.999Z</time></trkpt><trkpt lat="43.43317244798702" lon="5.966661870502337"><ele>358.0</ele><time>2026-04-18T13:50:18.999Z</time></trkpt><trkpt lat="43.43312134547298" lon="5.966606477404305"><ele>358.0</ele><time>2026-04-18T13:50:19.999Z</time></trkpt><trkpt lat="43.43304975584323" lon="5.96645336273857"><ele>358.0</ele><time>2026-04-18T13:50:21.999Z</time></trkpt><trkpt lat="43.43298881282337" lon="5.966357945139794"><ele>356.0</ele><time>2026-04-18T13:50:22.999Z</time></trkpt><trkpt lat="43.432947389871195" lon="5.966283190917768"><ele>354.0</ele><time>2026-04-18T13:50:24Z</time></trkpt><trkpt lat="43.4328615250078" lon="5.966183931003623"><ele>352.0</ele><time>2026-04-18T13:50:26Z</time></trkpt><trkpt lat="43.43272816593216" lon="5.9661516640879135"><ele>350.0</ele><time>2026-04-18T13:50:28Z</time></trkpt><trkpt lat="43.43264840596991" lon="5.966146816429607"><ele>348.0</ele><time>2026-04-18T13:50:29Z</time></trkpt><trkpt lat="43.43255512149688" lon="5.966143384234856"><ele>348.0</ele><time>2026-04-18T13:50:30Z</time></trkpt><trkpt lat="43.43249127247923" lon="5.9661503924232715"><ele>348.0</ele><time>2026-04-18T13:50:31Z</time></trkpt><trkpt lat="43.432367754169384" lon="5.966130488400506"><ele>348.0</ele><time>2026-04-18T13:50:33Z</time></trkpt><trkpt lat="43.43227607659715" lon="5.966051700210242"><ele>348.0</ele><time>2026-04-18T13:50:35Z</time></trkpt><trkpt lat="43.43221875923369" lon="5.966009548396428"><ele>348.0</ele><time>2026-04-18T13:50:36Z</time></trkpt><trkpt lat="43.43215916370317" lon="5.96596007923343"><ele>348.0</ele><time>2026-04-18T13:50:37Z</time></trkpt><trkpt lat="43.43207685495763" lon="5.965848230339925"><ele>345.59999999999997</ele><time>2026-04-18T13:50:39Z</time></trkpt><trkpt lat="43.43198309044735" lon="5.965765346529151"><ele>343.2</ele><time>2026-04-18T13:50:41Z</time></trkpt><trkpt lat="43.431892155934186" lon="5.965671807198652"><ele>340.8</ele><time>2026-04-18T13:50:43Z</time></trkpt><trkpt lat="43.43179779715571" lon="5.965665405721235"><ele>338.4</ele><time>2026-04-18T13:50:45Z</time></trkpt><trkpt lat="43.43170474250481" lon="5.965727621794838"><ele>336.0</ele><time>2026-04-18T13:50:47Z</time></trkpt><trkpt lat="43.431619855285916" lon="5.965763390888762"><ele>336.0</ele><time>2026-04-18T13:50:49Z</time></trkpt><trkpt lat="43.43153333926846" lon="5.96584574643769"><ele>336.0</ele><time>2026-04-18T13:50:51Z</time></trkpt><trkpt lat="43.431417474381185" lon="5.965888197379642"><ele>336.0</ele><time>2026-04-18T13:50:53Z</time></trkpt><trkpt lat="43.43130655591788" lon="5.965931778317776"><ele>336.0</ele><time>2026-04-18T13:50:55Z</time></trkpt><trkpt lat="43.4312355373587" lon="5.965979569863385"><ele>336.0</ele><time>2026-04-18T13:50:56Z</time></trkpt><trkpt lat="43.431166199719506" lon="5.966008411270352"><ele>336.0</ele><time>2026-04-18T13:50:57Z</time></trkpt><trkpt lat="43.43105159228139" lon="5.9660735694294305"><ele>336.0</ele><time>2026-04-18T13:50:59Z</time></trkpt><trkpt lat="43.430982182696894" lon="5.966101797033335"><ele>336.0</ele><time>2026-04-18T13:51:00Z</time></trkpt><trkpt lat="43.430892254287116" lon="5.9661309278869155"><ele>336.0</ele><time>2026-04-18T13:51:01Z</time></trkpt><trkpt lat="43.43081134671649" lon="5.966177456052834"><ele>336.0</ele><time>2026-04-18T13:51:02Z</time></trkpt><trkpt lat="43.430728575025135" lon="5.966224647240097"><ele>336.0</ele><time>2026-04-18T13:51:03Z</time></trkpt><trkpt lat="43.4306467319592" lon="5.966250999084438"><ele>336.0</ele><time>2026-04-18T13:51:04Z</time></trkpt><trkpt lat="43.43054255033036" lon="5.966329267899175"><ele>336.0</ele><time>2026-04-18T13:51:06Z</time></trkpt><trkpt lat="43.43043653674184" lon="5.966406337906345"><ele>336.0</ele><time>2026-04-18T13:51:08Z</time></trkpt><trkpt lat="43.43031309492708" lon="5.966467067681256"><ele>335.0</ele><time>2026-04-18T13:51:10Z</time></trkpt><trkpt lat="43.43024124119744" lon="5.966516918271771"><ele>334.0</ele><time>2026-04-18T13:51:11Z</time></trkpt><trkpt lat="43.43017604005954" lon="5.966567724963814"><ele>333.0</ele><time>2026-04-18T13:51:12Z</time></trkpt><trkpt lat="43.4301184107696" lon="5.966607106952707"><ele>332.0</ele><time>2026-04-18T13:51:13Z</time></trkpt><trkpt lat="43.43003203190058" lon="5.966667836735658"><ele>331.0</ele><time>2026-04-18T13:51:15Z</time></trkpt><trkpt lat="43.42993301004003" lon="5.966718535527007"><ele>330.0</ele><time>2026-04-18T13:51:17Z</time></trkpt><trkpt lat="43.42986987152565" lon="5.966781883343048"><ele>330.0</ele><time>2026-04-18T13:51:18Z</time></trkpt><trkpt lat="43.429786361175424" lon="5.96688867937429"><ele>330.0</ele><time>2026-04-18T13:51:20Z</time></trkpt><trkpt lat="43.42973815922332" lon="5.96702365786102"><ele>330.0</ele><time>2026-04-18T13:51:22Z</time></trkpt><trkpt lat="43.429706244619965" lon="5.967117791456344"><ele>330.0</ele><time>2026-04-18T13:51:23Z</time></trkpt><trkpt lat="43.42967085940165" lon="5.967211233290668"><ele>330.0</ele><time>2026-04-18T13:51:24Z</time></trkpt><trkpt lat="43.42962168000159" lon="5.967363578626018"><ele>328.5</ele><time>2026-04-18T13:51:26Z</time></trkpt><trkpt lat="43.429584704906055" lon="5.967452673118221"><ele>327.0</ele><time>2026-04-18T13:51:27Z</time></trkpt><trkpt lat="43.429549510127245" lon="5.9675445046696725"><ele>325.5</ele><time>2026-04-18T13:51:28Z</time></trkpt><trkpt lat="43.42951462427276" lon="5.967617925929539"><ele>324.0</ele><time>2026-04-18T13:51:29Z</time></trkpt><trkpt lat="43.42944973574787" lon="5.96770462956427"><ele>322.5</ele><time>2026-04-18T13:51:31Z</time></trkpt><trkpt lat="43.42937337058306" lon="5.9677499791662925"><ele>321.0</ele><time>2026-04-18T13:51:32Z</time></trkpt><trkpt lat="43.429273840802445" lon="5.967820337295884"><ele>321.0</ele><time>2026-04-18T13:51:33Z</time></trkpt><trkpt lat="43.42919312374959" lon="5.967879960175065"><ele>321.0</ele><time>2026-04-18T13:51:34Z</time></trkpt><trkpt lat="43.42912329742677" lon="5.967946412188411"><ele>321.0</ele><time>2026-04-18T13:51:35Z</time></trkpt><trkpt lat="43.42905310279474" lon="5.968010557614353"><ele>321.0</ele><time>2026-04-18T13:51:36Z</time></trkpt><trkpt lat="43.42899130228952" lon="5.96807304693782"><ele>321.0</ele><time>2026-04-18T13:51:37Z</time></trkpt><trkpt lat="43.428897657591584" lon="5.96817908889161"><ele>321.0</ele><time>2026-04-18T13:51:39Z</time></trkpt><trkpt lat="43.42883110018761" lon="5.968342635649406"><ele>321.0</ele><time>2026-04-18T13:51:41Z</time></trkpt><trkpt lat="43.42879933441857" lon="5.9684438487619005"><ele>321.0</ele><time>2026-04-18T13:51:42Z</time></trkpt><trkpt lat="43.42875501418038" lon="5.968581581014374"><ele>321.0</ele><time>2026-04-18T13:51:44Z</time></trkpt><trkpt lat="43.428722797989074" lon="5.9686855952946605"><ele>321.0</ele><time>2026-04-18T13:51:45Z</time></trkpt><trkpt lat="43.42869169596102" lon="5.968793869656592"><ele>320.3333333333333</ele><time>2026-04-18T13:51:46Z</time></trkpt><trkpt lat="43.4286642337303" lon="5.968901550783411"><ele>319.6666666666667</ele><time>2026-04-18T13:51:47Z</time></trkpt><trkpt lat="43.42864095718218" lon="5.968993585244284"><ele>319.0</ele><time>2026-04-18T13:51:48Z</time></trkpt><trkpt lat="43.428612512490886" lon="5.969077121760103"><ele>318.33333333333337</ele><time>2026-04-18T13:51:49Z</time></trkpt><trkpt lat="43.42854894217427" lon="5.969223857121221"><ele>317.6666666666667</ele><time>2026-04-18T13:51:51Z</time></trkpt><trkpt lat="43.42849522190704" lon="5.969311074060733"><ele>317.0</ele><time>2026-04-18T13:51:52Z</time></trkpt><trkpt lat="43.42847198969261" lon="5.969410097656549"><ele>317.0</ele><time>2026-04-18T13:51:53Z</time></trkpt><trkpt lat="43.428409565722504" lon="5.969552519881026"><ele>317.0</ele><time>2026-04-18T13:51:55Z</time></trkpt><trkpt lat="43.42835800303984" lon="5.969628530331845"><ele>317.0</ele><time>2026-04-18T13:51:56Z</time></trkpt><trkpt lat="43.42832161798065" lon="5.969727062975706"><ele>317.0</ele><time>2026-04-18T13:51:57Z</time></trkpt><trkpt lat="43.4282903243698" lon="5.969834339225436"><ele>317.0</ele><time>2026-04-18T13:51:58Z</time></trkpt><trkpt lat="43.42822898153121" lon="5.969950073986626"><ele>315.8</ele><time>2026-04-18T13:52:00Z</time></trkpt><trkpt lat="43.428147988104115" lon="5.970042081598568"><ele>314.6</ele><time>2026-04-18T13:52:02Z</time></trkpt><trkpt lat="43.42805062384545" lon="5.970130110579596"><ele>313.40000000000003</ele><time>2026-04-18T13:52:04Z</time></trkpt><trkpt lat="43.42797363812796" lon="5.970184064240197"><ele>312.2</ele><time>2026-04-18T13:52:05Z</time></trkpt><trkpt lat="43.427905967042506" lon="5.970262301139636"><ele>311.0</ele><time>2026-04-18T13:52:06Z</time></trkpt><trkpt lat="43.42785602419799" lon="5.970349138479406"><ele>311.0</ele><time>2026-04-18T13:52:07Z</time></trkpt><trkpt lat="43.427799224929515" lon="5.9704408109684906"><ele>311.0</ele><time>2026-04-18T13:52:08Z</time></trkpt><trkpt lat="43.42775171593836" lon="5.970519644907426"><ele>311.0</ele><time>2026-04-18T13:52:09Z</time></trkpt><trkpt lat="43.42771396539038" lon="5.970596086256314"><ele>311.0</ele><time>2026-04-18T13:52:10Z</time></trkpt><trkpt lat="43.42761733423897" lon="5.970733815412578"><ele>311.0</ele><time>2026-04-18T13:52:11.999Z</time></trkpt><trkpt lat="43.427538713708714" lon="5.97084276333792"><ele>311.2</ele><time>2026-04-18T13:52:12.999Z</time></trkpt><trkpt lat="43.42747889016883" lon="5.970914776789894"><ele>311.40000000000003</ele><time>2026-04-18T13:52:13.999Z</time></trkpt><trkpt lat="43.427411625137076" lon="5.971034647707394"><ele>311.6</ele><time>2026-04-18T13:52:15.999Z</time></trkpt><trkpt lat="43.42734789239633" lon="5.971145205624353"><ele>311.8</ele><time>2026-04-18T13:52:17.999Z</time></trkpt><trkpt lat="43.427268873980886" lon="5.971195226251976"><ele>312.0</ele><time>2026-04-18T13:52:19.999Z</time></trkpt><trkpt lat="43.42718916868021" lon="5.971240901655115"><ele>310.6</ele><time>2026-04-18T13:52:21.999Z</time></trkpt><trkpt lat="43.427143850832834" lon="5.97131021813623"><ele>309.2</ele><time>2026-04-18T13:52:23.999Z</time></trkpt><trkpt lat="43.42701838437966" lon="5.971430977164281"><ele>307.8</ele><time>2026-04-18T13:52:25.999Z</time></trkpt><trkpt lat="43.426951036354716" lon="5.9714255300042485"><ele>306.4</ele><time>2026-04-18T13:52:26.999Z</time></trkpt><trkpt lat="43.426856081363226" lon="5.9714677729487216"><ele>305.0</ele><time>2026-04-18T13:52:28.999Z</time></trkpt><trkpt lat="43.42676015712633" lon="5.971655458150562"><ele>304.8</ele><time>2026-04-18T13:52:31Z</time></trkpt><trkpt lat="43.426712290964964" lon="5.9717425661538"><ele>304.6</ele><time>2026-04-18T13:52:32Z</time></trkpt><trkpt lat="43.42666147954184" lon="5.971885601585744"><ele>304.4</ele><time>2026-04-18T13:52:34Z</time></trkpt><trkpt lat="43.42660517077355" lon="5.971937398848684"><ele>304.2</ele><time>2026-04-18T13:52:36Z</time></trkpt><trkpt lat="43.42656562864975" lon="5.972009416152606"><ele>304.0</ele><time>2026-04-18T13:52:38Z</time></trkpt><trkpt lat="43.426493841586115" lon="5.972201136904439"><ele>304.0</ele><time>2026-04-18T13:52:40Z</time></trkpt><trkpt lat="43.42647013834708" lon="5.972300881103516"><ele>304.0</ele><time>2026-04-18T13:52:41Z</time></trkpt><trkpt lat="43.42645548192698" lon="5.9723937180311815"><ele>304.0</ele><time>2026-04-18T13:52:42Z</time></trkpt><trkpt lat="43.42640756191104" lon="5.972561200733659"><ele>304.0</ele><time>2026-04-18T13:52:44Z</time></trkpt><trkpt lat="43.42636347456412" lon="5.972689973752427"><ele>304.0</ele><time>2026-04-18T13:52:45Z</time></trkpt><trkpt lat="43.42631921973513" lon="5.972800471415897"><ele>301.8333333333333</ele><time>2026-04-18T13:52:46Z</time></trkpt><trkpt lat="43.42627296696549" lon="5.9728982617066855"><ele>299.66666666666663</ele><time>2026-04-18T13:52:47Z</time></trkpt><trkpt lat="43.426235011979365" lon="5.9729885723115705"><ele>297.5</ele><time>2026-04-18T13:52:48Z</time></trkpt><trkpt lat="43.426209540841036" lon="5.9730709478558675"><ele>295.3333333333333</ele><time>2026-04-18T13:52:49Z</time></trkpt><trkpt lat="43.42618087766378" lon="5.9731596908193625"><ele>293.1666666666667</ele><time>2026-04-18T13:52:50Z</time></trkpt><trkpt lat="43.42614253646978" lon="5.973303672209484"><ele>291.0</ele><time>2026-04-18T13:52:52Z</time></trkpt><trkpt lat="43.42606814397964" lon="5.973442198948531"><ele>291.0</ele><time>2026-04-18T13:52:54Z</time></trkpt><trkpt lat="43.42604672492918" lon="5.973542335651174"><ele>291.0</ele><time>2026-04-18T13:52:55Z</time></trkpt><trkpt lat="43.42603046888929" lon="5.973666961687658"><ele>291.0</ele><time>2026-04-18T13:52:56Z</time></trkpt><trkpt lat="43.426026980463035" lon="5.973754243471544"><ele>291.0</ele><time>2026-04-18T13:52:57Z</time></trkpt><trkpt lat="43.425969913755296" lon="5.97384272156428"><ele>291.0</ele><time>2026-04-18T13:53:00Z</time></trkpt><trkpt lat="43.42589872922979" lon="5.974014416330179"><ele>291.0</ele><time>2026-04-18T13:53:02Z</time></trkpt><trkpt lat="43.425869069794196" lon="5.974095342601743"><ele>291.0</ele><time>2026-04-18T13:53:03Z</time></trkpt><trkpt lat="43.4258767025968" lon="5.974227795348211"><ele>291.0</ele><time>2026-04-18T13:53:05Z</time></trkpt><trkpt lat="43.42583529225504" lon="5.974324345750533"><ele>291.0</ele><time>2026-04-18T13:53:07Z</time></trkpt><trkpt lat="43.425773110212674" lon="5.974401519636953"><ele>291.0</ele><time>2026-04-18T13:53:18Z</time></trkpt><trkpt lat="43.42573521584645" lon="5.974567475743259"><ele>291.1666666666667</ele><time>2026-04-18T13:53:20Z</time></trkpt><trkpt lat="43.42569726914609" lon="5.974678909933744"><ele>291.3333333333333</ele><time>2026-04-18T13:53:22Z</time></trkpt><trkpt lat="43.42563181010518" lon="5.974789648336401"><ele>291.5</ele><time>2026-04-18T13:53:24Z</time></trkpt><trkpt lat="43.42556875886772" lon="5.974861192618023"><ele>291.66666666666663</ele><time>2026-04-18T13:53:25Z</time></trkpt><trkpt lat="43.42551623172918" lon="5.974951912807394"><ele>291.8333333333333</ele><time>2026-04-18T13:53:26Z</time></trkpt><trkpt lat="43.42549796967984" lon="5.975067923213154"><ele>292.0</ele><time>2026-04-18T13:53:28Z</time></trkpt><trkpt lat="43.425427628441355" lon="5.975117784857596"><ele>290.8333333333333</ele><time>2026-04-18T13:53:30Z</time></trkpt><trkpt lat="43.42535932894264" lon="5.975156231163082"><ele>289.66666666666663</ele><time>2026-04-18T13:53:31Z</time></trkpt><trkpt lat="43.42528297599724" lon="5.975215987648728"><ele>288.5</ele><time>2026-04-18T13:53:33Z</time></trkpt><trkpt lat="43.425235978977284" lon="5.975145903734259"><ele>287.3333333333333</ele><time>2026-04-18T13:53:38Z</time></trkpt><trkpt lat="43.425223011159666" lon="5.9750053521655335"><ele>286.1666666666667</ele><time>2026-04-18T13:53:43Z</time></trkpt><trkpt lat="43.42521755727048" lon="5.97491167636643"><ele>285.0</ele><time>2026-04-18T13:53:44Z</time></trkpt><trkpt lat="43.42521397187542" lon="5.974783688543703"><ele>285.0</ele><time>2026-04-18T13:53:45Z</time></trkpt><trkpt lat="43.42520678232274" lon="5.974659843036133"><ele>285.0</ele><time>2026-04-18T13:53:46Z</time></trkpt><trkpt lat="43.425197032778684" lon="5.974555106659899"><ele>285.0</ele><time>2026-04-18T13:53:47Z</time></trkpt><trkpt lat="43.425179652002406" lon="5.974443281570472"><ele>285.0</ele><time>2026-04-18T13:53:48Z</time></trkpt><trkpt lat="43.425168660196235" lon="5.974293584667257"><ele>285.0</ele><time>2026-04-18T13:53:49Z</time></trkpt><trkpt lat="43.42515676543666" lon="5.974117785353026"><ele>285.4</ele><time>2026-04-18T13:53:50Z</time></trkpt><trkpt lat="43.42514651695986" lon="5.973960016960878"><ele>285.8</ele><time>2026-04-18T13:53:51Z</time></trkpt><trkpt lat="43.425154657164704" lon="5.973818306000171"><ele>286.2</ele><time>2026-04-18T13:53:52Z</time></trkpt><trkpt lat="43.42515738596786" lon="5.973689132711536"><ele>286.6</ele><time>2026-04-18T13:53:53Z</time></trkpt><trkpt lat="43.425132456813145" lon="5.973573001628971"><ele>287.0</ele><time>2026-04-18T13:53:54Z</time></trkpt><trkpt lat="43.425099948113875" lon="5.973457167476529"><ele>286.75</ele><time>2026-04-18T13:53:55Z</time></trkpt><trkpt lat="43.42506982853718" lon="5.973306486455632"><ele>286.5</ele><time>2026-04-18T13:53:56Z</time></trkpt><trkpt lat="43.425029310135436" lon="5.97312422485752"><ele>286.25</ele><time>2026-04-18T13:53:57Z</time></trkpt><trkpt lat="43.42498468058444" lon="5.972908325870797"><ele>286.0</ele><time>2026-04-18T13:53:58Z</time></trkpt><trkpt lat="43.424957410706114" lon="5.972712556165782"><ele>286.0</ele><time>2026-04-18T13:53:59Z</time></trkpt><trkpt lat="43.424938913853154" lon="5.9725499637522095"><ele>286.0</ele><time>2026-04-18T13:54:00Z</time></trkpt><trkpt lat="43.4249234112188" lon="5.9723521368478"><ele>286.0</ele><time>2026-04-18T13:54:01Z</time></trkpt><trkpt lat="43.424891000344246" lon="5.972131682168025"><ele>286.0</ele><time>2026-04-18T13:54:02Z</time></trkpt><trkpt lat="43.42485573400804" lon="5.971902030642082"><ele>286.0</ele><time>2026-04-18T13:54:03Z</time></trkpt><trkpt lat="43.424828832330704" lon="5.9716985148071995"><ele>286.0</ele><time>2026-04-18T13:54:04Z</time></trkpt><trkpt lat="43.424801217769264" lon="5.971522416509774"><ele>286.0</ele><time>2026-04-18T13:54:05Z</time></trkpt><trkpt lat="43.42476979601251" lon="5.971334321148049"><ele>286.0</ele><time>2026-04-18T13:54:06Z</time></trkpt><trkpt lat="43.424750895727605" lon="5.971121676416831"><ele>287.0</ele><time>2026-04-18T13:54:07Z</time></trkpt><trkpt lat="43.424731031926775" lon="5.970893407446086"><ele>288.0</ele><time>2026-04-18T13:54:08Z</time></trkpt><trkpt lat="43.42471255599005" lon="5.970689180816449"><ele>289.0</ele><time>2026-04-18T13:54:09Z</time></trkpt><trkpt lat="43.42469285439634" lon="5.970513892597679"><ele>290.0</ele><time>2026-04-18T13:54:09.999Z</time></trkpt><trkpt lat="43.4246752191531" lon="5.970356627586642"><ele>290.2</ele><time>2026-04-18T13:54:10.999Z</time></trkpt><trkpt lat="43.42466310068162" lon="5.970209566403027"><ele>290.4</ele><time>2026-04-18T13:54:11.999Z</time></trkpt><trkpt lat="43.42464843791601" lon="5.9700675990893455"><ele>290.6</ele><time>2026-04-18T13:54:12.999Z</time></trkpt><trkpt lat="43.42463577498184" lon="5.969927310213299"><ele>290.8</ele><time>2026-04-18T13:54:13.999Z</time></trkpt><trkpt lat="43.42462698493892" lon="5.9697956291969305"><ele>291.0</ele><time>2026-04-18T13:54:14.999Z</time></trkpt><trkpt lat="43.4246191965786" lon="5.96966728095952"><ele>291.0</ele><time>2026-04-18T13:54:15.999Z</time></trkpt><trkpt lat="43.42461141327651" lon="5.969540982811838"><ele>291.0</ele><time>2026-04-18T13:54:16.999Z</time></trkpt><trkpt lat="43.42459671108787" lon="5.969414460302548"><ele>291.0</ele><time>2026-04-18T13:54:17.999Z</time></trkpt><trkpt lat="43.42458603299313" lon="5.969288969522344"><ele>291.0</ele><time>2026-04-18T13:54:18.999Z</time></trkpt><trkpt lat="43.42457666063878" lon="5.969196902223974"><ele>291.0</ele><time>2026-04-18T13:54:19.999Z</time></trkpt><trkpt lat="43.424520631070486" lon="5.969123364977055"><ele>291.0</ele><time>2026-04-18T13:54:21.999Z</time></trkpt><trkpt lat="43.424433661508736" lon="5.96913829850318"><ele>291.0</ele><time>2026-04-18T13:54:23.999Z</time></trkpt><trkpt lat="43.42430223401027" lon="5.9691971545207485"><ele>291.0</ele><time>2026-04-18T13:54:25.999Z</time></trkpt><trkpt lat="43.424218365570106" lon="5.969220363593889"><ele>291.0</ele><time>2026-04-18T13:54:26.999Z</time></trkpt><trkpt lat="43.424143518449725" lon="5.969224414542727"><ele>291.0</ele><time>2026-04-18T13:54:27.999Z</time></trkpt><trkpt lat="43.42407295172508" lon="5.969221883517024"><ele>291.0</ele><time>2026-04-18T13:54:28.999Z</time></trkpt><trkpt lat="43.42400312419063" lon="5.9692351961353705"><ele>291.0</ele><time>2026-04-18T13:54:29.999Z</time></trkpt><trkpt lat="43.42393344517154" lon="5.9693257534828925"><ele>291.0</ele><time>2026-04-18T13:54:30.999Z</time></trkpt><trkpt lat="43.423903927176916" lon="5.969529976647556"><ele>291.0</ele><time>2026-04-18T13:54:37Z</time></trkpt><trkpt lat="43.42393454058482" lon="5.969648494347168"><ele>291.0</ele><time>2026-04-18T13:54:38Z</time></trkpt><trkpt lat="43.42396273671176" lon="5.969789046731448"><ele>291.0</ele><time>2026-04-18T13:54:39Z</time></trkpt><trkpt lat="43.42399447449689" lon="5.969987018603808"><ele>291.25</ele><time>2026-04-18T13:54:40Z</time></trkpt><trkpt lat="43.424029384315794" lon="5.970172263609972"><ele>291.5</ele><time>2026-04-18T13:54:41Z</time></trkpt><trkpt lat="43.42404450820835" lon="5.9703087185851915"><ele>291.75</ele><time>2026-04-18T13:54:42Z</time></trkpt><trkpt lat="43.42406669966401" lon="5.97043818462423"><ele>292.0</ele><time>2026-04-18T13:54:43Z</time></trkpt><trkpt lat="43.42409071456597" lon="5.97061431801364"><ele>292.0</ele><time>2026-04-18T13:54:44Z</time></trkpt><trkpt lat="43.424100158182654" lon="5.970787991901862"><ele>292.0</ele><time>2026-04-18T13:54:45Z</time></trkpt><trkpt lat="43.42412006459467" lon="5.970928585669084"><ele>292.0</ele><time>2026-04-18T13:54:46Z</time></trkpt><trkpt lat="43.424146442853996" lon="5.971047343847911"><ele>292.0</ele><time>2026-04-18T13:54:47Z</time></trkpt><trkpt lat="43.42416841519443" lon="5.971179913040814"><ele>292.0</ele><time>2026-04-18T13:54:48Z</time></trkpt><trkpt lat="43.424195590098094" lon="5.971345396635261"><ele>292.0</ele><time>2026-04-18T13:54:49Z</time></trkpt><trkpt lat="43.42421360461508" lon="5.971532848066695"><ele>292.0</ele><time>2026-04-18T13:54:50Z</time></trkpt><trkpt lat="43.42424185469265" lon="5.9717061723461615"><ele>292.0</ele><time>2026-04-18T13:54:51Z</time></trkpt><trkpt lat="43.42428025456407" lon="5.971858819948481"><ele>292.0</ele><time>2026-04-18T13:54:52Z</time></trkpt><trkpt lat="43.42429621778212" lon="5.97200502067863"><ele>291.75</ele><time>2026-04-18T13:54:53Z</time></trkpt><trkpt lat="43.424319830576046" lon="5.9721514879088256"><ele>291.5</ele><time>2026-04-18T13:54:54Z</time></trkpt><trkpt lat="43.42435239577089" lon="5.9723220457561"><ele>291.25</ele><time>2026-04-18T13:54:55Z</time></trkpt><trkpt lat="43.42439489680976" lon="5.972520450183846"><ele>291.0</ele><time>2026-04-18T13:54:56Z</time></trkpt><trkpt lat="43.42443552827025" lon="5.97270678088457"><ele>291.0</ele><time>2026-04-18T13:54:57Z</time></trkpt><trkpt lat="43.42446353793351" lon="5.972853493818831"><ele>291.0</ele><time>2026-04-18T13:54:58Z</time></trkpt><trkpt lat="43.42448562115915" lon="5.972998029990359"><ele>291.0</ele><time>2026-04-18T13:54:59Z</time></trkpt><trkpt lat="43.42450658973163" lon="5.973132075247786"><ele>291.0</ele><time>2026-04-18T13:55:00Z</time></trkpt><trkpt lat="43.42453523211322" lon="5.973269010086847"><ele>291.0</ele><time>2026-04-18T13:55:01Z</time></trkpt><trkpt lat="43.4245584427698" lon="5.973399784974304"><ele>290.5</ele><time>2026-04-18T13:55:02Z</time></trkpt><trkpt lat="43.42457923259441" lon="5.973520952589682"><ele>290.0</ele><time>2026-04-18T13:55:03Z</time></trkpt><trkpt lat="43.424592762551455" lon="5.973652497558151"><ele>289.5</ele><time>2026-04-18T13:55:04Z</time></trkpt><trkpt lat="43.42460003601422" lon="5.9737763327798925"><ele>289.0</ele><time>2026-04-18T13:55:05Z</time></trkpt><trkpt lat="43.424612129220186" lon="5.973897104478743"><ele>288.5</ele><time>2026-04-18T13:55:06Z</time></trkpt><trkpt lat="43.42463069572803" lon="5.974005220188724"><ele>288.0</ele><time>2026-04-18T13:55:07Z</time></trkpt><trkpt lat="43.4246250897118" lon="5.974097653305917"><ele>288.0</ele><time>2026-04-18T13:55:08Z</time></trkpt><trkpt lat="43.4246301219709" lon="5.974185466315201"><ele>288.0</ele><time>2026-04-18T13:55:09Z</time></trkpt><trkpt lat="43.42463994999196" lon="5.974356965463219"><ele>288.0</ele><time>2026-04-18T13:55:11Z</time></trkpt><trkpt lat="43.424560312205905" lon="5.974435784218562"><ele>288.0</ele><time>2026-04-18T13:55:12Z</time></trkpt><trkpt lat="43.42468919010213" lon="5.974594622638879"><ele>287.4</ele><time>2026-04-18T13:55:13Z</time></trkpt><trkpt lat="43.42469538528906" lon="5.974710024920502"><ele>286.8</ele><time>2026-04-18T13:55:14Z</time></trkpt><trkpt lat="43.42483260387522" lon="5.974827580432009"><ele>286.2</ele><time>2026-04-18T13:55:16Z</time></trkpt><trkpt lat="43.42483988613727" lon="5.974921230728502"><ele>285.6</ele><time>2026-04-18T13:55:18Z</time></trkpt><trkpt lat="43.42484191509104" lon="5.975049791322892"><ele>285.0</ele><time>2026-04-18T13:55:20Z</time></trkpt><trkpt lat="43.42449776230139" lon="5.975120897889717"><ele>284.8</ele><time>2026-04-18T13:55:22Z</time></trkpt><trkpt lat="43.4244181768044" lon="5.975234628202795"><ele>284.6</ele><time>2026-04-18T13:55:23Z</time></trkpt><trkpt lat="43.424312201372956" lon="5.975281411308804"><ele>284.4</ele><time>2026-04-18T13:55:24Z</time></trkpt><trkpt lat="43.42424452671688" lon="5.975351465679227"><ele>284.2</ele><time>2026-04-18T13:55:25Z</time></trkpt><trkpt lat="43.42417744493823" lon="5.975457166444266"><ele>284.0</ele><time>2026-04-18T13:55:26Z</time></trkpt><trkpt lat="43.424101467407425" lon="5.975579939299884"><ele>284.0</ele><time>2026-04-18T13:55:27Z</time></trkpt><trkpt lat="43.424047665736914" lon="5.975701673471421"><ele>284.0</ele><time>2026-04-18T13:55:28Z</time></trkpt><trkpt lat="43.42398687892053" lon="5.975821559534915"><ele>284.0</ele><time>2026-04-18T13:55:29Z</time></trkpt><trkpt lat="43.42396145905022" lon="5.975963261570859"><ele>284.0</ele><time>2026-04-18T13:55:30Z</time></trkpt><trkpt lat="43.42392751684053" lon="5.976079778632926"><ele>284.0</ele><time>2026-04-18T13:55:31Z</time></trkpt><trkpt lat="43.42398623714184" lon="5.976253163731528"><ele>283.8</ele><time>2026-04-18T13:55:32Z</time></trkpt><trkpt lat="43.423950034025836" lon="5.976359747395057"><ele>283.59999999999997</ele><time>2026-04-18T13:55:33Z</time></trkpt><trkpt lat="43.42387420718547" lon="5.976458537318149"><ele>283.4</ele><time>2026-04-18T13:55:34Z</time></trkpt><trkpt lat="43.42380834837595" lon="5.976567793744932"><ele>283.2</ele><time>2026-04-18T13:55:35Z</time></trkpt><trkpt lat="43.423731695158786" lon="5.976714025886829"><ele>283.0</ele><time>2026-04-18T13:55:36Z</time></trkpt><trkpt lat="43.42366162920928" lon="5.976815969861171"><ele>283.4</ele><time>2026-04-18T13:55:37Z</time></trkpt><trkpt lat="43.42361512229976" lon="5.976884404804973"><ele>283.8</ele><time>2026-04-18T13:55:38Z</time></trkpt><trkpt lat="43.4235796253844" lon="5.976982950365015"><ele>284.2</ele><time>2026-04-18T13:55:39Z</time></trkpt><trkpt lat="43.423553414514124" lon="5.977099406880503"><ele>284.6</ele><time>2026-04-18T13:55:40Z</time></trkpt><trkpt lat="43.42350259359338" lon="5.9772385439979745"><ele>285.0</ele><time>2026-04-18T13:55:41Z</time></trkpt><trkpt lat="43.423441654128176" lon="5.977395141123325"><ele>285.0</ele><time>2026-04-18T13:55:42Z</time></trkpt><trkpt lat="43.42339102229415" lon="5.977509825244565"><ele>285.0</ele><time>2026-04-18T13:55:43Z</time></trkpt><trkpt lat="43.423333576823545" lon="5.9775998973058515"><ele>285.0</ele><time>2026-04-18T13:55:44Z</time></trkpt><trkpt lat="43.423266279276575" lon="5.977641895536767"><ele>285.0</ele><time>2026-04-18T13:55:45Z</time></trkpt><trkpt lat="43.42320070143419" lon="5.97766017615905"><ele>285.0</ele><time>2026-04-18T13:55:46Z</time></trkpt><trkpt lat="43.42309291608373" lon="5.977678738210739"><ele>285.0</ele><time>2026-04-18T13:55:48Z</time></trkpt><trkpt lat="43.42299775480643" lon="5.977685289443112"><ele>285.5</ele><time>2026-04-18T13:55:50Z</time></trkpt><trkpt lat="43.42294145199318" lon="5.977728496387123"><ele>286.0</ele><time>2026-04-18T13:55:52Z</time></trkpt><trkpt lat="43.42287245854181" lon="5.977658814274646"><ele>286.5</ele><time>2026-04-18T13:55:54Z</time></trkpt><trkpt lat="43.42280877828862" lon="5.9775922747576375"><ele>287.0</ele><time>2026-04-18T13:55:55Z</time></trkpt><trkpt lat="43.42275308390684" lon="5.977522619620439"><ele>287.5</ele><time>2026-04-18T13:55:56Z</time></trkpt><trkpt lat="43.42268956153374" lon="5.977454408764178"><ele>288.0</ele><time>2026-04-18T13:55:57Z</time></trkpt><trkpt lat="43.42261805607474" lon="5.977401123651927"><ele>288.75</ele><time>2026-04-18T13:55:58Z</time></trkpt><trkpt lat="43.42249579138346" lon="5.977307826528041"><ele>289.5</ele><time>2026-04-18T13:56:00Z</time></trkpt><trkpt lat="43.42242211381085" lon="5.977247734120566"><ele>290.25</ele><time>2026-04-18T13:56:01Z</time></trkpt><trkpt lat="43.42230332163181" lon="5.977283115053008"><ele>291.0</ele><time>2026-04-18T13:56:03Z</time></trkpt><trkpt lat="43.42217961081756" lon="5.977286824059812"><ele>291.3333333333333</ele><time>2026-04-18T13:56:04Z</time></trkpt><trkpt lat="43.422083298520086" lon="5.977274628653768"><ele>291.6666666666667</ele><time>2026-04-18T13:56:05Z</time></trkpt><trkpt lat="43.42203304357745" lon="5.977221424666756"><ele>292.0</ele><time>2026-04-18T13:56:05.999Z</time></trkpt><trkpt lat="43.421970853548466" lon="5.977186169819769"><ele>292.33333333333337</ele><time>2026-04-18T13:56:06.999Z</time></trkpt><trkpt lat="43.421892582615826" lon="5.977179436707265"><ele>292.6666666666667</ele><time>2026-04-18T13:56:07.999Z</time></trkpt><trkpt lat="43.421803540221845" lon="5.977119428187952"><ele>293.0</ele><time>2026-04-18T13:56:08.999Z</time></trkpt><trkpt lat="43.42174017517951" lon="5.977067565186313"><ele>293.0</ele><time>2026-04-18T13:56:09.999Z</time></trkpt><trkpt lat="43.421681888009005" lon="5.977025097113961"><ele>293.0</ele><time>2026-04-18T13:56:10.999Z</time></trkpt><trkpt lat="43.42162329201894" lon="5.976971673672687"><ele>293.0</ele><time>2026-04-18T13:56:11.999Z</time></trkpt><trkpt lat="43.42152511174851" lon="5.976931050200498"><ele>293.0</ele><time>2026-04-18T13:56:12.999Z</time></trkpt><trkpt lat="43.42145678786438" lon="5.976873199891905"><ele>293.0</ele><time>2026-04-18T13:56:13.999Z</time></trkpt><trkpt lat="43.42139329577763" lon="5.976838488825227"><ele>293.0</ele><time>2026-04-18T13:56:14.999Z</time></trkpt><trkpt lat="43.4213190452009" lon="5.976808153296309"><ele>293.83333333333337</ele><time>2026-04-18T13:56:15.999Z</time></trkpt><trkpt lat="43.42123920585981" lon="5.976778316303687"><ele>294.6666666666667</ele><time>2026-04-18T13:56:16.999Z</time></trkpt><trkpt lat="43.421149672060785" lon="5.9767396309194565"><ele>295.5</ele><time>2026-04-18T13:56:17.999Z</time></trkpt><trkpt lat="43.4210435944349" lon="5.976696570213985"><ele>296.3333333333333</ele><time>2026-04-18T13:56:18.999Z</time></trkpt><trkpt lat="43.420962839600534" lon="5.976657424764514"><ele>297.16666666666663</ele><time>2026-04-18T13:56:19.999Z</time></trkpt><trkpt lat="43.4209020589281" lon="5.976628291164144"><ele>298.0</ele><time>2026-04-18T13:56:20.999Z</time></trkpt><trkpt lat="43.42080306223771" lon="5.976606032566379"><ele>298.2</ele><time>2026-04-18T13:56:22.999Z</time></trkpt><trkpt lat="43.42065839291367" lon="5.97653926305922"><ele>298.4</ele><time>2026-04-18T13:56:24.999Z</time></trkpt><trkpt lat="43.420587808384326" lon="5.976492673279054"><ele>298.59999999999997</ele><time>2026-04-18T13:56:25.999Z</time></trkpt><trkpt lat="43.42046147289999" lon="5.97644165330869"><ele>298.8</ele><time>2026-04-18T13:56:27.999Z</time></trkpt><trkpt lat="43.42039807399138" lon="5.976405584706564"><ele>299.0</ele><time>2026-04-18T13:56:28.999Z</time></trkpt><trkpt lat="43.420326725923914" lon="5.976377640543651"><ele>299.6666666666667</ele><time>2026-04-18T13:56:29.999Z</time></trkpt><trkpt lat="43.42025926757113" lon="5.9763442231242845"><ele>300.33333333333337</ele><time>2026-04-18T13:56:30.999Z</time></trkpt><trkpt lat="43.42015768727266" lon="5.97633352935723"><ele>301.0</ele><time>2026-04-18T13:56:32.999Z</time></trkpt><trkpt lat="43.42006113977246" lon="5.976379775201864"><ele>301.6666666666667</ele><time>2026-04-18T13:56:34.999Z</time></trkpt><trkpt lat="43.41999474844437" lon="5.976392656310133"><ele>302.3333333333333</ele><time>2026-04-18T13:56:35.999Z</time></trkpt><trkpt lat="43.419910718847284" lon="5.976428588665617"><ele>303.0</ele><time>2026-04-18T13:56:36.999Z</time></trkpt><trkpt lat="43.41984319679722" lon="5.9764521201809435"><ele>303.0</ele><time>2026-04-18T13:56:37.999Z</time></trkpt><trkpt lat="43.41975705336631" lon="5.976386476824979"><ele>303.0</ele><time>2026-04-18T13:56:40.999Z</time></trkpt><trkpt lat="43.41973196627351" lon="5.976280582346067"><ele>303.0</ele><time>2026-04-18T13:56:43Z</time></trkpt><trkpt lat="43.419729070867675" lon="5.976192747658519"><ele>303.0</ele><time>2026-04-18T13:56:44Z</time></trkpt><trkpt lat="43.41973324754723" lon="5.976102113101405"><ele>303.0</ele><time>2026-04-18T13:56:45Z</time></trkpt><trkpt lat="43.419734824873345" lon="5.976012026109935"><ele>303.0</ele><time>2026-04-18T13:56:46Z</time></trkpt><trkpt lat="43.419725395726445" lon="5.9759150227914395"><ele>303.0</ele><time>2026-04-18T13:56:47Z</time></trkpt><trkpt lat="43.41971904576483" lon="5.975806257487531"><ele>302.6</ele><time>2026-04-18T13:56:48Z</time></trkpt><trkpt lat="43.41971015770312" lon="5.975685424334898"><ele>302.20000000000005</ele><time>2026-04-18T13:56:49Z</time></trkpt><trkpt lat="43.41967190731833" lon="5.975530049751698"><ele>301.8</ele><time>2026-04-18T13:56:51Z</time></trkpt><trkpt lat="43.419633540372374" lon="5.9754515223382105"><ele>301.40000000000003</ele><time>2026-04-18T13:56:52Z</time></trkpt><trkpt lat="43.419527144874564" lon="5.975456324920635"><ele>301.0</ele><time>2026-04-18T13:56:54Z</time></trkpt><trkpt lat="43.41943400528305" lon="5.975585468546351"><ele>299.8</ele><time>2026-04-18T13:56:56Z</time></trkpt><trkpt lat="43.41934895164305" lon="5.975702567317473"><ele>298.6</ele><time>2026-04-18T13:56:57Z</time></trkpt><trkpt lat="43.41926969843878" lon="5.975816577037365"><ele>297.4</ele><time>2026-04-18T13:56:58Z</time></trkpt><trkpt lat="43.4192092776498" lon="5.975904352047966"><ele>296.2</ele><time>2026-04-18T13:56:59Z</time></trkpt><trkpt lat="43.41914407598453" lon="5.975998385987891"><ele>295.0</ele><time>2026-04-18T13:57:00Z</time></trkpt><trkpt lat="43.41908000456015" lon="5.976100314502495"><ele>295.0</ele><time>2026-04-18T13:57:01Z</time></trkpt><trkpt lat="43.41902087824073" lon="5.976187607929267"><ele>295.0</ele><time>2026-04-18T13:57:02Z</time></trkpt><trkpt lat="43.41897093976263" lon="5.976247328694925"><ele>295.0</ele><time>2026-04-18T13:57:03Z</time></trkpt><trkpt lat="43.41886089004706" lon="5.976294710264483"><ele>295.0</ele><time>2026-04-18T13:57:05Z</time></trkpt><trkpt lat="43.418789307252275" lon="5.9762762781144145"><ele>295.0</ele><time>2026-04-18T13:57:06Z</time></trkpt><trkpt lat="43.418689976760184" lon="5.976237644805193"><ele>295.0</ele><time>2026-04-18T13:57:07Z</time></trkpt><trkpt lat="43.418564266713055" lon="5.976181258292776"><ele>293.25</ele><time>2026-04-18T13:57:08Z</time></trkpt><trkpt lat="43.41845366897227" lon="5.97613262626131"><ele>291.5</ele><time>2026-04-18T13:57:09Z</time></trkpt><trkpt lat="43.418349441902414" lon="5.976092084565532"><ele>289.75</ele><time>2026-04-18T13:57:10Z</time></trkpt><trkpt lat="43.4182459397359" lon="5.976051886881904"><ele>288.0</ele><time>2026-04-18T13:57:11Z</time></trkpt><trkpt lat="43.41812826553293" lon="5.976000455725786"><ele>288.0</ele><time>2026-04-18T13:57:12Z</time></trkpt><trkpt lat="43.41802190452361" lon="5.975958703264002"><ele>288.0</ele><time>2026-04-18T13:57:13Z</time></trkpt><trkpt lat="43.417921558975884" lon="5.975914601915668"><ele>288.0</ele><time>2026-04-18T13:57:14Z</time></trkpt><trkpt lat="43.4178292781217" lon="5.975876155306749"><ele>288.0</ele><time>2026-04-18T13:57:15Z</time></trkpt><trkpt lat="43.417741436911186" lon="5.9758280397363475"><ele>288.0</ele><time>2026-04-18T13:57:16Z</time></trkpt><trkpt lat="43.417655850380115" lon="5.975792197083043"><ele>284.6666666666667</ele><time>2026-04-18T13:57:17Z</time></trkpt><trkpt lat="43.41757246851924" lon="5.975781861326278"><ele>281.3333333333333</ele><time>2026-04-18T13:57:18Z</time></trkpt><trkpt lat="43.41749671311565" lon="5.975800832543866"><ele>278.0</ele><time>2026-04-18T13:57:19Z</time></trkpt><trkpt lat="43.41741980462671" lon="5.975811999162505"><ele>274.66666666666663</ele><time>2026-04-18T13:57:20Z</time></trkpt><trkpt lat="43.41734310011598" lon="5.975804898955025"><ele>271.3333333333333</ele><time>2026-04-18T13:57:21Z</time></trkpt><trkpt lat="43.41726910245333" lon="5.975771026043117"><ele>268.0</ele><time>2026-04-18T13:57:22Z</time></trkpt><trkpt lat="43.41719508071205" lon="5.975714394829126"><ele>265.75</ele><time>2026-04-18T13:57:23Z</time></trkpt><trkpt lat="43.41712042577275" lon="5.975652179631599"><ele>263.5</ele><time>2026-04-18T13:57:24Z</time></trkpt><trkpt lat="43.41701727272605" lon="5.975561195222546"><ele>261.25</ele><time>2026-04-18T13:57:25Z</time></trkpt><trkpt lat="43.4168971018316" lon="5.97546873283868"><ele>259.0</ele><time>2026-04-18T13:57:26Z</time></trkpt><trkpt lat="43.41677748493836" lon="5.975397509074409"><ele>259.0</ele><time>2026-04-18T13:57:27Z</time></trkpt><trkpt lat="43.41665869548758" lon="5.975348820453153"><ele>259.0</ele><time>2026-04-18T13:57:28Z</time></trkpt><trkpt lat="43.416547718266195" lon="5.975294099408413"><ele>259.0</ele><time>2026-04-18T13:57:29Z</time></trkpt><trkpt lat="43.41646949795395" lon="5.975216044837096"><ele>259.0</ele><time>2026-04-18T13:57:30Z</time></trkpt><trkpt lat="43.41638948618453" lon="5.975111518584068"><ele>259.0</ele><time>2026-04-18T13:57:31Z</time></trkpt><trkpt lat="43.416292587677034" lon="5.974999365528882"><ele>259.0</ele><time>2026-04-18T13:57:32Z</time></trkpt><trkpt lat="43.41619244869562" lon="5.974896626318984"><ele>259.0</ele><time>2026-04-18T13:57:33Z</time></trkpt><trkpt lat="43.41609564370497" lon="5.974829414292816"><ele>259.0</ele><time>2026-04-18T13:57:34Z</time></trkpt><trkpt lat="43.41598448071325" lon="5.974780575157353"><ele>259.0</ele><time>2026-04-18T13:57:35Z</time></trkpt><trkpt lat="43.41585656555255" lon="5.974728462184034"><ele>259.0</ele><time>2026-04-18T13:57:36Z</time></trkpt><trkpt lat="43.41572656949993" lon="5.974693371810452"><ele>259.0</ele><time>2026-04-18T13:57:37Z</time></trkpt><trkpt lat="43.415566688416206" lon="5.97468466520164"><ele>259.0</ele><time>2026-04-18T13:57:38Z</time></trkpt><trkpt lat="43.415406735497356" lon="5.974676914940751"><ele>259.4</ele><time>2026-04-18T13:57:39Z</time></trkpt><trkpt lat="43.41527499195355" lon="5.974658000251295"><ele>259.79999999999995</ele><time>2026-04-18T13:57:40Z</time></trkpt><trkpt lat="43.415159088280085" lon="5.974632840029534"><ele>260.20000000000005</ele><time>2026-04-18T13:57:41Z</time></trkpt><trkpt lat="43.4150684448454" lon="5.974624271743824"><ele>260.6</ele><time>2026-04-18T13:57:42Z</time></trkpt><trkpt lat="43.41500442564742" lon="5.974628840910406"><ele>261.0</ele><time>2026-04-18T13:57:43Z</time></trkpt><trkpt lat="43.41490584945369" lon="5.974591631080121"><ele>261.0</ele><time>2026-04-18T13:57:45Z</time></trkpt><trkpt lat="43.414780874560165" lon="5.9745954163366655"><ele>261.0</ele><time>2026-04-18T13:57:47Z</time></trkpt><trkpt lat="43.41468475207707" lon="5.974602289805446"><ele>261.0</ele><time>2026-04-18T13:57:48Z</time></trkpt><trkpt lat="43.41457558392476" lon="5.974600280098514"><ele>261.0</ele><time>2026-04-18T13:57:49Z</time></trkpt><trkpt lat="43.414481036483295" lon="5.974557182659868"><ele>261.0</ele><time>2026-04-18T13:57:50Z</time></trkpt><trkpt lat="43.41437272664576" lon="5.974551858704815"><ele>260.0</ele><time>2026-04-18T13:57:51Z</time></trkpt><trkpt lat="43.41426207506627" lon="5.974579153533762"><ele>259.0</ele><time>2026-04-18T13:57:52Z</time></trkpt><trkpt lat="43.414124346930365" lon="5.974595357695101"><ele>258.0</ele><time>2026-04-18T13:57:53Z</time></trkpt><trkpt lat="43.41398530646656" lon="5.974548403072866"><ele>257.0</ele><time>2026-04-18T13:57:54Z</time></trkpt><trkpt lat="43.413859081236765" lon="5.97453081860621"><ele>256.5</ele><time>2026-04-18T13:57:55Z</time></trkpt><trkpt lat="43.413739709367114" lon="5.9744905731739175"><ele>256.0</ele><time>2026-04-18T13:57:56Z</time></trkpt><trkpt lat="43.41361129023031" lon="5.974463189226967"><ele>255.5</ele><time>2026-04-18T13:57:57Z</time></trkpt><trkpt lat="43.413485522862445" lon="5.97445890419447"><ele>255.0</ele><time>2026-04-18T13:57:58Z</time></trkpt><trkpt lat="43.413381773725746" lon="5.974466037123902"><ele>255.0</ele><time>2026-04-18T13:57:58.999Z</time></trkpt><trkpt lat="43.413292535074305" lon="5.974428856546939"><ele>255.0</ele><time>2026-04-18T13:57:59.999Z</time></trkpt><trkpt lat="43.41320453395865" lon="5.974405275602134"><ele>255.0</ele><time>2026-04-18T13:58:00.999Z</time></trkpt><trkpt lat="43.41312473556347" lon="5.9743348834285905"><ele>255.0</ele><time>2026-04-18T13:58:01.999Z</time></trkpt><trkpt lat="43.413066084655874" lon="5.9742405659846085"><ele>255.0</ele><time>2026-04-18T13:58:02.999Z</time></trkpt><trkpt lat="43.41304221477336" lon="5.9741136008237365"><ele>255.2</ele><time>2026-04-18T13:58:03.999Z</time></trkpt><trkpt lat="43.41298949036088" lon="5.97396842428121"><ele>255.4</ele><time>2026-04-18T13:58:04.999Z</time></trkpt><trkpt lat="43.4129418844719" lon="5.9737950459444376"><ele>255.60000000000002</ele><time>2026-04-18T13:58:05.999Z</time></trkpt><trkpt lat="43.41289833768476" lon="5.973658859667716"><ele>255.8</ele><time>2026-04-18T13:58:06.999Z</time></trkpt><trkpt lat="43.412860462640104" lon="5.973563641933957"><ele>256.0</ele><time>2026-04-18T13:58:07.999Z</time></trkpt><trkpt lat="43.41281284177043" lon="5.973492798499572"><ele>256.8</ele><time>2026-04-18T13:58:08.999Z</time></trkpt><trkpt lat="43.41275105102155" lon="5.973450629001133"><ele>257.6</ele><time>2026-04-18T13:58:09.999Z</time></trkpt><trkpt lat="43.41266047958346" lon="5.973431070397477"><ele>258.4</ele><time>2026-04-18T13:58:10.999Z</time></trkpt><trkpt lat="43.41255505981691" lon="5.9734223084403295"><ele>259.2</ele><time>2026-04-18T13:58:11.999Z</time></trkpt><trkpt lat="43.41243636089447" lon="5.973403905911509"><ele>260.0</ele><time>2026-04-18T13:58:12.999Z</time></trkpt><trkpt lat="43.412338101581796" lon="5.973377791649839"><ele>260.0</ele><time>2026-04-18T13:58:13.999Z</time></trkpt><trkpt lat="43.41225933409773" lon="5.973369197783847"><ele>260.0</ele><time>2026-04-18T13:58:14.999Z</time></trkpt><trkpt lat="43.41218218057822" lon="5.973414886552488"><ele>260.0</ele><time>2026-04-18T13:58:15.999Z</time></trkpt><trkpt lat="43.41211437661181" lon="5.9734812091586456"><ele>260.0</ele><time>2026-04-18T13:58:16.999Z</time></trkpt><trkpt lat="43.412047775352974" lon="5.9735244450242"><ele>260.0</ele><time>2026-04-18T13:58:17.999Z</time></trkpt><trkpt lat="43.4119775262985" lon="5.973540114201912"><ele>260.0</ele><time>2026-04-18T13:58:18.999Z</time></trkpt><trkpt lat="43.411898437793276" lon="5.973529651779813"><ele>257.5</ele><time>2026-04-18T13:58:19.999Z</time></trkpt><trkpt lat="43.41179924147472" lon="5.973501054528548"><ele>255.0</ele><time>2026-04-18T13:58:20.999Z</time></trkpt><trkpt lat="43.411674373836114" lon="5.97346123543184"><ele>252.5</ele><time>2026-04-18T13:58:21.999Z</time></trkpt><trkpt lat="43.411532769133" lon="5.973406733831874"><ele>250.0</ele><time>2026-04-18T13:58:22.999Z</time></trkpt><trkpt lat="43.41140374850839" lon="5.973343308239915"><ele>250.0</ele><time>2026-04-18T13:58:23.999Z</time></trkpt><trkpt lat="43.411291024675265" lon="5.973278781376761"><ele>250.0</ele><time>2026-04-18T13:58:24.999Z</time></trkpt><trkpt lat="43.41121425929714" lon="5.9732104365553536"><ele>250.0</ele><time>2026-04-18T13:58:25.999Z</time></trkpt><trkpt lat="43.4111432591231" lon="5.973125816745082"><ele>250.0</ele><time>2026-04-18T13:58:26.999Z</time></trkpt><trkpt lat="43.4110797483675" lon="5.973044052480348"><ele>250.0</ele><time>2026-04-18T13:58:27.999Z</time></trkpt><trkpt lat="43.411007883319456" lon="5.972978963547632"><ele>250.0</ele><time>2026-04-18T13:58:28.999Z</time></trkpt><trkpt lat="43.410907685963075" lon="5.9729369558096765"><ele>250.0</ele><time>2026-04-18T13:58:29.999Z</time></trkpt><trkpt lat="43.41077579393267" lon="5.972908198007811"><ele>250.0</ele><time>2026-04-18T13:58:30.999Z</time></trkpt><trkpt lat="43.41064245846075" lon="5.972869518363243"><ele>250.0</ele><time>2026-04-18T13:58:31.999Z</time></trkpt><trkpt lat="43.410516816556864" lon="5.972820711561224"><ele>249.5</ele><time>2026-04-18T13:58:32.999Z</time></trkpt><trkpt lat="43.41041644385245" lon="5.972750339491021"><ele>249.0</ele><time>2026-04-18T13:58:33.999Z</time></trkpt><trkpt lat="43.41030659662869" lon="5.972719078458117"><ele>248.5</ele><time>2026-04-18T13:58:34.999Z</time></trkpt><trkpt lat="43.41020228014032" lon="5.972661713137962"><ele>248.0</ele><time>2026-04-18T13:58:35.999Z</time></trkpt><trkpt lat="43.41008564588434" lon="5.972585323123748"><ele>248.33333333333334</ele><time>2026-04-18T13:58:36.999Z</time></trkpt><trkpt lat="43.40996096576266" lon="5.972470308546573"><ele>248.66666666666669</ele><time>2026-04-18T13:58:37.999Z</time></trkpt><trkpt lat="43.40980681823415" lon="5.972376029826548"><ele>249.0</ele><time>2026-04-18T13:58:38.999Z</time></trkpt><trkpt lat="43.40968265021568" lon="5.9722758806236405"><ele>248.25</ele><time>2026-04-18T13:58:39.999Z</time></trkpt><trkpt lat="43.409569883608704" lon="5.972186770688113"><ele>247.5</ele><time>2026-04-18T13:58:40.999Z</time></trkpt><trkpt lat="43.40948161903882" lon="5.972112070906312"><ele>246.75</ele><time>2026-04-18T13:58:41.999Z</time></trkpt><trkpt lat="43.409378152439245" lon="5.972064069650987"><ele>246.0</ele><time>2026-04-18T13:58:42.999Z</time></trkpt><trkpt lat="43.409258268872435" lon="5.972023501326727"><ele>246.0</ele><time>2026-04-18T13:58:43.999Z</time></trkpt><trkpt lat="43.409120554552764" lon="5.971989562292617"><ele>246.0</ele><time>2026-04-18T13:58:44.999Z</time></trkpt><trkpt lat="43.40896825219864" lon="5.971959237503254"><ele>246.0</ele><time>2026-04-18T13:58:45.999Z</time></trkpt><trkpt lat="43.40879977486106" lon="5.9719222818804125"><ele>246.25</ele><time>2026-04-18T13:58:46.999Z</time></trkpt><trkpt lat="43.40864413557385" lon="5.971885686973651"><ele>246.5</ele><time>2026-04-18T13:58:48Z</time></trkpt><trkpt lat="43.40850130332002" lon="5.97184768316732"><ele>246.75</ele><time>2026-04-18T13:58:49Z</time></trkpt><trkpt lat="43.408372950919386" lon="5.971817955748093"><ele>247.0</ele><time>2026-04-18T13:58:50Z</time></trkpt><trkpt lat="43.40828676236268" lon="5.971799485089798"><ele>247.0</ele><time>2026-04-18T13:58:51Z</time></trkpt><trkpt lat="43.40819645012463" lon="5.971794709389442"><ele>247.0</ele><time>2026-04-18T13:58:54Z</time></trkpt><trkpt lat="43.40806705053899" lon="5.971782152700122"><ele>247.0</ele><time>2026-04-18T13:58:56Z</time></trkpt><trkpt lat="43.4079741667932" lon="5.971749539657839"><ele>247.0</ele><time>2026-04-18T13:58:58Z</time></trkpt><trkpt lat="43.40783704811449" lon="5.97174885990071"><ele>246.6</ele><time>2026-04-18T13:59:17Z</time></trkpt><trkpt lat="43.407731822553224" lon="5.971752067585177"><ele>246.2</ele><time>2026-04-18T13:59:18Z</time></trkpt><trkpt lat="43.40763126746261" lon="5.971736845432303"><ele>245.8</ele><time>2026-04-18T13:59:19Z</time></trkpt><trkpt lat="43.40751817194699" lon="5.971784444521138"><ele>245.4</ele><time>2026-04-18T13:59:20Z</time></trkpt><trkpt lat="43.40741802923443" lon="5.971814986521806"><ele>245.0</ele><time>2026-04-18T13:59:21Z</time></trkpt><trkpt lat="43.40732381644182" lon="5.971833253774847"><ele>245.0</ele><time>2026-04-18T13:59:22Z</time></trkpt><trkpt lat="43.40721977629783" lon="5.971848054815388"><ele>245.0</ele><time>2026-04-18T13:59:23Z</time></trkpt><trkpt lat="43.40710494962519" lon="5.971857944298338"><ele>245.0</ele><time>2026-04-18T13:59:24Z</time></trkpt><trkpt lat="43.40695696852943" lon="5.971863949863844"><ele>245.0</ele><time>2026-04-18T13:59:25Z</time></trkpt><trkpt lat="43.406800545581305" lon="5.971883578914176"><ele>245.0</ele><time>2026-04-18T13:59:26Z</time></trkpt><trkpt lat="43.40662516374512" lon="5.9719168706766155"><ele>245.0</ele><time>2026-04-18T13:59:27Z</time></trkpt><trkpt lat="43.40647830139906" lon="5.97193981537367"><ele>245.0</ele><time>2026-04-18T13:59:28Z</time></trkpt><trkpt lat="43.406346725133865" lon="5.971939418021336"><ele>245.0</ele><time>2026-04-18T13:59:29Z</time></trkpt><trkpt lat="43.40619972203224" lon="5.971946542267364"><ele>245.0</ele><time>2026-04-18T13:59:30Z</time></trkpt><trkpt lat="43.40604983881739" lon="5.971955977557278"><ele>245.0</ele><time>2026-04-18T13:59:31Z</time></trkpt><trkpt lat="43.4059169100691" lon="5.971980059311486"><ele>245.0</ele><time>2026-04-18T13:59:32Z</time></trkpt><trkpt lat="43.405802327378474" lon="5.972006757555913"><ele>245.0</ele><time>2026-04-18T13:59:33Z</time></trkpt><trkpt lat="43.405703637746164" lon="5.9720306151183165"><ele>245.0</ele><time>2026-04-18T13:59:34Z</time></trkpt><trkpt lat="43.40561800951851" lon="5.972080466204697"><ele>245.0</ele><time>2026-04-18T13:59:35Z</time></trkpt><trkpt lat="43.405535109327715" lon="5.972161168630427"><ele>245.0</ele><time>2026-04-18T13:59:36Z</time></trkpt><trkpt lat="43.40543519770812" lon="5.97226509158915"><ele>245.0</ele><time>2026-04-18T13:59:37Z</time></trkpt><trkpt lat="43.40532901624359" lon="5.972357923765863"><ele>245.4</ele><time>2026-04-18T13:59:38Z</time></trkpt><trkpt lat="43.40523350372622" lon="5.97242653452121"><ele>245.8</ele><time>2026-04-18T13:59:39Z</time></trkpt><trkpt lat="43.40515131589308" lon="5.972496754591819"><ele>246.2</ele><time>2026-04-18T13:59:40Z</time></trkpt><trkpt lat="43.40507486728242" lon="5.972576893027412"><ele>246.6</ele><time>2026-04-18T13:59:41Z</time></trkpt><trkpt lat="43.404988288917096" lon="5.972686001081408"><ele>247.0</ele><time>2026-04-18T13:59:42Z</time></trkpt><trkpt lat="43.40488813461951" lon="5.972793385579471"><ele>247.0</ele><time>2026-04-18T13:59:43Z</time></trkpt><trkpt lat="43.40479861648971" lon="5.97288559307603"><ele>247.0</ele><time>2026-04-18T13:59:44Z</time></trkpt><trkpt lat="43.40471580160607" lon="5.972972506391417"><ele>247.0</ele><time>2026-04-18T13:59:45Z</time></trkpt><trkpt lat="43.40463402758885" lon="5.973051738533194"><ele>247.0</ele><time>2026-04-18T13:59:46Z</time></trkpt><trkpt lat="43.404556583523316" lon="5.973125065144476"><ele>247.0</ele><time>2026-04-18T13:59:47Z</time></trkpt><trkpt lat="43.4045026223273" lon="5.973210699398491"><ele>246.99999999999997</ele><time>2026-04-18T13:59:48Z</time></trkpt><trkpt lat="43.40445719938167" lon="5.973285966046441"><ele>247.0</ele><time>2026-04-18T13:59:49Z</time></trkpt><trkpt lat="43.40442015792222" lon="5.973372530738987"><ele>247.0</ele><time>2026-04-18T13:59:51Z</time></trkpt><trkpt lat="43.40436247076273" lon="5.973445135349485"><ele>247.0</ele><time>2026-04-18T14:00:06.999Z</time></trkpt><trkpt lat="43.40429415345765" lon="5.973489921917252"><ele>246.99999999999997</ele><time>2026-04-18T14:00:08.999Z</time></trkpt><trkpt lat="43.40418292358909" lon="5.973522512319353"><ele>247.0</ele><time>2026-04-18T14:00:10.999Z</time></trkpt><trkpt lat="43.404108066407034" lon="5.973642361517947"><ele>247.0</ele><time>2026-04-18T14:00:12.999Z</time></trkpt><trkpt lat="43.4040320661582" lon="5.973757325680814"><ele>247.0</ele><time>2026-04-18T14:00:14.999Z</time></trkpt><trkpt lat="43.40397848137435" lon="5.973832592908228"><ele>247.0</ele><time>2026-04-18T14:00:15.999Z</time></trkpt><trkpt lat="43.40391258877084" lon="5.973866894575056"><ele>247.0</ele><time>2026-04-18T14:00:17.999Z</time></trkpt><trkpt lat="43.40379548192068" lon="5.973755016698391"><ele>247.0</ele><time>2026-04-18T14:00:19.999Z</time></trkpt><trkpt lat="43.40372392469275" lon="5.973719841960486"><ele>246.75</ele><time>2026-04-18T14:00:20.999Z</time></trkpt><trkpt lat="43.40364705407219" lon="5.973723978506551"><ele>246.5</ele><time>2026-04-18T14:00:21.999Z</time></trkpt><trkpt lat="43.403540023377744" lon="5.973745527035385"><ele>246.25</ele><time>2026-04-18T14:00:22.999Z</time></trkpt><trkpt lat="43.40337476878522" lon="5.9737723105820315"><ele>246.0</ele><time>2026-04-18T14:00:23.999Z</time></trkpt><trkpt lat="43.40318526032792" lon="5.973803069408316"><ele>246.0</ele><time>2026-04-18T14:00:24.999Z</time></trkpt><trkpt lat="43.403022609101555" lon="5.973817019190541"><ele>246.0</ele><time>2026-04-18T14:00:25.999Z</time></trkpt><trkpt lat="43.402895435081156" lon="5.973829893747917"><ele>246.0</ele><time>2026-04-18T14:00:26.999Z</time></trkpt><trkpt lat="43.402787110874016" lon="5.973814265544226"><ele>246.0</ele><time>2026-04-18T14:00:27.999Z</time></trkpt><trkpt lat="43.40267524480787" lon="5.973764993325002"><ele>246.0</ele><time>2026-04-18T14:00:28.999Z</time></trkpt><trkpt lat="43.402534064597674" lon="5.973704739571197"><ele>246.0</ele><time>2026-04-18T14:00:29.999Z</time></trkpt><trkpt lat="43.40239238831482" lon="5.973610891599266"><ele>246.0</ele><time>2026-04-18T14:00:30.999Z</time></trkpt><trkpt lat="43.40227340268643" lon="5.973557028880315"><ele>246.0</ele><time>2026-04-18T14:00:31.999Z</time></trkpt><trkpt lat="43.402177787100804" lon="5.973540085964621"><ele>245.60000000000002</ele><time>2026-04-18T14:00:32.999Z</time></trkpt><trkpt lat="43.40209149866114" lon="5.973511365331999"><ele>245.20000000000002</ele><time>2026-04-18T14:00:33.999Z</time></trkpt><trkpt lat="43.40200869931378" lon="5.97348182663873"><ele>244.79999999999998</ele><time>2026-04-18T14:00:34.999Z</time></trkpt><trkpt lat="43.401914424022934" lon="5.973437269836322"><ele>244.39999999999998</ele><time>2026-04-18T14:00:35.999Z</time></trkpt><trkpt lat="43.401831285854726" lon="5.973373074722321"><ele>244.0</ele><time>2026-04-18T14:00:36.999Z</time></trkpt><trkpt lat="43.40171344509344" lon="5.973333064228788"><ele>245.0</ele><time>2026-04-18T14:00:37.999Z</time></trkpt><trkpt lat="43.401573831463075" lon="5.973304896863613"><ele>246.0</ele><time>2026-04-18T14:00:38.999Z</time></trkpt><trkpt lat="43.40145589776705" lon="5.9733016348490215"><ele>247.0</ele><time>2026-04-18T14:00:39.999Z</time></trkpt><trkpt lat="43.4013544221874" lon="5.973309368608005"><ele>248.0</ele><time>2026-04-18T14:00:40.999Z</time></trkpt><trkpt lat="43.40126335508562" lon="5.973301284946228"><ele>248.0</ele><time>2026-04-18T14:00:41.999Z</time></trkpt><trkpt lat="43.401179633130745" lon="5.973291462048078"><ele>248.0</ele><time>2026-04-18T14:00:42.999Z</time></trkpt><trkpt lat="43.40109767210254" lon="5.973299074436495"><ele>248.0</ele><time>2026-04-18T14:00:43.999Z</time></trkpt><trkpt lat="43.400995599698554" lon="5.973292888320745"><ele>248.0</ele><time>2026-04-18T14:00:44.999Z</time></trkpt><trkpt lat="43.40087146014973" lon="5.973238037278967"><ele>248.0</ele><time>2026-04-18T14:00:45.999Z</time></trkpt><trkpt lat="43.4007204420727" lon="5.973156039486054"><ele>248.0</ele><time>2026-04-18T14:00:46.999Z</time></trkpt><trkpt lat="43.40054742688044" lon="5.973075488749814"><ele>248.0</ele><time>2026-04-18T14:00:47.999Z</time></trkpt><trkpt lat="43.400400166892766" lon="5.9730118119245255"><ele>248.0</ele><time>2026-04-18T14:00:48.999Z</time></trkpt><trkpt lat="43.40027105543618" lon="5.972959995402258"><ele>247.75</ele><time>2026-04-18T14:00:49.999Z</time></trkpt><trkpt lat="43.4001510037876" lon="5.97291800783854"><ele>247.5</ele><time>2026-04-18T14:00:50.999Z</time></trkpt><trkpt lat="43.40001379418531" lon="5.972900526855548"><ele>247.25</ele><time>2026-04-18T14:00:51.999Z</time></trkpt><trkpt lat="43.399838585694944" lon="5.972918484368595"><ele>247.0</ele><time>2026-04-18T14:00:52.999Z</time></trkpt><trkpt lat="43.39963750468502" lon="5.972966755434584"><ele>246.66666666666666</ele><time>2026-04-18T14:00:54Z</time></trkpt><trkpt lat="43.39945496209681" lon="5.973025935227976"><ele>246.33333333333331</ele><time>2026-04-18T14:00:55Z</time></trkpt><trkpt lat="43.39927035863559" lon="5.973092921908373"><ele>246.0</ele><time>2026-04-18T14:00:56Z</time></trkpt><trkpt lat="43.399072505172626" lon="5.973170017659707"><ele>246.0</ele><time>2026-04-18T14:00:57Z</time></trkpt><trkpt lat="43.39890860458358" lon="5.9732408954273195"><ele>246.0</ele><time>2026-04-18T14:00:58Z</time></trkpt><trkpt lat="43.39879221145681" lon="5.973302500946953"><ele>246.0</ele><time>2026-04-18T14:00:59Z</time></trkpt><trkpt lat="43.398708060280555" lon="5.973376165529924"><ele>246.0</ele><time>2026-04-18T14:01:00Z</time></trkpt><trkpt lat="43.398650201099485" lon="5.9734777505575165"><ele>248.0</ele><time>2026-04-18T14:01:01Z</time></trkpt><trkpt lat="43.398603580263014" lon="5.973593498945573"><ele>250.00000000000003</ele><time>2026-04-18T14:01:02Z</time></trkpt><trkpt lat="43.3985472210891" lon="5.973672760032478"><ele>252.00000000000003</ele><time>2026-04-18T14:01:03Z</time></trkpt><trkpt lat="43.39847419757354" lon="5.973713218514344"><ele>254.0</ele><time>2026-04-18T14:01:04Z</time></trkpt><trkpt lat="43.39837827031617" lon="5.973740776191586"><ele>256.0</ele><time>2026-04-18T14:01:05Z</time></trkpt><trkpt lat="43.39826913254383" lon="5.973755869381461"><ele>256.0</ele><time>2026-04-18T14:01:06Z</time></trkpt><trkpt lat="43.398146741299946" lon="5.9738040033197395"><ele>256.0</ele><time>2026-04-18T14:01:07Z</time></trkpt><trkpt lat="43.39805783742174" lon="5.973838091973328"><ele>256.0</ele><time>2026-04-18T14:01:08Z</time></trkpt><trkpt lat="43.397940976098624" lon="5.973862018814597"><ele>256.0</ele><time>2026-04-18T14:01:09Z</time></trkpt><trkpt lat="43.3977954280856" lon="5.973863283585977"><ele>257.25</ele><time>2026-04-18T14:01:10Z</time></trkpt><trkpt lat="43.39763082766583" lon="5.973854511136742"><ele>258.5</ele><time>2026-04-18T14:01:11Z</time></trkpt><trkpt lat="43.39749610779387" lon="5.973846979953668"><ele>259.75</ele><time>2026-04-18T14:01:12Z</time></trkpt><trkpt lat="43.39738591140726" lon="5.973825148434931"><ele>261.0</ele><time>2026-04-18T14:01:13Z</time></trkpt><trkpt lat="43.39729296076115" lon="5.97379017764886"><ele>261.0</ele><time>2026-04-18T14:01:14Z</time></trkpt><trkpt lat="43.397209874784075" lon="5.973740490855511"><ele>261.0</ele><time>2026-04-18T14:01:15Z</time></trkpt><trkpt lat="43.39713290485785" lon="5.9736906709918856"><ele>261.0</ele><time>2026-04-18T14:01:16Z</time></trkpt><trkpt lat="43.397066138908656" lon="5.973683239925244"><ele>261.0</ele><time>2026-04-18T14:01:17Z</time></trkpt><trkpt lat="43.39697781181345" lon="5.973722013693562"><ele>261.0</ele><time>2026-04-18T14:01:18Z</time></trkpt><trkpt lat="43.39690050902572" lon="5.973767047763066"><ele>261.0</ele><time>2026-04-18T14:01:19Z</time></trkpt><trkpt lat="43.39683285240715" lon="5.9738056571074365"><ele>260.8</ele><time>2026-04-18T14:01:20Z</time></trkpt><trkpt lat="43.39676183362359" lon="5.973814695843506"><ele>260.6</ele><time>2026-04-18T14:01:21Z</time></trkpt><trkpt lat="43.39668509873806" lon="5.973774305083004"><ele>260.4</ele><time>2026-04-18T14:01:22Z</time></trkpt><trkpt lat="43.39659738490809" lon="5.973732233715433"><ele>260.2</ele><time>2026-04-18T14:01:23Z</time></trkpt><trkpt lat="43.396473448310694" lon="5.973691318629748"><ele>260.0</ele><time>2026-04-18T14:01:24Z</time></trkpt><trkpt lat="43.39636328588674" lon="5.973689632210803"><ele>259.0</ele><time>2026-04-18T14:01:25Z</time></trkpt><trkpt lat="43.39625555789971" lon="5.97370507106377"><ele>258.0</ele><time>2026-04-18T14:01:26Z</time></trkpt><trkpt lat="43.39615826947431" lon="5.973711685879966"><ele>257.0</ele><time>2026-04-18T14:01:27Z</time></trkpt><trkpt lat="43.39607209179922" lon="5.973732967385658"><ele>256.0</ele><time>2026-04-18T14:01:28Z</time></trkpt><trkpt lat="43.3959818873073" lon="5.973742150087139"><ele>255.0</ele><time>2026-04-18T14:01:29Z</time></trkpt><trkpt lat="43.39589931456449" lon="5.973737756520998"><ele>255.0</ele><time>2026-04-18T14:01:30Z</time></trkpt><trkpt lat="43.39582881138487" lon="5.973728041783046"><ele>255.0</ele><time>2026-04-18T14:01:31Z</time></trkpt><trkpt lat="43.395741227235916" lon="5.9737179245494945"><ele>255.0</ele><time>2026-04-18T14:01:32Z</time></trkpt><trkpt lat="43.395676120985186" lon="5.973698850153375"><ele>255.0</ele><time>2026-04-18T14:01:33Z</time></trkpt><trkpt lat="43.39557368542622" lon="5.973693168620708"><ele>255.0</ele><time>2026-04-18T14:01:35Z</time></trkpt><trkpt lat="43.39550514866256" lon="5.9737100450916145"><ele>255.0</ele><time>2026-04-18T14:01:40Z</time></trkpt><trkpt lat="43.39542073084909" lon="5.973634918451533"><ele>255.2</ele><time>2026-04-18T14:01:43Z</time></trkpt><trkpt lat="43.39534948763983" lon="5.973586698492138"><ele>255.4</ele><time>2026-04-18T14:01:45Z</time></trkpt><trkpt lat="43.39531597875425" lon="5.973512276340983"><ele>255.60000000000002</ele><time>2026-04-18T14:01:48Z</time></trkpt><trkpt lat="43.395312123955016" lon="5.97333883564298"><ele>255.8</ele><time>2026-04-18T14:02:25.999Z</time></trkpt><trkpt lat="43.39536055321889" lon="5.973228532992622"><ele>256.0</ele><time>2026-04-18T14:02:26.999Z</time></trkpt><trkpt lat="43.39543186710147" lon="5.973117039119748"><ele>256.75</ele><time>2026-04-18T14:02:27.999Z</time></trkpt><trkpt lat="43.39550798043159" lon="5.972965949591951"><ele>257.5</ele><time>2026-04-18T14:02:28.999Z</time></trkpt><trkpt lat="43.395577199773896" lon="5.972795582609892"><ele>258.25</ele><time>2026-04-18T14:02:29.999Z</time></trkpt><trkpt lat="43.39562895624384" lon="5.972636050272673"><ele>259.0</ele><time>2026-04-18T14:02:30.999Z</time></trkpt><trkpt lat="43.39568868573409" lon="5.972442136999164"><ele>259.66666666666663</ele><time>2026-04-18T14:02:31.999Z</time></trkpt><trkpt lat="43.39576501948543" lon="5.972206643015573"><ele>260.3333333333333</ele><time>2026-04-18T14:02:32.999Z</time></trkpt><trkpt lat="43.395837919650155" lon="5.97198057099245"><ele>261.0</ele><time>2026-04-18T14:02:33.999Z</time></trkpt><trkpt lat="43.395903579323004" lon="5.971764977306405"><ele>261.0</ele><time>2026-04-18T14:02:34.999Z</time></trkpt><trkpt lat="43.39598680539817" lon="5.9715126628988076"><ele>261.0</ele><time>2026-04-18T14:02:35.999Z</time></trkpt><trkpt lat="43.39607608849916" lon="5.971253603314137"><ele>261.0</ele><time>2026-04-18T14:02:36.999Z</time></trkpt><trkpt lat="43.39615468378466" lon="5.971016087201746"><ele>261.0</ele><time>2026-04-18T14:02:37.999Z</time></trkpt><trkpt lat="43.39623037430756" lon="5.97078889409625"><ele>261.0</ele><time>2026-04-18T14:02:38.999Z</time></trkpt><trkpt lat="43.39629661132626" lon="5.970565501660782"><ele>261.0</ele><time>2026-04-18T14:02:39.999Z</time></trkpt><trkpt lat="43.39637759863063" lon="5.97032704869095"><ele>261.0</ele><time>2026-04-18T14:02:40.999Z</time></trkpt><trkpt lat="43.396462475408605" lon="5.970080707852401"><ele>261.0</ele><time>2026-04-18T14:02:41.999Z</time></trkpt><trkpt lat="43.39654520512862" lon="5.969849414377991"><ele>261.0</ele><time>2026-04-18T14:02:42.999Z</time></trkpt><trkpt lat="43.39662587807507" lon="5.969631251034999"><ele>259.0</ele><time>2026-04-18T14:02:43.999Z</time></trkpt><trkpt lat="43.39670291658652" lon="5.969428408811384"><ele>257.0</ele><time>2026-04-18T14:02:44.999Z</time></trkpt><trkpt lat="43.39677623832695" lon="5.96923760552317"><ele>255.0</ele><time>2026-04-18T14:02:45.999Z</time></trkpt><trkpt lat="43.39685014137402" lon="5.96904309163654"><ele>255.0</ele><time>2026-04-18T14:02:46.999Z</time></trkpt><trkpt lat="43.396939112727" lon="5.968826142890313"><ele>255.0</ele><time>2026-04-18T14:02:47.999Z</time></trkpt><trkpt lat="43.39704108934394" lon="5.96858838391098"><ele>255.0</ele><time>2026-04-18T14:02:48.999Z</time></trkpt><trkpt lat="43.39714708353754" lon="5.968335919889598"><ele>256.6666666666667</ele><time>2026-04-18T14:02:49.999Z</time></trkpt><trkpt lat="43.39725355213449" lon="5.968074510228329"><ele>258.33333333333337</ele><time>2026-04-18T14:02:50.999Z</time></trkpt><trkpt lat="43.39734722659054" lon="5.9678440931825545"><ele>260.0</ele><time>2026-04-18T14:02:51.999Z</time></trkpt><trkpt lat="43.397434461058" lon="5.96762296858248"><ele>261.0</ele><time>2026-04-18T14:02:52.999Z</time></trkpt><trkpt lat="43.39752370487073" lon="5.967397416334404"><ele>262.0</ele><time>2026-04-18T14:02:53.999Z</time></trkpt><trkpt lat="43.39760266387269" lon="5.967194475677415"><ele>263.0</ele><time>2026-04-18T14:02:54.999Z</time></trkpt><trkpt lat="43.39767193934059" lon="5.9670012063302"><ele>263.0</ele><time>2026-04-18T14:02:55.999Z</time></trkpt><trkpt lat="43.39773242661945" lon="5.9668199476791175"><ele>263.0</ele><time>2026-04-18T14:02:56.999Z</time></trkpt><trkpt lat="43.397783689561166" lon="5.9666479633460785"><ele>263.0</ele><time>2026-04-18T14:02:57.999Z</time></trkpt><trkpt lat="43.397826332041625" lon="5.966486800181314"><ele>263.0</ele><time>2026-04-18T14:02:58.999Z</time></trkpt><trkpt lat="43.397859491484894" lon="5.966347972862443"><ele>264.2</ele><time>2026-04-18T14:03:00Z</time></trkpt><trkpt lat="43.39789627154643" lon="5.966220387612871"><ele>265.4</ele><time>2026-04-18T14:03:01Z</time></trkpt><trkpt lat="43.39791567207123" lon="5.966119836090971"><ele>266.59999999999997</ele><time>2026-04-18T14:03:02Z</time></trkpt><trkpt lat="43.39793704327608" lon="5.966006525175516"><ele>267.8</ele><time>2026-04-18T14:03:04Z</time></trkpt><trkpt lat="43.39775972106065" lon="5.966043326959905"><ele>269.0</ele><time>2026-04-18T14:03:08Z</time></trkpt><trkpt lat="43.397710303248566" lon="5.966137698121497"><ele>269.0</ele><time>2026-04-18T14:03:09Z</time></trkpt><trkpt lat="43.397673231074265" lon="5.966260531108654"><ele>269.0</ele><time>2026-04-18T14:03:10Z</time></trkpt><trkpt lat="43.397633409476775" lon="5.96639770927423"><ele>269.0</ele><time>2026-04-18T14:03:11Z</time></trkpt><trkpt lat="43.3975952975819" lon="5.966507520938073"><ele>269.0</ele><time>2026-04-18T14:03:12Z</time></trkpt><trkpt lat="43.397542647011434" lon="5.966584754168611"><ele>269.0</ele><time>2026-04-18T14:03:13Z</time></trkpt><trkpt lat="43.39749106749204" lon="5.966692713932562"><ele>268.1666666666667</ele><time>2026-04-18T14:03:14Z</time></trkpt><trkpt lat="43.397417536226655" lon="5.966763824659703"><ele>267.33333333333337</ele><time>2026-04-18T14:03:15Z</time></trkpt><trkpt lat="43.39733728428668" lon="5.966801119121776"><ele>266.5</ele><time>2026-04-18T14:03:16Z</time></trkpt><trkpt lat="43.39725665665705" lon="5.966794532634813"><ele>265.6666666666667</ele><time>2026-04-18T14:03:17Z</time></trkpt><trkpt lat="43.39718841935231" lon="5.966748438230985"><ele>264.8333333333333</ele><time>2026-04-18T14:03:18Z</time></trkpt><trkpt lat="43.39712601276716" lon="5.966668552895317"><ele>264.0</ele><time>2026-04-18T14:03:19Z</time></trkpt><trkpt lat="43.397041800800736" lon="5.9666186946233815"><ele>264.0</ele><time>2026-04-18T14:03:20Z</time></trkpt><trkpt lat="43.39694522417216" lon="5.966610160145159"><ele>264.0</ele><time>2026-04-18T14:03:21Z</time></trkpt><trkpt lat="43.396861728574216" lon="5.966619219121927"><ele>264.0</ele><time>2026-04-18T14:03:22Z</time></trkpt><trkpt lat="43.39679098947611" lon="5.966613483473185"><ele>264.0</ele><time>2026-04-18T14:03:23Z</time></trkpt><trkpt lat="43.39670038801267" lon="5.966562952401731"><ele>264.0</ele><time>2026-04-18T14:03:24Z</time></trkpt><trkpt lat="43.39659241896804" lon="5.966456100307774"><ele>264.0</ele><time>2026-04-18T14:03:25Z</time></trkpt><trkpt lat="43.39646552948654" lon="5.966315028679373"><ele>264.0</ele><time>2026-04-18T14:03:26Z</time></trkpt><trkpt lat="43.39634969367805" lon="5.966192846374384"><ele>264.0</ele><time>2026-04-18T14:03:27Z</time></trkpt><trkpt lat="43.396238204950734" lon="5.966087135502121"><ele>264.0</ele><time>2026-04-18T14:03:28Z</time></trkpt><trkpt lat="43.39613560123989" lon="5.965980391750109"><ele>263.4</ele><time>2026-04-18T14:03:29Z</time></trkpt><trkpt lat="43.396046861392044" lon="5.965884456297648"><ele>262.79999999999995</ele><time>2026-04-18T14:03:30Z</time></trkpt><trkpt lat="43.39596036468804" lon="5.96578764807402"><ele>262.20000000000005</ele><time>2026-04-18T14:03:31Z</time></trkpt><trkpt lat="43.39588166861844" lon="5.965696452714695"><ele>261.6</ele><time>2026-04-18T14:03:32Z</time></trkpt><trkpt lat="43.395805978921274" lon="5.965606779459896"><ele>261.0</ele><time>2026-04-18T14:03:33Z</time></trkpt><trkpt lat="43.39572672170057" lon="5.965514106785377"><ele>262.6666666666667</ele><time>2026-04-18T14:03:34Z</time></trkpt><trkpt lat="43.39565122228854" lon="5.965435772267885"><ele>264.3333333333333</ele><time>2026-04-18T14:03:35Z</time></trkpt><trkpt lat="43.39560117615188" lon="5.96537130866255"><ele>266.0</ele><time>2026-04-18T14:03:36Z</time></trkpt><trkpt lat="43.395567117309675" lon="5.965267837762195"><ele>267.66666666666663</ele><time>2026-04-18T14:03:38Z</time></trkpt><trkpt lat="43.39557705966624" lon="5.965162326910656"><ele>269.3333333333333</ele><time>2026-04-18T14:03:40Z</time></trkpt><trkpt lat="43.39564759208158" lon="5.965056327971684"><ele>271.0</ele><time>2026-04-18T14:03:42Z</time></trkpt><trkpt lat="43.39571217078944" lon="5.96498163880315"><ele>273.8</ele><time>2026-04-18T14:03:43Z</time></trkpt><trkpt lat="43.395778450838904" lon="5.964886686284995"><ele>276.6</ele><time>2026-04-18T14:03:43.999Z</time></trkpt><trkpt lat="43.395839726718634" lon="5.96478381714165"><ele>279.4</ele><time>2026-04-18T14:03:44.999Z</time></trkpt><trkpt lat="43.395905885248744" lon="5.964680410943284"><ele>282.2</ele><time>2026-04-18T14:03:45.999Z</time></trkpt><trkpt lat="43.395988415431916" lon="5.964567189933075"><ele>285.0</ele><time>2026-04-18T14:03:46.999Z</time></trkpt><trkpt lat="43.39605837903062" lon="5.964463068624815"><ele>285.0</ele><time>2026-04-18T14:03:47.999Z</time></trkpt><trkpt lat="43.3961156256373" lon="5.9643591162288"><ele>285.0</ele><time>2026-04-18T14:03:48.999Z</time></trkpt><trkpt lat="43.39616789717429" lon="5.964266477285572"><ele>285.0</ele><time>2026-04-18T14:03:49.999Z</time></trkpt><trkpt lat="43.39623106086231" lon="5.9641670207136555"><ele>285.0</ele><time>2026-04-18T14:03:50.999Z</time></trkpt><trkpt lat="43.39629339689045" lon="5.964070365022497"><ele>285.0</ele><time>2026-04-18T14:03:51.999Z</time></trkpt><trkpt lat="43.39635764586383" lon="5.96397520419622"><ele>288.8333333333333</ele><time>2026-04-18T14:03:52.999Z</time></trkpt><trkpt lat="43.39641140278241" lon="5.9638877950237825"><ele>292.6666666666667</ele><time>2026-04-18T14:03:53.999Z</time></trkpt><trkpt lat="43.396456536663436" lon="5.963795973545273"><ele>296.5</ele><time>2026-04-18T14:03:54.999Z</time></trkpt><trkpt lat="43.396492078927466" lon="5.9637000881760995"><ele>300.33333333333337</ele><time>2026-04-18T14:03:55.999Z</time></trkpt><trkpt lat="43.39652626162759" lon="5.963623855801297"><ele>304.1666666666667</ele><time>2026-04-18T14:03:56.999Z</time></trkpt><trkpt lat="43.39661549735514" lon="5.963547642044619"><ele>308.0</ele><time>2026-04-18T14:03:58.999Z</time></trkpt><trkpt lat="43.396708291939916" lon="5.963412829576947"><ele>308.6666666666667</ele><time>2026-04-18T14:04:00.999Z</time></trkpt><trkpt lat="43.39676333908613" lon="5.963327276048063"><ele>309.33333333333337</ele><time>2026-04-18T14:04:01.999Z</time></trkpt><trkpt lat="43.39681799565655" lon="5.963242459466945"><ele>310.0</ele><time>2026-04-18T14:04:02.999Z</time></trkpt><trkpt lat="43.39687735624396" lon="5.963156362450123"><ele>310.6666666666667</ele><time>2026-04-18T14:04:03.999Z</time></trkpt><trkpt lat="43.39693486522117" lon="5.963071442555692"><ele>311.3333333333333</ele><time>2026-04-18T14:04:04.999Z</time></trkpt><trkpt lat="43.3969898259993" lon="5.962983250760363"><ele>312.0</ele><time>2026-04-18T14:04:05.999Z</time></trkpt><trkpt lat="43.39704214700772" lon="5.96290137366003"><ele>312.0</ele><time>2026-04-18T14:04:06.999Z</time></trkpt><trkpt lat="43.39709589119945" lon="5.962820679419596"><ele>312.0</ele><time>2026-04-18T14:04:07.999Z</time></trkpt><trkpt lat="43.39714473355484" lon="5.962754235612371"><ele>312.0</ele><time>2026-04-18T14:04:08.999Z</time></trkpt><trkpt lat="43.39718993407571" lon="5.9626872422611905"><ele>312.0</ele><time>2026-04-18T14:04:09.999Z</time></trkpt><trkpt lat="43.397235863268214" lon="5.962613784227355"><ele>312.0</ele><time>2026-04-18T14:04:10.999Z</time></trkpt><trkpt lat="43.3972853925" lon="5.962558866442602"><ele>312.0</ele><time>2026-04-18T14:04:11.999Z</time></trkpt><trkpt lat="43.39733819125581" lon="5.962479271845225"><ele>312.0</ele><time>2026-04-18T14:04:12.999Z</time></trkpt><trkpt lat="43.39739898328695" lon="5.9623988085434405"><ele>309.0</ele><time>2026-04-18T14:04:13.999Z</time></trkpt><trkpt lat="43.39745180897319" lon="5.962323781435366"><ele>306.0</ele><time>2026-04-18T14:04:14.999Z</time></trkpt><trkpt lat="43.39750061309343" lon="5.962231027846073"><ele>303.0</ele><time>2026-04-18T14:04:15.999Z</time></trkpt><trkpt lat="43.39755100325011" lon="5.9621448278215015"><ele>300.0</ele><time>2026-04-18T14:04:16.999Z</time></trkpt><trkpt lat="43.39759718071664" lon="5.962078264668255"><ele>297.0</ele><time>2026-04-18T14:04:17.999Z</time></trkpt><trkpt lat="43.39766904937322" lon="5.962003304332065"><ele>294.0</ele><time>2026-04-18T14:04:19.999Z</time></trkpt><trkpt lat="43.39770820525635" lon="5.9619109558091905"><ele>294.0</ele><time>2026-04-18T14:04:21.999Z</time></trkpt><trkpt lat="43.397750384798826" lon="5.961835170004662"><ele>294.0</ele><time>2026-04-18T14:04:23.999Z</time></trkpt><trkpt lat="43.39784574535499" lon="5.961722828901686"><ele>294.0</ele><time>2026-04-18T14:04:25.999Z</time></trkpt><trkpt lat="43.397910199213314" lon="5.961628684817819"><ele>294.0</ele><time>2026-04-18T14:04:26.999Z</time></trkpt><trkpt lat="43.397968872458975" lon="5.9615347781633075"><ele>294.0</ele><time>2026-04-18T14:04:27.999Z</time></trkpt><trkpt lat="43.39800318301687" lon="5.961444576349248"><ele>293.2</ele><time>2026-04-18T14:04:28.999Z</time></trkpt><trkpt lat="43.398114652396934" lon="5.961335942255882"><ele>292.4</ele><time>2026-04-18T14:04:30.999Z</time></trkpt><trkpt lat="43.398188196969215" lon="5.961264606934359"><ele>291.6</ele><time>2026-04-18T14:04:31.999Z</time></trkpt><trkpt lat="43.39821717795" lon="5.9611480843444715"><ele>290.8</ele><time>2026-04-18T14:04:32.999Z</time></trkpt><trkpt lat="43.398287531972805" lon="5.961072121386624"><ele>290.0</ele><time>2026-04-18T14:04:33.999Z</time></trkpt><trkpt lat="43.398349501777645" lon="5.960985894922621"><ele>290.0</ele><time>2026-04-18T14:04:34.999Z</time></trkpt><trkpt lat="43.39838588906738" lon="5.960901193709715"><ele>290.0</ele><time>2026-04-18T14:04:35.999Z</time></trkpt><trkpt lat="43.39849635592302" lon="5.960758343486068"><ele>290.0</ele><time>2026-04-18T14:04:37.999Z</time></trkpt><trkpt lat="43.398547988446495" lon="5.9606496388077055"><ele>290.0</ele><time>2026-04-18T14:04:38.999Z</time></trkpt><trkpt lat="43.398601953301615" lon="5.960549993310857"><ele>290.0</ele><time>2026-04-18T14:04:39.999Z</time></trkpt><trkpt lat="43.39866934732798" lon="5.960449555488255"><ele>290.4</ele><time>2026-04-18T14:04:40.999Z</time></trkpt><trkpt lat="43.39872401893531" lon="5.960356226625509"><ele>290.8</ele><time>2026-04-18T14:04:41.999Z</time></trkpt><trkpt lat="43.39877304263331" lon="5.960284283317352"><ele>291.2</ele><time>2026-04-18T14:04:42.999Z</time></trkpt><trkpt lat="43.39884864478699" lon="5.960180580262526"><ele>291.6</ele><time>2026-04-18T14:04:44.999Z</time></trkpt><trkpt lat="43.39888445461565" lon="5.960087075313677"><ele>292.0</ele><time>2026-04-18T14:04:45.999Z</time></trkpt><trkpt lat="43.39898033167558" lon="5.959990314355646"><ele>293.8333333333333</ele><time>2026-04-18T14:04:47.999Z</time></trkpt><trkpt lat="43.399033086188005" lon="5.959939179818771"><ele>295.66666666666663</ele><time>2026-04-18T14:04:48.999Z</time></trkpt><trkpt lat="43.39908093602894" lon="5.959867762743558"><ele>297.5</ele><time>2026-04-18T14:04:49.999Z</time></trkpt><trkpt lat="43.3991356564147" lon="5.959772054977795"><ele>299.3333333333333</ele><time>2026-04-18T14:04:50.999Z</time></trkpt><trkpt lat="43.399201009667884" lon="5.95966431733074"><ele>301.1666666666667</ele><time>2026-04-18T14:04:51.999Z</time></trkpt><trkpt lat="43.399252790675234" lon="5.959600583150684"><ele>303.0</ele><time>2026-04-18T14:04:52.999Z</time></trkpt><trkpt lat="43.399309480094125" lon="5.959499297634839"><ele>303.0</ele><time>2026-04-18T14:05:25Z</time></trkpt><trkpt lat="43.39938155821576" lon="5.959467662511279"><ele>303.0</ele><time>2026-04-18T14:07:42.999Z</time></trkpt><trkpt lat="43.3994243735168" lon="5.959394459373406"><ele>303.0</ele><time>2026-04-18T14:07:49.999Z</time></trkpt><trkpt lat="43.399430008457685" lon="5.959302518730434"><ele>303.0</ele><time>2026-04-18T14:07:58.999Z</time></trkpt><trkpt lat="43.39939169792346" lon="5.959387929603604"><ele>303.0</ele><time>2026-04-18T14:08:39Z</time></trkpt><trkpt lat="43.39934892017737" lon="5.959463009424388"><ele>303.0</ele><time>2026-04-18T14:08:47Z</time></trkpt><trkpt lat="43.39941278743988" lon="5.959395252244955"><ele>303.0</ele><time>2026-04-18T14:14:41Z</time></trkpt><trkpt lat="43.399381467677024" lon="5.95931943809581"><ele>303.0</ele><time>2026-04-18T14:14:43Z</time></trkpt><trkpt lat="43.3993244382806" lon="5.959368783185554"><ele>303.0</ele><time>2026-04-18T14:14:46Z</time></trkpt><trkpt lat="43.3993013510146" lon="5.959449738149526"><ele>303.0</ele><time>2026-04-18T14:14:48Z</time></trkpt><trkpt lat="43.39927394036071" lon="5.959537648999888"><ele>303.0</ele><time>2026-04-18T14:14:50Z</time></trkpt><trkpt lat="43.39922686927631" lon="5.959610774386902"><ele>303.0</ele><time>2026-04-18T14:14:53Z</time></trkpt><trkpt lat="43.3991630634075" lon="5.959582231622145"><ele>303.0</ele><time>2026-04-18T14:14:57Z</time></trkpt><trkpt lat="43.39913699257147" lon="5.95945625723512"><ele>303.0</ele><time>2026-04-18T14:14:59Z</time></trkpt><trkpt lat="43.399081399380385" lon="5.959315013117019"><ele>303.0</ele><time>2026-04-18T14:15:01Z</time></trkpt><trkpt lat="43.3990559896803" lon="5.959214119490694"><ele>303.0</ele><time>2026-04-18T14:15:03Z</time></trkpt><trkpt lat="43.399056328176385" lon="5.959103825026714"><ele>303.0</ele><time>2026-04-18T14:15:05Z</time></trkpt><trkpt lat="43.39903569320104" lon="5.958908788551581"><ele>303.0</ele><time>2026-04-18T14:15:07Z</time></trkpt><trkpt lat="43.399016382838504" lon="5.958818227819052"><ele>303.0</ele><time>2026-04-18T14:15:08Z</time></trkpt><trkpt lat="43.398976691345965" lon="5.958725028583949"><ele>303.0</ele><time>2026-04-18T14:15:09Z</time></trkpt><trkpt lat="43.398924519941325" lon="5.958618390075337"><ele>304.5</ele><time>2026-04-18T14:15:10Z</time></trkpt><trkpt lat="43.3988965823856" lon="5.95852022546646"><ele>306.0</ele><time>2026-04-18T14:15:11Z</time></trkpt><trkpt lat="43.39888669752312" lon="5.958425361672864"><ele>307.5</ele><time>2026-04-18T14:15:12Z</time></trkpt><trkpt lat="43.39887537257157" lon="5.958288483047779"><ele>309.0</ele><time>2026-04-18T14:15:13Z</time></trkpt><trkpt lat="43.39883852525748" lon="5.958155843049006"><ele>310.5</ele><time>2026-04-18T14:15:14Z</time></trkpt><trkpt lat="43.39880845171351" lon="5.958072798450371"><ele>312.0</ele><time>2026-04-18T14:15:15Z</time></trkpt><trkpt lat="43.3987627009203" lon="5.958003885014808"><ele>314.0</ele><time>2026-04-18T14:15:16Z</time></trkpt><trkpt lat="43.39871604869724" lon="5.957919141538361"><ele>316.0</ele><time>2026-04-18T14:15:17Z</time></trkpt><trkpt lat="43.39869836953383" lon="5.957835636608395"><ele>318.0</ele><time>2026-04-18T14:15:18Z</time></trkpt><trkpt lat="43.39867899776246" lon="5.9577329287752745"><ele>320.0</ele><time>2026-04-18T14:15:19Z</time></trkpt><trkpt lat="43.398647535630765" lon="5.9576251705977965"><ele>322.0</ele><time>2026-04-18T14:15:20Z</time></trkpt><trkpt lat="43.39860723534475" lon="5.957536142263285"><ele>324.0</ele><time>2026-04-18T14:15:21Z</time></trkpt><trkpt lat="43.398583044585294" lon="5.957436438223607"><ele>326.4</ele><time>2026-04-18T14:15:22Z</time></trkpt><trkpt lat="43.39856248779091" lon="5.957343290057626"><ele>328.79999999999995</ele><time>2026-04-18T14:15:23Z</time></trkpt><trkpt lat="43.39853630999558" lon="5.957237400583205"><ele>331.20000000000005</ele><time>2026-04-18T14:15:25Z</time></trkpt><trkpt lat="43.398447903430814" lon="5.9571664533297985"><ele>333.6</ele><time>2026-04-18T14:15:27Z</time></trkpt><trkpt lat="43.39842422323436" lon="5.95704660020241"><ele>336.0</ele><time>2026-04-18T14:15:30Z</time></trkpt><trkpt lat="43.3984216199131" lon="5.956898031204685"><ele>336.0</ele><time>2026-04-18T14:15:31Z</time></trkpt><trkpt lat="43.39840965228683" lon="5.956735254880584"><ele>336.0</ele><time>2026-04-18T14:15:32Z</time></trkpt><trkpt lat="43.39838281399445" lon="5.956599532346006"><ele>336.0</ele><time>2026-04-18T14:15:33Z</time></trkpt><trkpt lat="43.39835211506252" lon="5.956410164264239"><ele>336.0</ele><time>2026-04-18T14:15:35Z</time></trkpt><trkpt lat="43.39834765373187" lon="5.956289643082999"><ele>338.6</ele><time>2026-04-18T14:15:36.001Z</time></trkpt><trkpt lat="43.39833383311967" lon="5.956196742787313"><ele>341.20000000000005</ele><time>2026-04-18T14:15:37.001Z</time></trkpt><trkpt lat="43.39829394674377" lon="5.956126297274927"><ele>343.79999999999995</ele><time>2026-04-18T14:15:38.001Z</time></trkpt><trkpt lat="43.39822540548747" lon="5.956078362875188"><ele>346.4</ele><time>2026-04-18T14:15:39.001Z</time></trkpt><trkpt lat="43.398137156264085" lon="5.955999906126981"><ele>349.0</ele><time>2026-04-18T14:15:40.001Z</time></trkpt><trkpt lat="43.398016007424644" lon="5.95589589020449"><ele>350.5</ele><time>2026-04-18T14:15:41.001Z</time></trkpt><trkpt lat="43.39793485272355" lon="5.955819998033468"><ele>352.0</ele><time>2026-04-18T14:15:42.001Z</time></trkpt><trkpt lat="43.397869516325656" lon="5.955741565496471"><ele>353.5</ele><time>2026-04-18T14:15:44.001Z</time></trkpt><trkpt lat="43.39783707518594" lon="5.955629657751516"><ele>355.0</ele><time>2026-04-18T14:15:48.001Z</time></trkpt><trkpt lat="43.39781090301415" lon="5.95554719059639"><ele>356.5</ele><time>2026-04-18T14:15:50.001Z</time></trkpt><trkpt lat="43.39775036977138" lon="5.955518948088785"><ele>358.0</ele><time>2026-04-18T14:15:51.001Z</time></trkpt><trkpt lat="43.39768766205219" lon="5.955459419335442"><ele>358.0</ele><time>2026-04-18T14:15:52.001Z</time></trkpt><trkpt lat="43.397642162832014" lon="5.955358616726196"><ele>358.0</ele><time>2026-04-18T14:15:53.001Z</time></trkpt><trkpt lat="43.397607130820155" lon="5.955276807953435"><ele>358.0</ele><time>2026-04-18T14:15:54.001Z</time></trkpt><trkpt lat="43.39752500424226" lon="5.955216501462618"><ele>358.0</ele><time>2026-04-18T14:15:55Z</time></trkpt><trkpt lat="43.39747435165353" lon="5.955142132633933"><ele>358.0</ele><time>2026-04-18T14:15:56Z</time></trkpt><trkpt lat="43.39741036460672" lon="5.954993005318489"><ele>358.0</ele><time>2026-04-18T14:15:57Z</time></trkpt><trkpt lat="43.397330330351934" lon="5.9548005758209275"><ele>357.59999999999997</ele><time>2026-04-18T14:15:58Z</time></trkpt><trkpt lat="43.397286191429195" lon="5.954683992102842"><ele>357.2</ele><time>2026-04-18T14:15:59Z</time></trkpt><trkpt lat="43.397263081608884" lon="5.954565153280222"><ele>356.8</ele><time>2026-04-18T14:16:01Z</time></trkpt><trkpt lat="43.3972481964633" lon="5.95447682709423"><ele>356.4</ele><time>2026-04-18T14:16:02Z</time></trkpt><trkpt lat="43.39725713251046" lon="5.954332734794016"><ele>356.0</ele><time>2026-04-18T14:16:04Z</time></trkpt><trkpt lat="43.397155597731356" lon="5.954106619589786"><ele>358.6</ele><time>2026-04-18T14:16:05Z</time></trkpt><trkpt lat="43.39711168097167" lon="5.953979414628026"><ele>361.20000000000005</ele><time>2026-04-18T14:16:08Z</time></trkpt><trkpt lat="43.397093103899465" lon="5.953847537371083"><ele>363.79999999999995</ele><time>2026-04-18T14:16:09Z</time></trkpt><trkpt lat="43.39709662231509" lon="5.953711153901161"><ele>366.4</ele><time>2026-04-18T14:16:10Z</time></trkpt><trkpt lat="43.397074663141666" lon="5.953565149764013"><ele>369.0</ele><time>2026-04-18T14:16:11Z</time></trkpt><trkpt lat="43.397048795831296" lon="5.953418512031427"><ele>369.0</ele><time>2026-04-18T14:16:12Z</time></trkpt><trkpt lat="43.39704247122942" lon="5.953326288735614"><ele>369.0</ele><time>2026-04-18T14:16:13Z</time></trkpt><trkpt lat="43.39703524876878" lon="5.953143723849583"><ele>369.0</ele><time>2026-04-18T14:16:15Z</time></trkpt><trkpt lat="43.396985588457085" lon="5.953071144367752"><ele>369.0</ele><time>2026-04-18T14:16:16Z</time></trkpt><trkpt lat="43.396911855451776" lon="5.952930179610937"><ele>369.0</ele><time>2026-04-18T14:16:18Z</time></trkpt><trkpt lat="43.396916622213766" lon="5.952804711995789"><ele>369.0</ele><time>2026-04-18T14:16:19Z</time></trkpt><trkpt lat="43.39689000768149" lon="5.952694084153803"><ele>369.0</ele><time>2026-04-18T14:16:20Z</time></trkpt><trkpt lat="43.39678853158508" lon="5.952570959285213"><ele>369.0</ele><time>2026-04-18T14:16:22Z</time></trkpt><trkpt lat="43.396739276310136" lon="5.952472550500851"><ele>369.0</ele><time>2026-04-18T14:16:23Z</time></trkpt><trkpt lat="43.39672383773189" lon="5.952330525703836"><ele>369.0</ele><time>2026-04-18T14:16:25Z</time></trkpt><trkpt lat="43.39664187215379" lon="5.95219230311249"><ele>368.6666666666667</ele><time>2026-04-18T14:16:27Z</time></trkpt><trkpt lat="43.396617121435575" lon="5.952091514131315"><ele>368.3333333333333</ele><time>2026-04-18T14:16:28Z</time></trkpt><trkpt lat="43.396533253107435" lon="5.951957034886012"><ele>368.0</ele><time>2026-04-18T14:16:30Z</time></trkpt><trkpt lat="43.39648068347707" lon="5.951870116322676"><ele>367.66666666666663</ele><time>2026-04-18T14:16:31Z</time></trkpt><trkpt lat="43.39643727133698" lon="5.95180474901524"><ele>367.3333333333333</ele><time>2026-04-18T14:16:32Z</time></trkpt><trkpt lat="43.39647051981729" lon="5.951706165406981"><ele>367.0</ele><time>2026-04-18T14:16:34Z</time></trkpt><trkpt lat="43.396496088827945" lon="5.951603021013927"><ele>366.8</ele><time>2026-04-18T14:16:35Z</time></trkpt><trkpt lat="43.39648300459238" lon="5.951458710034098"><ele>366.6</ele><time>2026-04-18T14:16:37Z</time></trkpt><trkpt lat="43.3964824488747" lon="5.951368312064419"><ele>366.40000000000003</ele><time>2026-04-18T14:16:40Z</time></trkpt><trkpt lat="43.396455502401274" lon="5.951278577375815"><ele>366.20000000000005</ele><time>2026-04-18T14:16:41Z</time></trkpt><trkpt lat="43.39639148233629" lon="5.951185803061378"><ele>366.0</ele><time>2026-04-18T14:16:43Z</time></trkpt><trkpt lat="43.39637065430989" lon="5.950995645734646"><ele>366.4</ele><time>2026-04-18T14:16:45Z</time></trkpt><trkpt lat="43.39632742723648" lon="5.950890473162576"><ele>366.8</ele><time>2026-04-18T14:16:47Z</time></trkpt><trkpt lat="43.3961915615554" lon="5.950945403193285"><ele>367.2</ele><time>2026-04-18T14:16:49Z</time></trkpt><trkpt lat="43.39611127268688" lon="5.950947685318475"><ele>367.59999999999997</ele><time>2026-04-18T14:16:50Z</time></trkpt><trkpt lat="43.39602901890821" lon="5.950899510938007"><ele>368.0</ele><time>2026-04-18T14:16:52Z</time></trkpt><trkpt lat="43.395981229119904" lon="5.950750750185438"><ele>368.1666666666667</ele><time>2026-04-18T14:16:54Z</time></trkpt><trkpt lat="43.39590650204048" lon="5.950718470047383"><ele>368.33333333333337</ele><time>2026-04-18T14:16:59Z</time></trkpt><trkpt lat="43.395811668800654" lon="5.950739516213889"><ele>368.5</ele><time>2026-04-18T14:17:01Z</time></trkpt><trkpt lat="43.39574811175438" lon="5.950760886985837"><ele>368.6666666666667</ele><time>2026-04-18T14:17:02Z</time></trkpt><trkpt lat="43.39570623620433" lon="5.950825785154365"><ele>368.8333333333333</ele><time>2026-04-18T14:17:03Z</time></trkpt><trkpt lat="43.39562611025547" lon="5.950843095605113"><ele>369.0</ele><time>2026-04-18T14:17:05Z</time></trkpt><trkpt lat="43.39555471097294" lon="5.950802147288834"><ele>368.79999999999995</ele><time>2026-04-18T14:17:06Z</time></trkpt><trkpt lat="43.395464710482145" lon="5.950726596132926"><ele>368.59999999999997</ele><time>2026-04-18T14:17:07Z</time></trkpt><trkpt lat="43.39539674347687" lon="5.950656754494705"><ele>368.4</ele><time>2026-04-18T14:17:09Z</time></trkpt><trkpt lat="43.3953266638708" lon="5.950632969150961"><ele>368.2</ele><time>2026-04-18T14:17:11Z</time></trkpt><trkpt lat="43.3952572437056" lon="5.950444143492297"><ele>368.0</ele><time>2026-04-18T14:17:14Z</time></trkpt><trkpt lat="43.39527244005956" lon="5.950288913596447"><ele>368.0</ele><time>2026-04-18T14:17:16Z</time></trkpt><trkpt lat="43.39519102848853" lon="5.950250275216109"><ele>368.0</ele><time>2026-04-18T14:17:19Z</time></trkpt><trkpt lat="43.39512510997386" lon="5.950236625226155"><ele>368.0</ele><time>2026-04-18T14:17:21Z</time></trkpt><trkpt lat="43.39507723244877" lon="5.950159460866982"><ele>368.0</ele><time>2026-04-18T14:17:24Z</time></trkpt><trkpt lat="43.395049892822584" lon="5.950068307008915"><ele>368.0</ele><time>2026-04-18T14:17:26Z</time></trkpt><trkpt lat="43.394975932646446" lon="5.950032605226319"><ele>368.0</ele><time>2026-04-18T14:17:28Z</time></trkpt><trkpt lat="43.39489700956655" lon="5.949909347799278"><ele>368.1666666666667</ele><time>2026-04-18T14:17:31Z</time></trkpt><trkpt lat="43.39484296850188" lon="5.94982496460424"><ele>368.33333333333337</ele><time>2026-04-18T14:17:32Z</time></trkpt><trkpt lat="43.39483190479371" lon="5.949672666805049"><ele>368.5</ele><time>2026-04-18T14:17:35Z</time></trkpt><trkpt lat="43.3948697181666" lon="5.9495926832182215"><ele>368.6666666666667</ele><time>2026-04-18T14:17:37Z</time></trkpt><trkpt lat="43.39482348079179" lon="5.94951434974898"><ele>368.8333333333333</ele><time>2026-04-18T14:17:38Z</time></trkpt><trkpt lat="43.39480857351108" lon="5.949408557896622"><ele>369.0</ele><time>2026-04-18T14:17:40Z</time></trkpt><trkpt lat="43.39472312764599" lon="5.949288067001616"><ele>369.0</ele><time>2026-04-18T14:17:42.001Z</time></trkpt><trkpt lat="43.39468183213912" lon="5.949213829970409"><ele>369.0</ele><time>2026-04-18T14:17:43.001Z</time></trkpt><trkpt lat="43.39459235122273" lon="5.949136974284398"><ele>369.0</ele><time>2026-04-18T14:17:45.001Z</time></trkpt><trkpt lat="43.394550574799005" lon="5.949005834334639"><ele>369.0</ele><time>2026-04-18T14:17:47.001Z</time></trkpt><trkpt lat="43.394499911121144" lon="5.9489381618172565"><ele>369.0</ele><time>2026-04-18T14:17:48.001Z</time></trkpt><trkpt lat="43.394443071620614" lon="5.948853577028261"><ele>369.0</ele><time>2026-04-18T14:17:50.001Z</time></trkpt><trkpt lat="43.394410769374325" lon="5.948771559453177"><ele>369.6666666666667</ele><time>2026-04-18T14:17:52.001Z</time></trkpt><trkpt lat="43.39433908349578" lon="5.948726067483773"><ele>370.3333333333333</ele><time>2026-04-18T14:17:53Z</time></trkpt><trkpt lat="43.39428284194163" lon="5.948626357028472"><ele>371.0</ele><time>2026-04-18T14:17:54Z</time></trkpt><trkpt lat="43.39419757041537" lon="5.94850327468115"><ele>371.66666666666663</ele><time>2026-04-18T14:17:55Z</time></trkpt><trkpt lat="43.394160299956695" lon="5.948418986587597"><ele>372.3333333333333</ele><time>2026-04-18T14:17:56Z</time></trkpt><trkpt lat="43.39413125402094" lon="5.948316567562056"><ele>373.0</ele><time>2026-04-18T14:17:58Z</time></trkpt><trkpt lat="43.394064075532754" lon="5.9482182277713305"><ele>373.0</ele><time>2026-04-18T14:18:00Z</time></trkpt><trkpt lat="43.394046574453995" lon="5.948121942163841"><ele>373.0</ele><time>2026-04-18T14:18:02Z</time></trkpt><trkpt lat="43.394035337273195" lon="5.947995134063352"><ele>373.0</ele><time>2026-04-18T14:18:04Z</time></trkpt><trkpt lat="43.39402273585051" lon="5.947858154479889"><ele>373.0</ele><time>2026-04-18T14:18:05Z</time></trkpt><trkpt lat="43.39410806966745" lon="5.9477724603339395"><ele>373.0</ele><time>2026-04-18T14:18:08Z</time></trkpt><trkpt lat="43.394222490416645" lon="5.9476823185683685"><ele>373.0</ele><time>2026-04-18T14:18:10Z</time></trkpt><trkpt lat="43.39427064535278" lon="5.94761499161889"><ele>373.0</ele><time>2026-04-18T14:18:12Z</time></trkpt><trkpt lat="43.39429986545415" lon="5.947520459669074"><ele>373.0</ele><time>2026-04-18T14:18:13Z</time></trkpt><trkpt lat="43.394389856168125" lon="5.947427910081704"><ele>373.0</ele><time>2026-04-18T14:18:15Z</time></trkpt><trkpt lat="43.39447812353665" lon="5.947366961359534"><ele>373.0</ele><time>2026-04-18T14:18:17Z</time></trkpt><trkpt lat="43.39452722522524" lon="5.94724650585557"><ele>373.3333333333333</ele><time>2026-04-18T14:18:19Z</time></trkpt><trkpt lat="43.3945625217191" lon="5.947174555357768"><ele>373.66666666666663</ele><time>2026-04-18T14:18:20Z</time></trkpt><trkpt lat="43.39459995825385" lon="5.947087036587061"><ele>374.0</ele><time>2026-04-18T14:18:22Z</time></trkpt><trkpt lat="43.39454640013662" lon="5.946879339084083"><ele>374.3333333333333</ele><time>2026-04-18T14:18:36Z</time></trkpt><trkpt lat="43.39451616659311" lon="5.946794539274254"><ele>374.6666666666667</ele><time>2026-04-18T14:18:37Z</time></trkpt><trkpt lat="43.394478312979516" lon="5.946700208065973"><ele>375.0</ele><time>2026-04-18T14:18:38Z</time></trkpt><trkpt lat="43.39443593715155" lon="5.946524352382992"><ele>375.6666666666667</ele><time>2026-04-18T14:18:39Z</time></trkpt><trkpt lat="43.394405087074006" lon="5.946416008016495"><ele>376.3333333333333</ele><time>2026-04-18T14:18:40Z</time></trkpt><trkpt lat="43.39440445772817" lon="5.946324867081909"><ele>377.0</ele><time>2026-04-18T14:18:41Z</time></trkpt><trkpt lat="43.394446490637606" lon="5.946238487678374"><ele>377.66666666666663</ele><time>2026-04-18T14:18:43Z</time></trkpt><trkpt lat="43.39446308966671" lon="5.946111335424032"><ele>378.3333333333333</ele><time>2026-04-18T14:18:45Z</time></trkpt><trkpt lat="43.39440858573571" lon="5.94595297428803"><ele>379.0</ele><time>2026-04-18T14:18:47Z</time></trkpt><trkpt lat="43.394300304037" lon="5.945806436408083"><ele>379.4</ele><time>2026-04-18T14:18:48Z</time></trkpt><trkpt lat="43.39420088555686" lon="5.945690254233877"><ele>379.79999999999995</ele><time>2026-04-18T14:18:49Z</time></trkpt><trkpt lat="43.39412357094211" lon="5.9455941658787745"><ele>380.20000000000005</ele><time>2026-04-18T14:18:50Z</time></trkpt><trkpt lat="43.39405616896291" lon="5.945502592128554"><ele>380.6</ele><time>2026-04-18T14:18:51Z</time></trkpt><trkpt lat="43.39401603694175" lon="5.945424617956302"><ele>381.0</ele><time>2026-04-18T14:18:52Z</time></trkpt><trkpt lat="43.39401857631567" lon="5.94528002615018"><ele>381.0</ele><time>2026-04-18T14:18:54Z</time></trkpt><trkpt lat="43.39407807477267" lon="5.945137189771628"><ele>381.0</ele><time>2026-04-18T14:18:56Z</time></trkpt><trkpt lat="43.394124324026095" lon="5.945007434756208"><ele>381.0</ele><time>2026-04-18T14:18:57Z</time></trkpt><trkpt lat="43.394163352900726" lon="5.944886852591309"><ele>381.0</ele><time>2026-04-18T14:18:58Z</time></trkpt><trkpt lat="43.394199969580306" lon="5.944790113996453"><ele>381.0</ele><time>2026-04-18T14:19:00Z</time></trkpt><trkpt lat="43.39415499448348" lon="5.944670245393712"><ele>381.0</ele><time>2026-04-18T14:19:02Z</time></trkpt><trkpt lat="43.39408177991387" lon="5.944564701419199"><ele>381.0</ele><time>2026-04-18T14:19:03Z</time></trkpt><trkpt lat="43.393946424149746" lon="5.944416021513523"><ele>381.0</ele><time>2026-04-18T14:19:04Z</time></trkpt><trkpt lat="43.39385561848939" lon="5.944301358531939"><ele>381.0</ele><time>2026-04-18T14:19:05Z</time></trkpt><trkpt lat="43.39379708623532" lon="5.944186809372317"><ele>381.5</ele><time>2026-04-18T14:19:06Z</time></trkpt><trkpt lat="43.393727877815486" lon="5.944009657546858"><ele>382.0</ele><time>2026-04-18T14:19:07Z</time></trkpt><trkpt lat="43.39364794385134" lon="5.943849022457211"><ele>382.5</ele><time>2026-04-18T14:19:08Z</time></trkpt><trkpt lat="43.39357687861882" lon="5.943718754135012"><ele>383.0</ele><time>2026-04-18T14:19:09Z</time></trkpt><trkpt lat="43.39352855605042" lon="5.943588746351256"><ele>383.0</ele><time>2026-04-18T14:19:10Z</time></trkpt><trkpt lat="43.393489733493055" lon="5.943442972892627"><ele>383.0</ele><time>2026-04-18T14:19:11Z</time></trkpt><trkpt lat="43.39343128274416" lon="5.943311748245392"><ele>383.0</ele><time>2026-04-18T14:19:12Z</time></trkpt><trkpt lat="43.39336540813721" lon="5.943188866799502"><ele>383.0</ele><time>2026-04-18T14:19:13Z</time></trkpt><trkpt lat="43.393298519236" lon="5.943096603152931"><ele>383.0</ele><time>2026-04-18T14:19:14Z</time></trkpt><trkpt lat="43.39323070510663" lon="5.943036236336397"><ele>382.83333333333337</ele><time>2026-04-18T14:19:15Z</time></trkpt><trkpt lat="43.393153425312754" lon="5.94299401817027"><ele>382.6666666666667</ele><time>2026-04-18T14:19:16Z</time></trkpt><trkpt lat="43.393074120843" lon="5.9429671524305"><ele>382.5</ele><time>2026-04-18T14:19:17Z</time></trkpt><trkpt lat="43.39299817756879" lon="5.942959489262445"><ele>382.3333333333333</ele><time>2026-04-18T14:19:18Z</time></trkpt><trkpt lat="43.39293081788244" lon="5.942960634464367"><ele>382.16666666666663</ele><time>2026-04-18T14:19:19Z</time></trkpt><trkpt lat="43.39287081680444" lon="5.942921129962982"><ele>382.0</ele><time>2026-04-18T14:19:20Z</time></trkpt><trkpt lat="43.39279326806547" lon="5.942833760910738"><ele>382.75</ele><time>2026-04-18T14:19:21Z</time></trkpt><trkpt lat="43.3926931803896" lon="5.942713102972973"><ele>383.5</ele><time>2026-04-18T14:19:22Z</time></trkpt><trkpt lat="43.392580954706375" lon="5.942558179770265"><ele>384.25</ele><time>2026-04-18T14:19:23Z</time></trkpt><trkpt lat="43.39249903344172" lon="5.942431865701008"><ele>385.0</ele><time>2026-04-18T14:19:24Z</time></trkpt><trkpt lat="43.39241394732341" lon="5.942341696796948"><ele>385.0</ele><time>2026-04-18T14:19:25Z</time></trkpt><trkpt lat="43.3923509825852" lon="5.942279903721878"><ele>385.0</ele><time>2026-04-18T14:19:26Z</time></trkpt><trkpt lat="43.392282126039724" lon="5.942196139455969"><ele>385.0</ele><time>2026-04-18T14:19:27Z</time></trkpt><trkpt lat="43.39221833381736" lon="5.942101574906901"><ele>385.0</ele><time>2026-04-18T14:19:28Z</time></trkpt><trkpt lat="43.39217489325754" lon="5.941982685366722"><ele>385.0</ele><time>2026-04-18T14:19:29Z</time></trkpt><trkpt lat="43.3921311140283" lon="5.9418308799498565"><ele>384.4</ele><time>2026-04-18T14:19:30Z</time></trkpt><trkpt lat="43.39208633508024" lon="5.941702543559241"><ele>383.8</ele><time>2026-04-18T14:19:31Z</time></trkpt><trkpt lat="43.39202988669634" lon="5.941604314014537"><ele>383.20000000000005</ele><time>2026-04-18T14:19:32Z</time></trkpt><trkpt lat="43.391965949371226" lon="5.941523729423095"><ele>382.6</ele><time>2026-04-18T14:19:33Z</time></trkpt><trkpt lat="43.39189511068896" lon="5.941444152979421"><ele>382.0</ele><time>2026-04-18T14:19:34Z</time></trkpt><trkpt lat="43.39182814713022" lon="5.941354039677336"><ele>382.0</ele><time>2026-04-18T14:19:35Z</time></trkpt><trkpt lat="43.39175885999671" lon="5.941236266076825"><ele>382.0</ele><time>2026-04-18T14:19:36Z</time></trkpt><trkpt lat="43.391694788146914" lon="5.941110247024407"><ele>382.0</ele><time>2026-04-18T14:19:37Z</time></trkpt><trkpt lat="43.39163932668074" lon="5.94099803015989"><ele>382.0</ele><time>2026-04-18T14:19:38Z</time></trkpt><trkpt lat="43.39160522352403" lon="5.940884405598447"><ele>382.0</ele><time>2026-04-18T14:19:39Z</time></trkpt><trkpt lat="43.39158679216732" lon="5.9407392810820605"><ele>381.6</ele><time>2026-04-18T14:19:40Z</time></trkpt><trkpt lat="43.391567660846775" lon="5.940598423914326"><ele>381.20000000000005</ele><time>2026-04-18T14:19:41Z</time></trkpt><trkpt lat="43.39152611371295" lon="5.9404793841567916"><ele>380.8</ele><time>2026-04-18T14:19:42Z</time></trkpt><trkpt lat="43.39146482206626" lon="5.940335111815634"><ele>380.4</ele><time>2026-04-18T14:19:43Z</time></trkpt><trkpt lat="43.3914029776018" lon="5.940181402663676"><ele>380.0</ele><time>2026-04-18T14:19:44Z</time></trkpt><trkpt lat="43.391346245595905" lon="5.940058840463535"><ele>377.4</ele><time>2026-04-18T14:19:45Z</time></trkpt><trkpt lat="43.39129168955222" lon="5.939957043817013"><ele>374.8</ele><time>2026-04-18T14:19:46Z</time></trkpt><trkpt lat="43.39125085720277" lon="5.939843932868754"><ele>372.20000000000005</ele><time>2026-04-18T14:19:47Z</time></trkpt><trkpt lat="43.39121665823555" lon="5.939713712933353"><ele>369.6</ele><time>2026-04-18T14:19:48Z</time></trkpt><trkpt lat="43.39117036515671" lon="5.939560714036951"><ele>367.0</ele><time>2026-04-18T14:19:49Z</time></trkpt><trkpt lat="43.391130394550736" lon="5.939410589064028"><ele>367.0</ele><time>2026-04-18T14:19:50Z</time></trkpt><trkpt lat="43.391100941594104" lon="5.939273811687654"><ele>367.0</ele><time>2026-04-18T14:19:51Z</time></trkpt><trkpt lat="43.39106629727507" lon="5.939183987283784"><ele>367.0</ele><time>2026-04-18T14:19:52Z</time></trkpt><trkpt lat="43.390962229396" lon="5.939122516371799"><ele>367.0</ele><time>2026-04-18T14:19:54Z</time></trkpt><trkpt lat="43.39089019812672" lon="5.939082514990659"><ele>367.0</ele><time>2026-04-18T14:19:55Z</time></trkpt><trkpt lat="43.39081676723581" lon="5.938988420788747"><ele>367.0</ele><time>2026-04-18T14:19:56Z</time></trkpt><trkpt lat="43.39072564412146" lon="5.938863164784174"><ele>367.0</ele><time>2026-04-18T14:19:57Z</time></trkpt><trkpt lat="43.39063242010722" lon="5.938779394175169"><ele>367.0</ele><time>2026-04-18T14:19:58Z</time></trkpt><trkpt lat="43.3905423755363" lon="5.938722656956908"><ele>367.0</ele><time>2026-04-18T14:19:59Z</time></trkpt><trkpt lat="43.39046984378493" lon="5.938654809694896"><ele>367.0</ele><time>2026-04-18T14:20:00Z</time></trkpt><trkpt lat="43.39041156979737" lon="5.9385537129849"><ele>366.0</ele><time>2026-04-18T14:20:01Z</time></trkpt><trkpt lat="43.39035134038316" lon="5.9384154223739385"><ele>365.0</ele><time>2026-04-18T14:20:02Z</time></trkpt><trkpt lat="43.390309173499865" lon="5.938291325017885"><ele>364.0</ele><time>2026-04-18T14:20:03Z</time></trkpt><trkpt lat="43.39029267283536" lon="5.938182031239207"><ele>363.0</ele><time>2026-04-18T14:20:04Z</time></trkpt><trkpt lat="43.390301929810796" lon="5.938072538164925"><ele>362.0</ele><time>2026-04-18T14:20:05Z</time></trkpt><trkpt lat="43.390321162844465" lon="5.937908404421875"><ele>362.0</ele><time>2026-04-18T14:20:06Z</time></trkpt><trkpt lat="43.390339549482974" lon="5.937738839268577"><ele>362.0</ele><time>2026-04-18T14:20:07Z</time></trkpt><trkpt lat="43.39035184476762" lon="5.9376203867525925"><ele>362.0</ele><time>2026-04-18T14:20:08Z</time></trkpt><trkpt lat="43.390347404021064" lon="5.937513918562531"><ele>362.0</ele><time>2026-04-18T14:20:09Z</time></trkpt><trkpt lat="43.390320015483546" lon="5.937407140809943"><ele>362.0</ele><time>2026-04-18T14:20:10Z</time></trkpt><trkpt lat="43.390280368216075" lon="5.937306106963028"><ele>361.6</ele><time>2026-04-18T14:20:11Z</time></trkpt><trkpt lat="43.39022115244927" lon="5.937220594088703"><ele>361.20000000000005</ele><time>2026-04-18T14:20:12Z</time></trkpt><trkpt lat="43.39014191788239" lon="5.937133912280063"><ele>360.8</ele><time>2026-04-18T14:20:13Z</time></trkpt><trkpt lat="43.390053817826725" lon="5.937037957055304"><ele>360.4</ele><time>2026-04-18T14:20:14Z</time></trkpt><trkpt lat="43.38997797276683" lon="5.936957947001914"><ele>360.0</ele><time>2026-04-18T14:20:15Z</time></trkpt><trkpt lat="43.38990809290599" lon="5.936901105226283"><ele>360.0</ele><time>2026-04-18T14:20:16Z</time></trkpt><trkpt lat="43.38983301653293" lon="5.936860035227096"><ele>360.0</ele><time>2026-04-18T14:20:17Z</time></trkpt><trkpt lat="43.38974872834679" lon="5.936833080546623"><ele>360.0</ele><time>2026-04-18T14:20:18Z</time></trkpt><trkpt lat="43.38965895147508" lon="5.93681825766596"><ele>360.0</ele><time>2026-04-18T14:20:19Z</time></trkpt><trkpt lat="43.38955949870042" lon="5.9368175102138325"><ele>360.0</ele><time>2026-04-18T14:20:20Z</time></trkpt><trkpt lat="43.389432488969035" lon="5.936820029023032"><ele>360.0</ele><time>2026-04-18T14:20:21Z</time></trkpt><trkpt lat="43.389322160607485" lon="5.9368147278971"><ele>360.0</ele><time>2026-04-18T14:20:22Z</time></trkpt><trkpt lat="43.389225716970905" lon="5.93680381608863"><ele>360.0</ele><time>2026-04-18T14:20:23Z</time></trkpt><trkpt lat="43.38913232040156" lon="5.93678344034053"><ele>360.0</ele><time>2026-04-18T14:20:24Z</time></trkpt><trkpt lat="43.38904328230706" lon="5.936766961911042"><ele>360.0</ele><time>2026-04-18T14:20:25Z</time></trkpt><trkpt lat="43.388954694061304" lon="5.936761291536319"><ele>360.0</ele><time>2026-04-18T14:20:26Z</time></trkpt><trkpt lat="43.388871458904354" lon="5.936736164660939"><ele>360.0</ele><time>2026-04-18T14:20:27Z</time></trkpt><trkpt lat="43.388793281984405" lon="5.936692984858846"><ele>360.0</ele><time>2026-04-18T14:20:28Z</time></trkpt><trkpt lat="43.38869767056872" lon="5.936620104242101"><ele>360.0</ele><time>2026-04-18T14:20:29Z</time></trkpt><trkpt lat="43.388596602109736" lon="5.936535965705222"><ele>360.0</ele><time>2026-04-18T14:20:30Z</time></trkpt><trkpt lat="43.388509194379914" lon="5.936461766102118"><ele>359.0</ele><time>2026-04-18T14:20:31Z</time></trkpt><trkpt lat="43.38842527732725" lon="5.93640452471014"><ele>358.0</ele><time>2026-04-18T14:20:32Z</time></trkpt><trkpt lat="43.38834204230406" lon="5.9363596345585306"><ele>357.0</ele><time>2026-04-18T14:20:33Z</time></trkpt><trkpt lat="43.388257239568595" lon="5.936322476847615"><ele>356.0</ele><time>2026-04-18T14:20:34Z</time></trkpt><trkpt lat="43.388146151368446" lon="5.936289291694179"><ele>355.0</ele><time>2026-04-18T14:20:35Z</time></trkpt><trkpt lat="43.38802378272535" lon="5.936255118340327"><ele>353.8</ele><time>2026-04-18T14:20:36Z</time></trkpt><trkpt lat="43.38792022184051" lon="5.936225926900633"><ele>352.6</ele><time>2026-04-18T14:20:37Z</time></trkpt><trkpt lat="43.38783961292143" lon="5.936198162732043"><ele>351.4</ele><time>2026-04-18T14:20:38Z</time></trkpt><trkpt lat="43.38777255416174" lon="5.936149876682619"><ele>350.2</ele><time>2026-04-18T14:20:39Z</time></trkpt><trkpt lat="43.38769710783982" lon="5.936070544386821"><ele>349.0</ele><time>2026-04-18T14:20:40Z</time></trkpt><trkpt lat="43.38761190877865" lon="5.93600009977322"><ele>349.0</ele><time>2026-04-18T14:20:41Z</time></trkpt><trkpt lat="43.38749758894785" lon="5.935921929383768"><ele>349.0</ele><time>2026-04-18T14:20:42Z</time></trkpt><trkpt lat="43.387401433600736" lon="5.935846887954233"><ele>349.0</ele><time>2026-04-18T14:20:43Z</time></trkpt><trkpt lat="43.3873353377342" lon="5.935792322136694"><ele>349.0</ele><time>2026-04-18T14:20:44Z</time></trkpt><trkpt lat="43.38726068489893" lon="5.935771374720242"><ele>349.0</ele><time>2026-04-18T14:20:46Z</time></trkpt><trkpt lat="43.38717394166818" lon="5.935866241821425"><ele>347.79999999999995</ele><time>2026-04-18T14:20:48Z</time></trkpt><trkpt lat="43.38709295434437" lon="5.935950932483605"><ele>346.59999999999997</ele><time>2026-04-18T14:20:49Z</time></trkpt><trkpt lat="43.38697819461709" lon="5.9360425188707024"><ele>345.4</ele><time>2026-04-18T14:20:50Z</time></trkpt><trkpt lat="43.38688521192986" lon="5.936099623400091"><ele>344.2</ele><time>2026-04-18T14:20:51Z</time></trkpt><trkpt lat="43.38681698102832" lon="5.936115171973781"><ele>343.0</ele><time>2026-04-18T14:20:52Z</time></trkpt><trkpt lat="43.38674691309151" lon="5.936088739593602"><ele>343.0</ele><time>2026-04-18T14:20:53Z</time></trkpt><trkpt lat="43.38668720137187" lon="5.936040245467438"><ele>343.0</ele><time>2026-04-18T14:20:54Z</time></trkpt><trkpt lat="43.38663457684789" lon="5.935984781162183"><ele>343.0</ele><time>2026-04-18T14:20:55Z</time></trkpt><trkpt lat="43.386588771865384" lon="5.93592363436711"><ele>343.0</ele><time>2026-04-18T14:20:56Z</time></trkpt><trkpt lat="43.386527366256985" lon="5.935787626437116"><ele>343.0</ele><time>2026-04-18T14:20:58Z</time></trkpt><trkpt lat="43.38646764830386" lon="5.93566714483953"><ele>343.0</ele><time>2026-04-18T14:21:00Z</time></trkpt><trkpt lat="43.38640817256242" lon="5.9355871772097455"><ele>343.0</ele><time>2026-04-18T14:21:02Z</time></trkpt><trkpt lat="43.38636263997219" lon="5.9354635064473635"><ele>343.0</ele><time>2026-04-18T14:22:31Z</time></trkpt><trkpt lat="43.38632408736517" lon="5.93532792010226"><ele>343.0</ele><time>2026-04-18T14:22:33Z</time></trkpt><trkpt lat="43.386345325465335" lon="5.935220299806664"><ele>343.0</ele><time>2026-04-18T14:22:35Z</time></trkpt><trkpt lat="43.38640628360316" lon="5.935103486396787"><ele>343.0</ele><time>2026-04-18T14:22:37Z</time></trkpt><trkpt lat="43.386451738126084" lon="5.934980040900164"><ele>342.66666666666663</ele><time>2026-04-18T14:22:39Z</time></trkpt><trkpt lat="43.38650128651832" lon="5.934911388925584"><ele>342.3333333333333</ele><time>2026-04-18T14:22:40Z</time></trkpt><trkpt lat="43.38658181951068" lon="5.934802147032515"><ele>342.0</ele><time>2026-04-18T14:22:42Z</time></trkpt><trkpt lat="43.38663411231745" lon="5.934678381298311"><ele>341.6666666666667</ele><time>2026-04-18T14:22:46Z</time></trkpt><trkpt lat="43.386691416673045" lon="5.934584627923102"><ele>341.33333333333337</ele><time>2026-04-18T14:22:48Z</time></trkpt><trkpt lat="43.38673354313318" lon="5.934519261917308"><ele>341.0</ele><time>2026-04-18T14:22:51Z</time></trkpt><trkpt lat="43.386792641635125" lon="5.934485550589132"><ele>341.0</ele><time>2026-04-18T14:22:52Z</time></trkpt><trkpt lat="43.38687322448456" lon="5.934402915942582"><ele>341.0</ele><time>2026-04-18T14:22:54Z</time></trkpt><trkpt lat="43.38689565780548" lon="5.93429330232447"><ele>341.0</ele><time>2026-04-18T14:22:56Z</time></trkpt><trkpt lat="43.38691096606454" lon="5.934141340859344"><ele>341.0</ele><time>2026-04-18T14:22:58Z</time></trkpt><trkpt lat="43.38692988642451" lon="5.934045879197786"><ele>341.0</ele><time>2026-04-18T14:23:00Z</time></trkpt><trkpt lat="43.38694124379343" lon="5.933949955928211"><ele>341.0</ele><time>2026-04-18T14:23:02Z</time></trkpt><trkpt lat="43.38703596547732" lon="5.933878496390078"><ele>340.5</ele><time>2026-04-18T14:23:07Z</time></trkpt><trkpt lat="43.38707091401103" lon="5.933748032561101"><ele>340.0</ele><time>2026-04-18T14:23:09Z</time></trkpt><trkpt lat="43.387104511494854" lon="5.933654317790338"><ele>339.5</ele><time>2026-04-18T14:23:11Z</time></trkpt><trkpt lat="43.38714337755587" lon="5.933562275435487"><ele>339.0</ele><time>2026-04-18T14:23:13Z</time></trkpt><trkpt lat="43.38717204346915" lon="5.9334781389670646"><ele>338.5</ele><time>2026-04-18T14:23:15Z</time></trkpt><trkpt lat="43.38718614248997" lon="5.933364697946254"><ele>338.0</ele><time>2026-04-18T14:23:18Z</time></trkpt><trkpt lat="43.3871717277777" lon="5.9332599815056595"><ele>338.0</ele><time>2026-04-18T14:23:21Z</time></trkpt><trkpt lat="43.38716844269239" lon="5.933143259827693"><ele>338.0</ele><time>2026-04-18T14:23:24Z</time></trkpt><trkpt lat="43.38717746659264" lon="5.933032382121598"><ele>338.0</ele><time>2026-04-18T14:23:28Z</time></trkpt><trkpt lat="43.38719034280854" lon="5.932921375896745"><ele>338.0</ele><time>2026-04-18T14:23:30Z</time></trkpt><trkpt lat="43.38719216822944" lon="5.9328331546825055"><ele>338.0</ele><time>2026-04-18T14:23:32Z</time></trkpt><trkpt lat="43.38719074641995" lon="5.932706187927721"><ele>338.0</ele><time>2026-04-18T14:23:35Z</time></trkpt><trkpt lat="43.38719109519842" lon="5.932591710541416"><ele>336.1666666666667</ele><time>2026-04-18T14:23:39Z</time></trkpt><trkpt lat="43.38721524848869" lon="5.932476489978952"><ele>334.33333333333337</ele><time>2026-04-18T14:23:41Z</time></trkpt><trkpt lat="43.38723656830152" lon="5.932374032173965"><ele>332.5</ele><time>2026-04-18T14:23:43Z</time></trkpt><trkpt lat="43.38726119520086" lon="5.932278030011193"><ele>330.6666666666667</ele><time>2026-04-18T14:23:45Z</time></trkpt><trkpt lat="43.38726801483131" lon="5.932178219668574"><ele>328.8333333333333</ele><time>2026-04-18T14:23:47Z</time></trkpt><trkpt lat="43.38728590540203" lon="5.932073584367037"><ele>327.0</ele><time>2026-04-18T14:23:49Z</time></trkpt><trkpt lat="43.38733046393363" lon="5.931974372632879"><ele>327.0</ele><time>2026-04-18T14:23:52Z</time></trkpt><trkpt lat="43.38735957324463" lon="5.931884200861944"><ele>327.0</ele><time>2026-04-18T14:23:54Z</time></trkpt><trkpt lat="43.38741268064623" lon="5.931796156127782"><ele>327.0</ele><time>2026-04-18T14:23:56Z</time></trkpt><trkpt lat="43.38746964358589" lon="5.931718848004024"><ele>327.0</ele><time>2026-04-18T14:23:58Z</time></trkpt><trkpt lat="43.38751909876501" lon="5.931627849144495"><ele>327.0</ele><time>2026-04-18T14:24:00Z</time></trkpt><trkpt lat="43.387574208407365" lon="5.93156030257444"><ele>327.0</ele><time>2026-04-18T14:24:02Z</time></trkpt><trkpt lat="43.38764456513067" lon="5.931473428044934"><ele>323.6666666666667</ele><time>2026-04-18T14:24:05Z</time></trkpt><trkpt lat="43.387714809395" lon="5.931407707124347"><ele>320.3333333333333</ele><time>2026-04-18T14:24:07Z</time></trkpt><trkpt lat="43.38778223675345" lon="5.931382946440889"><ele>317.0</ele><time>2026-04-18T14:24:09Z</time></trkpt><trkpt lat="43.387848110364914" lon="5.931354556192569"><ele>313.66666666666663</ele><time>2026-04-18T14:24:11Z</time></trkpt><trkpt lat="43.387927221416646" lon="5.931335885122919"><ele>310.3333333333333</ele><time>2026-04-18T14:24:13Z</time></trkpt><trkpt lat="43.388018679226825" lon="5.931313173053782"><ele>307.0</ele><time>2026-04-18T14:24:15Z</time></trkpt><trkpt lat="43.38808830177956" lon="5.931293719713508"><ele>306.16666666666663</ele><time>2026-04-18T14:24:17Z</time></trkpt><trkpt lat="43.388152809996576" lon="5.9312743533233725"><ele>305.3333333333333</ele><time>2026-04-18T14:24:19Z</time></trkpt><trkpt lat="43.38822204599777" lon="5.9312830844023745"><ele>304.5</ele><time>2026-04-18T14:24:21Z</time></trkpt><trkpt lat="43.38830085625712" lon="5.931299029289732"><ele>303.6666666666667</ele><time>2026-04-18T14:24:23Z</time></trkpt><trkpt lat="43.38837854753703" lon="5.9313296619582365"><ele>302.83333333333337</ele><time>2026-04-18T14:24:25Z</time></trkpt><trkpt lat="43.388481904398226" lon="5.931388136399275"><ele>302.0</ele><time>2026-04-18T14:24:27Z</time></trkpt><trkpt lat="43.38854734255448" lon="5.931407221347418"><ele>302.0</ele><time>2026-04-18T14:24:29Z</time></trkpt><trkpt lat="43.38862563615562" lon="5.931437492620274"><ele>302.0</ele><time>2026-04-18T14:24:31Z</time></trkpt><trkpt lat="43.38869887978971" lon="5.931460156916609"><ele>302.0</ele><time>2026-04-18T14:24:33Z</time></trkpt><trkpt lat="43.38879809497368" lon="5.931502187388788"><ele>302.0</ele><time>2026-04-18T14:24:36Z</time></trkpt><trkpt lat="43.38886849823961" lon="5.931499086018661"><ele>302.0</ele><time>2026-04-18T14:24:38Z</time></trkpt><trkpt lat="43.38895256706626" lon="5.931444154647483"><ele>302.0</ele><time>2026-04-18T14:24:40Z</time></trkpt><trkpt lat="43.38903215770257" lon="5.93145520580827"><ele>299.33333333333337</ele><time>2026-04-18T14:24:46Z</time></trkpt><trkpt lat="43.38911259660323" lon="5.931511452649462"><ele>296.6666666666667</ele><time>2026-04-18T14:24:48Z</time></trkpt><trkpt lat="43.3891976078072" lon="5.931531862012627"><ele>294.0</ele><time>2026-04-18T14:24:50Z</time></trkpt><trkpt lat="43.389272993480304" lon="5.931527591037328"><ele>291.3333333333333</ele><time>2026-04-18T14:24:52Z</time></trkpt><trkpt lat="43.38934821435609" lon="5.931447488429545"><ele>288.66666666666663</ele><time>2026-04-18T14:24:54Z</time></trkpt><trkpt lat="43.38939201301602" lon="5.931384913270004"><ele>286.0</ele><time>2026-04-18T14:24:55Z</time></trkpt><trkpt lat="43.389438051037004" lon="5.931317878059863"><ele>286.0</ele><time>2026-04-18T14:24:56Z</time></trkpt><trkpt lat="43.389522872662376" lon="5.931250653377495"><ele>286.0</ele><time>2026-04-18T14:24:58Z</time></trkpt><trkpt lat="43.38960691680355" lon="5.931298164212907"><ele>286.0</ele><time>2026-04-18T14:25:00Z</time></trkpt><trkpt lat="43.38966176053698" lon="5.931350630173439"><ele>286.0</ele><time>2026-04-18T14:25:01Z</time></trkpt><trkpt lat="43.38971878454245" lon="5.931405303155662"><ele>286.0</ele><time>2026-04-18T14:25:02Z</time></trkpt><trkpt lat="43.38982469704848" lon="5.931466539093991"><ele>286.0</ele><time>2026-04-18T14:25:04Z</time></trkpt><trkpt lat="43.38993423551888" lon="5.931559774813468"><ele>285.40000000000003</ele><time>2026-04-18T14:25:06Z</time></trkpt><trkpt lat="43.39001719554566" lon="5.93163218719511"><ele>284.8</ele><time>2026-04-18T14:25:08Z</time></trkpt><trkpt lat="43.3900897190267" lon="5.931702032290543"><ele>284.20000000000005</ele><time>2026-04-18T14:25:10Z</time></trkpt><trkpt lat="43.390170292233684" lon="5.931706997475835"><ele>283.6</ele><time>2026-04-18T14:25:12Z</time></trkpt><trkpt lat="43.39028229461799" lon="5.931770782506511"><ele>283.0</ele><time>2026-04-18T14:25:14Z</time></trkpt><trkpt lat="43.39036846017718" lon="5.931843546103597"><ele>282.5</ele><time>2026-04-18T14:25:16Z</time></trkpt><trkpt lat="43.39042042445134" lon="5.931915983418664"><ele>282.0</ele><time>2026-04-18T14:25:18Z</time></trkpt><trkpt lat="43.39049010227817" lon="5.932005150867824"><ele>281.5</ele><time>2026-04-18T14:25:20Z</time></trkpt><trkpt lat="43.39049828791262" lon="5.932099381904212"><ele>281.0</ele><time>2026-04-18T14:25:22Z</time></trkpt><trkpt lat="43.3905064374023" lon="5.932194604141739"><ele>280.5</ele><time>2026-04-18T14:25:25Z</time></trkpt><trkpt lat="43.39058548713496" lon="5.932328131280168"><ele>280.0</ele><time>2026-04-18T14:25:26Z</time></trkpt><trkpt lat="43.390668512312324" lon="5.932426347109469"><ele>280.0</ele><time>2026-04-18T14:25:27Z</time></trkpt><trkpt lat="43.39071570978071" lon="5.932519130485948"><ele>280.0</ele><time>2026-04-18T14:25:28Z</time></trkpt><trkpt lat="43.39073399597342" lon="5.93262791349556"><ele>280.0</ele><time>2026-04-18T14:25:29Z</time></trkpt><trkpt lat="43.390765589433215" lon="5.932719405130876"><ele>280.0</ele><time>2026-04-18T14:25:30Z</time></trkpt><trkpt lat="43.39080300616096" lon="5.932833105510491"><ele>280.0</ele><time>2026-04-18T14:25:31Z</time></trkpt><trkpt lat="43.390842350266304" lon="5.932948546504315"><ele>280.0</ele><time>2026-04-18T14:25:32Z</time></trkpt><trkpt lat="43.39084162307856" lon="5.933063430597685"><ele>281.0</ele><time>2026-04-18T14:25:33Z</time></trkpt><trkpt lat="43.39083824911806" lon="5.933154668958525"><ele>282.0</ele><time>2026-04-18T14:25:34Z</time></trkpt><trkpt lat="43.39082717560704" lon="5.93325102544985"><ele>283.0</ele><time>2026-04-18T14:25:35Z</time></trkpt><trkpt lat="43.39080439414426" lon="5.933362119823412"><ele>284.0</ele><time>2026-04-18T14:25:36Z</time></trkpt><trkpt lat="43.39077039043029" lon="5.933465125868346"><ele>285.0</ele><time>2026-04-18T14:25:37Z</time></trkpt><trkpt lat="43.39074604239755" lon="5.93358362459051"><ele>286.0</ele><time>2026-04-18T14:25:38Z</time></trkpt><trkpt lat="43.39076005879313" lon="5.933697893875536"><ele>286.0</ele><time>2026-04-18T14:25:39Z</time></trkpt><trkpt lat="43.39078611899994" lon="5.933792484986946"><ele>286.0</ele><time>2026-04-18T14:25:40Z</time></trkpt><trkpt lat="43.39081082714115" lon="5.933900327642952"><ele>286.0</ele><time>2026-04-18T14:25:41Z</time></trkpt><trkpt lat="43.39084458913678" lon="5.934013185481635"><ele>286.0</ele><time>2026-04-18T14:25:42Z</time></trkpt><trkpt lat="43.390892642526815" lon="5.934120593799785"><ele>286.0</ele><time>2026-04-18T14:25:43Z</time></trkpt><trkpt lat="43.3909393308188" lon="5.934217058166526"><ele>286.0</ele><time>2026-04-18T14:25:44Z</time></trkpt><trkpt lat="43.391004374643096" lon="5.934297018966573"><ele>283.6</ele><time>2026-04-18T14:25:45Z</time></trkpt><trkpt lat="43.39107523127851" lon="5.934362792663349"><ele>281.20000000000005</ele><time>2026-04-18T14:25:46Z</time></trkpt><trkpt lat="43.39118011126585" lon="5.934403104487676"><ele>278.79999999999995</ele><time>2026-04-18T14:25:47Z</time></trkpt><trkpt lat="43.39129691946098" lon="5.934449601349879"><ele>276.4</ele><time>2026-04-18T14:25:48Z</time></trkpt><trkpt lat="43.39140023589735" lon="5.9344924212989625"><ele>274.0</ele><time>2026-04-18T14:25:49Z</time></trkpt><trkpt lat="43.39151604611769" lon="5.934516477842329"><ele>273.25</ele><time>2026-04-18T14:25:50Z</time></trkpt><trkpt lat="43.39163837711559" lon="5.934502994484277"><ele>272.5</ele><time>2026-04-18T14:25:51Z</time></trkpt><trkpt lat="43.39177375854971" lon="5.934489026277089"><ele>271.75</ele><time>2026-04-18T14:25:52Z</time></trkpt><trkpt lat="43.39191403882029" lon="5.934463629190245"><ele>271.0</ele><time>2026-04-18T14:25:53Z</time></trkpt><trkpt lat="43.39203990913147" lon="5.9344176496318575"><ele>271.0</ele><time>2026-04-18T14:25:54Z</time></trkpt><trkpt lat="43.39214730523853" lon="5.9343861917561975"><ele>271.0</ele><time>2026-04-18T14:25:55Z</time></trkpt><trkpt lat="43.39223930589303" lon="5.934395394515366"><ele>271.0</ele><time>2026-04-18T14:25:56Z</time></trkpt><trkpt lat="43.39232735053903" lon="5.93440902800883"><ele>271.0</ele><time>2026-04-18T14:25:57Z</time></trkpt><trkpt lat="43.392406892906216" lon="5.934432078748825"><ele>271.0</ele><time>2026-04-18T14:25:58Z</time></trkpt><trkpt lat="43.39248928909819" lon="5.934463519431928"><ele>272.0</ele><time>2026-04-18T14:25:59Z</time></trkpt><trkpt lat="43.3926015628947" lon="5.934500104491784"><ele>273.0</ele><time>2026-04-18T14:26:00Z</time></trkpt><trkpt lat="43.39269210220939" lon="5.934566318769515"><ele>274.0</ele><time>2026-04-18T14:26:01Z</time></trkpt><trkpt lat="43.392776288712426" lon="5.934608501041533"><ele>275.0</ele><time>2026-04-18T14:26:02Z</time></trkpt><trkpt lat="43.3928768876843" lon="5.934625468849332"><ele>276.0</ele><time>2026-04-18T14:26:03Z</time></trkpt><trkpt lat="43.39300181018256" lon="5.934631442047871"><ele>276.75</ele><time>2026-04-18T14:26:04Z</time></trkpt><trkpt lat="43.39314154913973" lon="5.934649688608834"><ele>277.5</ele><time>2026-04-18T14:26:05Z</time></trkpt><trkpt lat="43.39325520283884" lon="5.934664406929835"><ele>278.25</ele><time>2026-04-18T14:26:06Z</time></trkpt><trkpt lat="43.39336645959414" lon="5.934682338774645"><ele>279.0</ele><time>2026-04-18T14:26:07Z</time></trkpt><trkpt lat="43.39347604131694" lon="5.934715339825654"><ele>279.0</ele><time>2026-04-18T14:26:08Z</time></trkpt><trkpt lat="43.3935823410596" lon="5.934743685419324"><ele>279.0</ele><time>2026-04-18T14:26:09Z</time></trkpt><trkpt lat="43.393677155617915" lon="5.934756657958813"><ele>279.0</ele><time>2026-04-18T14:26:10Z</time></trkpt><trkpt lat="43.39376888767422" lon="5.934756450039605"><ele>279.0</ele><time>2026-04-18T14:26:11Z</time></trkpt><trkpt lat="43.39387160098439" lon="5.934747920751419"><ele>279.0</ele><time>2026-04-18T14:26:12Z</time></trkpt><trkpt lat="43.3939925538679" lon="5.934703265551607"><ele>277.75</ele><time>2026-04-18T14:26:13Z</time></trkpt><trkpt lat="43.3941175650978" lon="5.934661276929371"><ele>276.5</ele><time>2026-04-18T14:26:14Z</time></trkpt><trkpt lat="43.39424203455996" lon="5.93463663371319"><ele>275.25</ele><time>2026-04-18T14:26:15Z</time></trkpt><trkpt lat="43.39435302195159" lon="5.934617687539409"><ele>274.0</ele><time>2026-04-18T14:26:16Z</time></trkpt><trkpt lat="43.39446056451425" lon="5.934610017752681"><ele>274.0</ele><time>2026-04-18T14:26:17Z</time></trkpt><trkpt lat="43.39457067049613" lon="5.934626157512503"><ele>274.0</ele><time>2026-04-18T14:26:18Z</time></trkpt><trkpt lat="43.39468427711188" lon="5.934641416645518"><ele>274.0</ele><time>2026-04-18T14:26:19Z</time></trkpt><trkpt lat="43.39478550677531" lon="5.934622762498644"><ele>274.0</ele><time>2026-04-18T14:26:20Z</time></trkpt><trkpt lat="43.39485241645683" lon="5.934552617477249"><ele>274.0</ele><time>2026-04-18T14:26:21Z</time></trkpt><trkpt lat="43.39490314972983" lon="5.93446257436449"><ele>274.0</ele><time>2026-04-18T14:26:22Z</time></trkpt><trkpt lat="43.39494576148377" lon="5.934378056336334"><ele>274.0</ele><time>2026-04-18T14:26:23Z</time></trkpt><trkpt lat="43.39498358043035" lon="5.934308193067163"><ele>274.0</ele><time>2026-04-18T14:26:24Z</time></trkpt><trkpt lat="43.395043433985286" lon="5.934191757334982"><ele>274.0</ele><time>2026-04-18T14:26:26Z</time></trkpt><trkpt lat="43.39510459419081" lon="5.934138256756129"><ele>274.0</ele><time>2026-04-18T14:26:28Z</time></trkpt><trkpt lat="43.395175402204345" lon="5.9340852430114674"><ele>274.0</ele><time>2026-04-18T14:26:32Z</time></trkpt><trkpt lat="43.395268961584485" lon="5.934089563163892"><ele>276.0</ele><time>2026-04-18T14:26:34Z</time></trkpt><trkpt lat="43.395371491802855" lon="5.934060855106745"><ele>278.0</ele><time>2026-04-18T14:26:36Z</time></trkpt><trkpt lat="43.39531977622505" lon="5.933557267341962"><ele>278.0</ele><time>2026-04-18T14:26:38Z</time></trkpt><trkpt lat="43.39532764791228" lon="5.933441545450358"><ele>278.0</ele><time>2026-04-18T14:26:39Z</time></trkpt><trkpt lat="43.39537228414581" lon="5.933359863752227"><ele>278.0</ele><time>2026-04-18T14:26:41Z</time></trkpt><trkpt lat="43.39548140947683" lon="5.93335047918414"><ele>278.0</ele><time>2026-04-18T14:26:43Z</time></trkpt><trkpt lat="43.39555347882627" lon="5.933287369318903"><ele>278.0</ele><time>2026-04-18T14:26:45Z</time></trkpt><trkpt lat="43.395578453362866" lon="5.933140596815901"><ele>279.8</ele><time>2026-04-18T14:26:47Z</time></trkpt><trkpt lat="43.39559420940303" lon="5.933032085460775"><ele>281.6</ele><time>2026-04-18T14:26:48Z</time></trkpt><trkpt lat="43.3956072959981" lon="5.932899593094004"><ele>283.4</ele><time>2026-04-18T14:26:49Z</time></trkpt><trkpt lat="43.395618102432984" lon="5.932798564541551"><ele>285.2</ele><time>2026-04-18T14:26:50Z</time></trkpt><trkpt lat="43.39569512564931" lon="5.932676447945225"><ele>287.0</ele><time>2026-04-18T14:26:52Z</time></trkpt><trkpt lat="43.39572609395234" lon="5.9325691280353885"><ele>290.2</ele><time>2026-04-18T14:26:54Z</time></trkpt><trkpt lat="43.395748394631404" lon="5.932418722361341"><ele>293.4</ele><time>2026-04-18T14:26:56Z</time></trkpt><trkpt lat="43.3957775202077" lon="5.9323377240783985"><ele>296.6</ele><time>2026-04-18T14:26:58Z</time></trkpt><trkpt lat="43.39579989777346" lon="5.9322162001084715"><ele>299.8</ele><time>2026-04-18T14:27:00Z</time></trkpt><trkpt lat="43.3958521453251" lon="5.932156527043739"><ele>303.0</ele><time>2026-04-18T14:27:01Z</time></trkpt><trkpt lat="43.39587108534091" lon="5.931991398018905"><ele>303.0</ele><time>2026-04-18T14:27:03Z</time></trkpt><trkpt lat="43.39584506231302" lon="5.93189631833786"><ele>303.0</ele><time>2026-04-18T14:27:06Z</time></trkpt><trkpt lat="43.39585189984868" lon="5.931792929852816"><ele>303.0</ele><time>2026-04-18T14:27:09Z</time></trkpt><trkpt lat="43.39583482619263" lon="5.931656017880076"><ele>303.0</ele><time>2026-04-18T14:27:11Z</time></trkpt><trkpt lat="43.395882125027796" lon="5.931529917293237"><ele>303.0</ele><time>2026-04-18T14:27:13Z</time></trkpt><trkpt lat="43.395920212033" lon="5.931441555601323"><ele>303.0</ele><time>2026-04-18T14:27:14Z</time></trkpt><trkpt lat="43.39595157705528" lon="5.931352623324356"><ele>305.6</ele><time>2026-04-18T14:27:15Z</time></trkpt><trkpt lat="43.39597007809634" lon="5.931215896956791"><ele>308.20000000000005</ele><time>2026-04-18T14:27:17Z</time></trkpt><trkpt lat="43.39600775130543" lon="5.93109279038292"><ele>310.8</ele><time>2026-04-18T14:27:20Z</time></trkpt><trkpt lat="43.39602168449046" lon="5.93098163155732"><ele>313.40000000000003</ele><time>2026-04-18T14:27:21Z</time></trkpt><trkpt lat="43.39603169560734" lon="5.930876671693504"><ele>316.0</ele><time>2026-04-18T14:27:22Z</time></trkpt><trkpt lat="43.39608688518312" lon="5.930710759683498"><ele>318.0</ele><time>2026-04-18T14:27:24Z</time></trkpt><trkpt lat="43.39610875283678" lon="5.930597662218126"><ele>320.0</ele><time>2026-04-18T14:27:25Z</time></trkpt><trkpt lat="43.39613533209237" lon="5.9304916497469105"><ele>322.0</ele><time>2026-04-18T14:27:26Z</time></trkpt><trkpt lat="43.39615685302396" lon="5.930401077189942"><ele>324.0</ele><time>2026-04-18T14:27:27Z</time></trkpt><trkpt lat="43.396174670108195" lon="5.930286167233135"><ele>326.0</ele><time>2026-04-18T14:27:28Z</time></trkpt><trkpt lat="43.39619847554171" lon="5.930121897933264"><ele>328.0</ele><time>2026-04-18T14:27:29Z</time></trkpt><trkpt lat="43.396203447561014" lon="5.930002259022733"><ele>329.8333333333333</ele><time>2026-04-18T14:27:30Z</time></trkpt><trkpt lat="43.396186178242786" lon="5.9299139508440915"><ele>331.66666666666663</ele><time>2026-04-18T14:27:31Z</time></trkpt><trkpt lat="43.39616782830731" lon="5.929796131362611"><ele>333.5</ele><time>2026-04-18T14:27:32Z</time></trkpt><trkpt lat="43.396150559398954" lon="5.929669576884885"><ele>335.3333333333333</ele><time>2026-04-18T14:27:33Z</time></trkpt><trkpt lat="43.3961181038823" lon="5.929546928445994"><ele>337.1666666666667</ele><time>2026-04-18T14:27:34Z</time></trkpt><trkpt lat="43.396114621086596" lon="5.9294250072684545"><ele>339.0</ele><time>2026-04-18T14:27:35Z</time></trkpt><trkpt lat="43.396100645316245" lon="5.929325817548278"><ele>339.2</ele><time>2026-04-18T14:27:36Z</time></trkpt><trkpt lat="43.39607410406116" lon="5.929198672495057"><ele>339.4</ele><time>2026-04-18T14:27:38Z</time></trkpt><trkpt lat="43.39608582245762" lon="5.929106969233968"><ele>339.6</ele><time>2026-04-18T14:27:40Z</time></trkpt><trkpt lat="43.396152430351435" lon="5.9290235668907485"><ele>339.8</ele><time>2026-04-18T14:27:42Z</time></trkpt><trkpt lat="43.39623267598843" lon="5.9289147601125975"><ele>340.0</ele><time>2026-04-18T14:27:44Z</time></trkpt><trkpt lat="43.396336985892155" lon="5.928828450212281"><ele>338.16666666666663</ele><time>2026-04-18T14:27:46Z</time></trkpt><trkpt lat="43.396386208111984" lon="5.9287522229676135"><ele>336.3333333333333</ele><time>2026-04-18T14:27:47Z</time></trkpt><trkpt lat="43.396429402272645" lon="5.928676770118831"><ele>334.5</ele><time>2026-04-18T14:27:48Z</time></trkpt><trkpt lat="43.39647229674985" lon="5.928594840206688"><ele>332.6666666666667</ele><time>2026-04-18T14:27:49Z</time></trkpt><trkpt lat="43.39653268666213" lon="5.928490229574849"><ele>330.83333333333337</ele><time>2026-04-18T14:27:50Z</time></trkpt><trkpt lat="43.39660960045962" lon="5.928385449729818"><ele>329.0</ele><time>2026-04-18T14:27:51Z</time></trkpt><trkpt lat="43.39665339987709" lon="5.928308907008575"><ele>329.0</ele><time>2026-04-18T14:27:52Z</time></trkpt><trkpt lat="43.396754970853124" lon="5.9282226419216295"><ele>329.0</ele><time>2026-04-18T14:27:54Z</time></trkpt><trkpt lat="43.39681819261105" lon="5.928178496392021"><ele>329.0</ele><time>2026-04-18T14:27:55Z</time></trkpt><trkpt lat="43.39690916398544" lon="5.928134813076315"><ele>329.0</ele><time>2026-04-18T14:27:57Z</time></trkpt><trkpt lat="43.39704045614945" lon="5.928182066690686"><ele>329.0</ele><time>2026-04-18T14:27:59Z</time></trkpt><trkpt lat="43.397127186686205" lon="5.928192817229209"><ele>327.5</ele><time>2026-04-18T14:28:00Z</time></trkpt><trkpt lat="43.397203431038946" lon="5.928162394614289"><ele>326.0</ele><time>2026-04-18T14:28:02Z</time></trkpt><trkpt lat="43.397251823907254" lon="5.928072136649128"><ele>324.5</ele><time>2026-04-18T14:28:04Z</time></trkpt><trkpt lat="43.39729271973476" lon="5.927970815944793"><ele>323.0</ele><time>2026-04-18T14:28:05Z</time></trkpt><trkpt lat="43.39733452428738" lon="5.927866909674038"><ele>321.5</ele><time>2026-04-18T14:28:06Z</time></trkpt><trkpt lat="43.397354411645175" lon="5.927784329250509"><ele>320.0</ele><time>2026-04-18T14:28:07Z</time></trkpt><trkpt lat="43.39736328269397" lon="5.927684884605228"><ele>321.83333333333337</ele><time>2026-04-18T14:28:08Z</time></trkpt><trkpt lat="43.397375454784" lon="5.927556671401104"><ele>323.6666666666667</ele><time>2026-04-18T14:28:09Z</time></trkpt><trkpt lat="43.3973937445213" lon="5.927450186354675"><ele>325.5</ele><time>2026-04-18T14:28:10Z</time></trkpt><trkpt lat="43.397412146704184" lon="5.927339775724623"><ele>327.3333333333333</ele><time>2026-04-18T14:28:11Z</time></trkpt><trkpt lat="43.397411545219555" lon="5.927231561959803"><ele>329.16666666666663</ele><time>2026-04-18T14:28:12Z</time></trkpt><trkpt lat="43.39739434526924" lon="5.927136667480224"><ele>331.0</ele><time>2026-04-18T14:28:13Z</time></trkpt><trkpt lat="43.397373588140304" lon="5.927049800080732"><ele>331.0</ele><time>2026-04-18T14:28:14Z</time></trkpt><trkpt lat="43.39733827380514" lon="5.926961255871721"><ele>331.0</ele><time>2026-04-18T14:28:15Z</time></trkpt><trkpt lat="43.397278689441066" lon="5.9268477958618195"><ele>331.0</ele><time>2026-04-18T14:28:16Z</time></trkpt><trkpt lat="43.39721439920065" lon="5.9267442167054245"><ele>331.0</ele><time>2026-04-18T14:28:17Z</time></trkpt><trkpt lat="43.39717788319174" lon="5.926671927128938"><ele>331.0</ele><time>2026-04-18T14:28:18Z</time></trkpt><trkpt lat="43.39714637107445" lon="5.926559863774817"><ele>331.0</ele><time>2026-04-18T14:28:21Z</time></trkpt><trkpt lat="43.39716446493663" lon="5.926345003117971"><ele>331.3333333333333</ele><time>2026-04-18T14:28:23Z</time></trkpt><trkpt lat="43.397193584166835" lon="5.926215107392882"><ele>331.66666666666663</ele><time>2026-04-18T14:28:24Z</time></trkpt><trkpt lat="43.397222944110865" lon="5.9261250053491334"><ele>332.0</ele><time>2026-04-18T14:28:25Z</time></trkpt><trkpt lat="43.39728440690088" lon="5.925991002778498"><ele>332.3333333333333</ele><time>2026-04-18T14:28:27Z</time></trkpt><trkpt lat="43.39732967917596" lon="5.925927003174603"><ele>332.6666666666667</ele><time>2026-04-18T14:28:28Z</time></trkpt><trkpt lat="43.39736295390344" lon="5.925813689120075"><ele>333.0</ele><time>2026-04-18T14:28:30Z</time></trkpt><trkpt lat="43.3974283680225" lon="5.925784364689064"><ele>333.0</ele><time>2026-04-18T14:28:32Z</time></trkpt><trkpt lat="43.39739546882399" lon="5.925702034011803"><ele>333.0</ele><time>2026-04-18T14:28:34Z</time></trkpt><trkpt lat="43.397367266520085" lon="5.925606378489207"><ele>333.0</ele><time>2026-04-18T14:28:36Z</time></trkpt><trkpt lat="43.39742752611292" lon="5.92552204535497"><ele>333.0</ele><time>2026-04-18T14:28:38Z</time></trkpt><trkpt lat="43.397401602347145" lon="5.9254299301662305"><ele>333.0</ele><time>2026-04-18T14:28:40Z</time></trkpt><trkpt lat="43.39742361211072" lon="5.925334635053658"><ele>333.0</ele><time>2026-04-18T14:28:43Z</time></trkpt><trkpt lat="43.397380971261605" lon="5.925233537713419"><ele>333.0</ele><time>2026-04-18T14:28:45Z</time></trkpt><trkpt lat="43.39735746085441" lon="5.9251051205359"><ele>333.0</ele><time>2026-04-18T14:28:47Z</time></trkpt><trkpt lat="43.397373513128564" lon="5.924949627941998"><ele>333.0</ele><time>2026-04-18T14:28:49Z</time></trkpt><trkpt lat="43.39735823141249" lon="5.924863327580052"><ele>333.0</ele><time>2026-04-18T14:28:50Z</time></trkpt><trkpt lat="43.397332718451146" lon="5.924728510341015"><ele>333.0</ele><time>2026-04-18T14:28:52Z</time></trkpt><trkpt lat="43.39735001187411" lon="5.924598341469669"><ele>335.25</ele><time>2026-04-18T14:28:53Z</time></trkpt><trkpt lat="43.39736397088133" lon="5.9244861588012006"><ele>337.5</ele><time>2026-04-18T14:28:54Z</time></trkpt><trkpt lat="43.39736888356521" lon="5.924387426202665"><ele>339.75</ele><time>2026-04-18T14:28:55Z</time></trkpt><trkpt lat="43.397372059415346" lon="5.924155015650554"><ele>342.0</ele><time>2026-04-18T14:28:57Z</time></trkpt><trkpt lat="43.397341512206935" lon="5.923982402653724"><ele>342.6</ele><time>2026-04-18T14:28:59Z</time></trkpt><trkpt lat="43.397357870631225" lon="5.923857475851544"><ele>343.20000000000005</ele><time>2026-04-18T14:29:00Z</time></trkpt><trkpt lat="43.3973527387977" lon="5.923750901606253"><ele>343.8</ele><time>2026-04-18T14:29:01Z</time></trkpt><trkpt lat="43.397307811989194" lon="5.923579067495473"><ele>344.4</ele><time>2026-04-18T14:29:03Z</time></trkpt><trkpt lat="43.39730104713347" lon="5.923469017149614"><ele>345.0</ele><time>2026-04-18T14:29:04Z</time></trkpt><trkpt lat="43.39731641913774" lon="5.923347251690505"><ele>345.1666666666667</ele><time>2026-04-18T14:29:06Z</time></trkpt><trkpt lat="43.39731518422166" lon="5.923258861729322"><ele>345.3333333333333</ele><time>2026-04-18T14:29:09Z</time></trkpt><trkpt lat="43.39737137151099" lon="5.923208271329206"><ele>345.5</ele><time>2026-04-18T14:29:11Z</time></trkpt><trkpt lat="43.397376144556695" lon="5.92310637745235"><ele>345.66666666666663</ele><time>2026-04-18T14:29:15Z</time></trkpt><trkpt lat="43.397485739054446" lon="5.9230827494108444"><ele>345.8333333333333</ele><time>2026-04-18T14:29:20Z</time></trkpt><trkpt lat="43.39749979760474" lon="5.922993887954261"><ele>346.0</ele><time>2026-04-18T14:29:24Z</time></trkpt><trkpt lat="43.3975126002281" lon="5.922901041252392"><ele>346.0</ele><time>2026-04-18T14:29:27Z</time></trkpt><trkpt lat="43.39750216735414" lon="5.9228120496476215"><ele>346.0</ele><time>2026-04-18T14:29:29Z</time></trkpt><trkpt lat="43.397564127940825" lon="5.922683337509256"><ele>346.0</ele><time>2026-04-18T14:29:30Z</time></trkpt><trkpt lat="43.39759703580405" lon="5.922579032343535"><ele>346.0</ele><time>2026-04-18T14:29:31Z</time></trkpt><trkpt lat="43.39764092203656" lon="5.9224943103762735"><ele>346.0</ele><time>2026-04-18T14:29:33Z</time></trkpt><trkpt lat="43.397627458351415" lon="5.922324940156394"><ele>345.6</ele><time>2026-04-18T14:29:40Z</time></trkpt><trkpt lat="43.39760067518151" lon="5.922180868557244"><ele>345.20000000000005</ele><time>2026-04-18T14:29:42Z</time></trkpt><trkpt lat="43.39754757596008" lon="5.922095048543138"><ele>344.79999999999995</ele><time>2026-04-18T14:29:45Z</time></trkpt><trkpt lat="43.39756115344993" lon="5.921999908252813"><ele>344.4</ele><time>2026-04-18T14:29:49Z</time></trkpt><trkpt lat="43.39755382009976" lon="5.921877592767712"><ele>344.0</ele><time>2026-04-18T14:29:51Z</time></trkpt><trkpt lat="43.39757887645514" lon="5.921738271294583"><ele>343.33333333333337</ele><time>2026-04-18T14:29:53Z</time></trkpt><trkpt lat="43.39761253778804" lon="5.921617377667946"><ele>342.6666666666667</ele><time>2026-04-18T14:29:55Z</time></trkpt><trkpt lat="43.397640079303926" lon="5.921526165214496"><ele>342.0</ele><time>2026-04-18T14:29:58Z</time></trkpt><trkpt lat="43.397578693988244" lon="5.9214097572112205"><ele>341.3333333333333</ele><time>2026-04-18T14:30:00Z</time></trkpt><trkpt lat="43.3975683406557" lon="5.921288502687564"><ele>340.66666666666663</ele><time>2026-04-18T14:30:02Z</time></trkpt><trkpt lat="43.39754543574553" lon="5.921203815568204"><ele>340.0</ele><time>2026-04-18T14:30:03Z</time></trkpt><trkpt lat="43.39752199963076" lon="5.921106004235162"><ele>340.0</ele><time>2026-04-18T14:30:04Z</time></trkpt><trkpt lat="43.39749458825261" lon="5.921015427958119"><ele>340.0</ele><time>2026-04-18T14:30:05Z</time></trkpt><trkpt lat="43.39747010097272" lon="5.920921173337846"><ele>340.0</ele><time>2026-04-18T14:30:08.999Z</time></trkpt><trkpt lat="43.39740917265104" lon="5.920849542739371"><ele>340.0</ele><time>2026-04-18T14:30:10.999Z</time></trkpt><trkpt lat="43.39735591094565" lon="5.920802542049525"><ele>340.0</ele><time>2026-04-18T14:30:12.999Z</time></trkpt><trkpt lat="43.39730517293295" lon="5.9207316509104135"><ele>340.0</ele><time>2026-04-18T14:30:15.999Z</time></trkpt><trkpt lat="43.39731003552644" lon="5.920608239657852"><ele>340.3333333333333</ele><time>2026-04-18T14:30:18Z</time></trkpt><trkpt lat="43.39724755679507" lon="5.920509517580736"><ele>340.66666666666663</ele><time>2026-04-18T14:30:20Z</time></trkpt><trkpt lat="43.39718068041096" lon="5.92043791118541"><ele>341.0</ele><time>2026-04-18T14:30:22Z</time></trkpt><trkpt lat="43.397147042868646" lon="5.9203542358879995"><ele>341.3333333333333</ele><time>2026-04-18T14:30:25Z</time></trkpt><trkpt lat="43.39709544976118" lon="5.920190547329872"><ele>341.6666666666667</ele><time>2026-04-18T14:30:28Z</time></trkpt><trkpt lat="43.397064117137376" lon="5.920104752034049"><ele>342.0</ele><time>2026-04-18T14:30:30Z</time></trkpt><trkpt lat="43.39705152517877" lon="5.919980757820047"><ele>344.20000000000005</ele><time>2026-04-18T14:30:32Z</time></trkpt><trkpt lat="43.39704202166926" lon="5.919893546979507"><ele>346.4</ele><time>2026-04-18T14:30:34Z</time></trkpt><trkpt lat="43.39702546183398" lon="5.919761991961116"><ele>348.6</ele><time>2026-04-18T14:30:37Z</time></trkpt><trkpt lat="43.39707583432882" lon="5.919620160024684"><ele>350.79999999999995</ele><time>2026-04-18T14:30:39Z</time></trkpt><trkpt lat="43.3971096246015" lon="5.919516632241593"><ele>353.0</ele><time>2026-04-18T14:30:40Z</time></trkpt><trkpt lat="43.39711263924986" lon="5.919371755146235"><ele>353.0</ele><time>2026-04-18T14:30:42Z</time></trkpt><trkpt lat="43.397109915790686" lon="5.919266048034637"><ele>353.0</ele><time>2026-04-18T14:30:44Z</time></trkpt><trkpt lat="43.397109266241564" lon="5.919172257101077"><ele>353.0</ele><time>2026-04-18T14:30:46Z</time></trkpt><trkpt lat="43.397029301002654" lon="5.919090113136529"><ele>353.0</ele><time>2026-04-18T14:30:48Z</time></trkpt><trkpt lat="43.39693211328746" lon="5.919080763733744"><ele>353.0</ele><time>2026-04-18T14:30:50Z</time></trkpt><trkpt lat="43.39684054487757" lon="5.919039941850828"><ele>353.0</ele><time>2026-04-18T14:30:52Z</time></trkpt><trkpt lat="43.39675896321506" lon="5.918973809800381"><ele>352.4</ele><time>2026-04-18T14:30:56Z</time></trkpt><trkpt lat="43.3966547062764" lon="5.9189264272356485"><ele>351.79999999999995</ele><time>2026-04-18T14:30:59Z</time></trkpt><trkpt lat="43.39656349056972" lon="5.91886242824115"><ele>351.2</ele><time>2026-04-18T14:31:01Z</time></trkpt><trkpt lat="43.39652584260998" lon="5.918775226713001"><ele>350.6</ele><time>2026-04-18T14:31:03Z</time></trkpt><trkpt lat="43.39653896711823" lon="5.918672239688128"><ele>350.0</ele><time>2026-04-18T14:31:05Z</time></trkpt><trkpt lat="43.39653489562975" lon="5.918473554705403"><ele>349.0</ele><time>2026-04-18T14:31:07Z</time></trkpt><trkpt lat="43.39653137357329" lon="5.918384059255999"><ele>348.0</ele><time>2026-04-18T14:31:08Z</time></trkpt><trkpt lat="43.396546310540955" lon="5.918233927783684"><ele>347.0</ele><time>2026-04-18T14:31:10Z</time></trkpt><trkpt lat="43.39653959532666" lon="5.918105510662859"><ele>346.0</ele><time>2026-04-18T14:31:12Z</time></trkpt><trkpt lat="43.39651464318138" lon="5.918025847106259"><ele>345.0</ele><time>2026-04-18T14:31:14Z</time></trkpt><trkpt lat="43.39656799087765" lon="5.917946576353805"><ele>344.0</ele><time>2026-04-18T14:31:16Z</time></trkpt><trkpt lat="43.39664494537493" lon="5.917929937243813"><ele>344.0</ele><time>2026-04-18T14:31:19Z</time></trkpt><trkpt lat="43.396756453522116" lon="5.9179027916865365"><ele>344.0</ele><time>2026-04-18T14:31:21Z</time></trkpt><trkpt lat="43.396842371969974" lon="5.9178071565956945"><ele>344.0</ele><time>2026-04-18T14:31:23Z</time></trkpt><trkpt lat="43.39688851640167" lon="5.917739561217332"><ele>344.0</ele><time>2026-04-18T14:31:24Z</time></trkpt><trkpt lat="43.39693624069356" lon="5.917665587884691"><ele>344.0</ele><time>2026-04-18T14:31:25Z</time></trkpt><trkpt lat="43.39703584656286" lon="5.917540981467589"><ele>343.42857142857144</ele><time>2026-04-18T14:31:27Z</time></trkpt><trkpt lat="43.397094497855946" lon="5.917468648779691"><ele>342.8571428571429</ele><time>2026-04-18T14:31:28Z</time></trkpt><trkpt lat="43.39714533349257" lon="5.917404302896914"><ele>342.28571428571433</ele><time>2026-04-18T14:31:29Z</time></trkpt><trkpt lat="43.39719437747949" lon="5.917329444397937"><ele>341.7142857142857</ele><time>2026-04-18T14:31:30Z</time></trkpt><trkpt lat="43.39723685089521" lon="5.917243733741068"><ele>341.1428571428571</ele><time>2026-04-18T14:31:31Z</time></trkpt><trkpt lat="43.39727382568959" lon="5.917150882877523"><ele>340.5714285714286</ele><time>2026-04-18T14:31:32Z</time></trkpt><trkpt lat="43.397312896749874" lon="5.917075879177841"><ele>340.0</ele><time>2026-04-18T14:31:33Z</time></trkpt><trkpt lat="43.39740990208671" lon="5.916965662799285"><ele>339.0</ele><time>2026-04-18T14:31:35Z</time></trkpt><trkpt lat="43.39746118432037" lon="5.916908808929154"><ele>338.0</ele><time>2026-04-18T14:31:36Z</time></trkpt><trkpt lat="43.3975468526576" lon="5.916811282639876"><ele>337.0</ele><time>2026-04-18T14:31:38Z</time></trkpt><trkpt lat="43.39761155478011" lon="5.916707025530472"><ele>336.0</ele><time>2026-04-18T14:31:40Z</time></trkpt><trkpt lat="43.3976995061076" lon="5.916683058280744"><ele>335.0</ele><time>2026-04-18T14:31:44Z</time></trkpt><trkpt lat="43.397759587434564" lon="5.916725437528852"><ele>334.0</ele><time>2026-04-18T14:31:46Z</time></trkpt><trkpt lat="43.39782015815134" lon="5.9167499917639965"><ele>334.0</ele><time>2026-04-18T14:31:47Z</time></trkpt><trkpt lat="43.3979049714098" lon="5.916751867649982"><ele>334.0</ele><time>2026-04-18T14:31:48Z</time></trkpt><trkpt lat="43.39800986578528" lon="5.9167348110504205"><ele>334.0</ele><time>2026-04-18T14:31:49Z</time></trkpt><trkpt lat="43.398087348261384" lon="5.916735038807903"><ele>334.0</ele><time>2026-04-18T14:31:50Z</time></trkpt><trkpt lat="43.39815476175917" lon="5.916762815515429"><ele>334.0</ele><time>2026-04-18T14:31:51Z</time></trkpt><trkpt lat="43.39823101585179" lon="5.916810415298707"><ele>334.0</ele><time>2026-04-18T14:31:52Z</time></trkpt><trkpt lat="43.39833206227751" lon="5.916867644861795"><ele>334.75</ele><time>2026-04-18T14:31:53Z</time></trkpt><trkpt lat="43.39845311312458" lon="5.916920636858839"><ele>335.5</ele><time>2026-04-18T14:31:54Z</time></trkpt><trkpt lat="43.398571637045926" lon="5.916969410194697"><ele>336.25</ele><time>2026-04-18T14:31:55Z</time></trkpt><trkpt lat="43.3986755895156" lon="5.917009779874497"><ele>337.0</ele><time>2026-04-18T14:31:56Z</time></trkpt><trkpt lat="43.39877893480398" lon="5.91705353117281"><ele>335.0</ele><time>2026-04-18T14:31:56.999Z</time></trkpt><trkpt lat="43.39887997644528" lon="5.917098178883085"><ele>333.0</ele><time>2026-04-18T14:31:57.999Z</time></trkpt><trkpt lat="43.39897994621591" lon="5.917134771932376"><ele>331.0</ele><time>2026-04-18T14:31:58.999Z</time></trkpt><trkpt lat="43.39907563449901" lon="5.917170572175776"><ele>329.0</ele><time>2026-04-18T14:31:59.999Z</time></trkpt><trkpt lat="43.399160741180104" lon="5.917193434964914"><ele>327.0</ele><time>2026-04-18T14:32:00.999Z</time></trkpt><trkpt lat="43.39924706380888" lon="5.917219945718314"><ele>327.0</ele><time>2026-04-18T14:32:01.999Z</time></trkpt><trkpt lat="43.39933617524884" lon="5.917264222264916"><ele>327.0</ele><time>2026-04-18T14:32:02.999Z</time></trkpt><trkpt lat="43.39941823684042" lon="5.91731699565861"><ele>327.0</ele><time>2026-04-18T14:32:03.999Z</time></trkpt><trkpt lat="43.39950214833449" lon="5.917392490327853"><ele>327.0</ele><time>2026-04-18T14:32:04.999Z</time></trkpt><trkpt lat="43.3995919455362" lon="5.91747672168153"><ele>327.0</ele><time>2026-04-18T14:32:05.999Z</time></trkpt><trkpt lat="43.39966764482876" lon="5.917549303188976"><ele>325.85714285714283</ele><time>2026-04-18T14:32:06.999Z</time></trkpt><trkpt lat="43.39973318392906" lon="5.9176114231401975"><ele>324.7142857142857</ele><time>2026-04-18T14:32:07.999Z</time></trkpt><trkpt lat="43.399797190606634" lon="5.917678421395744"><ele>323.57142857142856</ele><time>2026-04-18T14:32:08.999Z</time></trkpt><trkpt lat="43.399853586597764" lon="5.917751257362999"><ele>322.42857142857144</ele><time>2026-04-18T14:32:09.999Z</time></trkpt><trkpt lat="43.39989342157405" lon="5.917828868235489"><ele>321.2857142857143</ele><time>2026-04-18T14:32:10.999Z</time></trkpt><trkpt lat="43.3999278926082" lon="5.917906845011536"><ele>320.14285714285717</ele><time>2026-04-18T14:32:11.999Z</time></trkpt><trkpt lat="43.399969181420644" lon="5.917985689141605"><ele>319.0</ele><time>2026-04-18T14:32:12.999Z</time></trkpt><trkpt lat="43.4000020528772" lon="5.918071578340673"><ele>319.0</ele><time>2026-04-18T14:32:13.999Z</time></trkpt><trkpt lat="43.40002010348185" lon="5.918163878342495"><ele>319.0</ele><time>2026-04-18T14:32:14.999Z</time></trkpt><trkpt lat="43.40003414748086" lon="5.918276166673174"><ele>319.0</ele><time>2026-04-18T14:32:15.999Z</time></trkpt><trkpt lat="43.40005688847111" lon="5.91839266920365"><ele>319.0</ele><time>2026-04-18T14:32:16.999Z</time></trkpt><trkpt lat="43.400095766885734" lon="5.9184855941987005"><ele>319.0</ele><time>2026-04-18T14:32:17.999Z</time></trkpt><trkpt lat="43.40016366636329" lon="5.918572492757546"><ele>319.0</ele><time>2026-04-18T14:32:18.999Z</time></trkpt><trkpt lat="43.40025889356896" lon="5.918668613722569"><ele>318.75</ele><time>2026-04-18T14:32:19.999Z</time></trkpt><trkpt lat="43.40035760097533" lon="5.91876534786585"><ele>318.5</ele><time>2026-04-18T14:32:20.999Z</time></trkpt><trkpt lat="43.40044118750473" lon="5.918891317201251"><ele>318.25</ele><time>2026-04-18T14:32:21.999Z</time></trkpt><trkpt lat="43.40053185710911" lon="5.9189873140397475"><ele>318.0</ele><time>2026-04-18T14:32:22.999Z</time></trkpt><trkpt lat="43.40061213177833" lon="5.9190789698069"><ele>318.0</ele><time>2026-04-18T14:32:24Z</time></trkpt><trkpt lat="43.40071531599603" lon="5.919182300383081"><ele>318.0</ele><time>2026-04-18T14:32:25Z</time></trkpt><trkpt lat="43.40083402612009" lon="5.919283382735241"><ele>318.0</ele><time>2026-04-18T14:32:26Z</time></trkpt><trkpt lat="43.40094096455016" lon="5.919388415884346"><ele>318.0</ele><time>2026-04-18T14:32:27Z</time></trkpt><trkpt lat="43.40103541233417" lon="5.919491817659733"><ele>317.75</ele><time>2026-04-18T14:32:28Z</time></trkpt><trkpt lat="43.40113666126251" lon="5.919608597096815"><ele>317.5</ele><time>2026-04-18T14:32:29Z</time></trkpt><trkpt lat="43.40125736989987" lon="5.919743286141679"><ele>317.25</ele><time>2026-04-18T14:32:30Z</time></trkpt><trkpt lat="43.40137828098982" lon="5.919863075578682"><ele>317.0</ele><time>2026-04-18T14:32:31Z</time></trkpt><trkpt lat="43.40148552584532" lon="5.919948734601765"><ele>317.0</ele><time>2026-04-18T14:32:32Z</time></trkpt><trkpt lat="43.401594098882875" lon="5.920036999815061"><ele>317.0</ele><time>2026-04-18T14:32:33Z</time></trkpt><trkpt lat="43.40169109880351" lon="5.920116531074093"><ele>317.0</ele><time>2026-04-18T14:32:34Z</time></trkpt><trkpt lat="43.401781271906906" lon="5.9201937256695105"><ele>317.0</ele><time>2026-04-18T14:32:35Z</time></trkpt><trkpt lat="43.40186462322926" lon="5.920263541660376"><ele>317.0</ele><time>2026-04-18T14:32:36Z</time></trkpt><trkpt lat="43.40195144168578" lon="5.920337563987625"><ele>317.6</ele><time>2026-04-18T14:32:37Z</time></trkpt><trkpt lat="43.40204871667595" lon="5.920399281392446"><ele>318.2</ele><time>2026-04-18T14:32:38Z</time></trkpt><trkpt lat="43.402151203063845" lon="5.920444828471655"><ele>318.8</ele><time>2026-04-18T14:32:39Z</time></trkpt><trkpt lat="43.402243078667055" lon="5.920478501408872"><ele>319.4</ele><time>2026-04-18T14:32:40Z</time></trkpt><trkpt lat="43.402322498827246" lon="5.920524087222986"><ele>320.0</ele><time>2026-04-18T14:32:41Z</time></trkpt><trkpt lat="43.402397693166314" lon="5.920594034970744"><ele>320.0</ele><time>2026-04-18T14:32:42Z</time></trkpt><trkpt lat="43.40246722099975" lon="5.920675600761209"><ele>320.0</ele><time>2026-04-18T14:32:43Z</time></trkpt><trkpt lat="43.402517791412635" lon="5.920769384033428"><ele>320.0</ele><time>2026-04-18T14:32:44Z</time></trkpt><trkpt lat="43.40258021189093" lon="5.920856418659168"><ele>320.0</ele><time>2026-04-18T14:32:45Z</time></trkpt><trkpt lat="43.40267451782793" lon="5.920960793445901"><ele>320.0</ele><time>2026-04-18T14:32:46Z</time></trkpt><trkpt lat="43.40274770568232" lon="5.9211049603131745"><ele>320.0</ele><time>2026-04-18T14:32:47Z</time></trkpt><trkpt lat="43.40282679273621" lon="5.921231534548185"><ele>320.0</ele><time>2026-04-18T14:32:48Z</time></trkpt><trkpt lat="43.40290325655322" lon="5.921353910515537"><ele>320.0</ele><time>2026-04-18T14:32:49Z</time></trkpt><trkpt lat="43.402982516496394" lon="5.921457626295004"><ele>320.0</ele><time>2026-04-18T14:32:50Z</time></trkpt><trkpt lat="43.40301892070803" lon="5.921572612554853"><ele>320.0</ele><time>2026-04-18T14:32:51Z</time></trkpt><trkpt lat="43.403050409645346" lon="5.921677366740146"><ele>318.0</ele><time>2026-04-18T14:32:52Z</time></trkpt><trkpt lat="43.40308694336607" lon="5.921779648660148"><ele>316.0</ele><time>2026-04-18T14:32:53Z</time></trkpt><trkpt lat="43.40310080500228" lon="5.9218795949647225"><ele>314.0</ele><time>2026-04-18T14:32:54Z</time></trkpt><trkpt lat="43.403121503110945" lon="5.921982604983429"><ele>312.0</ele><time>2026-04-18T14:32:56Z</time></trkpt><trkpt lat="43.40326010040361" lon="5.922060851708515"><ele>310.0</ele><time>2026-04-18T14:32:59Z</time></trkpt><trkpt lat="43.403350694153296" lon="5.922088858603315"><ele>310.0</ele><time>2026-04-18T14:33:00Z</time></trkpt><trkpt lat="43.40341491486209" lon="5.92208212504646"><ele>310.0</ele><time>2026-04-18T14:33:01Z</time></trkpt><trkpt lat="43.403457244418945" lon="5.9220176636501725"><ele>310.0</ele><time>2026-04-18T14:33:02Z</time></trkpt><trkpt lat="43.40353969853814" lon="5.921868974573884"><ele>310.0</ele><time>2026-04-18T14:33:04Z</time></trkpt><trkpt lat="43.40361317901817" lon="5.921758264192606"><ele>310.0</ele><time>2026-04-18T14:33:05Z</time></trkpt><trkpt lat="43.40369810959965" lon="5.921632055590446"><ele>310.5</ele><time>2026-04-18T14:33:06Z</time></trkpt><trkpt lat="43.4037761764121" lon="5.92148763058945"><ele>311.0</ele><time>2026-04-18T14:33:07Z</time></trkpt><trkpt lat="43.40385450898923" lon="5.921366503822988"><ele>311.5</ele><time>2026-04-18T14:33:08Z</time></trkpt><trkpt lat="43.40391468218509" lon="5.921234917655421"><ele>312.0</ele><time>2026-04-18T14:33:09Z</time></trkpt><trkpt lat="43.40397680947746" lon="5.921104275379715"><ele>311.25</ele><time>2026-04-18T14:33:10Z</time></trkpt><trkpt lat="43.40406457928655" lon="5.92100145169902"><ele>310.5</ele><time>2026-04-18T14:33:11Z</time></trkpt><trkpt lat="43.40417953164878" lon="5.920880189710624"><ele>309.75</ele><time>2026-04-18T14:33:12Z</time></trkpt><trkpt lat="43.40430107393205" lon="5.920748350021141"><ele>309.0</ele><time>2026-04-18T14:33:13Z</time></trkpt><trkpt lat="43.40443334926867" lon="5.920631533911293"><ele>309.0</ele><time>2026-04-18T14:33:14Z</time></trkpt><trkpt lat="43.40454088686041" lon="5.920484308083271"><ele>309.0</ele><time>2026-04-18T14:33:15Z</time></trkpt><trkpt lat="43.40465811587445" lon="5.920374870832556"><ele>309.0</ele><time>2026-04-18T14:33:16Z</time></trkpt><trkpt lat="43.40474298861747" lon="5.920245286684481"><ele>309.0</ele><time>2026-04-18T14:33:17Z</time></trkpt><trkpt lat="43.40481546969816" lon="5.920166413830611"><ele>310.59999999999997</ele><time>2026-04-18T14:33:18Z</time></trkpt><trkpt lat="43.40488656586378" lon="5.920131146543912"><ele>312.2</ele><time>2026-04-18T14:33:19Z</time></trkpt><trkpt lat="43.40495665178776" lon="5.92008588670869"><ele>313.79999999999995</ele><time>2026-04-18T14:33:20Z</time></trkpt><trkpt lat="43.40506079358136" lon="5.920043688525083"><ele>315.4</ele><time>2026-04-18T14:33:21Z</time></trkpt><trkpt lat="43.405193560962424" lon="5.919985692743911"><ele>317.0</ele><time>2026-04-18T14:33:22Z</time></trkpt><trkpt lat="43.405318560054646" lon="5.919884257254156"><ele>314.2</ele><time>2026-04-18T14:33:23Z</time></trkpt><trkpt lat="43.4054340540579" lon="5.919827920604234"><ele>311.4</ele><time>2026-04-18T14:33:24Z</time></trkpt><trkpt lat="43.405523478049524" lon="5.919778745880196"><ele>308.6</ele><time>2026-04-18T14:33:25Z</time></trkpt><trkpt lat="43.405602883819" lon="5.919748828151152"><ele>305.8</ele><time>2026-04-18T14:33:26Z</time></trkpt><trkpt lat="43.40568874328418" lon="5.9197116985569505"><ele>303.0</ele><time>2026-04-18T14:33:27Z</time></trkpt><trkpt lat="43.40578274569896" lon="5.919705645079914"><ele>303.0</ele><time>2026-04-18T14:33:28Z</time></trkpt><trkpt lat="43.40587786145082" lon="5.919684378945684"><ele>303.0</ele><time>2026-04-18T14:33:29Z</time></trkpt><trkpt lat="43.405965138698136" lon="5.919676085590655"><ele>303.0</ele><time>2026-04-18T14:33:30Z</time></trkpt><trkpt lat="43.40603650282214" lon="5.919621010568039"><ele>303.0</ele><time>2026-04-18T14:33:31Z</time></trkpt><trkpt lat="43.40606740717999" lon="5.919528009134005"><ele>303.0</ele><time>2026-04-18T14:33:32Z</time></trkpt><trkpt lat="43.40614133029284" lon="5.919452683868965"><ele>303.0</ele><time>2026-04-18T14:33:34Z</time></trkpt><trkpt lat="43.4062515446196" lon="5.919492631005638"><ele>303.0</ele><time>2026-04-18T14:33:39Z</time></trkpt><trkpt lat="43.406298021978095" lon="5.919565871216302"><ele>303.0</ele><time>2026-04-18T14:33:40Z</time></trkpt><trkpt lat="43.40636358721314" lon="5.919654615119741"><ele>303.0</ele><time>2026-04-18T14:33:42Z</time></trkpt><trkpt lat="43.406447631663845" lon="5.9197529301268075"><ele>303.0</ele><time>2026-04-18T14:33:44Z</time></trkpt><trkpt lat="43.40650815779227" lon="5.919799073075531"><ele>303.0</ele><time>2026-04-18T14:33:45Z</time></trkpt><trkpt lat="43.40662712602041" lon="5.919532065437736"><ele>302.6</ele><time>2026-04-18T14:33:55.999Z</time></trkpt><trkpt lat="43.4066751020778" lon="5.919403161364426"><ele>302.20000000000005</ele><time>2026-04-18T14:33:56.999Z</time></trkpt><trkpt lat="43.40671229498818" lon="5.919227057323129"><ele>301.8</ele><time>2026-04-18T14:33:58.999Z</time></trkpt><trkpt lat="43.40674792128865" lon="5.919128510169805"><ele>301.40000000000003</ele><time>2026-04-18T14:33:59.999Z</time></trkpt><trkpt lat="43.40677482500852" lon="5.919034323486214"><ele>301.0</ele><time>2026-04-18T14:34:00.999Z</time></trkpt><trkpt lat="43.4068126927748" lon="5.9188302743762495"><ele>301.8</ele><time>2026-04-18T14:34:02.999Z</time></trkpt><trkpt lat="43.40682193168149" lon="5.9187005824579355"><ele>302.6</ele><time>2026-04-18T14:34:03.999Z</time></trkpt><trkpt lat="43.40684250770362" lon="5.918601147343677"><ele>303.4</ele><time>2026-04-18T14:34:04.999Z</time></trkpt><trkpt lat="43.40685580683483" lon="5.918504153752863"><ele>304.2</ele><time>2026-04-18T14:34:05.999Z</time></trkpt><trkpt lat="43.40688418624108" lon="5.918410719236453"><ele>305.0</ele><time>2026-04-18T14:34:06.999Z</time></trkpt><trkpt lat="43.40699863194306" lon="5.918290822106237"><ele>306.25</ele><time>2026-04-18T14:34:08.999Z</time></trkpt><trkpt lat="43.40704628244616" lon="5.918228570668106"><ele>307.5</ele><time>2026-04-18T14:34:09.999Z</time></trkpt><trkpt lat="43.40711590444169" lon="5.918111022541171"><ele>308.75</ele><time>2026-04-18T14:34:11.999Z</time></trkpt><trkpt lat="43.407211836759764" lon="5.917843261464636"><ele>310.0</ele><time>2026-04-18T14:34:13.999Z</time></trkpt><trkpt lat="43.40727386299091" lon="5.917774438057107"><ele>312.2</ele><time>2026-04-18T14:34:14.999Z</time></trkpt><trkpt lat="43.407327642147045" lon="5.917712067438397"><ele>314.4</ele><time>2026-04-18T14:34:15.999Z</time></trkpt><trkpt lat="43.407370207620744" lon="5.917622162602679"><ele>316.6</ele><time>2026-04-18T14:34:16.999Z</time></trkpt><trkpt lat="43.40741033400876" lon="5.91751357635093"><ele>318.8</ele><time>2026-04-18T14:34:17.999Z</time></trkpt><trkpt lat="43.40746873964226" lon="5.917329944003828"><ele>321.0</ele><time>2026-04-18T14:34:18.999Z</time></trkpt><trkpt lat="43.4075321838822" lon="5.917198024365609"><ele>321.0</ele><time>2026-04-18T14:34:19.999Z</time></trkpt><trkpt lat="43.40757622029461" lon="5.917094142685437"><ele>321.0</ele><time>2026-04-18T14:34:20.999Z</time></trkpt><trkpt lat="43.40761164576299" lon="5.917003014299996"><ele>321.0</ele><time>2026-04-18T14:34:21.999Z</time></trkpt><trkpt lat="43.407661452566444" lon="5.916924611907819"><ele>321.0</ele><time>2026-04-18T14:34:23.999Z</time></trkpt><trkpt lat="43.407702880004386" lon="5.91684509099253"><ele>321.0</ele><time>2026-04-18T14:34:24.999Z</time></trkpt><trkpt lat="43.40774976693056" lon="5.9167576778174125"><ele>321.0</ele><time>2026-04-18T14:34:25.999Z</time></trkpt><trkpt lat="43.40780522473222" lon="5.916647636782091"><ele>321.0</ele><time>2026-04-18T14:34:26.999Z</time></trkpt><trkpt lat="43.4078495341018" lon="5.916522208358163"><ele>321.0</ele><time>2026-04-18T14:34:27.999Z</time></trkpt><trkpt lat="43.40787012573734" lon="5.916402067815298"><ele>321.0</ele><time>2026-04-18T14:34:28.999Z</time></trkpt><trkpt lat="43.407894234569255" lon="5.916290232557028"><ele>321.0</ele><time>2026-04-18T14:34:30Z</time></trkpt><trkpt lat="43.40792764345087" lon="5.916192304889033"><ele>321.0</ele><time>2026-04-18T14:34:31Z</time></trkpt><trkpt lat="43.407964631596855" lon="5.916094610911271"><ele>321.0</ele><time>2026-04-18T14:34:32Z</time></trkpt><trkpt lat="43.4079954038064" lon="5.915987091355536"><ele>320.8</ele><time>2026-04-18T14:34:33Z</time></trkpt><trkpt lat="43.408029988415024" lon="5.91584920356455"><ele>320.6</ele><time>2026-04-18T14:34:34Z</time></trkpt><trkpt lat="43.40807707556783" lon="5.915703274396261"><ele>320.4</ele><time>2026-04-18T14:34:35Z</time></trkpt><trkpt lat="43.408122289639145" lon="5.9155520393698335"><ele>320.2</ele><time>2026-04-18T14:34:36Z</time></trkpt><trkpt lat="43.408168263672806" lon="5.9154283580090175"><ele>320.0</ele><time>2026-04-18T14:34:37Z</time></trkpt><trkpt lat="43.40821408553566" lon="5.91531655031875"><ele>320.0</ele><time>2026-04-18T14:34:38Z</time></trkpt><trkpt lat="43.40825094748905" lon="5.915212981147828"><ele>320.0</ele><time>2026-04-18T14:34:39Z</time></trkpt><trkpt lat="43.40827806803302" lon="5.915108050215986"><ele>320.0</ele><time>2026-04-18T14:34:40Z</time></trkpt><trkpt lat="43.4083020921183" lon="5.915009102410786"><ele>320.0</ele><time>2026-04-18T14:34:41Z</time></trkpt><trkpt lat="43.40833498813545" lon="5.914913352961355"><ele>320.0</ele><time>2026-04-18T14:34:42Z</time></trkpt><trkpt lat="43.4083542743266" lon="5.914824510306912"><ele>320.0</ele><time>2026-04-18T14:34:43Z</time></trkpt><trkpt lat="43.40835945431017" lon="5.914735317040453"><ele>319.8</ele><time>2026-04-18T14:34:44Z</time></trkpt><trkpt lat="43.408360818668235" lon="5.914644981214953"><ele>319.6</ele><time>2026-04-18T14:34:45Z</time></trkpt><trkpt lat="43.40837642192637" lon="5.914472938856722"><ele>319.4</ele><time>2026-04-18T14:34:47Z</time></trkpt><trkpt lat="43.408381712137995" lon="5.914356054321145"><ele>319.2</ele><time>2026-04-18T14:34:48Z</time></trkpt><trkpt lat="43.40839722719078" lon="5.91422267665067"><ele>319.0</ele><time>2026-04-18T14:34:49Z</time></trkpt><trkpt lat="43.408420683193626" lon="5.914095719901327"><ele>318.5</ele><time>2026-04-18T14:34:50Z</time></trkpt><trkpt lat="43.40844205132965" lon="5.913974939466025"><ele>318.0</ele><time>2026-04-18T14:34:51Z</time></trkpt><trkpt lat="43.408469430816865" lon="5.913854807972577"><ele>317.5</ele><time>2026-04-18T14:34:52Z</time></trkpt><trkpt lat="43.40850319398906" lon="5.913741821871282"><ele>317.0</ele><time>2026-04-18T14:34:53Z</time></trkpt><trkpt lat="43.408531445926926" lon="5.913632423447107"><ele>316.5</ele><time>2026-04-18T14:34:54Z</time></trkpt><trkpt lat="43.40855888261044" lon="5.913523864909998"><ele>316.0</ele><time>2026-04-18T14:34:55Z</time></trkpt><trkpt lat="43.40858617412901" lon="5.913424392544331"><ele>315.8333333333333</ele><time>2026-04-18T14:34:56Z</time></trkpt><trkpt lat="43.408622060114325" lon="5.91328054896917"><ele>315.66666666666663</ele><time>2026-04-18T14:34:58Z</time></trkpt><trkpt lat="43.408646913942285" lon="5.913175665298488"><ele>315.5</ele><time>2026-04-18T14:35:00Z</time></trkpt><trkpt lat="43.40868316232205" lon="5.91306579237098"><ele>315.3333333333333</ele><time>2026-04-18T14:35:03Z</time></trkpt><trkpt lat="43.40867585216545" lon="5.912976416048958"><ele>315.1666666666667</ele><time>2026-04-18T14:35:30Z</time></trkpt><trkpt lat="43.40869064409751" lon="5.91288666778821"><ele>315.0</ele><time>2026-04-18T14:35:36Z</time></trkpt><trkpt lat="43.40874445097409" lon="5.912822056804737"><ele>315.0</ele><time>2026-04-18T14:35:40Z</time></trkpt><trkpt lat="43.40882493579643" lon="5.912869601487836"><ele>315.0</ele><time>2026-04-18T14:35:43.999Z</time></trkpt><trkpt lat="43.40920742017825" lon="5.912605910783601"><ele>315.1666666666667</ele><time>2026-04-18T14:35:46.999Z</time></trkpt><trkpt lat="43.40927953401215" lon="5.91259084269731"><ele>315.3333333333333</ele><time>2026-04-18T14:35:47.999Z</time></trkpt><trkpt lat="43.409355384393095" lon="5.912577632780444"><ele>315.5</ele><time>2026-04-18T14:35:48.999Z</time></trkpt><trkpt lat="43.4094186139863" lon="5.912572946284034"><ele>315.66666666666663</ele><time>2026-04-18T14:35:49.999Z</time></trkpt><trkpt lat="43.4095185313521" lon="5.912535981654501"><ele>315.8333333333333</ele><time>2026-04-18T14:35:51.999Z</time></trkpt><trkpt lat="43.409611483268904" lon="5.912495282200341"><ele>316.0</ele><time>2026-04-18T14:35:53.999Z</time></trkpt><trkpt lat="43.40969803650562" lon="5.912477996270278"><ele>313.0</ele><time>2026-04-18T14:35:56.999Z</time></trkpt><trkpt lat="43.40976584447189" lon="5.912385637070485"><ele>310.0</ele><time>2026-04-18T14:35:58.999Z</time></trkpt><trkpt lat="43.40981722846662" lon="5.912286565735264"><ele>307.0</ele><time>2026-04-18T14:36:00.999Z</time></trkpt><trkpt lat="43.40987068836851" lon="5.912217855000372"><ele>304.0</ele><time>2026-04-18T14:36:01.999Z</time></trkpt><trkpt lat="43.40993645830384" lon="5.912192429150875"><ele>301.0</ele><time>2026-04-18T14:36:03.999Z</time></trkpt><trkpt lat="43.410016461487736" lon="5.912215396873673"><ele>298.0</ele><time>2026-04-18T14:36:05.999Z</time></trkpt><trkpt lat="43.41009220585568" lon="5.912270165749398"><ele>298.0</ele><time>2026-04-18T14:36:06.999Z</time></trkpt><trkpt lat="43.41019455763358" lon="5.912354614907098"><ele>298.0</ele><time>2026-04-18T14:36:07.999Z</time></trkpt><trkpt lat="43.410313151194664" lon="5.912467310253086"><ele>298.0</ele><time>2026-04-18T14:36:08.999Z</time></trkpt><trkpt lat="43.410440329961894" lon="5.912591610031661"><ele>298.0</ele><time>2026-04-18T14:36:09.999Z</time></trkpt><trkpt lat="43.41055534383392" lon="5.912711590335695"><ele>297.66666666666663</ele><time>2026-04-18T14:36:10.999Z</time></trkpt><trkpt lat="43.41064346873277" lon="5.912808063213223"><ele>297.3333333333333</ele><time>2026-04-18T14:36:11.999Z</time></trkpt><trkpt lat="43.41072131868625" lon="5.912883612768728"><ele>297.0</ele><time>2026-04-18T14:36:12.999Z</time></trkpt><trkpt lat="43.41079662765283" lon="5.912945677912025"><ele>296.6666666666667</ele><time>2026-04-18T14:36:13.999Z</time></trkpt><trkpt lat="43.410863940100484" lon="5.91299101683099"><ele>296.33333333333337</ele><time>2026-04-18T14:36:14.999Z</time></trkpt><trkpt lat="43.41091632242479" lon="5.913042843239829"><ele>296.0</ele><time>2026-04-18T14:36:15.999Z</time></trkpt><trkpt lat="43.41097570062903" lon="5.913133694380984"><ele>296.0</ele><time>2026-04-18T14:36:16.999Z</time></trkpt><trkpt lat="43.41105104119265" lon="5.913240801597089"><ele>296.0</ele><time>2026-04-18T14:36:17.999Z</time></trkpt><trkpt lat="43.41115254282397" lon="5.913368725737267"><ele>296.0</ele><time>2026-04-18T14:36:18.999Z</time></trkpt><trkpt lat="43.41125371493443" lon="5.913498628974007"><ele>296.0</ele><time>2026-04-18T14:36:19.999Z</time></trkpt><trkpt lat="43.41134122627539" lon="5.913608602059503"><ele>296.2</ele><time>2026-04-18T14:36:20.999Z</time></trkpt><trkpt lat="43.411412002481626" lon="5.913702062812557"><ele>296.40000000000003</ele><time>2026-04-18T14:36:21.999Z</time></trkpt><trkpt lat="43.41147985927505" lon="5.913791337416252"><ele>296.6</ele><time>2026-04-18T14:36:22.999Z</time></trkpt><trkpt lat="43.411550209261875" lon="5.913879161155612"><ele>296.8</ele><time>2026-04-18T14:36:23.999Z</time></trkpt><trkpt lat="43.411637361585306" lon="5.9140010615823275"><ele>297.0</ele><time>2026-04-18T14:36:24.999Z</time></trkpt><trkpt lat="43.41174652713031" lon="5.914137355275327"><ele>297.0</ele><time>2026-04-18T14:36:25.999Z</time></trkpt><trkpt lat="43.41186364199776" lon="5.914274121154676"><ele>297.0</ele><time>2026-04-18T14:36:26.999Z</time></trkpt><trkpt lat="43.411965368841024" lon="5.91440714784836"><ele>297.0</ele><time>2026-04-18T14:36:27.999Z</time></trkpt><trkpt lat="43.412078663213514" lon="5.914549280049481"><ele>297.0</ele><time>2026-04-18T14:36:28.999Z</time></trkpt><trkpt lat="43.41220776892072" lon="5.91471287487039"><ele>297.0</ele><time>2026-04-18T14:36:29.999Z</time></trkpt><trkpt lat="43.41233237335621" lon="5.91488023884948"><ele>297.0</ele><time>2026-04-18T14:36:30.999Z</time></trkpt><trkpt lat="43.41245995356363" lon="5.915038896302759"><ele>297.0</ele><time>2026-04-18T14:36:31.999Z</time></trkpt><trkpt lat="43.41259622431546" lon="5.915210503165437"><ele>297.0</ele><time>2026-04-18T14:36:32.999Z</time></trkpt><trkpt lat="43.41273610077437" lon="5.915400858824377"><ele>297.0</ele><time>2026-04-18T14:36:33.999Z</time></trkpt><trkpt lat="43.412883748745955" lon="5.915590757038594"><ele>297.0</ele><time>2026-04-18T14:36:34.999Z</time></trkpt><trkpt lat="43.41302002791899" lon="5.915766991447105"><ele>297.3333333333333</ele><time>2026-04-18T14:36:36Z</time></trkpt><trkpt lat="43.41314476933766" lon="5.9159262466268885"><ele>297.66666666666663</ele><time>2026-04-18T14:36:37Z</time></trkpt><trkpt lat="43.413253621133656" lon="5.916069035640023"><ele>298.0</ele><time>2026-04-18T14:36:38Z</time></trkpt><trkpt lat="43.41335904471577" lon="5.916210882905202"><ele>298.0</ele><time>2026-04-18T14:36:39Z</time></trkpt><trkpt lat="43.41346195325971" lon="5.916337785857345"><ele>298.0</ele><time>2026-04-18T14:36:40Z</time></trkpt><trkpt lat="43.41355780275506" lon="5.916457826332472"><ele>298.0</ele><time>2026-04-18T14:36:41Z</time></trkpt><trkpt lat="43.413647243894175" lon="5.916572287619433"><ele>298.0</ele><time>2026-04-18T14:36:42Z</time></trkpt><trkpt lat="43.41372773456536" lon="5.91667891601801"><ele>297.5</ele><time>2026-04-18T14:36:43Z</time></trkpt><trkpt lat="43.41379943477797" lon="5.916772117699947"><ele>297.0</ele><time>2026-04-18T14:36:44Z</time></trkpt><trkpt lat="43.41386335928576" lon="5.91684825827337"><ele>296.5</ele><time>2026-04-18T14:36:45Z</time></trkpt><trkpt lat="43.41391860131325" lon="5.9169501170742045"><ele>296.0</ele><time>2026-04-18T14:36:47Z</time></trkpt><trkpt lat="43.41413282659513" lon="5.916808009929568"><ele>296.6666666666667</ele><time>2026-04-18T14:36:50Z</time></trkpt><trkpt lat="43.41423692122696" lon="5.916796080726664"><ele>297.33333333333337</ele><time>2026-04-18T14:36:51Z</time></trkpt><trkpt lat="43.41433247694259" lon="5.916748554337506"><ele>298.0</ele><time>2026-04-18T14:36:52Z</time></trkpt><trkpt lat="43.41439590057669" lon="5.916675067020876"><ele>298.6666666666667</ele><time>2026-04-18T14:36:53Z</time></trkpt><trkpt lat="43.41443059940371" lon="5.916579009864401"><ele>299.3333333333333</ele><time>2026-04-18T14:36:54Z</time></trkpt><trkpt lat="43.41446296455526" lon="5.916476049873115"><ele>300.0</ele><time>2026-04-18T14:36:55Z</time></trkpt><trkpt lat="43.414495067191346" lon="5.916390499381166"><ele>300.0</ele><time>2026-04-18T14:36:56Z</time></trkpt><trkpt lat="43.41454832389263" lon="5.916323662389741"><ele>300.0</ele><time>2026-04-18T14:36:57Z</time></trkpt><trkpt lat="43.41463065748834" lon="5.91627848574874"><ele>300.0</ele><time>2026-04-18T14:36:58Z</time></trkpt><trkpt lat="43.41473750036638" lon="5.916255692969177"><ele>300.0</ele><time>2026-04-18T14:36:59Z</time></trkpt><trkpt lat="43.41484325347133" lon="5.916226798681771"><ele>300.0</ele><time>2026-04-18T14:37:00Z</time></trkpt><trkpt lat="43.4149325787238" lon="5.916184631408438"><ele>300.3333333333333</ele><time>2026-04-18T14:37:01Z</time></trkpt><trkpt lat="43.41500410467394" lon="5.9161359291842315"><ele>300.6666666666667</ele><time>2026-04-18T14:37:02Z</time></trkpt><trkpt lat="43.415062818296505" lon="5.916086545253011"><ele>301.0</ele><time>2026-04-18T14:37:03Z</time></trkpt><trkpt lat="43.415170305569085" lon="5.916017899828943"><ele>301.33333333333337</ele><time>2026-04-18T14:37:05Z</time></trkpt><trkpt lat="43.41523996550663" lon="5.915975583294943"><ele>301.6666666666667</ele><time>2026-04-18T14:37:06Z</time></trkpt><trkpt lat="43.415321719602346" lon="5.9159239619065085"><ele>302.0</ele><time>2026-04-18T14:37:07Z</time></trkpt><trkpt lat="43.41540692799971" lon="5.9158585545977465"><ele>303.0</ele><time>2026-04-18T14:37:08Z</time></trkpt><trkpt lat="43.41549769229753" lon="5.915777899617744"><ele>304.0</ele><time>2026-04-18T14:37:09Z</time></trkpt><trkpt lat="43.41559320468095" lon="5.915673931004404"><ele>305.0</ele><time>2026-04-18T14:37:10Z</time></trkpt><trkpt lat="43.41569630114549" lon="5.915553949782741"><ele>306.0</ele><time>2026-04-18T14:37:11Z</time></trkpt><trkpt lat="43.41581242264733" lon="5.915427387268808"><ele>306.0</ele><time>2026-04-18T14:37:12Z</time></trkpt><trkpt lat="43.415926841826945" lon="5.915282328147666"><ele>306.0</ele><time>2026-04-18T14:37:13Z</time></trkpt><trkpt lat="43.4160323933615" lon="5.915128091175125"><ele>306.0</ele><time>2026-04-18T14:37:14Z</time></trkpt><trkpt lat="43.41611694144666" lon="5.914993584121394"><ele>306.0</ele><time>2026-04-18T14:37:15Z</time></trkpt><trkpt lat="43.41619876178225" lon="5.914862135344251"><ele>305.75</ele><time>2026-04-18T14:37:16Z</time></trkpt><trkpt lat="43.41626376709956" lon="5.914734487978744"><ele>305.5</ele><time>2026-04-18T14:37:17Z</time></trkpt><trkpt lat="43.41633226777367" lon="5.914607958044905"><ele>305.25</ele><time>2026-04-18T14:37:18Z</time></trkpt><trkpt lat="43.41640313384116" lon="5.914470314451457"><ele>305.0</ele><time>2026-04-18T14:37:19Z</time></trkpt><trkpt lat="43.41646382361348" lon="5.914339705958633"><ele>305.8</ele><time>2026-04-18T14:37:20Z</time></trkpt><trkpt lat="43.41652231273381" lon="5.914222557898233"><ele>306.6</ele><time>2026-04-18T14:37:21Z</time></trkpt><trkpt lat="43.41658598756316" lon="5.914114880400845"><ele>307.4</ele><time>2026-04-18T14:37:22Z</time></trkpt><trkpt lat="43.416653074495464" lon="5.913983857816602"><ele>308.2</ele><time>2026-04-18T14:37:23Z</time></trkpt><trkpt lat="43.416719338771834" lon="5.913843489286456"><ele>309.0</ele><time>2026-04-18T14:37:24Z</time></trkpt><trkpt lat="43.41678081468296" lon="5.913727972601218"><ele>309.0</ele><time>2026-04-18T14:37:25Z</time></trkpt><trkpt lat="43.416840541105195" lon="5.913605774943826"><ele>309.0</ele><time>2026-04-18T14:37:26Z</time></trkpt><trkpt lat="43.41690843942559" lon="5.913471416975959"><ele>309.0</ele><time>2026-04-18T14:37:26.999Z</time></trkpt><trkpt lat="43.41698597454286" lon="5.913323208031099"><ele>309.0</ele><time>2026-04-18T14:37:27.999Z</time></trkpt><trkpt lat="43.41708032276222" lon="5.913148409789756"><ele>307.3333333333333</ele><time>2026-04-18T14:37:28.999Z</time></trkpt><trkpt lat="43.417177293309166" lon="5.912952327433593"><ele>305.66666666666663</ele><time>2026-04-18T14:37:29.999Z</time></trkpt><trkpt lat="43.41728611425457" lon="5.912738044554207"><ele>304.0</ele><time>2026-04-18T14:37:30.999Z</time></trkpt><trkpt lat="43.41740306503942" lon="5.9125247829093155"><ele>303.3333333333333</ele><time>2026-04-18T14:37:31.999Z</time></trkpt><trkpt lat="43.41750187201003" lon="5.912332226844778"><ele>302.6666666666667</ele><time>2026-04-18T14:37:32.999Z</time></trkpt><trkpt lat="43.41759989317231" lon="5.9121336917786245"><ele>302.0</ele><time>2026-04-18T14:37:33.999Z</time></trkpt><trkpt lat="43.417693354473606" lon="5.9119431710323305"><ele>302.0</ele><time>2026-04-18T14:37:34.999Z</time></trkpt><trkpt lat="43.41778090423517" lon="5.91176084316145"><ele>302.0</ele><time>2026-04-18T14:37:35.999Z</time></trkpt><trkpt lat="43.41787644764409" lon="5.9115601822905965"><ele>302.0</ele><time>2026-04-18T14:37:36.999Z</time></trkpt><trkpt lat="43.417967076217586" lon="5.911361410948903"><ele>303.0</ele><time>2026-04-18T14:37:37.999Z</time></trkpt><trkpt lat="43.418059542423364" lon="5.911162661128372"><ele>304.0</ele><time>2026-04-18T14:37:38.999Z</time></trkpt><trkpt lat="43.418146446976884" lon="5.910975234596219"><ele>305.0</ele><time>2026-04-18T14:37:39.999Z</time></trkpt><trkpt lat="43.418229731534794" lon="5.910794339855632"><ele>306.25</ele><time>2026-04-18T14:37:40.999Z</time></trkpt><trkpt lat="43.41830238028832" lon="5.910633034677171"><ele>307.5</ele><time>2026-04-18T14:37:41.999Z</time></trkpt><trkpt lat="43.41836273886536" lon="5.910490120896862"><ele>308.75</ele><time>2026-04-18T14:37:42.999Z</time></trkpt><trkpt lat="43.418419154303514" lon="5.910353566018522"><ele>310.0</ele><time>2026-04-18T14:37:43.999Z</time></trkpt><trkpt lat="43.418485523832146" lon="5.910210560132659"><ele>310.6</ele><time>2026-04-18T14:37:44.999Z</time></trkpt><trkpt lat="43.41854773464133" lon="5.9100734425061585"><ele>311.2</ele><time>2026-04-18T14:37:45.999Z</time></trkpt><trkpt lat="43.41861005814812" lon="5.9099706877955915"><ele>311.8</ele><time>2026-04-18T14:37:46.999Z</time></trkpt><trkpt lat="43.41866410960394" lon="5.909876451149933"><ele>312.4</ele><time>2026-04-18T14:37:47.999Z</time></trkpt><trkpt lat="43.41871062762388" lon="5.909775870904122"><ele>313.0</ele><time>2026-04-18T14:37:48.999Z</time></trkpt><trkpt lat="43.4187697436003" lon="5.909668001888344"><ele>312.25</ele><time>2026-04-18T14:37:49.999Z</time></trkpt><trkpt lat="43.41883569092909" lon="5.909550965326582"><ele>311.5</ele><time>2026-04-18T14:37:50.999Z</time></trkpt><trkpt lat="43.418908705302094" lon="5.909414824005952"><ele>310.75</ele><time>2026-04-18T14:37:51.999Z</time></trkpt><trkpt lat="43.41898816954007" lon="5.909263443926242"><ele>310.0</ele><time>2026-04-18T14:37:52.999Z</time></trkpt><trkpt lat="43.41907531811946" lon="5.909095906400032"><ele>310.0</ele><time>2026-04-18T14:37:53.999Z</time></trkpt><trkpt lat="43.419162642566675" lon="5.908929003910329"><ele>310.0</ele><time>2026-04-18T14:37:54.999Z</time></trkpt><trkpt lat="43.419236407369496" lon="5.9087694607345504"><ele>310.0</ele><time>2026-04-18T14:37:55.999Z</time></trkpt><trkpt lat="43.41929355593766" lon="5.908623853774922"><ele>310.0</ele><time>2026-04-18T14:37:56.999Z</time></trkpt><trkpt lat="43.41935231004053" lon="5.908489985741947"><ele>309.8</ele><time>2026-04-18T14:37:57.999Z</time></trkpt><trkpt lat="43.41940598401705" lon="5.908367657402967"><ele>309.6</ele><time>2026-04-18T14:37:58.999Z</time></trkpt><trkpt lat="43.41946394535012" lon="5.908241554469339"><ele>309.4</ele><time>2026-04-18T14:37:59.999Z</time></trkpt><trkpt lat="43.41951466633796" lon="5.908131536734267"><ele>309.2</ele><time>2026-04-18T14:38:00.999Z</time></trkpt><trkpt lat="43.41955300007985" lon="5.9080482471354445"><ele>309.0</ele><time>2026-04-18T14:38:01.999Z</time></trkpt><trkpt lat="43.41962669612799" lon="5.908011345270162"><ele>309.8333333333333</ele><time>2026-04-18T14:38:03.999Z</time></trkpt><trkpt lat="43.419684758450444" lon="5.908073674529125"><ele>310.6666666666667</ele><time>2026-04-18T14:38:05.999Z</time></trkpt><trkpt lat="43.41975317769396" lon="5.908162655804864"><ele>311.5</ele><time>2026-04-18T14:38:07.999Z</time></trkpt><trkpt lat="43.41984644901327" lon="5.908212253806335"><ele>312.33333333333337</ele><time>2026-04-18T14:38:12.999Z</time></trkpt><trkpt lat="43.41990908157077" lon="5.908176445772436"><ele>313.1666666666667</ele><time>2026-04-18T14:38:13.999Z</time></trkpt><trkpt lat="43.419963188928804" lon="5.908091674823349"><ele>314.0</ele><time>2026-04-18T14:38:14.999Z</time></trkpt><trkpt lat="43.42000576137422" lon="5.907994728500384"><ele>314.0</ele><time>2026-04-18T14:38:15.999Z</time></trkpt><trkpt lat="43.420052686519924" lon="5.907916202766759"><ele>314.0</ele><time>2026-04-18T14:38:16.999Z</time></trkpt><trkpt lat="43.42010405133953" lon="5.9078621752078275"><ele>314.0</ele><time>2026-04-18T14:38:17.999Z</time></trkpt><trkpt lat="43.4201977608574" lon="5.907786808275504"><ele>314.0</ele><time>2026-04-18T14:38:19.999Z</time></trkpt><trkpt lat="43.42028000064421" lon="5.907741459955112"><ele>314.0</ele><time>2026-04-18T14:38:21.999Z</time></trkpt><trkpt lat="43.42035190581192" lon="5.907744187350378"><ele>314.0</ele><time>2026-04-18T14:38:23.999Z</time></trkpt><trkpt lat="43.42042127997687" lon="5.907720988091592"><ele>314.5</ele><time>2026-04-18T14:38:32.999Z</time></trkpt><trkpt lat="43.420488553677416" lon="5.90769401834061"><ele>315.0</ele><time>2026-04-18T14:38:36.999Z</time></trkpt><trkpt lat="43.420554726640326" lon="5.907704018912981"><ele>315.5</ele><time>2026-04-18T14:38:37.999Z</time></trkpt><trkpt lat="43.4206373036775" lon="5.907692840700767"><ele>316.0</ele><time>2026-04-18T14:38:38.999Z</time></trkpt><trkpt lat="43.420736134507614" lon="5.9076483967471525"><ele>316.5</ele><time>2026-04-18T14:38:39.999Z</time></trkpt><trkpt lat="43.42082254983113" lon="5.9076015077237845"><ele>317.0</ele><time>2026-04-18T14:38:41Z</time></trkpt><trkpt lat="43.42089657164241" lon="5.907570351399413"><ele>316.0</ele><time>2026-04-18T14:38:42Z</time></trkpt><trkpt lat="43.42097727971373" lon="5.907556657262236"><ele>315.0</ele><time>2026-04-18T14:38:43Z</time></trkpt><trkpt lat="43.4210774852345" lon="5.907539851089436"><ele>314.0</ele><time>2026-04-18T14:38:44Z</time></trkpt><trkpt lat="43.421174566648425" lon="5.907503148631913"><ele>313.0</ele><time>2026-04-18T14:38:45Z</time></trkpt><trkpt lat="43.42124786627601" lon="5.9074450645239285"><ele>312.0</ele><time>2026-04-18T14:38:46Z</time></trkpt><trkpt lat="43.42131253446142" lon="5.907397435371004"><ele>311.0</ele><time>2026-04-18T14:38:47Z</time></trkpt><trkpt lat="43.421389012163225" lon="5.907391364612263"><ele>310.83333333333337</ele><time>2026-04-18T14:38:49Z</time></trkpt><trkpt lat="43.42143922087635" lon="5.907324840390319"><ele>310.6666666666667</ele><time>2026-04-18T14:38:51Z</time></trkpt><trkpt lat="43.42152265640904" lon="5.907262219766331"><ele>310.5</ele><time>2026-04-18T14:38:53Z</time></trkpt><trkpt lat="43.421600631806385" lon="5.907252010871958"><ele>310.3333333333333</ele><time>2026-04-18T14:38:54Z</time></trkpt><trkpt lat="43.421669927308976" lon="5.9072486665300135"><ele>310.16666666666663</ele><time>2026-04-18T14:38:55Z</time></trkpt><trkpt lat="43.42174691125864" lon="5.907224849055083"><ele>310.0</ele><time>2026-04-18T14:38:56Z</time></trkpt><trkpt lat="43.42184068210338" lon="5.907164857016225"><ele>310.0</ele><time>2026-04-18T14:38:57Z</time></trkpt><trkpt lat="43.42194014180161" lon="5.907153181824225"><ele>310.0</ele><time>2026-04-18T14:38:58Z</time></trkpt><trkpt lat="43.422029200943705" lon="5.907127620491373"><ele>310.0</ele><time>2026-04-18T14:38:59Z</time></trkpt><trkpt lat="43.422097020055496" lon="5.9070876981468965"><ele>310.0</ele><time>2026-04-18T14:39:00Z</time></trkpt><trkpt lat="43.42216835478017" lon="5.907038563741771"><ele>310.0</ele><time>2026-04-18T14:39:01Z</time></trkpt><trkpt lat="43.422264318337874" lon="5.906986672946316"><ele>310.0</ele><time>2026-04-18T14:39:02Z</time></trkpt><trkpt lat="43.422394239184776" lon="5.906925035228959"><ele>308.75</ele><time>2026-04-18T14:39:03Z</time></trkpt><trkpt lat="43.42253905652719" lon="5.9068740272420674"><ele>307.5</ele><time>2026-04-18T14:39:04Z</time></trkpt><trkpt lat="43.42266133486713" lon="5.906838465120651"><ele>306.25</ele><time>2026-04-18T14:39:05Z</time></trkpt><trkpt lat="43.42276486055054" lon="5.90680717766241"><ele>305.0</ele><time>2026-04-18T14:39:06Z</time></trkpt><trkpt lat="43.422856345262105" lon="5.906776139828983"><ele>305.0</ele><time>2026-04-18T14:39:07Z</time></trkpt><trkpt lat="43.42293950983358" lon="5.906749242026266"><ele>305.0</ele><time>2026-04-18T14:39:08Z</time></trkpt><trkpt lat="43.423013141396254" lon="5.90672708969326"><ele>305.0</ele><time>2026-04-18T14:39:09Z</time></trkpt><trkpt lat="43.423085688757254" lon="5.9067039831671995"><ele>305.0</ele><time>2026-04-18T14:39:10Z</time></trkpt><trkpt lat="43.42316011333565" lon="5.906677595441737"><ele>305.0</ele><time>2026-04-18T14:39:10.999Z</time></trkpt><trkpt lat="43.42322989297577" lon="5.906644366810451"><ele>305.0</ele><time>2026-04-18T14:39:11.999Z</time></trkpt><trkpt lat="43.423302569193424" lon="5.906621456118362"><ele>306.0</ele><time>2026-04-18T14:39:12.999Z</time></trkpt><trkpt lat="43.42338028735395" lon="5.906612011023316"><ele>307.0</ele><time>2026-04-18T14:39:13.999Z</time></trkpt><trkpt lat="43.423452596481326" lon="5.906598276387049"><ele>308.0</ele><time>2026-04-18T14:39:14.999Z</time></trkpt><trkpt lat="43.423534702408375" lon="5.906568828827853"><ele>309.0</ele><time>2026-04-18T14:39:15.999Z</time></trkpt><trkpt lat="43.42361654624513" lon="5.90651968621655"><ele>310.0</ele><time>2026-04-18T14:39:17.999Z</time></trkpt><trkpt lat="43.42369242199557" lon="5.906584289652943"><ele>311.0</ele><time>2026-04-18T14:39:25.999Z</time></trkpt><trkpt lat="43.42377303384894" lon="5.906712780366144"><ele>313.25</ele><time>2026-04-18T14:39:27.999Z</time></trkpt><trkpt lat="43.42383650904569" lon="5.906798278766573"><ele>315.5</ele><time>2026-04-18T14:39:28.999Z</time></trkpt><trkpt lat="43.42390094128107" lon="5.906916074087536"><ele>317.75</ele><time>2026-04-18T14:39:29.999Z</time></trkpt><trkpt lat="43.42397937135133" lon="5.907077603679473"><ele>320.0</ele><time>2026-04-18T14:39:30.999Z</time></trkpt><trkpt lat="43.4240543532522" lon="5.907233735590275"><ele>320.0</ele><time>2026-04-18T14:39:31.999Z</time></trkpt><trkpt lat="43.42408752054111" lon="5.907365225854602"><ele>320.0</ele><time>2026-04-18T14:39:32.999Z</time></trkpt><trkpt lat="43.42410129902756" lon="5.907506883295882"><ele>320.0</ele><time>2026-04-18T14:39:33.999Z</time></trkpt><trkpt lat="43.424107307143785" lon="5.907663922317704"><ele>320.0</ele><time>2026-04-18T14:39:34.999Z</time></trkpt><trkpt lat="43.42412505404629" lon="5.907809461579533"><ele>320.0</ele><time>2026-04-18T14:39:35.999Z</time></trkpt><trkpt lat="43.42415050845557" lon="5.907926164239653"><ele>320.6</ele><time>2026-04-18T14:39:36.999Z</time></trkpt><trkpt lat="43.424188838128515" lon="5.908030125191354"><ele>321.2</ele><time>2026-04-18T14:39:37.999Z</time></trkpt><trkpt lat="43.424238516840845" lon="5.908117680628889"><ele>321.79999999999995</ele><time>2026-04-18T14:39:38.999Z</time></trkpt><trkpt lat="43.424318457917224" lon="5.908202423830136"><ele>322.4</ele><time>2026-04-18T14:39:39.999Z</time></trkpt><trkpt lat="43.424402873813705" lon="5.908315845202265"><ele>323.0</ele><time>2026-04-18T14:39:40.999Z</time></trkpt><trkpt lat="43.4244626716696" lon="5.9084167673351695"><ele>323.0</ele><time>2026-04-18T14:39:41.999Z</time></trkpt><trkpt lat="43.424533621533875" lon="5.908447206844744"><ele>323.0</ele><time>2026-04-18T14:39:42.999Z</time></trkpt><trkpt lat="43.424599694519465" lon="5.90844588573144"><ele>323.0</ele><time>2026-04-18T14:39:43.999Z</time></trkpt><trkpt lat="43.424693632793435" lon="5.9084587279567815"><ele>323.0</ele><time>2026-04-18T14:39:44.999Z</time></trkpt><trkpt lat="43.424802997191556" lon="5.908496940939987"><ele>323.0</ele><time>2026-04-18T14:39:45.999Z</time></trkpt><trkpt lat="43.42490801059141" lon="5.9085032628897824"><ele>321.0</ele><time>2026-04-18T14:39:46.999Z</time></trkpt><trkpt lat="43.42499954452236" lon="5.908524765620983"><ele>319.0</ele><time>2026-04-18T14:39:47.999Z</time></trkpt><trkpt lat="43.425094253827396" lon="5.908572469226064"><ele>317.0</ele><time>2026-04-18T14:39:48.999Z</time></trkpt><trkpt lat="43.425192631763956" lon="5.908612955204225"><ele>315.0</ele><time>2026-04-18T14:39:49.999Z</time></trkpt><trkpt lat="43.42528692117745" lon="5.90867708849831"><ele>313.0</ele><time>2026-04-18T14:39:50.999Z</time></trkpt><trkpt lat="43.425366273757305" lon="5.90872034216375"><ele>313.0</ele><time>2026-04-18T14:39:51.999Z</time></trkpt><trkpt lat="43.425462006622475" lon="5.908745787817872"><ele>313.0</ele><time>2026-04-18T14:39:52.999Z</time></trkpt><trkpt lat="43.42555620217637" lon="5.908779151057863"><ele>313.0</ele><time>2026-04-18T14:39:53.999Z</time></trkpt><trkpt lat="43.42565035905968" lon="5.908814855666942"><ele>313.0</ele><time>2026-04-18T14:39:54.999Z</time></trkpt><trkpt lat="43.42573202959342" lon="5.908851995404447"><ele>313.0</ele><time>2026-04-18T14:39:55.999Z</time></trkpt><trkpt lat="43.42580356963358" lon="5.908899867906857"><ele>312.6</ele><time>2026-04-18T14:39:56.999Z</time></trkpt><trkpt lat="43.42586227462224" lon="5.9089667999393924"><ele>312.20000000000005</ele><time>2026-04-18T14:39:57.999Z</time></trkpt><trkpt lat="43.42593257155217" lon="5.909036070336019"><ele>311.8</ele><time>2026-04-18T14:39:58.999Z</time></trkpt><trkpt lat="43.42601709022102" lon="5.909119355005646"><ele>311.40000000000003</ele><time>2026-04-18T14:39:59.999Z</time></trkpt><trkpt lat="43.42613877436846" lon="5.909211233789979"><ele>311.0</ele><time>2026-04-18T14:40:00.999Z</time></trkpt><trkpt lat="43.42623246658607" lon="5.909258410420105"><ele>311.0</ele><time>2026-04-18T14:40:01.999Z</time></trkpt><trkpt lat="43.42633102429256" lon="5.909316187719299"><ele>311.0</ele><time>2026-04-18T14:40:02.999Z</time></trkpt><trkpt lat="43.42640422291084" lon="5.909387481239418"><ele>311.0</ele><time>2026-04-18T14:40:03.999Z</time></trkpt><trkpt lat="43.426470800402925" lon="5.9094656796038345"><ele>311.0</ele><time>2026-04-18T14:40:04.999Z</time></trkpt><trkpt lat="43.426517889551874" lon="5.909557339227326"><ele>311.0</ele><time>2026-04-18T14:40:05.999Z</time></trkpt><trkpt lat="43.42654208325416" lon="5.909665207581446"><ele>311.0</ele><time>2026-04-18T14:40:06.999Z</time></trkpt><trkpt lat="43.426563275408014" lon="5.909795962779037"><ele>311.0</ele><time>2026-04-18T14:40:07.999Z</time></trkpt><trkpt lat="43.42658969163036" lon="5.909932324941373"><ele>311.0</ele><time>2026-04-18T14:40:08.999Z</time></trkpt><trkpt lat="43.426625157779704" lon="5.91005082637746"><ele>311.0</ele><time>2026-04-18T14:40:09.999Z</time></trkpt><trkpt lat="43.426656941909144" lon="5.910155166868556"><ele>311.0</ele><time>2026-04-18T14:40:10.999Z</time></trkpt><trkpt lat="43.426688677464824" lon="5.910273768828236"><ele>311.0</ele><time>2026-04-18T14:40:11.999Z</time></trkpt><trkpt lat="43.426679536018526" lon="5.910388557455312"><ele>310.8</ele><time>2026-04-18T14:40:12.999Z</time></trkpt><trkpt lat="43.42668773571927" lon="5.91050188425173"><ele>310.6</ele><time>2026-04-18T14:40:13.999Z</time></trkpt><trkpt lat="43.426704304994985" lon="5.910625760465155"><ele>310.4</ele><time>2026-04-18T14:40:14.999Z</time></trkpt><trkpt lat="43.4267422442893" lon="5.9107415543973145"><ele>310.2</ele><time>2026-04-18T14:40:15.999Z</time></trkpt><trkpt lat="43.42677632817209" lon="5.910875311409619"><ele>310.0</ele><time>2026-04-18T14:40:16.999Z</time></trkpt><trkpt lat="43.4267891690102" lon="5.911005289711591"><ele>309.16666666666663</ele><time>2026-04-18T14:40:17.999Z</time></trkpt><trkpt lat="43.426797973115356" lon="5.911134952869769"><ele>308.3333333333333</ele><time>2026-04-18T14:40:18.999Z</time></trkpt><trkpt lat="43.426826449966136" lon="5.9112474379819"><ele>307.5</ele><time>2026-04-18T14:40:19.999Z</time></trkpt><trkpt lat="43.42686342411486" lon="5.911325852540143"><ele>306.6666666666667</ele><time>2026-04-18T14:40:20.999Z</time></trkpt><trkpt lat="43.42689570787349" lon="5.911410970904187"><ele>305.83333333333337</ele><time>2026-04-18T14:40:21.999Z</time></trkpt><trkpt lat="43.42696768161086" lon="5.9114721921064195"><ele>305.0</ele><time>2026-04-18T14:40:23.999Z</time></trkpt><trkpt lat="43.42702206267405" lon="5.911588949995156"><ele>305.0</ele><time>2026-04-18T14:40:28.999Z</time></trkpt><trkpt lat="43.42708921724768" lon="5.911633446530856"><ele>305.0</ele><time>2026-04-18T14:40:29.999Z</time></trkpt><trkpt lat="43.42716861042296" lon="5.911680180397602"><ele>305.0</ele><time>2026-04-18T14:40:30.999Z</time></trkpt><trkpt lat="43.427235645039445" lon="5.911785456925572"><ele>305.0</ele><time>2026-04-18T14:40:32.999Z</time></trkpt><trkpt lat="43.427209874392446" lon="5.9119736824493"><ele>305.0</ele><time>2026-04-18T14:40:34.999Z</time></trkpt><trkpt lat="43.42718735716738" lon="5.912108367122575"><ele>304.4</ele><time>2026-04-18T14:40:35.999Z</time></trkpt><trkpt lat="43.42716907343749" lon="5.912249177868423"><ele>303.8</ele><time>2026-04-18T14:40:36.999Z</time></trkpt><trkpt lat="43.42715782300185" lon="5.912379694457109"><ele>303.2</ele><time>2026-04-18T14:40:37.999Z</time></trkpt><trkpt lat="43.42716420025354" lon="5.912487772086313"><ele>302.6</ele><time>2026-04-18T14:40:38.999Z</time></trkpt><trkpt lat="43.4271968221648" lon="5.91256827682208"><ele>302.0</ele><time>2026-04-18T14:40:39.999Z</time></trkpt><trkpt lat="43.427283537157145" lon="5.91267918825587"><ele>305.0</ele><time>2026-04-18T14:40:41.999Z</time></trkpt><trkpt lat="43.42737431084762" lon="5.912699464394479"><ele>308.0</ele><time>2026-04-18T14:40:42.999Z</time></trkpt><trkpt lat="43.427490020367074" lon="5.912726437427527"><ele>311.0</ele><time>2026-04-18T14:40:43.999Z</time></trkpt><trkpt lat="43.42762075787264" lon="5.912795706167587"><ele>314.0</ele><time>2026-04-18T14:40:44.999Z</time></trkpt><trkpt lat="43.42773889955883" lon="5.9128906994449375"><ele>314.0</ele><time>2026-04-18T14:40:45.999Z</time></trkpt><trkpt lat="43.42783373692721" lon="5.9129629561925166"><ele>314.0</ele><time>2026-04-18T14:40:46.999Z</time></trkpt><trkpt lat="43.42792531347715" lon="5.913001712845778"><ele>314.0</ele><time>2026-04-18T14:40:47.999Z</time></trkpt><trkpt lat="43.42804350483263" lon="5.913025939000234"><ele>314.0</ele><time>2026-04-18T14:40:48.999Z</time></trkpt><trkpt lat="43.42820970011747" lon="5.913018116003055"><ele>310.6666666666667</ele><time>2026-04-18T14:40:49.999Z</time></trkpt><trkpt lat="43.428390932367215" lon="5.9130332684872"><ele>307.3333333333333</ele><time>2026-04-18T14:40:50.999Z</time></trkpt><trkpt lat="43.42854193898956" lon="5.913054984163536"><ele>304.0</ele><time>2026-04-18T14:40:51.999Z</time></trkpt><trkpt lat="43.42867567103733" lon="5.913069999629153"><ele>304.0</ele><time>2026-04-18T14:40:52.999Z</time></trkpt><trkpt lat="43.42878537270464" lon="5.913074916665684"><ele>304.0</ele><time>2026-04-18T14:40:53.999Z</time></trkpt><trkpt lat="43.42885511342409" lon="5.913085179296787"><ele>304.0</ele><time>2026-04-18T14:40:54.999Z</time></trkpt><trkpt lat="43.42892348350849" lon="5.913179143037206"><ele>304.0</ele><time>2026-04-18T14:40:56.999Z</time></trkpt><trkpt lat="43.428959308331756" lon="5.913308317856509"><ele>304.0</ele><time>2026-04-18T14:40:57.999Z</time></trkpt><trkpt lat="43.42898379334278" lon="5.9134744672474495"><ele>305.2</ele><time>2026-04-18T14:40:58.999Z</time></trkpt><trkpt lat="43.42901726349002" lon="5.913614537252677"><ele>306.4</ele><time>2026-04-18T14:40:59.999Z</time></trkpt><trkpt lat="43.42907371164358" lon="5.913726850625056"><ele>307.6</ele><time>2026-04-18T14:41:00.999Z</time></trkpt><trkpt lat="43.42916947001626" lon="5.913827135456277"><ele>308.8</ele><time>2026-04-18T14:41:01.999Z</time></trkpt><trkpt lat="43.42924477616529" lon="5.913920051325011"><ele>310.0</ele><time>2026-04-18T14:41:02.999Z</time></trkpt><trkpt lat="43.42929916625347" lon="5.914032548958488"><ele>310.0</ele><time>2026-04-18T14:41:04.999Z</time></trkpt><trkpt lat="43.42938709946093" lon="5.914012426228717"><ele>310.0</ele><time>2026-04-18T14:41:07.999Z</time></trkpt><trkpt lat="43.42946452014512" lon="5.9138956988990525"><ele>310.0</ele><time>2026-04-18T14:41:10.999Z</time></trkpt><trkpt lat="43.42947057723952" lon="5.913775484295883"><ele>310.0</ele><time>2026-04-18T14:41:11.999Z</time></trkpt><trkpt lat="43.429480823877135" lon="5.913674631155946"><ele>310.0</ele><time>2026-04-18T14:41:12.999Z</time></trkpt><trkpt lat="43.42954565481543" lon="5.913622077302789"><ele>310.0</ele><time>2026-04-18T14:41:17.999Z</time></trkpt><trkpt lat="43.42957867130097" lon="5.91354635835112"><ele>312.3333333333333</ele><time>2026-04-18T14:41:24.999Z</time></trkpt><trkpt lat="43.429871665396696" lon="5.9136396048182185"><ele>314.6666666666667</ele><time>2026-04-18T14:41:25.999Z</time></trkpt><trkpt lat="43.42996204233963" lon="5.91365187893704"><ele>317.0</ele><time>2026-04-18T14:41:26.999Z</time></trkpt><trkpt lat="43.43008291765436" lon="5.91365633462979"><ele>317.0</ele><time>2026-04-18T14:41:27.999Z</time></trkpt><trkpt lat="43.4302000910713" lon="5.913665150488053"><ele>317.0</ele><time>2026-04-18T14:41:29Z</time></trkpt><trkpt lat="43.43030660048361" lon="5.913702943293693"><ele>317.0</ele><time>2026-04-18T14:41:30Z</time></trkpt><trkpt lat="43.43042043466112" lon="5.913743435907204"><ele>317.0</ele><time>2026-04-18T14:41:31Z</time></trkpt><trkpt lat="43.43053787289691" lon="5.913785799269815"><ele>319.0</ele><time>2026-04-18T14:41:32Z</time></trkpt><trkpt lat="43.43062361193949" lon="5.9137793602525335"><ele>321.0</ele><time>2026-04-18T14:41:33Z</time></trkpt><trkpt lat="43.4307183801257" lon="5.913756466365965"><ele>323.0</ele><time>2026-04-18T14:41:34Z</time></trkpt><trkpt lat="43.43088462934186" lon="5.913705154074399"><ele>325.0</ele><time>2026-04-18T14:41:35Z</time></trkpt><trkpt lat="43.43105018840326" lon="5.913675790358221"><ele>325.0</ele><time>2026-04-18T14:41:36Z</time></trkpt><trkpt lat="43.4311821104161" lon="5.913633373226816"><ele>325.0</ele><time>2026-04-18T14:41:37Z</time></trkpt><trkpt lat="43.43131518294196" lon="5.913598350179772"><ele>325.0</ele><time>2026-04-18T14:41:38Z</time></trkpt><trkpt lat="43.431443119070785" lon="5.913562034473015"><ele>325.0</ele><time>2026-04-18T14:41:39Z</time></trkpt><trkpt lat="43.43154001228491" lon="5.913538723298203"><ele>325.8</ele><time>2026-04-18T14:41:40Z</time></trkpt><trkpt lat="43.431642069587504" lon="5.913503604073813"><ele>326.6</ele><time>2026-04-18T14:41:41Z</time></trkpt><trkpt lat="43.43173149472865" lon="5.913472189423937"><ele>327.4</ele><time>2026-04-18T14:41:42Z</time></trkpt><trkpt lat="43.43182386039219" lon="5.913443514185655"><ele>328.2</ele><time>2026-04-18T14:41:43Z</time></trkpt><trkpt lat="43.43190667996789" lon="5.913423444922281"><ele>329.0</ele><time>2026-04-18T14:41:44Z</time></trkpt><trkpt lat="43.43201234142568" lon="5.9134286222913195"><ele>329.0</ele><time>2026-04-18T14:41:45Z</time></trkpt><trkpt lat="43.432116700548534" lon="5.913426903650225"><ele>329.0</ele><time>2026-04-18T14:41:46Z</time></trkpt><trkpt lat="43.43221189076077" lon="5.913408036427412"><ele>329.0</ele><time>2026-04-18T14:41:47Z</time></trkpt><trkpt lat="43.432297198221" lon="5.913375861696366"><ele>329.0</ele><time>2026-04-18T14:41:48Z</time></trkpt><trkpt lat="43.43238659572595" lon="5.913334262152898"><ele>329.0</ele><time>2026-04-18T14:41:49Z</time></trkpt><trkpt lat="43.43251468381708" lon="5.913262766381739"><ele>328.33333333333337</ele><time>2026-04-18T14:41:50Z</time></trkpt><trkpt lat="43.43261483484921" lon="5.9132135534310875"><ele>327.6666666666667</ele><time>2026-04-18T14:41:51Z</time></trkpt><trkpt lat="43.432701607123064" lon="5.913173135817742"><ele>327.0</ele><time>2026-04-18T14:41:52Z</time></trkpt><trkpt lat="43.432778050166185" lon="5.913152982039093"><ele>326.3333333333333</ele><time>2026-04-18T14:41:53Z</time></trkpt><trkpt lat="43.432854099693195" lon="5.913158380709869"><ele>325.66666666666663</ele><time>2026-04-18T14:41:54Z</time></trkpt><trkpt lat="43.432917848137954" lon="5.913164653042337"><ele>325.0</ele><time>2026-04-18T14:41:55Z</time></trkpt><trkpt lat="43.432981857397785" lon="5.913140493947167"><ele>324.66666666666663</ele><time>2026-04-18T14:41:56Z</time></trkpt><trkpt lat="43.433043782052884" lon="5.91311400054781"><ele>324.3333333333333</ele><time>2026-04-18T14:41:57Z</time></trkpt><trkpt lat="43.433105613450536" lon="5.913091008094034"><ele>324.0</ele><time>2026-04-18T14:41:58Z</time></trkpt><trkpt lat="43.43317963311414" lon="5.913083904010246"><ele>323.6666666666667</ele><time>2026-04-18T14:41:59Z</time></trkpt><trkpt lat="43.43325612025109" lon="5.913096910736916"><ele>323.33333333333337</ele><time>2026-04-18T14:42:00Z</time></trkpt><trkpt lat="43.43334737468672" lon="5.913110994010736"><ele>323.0</ele><time>2026-04-18T14:42:01Z</time></trkpt><trkpt lat="43.4334395426991" lon="5.913124130940237"><ele>323.0</ele><time>2026-04-18T14:42:02Z</time></trkpt><trkpt lat="43.433532666890045" lon="5.913148202199202"><ele>323.0</ele><time>2026-04-18T14:42:03Z</time></trkpt><trkpt lat="43.4336207020354" lon="5.913181859747136"><ele>323.0</ele><time>2026-04-18T14:42:04Z</time></trkpt><trkpt lat="43.43370175782624" lon="5.913212513880643"><ele>323.0</ele><time>2026-04-18T14:42:05Z</time></trkpt><trkpt lat="43.43376997054439" lon="5.913258850165772"><ele>323.0</ele><time>2026-04-18T14:42:06Z</time></trkpt><trkpt lat="43.43383177187175" lon="5.913310870401565"><ele>323.0</ele><time>2026-04-18T14:42:07Z</time></trkpt><trkpt lat="43.433897140303" lon="5.913324786929459"><ele>321.5</ele><time>2026-04-18T14:42:08Z</time></trkpt><trkpt lat="43.43397063589657" lon="5.91330950941549"><ele>320.0</ele><time>2026-04-18T14:42:09Z</time></trkpt><trkpt lat="43.434043862764135" lon="5.913301529157339"><ele>318.5</ele><time>2026-04-18T14:42:10Z</time></trkpt><trkpt lat="43.43411888079293" lon="5.9132896262512205"><ele>317.0</ele><time>2026-04-18T14:42:11Z</time></trkpt><trkpt lat="43.43419697815246" lon="5.913275126714534"><ele>315.5</ele><time>2026-04-18T14:42:12Z</time></trkpt><trkpt lat="43.43429655560051" lon="5.913275750021546"><ele>314.0</ele><time>2026-04-18T14:42:13Z</time></trkpt><trkpt lat="43.434416805847846" lon="5.91324747326706"><ele>314.0</ele><time>2026-04-18T14:42:14Z</time></trkpt><trkpt lat="43.43453493951599" lon="5.913194582042879"><ele>314.0</ele><time>2026-04-18T14:42:15Z</time></trkpt><trkpt lat="43.434630990193696" lon="5.913138418132804"><ele>314.0</ele><time>2026-04-18T14:42:16Z</time></trkpt><trkpt lat="43.43471139896787" lon="5.913111587711776"><ele>314.0</ele><time>2026-04-18T14:42:17Z</time></trkpt><trkpt lat="43.43480920292382" lon="5.913181173074913"><ele>314.0</ele><time>2026-04-18T14:42:19Z</time></trkpt><trkpt lat="43.43485844138781" lon="5.913267305577967"><ele>311.75</ele><time>2026-04-18T14:42:21Z</time></trkpt><trkpt lat="43.43496235530346" lon="5.913197111801765"><ele>309.5</ele><time>2026-04-18T14:42:23Z</time></trkpt><trkpt lat="43.435063636349305" lon="5.913128131264355"><ele>307.25</ele><time>2026-04-18T14:42:25Z</time></trkpt><trkpt lat="43.435180152553826" lon="5.913088181599595"><ele>305.0</ele><time>2026-04-18T14:42:27Z</time></trkpt><trkpt lat="43.43530698709728" lon="5.913083546839823"><ele>305.0</ele><time>2026-04-18T14:42:29Z</time></trkpt><trkpt lat="43.43539542141155" lon="5.913067722436927"><ele>305.0</ele><time>2026-04-18T14:42:30Z</time></trkpt><trkpt lat="43.4355147201794" lon="5.913028959147616"><ele>305.0</ele><time>2026-04-18T14:42:31Z</time></trkpt><trkpt lat="43.43565050228233" lon="5.912966371531481"><ele>305.0</ele><time>2026-04-18T14:42:32Z</time></trkpt><trkpt lat="43.43581480331927" lon="5.912881959723099"><ele>302.5</ele><time>2026-04-18T14:42:33Z</time></trkpt><trkpt lat="43.435965054378" lon="5.91280686375915"><ele>300.0</ele><time>2026-04-18T14:42:34Z</time></trkpt><trkpt lat="43.43608876544372" lon="5.912736906477051"><ele>297.5</ele><time>2026-04-18T14:42:35Z</time></trkpt><trkpt lat="43.43620128597638" lon="5.912660859979781"><ele>295.0</ele><time>2026-04-18T14:42:36Z</time></trkpt><trkpt lat="43.43629362547895" lon="5.912589705196294"><ele>295.0</ele><time>2026-04-18T14:42:37Z</time></trkpt><trkpt lat="43.43636374222793" lon="5.912492298899365"><ele>295.0</ele><time>2026-04-18T14:42:38Z</time></trkpt><trkpt lat="43.43641710925726" lon="5.912362172921259"><ele>295.0</ele><time>2026-04-18T14:42:39Z</time></trkpt><trkpt lat="43.436482386122876" lon="5.912182909292076"><ele>295.0</ele><time>2026-04-18T14:42:40Z</time></trkpt><trkpt lat="43.43655824580762" lon="5.91200541511497"><ele>295.0</ele><time>2026-04-18T14:42:41Z</time></trkpt><trkpt lat="43.43663279994778" lon="5.911878786157247"><ele>295.0</ele><time>2026-04-18T14:42:42Z</time></trkpt><trkpt lat="43.4367095597652" lon="5.911807198589421"><ele>295.0</ele><time>2026-04-18T14:42:43Z</time></trkpt><trkpt lat="43.436784476443826" lon="5.911767951144992"><ele>295.0</ele><time>2026-04-18T14:42:44Z</time></trkpt><trkpt lat="43.43687204190382" lon="5.9116659460073135"><ele>295.0</ele><time>2026-04-18T14:42:46Z</time></trkpt><trkpt lat="43.43692211389735" lon="5.911562580119929"><ele>296.8</ele><time>2026-04-18T14:42:48Z</time></trkpt><trkpt lat="43.43698118335829" lon="5.91148549731701"><ele>298.6</ele><time>2026-04-18T14:42:49Z</time></trkpt><trkpt lat="43.43702147590398" lon="5.91133902514352"><ele>300.4</ele><time>2026-04-18T14:42:51Z</time></trkpt><trkpt lat="43.437046868558724" lon="5.911147712380717"><ele>302.2</ele><time>2026-04-18T14:42:53Z</time></trkpt><trkpt lat="43.437075337336374" lon="5.911056744090067"><ele>304.0</ele><time>2026-04-18T14:42:54Z</time></trkpt><trkpt lat="43.43709348702305" lon="5.91097024707973"><ele>305.2</ele><time>2026-04-18T14:42:55Z</time></trkpt><trkpt lat="43.437129788581686" lon="5.910875150090818"><ele>306.4</ele><time>2026-04-18T14:42:57Z</time></trkpt><trkpt lat="43.4372076243984" lon="5.910723702413585"><ele>307.6</ele><time>2026-04-18T14:42:59Z</time></trkpt><trkpt lat="43.43725277871645" lon="5.910588928946344"><ele>308.8</ele><time>2026-04-18T14:43:00Z</time></trkpt><trkpt lat="43.437277103234955" lon="5.91042453297259"><ele>310.0</ele><time>2026-04-18T14:43:01Z</time></trkpt><trkpt lat="43.437321829485484" lon="5.910219276148465"><ele>306.8</ele><time>2026-04-18T14:43:02Z</time></trkpt><trkpt lat="43.437370104878724" lon="5.910007749880607"><ele>303.6</ele><time>2026-04-18T14:43:03Z</time></trkpt><trkpt lat="43.437403312147715" lon="5.909868868745806"><ele>300.4</ele><time>2026-04-18T14:43:04Z</time></trkpt><trkpt lat="43.43742636614737" lon="5.909769976531546"><ele>297.2</ele><time>2026-04-18T14:43:05Z</time></trkpt><trkpt lat="43.43743345563727" lon="5.909631042067336"><ele>294.0</ele><time>2026-04-18T14:43:07Z</time></trkpt><trkpt lat="43.4374755164201" lon="5.90956628164014"><ele>294.0</ele><time>2026-04-18T14:43:09Z</time></trkpt><trkpt lat="43.43744114621559" lon="5.909413133655486"><ele>294.0</ele><time>2026-04-18T14:43:11Z</time></trkpt><trkpt lat="43.43741568976794" lon="5.909322704567394"><ele>294.0</ele><time>2026-04-18T14:43:12Z</time></trkpt><trkpt lat="43.437389040283556" lon="5.909241208009264"><ele>294.0</ele><time>2026-04-18T14:43:13Z</time></trkpt><trkpt lat="43.43737664809804" lon="5.909143174242653"><ele>294.0</ele><time>2026-04-18T14:43:15Z</time></trkpt><trkpt lat="43.437480729149854" lon="5.909132614848615"><ele>294.0</ele><time>2026-04-18T14:43:17Z</time></trkpt><trkpt lat="43.43756504353638" lon="5.9090793209554535"><ele>295.59999999999997</ele><time>2026-04-18T14:43:19Z</time></trkpt><trkpt lat="43.43758049663392" lon="5.908987953487117"><ele>297.2</ele><time>2026-04-18T14:43:20Z</time></trkpt><trkpt lat="43.43762231226232" lon="5.908840120482686"><ele>298.79999999999995</ele><time>2026-04-18T14:43:21Z</time></trkpt><trkpt lat="43.43768734690131" lon="5.908713013654935"><ele>300.4</ele><time>2026-04-18T14:43:22Z</time></trkpt><trkpt lat="43.437757766619434" lon="5.908592648073551"><ele>302.0</ele><time>2026-04-18T14:43:23Z</time></trkpt><trkpt lat="43.43781863170863" lon="5.908476055278423"><ele>301.8571428571429</ele><time>2026-04-18T14:43:24Z</time></trkpt><trkpt lat="43.43786447004994" lon="5.908400202868328"><ele>301.7142857142857</ele><time>2026-04-18T14:43:25Z</time></trkpt><trkpt lat="43.43792021760941" lon="5.908340306979694"><ele>301.57142857142856</ele><time>2026-04-18T14:43:26Z</time></trkpt><trkpt lat="43.43797405999102" lon="5.9082750757020115"><ele>301.42857142857144</ele><time>2026-04-18T14:43:27Z</time></trkpt><trkpt lat="43.438029860751136" lon="5.908202612250032"><ele>301.2857142857143</ele><time>2026-04-18T14:43:28Z</time></trkpt><trkpt lat="43.43808340924996" lon="5.908133893058533"><ele>301.14285714285717</ele><time>2026-04-18T14:43:29Z</time></trkpt><trkpt lat="43.438131373424355" lon="5.908075333647424"><ele>301.0</ele><time>2026-04-18T14:43:30Z</time></trkpt><trkpt lat="43.43821272119708" lon="5.907944583560821"><ele>299.2</ele><time>2026-04-18T14:43:32Z</time></trkpt><trkpt lat="43.43824207376053" lon="5.9078624633300985"><ele>297.40000000000003</ele><time>2026-04-18T14:43:33Z</time></trkpt><trkpt lat="43.4383175023276" lon="5.907740495249296"><ele>295.6</ele><time>2026-04-18T14:43:35Z</time></trkpt><trkpt lat="43.43842315225731" lon="5.9076555323033935"><ele>293.8</ele><time>2026-04-18T14:43:37Z</time></trkpt><trkpt lat="43.43846174666337" lon="5.907573807844579"><ele>292.0</ele><time>2026-04-18T14:43:38Z</time></trkpt><trkpt lat="43.43849893917265" lon="5.907461177542055"><ele>291.2</ele><time>2026-04-18T14:43:39Z</time></trkpt><trkpt lat="43.43853501708761" lon="5.907358761068991"><ele>290.4</ele><time>2026-04-18T14:43:40Z</time></trkpt><trkpt lat="43.43857050404806" lon="5.907264737043105"><ele>289.6</ele><time>2026-04-18T14:43:41Z</time></trkpt><trkpt lat="43.438620112422726" lon="5.90717676549797"><ele>288.8</ele><time>2026-04-18T14:43:42Z</time></trkpt><trkpt lat="43.43871103314575" lon="5.90701874944924"><ele>288.0</ele><time>2026-04-18T14:43:43Z</time></trkpt><trkpt lat="43.43881763286205" lon="5.906849923710138"><ele>287.25</ele><time>2026-04-18T14:43:44Z</time></trkpt><trkpt lat="43.43892485196901" lon="5.906680465630351"><ele>286.5</ele><time>2026-04-18T14:43:45Z</time></trkpt><trkpt lat="43.43901559051639" lon="5.906545786378746"><ele>285.75</ele><time>2026-04-18T14:43:46Z</time></trkpt><trkpt lat="43.439100260719464" lon="5.906426617515721"><ele>285.0</ele><time>2026-04-18T14:43:47Z</time></trkpt><trkpt lat="43.43918335052606" lon="5.906311565710775"><ele>285.0</ele><time>2026-04-18T14:43:48Z</time></trkpt><trkpt lat="43.43928223616374" lon="5.906172451743325"><ele>285.0</ele><time>2026-04-18T14:43:49Z</time></trkpt><trkpt lat="43.43938160531224" lon="5.906032383052113"><ele>285.0</ele><time>2026-04-18T14:43:50Z</time></trkpt><trkpt lat="43.43947320186927" lon="5.90592007754806"><ele>285.0</ele><time>2026-04-18T14:43:51Z</time></trkpt><trkpt lat="43.439562985298714" lon="5.905824500215369"><ele>285.0</ele><time>2026-04-18T14:43:52Z</time></trkpt><trkpt lat="43.43963525362985" lon="5.905719153813337"><ele>285.0</ele><time>2026-04-18T14:43:53Z</time></trkpt><trkpt lat="43.439703871823234" lon="5.90563410066722"><ele>285.0</ele><time>2026-04-18T14:43:54Z</time></trkpt><trkpt lat="43.439777845423905" lon="5.905571744927908"><ele>285.0</ele><time>2026-04-18T14:43:55Z</time></trkpt><trkpt lat="43.439836776006636" lon="5.90549567996909"><ele>285.0</ele><time>2026-04-18T14:43:56Z</time></trkpt><trkpt lat="43.43986554625527" lon="5.905400492590738"><ele>285.0</ele><time>2026-04-18T14:43:57Z</time></trkpt><trkpt lat="43.43987103365189" lon="5.9052990717141665"><ele>285.0</ele><time>2026-04-18T14:43:58Z</time></trkpt><trkpt lat="43.439856856894515" lon="5.905184836831334"><ele>285.0</ele><time>2026-04-18T14:43:59Z</time></trkpt><trkpt lat="43.43983422697656" lon="5.90505124548768"><ele>285.0</ele><time>2026-04-18T14:44:00Z</time></trkpt><trkpt lat="43.43980113402337" lon="5.9049192887684505"><ele>285.0</ele><time>2026-04-18T14:44:01Z</time></trkpt><trkpt lat="43.43975346808453" lon="5.904823574852107"><ele>285.0</ele><time>2026-04-18T14:44:02Z</time></trkpt><trkpt lat="43.43968053409782" lon="5.904759944923482"><ele>285.0</ele><time>2026-04-18T14:44:03Z</time></trkpt><trkpt lat="43.43957011713067" lon="5.904693953023032"><ele>285.0</ele><time>2026-04-18T14:44:04Z</time></trkpt><trkpt lat="43.43943018770746" lon="5.90459805401345"><ele>285.0</ele><time>2026-04-18T14:44:05Z</time></trkpt><trkpt lat="43.439281431759376" lon="5.904496969467724"><ele>285.0</ele><time>2026-04-18T14:44:06Z</time></trkpt><trkpt lat="43.439160394046034" lon="5.904393184588392"><ele>285.0</ele><time>2026-04-18T14:44:07Z</time></trkpt><trkpt lat="43.43903844693932" lon="5.904294973135102"><ele>285.0</ele><time>2026-04-18T14:44:08Z</time></trkpt><trkpt lat="43.438923171818594" lon="5.904188123102502"><ele>285.0</ele><time>2026-04-18T14:44:09Z</time></trkpt><trkpt lat="43.43880106786151" lon="5.904067382770278"><ele>285.0</ele><time>2026-04-18T14:44:10Z</time></trkpt><trkpt lat="43.43869260960394" lon="5.903951685474842"><ele>286.25</ele><time>2026-04-18T14:44:11Z</time></trkpt><trkpt lat="43.43859860247194" lon="5.903839035991752"><ele>287.5</ele><time>2026-04-18T14:44:12Z</time></trkpt><trkpt lat="43.4384998972217" lon="5.9037094868131135"><ele>288.75</ele><time>2026-04-18T14:44:13Z</time></trkpt><trkpt lat="43.43839516681988" lon="5.903560095427347"><ele>290.0</ele><time>2026-04-18T14:44:14Z</time></trkpt><trkpt lat="43.43827518002576" lon="5.903379050879826"><ele>291.5</ele><time>2026-04-18T14:44:15Z</time></trkpt><trkpt lat="43.43813038100313" lon="5.903165614611024"><ele>293.0</ele><time>2026-04-18T14:44:16Z</time></trkpt><trkpt lat="43.43796700685104" lon="5.902915027131088"><ele>293.0</ele><time>2026-04-18T14:44:17Z</time></trkpt><trkpt lat="43.43781292083139" lon="5.902676218781732"><ele>293.0</ele><time>2026-04-18T14:44:18Z</time></trkpt><trkpt lat="43.43766286945368" lon="5.902444885454709"><ele>292.0</ele><time>2026-04-18T14:44:19Z</time></trkpt><trkpt lat="43.437539906058696" lon="5.902250611520305"><ele>291.0</ele><time>2026-04-18T14:44:20Z</time></trkpt><trkpt lat="43.4374228045836" lon="5.902065654797692"><ele>290.0</ele><time>2026-04-18T14:44:21Z</time></trkpt><trkpt lat="43.437316449582724" lon="5.901894189205437"><ele>289.0</ele><time>2026-04-18T14:44:22Z</time></trkpt><trkpt lat="43.43722295297035" lon="5.901747251287936"><ele>288.0</ele><time>2026-04-18T14:44:23Z</time></trkpt><trkpt lat="43.437139982012056" lon="5.901610299613262"><ele>287.0</ele><time>2026-04-18T14:44:24Z</time></trkpt><trkpt lat="43.437067401664066" lon="5.901490398777309"><ele>286.0</ele><time>2026-04-18T14:44:25Z</time></trkpt><trkpt lat="43.43700776647758" lon="5.901388008973947"><ele>286.0</ele><time>2026-04-18T14:44:26Z</time></trkpt><trkpt lat="43.436959566917444" lon="5.901280276913374"><ele>286.0</ele><time>2026-04-18T14:44:27Z</time></trkpt><trkpt lat="43.436928354416246" lon="5.901158530266094"><ele>286.0</ele><time>2026-04-18T14:44:28Z</time></trkpt><trkpt lat="43.43690834544503" lon="5.901023633581663"><ele>286.0</ele><time>2026-04-18T14:44:29Z</time></trkpt><trkpt lat="43.43689859842304" lon="5.900852181109216"><ele>286.0</ele><time>2026-04-18T14:44:30Z</time></trkpt><trkpt lat="43.43690214183087" lon="5.900691025994288"><ele>286.0</ele><time>2026-04-18T14:44:31Z</time></trkpt><trkpt lat="43.4369149423323" lon="5.9005751135815165"><ele>286.0</ele><time>2026-04-18T14:44:32Z</time></trkpt><trkpt lat="43.436947653808" lon="5.900478653408291"><ele>286.0</ele><time>2026-04-18T14:44:33Z</time></trkpt><trkpt lat="43.43699651774299" lon="5.900383003902887"><ele>286.0</ele><time>2026-04-18T14:44:34Z</time></trkpt><trkpt lat="43.437071596362216" lon="5.900275817021106"><ele>286.0</ele><time>2026-04-18T14:44:35Z</time></trkpt><trkpt lat="43.43716752845655" lon="5.900143104859624"><ele>287.5</ele><time>2026-04-18T14:44:36Z</time></trkpt><trkpt lat="43.43726841575058" lon="5.900010995162866"><ele>289.0</ele><time>2026-04-18T14:44:37Z</time></trkpt><trkpt lat="43.437366069459216" lon="5.899913096605477"><ele>290.5</ele><time>2026-04-18T14:44:38Z</time></trkpt><trkpt lat="43.43745456294023" lon="5.89982040712366"><ele>292.0</ele><time>2026-04-18T14:44:39Z</time></trkpt><trkpt lat="43.43751945903816" lon="5.899702351456206"><ele>292.0</ele><time>2026-04-18T14:44:40Z</time></trkpt><trkpt lat="43.43755952790615" lon="5.899555163783368"><ele>292.0</ele><time>2026-04-18T14:44:41Z</time></trkpt><trkpt lat="43.43760119771619" lon="5.899413015419689"><ele>292.0</ele><time>2026-04-18T14:44:42Z</time></trkpt><trkpt lat="43.43765685744519" lon="5.8992988142397484"><ele>292.0</ele><time>2026-04-18T14:44:43Z</time></trkpt><trkpt lat="43.437725895484355" lon="5.899209120123189"><ele>292.0</ele><time>2026-04-18T14:44:44Z</time></trkpt><trkpt lat="43.43779800246019" lon="5.899133627609719"><ele>292.0</ele><time>2026-04-18T14:44:45Z</time></trkpt><trkpt lat="43.43786291849984" lon="5.899074523196785"><ele>292.0</ele><time>2026-04-18T14:44:46Z</time></trkpt><trkpt lat="43.43792066822716" lon="5.899014746837282"><ele>292.0</ele><time>2026-04-18T14:44:47Z</time></trkpt><trkpt lat="43.43800047520267" lon="5.898917873546554"><ele>292.0</ele><time>2026-04-18T14:44:49Z</time></trkpt><trkpt lat="43.43805867862768" lon="5.89887564975519"><ele>292.0</ele><time>2026-04-18T14:44:52Z</time></trkpt><trkpt lat="43.43811364000412" lon="5.8989377483520276"><ele>292.0</ele><time>2026-04-18T14:44:55Z</time></trkpt><trkpt lat="43.4381727343565" lon="5.898989520407762"><ele>292.0</ele><time>2026-04-18T14:44:56Z</time></trkpt><trkpt lat="43.4382450600862" lon="5.89902728980493"><ele>292.0</ele><time>2026-04-18T14:44:57Z</time></trkpt><trkpt lat="43.438378019624025" lon="5.899016260283963"><ele>292.0</ele><time>2026-04-18T14:44:59Z</time></trkpt><trkpt lat="43.438457238027354" lon="5.898988612556909"><ele>292.0</ele><time>2026-04-18T14:45:00Z</time></trkpt><trkpt lat="43.438535629275876" lon="5.898941665607038"><ele>292.0</ele><time>2026-04-18T14:45:01Z</time></trkpt><trkpt lat="43.43860564721657" lon="5.898897325437361"><ele>292.0</ele><time>2026-04-18T14:45:02Z</time></trkpt><trkpt lat="43.438673655472286" lon="5.898848722249428"><ele>292.0</ele><time>2026-04-18T14:45:03Z</time></trkpt><trkpt lat="43.43875278069233" lon="5.898792643217247"><ele>292.0</ele><time>2026-04-18T14:45:04Z</time></trkpt><trkpt lat="43.43883450828568" lon="5.898742847269486"><ele>292.0</ele><time>2026-04-18T14:45:05Z</time></trkpt><trkpt lat="43.43891112456652" lon="5.898701393504339"><ele>292.0</ele><time>2026-04-18T14:45:06Z</time></trkpt><trkpt lat="43.438980509929614" lon="5.898670749111248"><ele>292.0</ele><time>2026-04-18T14:45:07Z</time></trkpt><trkpt lat="43.4390399613674" lon="5.8986297672955805"><ele>291.8</ele><time>2026-04-18T14:45:08Z</time></trkpt><trkpt lat="43.439097004877574" lon="5.898577866414156"><ele>291.6</ele><time>2026-04-18T14:45:09Z</time></trkpt><trkpt lat="43.439156536813115" lon="5.8985393577902006"><ele>291.40000000000003</ele><time>2026-04-18T14:45:10Z</time></trkpt><trkpt lat="43.43925670528952" lon="5.898457166980525"><ele>291.2</ele><time>2026-04-18T14:45:12Z</time></trkpt><trkpt lat="43.439349877483146" lon="5.898396246112093"><ele>291.0</ele><time>2026-04-18T14:45:14Z</time></trkpt><trkpt lat="43.439447393100515" lon="5.898330677417083"><ele>291.0</ele><time>2026-04-18T14:45:16Z</time></trkpt><trkpt lat="43.43955078012448" lon="5.898289189332476"><ele>291.0</ele><time>2026-04-18T14:45:18Z</time></trkpt><trkpt lat="43.43966223014246" lon="5.8982459925346475"><ele>291.0</ele><time>2026-04-18T14:45:20Z</time></trkpt><trkpt lat="43.43973496343582" lon="5.898219061011063"><ele>291.0</ele><time>2026-04-18T14:45:21Z</time></trkpt><trkpt lat="43.43981154457218" lon="5.898192446964912"><ele>291.0</ele><time>2026-04-18T14:45:22Z</time></trkpt><trkpt lat="43.43988623566599" lon="5.898188735931557"><ele>289.40000000000003</ele><time>2026-04-18T14:45:23Z</time></trkpt><trkpt lat="43.43995208791668" lon="5.898192409108223"><ele>287.8</ele><time>2026-04-18T14:45:24Z</time></trkpt><trkpt lat="43.44004924541093" lon="5.8981401058325025"><ele>286.20000000000005</ele><time>2026-04-18T14:45:26Z</time></trkpt><trkpt lat="43.44011143368359" lon="5.8980526632397545"><ele>284.6</ele><time>2026-04-18T14:45:28Z</time></trkpt><trkpt lat="43.44019254900139" lon="5.897957698677553"><ele>283.0</ele><time>2026-04-18T14:45:30Z</time></trkpt><trkpt lat="43.44026996162351" lon="5.89787660136197"><ele>283.0</ele><time>2026-04-18T14:45:31Z</time></trkpt><trkpt lat="43.44036793235461" lon="5.8977660071015645"><ele>283.0</ele><time>2026-04-18T14:45:32Z</time></trkpt><trkpt lat="43.44044873271242" lon="5.897668787117628"><ele>283.0</ele><time>2026-04-18T14:45:33Z</time></trkpt><trkpt lat="43.44053535870005" lon="5.897571056530419"><ele>283.0</ele><time>2026-04-18T14:45:34Z</time></trkpt><trkpt lat="43.44064046606734" lon="5.897474763727626"><ele>283.2</ele><time>2026-04-18T14:45:35Z</time></trkpt><trkpt lat="43.44075210826681" lon="5.8973885433718145"><ele>283.4</ele><time>2026-04-18T14:45:36Z</time></trkpt><trkpt lat="43.44084367751163" lon="5.897320787606494"><ele>283.59999999999997</ele><time>2026-04-18T14:45:37Z</time></trkpt><trkpt lat="43.44091102958973" lon="5.897256885926082"><ele>283.8</ele><time>2026-04-18T14:45:38Z</time></trkpt><trkpt lat="43.4409635586322" lon="5.897189514652847"><ele>284.0</ele><time>2026-04-18T14:45:39Z</time></trkpt><trkpt lat="43.44100733952049" lon="5.897111813963473"><ele>284.0</ele><time>2026-04-18T14:45:40Z</time></trkpt><trkpt lat="43.44103698751558" lon="5.897018156361266"><ele>284.0</ele><time>2026-04-18T14:45:41Z</time></trkpt><trkpt lat="43.44105194685345" lon="5.896902406362893"><ele>284.0</ele><time>2026-04-18T14:45:42Z</time></trkpt><trkpt lat="43.4410597040856" lon="5.896760054034704"><ele>284.0</ele><time>2026-04-18T14:45:43Z</time></trkpt><trkpt lat="43.441064278428705" lon="5.896585230390835"><ele>284.0</ele><time>2026-04-18T14:45:44Z</time></trkpt><trkpt lat="43.441061935348095" lon="5.8964290980597145"><ele>283.8</ele><time>2026-04-18T14:45:45Z</time></trkpt><trkpt lat="43.44105295347406" lon="5.896289861167445"><ele>283.59999999999997</ele><time>2026-04-18T14:45:46Z</time></trkpt><trkpt lat="43.441041033082" lon="5.8961534905000015"><ele>283.4</ele><time>2026-04-18T14:45:47Z</time></trkpt><trkpt lat="43.4410276128685" lon="5.896005882100912"><ele>283.2</ele><time>2026-04-18T14:45:48Z</time></trkpt><trkpt lat="43.44101033607352" lon="5.895854972035347"><ele>283.0</ele><time>2026-04-18T14:45:49Z</time></trkpt><trkpt lat="43.44098875143221" lon="5.895708339344607"><ele>283.66666666666663</ele><time>2026-04-18T14:45:50Z</time></trkpt><trkpt lat="43.440953907617384" lon="5.895579099922811"><ele>284.3333333333333</ele><time>2026-04-18T14:45:51Z</time></trkpt><trkpt lat="43.44091243841542" lon="5.8954691674499164"><ele>285.0</ele><time>2026-04-18T14:45:52Z</time></trkpt><trkpt lat="43.44088183813541" lon="5.895367233418867"><ele>285.6666666666667</ele><time>2026-04-18T14:45:53Z</time></trkpt><trkpt lat="43.44086872808246" lon="5.895266843019095"><ele>286.33333333333337</ele><time>2026-04-18T14:45:54Z</time></trkpt><trkpt lat="43.44086462738267" lon="5.895146978281772"><ele>287.0</ele><time>2026-04-18T14:45:55Z</time></trkpt><trkpt lat="43.440859162618565" lon="5.895015637572819"><ele>287.33333333333337</ele><time>2026-04-18T14:45:56Z</time></trkpt><trkpt lat="43.44086449796846" lon="5.894896421761348"><ele>287.6666666666667</ele><time>2026-04-18T14:45:57Z</time></trkpt><trkpt lat="43.440884143200634" lon="5.894795421525775"><ele>288.0</ele><time>2026-04-18T14:45:58Z</time></trkpt><trkpt lat="43.440919247359254" lon="5.894717882438413"><ele>288.3333333333333</ele><time>2026-04-18T14:45:59Z</time></trkpt><trkpt lat="43.44097363947472" lon="5.894655843054988"><ele>288.66666666666663</ele><time>2026-04-18T14:46:00Z</time></trkpt><trkpt lat="43.44105793898837" lon="5.89458161762547"><ele>289.0</ele><time>2026-04-18T14:46:01Z</time></trkpt><trkpt lat="43.44115176274275" lon="5.8944718341483995"><ele>289.0</ele><time>2026-04-18T14:46:02Z</time></trkpt><trkpt lat="43.44122528220969" lon="5.894348298607584"><ele>289.0</ele><time>2026-04-18T14:46:03Z</time></trkpt><trkpt lat="43.44128903138051" lon="5.894245537006574"><ele>289.0</ele><time>2026-04-18T14:46:04Z</time></trkpt><trkpt lat="43.441357357529235" lon="5.894169452159931"><ele>289.0</ele><time>2026-04-18T14:46:05Z</time></trkpt><trkpt lat="43.441434929823274" lon="5.894125740063021"><ele>289.0</ele><time>2026-04-18T14:46:06Z</time></trkpt><trkpt lat="43.44152941115618" lon="5.894126057977511"><ele>290.25</ele><time>2026-04-18T14:46:07Z</time></trkpt><trkpt lat="43.44165144313534" lon="5.894145332126381"><ele>291.5</ele><time>2026-04-18T14:46:08Z</time></trkpt><trkpt lat="43.44180707120354" lon="5.894174144076277"><ele>292.75</ele><time>2026-04-18T14:46:09Z</time></trkpt><trkpt lat="43.44196158321687" lon="5.894199092281474"><ele>294.0</ele><time>2026-04-18T14:46:10Z</time></trkpt><trkpt lat="43.44208532040582" lon="5.894208331580498"><ele>294.8333333333333</ele><time>2026-04-18T14:46:11Z</time></trkpt><trkpt lat="43.44219614809835" lon="5.894203373767615"><ele>295.6666666666667</ele><time>2026-04-18T14:46:12Z</time></trkpt><trkpt lat="43.44226002204831" lon="5.894174552603711"><ele>296.5</ele><time>2026-04-18T14:46:13Z</time></trkpt><trkpt lat="43.442320859831135" lon="5.894127528351236"><ele>297.33333333333337</ele><time>2026-04-18T14:46:15Z</time></trkpt><trkpt lat="43.442416160299835" lon="5.894084648702531"><ele>298.1666666666667</ele><time>2026-04-18T14:46:19Z</time></trkpt><trkpt lat="43.44248794318368" lon="5.894007757871189"><ele>299.0</ele><time>2026-04-18T14:46:21Z</time></trkpt><trkpt lat="43.442660766606615" lon="5.894220830556003"><ele>301.8</ele><time>2026-04-18T14:46:23Z</time></trkpt><trkpt lat="43.442732026041234" lon="5.89427466683686"><ele>304.59999999999997</ele><time>2026-04-18T14:46:24Z</time></trkpt><trkpt lat="43.44278512099796" lon="5.894324949105018"><ele>307.4</ele><time>2026-04-18T14:46:25Z</time></trkpt><trkpt lat="43.44289046729225" lon="5.8943762640367705"><ele>310.2</ele><time>2026-04-18T14:46:27Z</time></trkpt><trkpt lat="43.44297987352075" lon="5.894440698645002"><ele>313.0</ele><time>2026-04-18T14:46:28Z</time></trkpt><trkpt lat="43.44309334359024" lon="5.894414338586419"><ele>314.16666666666663</ele><time>2026-04-18T14:46:30Z</time></trkpt><trkpt lat="43.44315693337249" lon="5.894393364523756"><ele>315.3333333333333</ele><time>2026-04-18T14:46:31Z</time></trkpt><trkpt lat="43.44325980568979" lon="5.894349830215304"><ele>316.5</ele><time>2026-04-18T14:46:33Z</time></trkpt><trkpt lat="43.443333504608006" lon="5.894297596122018"><ele>317.6666666666667</ele><time>2026-04-18T14:46:35Z</time></trkpt><trkpt lat="43.443412239141665" lon="5.894336315077454"><ele>318.83333333333337</ele><time>2026-04-18T14:46:37Z</time></trkpt><trkpt lat="43.44347354978032" lon="5.894299607459176"><ele>320.0</ele><time>2026-04-18T14:46:39Z</time></trkpt><trkpt lat="43.44356326479853" lon="5.894358211138278"><ele>320.0</ele><time>2026-04-18T14:46:42Z</time></trkpt><trkpt lat="43.443625049683206" lon="5.894408228461294"><ele>320.0</ele><time>2026-04-18T14:46:43Z</time></trkpt><trkpt lat="43.443704319704985" lon="5.894542087267257"><ele>320.0</ele><time>2026-04-18T14:46:45Z</time></trkpt><trkpt lat="43.44374840863681" lon="5.894618528804542"><ele>320.0</ele><time>2026-04-18T14:46:46Z</time></trkpt><trkpt lat="43.4437996030924" lon="5.89469269063831"><ele>320.0</ele><time>2026-04-18T14:46:47Z</time></trkpt><trkpt lat="43.44385584033167" lon="5.894751933554727"><ele>320.0</ele><time>2026-04-18T14:46:49Z</time></trkpt><trkpt lat="43.44383598729622" lon="5.894834836776273"><ele>320.0</ele><time>2026-04-18T14:46:53Z</time></trkpt><trkpt lat="43.44385352847274" lon="5.894918514168379"><ele>320.0</ele><time>2026-04-18T14:46:55Z</time></trkpt><trkpt lat="43.44388805792491" lon="5.895018469131928"><ele>320.0</ele><time>2026-04-18T14:46:56Z</time></trkpt><trkpt lat="43.443957046744416" lon="5.895152666710545"><ele>320.0</ele><time>2026-04-18T14:46:58Z</time></trkpt><trkpt lat="43.44395368241205" lon="5.89528109860155"><ele>320.0</ele><time>2026-04-18T14:47:00Z</time></trkpt><trkpt lat="43.443930469655534" lon="5.895388257380412"><ele>320.0</ele><time>2026-04-18T14:47:02Z</time></trkpt><trkpt lat="43.44399295822546" lon="5.895418236128086"><ele>319.83333333333337</ele><time>2026-04-18T14:47:07Z</time></trkpt><trkpt lat="43.444071627970565" lon="5.895422592868614"><ele>319.6666666666667</ele><time>2026-04-18T14:47:09Z</time></trkpt><trkpt lat="43.44418697277482" lon="5.895375955079164"><ele>319.5</ele><time>2026-04-18T14:47:11Z</time></trkpt><trkpt lat="43.44424777069878" lon="5.895335426423542"><ele>319.3333333333333</ele><time>2026-04-18T14:47:12Z</time></trkpt><trkpt lat="43.4443252590647" lon="5.895256918304169"><ele>319.16666666666663</ele><time>2026-04-18T14:47:14Z</time></trkpt><trkpt lat="43.44438873336552" lon="5.895260848826007"><ele>319.0</ele><time>2026-04-18T14:47:16Z</time></trkpt><trkpt lat="43.44444376133542" lon="5.895377850805858"><ele>319.0</ele><time>2026-04-18T14:47:27Z</time></trkpt><trkpt lat="43.44450560570415" lon="5.895478551555988"><ele>319.0</ele><time>2026-04-18T14:47:28Z</time></trkpt><trkpt lat="43.44458823996917" lon="5.8955885627407145"><ele>319.0</ele><time>2026-04-18T14:47:29Z</time></trkpt><trkpt lat="43.44465756894736" lon="5.895709496343109"><ele>319.0</ele><time>2026-04-18T14:47:30Z</time></trkpt><trkpt lat="43.4447210131135" lon="5.895807914528977"><ele>319.0</ele><time>2026-04-18T14:47:31Z</time></trkpt><trkpt lat="43.44478433441059" lon="5.895890060300742"><ele>317.8333333333333</ele><time>2026-04-18T14:47:32Z</time></trkpt><trkpt lat="43.44483304231409" lon="5.895992940607935"><ele>316.66666666666663</ele><time>2026-04-18T14:47:33Z</time></trkpt><trkpt lat="43.44488550724718" lon="5.89608540137784"><ele>315.5</ele><time>2026-04-18T14:47:34Z</time></trkpt><trkpt lat="43.44494912307876" lon="5.896160184707808"><ele>314.3333333333333</ele><time>2026-04-18T14:47:35Z</time></trkpt><trkpt lat="43.445016543241934" lon="5.8962279368849035"><ele>313.1666666666667</ele><time>2026-04-18T14:47:36Z</time></trkpt><trkpt lat="43.44508535779568" lon="5.896290638376019"><ele>312.0</ele><time>2026-04-18T14:47:37Z</time></trkpt><trkpt lat="43.445149841254064" lon="5.896355467892479"><ele>312.0</ele><time>2026-04-18T14:47:38Z</time></trkpt><trkpt lat="43.44521497846668" lon="5.896411925583058"><ele>312.0</ele><time>2026-04-18T14:47:39Z</time></trkpt><trkpt lat="43.445290060593265" lon="5.896477233039935"><ele>312.0</ele><time>2026-04-18T14:47:40Z</time></trkpt><trkpt lat="43.44537636367129" lon="5.896550694052328"><ele>312.0</ele><time>2026-04-18T14:47:41Z</time></trkpt><trkpt lat="43.44546574586783" lon="5.896612717896464"><ele>312.0</ele><time>2026-04-18T14:47:42Z</time></trkpt><trkpt lat="43.44553925506545" lon="5.896657484917932"><ele>312.0</ele><time>2026-04-18T14:47:43Z</time></trkpt><trkpt lat="43.44565658724914" lon="5.896655611379349"><ele>311.6</ele><time>2026-04-18T14:47:45Z</time></trkpt><trkpt lat="43.445722702073056" lon="5.896615656840525"><ele>311.2</ele><time>2026-04-18T14:47:46Z</time></trkpt><trkpt lat="43.4457847605131" lon="5.896554468702961"><ele>310.8</ele><time>2026-04-18T14:47:47Z</time></trkpt><trkpt lat="43.44585139410691" lon="5.896461841616802"><ele>310.4</ele><time>2026-04-18T14:47:48Z</time></trkpt><trkpt lat="43.44592483108402" lon="5.896321799188368"><ele>310.0</ele><time>2026-04-18T14:47:49Z</time></trkpt><trkpt lat="43.44599840060937" lon="5.896161948834942"><ele>310.0</ele><time>2026-04-18T14:47:50Z</time></trkpt><trkpt lat="43.44605876890213" lon="5.8960237019366994"><ele>310.0</ele><time>2026-04-18T14:47:51Z</time></trkpt><trkpt lat="43.446108358641055" lon="5.895896204813663"><ele>310.0</ele><time>2026-04-18T14:47:52Z</time></trkpt><trkpt lat="43.44614561695006" lon="5.895770012487869"><ele>310.0</ele><time>2026-04-18T14:47:53Z</time></trkpt><trkpt lat="43.44616736384851" lon="5.895625245308339"><ele>310.0</ele><time>2026-04-18T14:47:54Z</time></trkpt><trkpt lat="43.446194831727" lon="5.895471477164746"><ele>310.25</ele><time>2026-04-18T14:47:55Z</time></trkpt><trkpt lat="43.44623272808778" lon="5.895301810703508"><ele>310.5</ele><time>2026-04-18T14:47:56Z</time></trkpt><trkpt lat="43.4462771771717" lon="5.895139087942202"><ele>310.75</ele><time>2026-04-18T14:47:57Z</time></trkpt><trkpt lat="43.4463255212018" lon="5.894996025072116"><ele>311.0</ele><time>2026-04-18T14:47:58Z</time></trkpt><trkpt lat="43.446381292593536" lon="5.894825841012094"><ele>311.0</ele><time>2026-04-18T14:47:59Z</time></trkpt><trkpt lat="43.44643846434823" lon="5.894636188858785"><ele>311.0</ele><time>2026-04-18T14:48:00Z</time></trkpt><trkpt lat="43.44649115805965" lon="5.894464079933759"><ele>311.0</ele><time>2026-04-18T14:48:01Z</time></trkpt><trkpt lat="43.44655060906554" lon="5.8942803449208"><ele>311.0</ele><time>2026-04-18T14:48:02Z</time></trkpt><trkpt lat="43.44661664326942" lon="5.894094763686881"><ele>311.0</ele><time>2026-04-18T14:48:03Z</time></trkpt><trkpt lat="43.44668446171799" lon="5.893922843050658"><ele>311.0</ele><time>2026-04-18T14:48:04Z</time></trkpt><trkpt lat="43.44674238498832" lon="5.893786437136893"><ele>311.0</ele><time>2026-04-18T14:48:05Z</time></trkpt><trkpt lat="43.44679475661706" lon="5.893655969463977"><ele>311.0</ele><time>2026-04-18T14:48:06Z</time></trkpt><trkpt lat="43.4468328911584" lon="5.893526990576874"><ele>311.0</ele><time>2026-04-18T14:48:07Z</time></trkpt><trkpt lat="43.44684812486015" lon="5.893399197330633"><ele>311.0</ele><time>2026-04-18T14:48:08Z</time></trkpt><trkpt lat="43.446833706248306" lon="5.893264679410541"><ele>311.0</ele><time>2026-04-18T14:48:09Z</time></trkpt><trkpt lat="43.44680618385441" lon="5.893117050015223"><ele>311.0</ele><time>2026-04-18T14:48:10Z</time></trkpt><trkpt lat="43.446801806731166" lon="5.8929643440979405"><ele>311.0</ele><time>2026-04-18T14:48:11Z</time></trkpt><trkpt lat="43.446807616907925" lon="5.892811664819537"><ele>311.0</ele><time>2026-04-18T14:48:12Z</time></trkpt><trkpt lat="43.446811750623645" lon="5.892670633333704"><ele>311.0</ele><time>2026-04-18T14:48:13Z</time></trkpt><trkpt lat="43.446813389052075" lon="5.8925576203502645"><ele>311.0</ele><time>2026-04-18T14:48:14Z</time></trkpt><trkpt lat="43.44682181664604" lon="5.8924418132735745"><ele>311.0</ele><time>2026-04-18T14:48:15Z</time></trkpt><trkpt lat="43.446840201044125" lon="5.892303769644281"><ele>311.0</ele><time>2026-04-18T14:48:16Z</time></trkpt><trkpt lat="43.4468652608454" lon="5.8921524725877985"><ele>312.1666666666667</ele><time>2026-04-18T14:48:17Z</time></trkpt><trkpt lat="43.44689429729806" lon="5.892050067342788"><ele>313.33333333333337</ele><time>2026-04-18T14:48:18Z</time></trkpt><trkpt lat="43.4469260320117" lon="5.89197369561238"><ele>314.5</ele><time>2026-04-18T14:48:19Z</time></trkpt><trkpt lat="43.44695528120914" lon="5.891894825803384"><ele>315.6666666666667</ele><time>2026-04-18T14:48:20Z</time></trkpt><trkpt lat="43.446995774696845" lon="5.891798975876942"><ele>316.8333333333333</ele><time>2026-04-18T14:48:21Z</time></trkpt><trkpt lat="43.447058742763204" lon="5.891688494357916"><ele>318.0</ele><time>2026-04-18T14:48:22Z</time></trkpt><trkpt lat="43.44713504461583" lon="5.891552144722408"><ele>318.0</ele><time>2026-04-18T14:48:23Z</time></trkpt><trkpt lat="43.44720415045437" lon="5.891381759537548"><ele>318.0</ele><time>2026-04-18T14:48:24Z</time></trkpt><trkpt lat="43.44725566622223" lon="5.891175071533453"><ele>318.0</ele><time>2026-04-18T14:48:25Z</time></trkpt><trkpt lat="43.44728287961537" lon="5.890991537588075"><ele>318.0</ele><time>2026-04-18T14:48:26Z</time></trkpt><trkpt lat="43.447307393699255" lon="5.890825857998612"><ele>318.8</ele><time>2026-04-18T14:48:27Z</time></trkpt><trkpt lat="43.447330296895466" lon="5.890689550668478"><ele>319.6</ele><time>2026-04-18T14:48:28Z</time></trkpt><trkpt lat="43.44735181473913" lon="5.890561182116329"><ele>320.40000000000003</ele><time>2026-04-18T14:48:29Z</time></trkpt><trkpt lat="43.447376065412925" lon="5.890443974708979"><ele>321.20000000000005</ele><time>2026-04-18T14:48:30Z</time></trkpt><trkpt lat="43.44741458475051" lon="5.8903347422954955"><ele>322.0</ele><time>2026-04-18T14:48:31Z</time></trkpt><trkpt lat="43.44745966757999" lon="5.890233721789881"><ele>322.0</ele><time>2026-04-18T14:48:32Z</time></trkpt><trkpt lat="43.44750507901245" lon="5.890136111258276"><ele>322.0</ele><time>2026-04-18T14:48:33Z</time></trkpt><trkpt lat="43.44755498727503" lon="5.890042429712378"><ele>322.0</ele><time>2026-04-18T14:48:34Z</time></trkpt><trkpt lat="43.44762052675923" lon="5.889931801753678"><ele>322.0</ele><time>2026-04-18T14:48:35Z</time></trkpt><trkpt lat="43.44770102477577" lon="5.889781899657002"><ele>322.0</ele><time>2026-04-18T14:48:36Z</time></trkpt><trkpt lat="43.447792473546215" lon="5.889595873377886"><ele>322.3333333333333</ele><time>2026-04-18T14:48:37Z</time></trkpt><trkpt lat="43.44788304999887" lon="5.889415389664881"><ele>322.6666666666667</ele><time>2026-04-18T14:48:38Z</time></trkpt><trkpt lat="43.447968745513904" lon="5.889243294685201"><ele>323.0</ele><time>2026-04-18T14:48:39Z</time></trkpt><trkpt lat="43.44804618771285" lon="5.8890823988706"><ele>320.5</ele><time>2026-04-18T14:48:40Z</time></trkpt><trkpt lat="43.44812008973162" lon="5.888924737401905"><ele>318.0</ele><time>2026-04-18T14:48:41Z</time></trkpt><trkpt lat="43.44819458707932" lon="5.888775391999759"><ele>315.5</ele><time>2026-04-18T14:48:42Z</time></trkpt><trkpt lat="43.448273696127096" lon="5.888633910474366"><ele>313.0</ele><time>2026-04-18T14:48:43Z</time></trkpt><trkpt lat="43.44835633938953" lon="5.888494576023483"><ele>312.75</ele><time>2026-04-18T14:48:44Z</time></trkpt><trkpt lat="43.44844581399935" lon="5.888358537584213"><ele>312.5</ele><time>2026-04-18T14:48:45Z</time></trkpt><trkpt lat="43.448535906234014" lon="5.888219786694193"><ele>312.25</ele><time>2026-04-18T14:48:46Z</time></trkpt><trkpt lat="43.44861927985467" lon="5.888066698223481"><ele>312.0</ele><time>2026-04-18T14:48:47Z</time></trkpt><trkpt lat="43.44870231436919" lon="5.88789810137158"><ele>310.6666666666667</ele><time>2026-04-18T14:48:48Z</time></trkpt><trkpt lat="43.44879473222129" lon="5.887666708379899"><ele>309.33333333333337</ele><time>2026-04-18T14:48:49Z</time></trkpt><trkpt lat="43.44889765104462" lon="5.887391556736352"><ele>308.0</ele><time>2026-04-18T14:48:50Z</time></trkpt><trkpt lat="43.44900927196098" lon="5.887123722321333"><ele>305.6666666666667</ele><time>2026-04-18T14:48:51Z</time></trkpt><trkpt lat="43.449120437713944" lon="5.886878923096418"><ele>303.3333333333333</ele><time>2026-04-18T14:48:52Z</time></trkpt><trkpt lat="43.449239298691374" lon="5.8866261631762695"><ele>301.0</ele><time>2026-04-18T14:48:53Z</time></trkpt><trkpt lat="43.44934617002521" lon="5.886398463766869"><ele>299.66666666666663</ele><time>2026-04-18T14:48:54Z</time></trkpt><trkpt lat="43.44942608524613" lon="5.886212119348345"><ele>298.3333333333333</ele><time>2026-04-18T14:48:55Z</time></trkpt><trkpt lat="43.449500833121235" lon="5.886045703145217"><ele>297.0</ele><time>2026-04-18T14:48:56Z</time></trkpt><trkpt lat="43.44959643804421" lon="5.88587555728302"><ele>297.3333333333333</ele><time>2026-04-18T14:48:57Z</time></trkpt><trkpt lat="43.44971219330518" lon="5.885681014424328"><ele>297.66666666666663</ele><time>2026-04-18T14:48:58Z</time></trkpt><trkpt lat="43.44982902623447" lon="5.885450943154133"><ele>298.0</ele><time>2026-04-18T14:48:59Z</time></trkpt><trkpt lat="43.44994082067955" lon="5.885182982970402"><ele>296.0</ele><time>2026-04-18T14:49:00Z</time></trkpt><trkpt lat="43.450036282320525" lon="5.884916680261554"><ele>294.0</ele><time>2026-04-18T14:49:01Z</time></trkpt><trkpt lat="43.45010655000522" lon="5.884714978122999"><ele>292.0</ele><time>2026-04-18T14:49:02Z</time></trkpt><trkpt lat="43.45017037976098" lon="5.884562270819943"><ele>292.0</ele><time>2026-04-18T14:49:03Z</time></trkpt><trkpt lat="43.45025219749371" lon="5.884418224653613"><ele>292.0</ele><time>2026-04-18T14:49:04Z</time></trkpt><trkpt lat="43.45036391588717" lon="5.884283496151723"><ele>292.0</ele><time>2026-04-18T14:49:05Z</time></trkpt><trkpt lat="43.450507337724915" lon="5.884147814759276"><ele>292.0</ele><time>2026-04-18T14:49:06Z</time></trkpt><trkpt lat="43.450646005811606" lon="5.8839887967669995"><ele>292.0</ele><time>2026-04-18T14:49:07Z</time></trkpt><trkpt lat="43.45077094782859" lon="5.883780056634022"><ele>292.0</ele><time>2026-04-18T14:49:08Z</time></trkpt><trkpt lat="43.450896126135135" lon="5.883532934528638"><ele>290.66666666666663</ele><time>2026-04-18T14:49:09Z</time></trkpt><trkpt lat="43.451009831339725" lon="5.8832981447390225"><ele>289.3333333333333</ele><time>2026-04-18T14:49:10Z</time></trkpt><trkpt lat="43.45109984425575" lon="5.883072730314592"><ele>288.0</ele><time>2026-04-18T14:49:11Z</time></trkpt><trkpt lat="43.45117305156071" lon="5.882835500071258"><ele>288.0</ele><time>2026-04-18T14:49:12Z</time></trkpt><trkpt lat="43.45123500316201" lon="5.882611108594786"><ele>288.0</ele><time>2026-04-18T14:49:13Z</time></trkpt><trkpt lat="43.45128818153857" lon="5.882403747442547"><ele>288.0</ele><time>2026-04-18T14:49:14Z</time></trkpt><trkpt lat="43.45132713897845" lon="5.8822095513883665"><ele>289.0</ele><time>2026-04-18T14:49:15Z</time></trkpt><trkpt lat="43.4513484948995" lon="5.881999176089417"><ele>290.0</ele><time>2026-04-18T14:49:16Z</time></trkpt><trkpt lat="43.45134640807608" lon="5.881764063566069"><ele>291.0</ele><time>2026-04-18T14:49:17Z</time></trkpt><trkpt lat="43.45132443943073" lon="5.881501240170325"><ele>290.6666666666667</ele><time>2026-04-18T14:49:18Z</time></trkpt><trkpt lat="43.451287941556394" lon="5.881216994067045"><ele>290.33333333333337</ele><time>2026-04-18T14:49:19Z</time></trkpt><trkpt lat="43.45123145302282" lon="5.880930428513777"><ele>290.0</ele><time>2026-04-18T14:49:20Z</time></trkpt><trkpt lat="43.45115248410857" lon="5.880674076795105"><ele>289.6666666666667</ele><time>2026-04-18T14:49:21Z</time></trkpt><trkpt lat="43.451072459407406" lon="5.880446823333065"><ele>289.3333333333333</ele><time>2026-04-18T14:49:22Z</time></trkpt><trkpt lat="43.450975886628314" lon="5.880217828431801"><ele>289.0</ele><time>2026-04-18T14:49:23Z</time></trkpt><trkpt lat="43.45085827274356" lon="5.8799771895576365"><ele>289.0</ele><time>2026-04-18T14:49:24Z</time></trkpt><trkpt lat="43.45074707234105" lon="5.8797639701679945"><ele>289.0</ele><time>2026-04-18T14:49:25Z</time></trkpt><trkpt lat="43.45064249437405" lon="5.879568210499957"><ele>289.0</ele><time>2026-04-18T14:49:26Z</time></trkpt><trkpt lat="43.45054450756386" lon="5.87937875455301"><ele>289.0</ele><time>2026-04-18T14:49:27Z</time></trkpt><trkpt lat="43.45045563371285" lon="5.879200591342252"><ele>289.0</ele><time>2026-04-18T14:49:28Z</time></trkpt><trkpt lat="43.45037528971519" lon="5.879030619013471"><ele>289.0</ele><time>2026-04-18T14:49:29Z</time></trkpt><trkpt lat="43.450302459067345" lon="5.878883564096687"><ele>289.0</ele><time>2026-04-18T14:49:30Z</time></trkpt><trkpt lat="43.45023086705236" lon="5.878776829179692"><ele>289.0</ele><time>2026-04-18T14:49:31Z</time></trkpt><trkpt lat="43.45015256260005" lon="5.878668273226912"><ele>289.0</ele><time>2026-04-18T14:49:32Z</time></trkpt><trkpt lat="43.450042936958724" lon="5.878624341275443"><ele>289.0</ele><time>2026-04-18T14:49:33Z</time></trkpt><trkpt lat="43.4499120014062" lon="5.878663216447529"><ele>289.0</ele><time>2026-04-18T14:49:34Z</time></trkpt><trkpt lat="43.44981626752766" lon="5.878668646413288"><ele>289.0</ele><time>2026-04-18T14:49:35Z</time></trkpt><trkpt lat="43.44972791556698" lon="5.878640254043113"><ele>289.0</ele><time>2026-04-18T14:49:36Z</time></trkpt><trkpt lat="43.44964638901883" lon="5.87854536207732"><ele>289.0</ele><time>2026-04-18T14:49:37Z</time></trkpt><trkpt lat="43.44953832254637" lon="5.878443651669948"><ele>289.0</ele><time>2026-04-18T14:49:38Z</time></trkpt><trkpt lat="43.44944548650397" lon="5.878321089445628"><ele>289.0</ele><time>2026-04-18T14:49:39Z</time></trkpt><trkpt lat="43.44936573317901" lon="5.878206813531257"><ele>289.0</ele><time>2026-04-18T14:49:40Z</time></trkpt><trkpt lat="43.44931445101408" lon="5.878071881440233"><ele>289.0</ele><time>2026-04-18T14:49:41Z</time></trkpt><trkpt lat="43.44929899693592" lon="5.877926447294484"><ele>289.0</ele><time>2026-04-18T14:49:42Z</time></trkpt><trkpt lat="43.449308127190385" lon="5.877787379298817"><ele>289.0</ele><time>2026-04-18T14:49:43Z</time></trkpt><trkpt lat="43.44929552631287" lon="5.877655484708696"><ele>289.0</ele><time>2026-04-18T14:49:44Z</time></trkpt><trkpt lat="43.44924198290607" lon="5.87753194829699"><ele>289.0</ele><time>2026-04-18T14:49:45Z</time></trkpt><trkpt lat="43.44916135441341" lon="5.87740353410988"><ele>289.0</ele><time>2026-04-18T14:49:46Z</time></trkpt><trkpt lat="43.44907038848226" lon="5.877271506654154"><ele>289.0</ele><time>2026-04-18T14:49:47Z</time></trkpt><trkpt lat="43.44899299715831" lon="5.877149364833761"><ele>289.0</ele><time>2026-04-18T14:49:48Z</time></trkpt><trkpt lat="43.44892143432954" lon="5.877027450036583"><ele>289.0</ele><time>2026-04-18T14:49:49Z</time></trkpt><trkpt lat="43.44886209433305" lon="5.876907439034694"><ele>289.0</ele><time>2026-04-18T14:49:50Z</time></trkpt><trkpt lat="43.44881382464354" lon="5.876789478009437"><ele>289.0</ele><time>2026-04-18T14:49:51Z</time></trkpt><trkpt lat="43.448772168383854" lon="5.876675490265227"><ele>289.0</ele><time>2026-04-18T14:49:52Z</time></trkpt><trkpt lat="43.448731413551236" lon="5.8765662366610005"><ele>289.0</ele><time>2026-04-18T14:49:53Z</time></trkpt><trkpt lat="43.44868744567449" lon="5.876468375392002"><ele>289.0</ele><time>2026-04-18T14:49:54Z</time></trkpt><trkpt lat="43.448639844680955" lon="5.876381635878905"><ele>289.0</ele><time>2026-04-18T14:49:55Z</time></trkpt><trkpt lat="43.44858730722258" lon="5.876314168622359"><ele>289.0</ele><time>2026-04-18T14:49:56Z</time></trkpt><trkpt lat="43.44849838485546" lon="5.876336416955325"><ele>289.0</ele><time>2026-04-18T14:49:57Z</time></trkpt><trkpt lat="43.44843466972921" lon="5.876305343663728"><ele>289.0</ele><time>2026-04-18T14:49:58Z</time></trkpt><trkpt lat="43.44832336885105" lon="5.876306028436156"><ele>289.0</ele><time>2026-04-18T14:50:00Z</time></trkpt><trkpt lat="43.44823164757215" lon="5.87627929073524"><ele>289.0</ele><time>2026-04-18T14:50:02Z</time></trkpt><trkpt lat="43.44817989686277" lon="5.87621458835788"><ele>289.0</ele><time>2026-04-18T14:50:04Z</time></trkpt><trkpt lat="43.44813584383491" lon="5.8761270626375"><ele>289.0</ele><time>2026-04-18T14:50:06Z</time></trkpt><trkpt lat="43.448122405705526" lon="5.876029532151237"><ele>289.0</ele><time>2026-04-18T14:50:08Z</time></trkpt><trkpt lat="43.448091026308624" lon="5.875920974586675"><ele>289.0</ele><time>2026-04-18T14:50:12Z</time></trkpt><trkpt lat="43.448017251139674" lon="5.875830035584345"><ele>289.0</ele><time>2026-04-18T14:50:14Z</time></trkpt><trkpt lat="43.44801383834448" lon="5.875694868010641"><ele>289.0</ele><time>2026-04-18T14:50:16Z</time></trkpt><trkpt lat="43.44800976200152" lon="5.8754945213638585"><ele>289.0</ele><time>2026-04-18T14:50:18Z</time></trkpt><trkpt lat="43.44799494300198" lon="5.875360647534971"><ele>289.0</ele><time>2026-04-18T14:50:19Z</time></trkpt><trkpt lat="43.447964780748514" lon="5.875240902748267"><ele>289.0</ele><time>2026-04-18T14:50:20Z</time></trkpt><trkpt lat="43.44791389974299" lon="5.875148574269551"><ele>289.5</ele><time>2026-04-18T14:50:21Z</time></trkpt><trkpt lat="43.44784948690978" lon="5.875085338362173"><ele>290.0</ele><time>2026-04-18T14:50:22Z</time></trkpt><trkpt lat="43.447792298373365" lon="5.875023958513887"><ele>290.5</ele><time>2026-04-18T14:50:23Z</time></trkpt><trkpt lat="43.44774563541308" lon="5.87495877568144"><ele>291.0</ele><time>2026-04-18T14:50:24Z</time></trkpt><trkpt lat="43.44767118742455" lon="5.8748412853994925"><ele>291.5</ele><time>2026-04-18T14:50:26Z</time></trkpt><trkpt lat="43.44762765680925" lon="5.874736210463905"><ele>292.0</ele><time>2026-04-18T14:50:28Z</time></trkpt><trkpt lat="43.44762756919833" lon="5.874570047145917"><ele>292.0</ele><time>2026-04-18T14:50:32Z</time></trkpt><trkpt lat="43.447662000038534" lon="5.874472278878804"><ele>292.0</ele><time>2026-04-18T14:50:33Z</time></trkpt><trkpt lat="43.44769970555361" lon="5.87438133448421"><ele>292.0</ele><time>2026-04-18T14:50:34Z</time></trkpt><trkpt lat="43.447742242337235" lon="5.874277667524901"><ele>292.0</ele><time>2026-04-18T14:50:35Z</time></trkpt><trkpt lat="43.44779723631106" lon="5.874147342675476"><ele>292.0</ele><time>2026-04-18T14:50:36Z</time></trkpt><trkpt lat="43.44785220264117" lon="5.874006130993769"><ele>292.25</ele><time>2026-04-18T14:50:37Z</time></trkpt><trkpt lat="43.44792928322039" lon="5.873842668935375"><ele>292.5</ele><time>2026-04-18T14:50:38Z</time></trkpt><trkpt lat="43.44800571792654" lon="5.87367878833244"><ele>292.75</ele><time>2026-04-18T14:50:39Z</time></trkpt><trkpt lat="43.448068669385734" lon="5.873536777713198"><ele>293.0</ele><time>2026-04-18T14:50:40Z</time></trkpt><trkpt lat="43.44813499387137" lon="5.873417867180552"><ele>293.0</ele><time>2026-04-18T14:50:41Z</time></trkpt><trkpt lat="43.44822700915013" lon="5.873346571278237"><ele>293.0</ele><time>2026-04-18T14:50:42Z</time></trkpt><trkpt lat="43.44833968272883" lon="5.873329438863712"><ele>293.0</ele><time>2026-04-18T14:50:43Z</time></trkpt><trkpt lat="43.448466696869495" lon="5.873314671991468"><ele>293.0</ele><time>2026-04-18T14:50:44Z</time></trkpt><trkpt lat="43.44856777930644" lon="5.873237187175784"><ele>293.0</ele><time>2026-04-18T14:50:45Z</time></trkpt><trkpt lat="43.44866053559352" lon="5.873108825463445"><ele>293.0</ele><time>2026-04-18T14:50:46Z</time></trkpt><trkpt lat="43.448759755686986" lon="5.872947481390607"><ele>293.0</ele><time>2026-04-18T14:50:47Z</time></trkpt><trkpt lat="43.44884807994308" lon="5.872798671615102"><ele>293.0</ele><time>2026-04-18T14:50:48Z</time></trkpt><trkpt lat="43.448924283376556" lon="5.8726559803942715"><ele>293.5</ele><time>2026-04-18T14:50:49Z</time></trkpt><trkpt lat="43.44896293915938" lon="5.872497422371967"><ele>294.0</ele><time>2026-04-18T14:50:50Z</time></trkpt><trkpt lat="43.448986318106286" lon="5.872329872263262"><ele>294.5</ele><time>2026-04-18T14:50:51Z</time></trkpt><trkpt lat="43.44900772155042" lon="5.872170066970426"><ele>295.0</ele><time>2026-04-18T14:50:52Z</time></trkpt><trkpt lat="43.44902363835606" lon="5.872013212034609"><ele>295.0</ele><time>2026-04-18T14:50:53Z</time></trkpt><trkpt lat="43.44903788959822" lon="5.871860392000548"><ele>295.0</ele><time>2026-04-18T14:50:54Z</time></trkpt><trkpt lat="43.44905252258323" lon="5.871680712718989"><ele>295.0</ele><time>2026-04-18T14:50:55Z</time></trkpt><trkpt lat="43.4490705468485" lon="5.871490988410488"><ele>295.0</ele><time>2026-04-18T14:50:56Z</time></trkpt><trkpt lat="43.44908784471517" lon="5.871303788656899"><ele>295.6</ele><time>2026-04-18T14:50:57Z</time></trkpt><trkpt lat="43.44910479427145" lon="5.871148085988563"><ele>296.2</ele><time>2026-04-18T14:50:58Z</time></trkpt><trkpt lat="43.44912027003161" lon="5.87102991893245"><ele>296.8</ele><time>2026-04-18T14:50:59Z</time></trkpt><trkpt lat="43.44915104622817" lon="5.870925622425627"><ele>297.4</ele><time>2026-04-18T14:51:00Z</time></trkpt><trkpt lat="43.44920917991969" lon="5.870849974525765"><ele>298.0</ele><time>2026-04-18T14:51:01Z</time></trkpt><trkpt lat="43.44929777594775" lon="5.870795370595117"><ele>298.0</ele><time>2026-04-18T14:51:02Z</time></trkpt><trkpt lat="43.44941759157962" lon="5.870717117232169"><ele>298.0</ele><time>2026-04-18T14:51:03Z</time></trkpt><trkpt lat="43.44955357135317" lon="5.870625264312004"><ele>298.0</ele><time>2026-04-18T14:51:04Z</time></trkpt><trkpt lat="43.44968666575097" lon="5.87054140959185"><ele>298.0</ele><time>2026-04-18T14:51:05Z</time></trkpt><trkpt lat="43.44978281177245" lon="5.870478200154614"><ele>298.0</ele><time>2026-04-18T14:51:06Z</time></trkpt><trkpt lat="43.449847212167946" lon="5.870398134166081"><ele>298.0</ele><time>2026-04-18T14:51:07Z</time></trkpt><trkpt lat="43.449872093580254" lon="5.870284257290546"><ele>298.0</ele><time>2026-04-18T14:51:08Z</time></trkpt><trkpt lat="43.44985584748605" lon="5.87014099482611"><ele>298.0</ele><time>2026-04-18T14:51:09Z</time></trkpt><trkpt lat="43.4498098274365" lon="5.869974988858776"><ele>298.0</ele><time>2026-04-18T14:51:10Z</time></trkpt><trkpt lat="43.44975955954837" lon="5.869816341949324"><ele>299.5</ele><time>2026-04-18T14:51:11Z</time></trkpt><trkpt lat="43.44973219016423" lon="5.869679966083743"><ele>301.0</ele><time>2026-04-18T14:51:12Z</time></trkpt><trkpt lat="43.44972174084568" lon="5.869527121298006"><ele>302.5</ele><time>2026-04-18T14:51:13Z</time></trkpt><trkpt lat="43.44971434836205" lon="5.869353792236058"><ele>304.0</ele><time>2026-04-18T14:51:14Z</time></trkpt><trkpt lat="43.449738577908064" lon="5.869158341636378"><ele>304.25</ele><time>2026-04-18T14:51:15Z</time></trkpt><trkpt lat="43.449787920798514" lon="5.868936370751643"><ele>304.5</ele><time>2026-04-18T14:51:16Z</time></trkpt><trkpt lat="43.44982273738704" lon="5.868759594306357"><ele>304.75</ele><time>2026-04-18T14:51:17Z</time></trkpt><trkpt lat="43.44985872375795" lon="5.868589353495667"><ele>305.0</ele><time>2026-04-18T14:51:18Z</time></trkpt><trkpt lat="43.44989771841014" lon="5.8684474964040545"><ele>304.75</ele><time>2026-04-18T14:51:19Z</time></trkpt><trkpt lat="43.44996624856316" lon="5.868321855103593"><ele>304.5</ele><time>2026-04-18T14:51:20Z</time></trkpt><trkpt lat="43.45006477817568" lon="5.868189057041983"><ele>304.25</ele><time>2026-04-18T14:51:21Z</time></trkpt><trkpt lat="43.45018519753886" lon="5.868040551888238"><ele>304.0</ele><time>2026-04-18T14:51:22Z</time></trkpt><trkpt lat="43.45029963969008" lon="5.867898022291346"><ele>304.0</ele><time>2026-04-18T14:51:23Z</time></trkpt><trkpt lat="43.450433167342396" lon="5.867742715095506"><ele>304.0</ele><time>2026-04-18T14:51:24Z</time></trkpt><trkpt lat="43.45057507097649" lon="5.867581719250917"><ele>304.0</ele><time>2026-04-18T14:51:25Z</time></trkpt><trkpt lat="43.450699383046505" lon="5.867422085074888"><ele>303.0</ele><time>2026-04-18T14:51:26Z</time></trkpt><trkpt lat="43.45081265278828" lon="5.867261727270804"><ele>302.0</ele><time>2026-04-18T14:51:27Z</time></trkpt><trkpt lat="43.45093146689455" lon="5.867079818925457"><ele>301.0</ele><time>2026-04-18T14:51:28Z</time></trkpt><trkpt lat="43.45105103934856" lon="5.866893647385137"><ele>301.0</ele><time>2026-04-18T14:51:29Z</time></trkpt><trkpt lat="43.45116226023761" lon="5.866733999239922"><ele>301.0</ele><time>2026-04-18T14:51:30Z</time></trkpt><trkpt lat="43.45125591385821" lon="5.866590727797178"><ele>301.0</ele><time>2026-04-18T14:51:31Z</time></trkpt><trkpt lat="43.45132950599952" lon="5.866452706219148"><ele>301.0</ele><time>2026-04-18T14:51:32Z</time></trkpt><trkpt lat="43.45137330098606" lon="5.866314276677296"><ele>300.8333333333333</ele><time>2026-04-18T14:51:33Z</time></trkpt><trkpt lat="43.45139612604129" lon="5.866183995183151"><ele>300.66666666666663</ele><time>2026-04-18T14:51:34Z</time></trkpt><trkpt lat="43.451410200386704" lon="5.86608192614924"><ele>300.5</ele><time>2026-04-18T14:51:35Z</time></trkpt><trkpt lat="43.45142656066877" lon="5.865996652428858"><ele>300.3333333333333</ele><time>2026-04-18T14:51:36Z</time></trkpt><trkpt lat="43.451409508514935" lon="5.8658597932653365"><ele>300.1666666666667</ele><time>2026-04-18T14:51:38Z</time></trkpt><trkpt lat="43.451322955142764" lon="5.865791297695853"><ele>300.0</ele><time>2026-04-18T14:51:40Z</time></trkpt><trkpt lat="43.451234433360085" lon="5.865673649181085"><ele>300.8</ele><time>2026-04-18T14:51:42Z</time></trkpt><trkpt lat="43.45117615453842" lon="5.865618853873817"><ele>301.6</ele><time>2026-04-18T14:51:43Z</time></trkpt><trkpt lat="43.451105079991684" lon="5.86556873808068"><ele>302.4</ele><time>2026-04-18T14:51:44Z</time></trkpt><trkpt lat="43.45102562597623" lon="5.865503281992886"><ele>303.2</ele><time>2026-04-18T14:51:45Z</time></trkpt><trkpt lat="43.45093460373054" lon="5.8654423291801585"><ele>304.0</ele><time>2026-04-18T14:51:46Z</time></trkpt><trkpt lat="43.45084163786725" lon="5.865372996699751"><ele>304.0</ele><time>2026-04-18T14:51:47Z</time></trkpt><trkpt lat="43.450761409006766" lon="5.865305831388743"><ele>304.0</ele><time>2026-04-18T14:51:48Z</time></trkpt><trkpt lat="43.45068897211265" lon="5.865237028278442"><ele>304.0</ele><time>2026-04-18T14:51:49Z</time></trkpt><trkpt lat="43.4506244082124" lon="5.8651573994117"><ele>304.0</ele><time>2026-04-18T14:51:50Z</time></trkpt><trkpt lat="43.45055740713217" lon="5.8650760734499"><ele>304.0</ele><time>2026-04-18T14:51:51Z</time></trkpt><trkpt lat="43.450486800364416" lon="5.864984484251817"><ele>304.1428571428571</ele><time>2026-04-18T14:51:52Z</time></trkpt><trkpt lat="43.45042320269551" lon="5.864900992475345"><ele>304.28571428571433</ele><time>2026-04-18T14:51:53Z</time></trkpt><trkpt lat="43.450365019594166" lon="5.864823263518432"><ele>304.42857142857144</ele><time>2026-04-18T14:51:54Z</time></trkpt><trkpt lat="43.45030880830746" lon="5.864752748749363"><ele>304.57142857142856</ele><time>2026-04-18T14:51:55Z</time></trkpt><trkpt lat="43.45025678562888" lon="5.8646862193812845"><ele>304.71428571428567</ele><time>2026-04-18T14:51:56Z</time></trkpt><trkpt lat="43.45021245846407" lon="5.864622903353266"><ele>304.8571428571429</ele><time>2026-04-18T14:51:57Z</time></trkpt><trkpt lat="43.45017118584652" lon="5.864557116310299"><ele>305.0</ele><time>2026-04-18T14:51:58Z</time></trkpt><trkpt lat="43.45012364365403" lon="5.864487128928671"><ele>305.0</ele><time>2026-04-18T14:51:59Z</time></trkpt><trkpt lat="43.450074156632304" lon="5.864416482945104"><ele>305.0</ele><time>2026-04-18T14:52:00Z</time></trkpt><trkpt lat="43.45003450604698" lon="5.864346657346528"><ele>305.0</ele><time>2026-04-18T14:52:01Z</time></trkpt><trkpt lat="43.44997868880077" lon="5.864200076897835"><ele>305.0</ele><time>2026-04-18T14:52:03Z</time></trkpt><trkpt lat="43.449945943816445" lon="5.864087005585938"><ele>305.0</ele><time>2026-04-18T14:52:05Z</time></trkpt><trkpt lat="43.44990324928157" lon="5.864002227134194"><ele>305.0</ele><time>2026-04-18T14:52:07Z</time></trkpt><trkpt lat="43.44982818694957" lon="5.863889636447038"><ele>305.1666666666667</ele><time>2026-04-18T14:52:09Z</time></trkpt><trkpt lat="43.449730916614946" lon="5.863839226405803"><ele>305.33333333333337</ele><time>2026-04-18T14:52:11Z</time></trkpt><trkpt lat="43.44962914517092" lon="5.8637682319784155"><ele>305.5</ele><time>2026-04-18T14:52:13Z</time></trkpt><trkpt lat="43.44956870551262" lon="5.863729784063302"><ele>305.6666666666667</ele><time>2026-04-18T14:52:14Z</time></trkpt><trkpt lat="43.44950771730628" lon="5.863687714671331"><ele>305.8333333333333</ele><time>2026-04-18T14:52:15Z</time></trkpt><trkpt lat="43.449445140190186" lon="5.863642688309722"><ele>306.0</ele><time>2026-04-18T14:52:16Z</time></trkpt><trkpt lat="43.44938184737308" lon="5.863600150278004"><ele>306.1666666666667</ele><time>2026-04-18T14:52:17Z</time></trkpt><trkpt lat="43.44931813157033" lon="5.863562224459121"><ele>306.3333333333333</ele><time>2026-04-18T14:52:18Z</time></trkpt><trkpt lat="43.44925518631458" lon="5.863523406512698"><ele>306.5</ele><time>2026-04-18T14:52:19Z</time></trkpt><trkpt lat="43.449189712161555" lon="5.863478996763292"><ele>306.66666666666663</ele><time>2026-04-18T14:52:20Z</time></trkpt><trkpt lat="43.449121097879264" lon="5.863432513881196"><ele>306.8333333333333</ele><time>2026-04-18T14:52:21Z</time></trkpt><trkpt lat="43.44904884977924" lon="5.863383927954174"><ele>307.0</ele><time>2026-04-18T14:52:22Z</time></trkpt><trkpt lat="43.448974492833216" lon="5.8633372291510515"><ele>307.4</ele><time>2026-04-18T14:52:23Z</time></trkpt><trkpt lat="43.44890745512824" lon="5.863293212250918"><ele>307.79999999999995</ele><time>2026-04-18T14:52:24Z</time></trkpt><trkpt lat="43.448847896840824" lon="5.863252206437656"><ele>308.2</ele><time>2026-04-18T14:52:25Z</time></trkpt><trkpt lat="43.448754828852984" lon="5.863165164377807"><ele>308.59999999999997</ele><time>2026-04-18T14:52:27Z</time></trkpt><trkpt lat="43.44869580849813" lon="5.863090225785134"><ele>309.0</ele><time>2026-04-18T14:52:29Z</time></trkpt><trkpt lat="43.44863883704871" lon="5.86293854478783"><ele>309.0</ele><time>2026-04-18T14:52:31Z</time></trkpt><trkpt lat="43.44856552924283" lon="5.862850521259793"><ele>309.0</ele><time>2026-04-18T14:52:33Z</time></trkpt><trkpt lat="43.448440449011514" lon="5.8629128728591065"><ele>309.0</ele><time>2026-04-18T14:52:35Z</time></trkpt><trkpt lat="43.44836530178143" lon="5.862962100432196"><ele>309.0</ele><time>2026-04-18T14:52:36Z</time></trkpt><trkpt lat="43.44829504163155" lon="5.863050927414775"><ele>309.0</ele><time>2026-04-18T14:52:37Z</time></trkpt><trkpt lat="43.44820995376408" lon="5.863132120649412"><ele>309.0</ele><time>2026-04-18T14:52:38Z</time></trkpt><trkpt lat="43.448122103156166" lon="5.863238024527083"><ele>309.0</ele><time>2026-04-18T14:52:39Z</time></trkpt><trkpt lat="43.44804582880206" lon="5.863344437266587"><ele>309.0</ele><time>2026-04-18T14:52:40Z</time></trkpt><trkpt lat="43.44798114368852" lon="5.86343523722176"><ele>309.0</ele><time>2026-04-18T14:52:41Z</time></trkpt><trkpt lat="43.44791964504597" lon="5.863517141801678"><ele>309.0</ele><time>2026-04-18T14:52:42Z</time></trkpt><trkpt lat="43.447859972758415" lon="5.863594563733096"><ele>309.1666666666667</ele><time>2026-04-18T14:52:43Z</time></trkpt><trkpt lat="43.447804887945374" lon="5.86366956564489"><ele>309.3333333333333</ele><time>2026-04-18T14:52:44Z</time></trkpt><trkpt lat="43.44775565078337" lon="5.86374275020258"><ele>309.5</ele><time>2026-04-18T14:52:45Z</time></trkpt><trkpt lat="43.44769860246273" lon="5.863829949268648"><ele>309.66666666666663</ele><time>2026-04-18T14:52:46Z</time></trkpt><trkpt lat="43.44762916371443" lon="5.863937446272319"><ele>309.8333333333333</ele><time>2026-04-18T14:52:47Z</time></trkpt><trkpt lat="43.4475477687958" lon="5.864035308879137"><ele>310.0</ele><time>2026-04-18T14:52:48Z</time></trkpt><trkpt lat="43.44745378900887" lon="5.86411918564191"><ele>310.0</ele><time>2026-04-18T14:52:49Z</time></trkpt><trkpt lat="43.447334999412995" lon="5.864190515244285"><ele>310.0</ele><time>2026-04-18T14:52:50Z</time></trkpt><trkpt lat="43.447211180568765" lon="5.864264794135702"><ele>310.0</ele><time>2026-04-18T14:52:51Z</time></trkpt><trkpt lat="43.4471083477699" lon="5.864387555460764"><ele>310.0</ele><time>2026-04-18T14:52:52Z</time></trkpt><trkpt lat="43.446996911263135" lon="5.864452139109444"><ele>311.3333333333333</ele><time>2026-04-18T14:52:53Z</time></trkpt><trkpt lat="43.446902637191684" lon="5.864503633527882"><ele>312.66666666666663</ele><time>2026-04-18T14:52:54Z</time></trkpt><trkpt lat="43.44683136890418" lon="5.864541337747508"><ele>314.0</ele><time>2026-04-18T14:52:55Z</time></trkpt><trkpt lat="43.446756435965455" lon="5.86451117531308"><ele>315.3333333333333</ele><time>2026-04-18T14:52:56Z</time></trkpt><trkpt lat="43.446690721366664" lon="5.864511532894234"><ele>316.6666666666667</ele><time>2026-04-18T14:52:57Z</time></trkpt><trkpt lat="43.4466220737761" lon="5.864653720155842"><ele>318.0</ele><time>2026-04-18T14:52:58Z</time></trkpt><trkpt lat="43.44660383763414" lon="5.864449796042222"><ele>318.0</ele><time>2026-04-18T14:52:59Z</time></trkpt><trkpt lat="43.44656778362969" lon="5.864716816645549"><ele>318.0</ele><time>2026-04-18T14:53:00Z</time></trkpt><trkpt lat="43.44633609596036" lon="5.864570392057332"><ele>318.0</ele><time>2026-04-18T14:53:04Z</time></trkpt><trkpt lat="43.44625131461908" lon="5.864491967616707"><ele>318.0</ele><time>2026-04-18T14:53:06Z</time></trkpt><trkpt lat="43.44618456519353" lon="5.8644371536156275"><ele>318.0</ele><time>2026-04-18T14:53:08Z</time></trkpt><trkpt lat="43.446145890148266" lon="5.864511460679167"><ele>318.0</ele><time>2026-04-18T14:53:10Z</time></trkpt><trkpt lat="43.44614417383586" lon="5.864624173291093"><ele>318.0</ele><time>2026-04-18T14:53:11Z</time></trkpt><trkpt lat="43.44614718656392" lon="5.864729729480398"><ele>318.0</ele><time>2026-04-18T14:53:13Z</time></trkpt><trkpt lat="43.44609017658554" lon="5.864689024795171"><ele>318.0</ele><time>2026-04-18T14:53:25Z</time></trkpt><trkpt lat="43.44604609050339" lon="5.8649031909595335"><ele>318.0</ele><time>2026-04-18T15:02:38Z</time></trkpt><trkpt lat="43.44602058974228" lon="5.865052224344254"><ele>318.0</ele><time>2026-04-18T15:02:40Z</time></trkpt><trkpt lat="43.44594152470251" lon="5.86508401460146"><ele>318.0</ele><time>2026-04-18T15:02:42Z</time></trkpt><trkpt lat="43.44587780225688" lon="5.864995857963757"><ele>318.0</ele><time>2026-04-18T15:02:44Z</time></trkpt><trkpt lat="43.44586442236033" lon="5.864826123047408"><ele>318.0</ele><time>2026-04-18T15:02:46Z</time></trkpt><trkpt lat="43.44585025865446" lon="5.864723455176226"><ele>318.0</ele><time>2026-04-18T15:02:47Z</time></trkpt><trkpt lat="43.44581840836861" lon="5.864626090823514"><ele>318.0</ele><time>2026-04-18T15:02:48Z</time></trkpt><trkpt lat="43.445927370337294" lon="5.864422848622266"><ele>318.0</ele><time>2026-04-18T15:02:50Z</time></trkpt><trkpt lat="43.445993352240635" lon="5.864317659124695"><ele>318.0</ele><time>2026-04-18T15:02:51Z</time></trkpt><trkpt lat="43.446092406829834" lon="5.864159246925677"><ele>319.3333333333333</ele><time>2026-04-18T15:02:52Z</time></trkpt><trkpt lat="43.446211641205586" lon="5.863999083510521"><ele>320.66666666666663</ele><time>2026-04-18T15:02:53Z</time></trkpt><trkpt lat="43.44631812417909" lon="5.863859193766384"><ele>322.0</ele><time>2026-04-18T15:02:54Z</time></trkpt><trkpt lat="43.44643245253032" lon="5.863698141556016"><ele>320.3333333333333</ele><time>2026-04-18T15:02:55Z</time></trkpt><trkpt lat="43.4465492382947" lon="5.863476008875022"><ele>318.6666666666667</ele><time>2026-04-18T15:02:56Z</time></trkpt><trkpt lat="43.44668566106692" lon="5.86331426068204"><ele>317.0</ele><time>2026-04-18T15:02:57Z</time></trkpt><trkpt lat="43.446791739585734" lon="5.863131099905765"><ele>317.0</ele><time>2026-04-18T15:02:58Z</time></trkpt><trkpt lat="43.44692618478403" lon="5.862973097920887"><ele>317.0</ele><time>2026-04-18T15:02:59Z</time></trkpt><trkpt lat="43.4470557671054" lon="5.862770117174379"><ele>317.0</ele><time>2026-04-18T15:03:00Z</time></trkpt><trkpt lat="43.44718705477441" lon="5.8625934943531695"><ele>316.0</ele><time>2026-04-18T15:03:01Z</time></trkpt><trkpt lat="43.44730501627281" lon="5.862429558301804"><ele>315.0</ele><time>2026-04-18T15:03:02Z</time></trkpt><trkpt lat="43.44741637227225" lon="5.8622775670919145"><ele>314.0</ele><time>2026-04-18T15:03:03Z</time></trkpt><trkpt lat="43.4475378352482" lon="5.862100339784363"><ele>314.0</ele><time>2026-04-18T15:03:04Z</time></trkpt><trkpt lat="43.44762884859464" lon="5.861919502345985"><ele>314.0</ele><time>2026-04-18T15:03:05Z</time></trkpt><trkpt lat="43.447744532141556" lon="5.861783842359029"><ele>314.0</ele><time>2026-04-18T15:03:06Z</time></trkpt><trkpt lat="43.447841664788534" lon="5.861651294790404"><ele>314.0</ele><time>2026-04-18T15:03:07Z</time></trkpt><trkpt lat="43.44793350715006" lon="5.861532675255571"><ele>313.4</ele><time>2026-04-18T15:03:08Z</time></trkpt><trkpt lat="43.44801864673206" lon="5.86143042718412"><ele>312.79999999999995</ele><time>2026-04-18T15:03:09Z</time></trkpt><trkpt lat="43.448100195521796" lon="5.8613558796281815"><ele>312.20000000000005</ele><time>2026-04-18T15:03:10Z</time></trkpt><trkpt lat="43.448156616886365" lon="5.8612860087767835"><ele>311.6</ele><time>2026-04-18T15:03:11Z</time></trkpt><trkpt lat="43.44825818913958" lon="5.861209519333409"><ele>311.0</ele><time>2026-04-18T15:03:13Z</time></trkpt><trkpt lat="43.44831368132132" lon="5.861116857569968"><ele>311.0</ele><time>2026-04-18T15:03:15Z</time></trkpt><trkpt lat="43.44838576432577" lon="5.861173050577336"><ele>311.0</ele><time>2026-04-18T15:03:19Z</time></trkpt><trkpt lat="43.44845271791639" lon="5.861199682086121"><ele>311.0</ele><time>2026-04-18T15:03:20Z</time></trkpt><trkpt lat="43.44853049394609" lon="5.861187208377042"><ele>311.0</ele><time>2026-04-18T15:03:21Z</time></trkpt><trkpt lat="43.44859783598119" lon="5.8611336505271545"><ele>311.0</ele><time>2026-04-18T15:03:22Z</time></trkpt><trkpt lat="43.448634807469574" lon="5.861046635957008"><ele>311.0</ele><time>2026-04-18T15:03:23Z</time></trkpt><trkpt lat="43.44863430078599" lon="5.860953872169774"><ele>311.0</ele><time>2026-04-18T15:03:24Z</time></trkpt><trkpt lat="43.44859016900233" lon="5.860856065342419"><ele>311.25</ele><time>2026-04-18T15:03:25Z</time></trkpt><trkpt lat="43.44851750091554" lon="5.860784694536868"><ele>311.5</ele><time>2026-04-18T15:03:26Z</time></trkpt><trkpt lat="43.44841667985093" lon="5.860747432594439"><ele>311.75</ele><time>2026-04-18T15:03:27Z</time></trkpt><trkpt lat="43.448281489589526" lon="5.860713189211657"><ele>312.0</ele><time>2026-04-18T15:03:28Z</time></trkpt><trkpt lat="43.44814773300229" lon="5.860697718165433"><ele>312.0</ele><time>2026-04-18T15:03:29Z</time></trkpt><trkpt lat="43.448030419536" lon="5.860699413517648"><ele>312.0</ele><time>2026-04-18T15:03:30Z</time></trkpt><trkpt lat="43.44792657782039" lon="5.860725309445068"><ele>312.0</ele><time>2026-04-18T15:03:31Z</time></trkpt><trkpt lat="43.447831317490994" lon="5.860740112276324"><ele>312.0</ele><time>2026-04-18T15:03:32Z</time></trkpt><trkpt lat="43.447725296495896" lon="5.860727970158993"><ele>312.0</ele><time>2026-04-18T15:03:33Z</time></trkpt><trkpt lat="43.44759566836062" lon="5.86070331061543"><ele>313.0</ele><time>2026-04-18T15:03:34Z</time></trkpt><trkpt lat="43.44745749309666" lon="5.860652796646548"><ele>314.0</ele><time>2026-04-18T15:03:35Z</time></trkpt><trkpt lat="43.44731518768591" lon="5.860566463114432"><ele>315.0</ele><time>2026-04-18T15:03:36Z</time></trkpt><trkpt lat="43.447150815837574" lon="5.860496105628816"><ele>315.75</ele><time>2026-04-18T15:03:37Z</time></trkpt><trkpt lat="43.44699296212104" lon="5.860433768633934"><ele>316.5</ele><time>2026-04-18T15:03:38Z</time></trkpt><trkpt lat="43.44687855014052" lon="5.860387329531494"><ele>317.25</ele><time>2026-04-18T15:03:39Z</time></trkpt><trkpt lat="43.44680191899688" lon="5.860366168993087"><ele>318.0</ele><time>2026-04-18T15:03:40Z</time></trkpt><trkpt lat="43.44669967606364" lon="5.860315377295997"><ele>318.0</ele><time>2026-04-18T15:03:42Z</time></trkpt><trkpt lat="43.446606084878105" lon="5.860273686566888"><ele>318.0</ele><time>2026-04-18T15:03:44Z</time></trkpt><trkpt lat="43.44650233662641" lon="5.860226613665813"><ele>318.0</ele><time>2026-04-18T15:03:46Z</time></trkpt><trkpt lat="43.446504243397186" lon="5.860128834275551"><ele>318.0</ele><time>2026-04-18T15:03:47Z</time></trkpt><trkpt lat="43.446541631718524" lon="5.8600315713627555"><ele>318.0</ele><time>2026-04-18T15:03:48Z</time></trkpt><trkpt lat="43.44660182449162" lon="5.859926177842468"><ele>318.4</ele><time>2026-04-18T15:03:49Z</time></trkpt><trkpt lat="43.44665162748191" lon="5.859829329755889"><ele>318.8</ele><time>2026-04-18T15:03:49.999Z</time></trkpt><trkpt lat="43.44670191120958" lon="5.859774432674768"><ele>319.2</ele><time>2026-04-18T15:03:50.999Z</time></trkpt><trkpt lat="43.446621907981886" lon="5.8596451255738655"><ele>319.6</ele><time>2026-04-18T15:03:51.999Z</time></trkpt><trkpt lat="43.44653566531507" lon="5.859563907689926"><ele>320.0</ele><time>2026-04-18T15:03:53Z</time></trkpt><trkpt lat="43.44643648414377" lon="5.8594769077337565"><ele>320.0</ele><time>2026-04-18T15:03:54Z</time></trkpt><trkpt lat="43.44632759019146" lon="5.859320692558636"><ele>320.0</ele><time>2026-04-18T15:03:55Z</time></trkpt><trkpt lat="43.44621259956829" lon="5.859199425327802"><ele>320.0</ele><time>2026-04-18T15:03:56Z</time></trkpt><trkpt lat="43.446092615536635" lon="5.8590042854432625"><ele>319.75</ele><time>2026-04-18T15:03:57Z</time></trkpt><trkpt lat="43.44602427092782" lon="5.858832239103827"><ele>319.5</ele><time>2026-04-18T15:03:58Z</time></trkpt><trkpt lat="43.44594433932641" lon="5.85870234318166"><ele>319.25</ele><time>2026-04-18T15:03:59Z</time></trkpt><trkpt lat="43.44586139255106" lon="5.858552851744116"><ele>319.0</ele><time>2026-04-18T15:04:00Z</time></trkpt><trkpt lat="43.445780654633566" lon="5.85837643677694"><ele>319.5</ele><time>2026-04-18T15:04:01Z</time></trkpt><trkpt lat="43.445714271568505" lon="5.858197040522169"><ele>320.0</ele><time>2026-04-18T15:04:02Z</time></trkpt><trkpt lat="43.44565715613952" lon="5.858048815096772"><ele>320.5</ele><time>2026-04-18T15:04:03Z</time></trkpt><trkpt lat="43.44559828697217" lon="5.857931991143526"><ele>321.0</ele><time>2026-04-18T15:04:04Z</time></trkpt><trkpt lat="43.44551336347854" lon="5.857858746194282"><ele>321.5</ele><time>2026-04-18T15:04:05Z</time></trkpt><trkpt lat="43.44539373184288" lon="5.857792649776188"><ele>322.0</ele><time>2026-04-18T15:04:06Z</time></trkpt><trkpt lat="43.44528794545418" lon="5.857656849822756"><ele>322.5</ele><time>2026-04-18T15:04:07Z</time></trkpt><trkpt lat="43.44517166418259" lon="5.857557751063244"><ele>323.0</ele><time>2026-04-18T15:04:08Z</time></trkpt><trkpt lat="43.44508191295583" lon="5.85746701061188"><ele>323.33333333333337</ele><time>2026-04-18T15:04:09Z</time></trkpt><trkpt lat="43.44502249160049" lon="5.857359545010385"><ele>323.6666666666667</ele><time>2026-04-18T15:04:10Z</time></trkpt><trkpt lat="43.44496414690757" lon="5.857314232726711"><ele>324.0</ele><time>2026-04-18T15:04:11Z</time></trkpt><trkpt lat="43.444859775040406" lon="5.857387245208979"><ele>324.3333333333333</ele><time>2026-04-18T15:04:13Z</time></trkpt><trkpt lat="43.44480592878113" lon="5.857456210094494"><ele>324.66666666666663</ele><time>2026-04-18T15:04:14Z</time></trkpt><trkpt lat="43.44473813136521" lon="5.857472847135905"><ele>325.0</ele><time>2026-04-18T15:04:15Z</time></trkpt><trkpt lat="43.444661130878785" lon="5.857445166460089"><ele>325.75</ele><time>2026-04-18T15:04:16Z</time></trkpt><trkpt lat="43.444570651506574" lon="5.8573979215234075"><ele>326.5</ele><time>2026-04-18T15:04:17Z</time></trkpt><trkpt lat="43.44446445515368" lon="5.857328311850525"><ele>327.25</ele><time>2026-04-18T15:04:18Z</time></trkpt><trkpt lat="43.44435994443683" lon="5.8572025139631725"><ele>328.0</ele><time>2026-04-18T15:04:19Z</time></trkpt><trkpt lat="43.44426231904961" lon="5.857055819833681"><ele>328.0</ele><time>2026-04-18T15:04:20Z</time></trkpt><trkpt lat="43.44414131165939" lon="5.856917407929882"><ele>328.0</ele><time>2026-04-18T15:04:21Z</time></trkpt><trkpt lat="43.444008970266815" lon="5.856844596255497"><ele>328.0</ele><time>2026-04-18T15:04:22Z</time></trkpt><trkpt lat="43.44389133871321" lon="5.856816005740905"><ele>328.0</ele><time>2026-04-18T15:04:23Z</time></trkpt><trkpt lat="43.44375984756369" lon="5.856790330244436"><ele>329.75</ele><time>2026-04-18T15:04:24Z</time></trkpt><trkpt lat="43.44360802267006" lon="5.8567453634235545"><ele>331.5</ele><time>2026-04-18T15:04:25Z</time></trkpt><trkpt lat="43.443469423451454" lon="5.85669968654295"><ele>333.25</ele><time>2026-04-18T15:04:26Z</time></trkpt><trkpt lat="43.44336496028544" lon="5.856655082000977"><ele>335.0</ele><time>2026-04-18T15:04:27Z</time></trkpt><trkpt lat="43.44328214435821" lon="5.856589590735286"><ele>335.0</ele><time>2026-04-18T15:04:28Z</time></trkpt><trkpt lat="43.44320053225793" lon="5.856510535873234"><ele>335.0</ele><time>2026-04-18T15:04:29Z</time></trkpt><trkpt lat="43.44311919563622" lon="5.856431217991834"><ele>335.0</ele><time>2026-04-18T15:04:30Z</time></trkpt><trkpt lat="43.44305304535412" lon="5.8563831684327985"><ele>335.0</ele><time>2026-04-18T15:04:31Z</time></trkpt><trkpt lat="43.44299700572267" lon="5.856326840190074"><ele>335.0</ele><time>2026-04-18T15:04:33Z</time></trkpt><trkpt lat="43.44299283302951" lon="5.856192991225877"><ele>335.0</ele><time>2026-04-18T15:04:36Z</time></trkpt><trkpt lat="43.44305230343175" lon="5.856138244818373"><ele>335.0</ele><time>2026-04-18T15:05:29Z</time></trkpt><trkpt lat="43.44304047175252" lon="5.856235283532064"><ele>335.0</ele><time>2026-04-18T15:05:31.999Z</time></trkpt><trkpt lat="43.443085919035774" lon="5.856344664990796"><ele>335.0</ele><time>2026-04-18T15:05:35.999Z</time></trkpt><trkpt lat="43.44317641397798" lon="5.856410747538332"><ele>335.0</ele><time>2026-04-18T15:05:36.999Z</time></trkpt><trkpt lat="43.44327247478312" lon="5.856486310080787"><ele>335.0</ele><time>2026-04-18T15:05:37.999Z</time></trkpt><trkpt lat="43.443350170403804" lon="5.856580914142431"><ele>335.0</ele><time>2026-04-18T15:05:38.999Z</time></trkpt><trkpt lat="43.44343383211927" lon="5.856646515288093"><ele>335.0</ele><time>2026-04-18T15:05:39.999Z</time></trkpt><trkpt lat="43.4435323570755" lon="5.856674944345136"><ele>335.0</ele><time>2026-04-18T15:05:40.999Z</time></trkpt><trkpt lat="43.443618972237786" lon="5.856798720616377"><ele>335.0</ele><time>2026-04-18T15:05:41.999Z</time></trkpt><trkpt lat="43.443723548293406" lon="5.856826552872542"><ele>335.0</ele><time>2026-04-18T15:05:42.999Z</time></trkpt><trkpt lat="43.443841049885876" lon="5.8568584009312605"><ele>333.83333333333337</ele><time>2026-04-18T15:05:43.999Z</time></trkpt><trkpt lat="43.443940054881566" lon="5.856905220369989"><ele>332.6666666666667</ele><time>2026-04-18T15:05:44.999Z</time></trkpt><trkpt lat="43.444031568230926" lon="5.856947213834154"><ele>331.5</ele><time>2026-04-18T15:05:45.999Z</time></trkpt><trkpt lat="43.444096441095276" lon="5.856992267134343"><ele>330.3333333333333</ele><time>2026-04-18T15:05:46.999Z</time></trkpt><trkpt lat="43.44416314392102" lon="5.8570462200614495"><ele>329.16666666666663</ele><time>2026-04-18T15:05:47.999Z</time></trkpt><trkpt lat="43.44421513811694" lon="5.857108821869391"><ele>328.0</ele><time>2026-04-18T15:05:48.999Z</time></trkpt><trkpt lat="43.444269422993436" lon="5.857178274357881"><ele>328.0</ele><time>2026-04-18T15:05:49.999Z</time></trkpt><trkpt lat="43.44431998136883" lon="5.857248441673349"><ele>328.0</ele><time>2026-04-18T15:05:50.999Z</time></trkpt><trkpt lat="43.44438142923089" lon="5.857332269709639"><ele>328.0</ele><time>2026-04-18T15:05:51.999Z</time></trkpt><trkpt lat="43.44444908614017" lon="5.857399638313492"><ele>328.0</ele><time>2026-04-18T15:05:52.999Z</time></trkpt><trkpt lat="43.44454720858012" lon="5.857461633289983"><ele>328.0</ele><time>2026-04-18T15:05:53.999Z</time></trkpt><trkpt lat="43.44461763764256" lon="5.857498551284954"><ele>328.0</ele><time>2026-04-18T15:05:54.999Z</time></trkpt><trkpt lat="43.44473148245605" lon="5.857527060586682"><ele>327.25</ele><time>2026-04-18T15:05:56.999Z</time></trkpt><trkpt lat="43.44484246140448" lon="5.8574407308626295"><ele>326.5</ele><time>2026-04-18T15:05:59Z</time></trkpt><trkpt lat="43.444935905434065" lon="5.8573743391520825"><ele>325.75</ele><time>2026-04-18T15:06:01Z</time></trkpt><trkpt lat="43.44502506415531" lon="5.857319660418778"><ele>325.0</ele><time>2026-04-18T15:06:05Z</time></trkpt><trkpt lat="43.44507423501876" lon="5.85754484687557"><ele>325.0</ele><time>2026-04-18T15:06:06Z</time></trkpt><trkpt lat="43.44514550428749" lon="5.857618341963787"><ele>325.0</ele><time>2026-04-18T15:06:07Z</time></trkpt><trkpt lat="43.44524799928144" lon="5.8577279130733695"><ele>325.0</ele><time>2026-04-18T15:06:08Z</time></trkpt><trkpt lat="43.445327891189294" lon="5.857814554750962"><ele>325.0</ele><time>2026-04-18T15:06:09Z</time></trkpt><trkpt lat="43.44543223389784" lon="5.857903437005748"><ele>325.0</ele><time>2026-04-18T15:06:10Z</time></trkpt><trkpt lat="43.445533106877605" lon="5.857959547298313"><ele>324.2</ele><time>2026-04-18T15:06:11Z</time></trkpt><trkpt lat="43.445597519193385" lon="5.858033843952233"><ele>323.4</ele><time>2026-04-18T15:06:12Z</time></trkpt><trkpt lat="43.4456352562127" lon="5.858117649653141"><ele>322.6</ele><time>2026-04-18T15:06:13Z</time></trkpt><trkpt lat="43.4456626929653" lon="5.858209030255931"><ele>321.8</ele><time>2026-04-18T15:06:14Z</time></trkpt><trkpt lat="43.44572843362981" lon="5.858385195157487"><ele>321.0</ele><time>2026-04-18T15:06:15Z</time></trkpt><trkpt lat="43.445812225416844" lon="5.858580135207466"><ele>320.5</ele><time>2026-04-18T15:06:16Z</time></trkpt><trkpt lat="43.44590516596663" lon="5.858744946207816"><ele>320.0</ele><time>2026-04-18T15:06:17Z</time></trkpt><trkpt lat="43.44597178082533" lon="5.858886709738284"><ele>319.5</ele><time>2026-04-18T15:06:18Z</time></trkpt><trkpt lat="43.44610416941844" lon="5.858942752223863"><ele>319.0</ele><time>2026-04-18T15:06:19Z</time></trkpt><trkpt lat="43.44616809670598" lon="5.85907397947973"><ele>319.0</ele><time>2026-04-18T15:06:20Z</time></trkpt><trkpt lat="43.44625593974379" lon="5.859215318964778"><ele>319.0</ele><time>2026-04-18T15:06:21Z</time></trkpt><trkpt lat="43.44634339208211" lon="5.859353794032003"><ele>319.0</ele><time>2026-04-18T15:06:22Z</time></trkpt><trkpt lat="43.4464243925958" lon="5.859472591372517"><ele>319.0</ele><time>2026-04-18T15:06:23Z</time></trkpt><trkpt lat="43.44650581046581" lon="5.859574495219831"><ele>319.16666666666663</ele><time>2026-04-18T15:06:24Z</time></trkpt><trkpt lat="43.446584389204375" lon="5.859673376583862"><ele>319.3333333333333</ele><time>2026-04-18T15:06:25Z</time></trkpt><trkpt lat="43.4466506649562" lon="5.8597448698355725"><ele>319.5</ele><time>2026-04-18T15:06:26Z</time></trkpt><trkpt lat="43.44670954635448" lon="5.859809408533769"><ele>319.6666666666667</ele><time>2026-04-18T15:06:28Z</time></trkpt><trkpt lat="43.446680693243415" lon="5.859906440260298"><ele>319.83333333333337</ele><time>2026-04-18T15:06:30Z</time></trkpt><trkpt lat="43.44661435584023" lon="5.859992548175527"><ele>320.0</ele><time>2026-04-18T15:06:32Z</time></trkpt><trkpt lat="43.446556035322985" lon="5.8600437125813105"><ele>320.0</ele><time>2026-04-18T15:06:35Z</time></trkpt><trkpt lat="43.44650417750155" lon="5.8600937208388855"><ele>320.0</ele><time>2026-04-18T15:09:36.999Z</time></trkpt><trkpt lat="43.44641410299655" lon="5.860189620460544"><ele>320.0</ele><time>2026-04-18T15:09:44.999Z</time></trkpt><trkpt lat="43.4463399783247" lon="5.860166037118642"><ele>320.0</ele><time>2026-04-18T15:09:45.999Z</time></trkpt><trkpt lat="43.4462419898666" lon="5.8601158098926796"><ele>320.0</ele><time>2026-04-18T15:09:46.999Z</time></trkpt><trkpt lat="43.446138710827064" lon="5.860071737033592"><ele>319.75</ele><time>2026-04-18T15:09:47.999Z</time></trkpt><trkpt lat="43.4460023555642" lon="5.8600231518685995"><ele>319.5</ele><time>2026-04-18T15:09:48.999Z</time></trkpt><trkpt lat="43.445863375010234" lon="5.859974945095157"><ele>319.25</ele><time>2026-04-18T15:09:49.999Z</time></trkpt><trkpt lat="43.4457126741961" lon="5.8599246819896145"><ele>319.0</ele><time>2026-04-18T15:09:50.999Z</time></trkpt><trkpt lat="43.44554013226556" lon="5.85986340350229"><ele>320.0</ele><time>2026-04-18T15:09:51.999Z</time></trkpt><trkpt lat="43.44537150023146" lon="5.859805764927593"><ele>321.0</ele><time>2026-04-18T15:09:52.999Z</time></trkpt><trkpt lat="43.44522810656218" lon="5.859747051581187"><ele>322.0</ele><time>2026-04-18T15:09:53.999Z</time></trkpt><trkpt lat="43.445097791614685" lon="5.859688529023863"><ele>322.0</ele><time>2026-04-18T15:09:54.999Z</time></trkpt><trkpt lat="43.44498160603806" lon="5.859631063912408"><ele>322.0</ele><time>2026-04-18T15:09:55.999Z</time></trkpt><trkpt lat="43.444868582627265" lon="5.859605241432695"><ele>322.0</ele><time>2026-04-18T15:09:56.999Z</time></trkpt><trkpt lat="43.44476814988805" lon="5.8595465318657"><ele>322.0</ele><time>2026-04-18T15:09:57.999Z</time></trkpt><trkpt lat="43.444674611252644" lon="5.859520208545895"><ele>322.0</ele><time>2026-04-18T15:09:58.999Z</time></trkpt><trkpt lat="43.444600952497694" lon="5.859498871258299"><ele>322.0</ele><time>2026-04-18T15:09:59.999Z</time></trkpt><trkpt lat="43.444511187222204" lon="5.859459322117387"><ele>322.0</ele><time>2026-04-18T15:10:01.999Z</time></trkpt><trkpt lat="43.44439134190113" lon="5.8594070574866395"><ele>322.0</ele><time>2026-04-18T15:10:03.999Z</time></trkpt><trkpt lat="43.444299294377956" lon="5.859361201563573"><ele>322.0</ele><time>2026-04-18T15:10:04.999Z</time></trkpt><trkpt lat="43.44418013409816" lon="5.859312404687731"><ele>322.0</ele><time>2026-04-18T15:10:05.999Z</time></trkpt><trkpt lat="43.44403836158188" lon="5.8592587013220765"><ele>322.66666666666663</ele><time>2026-04-18T15:10:06.999Z</time></trkpt><trkpt lat="43.443875402350976" lon="5.859196610151926"><ele>323.3333333333333</ele><time>2026-04-18T15:10:07.999Z</time></trkpt><trkpt lat="43.443714617465005" lon="5.859137676912977"><ele>324.0</ele><time>2026-04-18T15:10:08.999Z</time></trkpt><trkpt lat="43.443522873532416" lon="5.859069628466969"><ele>325.0</ele><time>2026-04-18T15:10:10Z</time></trkpt><trkpt lat="43.44331190001334" lon="5.858991099203924"><ele>326.0</ele><time>2026-04-18T15:10:11Z</time></trkpt><trkpt lat="43.443103544538715" lon="5.8589112114473485"><ele>327.0</ele><time>2026-04-18T15:10:12Z</time></trkpt><trkpt lat="43.44291717081866" lon="5.858839204737663"><ele>329.3333333333333</ele><time>2026-04-18T15:10:13Z</time></trkpt><trkpt lat="43.442716304258084" lon="5.858761637615992"><ele>331.66666666666663</ele><time>2026-04-18T15:10:14Z</time></trkpt><trkpt lat="43.442503958960614" lon="5.858684601154751"><ele>334.0</ele><time>2026-04-18T15:10:15Z</time></trkpt><trkpt lat="43.442298914550264" lon="5.858609482879743"><ele>334.0</ele><time>2026-04-18T15:10:16Z</time></trkpt><trkpt lat="43.44211469123901" lon="5.858536785789672"><ele>334.0</ele><time>2026-04-18T15:10:17Z</time></trkpt><trkpt lat="43.44192964426386" lon="5.85846283856007"><ele>334.0</ele><time>2026-04-18T15:10:18Z</time></trkpt><trkpt lat="43.44172744361284" lon="5.858388129972482"><ele>334.0</ele><time>2026-04-18T15:10:19Z</time></trkpt><trkpt lat="43.44151826443749" lon="5.858309290279845"><ele>334.0</ele><time>2026-04-18T15:10:20Z</time></trkpt><trkpt lat="43.44132342025726" lon="5.858232986074672"><ele>334.0</ele><time>2026-04-18T15:10:21Z</time></trkpt><trkpt lat="43.44113066737914" lon="5.858159349568474"><ele>336.0</ele><time>2026-04-18T15:10:22Z</time></trkpt><trkpt lat="43.44092465010954" lon="5.858081227971089"><ele>338.0</ele><time>2026-04-18T15:10:23Z</time></trkpt><trkpt lat="43.44073311819616" lon="5.85800632344101"><ele>340.0</ele><time>2026-04-18T15:10:24Z</time></trkpt><trkpt lat="43.440561517444166" lon="5.857942513814618"><ele>342.0</ele><time>2026-04-18T15:10:25Z</time></trkpt><trkpt lat="43.4403892078285" lon="5.857879869122407"><ele>344.0</ele><time>2026-04-18T15:10:26Z</time></trkpt><trkpt lat="43.44021383219119" lon="5.857814428411011"><ele>346.0</ele><time>2026-04-18T15:10:27Z</time></trkpt><trkpt lat="43.440062256986316" lon="5.857754372934228"><ele>346.0</ele><time>2026-04-18T15:10:28Z</time></trkpt><trkpt lat="43.43992207879009" lon="5.857700422314117"><ele>346.0</ele><time>2026-04-18T15:10:29Z</time></trkpt><trkpt lat="43.43979158774393" lon="5.857650328394172"><ele>346.0</ele><time>2026-04-18T15:10:30Z</time></trkpt><trkpt lat="43.43967931232664" lon="5.85760801940909"><ele>346.0</ele><time>2026-04-18T15:10:31Z</time></trkpt><trkpt lat="43.43960252165732" lon="5.857571199809276"><ele>346.25</ele><time>2026-04-18T15:10:32Z</time></trkpt><trkpt lat="43.43953875446922" lon="5.857548849955132"><ele>346.5</ele><time>2026-04-18T15:10:33Z</time></trkpt><trkpt lat="43.43952582281413" lon="5.857297643616713"><ele>346.75</ele><time>2026-04-18T15:10:35Z</time></trkpt><trkpt lat="43.43956378671364" lon="5.857166784318337"><ele>347.0</ele><time>2026-04-18T15:10:36Z</time></trkpt><trkpt lat="43.43961662243555" lon="5.857031228425705"><ele>345.25</ele><time>2026-04-18T15:10:37Z</time></trkpt><trkpt lat="43.439657622410365" lon="5.856871365277588"><ele>343.5</ele><time>2026-04-18T15:10:38Z</time></trkpt><trkpt lat="43.43966358260628" lon="5.8566947701863095"><ele>341.75</ele><time>2026-04-18T15:10:39Z</time></trkpt><trkpt lat="43.43966487840434" lon="5.856490280549449"><ele>340.0</ele><time>2026-04-18T15:10:40Z</time></trkpt><trkpt lat="43.43968549025925" lon="5.856264643879523"><ele>339.75</ele><time>2026-04-18T15:10:41Z</time></trkpt><trkpt lat="43.43971282670416" lon="5.856058003089959"><ele>339.5</ele><time>2026-04-18T15:10:42Z</time></trkpt><trkpt lat="43.43973190062828" lon="5.855864356728356"><ele>339.25</ele><time>2026-04-18T15:10:43Z</time></trkpt><trkpt lat="43.4397671244259" lon="5.855684082528472"><ele>339.0</ele><time>2026-04-18T15:10:44Z</time></trkpt><trkpt lat="43.43980267919882" lon="5.855521816454956"><ele>340.0</ele><time>2026-04-18T15:10:45Z</time></trkpt><trkpt lat="43.43983675233768" lon="5.855368330277828"><ele>341.0</ele><time>2026-04-18T15:10:46Z</time></trkpt><trkpt lat="43.439879427320285" lon="5.85521632473346"><ele>342.0</ele><time>2026-04-18T15:10:47Z</time></trkpt><trkpt lat="43.439923439526936" lon="5.8550504414904045"><ele>343.0</ele><time>2026-04-18T15:10:48Z</time></trkpt><trkpt lat="43.43996062700176" lon="5.85485979435116"><ele>345.0</ele><time>2026-04-18T15:10:49Z</time></trkpt><trkpt lat="43.439972885812196" lon="5.854654519501672"><ele>347.0</ele><time>2026-04-18T15:10:50Z</time></trkpt><trkpt lat="43.43996213103514" lon="5.854439051480046"><ele>349.0</ele><time>2026-04-18T15:10:51Z</time></trkpt><trkpt lat="43.439958234320315" lon="5.854238786239284"><ele>349.5</ele><time>2026-04-18T15:10:52Z</time></trkpt><trkpt lat="43.4399877852408" lon="5.854064103451862"><ele>350.0</ele><time>2026-04-18T15:10:53Z</time></trkpt><trkpt lat="43.4400338787762" lon="5.853890007364719"><ele>350.5</ele><time>2026-04-18T15:10:54Z</time></trkpt><trkpt lat="43.440079276052415" lon="5.85373512285982"><ele>351.0</ele><time>2026-04-18T15:10:55Z</time></trkpt><trkpt lat="43.44008723124488" lon="5.8535924296077635"><ele>352.0</ele><time>2026-04-18T15:10:56Z</time></trkpt><trkpt lat="43.44005380911041" lon="5.853452555431938"><ele>353.0</ele><time>2026-04-18T15:10:57Z</time></trkpt><trkpt lat="43.440022762542796" lon="5.8533103163638405"><ele>354.0</ele><time>2026-04-18T15:10:57.999Z</time></trkpt><trkpt lat="43.44001378812755" lon="5.853154725529883"><ele>355.0</ele><time>2026-04-18T15:10:58.999Z</time></trkpt><trkpt lat="43.44003353688076" lon="5.85299405614748"><ele>356.0</ele><time>2026-04-18T15:10:59.999Z</time></trkpt><trkpt lat="43.44006204376075" lon="5.852842466539358"><ele>356.0</ele><time>2026-04-18T15:11:00.999Z</time></trkpt><trkpt lat="43.44009142856994" lon="5.852722417659862"><ele>356.0</ele><time>2026-04-18T15:11:01.999Z</time></trkpt><trkpt lat="43.44008597571459" lon="5.852621676248005"><ele>356.0</ele><time>2026-04-18T15:11:02.999Z</time></trkpt><trkpt lat="43.44005878535663" lon="5.852515151802159"><ele>356.0</ele><time>2026-04-18T15:11:03.999Z</time></trkpt><trkpt lat="43.439995900094836" lon="5.852457991939307"><ele>356.0</ele><time>2026-04-18T15:11:04.999Z</time></trkpt><trkpt lat="43.43993019665739" lon="5.852429273562185"><ele>356.0</ele><time>2026-04-18T15:11:05.999Z</time></trkpt><trkpt lat="43.43986827064364" lon="5.852408762872984"><ele>357.6</ele><time>2026-04-18T15:11:06.999Z</time></trkpt><trkpt lat="43.43980058625622" lon="5.852381393747131"><ele>359.20000000000005</ele><time>2026-04-18T15:11:07.999Z</time></trkpt><trkpt lat="43.439719568804804" lon="5.8523456276130235"><ele>360.79999999999995</ele><time>2026-04-18T15:11:08.999Z</time></trkpt><trkpt lat="43.43961855502663" lon="5.852289411632368"><ele>362.4</ele><time>2026-04-18T15:11:09.999Z</time></trkpt><trkpt lat="43.439501403164336" lon="5.852210657931545"><ele>364.0</ele><time>2026-04-18T15:11:10.999Z</time></trkpt><trkpt lat="43.439387037966135" lon="5.85213409046606"><ele>364.79999999999995</ele><time>2026-04-18T15:11:11.999Z</time></trkpt><trkpt lat="43.43927886665304" lon="5.852060984458835"><ele>365.59999999999997</ele><time>2026-04-18T15:11:12.999Z</time></trkpt><trkpt lat="43.43917712195428" lon="5.851988811090813"><ele>366.4</ele><time>2026-04-18T15:11:13.999Z</time></trkpt><trkpt lat="43.43909211281403" lon="5.851926568304751"><ele>367.2</ele><time>2026-04-18T15:11:14.999Z</time></trkpt><trkpt lat="43.43903412172286" lon="5.851884722494667"><ele>368.0</ele><time>2026-04-18T15:11:15.999Z</time></trkpt><trkpt lat="43.438951492730226" lon="5.851895116976264"><ele>368.0</ele><time>2026-04-18T15:11:17.999Z</time></trkpt><trkpt lat="43.438881856350164" lon="5.852028645292542"><ele>368.0</ele><time>2026-04-18T15:11:19.999Z</time></trkpt><trkpt lat="43.438852217245305" lon="5.852175537007319"><ele>368.0</ele><time>2026-04-18T15:11:20.999Z</time></trkpt><trkpt lat="43.438828533134576" lon="5.852276747224374"><ele>368.0</ele><time>2026-04-18T15:11:21.999Z</time></trkpt><trkpt lat="43.438807315328184" lon="5.852360144099502"><ele>368.0</ele><time>2026-04-18T15:11:22.999Z</time></trkpt><trkpt lat="43.43878499332773" lon="5.8524478810175475"><ele>368.0</ele><time>2026-04-18T15:11:24.999Z</time></trkpt><trkpt lat="43.43877138858157" lon="5.852538713766852"><ele>361.0</ele><time>2026-04-18T15:11:38.999Z</time></trkpt><trkpt lat="43.43873255832801" lon="5.852613466909782"><ele>361.0</ele><time>2026-04-18T15:12:06.999Z</time></trkpt></trkseg></trk></gpx>